<?xml version="1.0" encoding="UTF-8"?>
<gpx creator="Garmin Connect" version="1.1"
  xsi:schemaLocation="http://www.topografix.com/GPX/1/1 http://www.topografix.com/GPX/11.xsd"
  xmlns:ns3="http://www.garmin.com/xmlschemas/TrackPointExtension/v1"
  xmlns="http://www.topografix.com/GPX/1/1"
  xmlns:xsi="http://www.w3.org/2001/XMLSchema-instance" xmlns:ns2="http://www.garmin.com/xmlschemas/GpxExtensions/v3">
  <metadata>
    <link href="connect.garmin.com">
      <text>Garmin Connect</text>
    </link>
    <time>2026-08-31T05:10:12.000Z</time>
  </metadata>
  <trk>
    <name>Ceillac Trail</name>
    <type>trail_running</type>
    <trkseg>
      <trkpt lat="44.66856353916227817535400390625" lon="6.77827334962785243988037109375">
        <ele>1651.199951171875</ele>
        <time>2026-08-31T05:10:26.000Z</time>
        <extensions>
          <ns3:TrackPointExtension>
            <ns3:hr>79</ns3:hr>
            <ns3:cad>59</ns3:cad>
          </ns3:TrackPointExtension>
        </extensions>
      </trkpt>
      <trkpt lat="44.66852012090384960174560546875" lon="6.77827804349362850189208984375">
        <ele>1651</ele>
        <time>2026-08-31T05:10:27.000Z</time>
        <extensions>
          <ns3:TrackPointExtension>
            <ns3:hr>81</ns3:hr>
            <ns3:cad>59</ns3:cad>
          </ns3:TrackPointExtension>
        </extensions>
      </trkpt>
      <trkpt lat="44.66857057996094226837158203125" lon="6.778234206140041351318359375">
        <ele>1651</ele>
        <time>2026-08-31T05:10:28.000Z</time>
        <extensions>
          <ns3:TrackPointExtension>
            <ns3:hr>83</ns3:hr>
            <ns3:cad>60</ns3:cad>
          </ns3:TrackPointExtension>
        </extensions>
      </trkpt>
      <trkpt lat="44.6685917861759662628173828125" lon="6.77832297049462795257568359375">
        <ele>1651</ele>
        <time>2026-08-31T05:10:29.000Z</time>
        <extensions>
          <ns3:TrackPointExtension>
            <ns3:hr>84</ns3:hr>
            <ns3:cad>61</ns3:cad>
          </ns3:TrackPointExtension>
        </extensions>
      </trkpt>
      <trkpt lat="44.66864048503339290618896484375" lon="6.778340153396129608154296875">
        <ele>1651</ele>
        <time>2026-08-31T05:10:30.000Z</time>
        <extensions>
          <ns3:TrackPointExtension>
            <ns3:hr>85</ns3:hr>
            <ns3:cad>61</ns3:cad>
          </ns3:TrackPointExtension>
        </extensions>
      </trkpt>
      <trkpt lat="44.66865976341068744659423828125" lon="6.77833705209195613861083984375">
        <ele>1651</ele>
        <time>2026-08-31T05:10:31.000Z</time>
        <extensions>
          <ns3:TrackPointExtension>
            <ns3:hr>86</ns3:hr>
            <ns3:cad>61</ns3:cad>
          </ns3:TrackPointExtension>
        </extensions>
      </trkpt>
      <trkpt lat="44.66867082752287387847900390625" lon="6.7783430032432079315185546875">
        <ele>1651.199951171875</ele>
        <time>2026-08-31T05:10:32.000Z</time>
        <extensions>
          <ns3:TrackPointExtension>
            <ns3:hr>87</ns3:hr>
            <ns3:cad>62</ns3:cad>
          </ns3:TrackPointExtension>
        </extensions>
      </trkpt>
      <trkpt lat="44.66868155635893344879150390625" lon="6.77834945730865001678466796875">
        <ele>1651.199951171875</ele>
        <time>2026-08-31T05:10:33.000Z</time>
        <extensions>
          <ns3:TrackPointExtension>
            <ns3:hr>88</ns3:hr>
            <ns3:cad>62</ns3:cad>
          </ns3:TrackPointExtension>
        </extensions>
      </trkpt>
      <trkpt lat="44.6686937101185321807861328125" lon="6.77835448645055294036865234375">
        <ele>1651.199951171875</ele>
        <time>2026-08-31T05:10:34.000Z</time>
        <extensions>
          <ns3:TrackPointExtension>
            <ns3:hr>90</ns3:hr>
            <ns3:cad>62</ns3:cad>
          </ns3:TrackPointExtension>
        </extensions>
      </trkpt>
      <trkpt lat="44.66870670206844806671142578125" lon="6.7783644609153270721435546875">
        <ele>1651.4000244140625</ele>
        <time>2026-08-31T05:10:35.000Z</time>
        <extensions>
          <ns3:TrackPointExtension>
            <ns3:hr>91</ns3:hr>
            <ns3:cad>61</ns3:cad>
          </ns3:TrackPointExtension>
        </extensions>
      </trkpt>
      <trkpt lat="44.66871893964707851409912109375" lon="6.77837275899946689605712890625">
        <ele>1651.4000244140625</ele>
        <time>2026-08-31T05:10:36.000Z</time>
        <extensions>
          <ns3:TrackPointExtension>
            <ns3:hr>93</ns3:hr>
            <ns3:cad>61</ns3:cad>
          </ns3:TrackPointExtension>
        </extensions>
      </trkpt>
      <trkpt lat="44.6687329374253749847412109375" lon="6.7783832363784313201904296875">
        <ele>1651.4000244140625</ele>
        <time>2026-08-31T05:10:37.000Z</time>
        <extensions>
          <ns3:TrackPointExtension>
            <ns3:hr>94</ns3:hr>
            <ns3:cad>60</ns3:cad>
          </ns3:TrackPointExtension>
        </extensions>
      </trkpt>
      <trkpt lat="44.6687431633472442626953125" lon="6.77839539013803005218505859375">
        <ele>1651.4000244140625</ele>
        <time>2026-08-31T05:10:38.000Z</time>
        <extensions>
          <ns3:TrackPointExtension>
            <ns3:hr>96</ns3:hr>
            <ns3:cad>60</ns3:cad>
          </ns3:TrackPointExtension>
        </extensions>
      </trkpt>
      <trkpt lat="44.668752215802669525146484375" lon="6.778405196964740753173828125">
        <ele>1651.5999755859375</ele>
        <time>2026-08-31T05:10:39.000Z</time>
        <extensions>
          <ns3:TrackPointExtension>
            <ns3:hr>97</ns3:hr>
            <ns3:cad>60</ns3:cad>
          </ns3:TrackPointExtension>
        </extensions>
      </trkpt>
      <trkpt lat="44.668764285743236541748046875" lon="6.77841902710497379302978515625">
        <ele>1651.5999755859375</ele>
        <time>2026-08-31T05:10:40.000Z</time>
        <extensions>
          <ns3:TrackPointExtension>
            <ns3:hr>98</ns3:hr>
            <ns3:cad>60</ns3:cad>
          </ns3:TrackPointExtension>
        </extensions>
      </trkpt>
      <trkpt lat="44.668775014579296112060546875" lon="6.77843562327325344085693359375">
        <ele>1651.5999755859375</ele>
        <time>2026-08-31T05:10:41.000Z</time>
        <extensions>
          <ns3:TrackPointExtension>
            <ns3:hr>99</ns3:hr>
            <ns3:cad>60</ns3:cad>
          </ns3:TrackPointExtension>
        </extensions>
      </trkpt>
      <trkpt lat="44.66878700070083141326904296875" lon="6.77845020778477191925048828125">
        <ele>1651.800048828125</ele>
        <time>2026-08-31T05:10:42.000Z</time>
        <extensions>
          <ns3:TrackPointExtension>
            <ns3:hr>100</ns3:hr>
            <ns3:cad>61</ns3:cad>
          </ns3:TrackPointExtension>
        </extensions>
      </trkpt>
      <trkpt lat="44.66879119165241718292236328125" lon="6.7784596793353557586669921875">
        <ele>1651.800048828125</ele>
        <time>2026-08-31T05:10:43.000Z</time>
        <extensions>
          <ns3:TrackPointExtension>
            <ns3:hr>101</ns3:hr>
            <ns3:cad>61</ns3:cad>
          </ns3:TrackPointExtension>
        </extensions>
      </trkpt>
      <trkpt lat="44.668797813355922698974609375" lon="6.77847334183752536773681640625">
        <ele>1652</ele>
        <time>2026-08-31T05:10:44.000Z</time>
        <extensions>
          <ns3:TrackPointExtension>
            <ns3:hr>102</ns3:hr>
            <ns3:cad>61</ns3:cad>
          </ns3:TrackPointExtension>
        </extensions>
      </trkpt>
      <trkpt lat="44.6688056923449039459228515625" lon="6.778492368757724761962890625">
        <ele>1652</ele>
        <time>2026-08-31T05:10:45.000Z</time>
        <extensions>
          <ns3:TrackPointExtension>
            <ns3:hr>103</ns3:hr>
            <ns3:cad>61</ns3:cad>
          </ns3:TrackPointExtension>
        </extensions>
      </trkpt>
      <trkpt lat="44.66881365515291690826416015625" lon="6.778508126735687255859375">
        <ele>1652</ele>
        <time>2026-08-31T05:10:46.000Z</time>
        <extensions>
          <ns3:TrackPointExtension>
            <ns3:hr>104</ns3:hr>
            <ns3:cad>61</ns3:cad>
          </ns3:TrackPointExtension>
        </extensions>
      </trkpt>
      <trkpt lat="44.66882253997027873992919921875" lon="6.778521202504634857177734375">
        <ele>1652.199951171875</ele>
        <time>2026-08-31T05:10:47.000Z</time>
        <extensions>
          <ns3:TrackPointExtension>
            <ns3:hr>105</ns3:hr>
            <ns3:cad>60</ns3:cad>
          </ns3:TrackPointExtension>
        </extensions>
      </trkpt>
      <trkpt lat="44.6688305027782917022705078125" lon="6.7785334400832653045654296875">
        <ele>1652.199951171875</ele>
        <time>2026-08-31T05:10:48.000Z</time>
        <extensions>
          <ns3:TrackPointExtension>
            <ns3:hr>106</ns3:hr>
            <ns3:cad>60</ns3:cad>
          </ns3:TrackPointExtension>
        </extensions>
      </trkpt>
      <trkpt lat="44.6688362024724483489990234375" lon="6.778542995452880859375">
        <ele>1652.199951171875</ele>
        <time>2026-08-31T05:10:49.000Z</time>
        <extensions>
          <ns3:TrackPointExtension>
            <ns3:hr>106</ns3:hr>
            <ns3:cad>59</ns3:cad>
          </ns3:TrackPointExtension>
        </extensions>
      </trkpt>
      <trkpt lat="44.6688450872898101806640625" lon="6.77855263464152812957763671875">
        <ele>1652.4000244140625</ele>
        <time>2026-08-31T05:10:50.000Z</time>
        <extensions>
          <ns3:TrackPointExtension>
            <ns3:hr>107</ns3:hr>
            <ns3:cad>59</ns3:cad>
          </ns3:TrackPointExtension>
        </extensions>
      </trkpt>
      <trkpt lat="44.66885271482169628143310546875" lon="6.7785622738301753997802734375">
        <ele>1652.5999755859375</ele>
        <time>2026-08-31T05:10:51.000Z</time>
        <extensions>
          <ns3:TrackPointExtension>
            <ns3:hr>108</ns3:hr>
            <ns3:cad>59</ns3:cad>
          </ns3:TrackPointExtension>
        </extensions>
      </trkpt>
      <trkpt lat="44.66885858215391635894775390625" lon="6.7785716615617275238037109375">
        <ele>1652.5999755859375</ele>
        <time>2026-08-31T05:10:52.000Z</time>
        <extensions>
          <ns3:TrackPointExtension>
            <ns3:hr>109</ns3:hr>
            <ns3:cad>59</ns3:cad>
          </ns3:TrackPointExtension>
        </extensions>
      </trkpt>
      <trkpt lat="44.668864868581295013427734375" lon="6.7785813845694065093994140625">
        <ele>1652.800048828125</ele>
        <time>2026-08-31T05:10:53.000Z</time>
        <extensions>
          <ns3:TrackPointExtension>
            <ns3:hr>110</ns3:hr>
            <ns3:cad>59</ns3:cad>
          </ns3:TrackPointExtension>
        </extensions>
      </trkpt>
      <trkpt lat="44.66887165792286396026611328125" lon="6.77859387360513210296630859375">
        <ele>1652.800048828125</ele>
        <time>2026-08-31T05:10:54.000Z</time>
        <extensions>
          <ns3:TrackPointExtension>
            <ns3:hr>111</ns3:hr>
            <ns3:cad>59</ns3:cad>
          </ns3:TrackPointExtension>
        </extensions>
      </trkpt>
      <trkpt lat="44.66887928545475006103515625" lon="6.77861248143017292022705078125">
        <ele>1653</ele>
        <time>2026-08-31T05:10:55.000Z</time>
        <extensions>
          <ns3:TrackPointExtension>
            <ns3:hr>112</ns3:hr>
            <ns3:cad>59</ns3:cad>
          </ns3:TrackPointExtension>
        </extensions>
      </trkpt>
      <trkpt lat="44.6688871644437313079833984375" lon="6.77863142453134059906005859375">
        <ele>1653</ele>
        <time>2026-08-31T05:10:56.000Z</time>
        <extensions>
          <ns3:TrackPointExtension>
            <ns3:hr>113</ns3:hr>
            <ns3:cad>59</ns3:cad>
          </ns3:TrackPointExtension>
        </extensions>
      </trkpt>
      <trkpt lat="44.668897055089473724365234375" lon="6.77865120582282543182373046875">
        <ele>1653</ele>
        <time>2026-08-31T05:10:57.000Z</time>
        <extensions>
          <ns3:TrackPointExtension>
            <ns3:hr>114</ns3:hr>
            <ns3:cad>59</ns3:cad>
          </ns3:TrackPointExtension>
        </extensions>
      </trkpt>
      <trkpt lat="44.6689066104590892791748046875" lon="6.77866914309561252593994140625">
        <ele>1653</ele>
        <time>2026-08-31T05:10:58.000Z</time>
        <extensions>
          <ns3:TrackPointExtension>
            <ns3:hr>115</ns3:hr>
            <ns3:cad>59</ns3:cad>
          </ns3:TrackPointExtension>
        </extensions>
      </trkpt>
      <trkpt lat="44.6689148247241973876953125" lon="6.7786836437880992889404296875">
        <ele>1653</ele>
        <time>2026-08-31T05:10:59.000Z</time>
        <extensions>
          <ns3:TrackPointExtension>
            <ns3:hr>116</ns3:hr>
            <ns3:cad>59</ns3:cad>
          </ns3:TrackPointExtension>
        </extensions>
      </trkpt>
      <trkpt lat="44.668923877179622650146484375" lon="6.7786972224712371826171875">
        <ele>1653</ele>
        <time>2026-08-31T05:11:00.000Z</time>
        <extensions>
          <ns3:TrackPointExtension>
            <ns3:hr>117</ns3:hr>
            <ns3:cad>59</ns3:cad>
          </ns3:TrackPointExtension>
        </extensions>
      </trkpt>
      <trkpt lat="44.668931253254413604736328125" lon="6.77871172316372394561767578125">
        <ele>1653</ele>
        <time>2026-08-31T05:11:01.000Z</time>
        <extensions>
          <ns3:TrackPointExtension>
            <ns3:hr>117</ns3:hr>
            <ns3:cad>60</ns3:cad>
          </ns3:TrackPointExtension>
        </extensions>
      </trkpt>
      <trkpt lat="44.6689389646053314208984375" lon="6.7787228710949420928955078125">
        <ele>1653</ele>
        <time>2026-08-31T05:11:02.000Z</time>
        <extensions>
          <ns3:TrackPointExtension>
            <ns3:hr>118</ns3:hr>
            <ns3:cad>61</ns3:cad>
          </ns3:TrackPointExtension>
        </extensions>
      </trkpt>
      <trkpt lat="44.6689470112323760986328125" lon="6.7787349410355091094970703125">
        <ele>1653.199951171875</ele>
        <time>2026-08-31T05:11:03.000Z</time>
        <extensions>
          <ns3:TrackPointExtension>
            <ns3:hr>119</ns3:hr>
            <ns3:cad>61</ns3:cad>
          </ns3:TrackPointExtension>
        </extensions>
      </trkpt>
      <trkpt lat="44.66895581223070621490478515625" lon="6.778747849166393280029296875">
        <ele>1653.199951171875</ele>
        <time>2026-08-31T05:11:04.000Z</time>
        <extensions>
          <ns3:TrackPointExtension>
            <ns3:hr>120</ns3:hr>
            <ns3:cad>61</ns3:cad>
          </ns3:TrackPointExtension>
        </extensions>
      </trkpt>
      <trkpt lat="44.6689659543335437774658203125" lon="6.77876285277307033538818359375">
        <ele>1653.199951171875</ele>
        <time>2026-08-31T05:11:05.000Z</time>
        <extensions>
          <ns3:TrackPointExtension>
            <ns3:hr>120</ns3:hr>
            <ns3:cad>61</ns3:cad>
          </ns3:TrackPointExtension>
        </extensions>
      </trkpt>
      <trkpt lat="44.66897928155958652496337890625" lon="6.77877944894134998321533203125">
        <ele>1653.199951171875</ele>
        <time>2026-08-31T05:11:06.000Z</time>
        <extensions>
          <ns3:TrackPointExtension>
            <ns3:hr>121</ns3:hr>
            <ns3:cad>61</ns3:cad>
          </ns3:TrackPointExtension>
        </extensions>
      </trkpt>
      <trkpt lat="44.668991602957248687744140625" lon="6.77879512310028076171875">
        <ele>1653.4000244140625</ele>
        <time>2026-08-31T05:11:07.000Z</time>
        <extensions>
          <ns3:TrackPointExtension>
            <ns3:hr>121</ns3:hr>
            <ns3:cad>61</ns3:cad>
          </ns3:TrackPointExtension>
        </extensions>
      </trkpt>
      <trkpt lat="44.669001661241054534912109375" lon="6.7788103781640529632568359375">
        <ele>1653.4000244140625</ele>
        <time>2026-08-31T05:11:08.000Z</time>
        <extensions>
          <ns3:TrackPointExtension>
            <ns3:hr>121</ns3:hr>
            <ns3:cad>61</ns3:cad>
          </ns3:TrackPointExtension>
        </extensions>
      </trkpt>
      <trkpt lat="44.66901029460132122039794921875" lon="6.778820939362049102783203125">
        <ele>1653.4000244140625</ele>
        <time>2026-08-31T05:11:09.000Z</time>
        <extensions>
          <ns3:TrackPointExtension>
            <ns3:hr>122</ns3:hr>
            <ns3:cad>61</ns3:cad>
          </ns3:TrackPointExtension>
        </extensions>
      </trkpt>
      <trkpt lat="44.669019095599651336669921875" lon="6.77883108146488666534423828125">
        <ele>1653.4000244140625</ele>
        <time>2026-08-31T05:11:10.000Z</time>
        <extensions>
          <ns3:TrackPointExtension>
            <ns3:hr>122</ns3:hr>
            <ns3:cad>61</ns3:cad>
          </ns3:TrackPointExtension>
        </extensions>
      </trkpt>
      <trkpt lat="44.66902806423604488372802734375" lon="6.77884147502481937408447265625">
        <ele>1653.4000244140625</ele>
        <time>2026-08-31T05:11:11.000Z</time>
        <extensions>
          <ns3:TrackPointExtension>
            <ns3:hr>123</ns3:hr>
            <ns3:cad>61</ns3:cad>
          </ns3:TrackPointExtension>
        </extensions>
      </trkpt>
      <trkpt lat="44.66903661377727985382080078125" lon="6.778851784765720367431640625">
        <ele>1653.4000244140625</ele>
        <time>2026-08-31T05:11:12.000Z</time>
        <extensions>
          <ns3:TrackPointExtension>
            <ns3:hr>123</ns3:hr>
            <ns3:cad>61</ns3:cad>
          </ns3:TrackPointExtension>
        </extensions>
      </trkpt>
      <trkpt lat="44.66904683969914913177490234375" lon="6.778862178325653076171875">
        <ele>1653.5999755859375</ele>
        <time>2026-08-31T05:11:13.000Z</time>
        <extensions>
          <ns3:TrackPointExtension>
            <ns3:hr>123</ns3:hr>
            <ns3:cad>61</ns3:cad>
          </ns3:TrackPointExtension>
        </extensions>
      </trkpt>
      <trkpt lat="44.669057317078113555908203125" lon="6.77887265570461750030517578125">
        <ele>1653.5999755859375</ele>
        <time>2026-08-31T05:11:14.000Z</time>
        <extensions>
          <ns3:TrackPointExtension>
            <ns3:hr>124</ns3:hr>
            <ns3:cad>61</ns3:cad>
          </ns3:TrackPointExtension>
        </extensions>
      </trkpt>
      <trkpt lat="44.66906829737126827239990234375" lon="6.778884641826152801513671875">
        <ele>1653.800048828125</ele>
        <time>2026-08-31T05:11:15.000Z</time>
        <extensions>
          <ns3:TrackPointExtension>
            <ns3:hr>124</ns3:hr>
            <ns3:cad>61</ns3:cad>
          </ns3:TrackPointExtension>
        </extensions>
      </trkpt>
      <trkpt lat="44.66907852329313755035400390625" lon="6.77889780141413211822509765625">
        <ele>1653.800048828125</ele>
        <time>2026-08-31T05:11:16.000Z</time>
        <extensions>
          <ns3:TrackPointExtension>
            <ns3:hr>124</ns3:hr>
            <ns3:cad>61</ns3:cad>
          </ns3:TrackPointExtension>
        </extensions>
      </trkpt>
      <trkpt lat="44.66908925212919712066650390625" lon="6.778910122811794281005859375">
        <ele>1654</ele>
        <time>2026-08-31T05:11:17.000Z</time>
        <extensions>
          <ns3:TrackPointExtension>
            <ns3:hr>123</ns3:hr>
            <ns3:cad>60</ns3:cad>
          </ns3:TrackPointExtension>
        </extensions>
      </trkpt>
      <trkpt lat="44.66909964568912982940673828125" lon="6.77892160601913928985595703125">
        <ele>1654.199951171875</ele>
        <time>2026-08-31T05:11:18.000Z</time>
        <extensions>
          <ns3:TrackPointExtension>
            <ns3:hr>124</ns3:hr>
            <ns3:cad>59</ns3:cad>
          </ns3:TrackPointExtension>
        </extensions>
      </trkpt>
      <trkpt lat="44.66910584829747676849365234375" lon="6.7789404653012752532958984375">
        <ele>1654.199951171875</ele>
        <time>2026-08-31T05:11:19.000Z</time>
        <extensions>
          <ns3:TrackPointExtension>
            <ns3:hr>124</ns3:hr>
            <ns3:cad>59</ns3:cad>
          </ns3:TrackPointExtension>
        </extensions>
      </trkpt>
      <trkpt lat="44.66911473311483860015869140625" lon="6.778957732021808624267578125">
        <ele>1654.199951171875</ele>
        <time>2026-08-31T05:11:20.000Z</time>
        <extensions>
          <ns3:TrackPointExtension>
            <ns3:hr>124</ns3:hr>
            <ns3:cad>59</ns3:cad>
          </ns3:TrackPointExtension>
        </extensions>
      </trkpt>
      <trkpt lat="44.66912244446575641632080078125" lon="6.7789739929139614105224609375">
        <ele>1654.4000244140625</ele>
        <time>2026-08-31T05:11:21.000Z</time>
        <extensions>
          <ns3:TrackPointExtension>
            <ns3:hr>124</ns3:hr>
            <ns3:cad>59</ns3:cad>
          </ns3:TrackPointExtension>
        </extensions>
      </trkpt>
      <trkpt lat="44.66913015581667423248291015625" lon="6.77898664958775043487548828125">
        <ele>1654.4000244140625</ele>
        <time>2026-08-31T05:11:22.000Z</time>
        <extensions>
          <ns3:TrackPointExtension>
            <ns3:hr>124</ns3:hr>
            <ns3:cad>59</ns3:cad>
          </ns3:TrackPointExtension>
        </extensions>
      </trkpt>
      <trkpt lat="44.6691389568150043487548828125" lon="6.77900006063282489776611328125">
        <ele>1654.5999755859375</ele>
        <time>2026-08-31T05:11:23.000Z</time>
        <extensions>
          <ns3:TrackPointExtension>
            <ns3:hr>124</ns3:hr>
            <ns3:cad>59</ns3:cad>
          </ns3:TrackPointExtension>
        </extensions>
      </trkpt>
      <trkpt lat="44.669146500527858734130859375" lon="6.77901246584951877593994140625">
        <ele>1654.5999755859375</ele>
        <time>2026-08-31T05:11:24.000Z</time>
        <extensions>
          <ns3:TrackPointExtension>
            <ns3:hr>125</ns3:hr>
            <ns3:cad>59</ns3:cad>
          </ns3:TrackPointExtension>
        </extensions>
      </trkpt>
      <trkpt lat="44.6691560558974742889404296875" lon="6.77902604453265666961669921875">
        <ele>1654.800048828125</ele>
        <time>2026-08-31T05:11:25.000Z</time>
        <extensions>
          <ns3:TrackPointExtension>
            <ns3:hr>125</ns3:hr>
            <ns3:cad>59</ns3:cad>
          </ns3:TrackPointExtension>
        </extensions>
      </trkpt>
      <trkpt lat="44.669164605438709259033203125" lon="6.779038868844509124755859375">
        <ele>1654.800048828125</ele>
        <time>2026-08-31T05:11:26.000Z</time>
        <extensions>
          <ns3:TrackPointExtension>
            <ns3:hr>125</ns3:hr>
            <ns3:cad>59</ns3:cad>
          </ns3:TrackPointExtension>
        </extensions>
      </trkpt>
      <trkpt lat="44.66917541809380054473876953125" lon="6.77905219607055187225341796875">
        <ele>1654.800048828125</ele>
        <time>2026-08-31T05:11:27.000Z</time>
        <extensions>
          <ns3:TrackPointExtension>
            <ns3:hr>126</ns3:hr>
            <ns3:cad>60</ns3:cad>
          </ns3:TrackPointExtension>
        </extensions>
      </trkpt>
      <trkpt lat="44.669184386730194091796875" lon="6.7790661938488483428955078125">
        <ele>1654.800048828125</ele>
        <time>2026-08-31T05:11:28.000Z</time>
        <extensions>
          <ns3:TrackPointExtension>
            <ns3:hr>127</ns3:hr>
            <ns3:cad>61</ns3:cad>
          </ns3:TrackPointExtension>
        </extensions>
      </trkpt>
      <trkpt lat="44.6691952832043170928955078125" lon="6.77908069454133510589599609375">
        <ele>1654.800048828125</ele>
        <time>2026-08-31T05:11:29.000Z</time>
        <extensions>
          <ns3:TrackPointExtension>
            <ns3:hr>127</ns3:hr>
            <ns3:cad>61</ns3:cad>
          </ns3:TrackPointExtension>
        </extensions>
      </trkpt>
      <trkpt lat="44.66920358128845691680908203125" lon="6.7790940217673778533935546875">
        <ele>1654.800048828125</ele>
        <time>2026-08-31T05:11:30.000Z</time>
        <extensions>
          <ns3:TrackPointExtension>
            <ns3:hr>128</ns3:hr>
            <ns3:cad>61</ns3:cad>
          </ns3:TrackPointExtension>
        </extensions>
      </trkpt>
      <trkpt lat="44.66921187937259674072265625" lon="6.779108941555023193359375">
        <ele>1655</ele>
        <time>2026-08-31T05:11:31.000Z</time>
        <extensions>
          <ns3:TrackPointExtension>
            <ns3:hr>128</ns3:hr>
            <ns3:cad>61</ns3:cad>
          </ns3:TrackPointExtension>
        </extensions>
      </trkpt>
      <trkpt lat="44.669221602380275726318359375" lon="6.77912293933331966400146484375">
        <ele>1655</ele>
        <time>2026-08-31T05:11:32.000Z</time>
        <extensions>
          <ns3:TrackPointExtension>
            <ns3:hr>129</ns3:hr>
            <ns3:cad>61</ns3:cad>
          </ns3:TrackPointExtension>
        </extensions>
      </trkpt>
      <trkpt lat="44.669230319559574127197265625" lon="6.77913584746420383453369140625">
        <ele>1655</ele>
        <time>2026-08-31T05:11:33.000Z</time>
        <extensions>
          <ns3:TrackPointExtension>
            <ns3:hr>129</ns3:hr>
            <ns3:cad>61</ns3:cad>
          </ns3:TrackPointExtension>
        </extensions>
      </trkpt>
      <trkpt lat="44.66923979111015796661376953125" lon="6.77914808504283428192138671875">
        <ele>1655.199951171875</ele>
        <time>2026-08-31T05:11:34.000Z</time>
        <extensions>
          <ns3:TrackPointExtension>
            <ns3:hr>129</ns3:hr>
            <ns3:cad>61</ns3:cad>
          </ns3:TrackPointExtension>
        </extensions>
      </trkpt>
      <trkpt lat="44.66924850828945636749267578125" lon="6.77916049025952816009521484375">
        <ele>1655.199951171875</ele>
        <time>2026-08-31T05:11:35.000Z</time>
        <extensions>
          <ns3:TrackPointExtension>
            <ns3:hr>130</ns3:hr>
            <ns3:cad>61</ns3:cad>
          </ns3:TrackPointExtension>
        </extensions>
      </trkpt>
      <trkpt lat="44.6692583151161670684814453125" lon="6.77916954271495342254638671875">
        <ele>1655.199951171875</ele>
        <time>2026-08-31T05:11:36.000Z</time>
        <extensions>
          <ns3:TrackPointExtension>
            <ns3:hr>130</ns3:hr>
            <ns3:cad>61</ns3:cad>
          </ns3:TrackPointExtension>
        </extensions>
      </trkpt>
      <trkpt lat="44.6692656911909580230712890625" lon="6.7791785113513469696044921875">
        <ele>1655.4000244140625</ele>
        <time>2026-08-31T05:11:37.000Z</time>
        <extensions>
          <ns3:TrackPointExtension>
            <ns3:hr>130</ns3:hr>
            <ns3:cad>60</ns3:cad>
          </ns3:TrackPointExtension>
        </extensions>
      </trkpt>
      <trkpt lat="44.669276587665081024169921875" lon="6.77919032983481884002685546875">
        <ele>1655.4000244140625</ele>
        <time>2026-08-31T05:11:38.000Z</time>
        <extensions>
          <ns3:TrackPointExtension>
            <ns3:hr>130</ns3:hr>
            <ns3:cad>60</ns3:cad>
          </ns3:TrackPointExtension>
        </extensions>
      </trkpt>
      <trkpt lat="44.6692851372063159942626953125" lon="6.7792016454041004180908203125">
        <ele>1655.4000244140625</ele>
        <time>2026-08-31T05:11:39.000Z</time>
        <extensions>
          <ns3:TrackPointExtension>
            <ns3:hr>130</ns3:hr>
            <ns3:cad>59</ns3:cad>
          </ns3:TrackPointExtension>
        </extensions>
      </trkpt>
      <trkpt lat="44.6692968718707561492919921875" lon="6.7792148888111114501953125">
        <ele>1655.5999755859375</ele>
        <time>2026-08-31T05:11:40.000Z</time>
        <extensions>
          <ns3:TrackPointExtension>
            <ns3:hr>131</ns3:hr>
            <ns3:cad>59</ns3:cad>
          </ns3:TrackPointExtension>
        </extensions>
      </trkpt>
      <trkpt lat="44.66930768452584743499755859375" lon="6.779227294027805328369140625">
        <ele>1655.5999755859375</ele>
        <time>2026-08-31T05:11:41.000Z</time>
        <extensions>
          <ns3:TrackPointExtension>
            <ns3:hr>131</ns3:hr>
            <ns3:cad>59</ns3:cad>
          </ns3:TrackPointExtension>
        </extensions>
      </trkpt>
      <trkpt lat="44.6693176589906215667724609375" lon="6.77923911251127719879150390625">
        <ele>1655.800048828125</ele>
        <time>2026-08-31T05:11:42.000Z</time>
        <extensions>
          <ns3:TrackPointExtension>
            <ns3:hr>131</ns3:hr>
            <ns3:cad>59</ns3:cad>
          </ns3:TrackPointExtension>
        </extensions>
      </trkpt>
      <trkpt lat="44.66932964511215686798095703125" lon="6.77925218828022480010986328125">
        <ele>1655.800048828125</ele>
        <time>2026-08-31T05:11:43.000Z</time>
        <extensions>
          <ns3:TrackPointExtension>
            <ns3:hr>130</ns3:hr>
            <ns3:cad>59</ns3:cad>
          </ns3:TrackPointExtension>
        </extensions>
      </trkpt>
      <trkpt lat="44.66933953575789928436279296875" lon="6.7792636714875698089599609375">
        <ele>1656</ele>
        <time>2026-08-31T05:11:44.000Z</time>
        <extensions>
          <ns3:TrackPointExtension>
            <ns3:hr>131</ns3:hr>
            <ns3:cad>59</ns3:cad>
          </ns3:TrackPointExtension>
        </extensions>
      </trkpt>
      <trkpt lat="44.66935177333652973175048828125" lon="6.7792777530848979949951171875">
        <ele>1656</ele>
        <time>2026-08-31T05:11:45.000Z</time>
        <extensions>
          <ns3:TrackPointExtension>
            <ns3:hr>131</ns3:hr>
            <ns3:cad>59</ns3:cad>
          </ns3:TrackPointExtension>
        </extensions>
      </trkpt>
      <trkpt lat="44.66936334036290645599365234375" lon="6.77928906865417957305908203125">
        <ele>1656.199951171875</ele>
        <time>2026-08-31T05:11:46.000Z</time>
        <extensions>
          <ns3:TrackPointExtension>
            <ns3:hr>131</ns3:hr>
            <ns3:cad>59</ns3:cad>
          </ns3:TrackPointExtension>
        </extensions>
      </trkpt>
      <trkpt lat="44.669376499950885772705078125" lon="6.779300384223461151123046875">
        <ele>1656.199951171875</ele>
        <time>2026-08-31T05:11:47.000Z</time>
        <extensions>
          <ns3:TrackPointExtension>
            <ns3:hr>131</ns3:hr>
            <ns3:cad>59</ns3:cad>
          </ns3:TrackPointExtension>
        </extensions>
      </trkpt>
      <trkpt lat="44.66939016245305538177490234375" lon="6.779311783611774444580078125">
        <ele>1656.199951171875</ele>
        <time>2026-08-31T05:11:48.000Z</time>
        <extensions>
          <ns3:TrackPointExtension>
            <ns3:hr>130</ns3:hr>
            <ns3:cad>60</ns3:cad>
          </ns3:TrackPointExtension>
        </extensions>
      </trkpt>
      <trkpt lat="44.66940122656524181365966796875" lon="6.77932309918105602264404296875">
        <ele>1656.199951171875</ele>
        <time>2026-08-31T05:11:49.000Z</time>
        <extensions>
          <ns3:TrackPointExtension>
            <ns3:hr>130</ns3:hr>
            <ns3:cad>60</ns3:cad>
          </ns3:TrackPointExtension>
        </extensions>
      </trkpt>
      <trkpt lat="44.669413380324840545654296875" lon="6.779336594045162200927734375">
        <ele>1656.4000244140625</ele>
        <time>2026-08-31T05:11:50.000Z</time>
        <extensions>
          <ns3:TrackPointExtension>
            <ns3:hr>130</ns3:hr>
            <ns3:cad>59</ns3:cad>
          </ns3:TrackPointExtension>
        </extensions>
      </trkpt>
      <trkpt lat="44.6694232709705829620361328125" lon="6.77934975363314151763916015625">
        <ele>1656.4000244140625</ele>
        <time>2026-08-31T05:11:51.000Z</time>
        <extensions>
          <ns3:TrackPointExtension>
            <ns3:hr>129</ns3:hr>
            <ns3:cad>59</ns3:cad>
          </ns3:TrackPointExtension>
        </extensions>
      </trkpt>
      <trkpt lat="44.6694338321685791015625" lon="6.77936433814465999603271484375">
        <ele>1656.4000244140625</ele>
        <time>2026-08-31T05:11:52.000Z</time>
        <extensions>
          <ns3:TrackPointExtension>
            <ns3:hr>129</ns3:hr>
            <ns3:cad>59</ns3:cad>
          </ns3:TrackPointExtension>
        </extensions>
      </trkpt>
      <trkpt lat="44.66944280080497264862060546875" lon="6.7793783359229564666748046875">
        <ele>1656.5999755859375</ele>
        <time>2026-08-31T05:11:53.000Z</time>
        <extensions>
          <ns3:TrackPointExtension>
            <ns3:hr>129</ns3:hr>
            <ns3:cad>58</ns3:cad>
          </ns3:TrackPointExtension>
        </extensions>
      </trkpt>
      <trkpt lat="44.66945118270814418792724609375" lon="6.7793897353112697601318359375">
        <ele>1656.800048828125</ele>
        <time>2026-08-31T05:11:54.000Z</time>
        <extensions>
          <ns3:TrackPointExtension>
            <ns3:hr>129</ns3:hr>
            <ns3:cad>58</ns3:cad>
          </ns3:TrackPointExtension>
        </extensions>
      </trkpt>
      <trkpt lat="44.6694591455161571502685546875" lon="6.77940239198505878448486328125">
        <ele>1656.800048828125</ele>
        <time>2026-08-31T05:11:55.000Z</time>
        <extensions>
          <ns3:TrackPointExtension>
            <ns3:hr>129</ns3:hr>
            <ns3:cad>59</ns3:cad>
          </ns3:TrackPointExtension>
        </extensions>
      </trkpt>
      <trkpt lat="44.66946794651448726654052734375" lon="6.7794160544872283935546875">
        <ele>1656.800048828125</ele>
        <time>2026-08-31T05:11:56.000Z</time>
        <extensions>
          <ns3:TrackPointExtension>
            <ns3:hr>129</ns3:hr>
            <ns3:cad>59</ns3:cad>
          </ns3:TrackPointExtension>
        </extensions>
      </trkpt>
      <trkpt lat="44.669476412236690521240234375" lon="6.77942745387554168701171875">
        <ele>1656.800048828125</ele>
        <time>2026-08-31T05:11:57.000Z</time>
        <extensions>
          <ns3:TrackPointExtension>
            <ns3:hr>129</ns3:hr>
            <ns3:cad>59</ns3:cad>
          </ns3:TrackPointExtension>
        </extensions>
      </trkpt>
      <trkpt lat="44.6694846265017986297607421875" lon="6.77943893708288669586181640625">
        <ele>1657</ele>
        <time>2026-08-31T05:11:58.000Z</time>
        <extensions>
          <ns3:TrackPointExtension>
            <ns3:hr>129</ns3:hr>
            <ns3:cad>59</ns3:cad>
          </ns3:TrackPointExtension>
        </extensions>
      </trkpt>
      <trkpt lat="44.6694950200617313385009765625" lon="6.77945301868021488189697265625">
        <ele>1657.199951171875</ele>
        <time>2026-08-31T05:11:59.000Z</time>
        <extensions>
          <ns3:TrackPointExtension>
            <ns3:hr>129</ns3:hr>
            <ns3:cad>59</ns3:cad>
          </ns3:TrackPointExtension>
        </extensions>
      </trkpt>
      <trkpt lat="44.6695040725171566009521484375" lon="6.77946902811527252197265625">
        <ele>1657.199951171875</ele>
        <time>2026-08-31T05:12:00.000Z</time>
        <extensions>
          <ns3:TrackPointExtension>
            <ns3:hr>130</ns3:hr>
            <ns3:cad>59</ns3:cad>
          </ns3:TrackPointExtension>
        </extensions>
      </trkpt>
      <trkpt lat="44.6695117838680744171142578125" lon="6.77948369644582271575927734375">
        <ele>1657.4000244140625</ele>
        <time>2026-08-31T05:12:01.000Z</time>
        <extensions>
          <ns3:TrackPointExtension>
            <ns3:hr>129</ns3:hr>
            <ns3:cad>59</ns3:cad>
          </ns3:TrackPointExtension>
        </extensions>
      </trkpt>
      <trkpt lat="44.66951907612383365631103515625" lon="6.77950046025216579437255859375">
        <ele>1657.5999755859375</ele>
        <time>2026-08-31T05:12:02.000Z</time>
        <extensions>
          <ns3:TrackPointExtension>
            <ns3:hr>129</ns3:hr>
            <ns3:cad>58</ns3:cad>
          </ns3:TrackPointExtension>
        </extensions>
      </trkpt>
      <trkpt lat="44.66952527873218059539794921875" lon="6.7795174755156040191650390625">
        <ele>1657.800048828125</ele>
        <time>2026-08-31T05:12:03.000Z</time>
        <extensions>
          <ns3:TrackPointExtension>
            <ns3:hr>130</ns3:hr>
            <ns3:cad>58</ns3:cad>
          </ns3:TrackPointExtension>
        </extensions>
      </trkpt>
      <trkpt lat="44.6695329062640666961669921875" lon="6.77953465841710567474365234375">
        <ele>1658</ele>
        <time>2026-08-31T05:12:04.000Z</time>
        <extensions>
          <ns3:TrackPointExtension>
            <ns3:hr>130</ns3:hr>
            <ns3:cad>59</ns3:cad>
          </ns3:TrackPointExtension>
        </extensions>
      </trkpt>
      <trkpt lat="44.66954137198626995086669921875" lon="6.779549829661846160888671875">
        <ele>1658</ele>
        <time>2026-08-31T05:12:05.000Z</time>
        <extensions>
          <ns3:TrackPointExtension>
            <ns3:hr>130</ns3:hr>
            <ns3:cad>59</ns3:cad>
          </ns3:TrackPointExtension>
        </extensions>
      </trkpt>
      <trkpt lat="44.6695513464510440826416015625" lon="6.77956500090658664703369140625">
        <ele>1658.199951171875</ele>
        <time>2026-08-31T05:12:06.000Z</time>
        <extensions>
          <ns3:TrackPointExtension>
            <ns3:hr>130</ns3:hr>
            <ns3:cad>59</ns3:cad>
          </ns3:TrackPointExtension>
        </extensions>
      </trkpt>
      <trkpt lat="44.66956081800162792205810546875" lon="6.779575981199741363525390625">
        <ele>1658.199951171875</ele>
        <time>2026-08-31T05:12:07.000Z</time>
        <extensions>
          <ns3:TrackPointExtension>
            <ns3:hr>130</ns3:hr>
            <ns3:cad>58</ns3:cad>
          </ns3:TrackPointExtension>
        </extensions>
      </trkpt>
      <trkpt lat="44.66957171447575092315673828125" lon="6.77958930842578411102294921875">
        <ele>1658.4000244140625</ele>
        <time>2026-08-31T05:12:08.000Z</time>
        <extensions>
          <ns3:TrackPointExtension>
            <ns3:hr>130</ns3:hr>
            <ns3:cad>58</ns3:cad>
          </ns3:TrackPointExtension>
        </extensions>
      </trkpt>
      <trkpt lat="44.66958344914019107818603515625" lon="6.7796043120324611663818359375">
        <ele>1658.4000244140625</ele>
        <time>2026-08-31T05:12:09.000Z</time>
        <extensions>
          <ns3:TrackPointExtension>
            <ns3:hr>130</ns3:hr>
            <ns3:cad>58</ns3:cad>
          </ns3:TrackPointExtension>
        </extensions>
      </trkpt>
      <trkpt lat="44.669595770537853240966796875" lon="6.779618225991725921630859375">
        <ele>1658.5999755859375</ele>
        <time>2026-08-31T05:12:10.000Z</time>
        <extensions>
          <ns3:TrackPointExtension>
            <ns3:hr>130</ns3:hr>
            <ns3:cad>58</ns3:cad>
          </ns3:TrackPointExtension>
        </extensions>
      </trkpt>
      <trkpt lat="44.6696068346500396728515625" lon="6.77963264286518096923828125">
        <ele>1658.5999755859375</ele>
        <time>2026-08-31T05:12:11.000Z</time>
        <extensions>
          <ns3:TrackPointExtension>
            <ns3:hr>131</ns3:hr>
            <ns3:cad>58</ns3:cad>
          </ns3:TrackPointExtension>
        </extensions>
      </trkpt>
      <trkpt lat="44.66961530037224292755126953125" lon="6.77964697591960430145263671875">
        <ele>1658.800048828125</ele>
        <time>2026-08-31T05:12:12.000Z</time>
        <extensions>
          <ns3:TrackPointExtension>
            <ns3:hr>131</ns3:hr>
            <ns3:cad>58</ns3:cad>
          </ns3:TrackPointExtension>
        </extensions>
      </trkpt>
      <trkpt lat="44.669624269008636474609375" lon="6.77966139279305934906005859375">
        <ele>1658.800048828125</ele>
        <time>2026-08-31T05:12:13.000Z</time>
        <extensions>
          <ns3:TrackPointExtension>
            <ns3:hr>131</ns3:hr>
            <ns3:cad>59</ns3:cad>
          </ns3:TrackPointExtension>
        </extensions>
      </trkpt>
      <trkpt lat="44.66963441111147403717041015625" lon="6.77967614494264125823974609375">
        <ele>1659</ele>
        <time>2026-08-31T05:12:14.000Z</time>
        <extensions>
          <ns3:TrackPointExtension>
            <ns3:hr>131</ns3:hr>
            <ns3:cad>59</ns3:cad>
          </ns3:TrackPointExtension>
        </extensions>
      </trkpt>
      <trkpt lat="44.66964564286172389984130859375" lon="6.77969190292060375213623046875">
        <ele>1659.199951171875</ele>
        <time>2026-08-31T05:12:15.000Z</time>
        <extensions>
          <ns3:TrackPointExtension>
            <ns3:hr>131</ns3:hr>
            <ns3:cad>59</ns3:cad>
          </ns3:TrackPointExtension>
        </extensions>
      </trkpt>
      <trkpt lat="44.66965570114552974700927734375" lon="6.77970598451793193817138671875">
        <ele>1659.4000244140625</ele>
        <time>2026-08-31T05:12:16.000Z</time>
        <extensions>
          <ns3:TrackPointExtension>
            <ns3:hr>132</ns3:hr>
            <ns3:cad>59</ns3:cad>
          </ns3:TrackPointExtension>
        </extensions>
      </trkpt>
      <trkpt lat="44.6696643345057964324951171875" lon="6.77971906028687953948974609375">
        <ele>1659.5999755859375</ele>
        <time>2026-08-31T05:12:17.000Z</time>
        <extensions>
          <ns3:TrackPointExtension>
            <ns3:hr>132</ns3:hr>
            <ns3:cad>59</ns3:cad>
          </ns3:TrackPointExtension>
        </extensions>
      </trkpt>
      <trkpt lat="44.66967187821865081787109375" lon="6.77973079495131969451904296875">
        <ele>1659.800048828125</ele>
        <time>2026-08-31T05:12:18.000Z</time>
        <extensions>
          <ns3:TrackPointExtension>
            <ns3:hr>133</ns3:hr>
            <ns3:cad>59</ns3:cad>
          </ns3:TrackPointExtension>
        </extensions>
      </trkpt>
      <trkpt lat="44.66967967338860034942626953125" lon="6.77974387072026729583740234375">
        <ele>1660</ele>
        <time>2026-08-31T05:12:19.000Z</time>
        <extensions>
          <ns3:TrackPointExtension>
            <ns3:hr>133</ns3:hr>
            <ns3:cad>59</ns3:cad>
          </ns3:TrackPointExtension>
        </extensions>
      </trkpt>
      <trkpt lat="44.66968889348208904266357421875" lon="6.77975845523178577423095703125">
        <ele>1660</ele>
        <time>2026-08-31T05:12:20.000Z</time>
        <extensions>
          <ns3:TrackPointExtension>
            <ns3:hr>133</ns3:hr>
            <ns3:cad>58</ns3:cad>
          </ns3:TrackPointExtension>
        </extensions>
      </trkpt>
      <trkpt lat="44.66969928704202175140380859375" lon="6.7797754704952239990234375">
        <ele>1660.199951171875</ele>
        <time>2026-08-31T05:12:21.000Z</time>
        <extensions>
          <ns3:TrackPointExtension>
            <ns3:hr>134</ns3:hr>
            <ns3:cad>58</ns3:cad>
          </ns3:TrackPointExtension>
        </extensions>
      </trkpt>
      <trkpt lat="44.66970766894519329071044921875" lon="6.7797913961112499237060546875">
        <ele>1660.199951171875</ele>
        <time>2026-08-31T05:12:22.000Z</time>
        <extensions>
          <ns3:TrackPointExtension>
            <ns3:hr>135</ns3:hr>
            <ns3:cad>58</ns3:cad>
          </ns3:TrackPointExtension>
        </extensions>
      </trkpt>
      <trkpt lat="44.6697146259248256683349609375" lon="6.77980589680373668670654296875">
        <ele>1660.4000244140625</ele>
        <time>2026-08-31T05:12:23.000Z</time>
        <extensions>
          <ns3:TrackPointExtension>
            <ns3:hr>135</ns3:hr>
            <ns3:cad>58</ns3:cad>
          </ns3:TrackPointExtension>
        </extensions>
      </trkpt>
      <trkpt lat="44.6697216667234897613525390625" lon="6.77982173860073089599609375">
        <ele>1660.5999755859375</ele>
        <time>2026-08-31T05:12:24.000Z</time>
        <extensions>
          <ns3:TrackPointExtension>
            <ns3:hr>135</ns3:hr>
            <ns3:cad>58</ns3:cad>
          </ns3:TrackPointExtension>
        </extensions>
      </trkpt>
      <trkpt lat="44.66972820460796356201171875" lon="6.77983456291258335113525390625">
        <ele>1660.5999755859375</ele>
        <time>2026-08-31T05:12:25.000Z</time>
        <extensions>
          <ns3:TrackPointExtension>
            <ns3:hr>136</ns3:hr>
            <ns3:cad>58</ns3:cad>
          </ns3:TrackPointExtension>
        </extensions>
      </trkpt>
      <trkpt lat="44.669734574854373931884765625" lon="6.7798480577766895294189453125">
        <ele>1660.800048828125</ele>
        <time>2026-08-31T05:12:26.000Z</time>
        <extensions>
          <ns3:TrackPointExtension>
            <ns3:hr>136</ns3:hr>
            <ns3:cad>57</ns3:cad>
          </ns3:TrackPointExtension>
        </extensions>
      </trkpt>
      <trkpt lat="44.66974220238626003265380859375" lon="6.77986339665949344635009765625">
        <ele>1661</ele>
        <time>2026-08-31T05:12:27.000Z</time>
        <extensions>
          <ns3:TrackPointExtension>
            <ns3:hr>137</ns3:hr>
            <ns3:cad>57</ns3:cad>
          </ns3:TrackPointExtension>
        </extensions>
      </trkpt>
      <trkpt lat="44.66974823735654354095458984375" lon="6.779876053333282470703125">
        <ele>1661.199951171875</ele>
        <time>2026-08-31T05:12:28.000Z</time>
        <extensions>
          <ns3:TrackPointExtension>
            <ns3:hr>137</ns3:hr>
            <ns3:cad>57</ns3:cad>
          </ns3:TrackPointExtension>
        </extensions>
      </trkpt>
      <trkpt lat="44.66975460760295391082763671875" lon="6.7798889614641666412353515625">
        <ele>1661.199951171875</ele>
        <time>2026-08-31T05:12:29.000Z</time>
        <extensions>
          <ns3:TrackPointExtension>
            <ns3:hr>138</ns3:hr>
            <ns3:cad>57</ns3:cad>
          </ns3:TrackPointExtension>
        </extensions>
      </trkpt>
      <trkpt lat="44.6697612293064594268798828125" lon="6.7799063958227634429931640625">
        <ele>1661.4000244140625</ele>
        <time>2026-08-31T05:12:30.000Z</time>
        <extensions>
          <ns3:TrackPointExtension>
            <ns3:hr>138</ns3:hr>
            <ns3:cad>57</ns3:cad>
          </ns3:TrackPointExtension>
        </extensions>
      </trkpt>
      <trkpt lat="44.66976852156221866607666015625" lon="6.77992173470556735992431640625">
        <ele>1661.4000244140625</ele>
        <time>2026-08-31T05:12:31.000Z</time>
        <extensions>
          <ns3:TrackPointExtension>
            <ns3:hr>138</ns3:hr>
            <ns3:cad>57</ns3:cad>
          </ns3:TrackPointExtension>
        </extensions>
      </trkpt>
      <trkpt lat="44.66977455653250217437744140625" lon="6.77993305027484893798828125">
        <ele>1661.5999755859375</ele>
        <time>2026-08-31T05:12:32.000Z</time>
        <extensions>
          <ns3:TrackPointExtension>
            <ns3:hr>139</ns3:hr>
            <ns3:cad>57</ns3:cad>
          </ns3:TrackPointExtension>
        </extensions>
      </trkpt>
      <trkpt lat="44.66978126205503940582275390625" lon="6.77994838915765285491943359375">
        <ele>1661.5999755859375</ele>
        <time>2026-08-31T05:12:33.000Z</time>
        <extensions>
          <ns3:TrackPointExtension>
            <ns3:hr>139</ns3:hr>
            <ns3:cad>57</ns3:cad>
          </ns3:TrackPointExtension>
        </extensions>
      </trkpt>
      <trkpt lat="44.66978947632014751434326171875" lon="6.77996649406850337982177734375">
        <ele>1661.800048828125</ele>
        <time>2026-08-31T05:12:34.000Z</time>
        <extensions>
          <ns3:TrackPointExtension>
            <ns3:hr>140</ns3:hr>
            <ns3:cad>58</ns3:cad>
          </ns3:TrackPointExtension>
        </extensions>
      </trkpt>
      <trkpt lat="44.6697971038520336151123046875" lon="6.77998158149421215057373046875">
        <ele>1662</ele>
        <time>2026-08-31T05:12:35.000Z</time>
        <extensions>
          <ns3:TrackPointExtension>
            <ns3:hr>140</ns3:hr>
            <ns3:cad>58</ns3:cad>
          </ns3:TrackPointExtension>
        </extensions>
      </trkpt>
      <trkpt lat="44.66980305500328540802001953125" lon="6.77999448962509632110595703125">
        <ele>1662</ele>
        <time>2026-08-31T05:12:36.000Z</time>
        <extensions>
          <ns3:TrackPointExtension>
            <ns3:hr>141</ns3:hr>
            <ns3:cad>58</ns3:cad>
          </ns3:TrackPointExtension>
        </extensions>
      </trkpt>
      <trkpt lat="44.66981026344001293182373046875" lon="6.7800083197653293609619140625">
        <ele>1662.199951171875</ele>
        <time>2026-08-31T05:12:37.000Z</time>
        <extensions>
          <ns3:TrackPointExtension>
            <ns3:hr>141</ns3:hr>
            <ns3:cad>58</ns3:cad>
          </ns3:TrackPointExtension>
        </extensions>
      </trkpt>
      <trkpt lat="44.669819064438343048095703125" lon="6.78002382628619670867919921875">
        <ele>1662.4000244140625</ele>
        <time>2026-08-31T05:12:38.000Z</time>
        <extensions>
          <ns3:TrackPointExtension>
            <ns3:hr>141</ns3:hr>
            <ns3:cad>58</ns3:cad>
          </ns3:TrackPointExtension>
        </extensions>
      </trkpt>
      <trkpt lat="44.66982543468475341796875" lon="6.780036650598049163818359375">
        <ele>1662.5999755859375</ele>
        <time>2026-08-31T05:12:39.000Z</time>
        <extensions>
          <ns3:TrackPointExtension>
            <ns3:hr>141</ns3:hr>
            <ns3:cad>58</ns3:cad>
          </ns3:TrackPointExtension>
        </extensions>
      </trkpt>
      <trkpt lat="44.66983222402632236480712890625" lon="6.780051402747631072998046875">
        <ele>1662.5999755859375</ele>
        <time>2026-08-31T05:12:40.000Z</time>
        <extensions>
          <ns3:TrackPointExtension>
            <ns3:hr>142</ns3:hr>
            <ns3:cad>58</ns3:cad>
          </ns3:TrackPointExtension>
        </extensions>
      </trkpt>
      <trkpt lat="44.6698390133678913116455078125" lon="6.78006690926849842071533203125">
        <ele>1662.800048828125</ele>
        <time>2026-08-31T05:12:41.000Z</time>
        <extensions>
          <ns3:TrackPointExtension>
            <ns3:hr>142</ns3:hr>
            <ns3:cad>58</ns3:cad>
          </ns3:TrackPointExtension>
        </extensions>
      </trkpt>
      <trkpt lat="44.66984580270946025848388671875" lon="6.78008216433227062225341796875">
        <ele>1662.800048828125</ele>
        <time>2026-08-31T05:12:42.000Z</time>
        <extensions>
          <ns3:TrackPointExtension>
            <ns3:hr>142</ns3:hr>
            <ns3:cad>58</ns3:cad>
          </ns3:TrackPointExtension>
        </extensions>
      </trkpt>
      <trkpt lat="44.66985292732715606689453125" lon="6.78009524010121822357177734375">
        <ele>1663</ele>
        <time>2026-08-31T05:12:43.000Z</time>
        <extensions>
          <ns3:TrackPointExtension>
            <ns3:hr>142</ns3:hr>
            <ns3:cad>59</ns3:cad>
          </ns3:TrackPointExtension>
        </extensions>
      </trkpt>
      <trkpt lat="44.66986005194485187530517578125" lon="6.78011032752692699432373046875">
        <ele>1663.199951171875</ele>
        <time>2026-08-31T05:12:44.000Z</time>
        <extensions>
          <ns3:TrackPointExtension>
            <ns3:hr>141</ns3:hr>
            <ns3:cad>58</ns3:cad>
          </ns3:TrackPointExtension>
        </extensions>
      </trkpt>
      <trkpt lat="44.6698665060102939605712890625" lon="6.78012616932392120361328125">
        <ele>1663.4000244140625</ele>
        <time>2026-08-31T05:12:45.000Z</time>
        <extensions>
          <ns3:TrackPointExtension>
            <ns3:hr>142</ns3:hr>
            <ns3:cad>58</ns3:cad>
          </ns3:TrackPointExtension>
        </extensions>
      </trkpt>
      <trkpt lat="44.6698725409805774688720703125" lon="6.780140586197376251220703125">
        <ele>1663.4000244140625</ele>
        <time>2026-08-31T05:12:46.000Z</time>
        <extensions>
          <ns3:TrackPointExtension>
            <ns3:hr>142</ns3:hr>
            <ns3:cad>58</ns3:cad>
          </ns3:TrackPointExtension>
        </extensions>
      </trkpt>
      <trkpt lat="44.66987949796020984649658203125" lon="6.780154667794704437255859375">
        <ele>1663.5999755859375</ele>
        <time>2026-08-31T05:12:47.000Z</time>
        <extensions>
          <ns3:TrackPointExtension>
            <ns3:hr>142</ns3:hr>
            <ns3:cad>57</ns3:cad>
          </ns3:TrackPointExtension>
        </extensions>
      </trkpt>
      <trkpt lat="44.6698869578540325164794921875" lon="6.7801672406494617462158203125">
        <ele>1663.800048828125</ele>
        <time>2026-08-31T05:12:48.000Z</time>
        <extensions>
          <ns3:TrackPointExtension>
            <ns3:hr>143</ns3:hr>
            <ns3:cad>57</ns3:cad>
          </ns3:TrackPointExtension>
        </extensions>
      </trkpt>
      <trkpt lat="44.669894836843013763427734375" lon="6.78017972968518733978271484375">
        <ele>1663.800048828125</ele>
        <time>2026-08-31T05:12:49.000Z</time>
        <extensions>
          <ns3:TrackPointExtension>
            <ns3:hr>143</ns3:hr>
            <ns3:cad>57</ns3:cad>
          </ns3:TrackPointExtension>
        </extensions>
      </trkpt>
      <trkpt lat="44.66990388929843902587890625" lon="6.7801930569112300872802734375">
        <ele>1664</ele>
        <time>2026-08-31T05:12:50.000Z</time>
        <extensions>
          <ns3:TrackPointExtension>
            <ns3:hr>144</ns3:hr>
            <ns3:cad>57</ns3:cad>
          </ns3:TrackPointExtension>
        </extensions>
      </trkpt>
      <trkpt lat="44.66991185210645198822021484375" lon="6.78020521067082881927490234375">
        <ele>1664.199951171875</ele>
        <time>2026-08-31T05:12:51.000Z</time>
        <extensions>
          <ns3:TrackPointExtension>
            <ns3:hr>145</ns3:hr>
            <ns3:cad>57</ns3:cad>
          </ns3:TrackPointExtension>
        </extensions>
      </trkpt>
      <trkpt lat="44.66992023400962352752685546875" lon="6.78021929226815700531005859375">
        <ele>1664.4000244140625</ele>
        <time>2026-08-31T05:12:52.000Z</time>
        <extensions>
          <ns3:TrackPointExtension>
            <ns3:hr>147</ns3:hr>
            <ns3:cad>57</ns3:cad>
          </ns3:TrackPointExtension>
        </extensions>
      </trkpt>
      <trkpt lat="44.669928364455699920654296875" lon="6.78023421205580234527587890625">
        <ele>1664.5999755859375</ele>
        <time>2026-08-31T05:12:53.000Z</time>
        <extensions>
          <ns3:TrackPointExtension>
            <ns3:hr>149</ns3:hr>
            <ns3:cad>57</ns3:cad>
          </ns3:TrackPointExtension>
        </extensions>
      </trkpt>
      <trkpt lat="44.6699355728924274444580078125" lon="6.78024980239570140838623046875">
        <ele>1664.5999755859375</ele>
        <time>2026-08-31T05:12:54.000Z</time>
        <extensions>
          <ns3:TrackPointExtension>
            <ns3:hr>149</ns3:hr>
            <ns3:cad>57</ns3:cad>
          </ns3:TrackPointExtension>
        </extensions>
      </trkpt>
      <trkpt lat="44.66994236223399639129638671875" lon="6.78026338107883930206298828125">
        <ele>1664.800048828125</ele>
        <time>2026-08-31T05:12:55.000Z</time>
        <extensions>
          <ns3:TrackPointExtension>
            <ns3:hr>150</ns3:hr>
            <ns3:cad>57</ns3:cad>
          </ns3:TrackPointExtension>
        </extensions>
      </trkpt>
      <trkpt lat="44.66994948685169219970703125" lon="6.7802775464951992034912109375">
        <ele>1665</ele>
        <time>2026-08-31T05:12:56.000Z</time>
        <extensions>
          <ns3:TrackPointExtension>
            <ns3:hr>150</ns3:hr>
            <ns3:cad>57</ns3:cad>
          </ns3:TrackPointExtension>
        </extensions>
      </trkpt>
      <trkpt lat="44.6699563600122928619384765625" lon="6.78029154427349567413330078125">
        <ele>1665.199951171875</ele>
        <time>2026-08-31T05:12:57.000Z</time>
        <extensions>
          <ns3:TrackPointExtension>
            <ns3:hr>151</ns3:hr>
            <ns3:cad>57</ns3:cad>
          </ns3:TrackPointExtension>
        </extensions>
      </trkpt>
      <trkpt lat="44.66996465809643268585205078125" lon="6.78030462004244327545166015625">
        <ele>1665.4000244140625</ele>
        <time>2026-08-31T05:12:58.000Z</time>
        <extensions>
          <ns3:TrackPointExtension>
            <ns3:hr>151</ns3:hr>
            <ns3:cad>57</ns3:cad>
          </ns3:TrackPointExtension>
        </extensions>
      </trkpt>
      <trkpt lat="44.66997270472347736358642578125" lon="6.7803161032497882843017578125">
        <ele>1665.4000244140625</ele>
        <time>2026-08-31T05:12:59.000Z</time>
        <extensions>
          <ns3:TrackPointExtension>
            <ns3:hr>151</ns3:hr>
            <ns3:cad>57</ns3:cad>
          </ns3:TrackPointExtension>
        </extensions>
      </trkpt>
      <trkpt lat="44.66998142190277576446533203125" lon="6.78032808937132358551025390625">
        <ele>1665.5999755859375</ele>
        <time>2026-08-31T05:13:00.000Z</time>
        <extensions>
          <ns3:TrackPointExtension>
            <ns3:hr>152</ns3:hr>
            <ns3:cad>57</ns3:cad>
          </ns3:TrackPointExtension>
        </extensions>
      </trkpt>
      <trkpt lat="44.66998997144401073455810546875" lon="6.78033948875963687896728515625">
        <ele>1665.800048828125</ele>
        <time>2026-08-31T05:13:01.000Z</time>
        <extensions>
          <ns3:TrackPointExtension>
            <ns3:hr>152</ns3:hr>
            <ns3:cad>57</ns3:cad>
          </ns3:TrackPointExtension>
        </extensions>
      </trkpt>
      <trkpt lat="44.66999785043299198150634765625" lon="6.78035004995763301849365234375">
        <ele>1666</ele>
        <time>2026-08-31T05:13:02.000Z</time>
        <extensions>
          <ns3:TrackPointExtension>
            <ns3:hr>153</ns3:hr>
            <ns3:cad>57</ns3:cad>
          </ns3:TrackPointExtension>
        </extensions>
      </trkpt>
      <trkpt lat="44.67000774107873439788818359375" lon="6.78036211989820003509521484375">
        <ele>1666.199951171875</ele>
        <time>2026-08-31T05:13:03.000Z</time>
        <extensions>
          <ns3:TrackPointExtension>
            <ns3:hr>153</ns3:hr>
            <ns3:cad>57</ns3:cad>
          </ns3:TrackPointExtension>
        </extensions>
      </trkpt>
      <trkpt lat="44.670016877353191375732421875" lon="6.78037402220070362091064453125">
        <ele>1666.4000244140625</ele>
        <time>2026-08-31T05:13:04.000Z</time>
        <extensions>
          <ns3:TrackPointExtension>
            <ns3:hr>153</ns3:hr>
            <ns3:cad>57</ns3:cad>
          </ns3:TrackPointExtension>
        </extensions>
      </trkpt>
      <trkpt lat="44.6700247563421726226806640625" lon="6.78038525395095348358154296875">
        <ele>1666.5999755859375</ele>
        <time>2026-08-31T05:13:05.000Z</time>
        <extensions>
          <ns3:TrackPointExtension>
            <ns3:hr>153</ns3:hr>
            <ns3:cad>56</ns3:cad>
          </ns3:TrackPointExtension>
        </extensions>
      </trkpt>
      <trkpt lat="44.67003288678824901580810546875" lon="6.7803982459008693695068359375">
        <ele>1666.5999755859375</ele>
        <time>2026-08-31T05:13:06.000Z</time>
        <extensions>
          <ns3:TrackPointExtension>
            <ns3:hr>154</ns3:hr>
            <ns3:cad>56</ns3:cad>
          </ns3:TrackPointExtension>
        </extensions>
      </trkpt>
      <trkpt lat="44.67004344798624515533447265625" lon="6.7804165184497833251953125">
        <ele>1666.800048828125</ele>
        <time>2026-08-31T05:13:07.000Z</time>
        <extensions>
          <ns3:TrackPointExtension>
            <ns3:hr>154</ns3:hr>
            <ns3:cad>56</ns3:cad>
          </ns3:TrackPointExtension>
        </extensions>
      </trkpt>
      <trkpt lat="44.67005048878490924835205078125" lon="6.780430935323238372802734375">
        <ele>1667</ele>
        <time>2026-08-31T05:13:08.000Z</time>
        <extensions>
          <ns3:TrackPointExtension>
            <ns3:hr>154</ns3:hr>
            <ns3:cad>56</ns3:cad>
          </ns3:TrackPointExtension>
        </extensions>
      </trkpt>
      <trkpt lat="44.6700572781264781951904296875" lon="6.78044275380671024322509765625">
        <ele>1667.199951171875</ele>
        <time>2026-08-31T05:13:09.000Z</time>
        <extensions>
          <ns3:TrackPointExtension>
            <ns3:hr>154</ns3:hr>
            <ns3:cad>56</ns3:cad>
          </ns3:TrackPointExtension>
        </extensions>
      </trkpt>
      <trkpt lat="44.67006356455385684967041015625" lon="6.78045247681438922882080078125">
        <ele>1667.4000244140625</ele>
        <time>2026-08-31T05:13:10.000Z</time>
        <extensions>
          <ns3:TrackPointExtension>
            <ns3:hr>154</ns3:hr>
            <ns3:cad>56</ns3:cad>
          </ns3:TrackPointExtension>
        </extensions>
      </trkpt>
      <trkpt lat="44.6700723655521869659423828125" lon="6.78046546876430511474609375">
        <ele>1667.4000244140625</ele>
        <time>2026-08-31T05:13:11.000Z</time>
        <extensions>
          <ns3:TrackPointExtension>
            <ns3:hr>154</ns3:hr>
            <ns3:cad>56</ns3:cad>
          </ns3:TrackPointExtension>
        </extensions>
      </trkpt>
      <trkpt lat="44.67008116655051708221435546875" lon="6.78047695197165012359619140625">
        <ele>1667.5999755859375</ele>
        <time>2026-08-31T05:13:12.000Z</time>
        <extensions>
          <ns3:TrackPointExtension>
            <ns3:hr>154</ns3:hr>
            <ns3:cad>56</ns3:cad>
          </ns3:TrackPointExtension>
        </extensions>
      </trkpt>
      <trkpt lat="44.67008803971111774444580078125" lon="6.78048751316964626312255859375">
        <ele>1667.800048828125</ele>
        <time>2026-08-31T05:13:13.000Z</time>
        <extensions>
          <ns3:TrackPointExtension>
            <ns3:hr>154</ns3:hr>
            <ns3:cad>56</ns3:cad>
          </ns3:TrackPointExtension>
        </extensions>
      </trkpt>
      <trkpt lat="44.670095331966876983642578125" lon="6.78050109185278415679931640625">
        <ele>1667.800048828125</ele>
        <time>2026-08-31T05:13:14.000Z</time>
        <extensions>
          <ns3:TrackPointExtension>
            <ns3:hr>154</ns3:hr>
            <ns3:cad>56</ns3:cad>
          </ns3:TrackPointExtension>
        </extensions>
      </trkpt>
      <trkpt lat="44.6701011992990970611572265625" lon="6.78051584400236606597900390625">
        <ele>1668</ele>
        <time>2026-08-31T05:13:15.000Z</time>
        <extensions>
          <ns3:TrackPointExtension>
            <ns3:hr>155</ns3:hr>
            <ns3:cad>56</ns3:cad>
          </ns3:TrackPointExtension>
        </extensions>
      </trkpt>
      <trkpt lat="44.67010430060327053070068359375" lon="6.7805300094187259674072265625">
        <ele>1668.199951171875</ele>
        <time>2026-08-31T05:13:16.000Z</time>
        <extensions>
          <ns3:TrackPointExtension>
            <ns3:hr>155</ns3:hr>
            <ns3:cad>56</ns3:cad>
          </ns3:TrackPointExtension>
        </extensions>
      </trkpt>
      <trkpt lat="44.67010865919291973114013671875" lon="6.7805434204638004302978515625">
        <ele>1668.4000244140625</ele>
        <time>2026-08-31T05:13:17.000Z</time>
        <extensions>
          <ns3:TrackPointExtension>
            <ns3:hr>155</ns3:hr>
            <ns3:cad>56</ns3:cad>
          </ns3:TrackPointExtension>
        </extensions>
      </trkpt>
      <trkpt lat="44.6701146103441715240478515625" lon="6.780557669699192047119140625">
        <ele>1668.5999755859375</ele>
        <time>2026-08-31T05:13:18.000Z</time>
        <extensions>
          <ns3:TrackPointExtension>
            <ns3:hr>155</ns3:hr>
            <ns3:cad>56</ns3:cad>
          </ns3:TrackPointExtension>
        </extensions>
      </trkpt>
      <trkpt lat="44.6701206453144550323486328125" lon="6.780569069087505340576171875">
        <ele>1668.5999755859375</ele>
        <time>2026-08-31T05:13:19.000Z</time>
        <extensions>
          <ns3:TrackPointExtension>
            <ns3:hr>155</ns3:hr>
            <ns3:cad>56</ns3:cad>
          </ns3:TrackPointExtension>
        </extensions>
      </trkpt>
      <trkpt lat="44.67012827284634113311767578125" lon="6.78058172576129436492919921875">
        <ele>1668.800048828125</ele>
        <time>2026-08-31T05:13:20.000Z</time>
        <extensions>
          <ns3:TrackPointExtension>
            <ns3:hr>155</ns3:hr>
            <ns3:cad>56</ns3:cad>
          </ns3:TrackPointExtension>
        </extensions>
      </trkpt>
      <trkpt lat="44.67013749293982982635498046875" lon="6.7805987410247325897216796875">
        <ele>1669</ele>
        <time>2026-08-31T05:13:21.000Z</time>
        <extensions>
          <ns3:TrackPointExtension>
            <ns3:hr>155</ns3:hr>
            <ns3:cad>56</ns3:cad>
          </ns3:TrackPointExtension>
        </extensions>
      </trkpt>
      <trkpt lat="44.670144617557525634765625" lon="6.78061123006045818328857421875">
        <ele>1669</ele>
        <time>2026-08-31T05:13:22.000Z</time>
        <extensions>
          <ns3:TrackPointExtension>
            <ns3:hr>155</ns3:hr>
            <ns3:cad>56</ns3:cad>
          </ns3:TrackPointExtension>
        </extensions>
      </trkpt>
      <trkpt lat="44.67015199363231658935546875" lon="6.7806218750774860382080078125">
        <ele>1669.199951171875</ele>
        <time>2026-08-31T05:13:23.000Z</time>
        <extensions>
          <ns3:TrackPointExtension>
            <ns3:hr>155</ns3:hr>
            <ns3:cad>56</ns3:cad>
          </ns3:TrackPointExtension>
        </extensions>
      </trkpt>
      <trkpt lat="44.67016180045902729034423828125" lon="6.780634112656116485595703125">
        <ele>1669.4000244140625</ele>
        <time>2026-08-31T05:13:24.000Z</time>
        <extensions>
          <ns3:TrackPointExtension>
            <ns3:hr>155</ns3:hr>
            <ns3:cad>57</ns3:cad>
          </ns3:TrackPointExtension>
        </extensions>
      </trkpt>
      <trkpt lat="44.6701716072857379913330078125" lon="6.780648864805698394775390625">
        <ele>1669.4000244140625</ele>
        <time>2026-08-31T05:13:25.000Z</time>
        <extensions>
          <ns3:TrackPointExtension>
            <ns3:hr>155</ns3:hr>
            <ns3:cad>57</ns3:cad>
          </ns3:TrackPointExtension>
        </extensions>
      </trkpt>
      <trkpt lat="44.6701799891889095306396484375" lon="6.78066202439367771148681640625">
        <ele>1669.5999755859375</ele>
        <time>2026-08-31T05:13:26.000Z</time>
        <extensions>
          <ns3:TrackPointExtension>
            <ns3:hr>155</ns3:hr>
            <ns3:cad>57</ns3:cad>
          </ns3:TrackPointExtension>
        </extensions>
      </trkpt>
      <trkpt lat="44.670187532901763916015625" lon="6.78067409433424472808837890625">
        <ele>1669.800048828125</ele>
        <time>2026-08-31T05:13:27.000Z</time>
        <extensions>
          <ns3:TrackPointExtension>
            <ns3:hr>155</ns3:hr>
            <ns3:cad>57</ns3:cad>
          </ns3:TrackPointExtension>
        </extensions>
      </trkpt>
      <trkpt lat="44.670195244252681732177734375" lon="6.7806899361312389373779296875">
        <ele>1670</ele>
        <time>2026-08-31T05:13:28.000Z</time>
        <extensions>
          <ns3:TrackPointExtension>
            <ns3:hr>155</ns3:hr>
            <ns3:cad>56</ns3:cad>
          </ns3:TrackPointExtension>
        </extensions>
      </trkpt>
      <trkpt lat="44.67020203359425067901611328125" lon="6.78070477209985256195068359375">
        <ele>1670.199951171875</ele>
        <time>2026-08-31T05:13:29.000Z</time>
        <extensions>
          <ns3:TrackPointExtension>
            <ns3:hr>155</ns3:hr>
            <ns3:cad>56</ns3:cad>
          </ns3:TrackPointExtension>
        </extensions>
      </trkpt>
      <trkpt lat="44.67020756565034389495849609375" lon="6.78071491420269012451171875">
        <ele>1670.199951171875</ele>
        <time>2026-08-31T05:13:30.000Z</time>
        <extensions>
          <ns3:TrackPointExtension>
            <ns3:hr>156</ns3:hr>
            <ns3:cad>56</ns3:cad>
          </ns3:TrackPointExtension>
        </extensions>
      </trkpt>
      <trkpt lat="44.670213349163532257080078125" lon="6.78072254173457622528076171875">
        <ele>1670.4000244140625</ele>
        <time>2026-08-31T05:13:31.000Z</time>
        <extensions>
          <ns3:TrackPointExtension>
            <ns3:hr>156</ns3:hr>
            <ns3:cad>56</ns3:cad>
          </ns3:TrackPointExtension>
        </extensions>
      </trkpt>
      <trkpt lat="44.67022131197154521942138671875" lon="6.7807348631322383880615234375">
        <ele>1670.5999755859375</ele>
        <time>2026-08-31T05:13:32.000Z</time>
        <extensions>
          <ns3:TrackPointExtension>
            <ns3:hr>156</ns3:hr>
            <ns3:cad>57</ns3:cad>
          </ns3:TrackPointExtension>
        </extensions>
      </trkpt>
      <trkpt lat="44.6702296100556850433349609375" lon="6.7807492800056934356689453125">
        <ele>1670.800048828125</ele>
        <time>2026-08-31T05:13:33.000Z</time>
        <extensions>
          <ns3:TrackPointExtension>
            <ns3:hr>156</ns3:hr>
            <ns3:cad>57</ns3:cad>
          </ns3:TrackPointExtension>
        </extensions>
      </trkpt>
      <trkpt lat="44.670237489044666290283203125" lon="6.78076344542205333709716796875">
        <ele>1671</ele>
        <time>2026-08-31T05:13:34.000Z</time>
        <extensions>
          <ns3:TrackPointExtension>
            <ns3:hr>156</ns3:hr>
            <ns3:cad>57</ns3:cad>
          </ns3:TrackPointExtension>
        </extensions>
      </trkpt>
      <trkpt lat="44.67024612240493297576904296875" lon="6.78077769465744495391845703125">
        <ele>1671.199951171875</ele>
        <time>2026-08-31T05:13:35.000Z</time>
        <extensions>
          <ns3:TrackPointExtension>
            <ns3:hr>156</ns3:hr>
            <ns3:cad>56</ns3:cad>
          </ns3:TrackPointExtension>
        </extensions>
      </trkpt>
      <trkpt lat="44.6702540852129459381103515625" lon="6.7807898484170436859130859375">
        <ele>1671.4000244140625</ele>
        <time>2026-08-31T05:13:36.000Z</time>
        <extensions>
          <ns3:TrackPointExtension>
            <ns3:hr>156</ns3:hr>
            <ns3:cad>56</ns3:cad>
          </ns3:TrackPointExtension>
        </extensions>
      </trkpt>
      <trkpt lat="44.67026238329708576202392578125" lon="6.7808022536337375640869140625">
        <ele>1671.5999755859375</ele>
        <time>2026-08-31T05:13:37.000Z</time>
        <extensions>
          <ns3:TrackPointExtension>
            <ns3:hr>156</ns3:hr>
            <ns3:cad>57</ns3:cad>
          </ns3:TrackPointExtension>
        </extensions>
      </trkpt>
      <trkpt lat="44.67027026228606700897216796875" lon="6.78081541322171688079833984375">
        <ele>1671.5999755859375</ele>
        <time>2026-08-31T05:13:38.000Z</time>
        <extensions>
          <ns3:TrackPointExtension>
            <ns3:hr>156</ns3:hr>
            <ns3:cad>57</ns3:cad>
          </ns3:TrackPointExtension>
        </extensions>
      </trkpt>
      <trkpt lat="44.67027646489441394805908203125" lon="6.78082899190485477447509765625">
        <ele>1671.800048828125</ele>
        <time>2026-08-31T05:13:39.000Z</time>
        <extensions>
          <ns3:TrackPointExtension>
            <ns3:hr>156</ns3:hr>
            <ns3:cad>57</ns3:cad>
          </ns3:TrackPointExtension>
        </extensions>
      </trkpt>
      <trkpt lat="44.67028166167438030242919921875" lon="6.780840642750263214111328125">
        <ele>1672</ele>
        <time>2026-08-31T05:13:40.000Z</time>
        <extensions>
          <ns3:TrackPointExtension>
            <ns3:hr>156</ns3:hr>
            <ns3:cad>57</ns3:cad>
          </ns3:TrackPointExtension>
        </extensions>
      </trkpt>
      <trkpt lat="44.6702882833778858184814453125" lon="6.78085112012922763824462890625">
        <ele>1672.199951171875</ele>
        <time>2026-08-31T05:13:41.000Z</time>
        <extensions>
          <ns3:TrackPointExtension>
            <ns3:hr>156</ns3:hr>
            <ns3:cad>57</ns3:cad>
          </ns3:TrackPointExtension>
        </extensions>
      </trkpt>
      <trkpt lat="44.670295827090740203857421875" lon="6.78086503408849239349365234375">
        <ele>1672.4000244140625</ele>
        <time>2026-08-31T05:13:42.000Z</time>
        <extensions>
          <ns3:TrackPointExtension>
            <ns3:hr>156</ns3:hr>
            <ns3:cad>57</ns3:cad>
          </ns3:TrackPointExtension>
        </extensions>
      </trkpt>
      <trkpt lat="44.67030362226068973541259765625" lon="6.780877523124217987060546875">
        <ele>1672.5999755859375</ele>
        <time>2026-08-31T05:13:43.000Z</time>
        <extensions>
          <ns3:TrackPointExtension>
            <ns3:hr>156</ns3:hr>
            <ns3:cad>57</ns3:cad>
          </ns3:TrackPointExtension>
        </extensions>
      </trkpt>
      <trkpt lat="44.6703137643635272979736328125" lon="6.780890934169292449951171875">
        <ele>1672.800048828125</ele>
        <time>2026-08-31T05:13:44.000Z</time>
        <extensions>
          <ns3:TrackPointExtension>
            <ns3:hr>156</ns3:hr>
            <ns3:cad>57</ns3:cad>
          </ns3:TrackPointExtension>
        </extensions>
      </trkpt>
      <trkpt lat="44.67032072134315967559814453125" lon="6.7809045128524303436279296875">
        <ele>1672.800048828125</ele>
        <time>2026-08-31T05:13:45.000Z</time>
        <extensions>
          <ns3:TrackPointExtension>
            <ns3:hr>156</ns3:hr>
            <ns3:cad>57</ns3:cad>
          </ns3:TrackPointExtension>
        </extensions>
      </trkpt>
      <trkpt lat="44.67032709158957004547119140625" lon="6.78091700188815593719482421875">
        <ele>1673</ele>
        <time>2026-08-31T05:13:46.000Z</time>
        <extensions>
          <ns3:TrackPointExtension>
            <ns3:hr>156</ns3:hr>
            <ns3:cad>57</ns3:cad>
          </ns3:TrackPointExtension>
        </extensions>
      </trkpt>
      <trkpt lat="44.67033228836953639984130859375" lon="6.7809288203716278076171875">
        <ele>1673.199951171875</ele>
        <time>2026-08-31T05:13:47.000Z</time>
        <extensions>
          <ns3:TrackPointExtension>
            <ns3:hr>156</ns3:hr>
            <ns3:cad>57</ns3:cad>
          </ns3:TrackPointExtension>
        </extensions>
      </trkpt>
      <trkpt lat="44.6703385747969150543212890625" lon="6.78094147704541683197021484375">
        <ele>1673.4000244140625</ele>
        <time>2026-08-31T05:13:48.000Z</time>
        <extensions>
          <ns3:TrackPointExtension>
            <ns3:hr>156</ns3:hr>
            <ns3:cad>57</ns3:cad>
          </ns3:TrackPointExtension>
        </extensions>
      </trkpt>
      <trkpt lat="44.67034502886235713958740234375" lon="6.780951283872127532958984375">
        <ele>1673.4000244140625</ele>
        <time>2026-08-31T05:13:49.000Z</time>
        <extensions>
          <ns3:TrackPointExtension>
            <ns3:hr>156</ns3:hr>
            <ns3:cad>57</ns3:cad>
          </ns3:TrackPointExtension>
        </extensions>
      </trkpt>
      <trkpt lat="44.67035089619457721710205078125" lon="6.78096226416528224945068359375">
        <ele>1673.5999755859375</ele>
        <time>2026-08-31T05:13:50.000Z</time>
        <extensions>
          <ns3:TrackPointExtension>
            <ns3:hr>157</ns3:hr>
            <ns3:cad>57</ns3:cad>
          </ns3:TrackPointExtension>
        </extensions>
      </trkpt>
      <trkpt lat="44.6703583560883998870849609375" lon="6.78097584284842014312744140625">
        <ele>1673.800048828125</ele>
        <time>2026-08-31T05:13:51.000Z</time>
        <extensions>
          <ns3:TrackPointExtension>
            <ns3:hr>157</ns3:hr>
            <ns3:cad>56</ns3:cad>
          </ns3:TrackPointExtension>
        </extensions>
      </trkpt>
      <trkpt lat="44.67036698944866657257080078125" lon="6.78099009208381175994873046875">
        <ele>1673.800048828125</ele>
        <time>2026-08-31T05:13:52.000Z</time>
        <extensions>
          <ns3:TrackPointExtension>
            <ns3:hr>157</ns3:hr>
            <ns3:cad>56</ns3:cad>
          </ns3:TrackPointExtension>
        </extensions>
      </trkpt>
      <trkpt lat="44.6703766286373138427734375" lon="6.78100593388080596923828125">
        <ele>1674</ele>
        <time>2026-08-31T05:13:53.000Z</time>
        <extensions>
          <ns3:TrackPointExtension>
            <ns3:hr>157</ns3:hr>
            <ns3:cad>56</ns3:cad>
          </ns3:TrackPointExtension>
        </extensions>
      </trkpt>
      <trkpt lat="44.67038526199758052825927734375" lon="6.78102093748748302459716796875">
        <ele>1674</ele>
        <time>2026-08-31T05:13:54.000Z</time>
        <extensions>
          <ns3:TrackPointExtension>
            <ns3:hr>158</ns3:hr>
            <ns3:cad>56</ns3:cad>
          </ns3:TrackPointExtension>
        </extensions>
      </trkpt>
      <trkpt lat="44.67039364390075206756591796875" lon="6.7810356058180332183837890625">
        <ele>1674.199951171875</ele>
        <time>2026-08-31T05:13:55.000Z</time>
        <extensions>
          <ns3:TrackPointExtension>
            <ns3:hr>158</ns3:hr>
            <ns3:cad>56</ns3:cad>
          </ns3:TrackPointExtension>
        </extensions>
      </trkpt>
      <trkpt lat="44.67040085233747959136962890625" lon="6.78104826249182224273681640625">
        <ele>1674.4000244140625</ele>
        <time>2026-08-31T05:13:56.000Z</time>
        <extensions>
          <ns3:TrackPointExtension>
            <ns3:hr>158</ns3:hr>
            <ns3:cad>57</ns3:cad>
          </ns3:TrackPointExtension>
        </extensions>
      </trkpt>
      <trkpt lat="44.67040772549808025360107421875" lon="6.7810597456991672515869140625">
        <ele>1674.5999755859375</ele>
        <time>2026-08-31T05:13:57.000Z</time>
        <extensions>
          <ns3:TrackPointExtension>
            <ns3:hr>158</ns3:hr>
            <ns3:cad>57</ns3:cad>
          </ns3:TrackPointExtension>
        </extensions>
      </trkpt>
      <trkpt lat="44.67041459865868091583251953125" lon="6.7810708098113536834716796875">
        <ele>1674.800048828125</ele>
        <time>2026-08-31T05:13:58.000Z</time>
        <extensions>
          <ns3:TrackPointExtension>
            <ns3:hr>157</ns3:hr>
            <ns3:cad>57</ns3:cad>
          </ns3:TrackPointExtension>
        </extensions>
      </trkpt>
      <trkpt lat="44.670421220362186431884765625" lon="6.78108103573322296142578125">
        <ele>1675</ele>
        <time>2026-08-31T05:13:59.000Z</time>
        <extensions>
          <ns3:TrackPointExtension>
            <ns3:hr>158</ns3:hr>
            <ns3:cad>57</ns3:cad>
          </ns3:TrackPointExtension>
        </extensions>
      </trkpt>
      <trkpt lat="44.67042884789407253265380859375" lon="6.7810924351215362548828125">
        <ele>1675</ele>
        <time>2026-08-31T05:14:00.000Z</time>
        <extensions>
          <ns3:TrackPointExtension>
            <ns3:hr>158</ns3:hr>
            <ns3:cad>57</ns3:cad>
          </ns3:TrackPointExtension>
        </extensions>
      </trkpt>
      <trkpt lat="44.6704364754259586334228515625" lon="6.78110291250050067901611328125">
        <ele>1675.199951171875</ele>
        <time>2026-08-31T05:14:01.000Z</time>
        <extensions>
          <ns3:TrackPointExtension>
            <ns3:hr>158</ns3:hr>
            <ns3:cad>57</ns3:cad>
          </ns3:TrackPointExtension>
        </extensions>
      </trkpt>
      <trkpt lat="44.67044577933847904205322265625" lon="6.78111431188881397247314453125">
        <ele>1675.4000244140625</ele>
        <time>2026-08-31T05:14:02.000Z</time>
        <extensions>
          <ns3:TrackPointExtension>
            <ns3:hr>158</ns3:hr>
            <ns3:cad>57</ns3:cad>
          </ns3:TrackPointExtension>
        </extensions>
      </trkpt>
      <trkpt lat="44.6704559214413166046142578125" lon="6.7811281420290470123291015625">
        <ele>1675.4000244140625</ele>
        <time>2026-08-31T05:14:03.000Z</time>
        <extensions>
          <ns3:TrackPointExtension>
            <ns3:hr>158</ns3:hr>
            <ns3:cad>58</ns3:cad>
          </ns3:TrackPointExtension>
        </extensions>
      </trkpt>
      <trkpt lat="44.6704663150012493133544921875" lon="6.7811395414173603057861328125">
        <ele>1675.5999755859375</ele>
        <time>2026-08-31T05:14:04.000Z</time>
        <extensions>
          <ns3:TrackPointExtension>
            <ns3:hr>158</ns3:hr>
            <ns3:cad>58</ns3:cad>
          </ns3:TrackPointExtension>
        </extensions>
      </trkpt>
      <trkpt lat="44.670474529266357421875" lon="6.7811489291489124298095703125">
        <ele>1675.800048828125</ele>
        <time>2026-08-31T05:14:05.000Z</time>
        <extensions>
          <ns3:TrackPointExtension>
            <ns3:hr>158</ns3:hr>
            <ns3:cad>57</ns3:cad>
          </ns3:TrackPointExtension>
        </extensions>
      </trkpt>
      <trkpt lat="44.67048383317887783050537109375" lon="6.78115873597562313079833984375">
        <ele>1676</ele>
        <time>2026-08-31T05:14:06.000Z</time>
        <extensions>
          <ns3:TrackPointExtension>
            <ns3:hr>158</ns3:hr>
            <ns3:cad>57</ns3:cad>
          </ns3:TrackPointExtension>
        </extensions>
      </trkpt>
      <trkpt lat="44.670493304729461669921875" lon="6.78116795606911182403564453125">
        <ele>1676.199951171875</ele>
        <time>2026-08-31T05:14:07.000Z</time>
        <extensions>
          <ns3:TrackPointExtension>
            <ns3:hr>158</ns3:hr>
            <ns3:cad>56</ns3:cad>
          </ns3:TrackPointExtension>
        </extensions>
      </trkpt>
      <trkpt lat="44.67050093226134777069091796875" lon="6.78118019364774227142333984375">
        <ele>1676.199951171875</ele>
        <time>2026-08-31T05:14:08.000Z</time>
        <extensions>
          <ns3:TrackPointExtension>
            <ns3:hr>159</ns3:hr>
            <ns3:cad>56</ns3:cad>
          </ns3:TrackPointExtension>
        </extensions>
      </trkpt>
      <trkpt lat="44.6705075539648532867431640625" lon="6.7811898328363895416259765625">
        <ele>1676.4000244140625</ele>
        <time>2026-08-31T05:14:09.000Z</time>
        <extensions>
          <ns3:TrackPointExtension>
            <ns3:hr>158</ns3:hr>
            <ns3:cad>56</ns3:cad>
          </ns3:TrackPointExtension>
        </extensions>
      </trkpt>
      <trkpt lat="44.670515768229961395263671875" lon="6.781200729310512542724609375">
        <ele>1676.4000244140625</ele>
        <time>2026-08-31T05:14:10.000Z</time>
        <extensions>
          <ns3:TrackPointExtension>
            <ns3:hr>158</ns3:hr>
            <ns3:cad>57</ns3:cad>
          </ns3:TrackPointExtension>
        </extensions>
      </trkpt>
      <trkpt lat="44.67052473686635494232177734375" lon="6.78121120668947696685791015625">
        <ele>1676.4000244140625</ele>
        <time>2026-08-31T05:14:11.000Z</time>
        <extensions>
          <ns3:TrackPointExtension>
            <ns3:hr>159</ns3:hr>
            <ns3:cad>57</ns3:cad>
          </ns3:TrackPointExtension>
        </extensions>
      </trkpt>
      <trkpt lat="44.6705337055027484893798828125" lon="6.78122092969715595245361328125">
        <ele>1676.4000244140625</ele>
        <time>2026-08-31T05:14:12.000Z</time>
        <extensions>
          <ns3:TrackPointExtension>
            <ns3:hr>158</ns3:hr>
            <ns3:cad>57</ns3:cad>
          </ns3:TrackPointExtension>
        </extensions>
      </trkpt>
      <trkpt lat="44.67054518871009349822998046875" lon="6.78123031742870807647705078125">
        <ele>1676.4000244140625</ele>
        <time>2026-08-31T05:14:13.000Z</time>
        <extensions>
          <ns3:TrackPointExtension>
            <ns3:hr>158</ns3:hr>
            <ns3:cad>57</ns3:cad>
          </ns3:TrackPointExtension>
        </extensions>
      </trkpt>
      <trkpt lat="44.670556671917438507080078125" lon="6.781242974102497100830078125">
        <ele>1676.800048828125</ele>
        <time>2026-08-31T05:14:14.000Z</time>
        <extensions>
          <ns3:TrackPointExtension>
            <ns3:hr>159</ns3:hr>
            <ns3:cad>57</ns3:cad>
          </ns3:TrackPointExtension>
        </extensions>
      </trkpt>
      <trkpt lat="44.67056463472545146942138671875" lon="6.7812572233378887176513671875">
        <ele>1677.199951171875</ele>
        <time>2026-08-31T05:14:15.000Z</time>
        <extensions>
          <ns3:TrackPointExtension>
            <ns3:hr>158</ns3:hr>
            <ns3:cad>57</ns3:cad>
          </ns3:TrackPointExtension>
        </extensions>
      </trkpt>
      <trkpt lat="44.67057351954281330108642578125" lon="6.781269125640392303466796875">
        <ele>1677.4000244140625</ele>
        <time>2026-08-31T05:14:16.000Z</time>
        <extensions>
          <ns3:TrackPointExtension>
            <ns3:hr>158</ns3:hr>
            <ns3:cad>56</ns3:cad>
          </ns3:TrackPointExtension>
        </extensions>
      </trkpt>
      <trkpt lat="44.67058022506535053253173828125" lon="6.78128144703805446624755859375">
        <ele>1677.5999755859375</ele>
        <time>2026-08-31T05:14:17.000Z</time>
        <extensions>
          <ns3:TrackPointExtension>
            <ns3:hr>158</ns3:hr>
            <ns3:cad>56</ns3:cad>
          </ns3:TrackPointExtension>
        </extensions>
      </trkpt>
      <trkpt lat="44.67058693058788776397705078125" lon="6.781293936073780059814453125">
        <ele>1678</ele>
        <time>2026-08-31T05:14:18.000Z</time>
        <extensions>
          <ns3:TrackPointExtension>
            <ns3:hr>158</ns3:hr>
            <ns3:cad>56</ns3:cad>
          </ns3:TrackPointExtension>
        </extensions>
      </trkpt>
      <trkpt lat="44.6705947257578372955322265625" lon="6.78130625747144222259521484375">
        <ele>1678</ele>
        <time>2026-08-31T05:14:19.000Z</time>
        <extensions>
          <ns3:TrackPointExtension>
            <ns3:hr>159</ns3:hr>
            <ns3:cad>56</ns3:cad>
          </ns3:TrackPointExtension>
        </extensions>
      </trkpt>
      <trkpt lat="44.67060185037553310394287109375" lon="6.78131933324038982391357421875">
        <ele>1678.199951171875</ele>
        <time>2026-08-31T05:14:20.000Z</time>
        <extensions>
          <ns3:TrackPointExtension>
            <ns3:hr>158</ns3:hr>
            <ns3:cad>56</ns3:cad>
          </ns3:TrackPointExtension>
        </extensions>
      </trkpt>
      <trkpt lat="44.67060872353613376617431640625" lon="6.78132914006710052490234375">
        <ele>1678.199951171875</ele>
        <time>2026-08-31T05:14:21.000Z</time>
        <extensions>
          <ns3:TrackPointExtension>
            <ns3:hr>158</ns3:hr>
            <ns3:cad>56</ns3:cad>
          </ns3:TrackPointExtension>
        </extensions>
      </trkpt>
      <trkpt lat="44.67061869800090789794921875" lon="6.78133358247578144073486328125">
        <ele>1678.4000244140625</ele>
        <time>2026-08-31T05:14:22.000Z</time>
        <extensions>
          <ns3:TrackPointExtension>
            <ns3:hr>158</ns3:hr>
            <ns3:cad>56</ns3:cad>
          </ns3:TrackPointExtension>
        </extensions>
      </trkpt>
      <trkpt lat="44.67062942683696746826171875" lon="6.781336851418018341064453125">
        <ele>1678.5999755859375</ele>
        <time>2026-08-31T05:14:23.000Z</time>
        <extensions>
          <ns3:TrackPointExtension>
            <ns3:hr>158</ns3:hr>
            <ns3:cad>56</ns3:cad>
          </ns3:TrackPointExtension>
        </extensions>
      </trkpt>
      <trkpt lat="44.6706386469304561614990234375" lon="6.78134313784539699554443359375">
        <ele>1678.800048828125</ele>
        <time>2026-08-31T05:14:24.000Z</time>
        <extensions>
          <ns3:TrackPointExtension>
            <ns3:hr>158</ns3:hr>
            <ns3:cad>56</ns3:cad>
          </ns3:TrackPointExtension>
        </extensions>
      </trkpt>
      <trkpt lat="44.67064660973846912384033203125" lon="6.7813537828624248504638671875">
        <ele>1679</ele>
        <time>2026-08-31T05:14:25.000Z</time>
        <extensions>
          <ns3:TrackPointExtension>
            <ns3:hr>158</ns3:hr>
            <ns3:cad>56</ns3:cad>
          </ns3:TrackPointExtension>
        </extensions>
      </trkpt>
      <trkpt lat="44.6706528961658477783203125" lon="6.78136660717427730560302734375">
        <ele>1679.199951171875</ele>
        <time>2026-08-31T05:14:26.000Z</time>
        <extensions>
          <ns3:TrackPointExtension>
            <ns3:hr>158</ns3:hr>
            <ns3:cad>56</ns3:cad>
          </ns3:TrackPointExtension>
        </extensions>
      </trkpt>
      <trkpt lat="44.6706584282219409942626953125" lon="6.78138412535190582275390625">
        <ele>1679.4000244140625</ele>
        <time>2026-08-31T05:14:27.000Z</time>
        <extensions>
          <ns3:TrackPointExtension>
            <ns3:hr>158</ns3:hr>
            <ns3:cad>56</ns3:cad>
          </ns3:TrackPointExtension>
        </extensions>
      </trkpt>
      <trkpt lat="44.67066102661192417144775390625" lon="6.78140097297728061676025390625">
        <ele>1679.4000244140625</ele>
        <time>2026-08-31T05:14:28.000Z</time>
        <extensions>
          <ns3:TrackPointExtension>
            <ns3:hr>158</ns3:hr>
            <ns3:cad>56</ns3:cad>
          </ns3:TrackPointExtension>
        </extensions>
      </trkpt>
      <trkpt lat="44.67066186480224132537841796875" lon="6.781417988240718841552734375">
        <ele>1679.5999755859375</ele>
        <time>2026-08-31T05:14:29.000Z</time>
        <extensions>
          <ns3:TrackPointExtension>
            <ns3:hr>158</ns3:hr>
            <ns3:cad>56</ns3:cad>
          </ns3:TrackPointExtension>
        </extensions>
      </trkpt>
      <trkpt lat="44.670665301382541656494140625" lon="6.7814335785806179046630859375">
        <ele>1679.800048828125</ele>
        <time>2026-08-31T05:14:30.000Z</time>
        <extensions>
          <ns3:TrackPointExtension>
            <ns3:hr>158</ns3:hr>
            <ns3:cad>55</ns3:cad>
          </ns3:TrackPointExtension>
        </extensions>
      </trkpt>
      <trkpt lat="44.67066890560090541839599609375" lon="6.781448163092136383056640625">
        <ele>1679.800048828125</ele>
        <time>2026-08-31T05:14:31.000Z</time>
        <extensions>
          <ns3:TrackPointExtension>
            <ns3:hr>159</ns3:hr>
            <ns3:cad>55</ns3:cad>
          </ns3:TrackPointExtension>
        </extensions>
      </trkpt>
      <trkpt lat="44.67067242600023746490478515625" lon="6.781462244689464569091796875">
        <ele>1680</ele>
        <time>2026-08-31T05:14:32.000Z</time>
        <extensions>
          <ns3:TrackPointExtension>
            <ns3:hr>158</ns3:hr>
            <ns3:cad>55</ns3:cad>
          </ns3:TrackPointExtension>
        </extensions>
      </trkpt>
      <trkpt lat="44.6706778742372989654541015625" lon="6.781478337943553924560546875">
        <ele>1680.199951171875</ele>
        <time>2026-08-31T05:14:33.000Z</time>
        <extensions>
          <ns3:TrackPointExtension>
            <ns3:hr>158</ns3:hr>
            <ns3:cad>55</ns3:cad>
          </ns3:TrackPointExtension>
        </extensions>
      </trkpt>
      <trkpt lat="44.670683406293392181396484375" lon="6.7814956046640872955322265625">
        <ele>1680.4000244140625</ele>
        <time>2026-08-31T05:14:34.000Z</time>
        <extensions>
          <ns3:TrackPointExtension>
            <ns3:hr>158</ns3:hr>
            <ns3:cad>56</ns3:cad>
          </ns3:TrackPointExtension>
        </extensions>
      </trkpt>
      <trkpt lat="44.670689105987548828125" lon="6.7815113626420497894287109375">
        <ele>1680.5999755859375</ele>
        <time>2026-08-31T05:14:35.000Z</time>
        <extensions>
          <ns3:TrackPointExtension>
            <ns3:hr>158</ns3:hr>
            <ns3:cad>56</ns3:cad>
          </ns3:TrackPointExtension>
        </extensions>
      </trkpt>
      <trkpt lat="44.67069472186267375946044921875" lon="6.781526617705821990966796875">
        <ele>1680.800048828125</ele>
        <time>2026-08-31T05:14:36.000Z</time>
        <extensions>
          <ns3:TrackPointExtension>
            <ns3:hr>159</ns3:hr>
            <ns3:cad>56</ns3:cad>
          </ns3:TrackPointExtension>
        </extensions>
      </trkpt>
      <trkpt lat="44.67069840990006923675537109375" lon="6.78154262714087963104248046875">
        <ele>1681</ele>
        <time>2026-08-31T05:14:37.000Z</time>
        <extensions>
          <ns3:TrackPointExtension>
            <ns3:hr>158</ns3:hr>
            <ns3:cad>56</ns3:cad>
          </ns3:TrackPointExtension>
        </extensions>
      </trkpt>
      <trkpt lat="44.67070159502327442169189453125" lon="6.7815562896430492401123046875">
        <ele>1681.199951171875</ele>
        <time>2026-08-31T05:14:38.000Z</time>
        <extensions>
          <ns3:TrackPointExtension>
            <ns3:hr>158</ns3:hr>
            <ns3:cad>56</ns3:cad>
          </ns3:TrackPointExtension>
        </extensions>
      </trkpt>
      <trkpt lat="44.67070511542260646820068359375" lon="6.78156928159296512603759765625">
        <ele>1681.4000244140625</ele>
        <time>2026-08-31T05:14:39.000Z</time>
        <extensions>
          <ns3:TrackPointExtension>
            <ns3:hr>158</ns3:hr>
            <ns3:cad>56</ns3:cad>
          </ns3:TrackPointExtension>
        </extensions>
      </trkpt>
      <trkpt lat="44.670709557831287384033203125" lon="6.78158420138061046600341796875">
        <ele>1681.4000244140625</ele>
        <time>2026-08-31T05:14:40.000Z</time>
        <extensions>
          <ns3:TrackPointExtension>
            <ns3:hr>158</ns3:hr>
            <ns3:cad>56</ns3:cad>
          </ns3:TrackPointExtension>
        </extensions>
      </trkpt>
      <trkpt lat="44.67071282677352428436279296875" lon="6.78160029463469982147216796875">
        <ele>1681.5999755859375</ele>
        <time>2026-08-31T05:14:41.000Z</time>
        <extensions>
          <ns3:TrackPointExtension>
            <ns3:hr>159</ns3:hr>
            <ns3:cad>56</ns3:cad>
          </ns3:TrackPointExtension>
        </extensions>
      </trkpt>
      <trkpt lat="44.67071685008704662322998046875" lon="6.78161554969847202301025390625">
        <ele>1681.5999755859375</ele>
        <time>2026-08-31T05:14:42.000Z</time>
        <extensions>
          <ns3:TrackPointExtension>
            <ns3:hr>158</ns3:hr>
            <ns3:cad>56</ns3:cad>
          </ns3:TrackPointExtension>
        </extensions>
      </trkpt>
      <trkpt lat="44.67072003521025180816650390625" lon="6.78162862546741962432861328125">
        <ele>1681.800048828125</ele>
        <time>2026-08-31T05:14:43.000Z</time>
        <extensions>
          <ns3:TrackPointExtension>
            <ns3:hr>158</ns3:hr>
            <ns3:cad>56</ns3:cad>
          </ns3:TrackPointExtension>
        </extensions>
      </trkpt>
      <trkpt lat="44.670723639428615570068359375" lon="6.78164153359830379486083984375">
        <ele>1682</ele>
        <time>2026-08-31T05:14:44.000Z</time>
        <extensions>
          <ns3:TrackPointExtension>
            <ns3:hr>158</ns3:hr>
            <ns3:cad>56</ns3:cad>
          </ns3:TrackPointExtension>
        </extensions>
      </trkpt>
      <trkpt lat="44.6707288362085819244384765625" lon="6.78165745921432971954345703125">
        <ele>1682.199951171875</ele>
        <time>2026-08-31T05:14:45.000Z</time>
        <extensions>
          <ns3:TrackPointExtension>
            <ns3:hr>158</ns3:hr>
            <ns3:cad>56</ns3:cad>
          </ns3:TrackPointExtension>
        </extensions>
      </trkpt>
      <trkpt lat="44.67073311097919940948486328125" lon="6.7816739715635776519775390625">
        <ele>1682.199951171875</ele>
        <time>2026-08-31T05:14:46.000Z</time>
        <extensions>
          <ns3:TrackPointExtension>
            <ns3:hr>159</ns3:hr>
            <ns3:cad>56</ns3:cad>
          </ns3:TrackPointExtension>
        </extensions>
      </trkpt>
      <trkpt lat="44.67073780484497547149658203125" lon="6.7816890589892864227294921875">
        <ele>1682.4000244140625</ele>
        <time>2026-08-31T05:14:47.000Z</time>
        <extensions>
          <ns3:TrackPointExtension>
            <ns3:hr>158</ns3:hr>
            <ns3:cad>56</ns3:cad>
          </ns3:TrackPointExtension>
        </extensions>
      </trkpt>
      <trkpt lat="44.67074316926300525665283203125" lon="6.7817038111388683319091796875">
        <ele>1682.5999755859375</ele>
        <time>2026-08-31T05:14:48.000Z</time>
        <extensions>
          <ns3:TrackPointExtension>
            <ns3:hr>158</ns3:hr>
            <ns3:cad>56</ns3:cad>
          </ns3:TrackPointExtension>
        </extensions>
      </trkpt>
      <trkpt lat="44.67074819840490818023681640625" lon="6.7817202396690845489501953125">
        <ele>1682.5999755859375</ele>
        <time>2026-08-31T05:14:49.000Z</time>
        <extensions>
          <ns3:TrackPointExtension>
            <ns3:hr>158</ns3:hr>
            <ns3:cad>56</ns3:cad>
          </ns3:TrackPointExtension>
        </extensions>
      </trkpt>
      <trkpt lat="44.6707548201084136962890625" lon="6.781737171113491058349609375">
        <ele>1682.800048828125</ele>
        <time>2026-08-31T05:14:50.000Z</time>
        <extensions>
          <ns3:TrackPointExtension>
            <ns3:hr>158</ns3:hr>
            <ns3:cad>56</ns3:cad>
          </ns3:TrackPointExtension>
        </extensions>
      </trkpt>
      <trkpt lat="44.6707600168883800506591796875" lon="6.78175158798694610595703125">
        <ele>1682.800048828125</ele>
        <time>2026-08-31T05:14:51.000Z</time>
        <extensions>
          <ns3:TrackPointExtension>
            <ns3:hr>158</ns3:hr>
            <ns3:cad>56</ns3:cad>
          </ns3:TrackPointExtension>
        </extensions>
      </trkpt>
      <trkpt lat="44.6707657165825366973876953125" lon="6.781765334308147430419921875">
        <ele>1683</ele>
        <time>2026-08-31T05:14:52.000Z</time>
        <extensions>
          <ns3:TrackPointExtension>
            <ns3:hr>158</ns3:hr>
            <ns3:cad>56</ns3:cad>
          </ns3:TrackPointExtension>
        </extensions>
      </trkpt>
      <trkpt lat="44.6707694046199321746826171875" lon="6.78177799098193645477294921875">
        <ele>1683.199951171875</ele>
        <time>2026-08-31T05:14:53.000Z</time>
        <extensions>
          <ns3:TrackPointExtension>
            <ns3:hr>158</ns3:hr>
            <ns3:cad>57</ns3:cad>
          </ns3:TrackPointExtension>
        </extensions>
      </trkpt>
      <trkpt lat="44.67077183537185192108154296875" lon="6.78179509006440639495849609375">
        <ele>1683.199951171875</ele>
        <time>2026-08-31T05:14:54.000Z</time>
        <extensions>
          <ns3:TrackPointExtension>
            <ns3:hr>158</ns3:hr>
            <ns3:cad>57</ns3:cad>
          </ns3:TrackPointExtension>
        </extensions>
      </trkpt>
      <trkpt lat="44.6707762777805328369140625" lon="6.7818104289472103118896484375">
        <ele>1683.4000244140625</ele>
        <time>2026-08-31T05:14:55.000Z</time>
        <extensions>
          <ns3:TrackPointExtension>
            <ns3:hr>157</ns3:hr>
            <ns3:cad>57</ns3:cad>
          </ns3:TrackPointExtension>
        </extensions>
      </trkpt>
      <trkpt lat="44.67078055255115032196044921875" lon="6.78182492963969707489013671875">
        <ele>1683.4000244140625</ele>
        <time>2026-08-31T05:14:56.000Z</time>
        <extensions>
          <ns3:TrackPointExtension>
            <ns3:hr>157</ns3:hr>
            <ns3:cad>57</ns3:cad>
          </ns3:TrackPointExtension>
        </extensions>
      </trkpt>
      <trkpt lat="44.6707851625978946685791015625" lon="6.78184010088443756103515625">
        <ele>1683.5999755859375</ele>
        <time>2026-08-31T05:14:57.000Z</time>
        <extensions>
          <ns3:TrackPointExtension>
            <ns3:hr>157</ns3:hr>
            <ns3:cad>57</ns3:cad>
          </ns3:TrackPointExtension>
        </extensions>
      </trkpt>
      <trkpt lat="44.67078926973044872283935546875" lon="6.78185460157692432403564453125">
        <ele>1683.800048828125</ele>
        <time>2026-08-31T05:14:58.000Z</time>
        <extensions>
          <ns3:TrackPointExtension>
            <ns3:hr>158</ns3:hr>
            <ns3:cad>57</ns3:cad>
          </ns3:TrackPointExtension>
        </extensions>
      </trkpt>
      <trkpt lat="44.670793712139129638671875" lon="6.78187094628810882568359375">
        <ele>1683.800048828125</ele>
        <time>2026-08-31T05:14:59.000Z</time>
        <extensions>
          <ns3:TrackPointExtension>
            <ns3:hr>157</ns3:hr>
            <ns3:cad>57</ns3:cad>
          </ns3:TrackPointExtension>
        </extensions>
      </trkpt>
      <trkpt lat="44.6707975678145885467529296875" lon="6.78188762627542018890380859375">
        <ele>1684</ele>
        <time>2026-08-31T05:15:00.000Z</time>
        <extensions>
          <ns3:TrackPointExtension>
            <ns3:hr>157</ns3:hr>
            <ns3:cad>57</ns3:cad>
          </ns3:TrackPointExtension>
        </extensions>
      </trkpt>
      <trkpt lat="44.670801423490047454833984375" lon="6.78190573118627071380615234375">
        <ele>1684.199951171875</ele>
        <time>2026-08-31T05:15:01.000Z</time>
        <extensions>
          <ns3:TrackPointExtension>
            <ns3:hr>158</ns3:hr>
            <ns3:cad>57</ns3:cad>
          </ns3:TrackPointExtension>
        </extensions>
      </trkpt>
      <trkpt lat="44.6708076260983943939208984375" lon="6.781917549669742584228515625">
        <ele>1684.199951171875</ele>
        <time>2026-08-31T05:15:02.000Z</time>
        <extensions>
          <ns3:TrackPointExtension>
            <ns3:hr>157</ns3:hr>
            <ns3:cad>56</ns3:cad>
          </ns3:TrackPointExtension>
        </extensions>
      </trkpt>
      <trkpt lat="44.67081315815448760986328125" lon="6.78192869760096073150634765625">
        <ele>1684.199951171875</ele>
        <time>2026-08-31T05:15:03.000Z</time>
        <extensions>
          <ns3:TrackPointExtension>
            <ns3:hr>157</ns3:hr>
            <ns3:cad>56</ns3:cad>
          </ns3:TrackPointExtension>
        </extensions>
      </trkpt>
      <trkpt lat="44.6708163432776927947998046875" lon="6.7819405160844326019287109375">
        <ele>1684.4000244140625</ele>
        <time>2026-08-31T05:15:04.000Z</time>
        <extensions>
          <ns3:TrackPointExtension>
            <ns3:hr>157</ns3:hr>
            <ns3:cad>57</ns3:cad>
          </ns3:TrackPointExtension>
        </extensions>
      </trkpt>
      <trkpt lat="44.67082128860056400299072265625" lon="6.78195434622466564178466796875">
        <ele>1684.5999755859375</ele>
        <time>2026-08-31T05:15:05.000Z</time>
        <extensions>
          <ns3:TrackPointExtension>
            <ns3:hr>157</ns3:hr>
            <ns3:cad>57</ns3:cad>
          </ns3:TrackPointExtension>
        </extensions>
      </trkpt>
      <trkpt lat="44.67083034105598926544189453125" lon="6.78197245113551616668701171875">
        <ele>1684.800048828125</ele>
        <time>2026-08-31T05:15:06.000Z</time>
        <extensions>
          <ns3:TrackPointExtension>
            <ns3:hr>158</ns3:hr>
            <ns3:cad>56</ns3:cad>
          </ns3:TrackPointExtension>
        </extensions>
      </trkpt>
      <trkpt lat="44.67083654366433620452880859375" lon="6.78198854438960552215576171875">
        <ele>1685</ele>
        <time>2026-08-31T05:15:07.000Z</time>
        <extensions>
          <ns3:TrackPointExtension>
            <ns3:hr>157</ns3:hr>
            <ns3:cad>55</ns3:cad>
          </ns3:TrackPointExtension>
        </extensions>
      </trkpt>
      <trkpt lat="44.6708433330059051513671875" lon="6.78200178779661655426025390625">
        <ele>1685.199951171875</ele>
        <time>2026-08-31T05:15:08.000Z</time>
        <extensions>
          <ns3:TrackPointExtension>
            <ns3:hr>158</ns3:hr>
            <ns3:cad>55</ns3:cad>
          </ns3:TrackPointExtension>
        </extensions>
      </trkpt>
      <trkpt lat="44.67084936797618865966796875" lon="6.7820177972316741943359375">
        <ele>1685.4000244140625</ele>
        <time>2026-08-31T05:15:09.000Z</time>
        <extensions>
          <ns3:TrackPointExtension>
            <ns3:hr>158</ns3:hr>
            <ns3:cad>55</ns3:cad>
          </ns3:TrackPointExtension>
        </extensions>
      </trkpt>
      <trkpt lat="44.670853726565837860107421875" lon="6.7820330522954463958740234375">
        <ele>1685.5999755859375</ele>
        <time>2026-08-31T05:15:10.000Z</time>
        <extensions>
          <ns3:TrackPointExtension>
            <ns3:hr>157</ns3:hr>
            <ns3:cad>55</ns3:cad>
          </ns3:TrackPointExtension>
        </extensions>
      </trkpt>
      <trkpt lat="44.67085800133645534515380859375" lon="6.78204554133117198944091796875">
        <ele>1685.5999755859375</ele>
        <time>2026-08-31T05:15:11.000Z</time>
        <extensions>
          <ns3:TrackPointExtension>
            <ns3:hr>157</ns3:hr>
            <ns3:cad>55</ns3:cad>
          </ns3:TrackPointExtension>
        </extensions>
      </trkpt>
      <trkpt lat="44.67086202464997768402099609375" lon="6.78205979056656360626220703125">
        <ele>1685.800048828125</ele>
        <time>2026-08-31T05:15:12.000Z</time>
        <extensions>
          <ns3:TrackPointExtension>
            <ns3:hr>157</ns3:hr>
            <ns3:cad>56</ns3:cad>
          </ns3:TrackPointExtension>
        </extensions>
      </trkpt>
      <trkpt lat="44.67086520977318286895751953125" lon="6.78207345306873321533203125">
        <ele>1686</ele>
        <time>2026-08-31T05:15:13.000Z</time>
        <extensions>
          <ns3:TrackPointExtension>
            <ns3:hr>157</ns3:hr>
            <ns3:cad>56</ns3:cad>
          </ns3:TrackPointExtension>
        </extensions>
      </trkpt>
      <trkpt lat="44.67086805962026119232177734375" lon="6.782087199389934539794921875">
        <ele>1686</ele>
        <time>2026-08-31T05:15:14.000Z</time>
        <extensions>
          <ns3:TrackPointExtension>
            <ns3:hr>156</ns3:hr>
            <ns3:cad>56</ns3:cad>
          </ns3:TrackPointExtension>
        </extensions>
      </trkpt>
      <trkpt lat="44.6708716638386249542236328125" lon="6.78210270591080188751220703125">
        <ele>1686.199951171875</ele>
        <time>2026-08-31T05:15:15.000Z</time>
        <extensions>
          <ns3:TrackPointExtension>
            <ns3:hr>157</ns3:hr>
            <ns3:cad>56</ns3:cad>
          </ns3:TrackPointExtension>
        </extensions>
      </trkpt>
      <trkpt lat="44.67087493278086185455322265625" lon="6.7821170389652252197265625">
        <ele>1686.4000244140625</ele>
        <time>2026-08-31T05:15:16.000Z</time>
        <extensions>
          <ns3:TrackPointExtension>
            <ns3:hr>157</ns3:hr>
            <ns3:cad>56</ns3:cad>
          </ns3:TrackPointExtension>
        </extensions>
      </trkpt>
      <trkpt lat="44.67087677679955959320068359375" lon="6.78213254548609256744384765625">
        <ele>1686.4000244140625</ele>
        <time>2026-08-31T05:15:17.000Z</time>
        <extensions>
          <ns3:TrackPointExtension>
            <ns3:hr>157</ns3:hr>
            <ns3:cad>56</ns3:cad>
          </ns3:TrackPointExtension>
        </extensions>
      </trkpt>
      <trkpt lat="44.67088222503662109375" lon="6.7821492254734039306640625">
        <ele>1686.5999755859375</ele>
        <time>2026-08-31T05:15:18.000Z</time>
        <extensions>
          <ns3:TrackPointExtension>
            <ns3:hr>156</ns3:hr>
            <ns3:cad>56</ns3:cad>
          </ns3:TrackPointExtension>
        </extensions>
      </trkpt>
      <trkpt lat="44.67088691890239715576171875" lon="6.78216489963233470916748046875">
        <ele>1686.800048828125</ele>
        <time>2026-08-31T05:15:19.000Z</time>
        <extensions>
          <ns3:TrackPointExtension>
            <ns3:hr>157</ns3:hr>
            <ns3:cad>57</ns3:cad>
          </ns3:TrackPointExtension>
        </extensions>
      </trkpt>
      <trkpt lat="44.67089119367301464080810546875" lon="6.78218074142932891845703125">
        <ele>1687</ele>
        <time>2026-08-31T05:15:20.000Z</time>
        <extensions>
          <ns3:TrackPointExtension>
            <ns3:hr>157</ns3:hr>
            <ns3:cad>57</ns3:cad>
          </ns3:TrackPointExtension>
        </extensions>
      </trkpt>
      <trkpt lat="44.6708969771862030029296875" lon="6.78219557739794254302978515625">
        <ele>1687.199951171875</ele>
        <time>2026-08-31T05:15:21.000Z</time>
        <extensions>
          <ns3:TrackPointExtension>
            <ns3:hr>157</ns3:hr>
            <ns3:cad>57</ns3:cad>
          </ns3:TrackPointExtension>
        </extensions>
      </trkpt>
      <trkpt lat="44.6709025092422962188720703125" lon="6.7822084017097949981689453125">
        <ele>1687.4000244140625</ele>
        <time>2026-08-31T05:15:22.000Z</time>
        <extensions>
          <ns3:TrackPointExtension>
            <ns3:hr>157</ns3:hr>
            <ns3:cad>57</ns3:cad>
          </ns3:TrackPointExtension>
        </extensions>
      </trkpt>
      <trkpt lat="44.67090745456516742706298828125" lon="6.7822218127548694610595703125">
        <ele>1687.5999755859375</ele>
        <time>2026-08-31T05:15:23.000Z</time>
        <extensions>
          <ns3:TrackPointExtension>
            <ns3:hr>157</ns3:hr>
            <ns3:cad>57</ns3:cad>
          </ns3:TrackPointExtension>
        </extensions>
      </trkpt>
      <trkpt lat="44.670912064611911773681640625" lon="6.78223572671413421630859375">
        <ele>1687.800048828125</ele>
        <time>2026-08-31T05:15:24.000Z</time>
        <extensions>
          <ns3:TrackPointExtension>
            <ns3:hr>157</ns3:hr>
            <ns3:cad>57</ns3:cad>
          </ns3:TrackPointExtension>
        </extensions>
      </trkpt>
      <trkpt lat="44.670916758477687835693359375" lon="6.78225056268274784088134765625">
        <ele>1687.800048828125</ele>
        <time>2026-08-31T05:15:25.000Z</time>
        <extensions>
          <ns3:TrackPointExtension>
            <ns3:hr>157</ns3:hr>
            <ns3:cad>57</ns3:cad>
          </ns3:TrackPointExtension>
        </extensions>
      </trkpt>
      <trkpt lat="44.67092312872409820556640625" lon="6.78226883523166179656982421875">
        <ele>1688</ele>
        <time>2026-08-31T05:15:26.000Z</time>
        <extensions>
          <ns3:TrackPointExtension>
            <ns3:hr>157</ns3:hr>
            <ns3:cad>57</ns3:cad>
          </ns3:TrackPointExtension>
        </extensions>
      </trkpt>
      <trkpt lat="44.670929498970508575439453125" lon="6.7822835035622119903564453125">
        <ele>1688</ele>
        <time>2026-08-31T05:15:27.000Z</time>
        <extensions>
          <ns3:TrackPointExtension>
            <ns3:hr>157</ns3:hr>
            <ns3:cad>56</ns3:cad>
          </ns3:TrackPointExtension>
        </extensions>
      </trkpt>
      <trkpt lat="44.6709370426833629608154296875" lon="6.78229783661663532257080078125">
        <ele>1688.199951171875</ele>
        <time>2026-08-31T05:15:28.000Z</time>
        <extensions>
          <ns3:TrackPointExtension>
            <ns3:hr>158</ns3:hr>
            <ns3:cad>56</ns3:cad>
          </ns3:TrackPointExtension>
        </extensions>
      </trkpt>
      <trkpt lat="44.67094324529170989990234375" lon="6.7823096551001071929931640625">
        <ele>1688.4000244140625</ele>
        <time>2026-08-31T05:15:29.000Z</time>
        <extensions>
          <ns3:TrackPointExtension>
            <ns3:hr>158</ns3:hr>
            <ns3:cad>56</ns3:cad>
          </ns3:TrackPointExtension>
        </extensions>
      </trkpt>
      <trkpt lat="44.6709507890045642852783203125" lon="6.7823203839361667633056640625">
        <ele>1688.4000244140625</ele>
        <time>2026-08-31T05:15:30.000Z</time>
        <extensions>
          <ns3:TrackPointExtension>
            <ns3:hr>158</ns3:hr>
            <ns3:cad>56</ns3:cad>
          </ns3:TrackPointExtension>
        </extensions>
      </trkpt>
      <trkpt lat="44.67095933854579925537109375" lon="6.78232583217322826385498046875">
        <ele>1688.5999755859375</ele>
        <time>2026-08-31T05:15:31.000Z</time>
        <extensions>
          <ns3:TrackPointExtension>
            <ns3:hr>158</ns3:hr>
            <ns3:cad>56</ns3:cad>
          </ns3:TrackPointExtension>
        </extensions>
      </trkpt>
      <trkpt lat="44.6709652058780193328857421875" lon="6.782338656485080718994140625">
        <ele>1688.800048828125</ele>
        <time>2026-08-31T05:15:32.000Z</time>
        <extensions>
          <ns3:TrackPointExtension>
            <ns3:hr>158</ns3:hr>
            <ns3:cad>56</ns3:cad>
          </ns3:TrackPointExtension>
        </extensions>
      </trkpt>
      <trkpt lat="44.67097182758152484893798828125" lon="6.78235349245369434356689453125">
        <ele>1688.800048828125</ele>
        <time>2026-08-31T05:15:33.000Z</time>
        <extensions>
          <ns3:TrackPointExtension>
            <ns3:hr>158</ns3:hr>
            <ns3:cad>55</ns3:cad>
          </ns3:TrackPointExtension>
        </extensions>
      </trkpt>
      <trkpt lat="44.6709766052663326263427734375" lon="6.78236908279359340667724609375">
        <ele>1689</ele>
        <time>2026-08-31T05:15:34.000Z</time>
        <extensions>
          <ns3:TrackPointExtension>
            <ns3:hr>158</ns3:hr>
            <ns3:cad>55</ns3:cad>
          </ns3:TrackPointExtension>
        </extensions>
      </trkpt>
      <trkpt lat="44.6709796227514743804931640625" lon="6.78238601423799991607666015625">
        <ele>1689.199951171875</ele>
        <time>2026-08-31T05:15:35.000Z</time>
        <extensions>
          <ns3:TrackPointExtension>
            <ns3:hr>158</ns3:hr>
            <ns3:cad>55</ns3:cad>
          </ns3:TrackPointExtension>
        </extensions>
      </trkpt>
      <trkpt lat="44.67098222114145755767822265625" lon="6.7824031971395015716552734375">
        <ele>1689.199951171875</ele>
        <time>2026-08-31T05:15:36.000Z</time>
        <extensions>
          <ns3:TrackPointExtension>
            <ns3:hr>158</ns3:hr>
            <ns3:cad>56</ns3:cad>
          </ns3:TrackPointExtension>
        </extensions>
      </trkpt>
      <trkpt lat="44.6709866635501384735107421875" lon="6.78242172114551067352294921875">
        <ele>1689.5999755859375</ele>
        <time>2026-08-31T05:15:37.000Z</time>
        <extensions>
          <ns3:TrackPointExtension>
            <ns3:hr>158</ns3:hr>
            <ns3:cad>56</ns3:cad>
          </ns3:TrackPointExtension>
        </extensions>
      </trkpt>
      <trkpt lat="44.670992195606231689453125" lon="6.7824400775134563446044921875">
        <ele>1689.800048828125</ele>
        <time>2026-08-31T05:15:38.000Z</time>
        <extensions>
          <ns3:TrackPointExtension>
            <ns3:hr>158</ns3:hr>
            <ns3:cad>56</ns3:cad>
          </ns3:TrackPointExtension>
        </extensions>
      </trkpt>
      <trkpt lat="44.67099613510072231292724609375" lon="6.78245541639626026153564453125">
        <ele>1690</ele>
        <time>2026-08-31T05:15:39.000Z</time>
        <extensions>
          <ns3:TrackPointExtension>
            <ns3:hr>158</ns3:hr>
            <ns3:cad>56</ns3:cad>
          </ns3:TrackPointExtension>
        </extensions>
      </trkpt>
      <trkpt lat="44.67100066132843494415283203125" lon="6.7824684083461761474609375">
        <ele>1690.199951171875</ele>
        <time>2026-08-31T05:15:40.000Z</time>
        <extensions>
          <ns3:TrackPointExtension>
            <ns3:hr>158</ns3:hr>
            <ns3:cad>56</ns3:cad>
          </ns3:TrackPointExtension>
        </extensions>
      </trkpt>
      <trkpt lat="44.67100569047033786773681640625" lon="6.78248374722898006439208984375">
        <ele>1690.4000244140625</ele>
        <time>2026-08-31T05:15:41.000Z</time>
        <extensions>
          <ns3:TrackPointExtension>
            <ns3:hr>158</ns3:hr>
            <ns3:cad>56</ns3:cad>
          </ns3:TrackPointExtension>
        </extensions>
      </trkpt>
      <trkpt lat="44.6710109710693359375" lon="6.7824990861117839813232421875">
        <ele>1690.4000244140625</ele>
        <time>2026-08-31T05:15:42.000Z</time>
        <extensions>
          <ns3:TrackPointExtension>
            <ns3:hr>158</ns3:hr>
            <ns3:cad>56</ns3:cad>
          </ns3:TrackPointExtension>
        </extensions>
      </trkpt>
      <trkpt lat="44.67101491056382656097412109375" lon="6.78251207806169986724853515625">
        <ele>1690.4000244140625</ele>
        <time>2026-08-31T05:15:43.000Z</time>
        <extensions>
          <ns3:TrackPointExtension>
            <ns3:hr>158</ns3:hr>
            <ns3:cad>57</ns3:cad>
          </ns3:TrackPointExtension>
        </extensions>
      </trkpt>
      <trkpt lat="44.6710195206105709075927734375" lon="6.78252649493515491485595703125">
        <ele>1690.4000244140625</ele>
        <time>2026-08-31T05:15:44.000Z</time>
        <extensions>
          <ns3:TrackPointExtension>
            <ns3:hr>158</ns3:hr>
            <ns3:cad>57</ns3:cad>
          </ns3:TrackPointExtension>
        </extensions>
      </trkpt>
      <trkpt lat="44.671024717390537261962890625" lon="6.78254024125635623931884765625">
        <ele>1690.5999755859375</ele>
        <time>2026-08-31T05:15:45.000Z</time>
        <extensions>
          <ns3:TrackPointExtension>
            <ns3:hr>158</ns3:hr>
            <ns3:cad>57</ns3:cad>
          </ns3:TrackPointExtension>
        </extensions>
      </trkpt>
      <trkpt lat="44.67103016562759876251220703125" lon="6.78255365230143070220947265625">
        <ele>1690.800048828125</ele>
        <time>2026-08-31T05:15:46.000Z</time>
        <extensions>
          <ns3:TrackPointExtension>
            <ns3:hr>158</ns3:hr>
            <ns3:cad>57</ns3:cad>
          </ns3:TrackPointExtension>
        </extensions>
      </trkpt>
      <trkpt lat="44.67103485949337482452392578125" lon="6.78256706334650516510009765625">
        <ele>1691</ele>
        <time>2026-08-31T05:15:47.000Z</time>
        <extensions>
          <ns3:TrackPointExtension>
            <ns3:hr>158</ns3:hr>
            <ns3:cad>57</ns3:cad>
          </ns3:TrackPointExtension>
        </extensions>
      </trkpt>
      <trkpt lat="44.67103955335915088653564453125" lon="6.782582737505435943603515625">
        <ele>1691.199951171875</ele>
        <time>2026-08-31T05:15:48.000Z</time>
        <extensions>
          <ns3:TrackPointExtension>
            <ns3:hr>158</ns3:hr>
            <ns3:cad>57</ns3:cad>
          </ns3:TrackPointExtension>
        </extensions>
      </trkpt>
      <trkpt lat="44.67104407958686351776123046875" lon="6.7825983278453350067138671875">
        <ele>1691.4000244140625</ele>
        <time>2026-08-31T05:15:49.000Z</time>
        <extensions>
          <ns3:TrackPointExtension>
            <ns3:hr>158</ns3:hr>
            <ns3:cad>57</ns3:cad>
          </ns3:TrackPointExtension>
        </extensions>
      </trkpt>
      <trkpt lat="44.6710473485291004180908203125" lon="6.78261249326169490814208984375">
        <ele>1691.5999755859375</ele>
        <time>2026-08-31T05:15:50.000Z</time>
        <extensions>
          <ns3:TrackPointExtension>
            <ns3:hr>158</ns3:hr>
            <ns3:cad>57</ns3:cad>
          </ns3:TrackPointExtension>
        </extensions>
      </trkpt>
      <trkpt lat="44.67105262912809848785400390625" lon="6.7826274968683719635009765625">
        <ele>1691.800048828125</ele>
        <time>2026-08-31T05:15:51.000Z</time>
        <extensions>
          <ns3:TrackPointExtension>
            <ns3:hr>158</ns3:hr>
            <ns3:cad>56</ns3:cad>
          </ns3:TrackPointExtension>
        </extensions>
      </trkpt>
      <trkpt lat="44.67105765827000141143798828125" lon="6.78264082409441471099853515625">
        <ele>1691.800048828125</ele>
        <time>2026-08-31T05:15:52.000Z</time>
        <extensions>
          <ns3:TrackPointExtension>
            <ns3:hr>158</ns3:hr>
            <ns3:cad>56</ns3:cad>
          </ns3:TrackPointExtension>
        </extensions>
      </trkpt>
      <trkpt lat="44.67106436379253864288330078125" lon="6.78265473805367946624755859375">
        <ele>1692</ele>
        <time>2026-08-31T05:15:53.000Z</time>
        <extensions>
          <ns3:TrackPointExtension>
            <ns3:hr>158</ns3:hr>
            <ns3:cad>56</ns3:cad>
          </ns3:TrackPointExtension>
        </extensions>
      </trkpt>
      <trkpt lat="44.67106972821056842803955078125" lon="6.78266965784132480621337890625">
        <ele>1692</ele>
        <time>2026-08-31T05:15:54.000Z</time>
        <extensions>
          <ns3:TrackPointExtension>
            <ns3:hr>158</ns3:hr>
            <ns3:cad>56</ns3:cad>
          </ns3:TrackPointExtension>
        </extensions>
      </trkpt>
      <trkpt lat="44.6710738353431224822998046875" lon="6.782681979238986968994140625">
        <ele>1692.199951171875</ele>
        <time>2026-08-31T05:15:55.000Z</time>
        <extensions>
          <ns3:TrackPointExtension>
            <ns3:hr>159</ns3:hr>
            <ns3:cad>56</ns3:cad>
          </ns3:TrackPointExtension>
        </extensions>
      </trkpt>
      <trkpt lat="44.6710768528282642364501953125" lon="6.7826935462653636932373046875">
        <ele>1692.4000244140625</ele>
        <time>2026-08-31T05:15:56.000Z</time>
        <extensions>
          <ns3:TrackPointExtension>
            <ns3:hr>158</ns3:hr>
            <ns3:cad>56</ns3:cad>
          </ns3:TrackPointExtension>
        </extensions>
      </trkpt>
      <trkpt lat="44.6710825525224208831787109375" lon="6.782708130776882171630859375">
        <ele>1692.5999755859375</ele>
        <time>2026-08-31T05:15:57.000Z</time>
        <extensions>
          <ns3:TrackPointExtension>
            <ns3:hr>158</ns3:hr>
            <ns3:cad>56</ns3:cad>
          </ns3:TrackPointExtension>
        </extensions>
      </trkpt>
      <trkpt lat="44.6710872463881969451904296875" lon="6.78272246383130550384521484375">
        <ele>1692.800048828125</ele>
        <time>2026-08-31T05:15:58.000Z</time>
        <extensions>
          <ns3:TrackPointExtension>
            <ns3:hr>158</ns3:hr>
            <ns3:cad>56</ns3:cad>
          </ns3:TrackPointExtension>
        </extensions>
      </trkpt>
      <trkpt lat="44.67109135352075099945068359375" lon="6.7827364616096019744873046875">
        <ele>1693</ele>
        <time>2026-08-31T05:15:59.000Z</time>
        <extensions>
          <ns3:TrackPointExtension>
            <ns3:hr>158</ns3:hr>
            <ns3:cad>56</ns3:cad>
          </ns3:TrackPointExtension>
        </extensions>
      </trkpt>
      <trkpt lat="44.67109403572976589202880859375" lon="6.78275079466402530670166015625">
        <ele>1693.199951171875</ele>
        <time>2026-08-31T05:16:00.000Z</time>
        <extensions>
          <ns3:TrackPointExtension>
            <ns3:hr>158</ns3:hr>
            <ns3:cad>56</ns3:cad>
          </ns3:TrackPointExtension>
        </extensions>
      </trkpt>
      <trkpt lat="44.67109747231006622314453125" lon="6.78276412189006805419921875">
        <ele>1693.4000244140625</ele>
        <time>2026-08-31T05:16:01.000Z</time>
        <extensions>
          <ns3:TrackPointExtension>
            <ns3:hr>158</ns3:hr>
            <ns3:cad>56</ns3:cad>
          </ns3:TrackPointExtension>
        </extensions>
      </trkpt>
      <trkpt lat="44.67110241763293743133544921875" lon="6.78277887403964996337890625">
        <ele>1693.4000244140625</ele>
        <time>2026-08-31T05:16:02.000Z</time>
        <extensions>
          <ns3:TrackPointExtension>
            <ns3:hr>157</ns3:hr>
            <ns3:cad>56</ns3:cad>
          </ns3:TrackPointExtension>
        </extensions>
      </trkpt>
      <trkpt lat="44.67110660858452320098876953125" lon="6.782792620360851287841796875">
        <ele>1693.5999755859375</ele>
        <time>2026-08-31T05:16:03.000Z</time>
        <extensions>
          <ns3:TrackPointExtension>
            <ns3:hr>158</ns3:hr>
            <ns3:cad>56</ns3:cad>
          </ns3:TrackPointExtension>
        </extensions>
      </trkpt>
      <trkpt lat="44.671110548079013824462890625" lon="6.78280360065400600433349609375">
        <ele>1693.5999755859375</ele>
        <time>2026-08-31T05:16:04.000Z</time>
        <extensions>
          <ns3:TrackPointExtension>
            <ns3:hr>158</ns3:hr>
            <ns3:cad>56</ns3:cad>
          </ns3:TrackPointExtension>
        </extensions>
      </trkpt>
      <trkpt lat="44.6711164154112339019775390625" lon="6.78282036446034908294677734375">
        <ele>1693.800048828125</ele>
        <time>2026-08-31T05:16:05.000Z</time>
        <extensions>
          <ns3:TrackPointExtension>
            <ns3:hr>158</ns3:hr>
            <ns3:cad>56</ns3:cad>
          </ns3:TrackPointExtension>
        </extensions>
      </trkpt>
      <trkpt lat="44.671121947467327117919921875" lon="6.782837212085723876953125">
        <ele>1694</ele>
        <time>2026-08-31T05:16:06.000Z</time>
        <extensions>
          <ns3:TrackPointExtension>
            <ns3:hr>158</ns3:hr>
            <ns3:cad>56</ns3:cad>
          </ns3:TrackPointExtension>
        </extensions>
      </trkpt>
      <trkpt lat="44.67112739570438861846923828125" lon="6.78285372443497180938720703125">
        <ele>1694</ele>
        <time>2026-08-31T05:16:07.000Z</time>
        <extensions>
          <ns3:TrackPointExtension>
            <ns3:hr>158</ns3:hr>
            <ns3:cad>56</ns3:cad>
          </ns3:TrackPointExtension>
        </extensions>
      </trkpt>
      <trkpt lat="44.6711335144937038421630859375" lon="6.782869063317775726318359375">
        <ele>1694.199951171875</ele>
        <time>2026-08-31T05:16:08.000Z</time>
        <extensions>
          <ns3:TrackPointExtension>
            <ns3:hr>158</ns3:hr>
            <ns3:cad>57</ns3:cad>
          </ns3:TrackPointExtension>
        </extensions>
      </trkpt>
      <trkpt lat="44.67113963328301906585693359375" lon="6.78288423456251621246337890625">
        <ele>1694.4000244140625</ele>
        <time>2026-08-31T05:16:09.000Z</time>
        <extensions>
          <ns3:TrackPointExtension>
            <ns3:hr>159</ns3:hr>
            <ns3:cad>57</ns3:cad>
          </ns3:TrackPointExtension>
        </extensions>
      </trkpt>
      <trkpt lat="44.6711459197103977203369140625" lon="6.78289848379790782928466796875">
        <ele>1694.4000244140625</ele>
        <time>2026-08-31T05:16:10.000Z</time>
        <extensions>
          <ns3:TrackPointExtension>
            <ns3:hr>159</ns3:hr>
            <ns3:cad>57</ns3:cad>
          </ns3:TrackPointExtension>
        </extensions>
      </trkpt>
      <trkpt lat="44.6711516194045543670654296875" lon="6.7829128168523311614990234375">
        <ele>1694.5999755859375</ele>
        <time>2026-08-31T05:16:11.000Z</time>
        <extensions>
          <ns3:TrackPointExtension>
            <ns3:hr>159</ns3:hr>
            <ns3:cad>57</ns3:cad>
          </ns3:TrackPointExtension>
        </extensions>
      </trkpt>
      <trkpt lat="44.6711571514606475830078125" lon="6.78292396478354930877685546875">
        <ele>1694.800048828125</ele>
        <time>2026-08-31T05:16:12.000Z</time>
        <extensions>
          <ns3:TrackPointExtension>
            <ns3:hr>160</ns3:hr>
            <ns3:cad>57</ns3:cad>
          </ns3:TrackPointExtension>
        </extensions>
      </trkpt>
      <trkpt lat="44.6711625158786773681640625" lon="6.78293670527637004852294921875">
        <ele>1694.800048828125</ele>
        <time>2026-08-31T05:16:13.000Z</time>
        <extensions>
          <ns3:TrackPointExtension>
            <ns3:hr>160</ns3:hr>
            <ns3:cad>57</ns3:cad>
          </ns3:TrackPointExtension>
        </extensions>
      </trkpt>
      <trkpt lat="44.67116653919219970703125" lon="6.78295246325433254241943359375">
        <ele>1695</ele>
        <time>2026-08-31T05:16:14.000Z</time>
        <extensions>
          <ns3:TrackPointExtension>
            <ns3:hr>160</ns3:hr>
            <ns3:cad>57</ns3:cad>
          </ns3:TrackPointExtension>
        </extensions>
      </trkpt>
      <trkpt lat="44.67117215506732463836669921875" lon="6.78296796977519989013671875">
        <ele>1695.199951171875</ele>
        <time>2026-08-31T05:16:15.000Z</time>
        <extensions>
          <ns3:TrackPointExtension>
            <ns3:hr>160</ns3:hr>
            <ns3:cad>57</ns3:cad>
          </ns3:TrackPointExtension>
        </extensions>
      </trkpt>
      <trkpt lat="44.67117919586598873138427734375" lon="6.7829833924770355224609375">
        <ele>1695.4000244140625</ele>
        <time>2026-08-31T05:16:16.000Z</time>
        <extensions>
          <ns3:TrackPointExtension>
            <ns3:hr>159</ns3:hr>
            <ns3:cad>57</ns3:cad>
          </ns3:TrackPointExtension>
        </extensions>
      </trkpt>
      <trkpt lat="44.67118506319820880889892578125" lon="6.78299588151276111602783203125">
        <ele>1695.5999755859375</ele>
        <time>2026-08-31T05:16:17.000Z</time>
        <extensions>
          <ns3:TrackPointExtension>
            <ns3:hr>159</ns3:hr>
            <ns3:cad>57</ns3:cad>
          </ns3:TrackPointExtension>
        </extensions>
      </trkpt>
      <trkpt lat="44.67119109816849231719970703125" lon="6.78300996311008930206298828125">
        <ele>1695.800048828125</ele>
        <time>2026-08-31T05:16:18.000Z</time>
        <extensions>
          <ns3:TrackPointExtension>
            <ns3:hr>159</ns3:hr>
            <ns3:cad>56</ns3:cad>
          </ns3:TrackPointExtension>
        </extensions>
      </trkpt>
      <trkpt lat="44.67119595967233180999755859375" lon="6.78302161395549774169921875">
        <ele>1695.800048828125</ele>
        <time>2026-08-31T05:16:19.000Z</time>
        <extensions>
          <ns3:TrackPointExtension>
            <ns3:hr>158</ns3:hr>
            <ns3:cad>56</ns3:cad>
          </ns3:TrackPointExtension>
        </extensions>
      </trkpt>
      <trkpt lat="44.67120266519486904144287109375" lon="6.7830361984670162200927734375">
        <ele>1695.800048828125</ele>
        <time>2026-08-31T05:16:20.000Z</time>
        <extensions>
          <ns3:TrackPointExtension>
            <ns3:hr>157</ns3:hr>
            <ns3:cad>57</ns3:cad>
          </ns3:TrackPointExtension>
        </extensions>
      </trkpt>
      <trkpt lat="44.6712102927267551422119140625" lon="6.7830496095120906829833984375">
        <ele>1695.800048828125</ele>
        <time>2026-08-31T05:16:21.000Z</time>
        <extensions>
          <ns3:TrackPointExtension>
            <ns3:hr>157</ns3:hr>
            <ns3:cad>58</ns3:cad>
          </ns3:TrackPointExtension>
        </extensions>
      </trkpt>
      <trkpt lat="44.67121875844895839691162109375" lon="6.783061511814594268798828125">
        <ele>1696</ele>
        <time>2026-08-31T05:16:22.000Z</time>
        <extensions>
          <ns3:TrackPointExtension>
            <ns3:hr>157</ns3:hr>
            <ns3:cad>58</ns3:cad>
          </ns3:TrackPointExtension>
        </extensions>
      </trkpt>
      <trkpt lat="44.6712263859808444976806640625" lon="6.78307366557419300079345703125">
        <ele>1696</ele>
        <time>2026-08-31T05:16:23.000Z</time>
        <extensions>
          <ns3:TrackPointExtension>
            <ns3:hr>157</ns3:hr>
            <ns3:cad>57</ns3:cad>
          </ns3:TrackPointExtension>
        </extensions>
      </trkpt>
      <trkpt lat="44.6712320856750011444091796875" lon="6.783085651695728302001953125">
        <ele>1696.199951171875</ele>
        <time>2026-08-31T05:16:24.000Z</time>
        <extensions>
          <ns3:TrackPointExtension>
            <ns3:hr>156</ns3:hr>
            <ns3:cad>57</ns3:cad>
          </ns3:TrackPointExtension>
        </extensions>
      </trkpt>
      <trkpt lat="44.67123853974044322967529296875" lon="6.78309897892177104949951171875">
        <ele>1696.199951171875</ele>
        <time>2026-08-31T05:16:25.000Z</time>
        <extensions>
          <ns3:TrackPointExtension>
            <ns3:hr>157</ns3:hr>
            <ns3:cad>57</ns3:cad>
          </ns3:TrackPointExtension>
        </extensions>
      </trkpt>
      <trkpt lat="44.6712448261678218841552734375" lon="6.78311205469071865081787109375">
        <ele>1696.4000244140625</ele>
        <time>2026-08-31T05:16:26.000Z</time>
        <extensions>
          <ns3:TrackPointExtension>
            <ns3:hr>157</ns3:hr>
            <ns3:cad>57</ns3:cad>
          </ns3:TrackPointExtension>
        </extensions>
      </trkpt>
      <trkpt lat="44.67125278897583484649658203125" lon="6.78312831558287143707275390625">
        <ele>1696.4000244140625</ele>
        <time>2026-08-31T05:16:27.000Z</time>
        <extensions>
          <ns3:TrackPointExtension>
            <ns3:hr>156</ns3:hr>
            <ns3:cad>57</ns3:cad>
          </ns3:TrackPointExtension>
        </extensions>
      </trkpt>
      <trkpt lat="44.671261422336101531982421875" lon="6.783142648637294769287109375">
        <ele>1696.4000244140625</ele>
        <time>2026-08-31T05:16:28.000Z</time>
        <extensions>
          <ns3:TrackPointExtension>
            <ns3:hr>156</ns3:hr>
            <ns3:cad>57</ns3:cad>
          </ns3:TrackPointExtension>
        </extensions>
      </trkpt>
      <trkpt lat="44.671268127858638763427734375" lon="6.78315446712076663970947265625">
        <ele>1696.5999755859375</ele>
        <time>2026-08-31T05:16:29.000Z</time>
        <extensions>
          <ns3:TrackPointExtension>
            <ns3:hr>156</ns3:hr>
            <ns3:cad>57</ns3:cad>
          </ns3:TrackPointExtension>
        </extensions>
      </trkpt>
      <trkpt lat="44.6712760068476200103759765625" lon="6.7831672914326190948486328125">
        <ele>1696.800048828125</ele>
        <time>2026-08-31T05:16:30.000Z</time>
        <extensions>
          <ns3:TrackPointExtension>
            <ns3:hr>156</ns3:hr>
            <ns3:cad>57</ns3:cad>
          </ns3:TrackPointExtension>
        </extensions>
      </trkpt>
      <trkpt lat="44.671283550560474395751953125" lon="6.7831807024776935577392578125">
        <ele>1697</ele>
        <time>2026-08-31T05:16:31.000Z</time>
        <extensions>
          <ns3:TrackPointExtension>
            <ns3:hr>156</ns3:hr>
            <ns3:cad>57</ns3:cad>
          </ns3:TrackPointExtension>
        </extensions>
      </trkpt>
      <trkpt lat="44.6712887473404407501220703125" lon="6.78319595754146575927734375">
        <ele>1697.199951171875</ele>
        <time>2026-08-31T05:16:32.000Z</time>
        <extensions>
          <ns3:TrackPointExtension>
            <ns3:hr>157</ns3:hr>
            <ns3:cad>57</ns3:cad>
          </ns3:TrackPointExtension>
        </extensions>
      </trkpt>
      <trkpt lat="44.67129503376781940460205078125" lon="6.78320861421525478363037109375">
        <ele>1697.5999755859375</ele>
        <time>2026-08-31T05:16:33.000Z</time>
        <extensions>
          <ns3:TrackPointExtension>
            <ns3:hr>157</ns3:hr>
            <ns3:cad>57</ns3:cad>
          </ns3:TrackPointExtension>
        </extensions>
      </trkpt>
      <trkpt lat="44.6713014878332614898681640625" lon="6.78322168998420238494873046875">
        <ele>1697.5999755859375</ele>
        <time>2026-08-31T05:16:34.000Z</time>
        <extensions>
          <ns3:TrackPointExtension>
            <ns3:hr>157</ns3:hr>
            <ns3:cad>56</ns3:cad>
          </ns3:TrackPointExtension>
        </extensions>
      </trkpt>
      <trkpt lat="44.67130777426064014434814453125" lon="6.783232502639293670654296875">
        <ele>1697.800048828125</ele>
        <time>2026-08-31T05:16:35.000Z</time>
        <extensions>
          <ns3:TrackPointExtension>
            <ns3:hr>157</ns3:hr>
            <ns3:cad>56</ns3:cad>
          </ns3:TrackPointExtension>
        </extensions>
      </trkpt>
      <trkpt lat="44.6713162399828433990478515625" lon="6.78324398584663867950439453125">
        <ele>1697.800048828125</ele>
        <time>2026-08-31T05:16:36.000Z</time>
        <extensions>
          <ns3:TrackPointExtension>
            <ns3:hr>156</ns3:hr>
            <ns3:cad>56</ns3:cad>
          </ns3:TrackPointExtension>
        </extensions>
      </trkpt>
      <trkpt lat="44.6713232807815074920654296875" lon="6.7832534573972225189208984375">
        <ele>1698</ele>
        <time>2026-08-31T05:16:37.000Z</time>
        <extensions>
          <ns3:TrackPointExtension>
            <ns3:hr>156</ns3:hr>
            <ns3:cad>56</ns3:cad>
          </ns3:TrackPointExtension>
        </extensions>
      </trkpt>
      <trkpt lat="44.67133057303726673126220703125" lon="6.78326443769037723541259765625">
        <ele>1698</ele>
        <time>2026-08-31T05:16:38.000Z</time>
        <extensions>
          <ns3:TrackPointExtension>
            <ns3:hr>156</ns3:hr>
            <ns3:cad>56</ns3:cad>
          </ns3:TrackPointExtension>
        </extensions>
      </trkpt>
      <trkpt lat="44.6713383682072162628173828125" lon="6.7832755856215953826904296875">
        <ele>1698.199951171875</ele>
        <time>2026-08-31T05:16:39.000Z</time>
        <extensions>
          <ns3:TrackPointExtension>
            <ns3:hr>156</ns3:hr>
            <ns3:cad>56</ns3:cad>
          </ns3:TrackPointExtension>
        </extensions>
      </trkpt>
      <trkpt lat="44.671346247196197509765625" lon="6.78328656591475009918212890625">
        <ele>1698.4000244140625</ele>
        <time>2026-08-31T05:16:40.000Z</time>
        <extensions>
          <ns3:TrackPointExtension>
            <ns3:hr>156</ns3:hr>
            <ns3:cad>56</ns3:cad>
          </ns3:TrackPointExtension>
        </extensions>
      </trkpt>
      <trkpt lat="44.67135353945195674896240234375" lon="6.783296875655651092529296875">
        <ele>1698.4000244140625</ele>
        <time>2026-08-31T05:16:41.000Z</time>
        <extensions>
          <ns3:TrackPointExtension>
            <ns3:hr>157</ns3:hr>
            <ns3:cad>56</ns3:cad>
          </ns3:TrackPointExtension>
        </extensions>
      </trkpt>
      <trkpt lat="44.671361334621906280517578125" lon="6.783309616148471832275390625">
        <ele>1698.5999755859375</ele>
        <time>2026-08-31T05:16:42.000Z</time>
        <extensions>
          <ns3:TrackPointExtension>
            <ns3:hr>156</ns3:hr>
            <ns3:cad>56</ns3:cad>
          </ns3:TrackPointExtension>
        </extensions>
      </trkpt>
      <trkpt lat="44.67136912979185581207275390625" lon="6.783321686089038848876953125">
        <ele>1698.800048828125</ele>
        <time>2026-08-31T05:16:43.000Z</time>
        <extensions>
          <ns3:TrackPointExtension>
            <ns3:hr>156</ns3:hr>
            <ns3:cad>55</ns3:cad>
          </ns3:TrackPointExtension>
        </extensions>
      </trkpt>
      <trkpt lat="44.67137684114277362823486328125" lon="6.783334426581859588623046875">
        <ele>1699</ele>
        <time>2026-08-31T05:16:44.000Z</time>
        <extensions>
          <ns3:TrackPointExtension>
            <ns3:hr>156</ns3:hr>
            <ns3:cad>55</ns3:cad>
          </ns3:TrackPointExtension>
        </extensions>
      </trkpt>
      <trkpt lat="44.67138455249369144439697265625" lon="6.78334574215114116668701171875">
        <ele>1699.199951171875</ele>
        <time>2026-08-31T05:16:45.000Z</time>
        <extensions>
          <ns3:TrackPointExtension>
            <ns3:hr>157</ns3:hr>
            <ns3:cad>56</ns3:cad>
          </ns3:TrackPointExtension>
        </extensions>
      </trkpt>
      <trkpt lat="44.67139142565429210662841796875" lon="6.78335680626332759857177734375">
        <ele>1699.4000244140625</ele>
        <time>2026-08-31T05:16:46.000Z</time>
        <extensions>
          <ns3:TrackPointExtension>
            <ns3:hr>156</ns3:hr>
            <ns3:cad>56</ns3:cad>
          </ns3:TrackPointExtension>
        </extensions>
      </trkpt>
      <trkpt lat="44.6713980473577976226806640625" lon="6.78336636163294315338134765625">
        <ele>1699.5999755859375</ele>
        <time>2026-08-31T05:16:47.000Z</time>
        <extensions>
          <ns3:TrackPointExtension>
            <ns3:hr>156</ns3:hr>
            <ns3:cad>56</ns3:cad>
          </ns3:TrackPointExtension>
        </extensions>
      </trkpt>
      <trkpt lat="44.6714050881564617156982421875" lon="6.78337658755481243133544921875">
        <ele>1699.5999755859375</ele>
        <time>2026-08-31T05:16:48.000Z</time>
        <extensions>
          <ns3:TrackPointExtension>
            <ns3:hr>157</ns3:hr>
            <ns3:cad>56</ns3:cad>
          </ns3:TrackPointExtension>
        </extensions>
      </trkpt>
      <trkpt lat="44.67141154222190380096435546875" lon="6.78338513709604740142822265625">
        <ele>1699.800048828125</ele>
        <time>2026-08-31T05:16:49.000Z</time>
        <extensions>
          <ns3:TrackPointExtension>
            <ns3:hr>156</ns3:hr>
            <ns3:cad>56</ns3:cad>
          </ns3:TrackPointExtension>
        </extensions>
      </trkpt>
      <trkpt lat="44.67141942121088504791259765625" lon="6.78339452482759952545166015625">
        <ele>1699.800048828125</ele>
        <time>2026-08-31T05:16:50.000Z</time>
        <extensions>
          <ns3:TrackPointExtension>
            <ns3:hr>156</ns3:hr>
            <ns3:cad>56</ns3:cad>
          </ns3:TrackPointExtension>
        </extensions>
      </trkpt>
      <trkpt lat="44.6714282222092151641845703125" lon="6.783401481807231903076171875">
        <ele>1700</ele>
        <time>2026-08-31T05:16:51.000Z</time>
        <extensions>
          <ns3:TrackPointExtension>
            <ns3:hr>157</ns3:hr>
            <ns3:cad>56</ns3:cad>
          </ns3:TrackPointExtension>
        </extensions>
      </trkpt>
      <trkpt lat="44.67143953777849674224853515625" lon="6.78341195918619632720947265625">
        <ele>1700.199951171875</ele>
        <time>2026-08-31T05:16:52.000Z</time>
        <extensions>
          <ns3:TrackPointExtension>
            <ns3:hr>156</ns3:hr>
            <ns3:cad>56</ns3:cad>
          </ns3:TrackPointExtension>
        </extensions>
      </trkpt>
      <trkpt lat="44.6714508533477783203125" lon="6.78341212682425975799560546875">
        <ele>1700.199951171875</ele>
        <time>2026-08-31T05:16:53.000Z</time>
        <extensions>
          <ns3:TrackPointExtension>
            <ns3:hr>156</ns3:hr>
            <ns3:cad>56</ns3:cad>
          </ns3:TrackPointExtension>
        </extensions>
      </trkpt>
      <trkpt lat="44.6714597381651401519775390625" lon="6.7834076844155788421630859375">
        <ele>1700.4000244140625</ele>
        <time>2026-08-31T05:16:54.000Z</time>
        <extensions>
          <ns3:TrackPointExtension>
            <ns3:hr>156</ns3:hr>
            <ns3:cad>56</ns3:cad>
          </ns3:TrackPointExtension>
        </extensions>
      </trkpt>
      <trkpt lat="44.67145688831806182861328125" lon="6.783392764627933502197265625">
        <ele>1700.4000244140625</ele>
        <time>2026-08-31T05:16:55.000Z</time>
        <extensions>
          <ns3:TrackPointExtension>
            <ns3:hr>156</ns3:hr>
            <ns3:cad>55</ns3:cad>
          </ns3:TrackPointExtension>
        </extensions>
      </trkpt>
      <trkpt lat="44.67145462520420551300048828125" lon="6.78337306715548038482666015625">
        <ele>1700.4000244140625</ele>
        <time>2026-08-31T05:16:56.000Z</time>
        <extensions>
          <ns3:TrackPointExtension>
            <ns3:hr>157</ns3:hr>
            <ns3:cad>55</ns3:cad>
          </ns3:TrackPointExtension>
        </extensions>
      </trkpt>
      <trkpt lat="44.671452529728412628173828125" lon="6.78335881792008876800537109375">
        <ele>1700.4000244140625</ele>
        <time>2026-08-31T05:16:57.000Z</time>
        <extensions>
          <ns3:TrackPointExtension>
            <ns3:hr>157</ns3:hr>
            <ns3:cad>55</ns3:cad>
          </ns3:TrackPointExtension>
        </extensions>
      </trkpt>
      <trkpt lat="44.671449847519397735595703125" lon="6.78334456868469715118408203125">
        <ele>1700.4000244140625</ele>
        <time>2026-08-31T05:16:58.000Z</time>
        <extensions>
          <ns3:TrackPointExtension>
            <ns3:hr>157</ns3:hr>
            <ns3:cad>54</ns3:cad>
          </ns3:TrackPointExtension>
        </extensions>
      </trkpt>
      <trkpt lat="44.67144724912941455841064453125" lon="6.78333501331508159637451171875">
        <ele>1700.4000244140625</ele>
        <time>2026-08-31T05:16:59.000Z</time>
        <extensions>
          <ns3:TrackPointExtension>
            <ns3:hr>157</ns3:hr>
            <ns3:cad>54</ns3:cad>
          </ns3:TrackPointExtension>
        </extensions>
      </trkpt>
      <trkpt lat="44.67144255526363849639892578125" lon="6.78332336246967315673828125">
        <ele>1700.5999755859375</ele>
        <time>2026-08-31T05:17:00.000Z</time>
        <extensions>
          <ns3:TrackPointExtension>
            <ns3:hr>157</ns3:hr>
            <ns3:cad>54</ns3:cad>
          </ns3:TrackPointExtension>
        </extensions>
      </trkpt>
      <trkpt lat="44.6714386157691478729248046875" lon="6.78331271745264530181884765625">
        <ele>1700.800048828125</ele>
        <time>2026-08-31T05:17:01.000Z</time>
        <extensions>
          <ns3:TrackPointExtension>
            <ns3:hr>157</ns3:hr>
            <ns3:cad>55</ns3:cad>
          </ns3:TrackPointExtension>
        </extensions>
      </trkpt>
      <trkpt lat="44.6714362688362598419189453125" lon="6.78330047987401485443115234375">
        <ele>1701</ele>
        <time>2026-08-31T05:17:02.000Z</time>
        <extensions>
          <ns3:TrackPointExtension>
            <ns3:hr>157</ns3:hr>
            <ns3:cad>55</ns3:cad>
          </ns3:TrackPointExtension>
        </extensions>
      </trkpt>
      <trkpt lat="44.6714332513511180877685546875" lon="6.78328572772443294525146484375">
        <ele>1701.199951171875</ele>
        <time>2026-08-31T05:17:03.000Z</time>
        <extensions>
          <ns3:TrackPointExtension>
            <ns3:hr>156</ns3:hr>
            <ns3:cad>55</ns3:cad>
          </ns3:TrackPointExtension>
        </extensions>
      </trkpt>
      <trkpt lat="44.67143031768500804901123046875" lon="6.78326946683228015899658203125">
        <ele>1701.4000244140625</ele>
        <time>2026-08-31T05:17:04.000Z</time>
        <extensions>
          <ns3:TrackPointExtension>
            <ns3:hr>157</ns3:hr>
            <ns3:cad>54</ns3:cad>
          </ns3:TrackPointExtension>
        </extensions>
      </trkpt>
      <trkpt lat="44.67142662964761257171630859375" lon="6.78325387649238109588623046875">
        <ele>1701.5999755859375</ele>
        <time>2026-08-31T05:17:05.000Z</time>
        <extensions>
          <ns3:TrackPointExtension>
            <ns3:hr>157</ns3:hr>
            <ns3:cad>53</ns3:cad>
          </ns3:TrackPointExtension>
        </extensions>
      </trkpt>
      <trkpt lat="44.67142545618116855621337890625" lon="6.78324096836149692535400390625">
        <ele>1701.800048828125</ele>
        <time>2026-08-31T05:17:06.000Z</time>
        <extensions>
          <ns3:TrackPointExtension>
            <ns3:hr>156</ns3:hr>
            <ns3:cad>53</ns3:cad>
          </ns3:TrackPointExtension>
        </extensions>
      </trkpt>
      <trkpt lat="44.6714225225150585174560546875" lon="6.7832289822399616241455078125">
        <ele>1702</ele>
        <time>2026-08-31T05:17:07.000Z</time>
        <extensions>
          <ns3:TrackPointExtension>
            <ns3:hr>156</ns3:hr>
            <ns3:cad>53</ns3:cad>
          </ns3:TrackPointExtension>
        </extensions>
      </trkpt>
      <trkpt lat="44.67141958884894847869873046875" lon="6.78321515209972858428955078125">
        <ele>1702.199951171875</ele>
        <time>2026-08-31T05:17:08.000Z</time>
        <extensions>
          <ns3:TrackPointExtension>
            <ns3:hr>156</ns3:hr>
            <ns3:cad>53</ns3:cad>
          </ns3:TrackPointExtension>
        </extensions>
      </trkpt>
      <trkpt lat="44.6714161522686481475830078125" lon="6.783202998340129852294921875">
        <ele>1702.4000244140625</ele>
        <time>2026-08-31T05:17:09.000Z</time>
        <extensions>
          <ns3:TrackPointExtension>
            <ns3:hr>156</ns3:hr>
            <ns3:cad>53</ns3:cad>
          </ns3:TrackPointExtension>
        </extensions>
      </trkpt>
      <trkpt lat="44.671412296593189239501953125" lon="6.7831894196569919586181640625">
        <ele>1702.5999755859375</ele>
        <time>2026-08-31T05:17:10.000Z</time>
        <extensions>
          <ns3:TrackPointExtension>
            <ns3:hr>157</ns3:hr>
            <ns3:cad>53</ns3:cad>
          </ns3:TrackPointExtension>
        </extensions>
      </trkpt>
      <trkpt lat="44.671408273279666900634765625" lon="6.78317374549806118011474609375">
        <ele>1702.5999755859375</ele>
        <time>2026-08-31T05:17:11.000Z</time>
        <extensions>
          <ns3:TrackPointExtension>
            <ns3:hr>157</ns3:hr>
            <ns3:cad>54</ns3:cad>
          </ns3:TrackPointExtension>
        </extensions>
      </trkpt>
      <trkpt lat="44.67140533961355686187744140625" lon="6.7831582389771938323974609375">
        <ele>1702.800048828125</ele>
        <time>2026-08-31T05:17:12.000Z</time>
        <extensions>
          <ns3:TrackPointExtension>
            <ns3:hr>159</ns3:hr>
            <ns3:cad>54</ns3:cad>
          </ns3:TrackPointExtension>
        </extensions>
      </trkpt>
      <trkpt lat="44.67140165157616138458251953125" lon="6.78314172662794589996337890625">
        <ele>1702.800048828125</ele>
        <time>2026-08-31T05:17:13.000Z</time>
        <extensions>
          <ns3:TrackPointExtension>
            <ns3:hr>160</ns3:hr>
            <ns3:cad>54</ns3:cad>
          </ns3:TrackPointExtension>
        </extensions>
      </trkpt>
      <trkpt lat="44.6713980473577976226806640625" lon="6.783126890659332275390625">
        <ele>1703</ele>
        <time>2026-08-31T05:17:14.000Z</time>
        <extensions>
          <ns3:TrackPointExtension>
            <ns3:hr>160</ns3:hr>
            <ns3:cad>54</ns3:cad>
          </ns3:TrackPointExtension>
        </extensions>
      </trkpt>
      <trkpt lat="44.671394862234592437744140625" lon="6.7831129767000675201416015625">
        <ele>1703.199951171875</ele>
        <time>2026-08-31T05:17:15.000Z</time>
        <extensions>
          <ns3:TrackPointExtension>
            <ns3:hr>160</ns3:hr>
            <ns3:cad>55</ns3:cad>
          </ns3:TrackPointExtension>
        </extensions>
      </trkpt>
      <trkpt lat="44.67139276675879955291748046875" lon="6.7830995656549930572509765625">
        <ele>1703.199951171875</ele>
        <time>2026-08-31T05:17:16.000Z</time>
        <extensions>
          <ns3:TrackPointExtension>
            <ns3:hr>160</ns3:hr>
            <ns3:cad>56</ns3:cad>
          </ns3:TrackPointExtension>
        </extensions>
      </trkpt>
      <trkpt lat="44.671391509473323822021484375" lon="6.78308992646634578704833984375">
        <ele>1703.4000244140625</ele>
        <time>2026-08-31T05:17:17.000Z</time>
        <extensions>
          <ns3:TrackPointExtension>
            <ns3:hr>160</ns3:hr>
            <ns3:cad>56</ns3:cad>
          </ns3:TrackPointExtension>
        </extensions>
      </trkpt>
      <trkpt lat="44.6713878214359283447265625" lon="6.7830781079828739166259765625">
        <ele>1703.4000244140625</ele>
        <time>2026-08-31T05:17:18.000Z</time>
        <extensions>
          <ns3:TrackPointExtension>
            <ns3:hr>161</ns3:hr>
            <ns3:cad>56</ns3:cad>
          </ns3:TrackPointExtension>
        </extensions>
      </trkpt>
      <trkpt lat="44.67138606123626232147216796875" lon="6.78306394256651401519775390625">
        <ele>1703.5999755859375</ele>
        <time>2026-08-31T05:17:19.000Z</time>
        <extensions>
          <ns3:TrackPointExtension>
            <ns3:hr>160</ns3:hr>
            <ns3:cad>56</ns3:cad>
          </ns3:TrackPointExtension>
        </extensions>
      </trkpt>
      <trkpt lat="44.67138337902724742889404296875" lon="6.78305405192077159881591796875">
        <ele>1703.5999755859375</ele>
        <time>2026-08-31T05:17:20.000Z</time>
        <extensions>
          <ns3:TrackPointExtension>
            <ns3:hr>160</ns3:hr>
            <ns3:cad>56</ns3:cad>
          </ns3:TrackPointExtension>
        </extensions>
      </trkpt>
      <trkpt lat="44.6713812835514545440673828125" lon="6.7830429039895534515380859375">
        <ele>1703.800048828125</ele>
        <time>2026-08-31T05:17:21.000Z</time>
        <extensions>
          <ns3:TrackPointExtension>
            <ns3:hr>161</ns3:hr>
            <ns3:cad>56</ns3:cad>
          </ns3:TrackPointExtension>
        </extensions>
      </trkpt>
      <trkpt lat="44.67137910425662994384765625" lon="6.78302639164030551910400390625">
        <ele>1704</ele>
        <time>2026-08-31T05:17:22.000Z</time>
        <extensions>
          <ns3:TrackPointExtension>
            <ns3:hr>160</ns3:hr>
            <ns3:cad>56</ns3:cad>
          </ns3:TrackPointExtension>
        </extensions>
      </trkpt>
      <trkpt lat="44.6713775955140590667724609375" lon="6.783011220395565032958984375">
        <ele>1704</ele>
        <time>2026-08-31T05:17:23.000Z</time>
        <extensions>
          <ns3:TrackPointExtension>
            <ns3:hr>161</ns3:hr>
            <ns3:cad>56</ns3:cad>
          </ns3:TrackPointExtension>
        </extensions>
      </trkpt>
      <trkpt lat="44.6713752485811710357666015625" lon="6.78299604915082454681396484375">
        <ele>1704.199951171875</ele>
        <time>2026-08-31T05:17:24.000Z</time>
        <extensions>
          <ns3:TrackPointExtension>
            <ns3:hr>161</ns3:hr>
            <ns3:cad>56</ns3:cad>
          </ns3:TrackPointExtension>
        </extensions>
      </trkpt>
      <trkpt lat="44.67137348838150501251220703125" lon="6.7829805426299571990966796875">
        <ele>1704.4000244140625</ele>
        <time>2026-08-31T05:17:25.000Z</time>
        <extensions>
          <ns3:TrackPointExtension>
            <ns3:hr>161</ns3:hr>
            <ns3:cad>56</ns3:cad>
          </ns3:TrackPointExtension>
        </extensions>
      </trkpt>
      <trkpt lat="44.67137508094310760498046875" lon="6.7829701490700244903564453125">
        <ele>1704.5999755859375</ele>
        <time>2026-08-31T05:17:26.000Z</time>
        <extensions>
          <ns3:TrackPointExtension>
            <ns3:hr>160</ns3:hr>
            <ns3:cad>55</ns3:cad>
          </ns3:TrackPointExtension>
        </extensions>
      </trkpt>
      <trkpt lat="44.67138153500854969024658203125" lon="6.78296084515750408172607421875">
        <ele>1704.800048828125</ele>
        <time>2026-08-31T05:17:27.000Z</time>
        <extensions>
          <ns3:TrackPointExtension>
            <ns3:hr>160</ns3:hr>
            <ns3:cad>54</ns3:cad>
          </ns3:TrackPointExtension>
        </extensions>
      </trkpt>
      <trkpt lat="44.671388827264308929443359375" lon="6.78296285681426525115966796875">
        <ele>1704.800048828125</ele>
        <time>2026-08-31T05:17:28.000Z</time>
        <extensions>
          <ns3:TrackPointExtension>
            <ns3:hr>160</ns3:hr>
            <ns3:cad>53</ns3:cad>
          </ns3:TrackPointExtension>
        </extensions>
      </trkpt>
      <trkpt lat="44.6713957004249095916748046875" lon="6.782967634499073028564453125">
        <ele>1705</ele>
        <time>2026-08-31T05:17:29.000Z</time>
        <extensions>
          <ns3:TrackPointExtension>
            <ns3:hr>160</ns3:hr>
            <ns3:cad>53</ns3:cad>
          </ns3:TrackPointExtension>
        </extensions>
      </trkpt>
      <trkpt lat="44.67140190303325653076171875" lon="6.7829741723835468292236328125">
        <ele>1705.4000244140625</ele>
        <time>2026-08-31T05:17:30.000Z</time>
        <extensions>
          <ns3:TrackPointExtension>
            <ns3:hr>161</ns3:hr>
            <ns3:cad>53</ns3:cad>
          </ns3:TrackPointExtension>
        </extensions>
      </trkpt>
      <trkpt lat="44.67140735127031803131103515625" lon="6.78297928534448146820068359375">
        <ele>1705.5999755859375</ele>
        <time>2026-08-31T05:17:31.000Z</time>
        <extensions>
          <ns3:TrackPointExtension>
            <ns3:hr>160</ns3:hr>
            <ns3:cad>53</ns3:cad>
          </ns3:TrackPointExtension>
        </extensions>
      </trkpt>
      <trkpt lat="44.67141330242156982421875" lon="6.78298498503863811492919921875">
        <ele>1705.800048828125</ele>
        <time>2026-08-31T05:17:32.000Z</time>
        <extensions>
          <ns3:TrackPointExtension>
            <ns3:hr>160</ns3:hr>
            <ns3:cad>53</ns3:cad>
          </ns3:TrackPointExtension>
        </extensions>
      </trkpt>
      <trkpt lat="44.6714201755821704864501953125" lon="6.7829906009137630462646484375">
        <ele>1706</ele>
        <time>2026-08-31T05:17:33.000Z</time>
        <extensions>
          <ns3:TrackPointExtension>
            <ns3:hr>160</ns3:hr>
            <ns3:cad>53</ns3:cad>
          </ns3:TrackPointExtension>
        </extensions>
      </trkpt>
      <trkpt lat="44.6714288927614688873291015625" lon="6.78299906663596630096435546875">
        <ele>1706.199951171875</ele>
        <time>2026-08-31T05:17:34.000Z</time>
        <extensions>
          <ns3:TrackPointExtension>
            <ns3:hr>160</ns3:hr>
            <ns3:cad>52</ns3:cad>
          </ns3:TrackPointExtension>
        </extensions>
      </trkpt>
      <trkpt lat="44.67143685556948184967041015625" lon="6.78300862200558185577392578125">
        <ele>1706.4000244140625</ele>
        <time>2026-08-31T05:17:35.000Z</time>
        <extensions>
          <ns3:TrackPointExtension>
            <ns3:hr>160</ns3:hr>
            <ns3:cad>52</ns3:cad>
          </ns3:TrackPointExtension>
        </extensions>
      </trkpt>
      <trkpt lat="44.67144741676747798919677734375" lon="6.783018596470355987548828125">
        <ele>1706.4000244140625</ele>
        <time>2026-08-31T05:17:36.000Z</time>
        <extensions>
          <ns3:TrackPointExtension>
            <ns3:hr>161</ns3:hr>
            <ns3:cad>53</ns3:cad>
          </ns3:TrackPointExtension>
        </extensions>
      </trkpt>
      <trkpt lat="44.67145646922290325164794921875" lon="6.7830268107354640960693359375">
        <ele>1706.5999755859375</ele>
        <time>2026-08-31T05:17:37.000Z</time>
        <extensions>
          <ns3:TrackPointExtension>
            <ns3:hr>160</ns3:hr>
            <ns3:cad>53</ns3:cad>
          </ns3:TrackPointExtension>
        </extensions>
      </trkpt>
      <trkpt lat="44.6714640967547893524169921875" lon="6.7830345220863819122314453125">
        <ele>1706.800048828125</ele>
        <time>2026-08-31T05:17:38.000Z</time>
        <extensions>
          <ns3:TrackPointExtension>
            <ns3:hr>160</ns3:hr>
            <ns3:cad>53</ns3:cad>
          </ns3:TrackPointExtension>
        </extensions>
      </trkpt>
      <trkpt lat="44.67147122137248516082763671875" lon="6.78304097615182399749755859375">
        <ele>1707</ele>
        <time>2026-08-31T05:17:39.000Z</time>
        <extensions>
          <ns3:TrackPointExtension>
            <ns3:hr>161</ns3:hr>
            <ns3:cad>53</ns3:cad>
          </ns3:TrackPointExtension>
        </extensions>
      </trkpt>
      <trkpt lat="44.67147977091372013092041015625" lon="6.783047430217266082763671875">
        <ele>1707.199951171875</ele>
        <time>2026-08-31T05:17:40.000Z</time>
        <extensions>
          <ns3:TrackPointExtension>
            <ns3:hr>161</ns3:hr>
            <ns3:cad>53</ns3:cad>
          </ns3:TrackPointExtension>
        </extensions>
      </trkpt>
      <trkpt lat="44.6714868955314159393310546875" lon="6.78305447101593017578125">
        <ele>1707.4000244140625</ele>
        <time>2026-08-31T05:17:41.000Z</time>
        <extensions>
          <ns3:TrackPointExtension>
            <ns3:hr>161</ns3:hr>
            <ns3:cad>53</ns3:cad>
          </ns3:TrackPointExtension>
        </extensions>
      </trkpt>
      <trkpt lat="44.6714952774345874786376953125" lon="6.783062182366847991943359375">
        <ele>1707.5999755859375</ele>
        <time>2026-08-31T05:17:42.000Z</time>
        <extensions>
          <ns3:TrackPointExtension>
            <ns3:hr>161</ns3:hr>
            <ns3:cad>53</ns3:cad>
          </ns3:TrackPointExtension>
        </extensions>
      </trkpt>
      <trkpt lat="44.671502150595188140869140625" lon="6.78306997753679752349853515625">
        <ele>1707.800048828125</ele>
        <time>2026-08-31T05:17:43.000Z</time>
        <extensions>
          <ns3:TrackPointExtension>
            <ns3:hr>161</ns3:hr>
            <ns3:cad>53</ns3:cad>
          </ns3:TrackPointExtension>
        </extensions>
      </trkpt>
      <trkpt lat="44.67151061631739139556884765625" lon="6.78308187983930110931396484375">
        <ele>1707.800048828125</ele>
        <time>2026-08-31T05:17:44.000Z</time>
        <extensions>
          <ns3:TrackPointExtension>
            <ns3:hr>160</ns3:hr>
            <ns3:cad>53</ns3:cad>
          </ns3:TrackPointExtension>
        </extensions>
      </trkpt>
      <trkpt lat="44.67151715420186519622802734375" lon="6.7830906808376312255859375">
        <ele>1708</ele>
        <time>2026-08-31T05:17:45.000Z</time>
        <extensions>
          <ns3:TrackPointExtension>
            <ns3:hr>160</ns3:hr>
            <ns3:cad>53</ns3:cad>
          </ns3:TrackPointExtension>
        </extensions>
      </trkpt>
      <trkpt lat="44.67152318917214870452880859375" lon="6.783100403845310211181640625">
        <ele>1708.199951171875</ele>
        <time>2026-08-31T05:17:46.000Z</time>
        <extensions>
          <ns3:TrackPointExtension>
            <ns3:hr>159</ns3:hr>
            <ns3:cad>53</ns3:cad>
          </ns3:TrackPointExtension>
        </extensions>
      </trkpt>
      <trkpt lat="44.67152670957148075103759765625" lon="6.78311071358621120452880859375">
        <ele>1708.4000244140625</ele>
        <time>2026-08-31T05:17:47.000Z</time>
        <extensions>
          <ns3:TrackPointExtension>
            <ns3:hr>159</ns3:hr>
            <ns3:cad>53</ns3:cad>
          </ns3:TrackPointExtension>
        </extensions>
      </trkpt>
      <trkpt lat="44.67153140343725681304931640625" lon="6.78311884403228759765625">
        <ele>1708.5999755859375</ele>
        <time>2026-08-31T05:17:48.000Z</time>
        <extensions>
          <ns3:TrackPointExtension>
            <ns3:hr>158</ns3:hr>
            <ns3:cad>53</ns3:cad>
          </ns3:TrackPointExtension>
        </extensions>
      </trkpt>
      <trkpt lat="44.67153777368366718292236328125" lon="6.783125214278697967529296875">
        <ele>1708.5999755859375</ele>
        <time>2026-08-31T05:17:49.000Z</time>
        <extensions>
          <ns3:TrackPointExtension>
            <ns3:hr>157</ns3:hr>
            <ns3:cad>53</ns3:cad>
          </ns3:TrackPointExtension>
        </extensions>
      </trkpt>
      <trkpt lat="44.67154406011104583740234375" lon="6.7831297405064105987548828125">
        <ele>1708.800048828125</ele>
        <time>2026-08-31T05:17:50.000Z</time>
        <extensions>
          <ns3:TrackPointExtension>
            <ns3:hr>157</ns3:hr>
            <ns3:cad>52</ns3:cad>
          </ns3:TrackPointExtension>
        </extensions>
      </trkpt>
      <trkpt lat="44.67155118472874164581298828125" lon="6.78313300944864749908447265625">
        <ele>1709</ele>
        <time>2026-08-31T05:17:51.000Z</time>
        <extensions>
          <ns3:TrackPointExtension>
            <ns3:hr>157</ns3:hr>
            <ns3:cad>52</ns3:cad>
          </ns3:TrackPointExtension>
        </extensions>
      </trkpt>
      <trkpt lat="44.6715589798986911773681640625" lon="6.78313686512410640716552734375">
        <ele>1709.199951171875</ele>
        <time>2026-08-31T05:17:52.000Z</time>
        <extensions>
          <ns3:TrackPointExtension>
            <ns3:hr>157</ns3:hr>
            <ns3:cad>52</ns3:cad>
          </ns3:TrackPointExtension>
        </extensions>
      </trkpt>
      <trkpt lat="44.6715670265257358551025390625" lon="6.7831428162753582000732421875">
        <ele>1709.4000244140625</ele>
        <time>2026-08-31T05:17:53.000Z</time>
        <extensions>
          <ns3:TrackPointExtension>
            <ns3:hr>156</ns3:hr>
            <ns3:cad>52</ns3:cad>
          </ns3:TrackPointExtension>
        </extensions>
      </trkpt>
      <trkpt lat="44.6715740673243999481201171875" lon="6.78315413184463977813720703125">
        <ele>1709.5999755859375</ele>
        <time>2026-08-31T05:17:54.000Z</time>
        <extensions>
          <ns3:TrackPointExtension>
            <ns3:hr>157</ns3:hr>
            <ns3:cad>52</ns3:cad>
          </ns3:TrackPointExtension>
        </extensions>
      </trkpt>
      <trkpt lat="44.6715824492275714874267578125" lon="6.783167459070682525634765625">
        <ele>1709.800048828125</ele>
        <time>2026-08-31T05:17:55.000Z</time>
        <extensions>
          <ns3:TrackPointExtension>
            <ns3:hr>157</ns3:hr>
            <ns3:cad>53</ns3:cad>
          </ns3:TrackPointExtension>
        </extensions>
      </trkpt>
      <trkpt lat="44.67158638872206211090087890625" lon="6.7831796966493129730224609375">
        <ele>1710</ele>
        <time>2026-08-31T05:17:56.000Z</time>
        <extensions>
          <ns3:TrackPointExtension>
            <ns3:hr>157</ns3:hr>
            <ns3:cad>53</ns3:cad>
          </ns3:TrackPointExtension>
        </extensions>
      </trkpt>
      <trkpt lat="44.671592675149440765380859375" lon="6.7831917665898799896240234375">
        <ele>1710.199951171875</ele>
        <time>2026-08-31T05:17:57.000Z</time>
        <extensions>
          <ns3:TrackPointExtension>
            <ns3:hr>157</ns3:hr>
            <ns3:cad>53</ns3:cad>
          </ns3:TrackPointExtension>
        </extensions>
      </trkpt>
      <trkpt lat="44.6715978719294071197509765625" lon="6.7832018248736858367919921875">
        <ele>1710.4000244140625</ele>
        <time>2026-08-31T05:17:58.000Z</time>
        <extensions>
          <ns3:TrackPointExtension>
            <ns3:hr>158</ns3:hr>
            <ns3:cad>53</ns3:cad>
          </ns3:TrackPointExtension>
        </extensions>
      </trkpt>
      <trkpt lat="44.67160181142389774322509765625" lon="6.7832055129110813140869140625">
        <ele>1710.5999755859375</ele>
        <time>2026-08-31T05:17:59.000Z</time>
        <extensions>
          <ns3:TrackPointExtension>
            <ns3:hr>158</ns3:hr>
            <ns3:cad>53</ns3:cad>
          </ns3:TrackPointExtension>
        </extensions>
      </trkpt>
      <trkpt lat="44.67160348780453205108642578125" lon="6.78320811130106449127197265625">
        <ele>1710.5999755859375</ele>
        <time>2026-08-31T05:18:00.000Z</time>
        <extensions>
          <ns3:TrackPointExtension>
            <ns3:hr>158</ns3:hr>
            <ns3:cad>53</ns3:cad>
          </ns3:TrackPointExtension>
        </extensions>
      </trkpt>
      <trkpt lat="44.67160306870937347412109375" lon="6.78320802748203277587890625">
        <ele>1710.800048828125</ele>
        <time>2026-08-31T05:18:01.000Z</time>
        <extensions>
          <ns3:TrackPointExtension>
            <ns3:hr>158</ns3:hr>
            <ns3:cad>52</ns3:cad>
          </ns3:TrackPointExtension>
        </extensions>
      </trkpt>
      <trkpt lat="44.67160264961421489715576171875" lon="6.7832068540155887603759765625">
        <ele>1711</ele>
        <time>2026-08-31T05:18:02.000Z</time>
        <extensions>
          <ns3:TrackPointExtension>
            <ns3:hr>159</ns3:hr>
            <ns3:cad>0</ns3:cad>
          </ns3:TrackPointExtension>
        </extensions>
      </trkpt>
      <trkpt lat="44.67160147614777088165283203125" lon="6.7832041718065738677978515625">
        <ele>1711</ele>
        <time>2026-08-31T05:18:03.000Z</time>
        <extensions>
          <ns3:TrackPointExtension>
            <ns3:hr>159</ns3:hr>
            <ns3:cad>0</ns3:cad>
          </ns3:TrackPointExtension>
        </extensions>
      </trkpt>
      <trkpt lat="44.67159912921488285064697265625" lon="6.783201992511749267578125">
        <ele>1711.199951171875</ele>
        <time>2026-08-31T05:18:04.000Z</time>
        <extensions>
          <ns3:TrackPointExtension>
            <ns3:hr>158</ns3:hr>
            <ns3:cad>0</ns3:cad>
          </ns3:TrackPointExtension>
        </extensions>
      </trkpt>
      <trkpt lat="44.67159762047231197357177734375" lon="6.78320400416851043701171875">
        <ele>1711</ele>
        <time>2026-08-31T05:18:05.000Z</time>
        <extensions>
          <ns3:TrackPointExtension>
            <ns3:hr>159</ns3:hr>
            <ns3:cad>0</ns3:cad>
          </ns3:TrackPointExtension>
        </extensions>
      </trkpt>
      <trkpt lat="44.6715935133397579193115234375" lon="6.78320207633078098297119140625">
        <ele>1711</ele>
        <time>2026-08-31T05:18:06.000Z</time>
        <extensions>
          <ns3:TrackPointExtension>
            <ns3:hr>158</ns3:hr>
            <ns3:cad>0</ns3:cad>
          </ns3:TrackPointExtension>
        </extensions>
      </trkpt>
      <trkpt lat="44.67158957384526729583740234375" lon="6.78319998085498809814453125">
        <ele>1711</ele>
        <time>2026-08-31T05:18:07.000Z</time>
        <extensions>
          <ns3:TrackPointExtension>
            <ns3:hr>158</ns3:hr>
            <ns3:cad>0</ns3:cad>
          </ns3:TrackPointExtension>
        </extensions>
      </trkpt>
      <trkpt lat="44.67158772982656955718994140625" lon="6.78319838829338550567626953125">
        <ele>1711</ele>
        <time>2026-08-31T05:18:08.000Z</time>
        <extensions>
          <ns3:TrackPointExtension>
            <ns3:hr>158</ns3:hr>
            <ns3:cad>0</ns3:cad>
          </ns3:TrackPointExtension>
        </extensions>
      </trkpt>
      <trkpt lat="44.6715943515300750732421875" lon="6.78319436497986316680908203125">
        <ele>1711</ele>
        <time>2026-08-31T05:18:09.000Z</time>
        <extensions>
          <ns3:TrackPointExtension>
            <ns3:hr>158</ns3:hr>
            <ns3:cad>0</ns3:cad>
          </ns3:TrackPointExtension>
        </extensions>
      </trkpt>
      <trkpt lat="44.67159644700586795806884765625" lon="6.78320157341659069061279296875">
        <ele>1711</ele>
        <time>2026-08-31T05:18:10.000Z</time>
        <extensions>
          <ns3:TrackPointExtension>
            <ns3:hr>159</ns3:hr>
            <ns3:cad>0</ns3:cad>
          </ns3:TrackPointExtension>
        </extensions>
      </trkpt>
      <trkpt lat="44.67160298489034175872802734375" lon="6.7832051776349544525146484375">
        <ele>1711</ele>
        <time>2026-08-31T05:18:11.000Z</time>
        <extensions>
          <ns3:TrackPointExtension>
            <ns3:hr>158</ns3:hr>
            <ns3:cad>0</ns3:cad>
          </ns3:TrackPointExtension>
        </extensions>
      </trkpt>
      <trkpt lat="44.67160516418516635894775390625" lon="6.78320492617785930633544921875">
        <ele>1711.199951171875</ele>
        <time>2026-08-31T05:18:12.000Z</time>
        <extensions>
          <ns3:TrackPointExtension>
            <ns3:hr>158</ns3:hr>
            <ns3:cad>0</ns3:cad>
          </ns3:TrackPointExtension>
        </extensions>
      </trkpt>
      <trkpt lat="44.6716018952429294586181640625" lon="6.783205009996891021728515625">
        <ele>1711.199951171875</ele>
        <time>2026-08-31T05:18:13.000Z</time>
        <extensions>
          <ns3:TrackPointExtension>
            <ns3:hr>158</ns3:hr>
            <ns3:cad>0</ns3:cad>
          </ns3:TrackPointExtension>
        </extensions>
      </trkpt>
      <trkpt lat="44.67160315252840518951416015625" lon="6.78320542909204959869384765625">
        <ele>1711.4000244140625</ele>
        <time>2026-08-31T05:18:14.000Z</time>
        <extensions>
          <ns3:TrackPointExtension>
            <ns3:hr>158</ns3:hr>
            <ns3:cad>0</ns3:cad>
          </ns3:TrackPointExtension>
        </extensions>
      </trkpt>
      <trkpt lat="44.67160315252840518951416015625" lon="6.78320542909204959869384765625">
        <ele>1711.4000244140625</ele>
        <time>2026-08-31T05:18:15.000Z</time>
        <extensions>
          <ns3:TrackPointExtension>
            <ns3:hr>157</ns3:hr>
            <ns3:cad>0</ns3:cad>
          </ns3:TrackPointExtension>
        </extensions>
      </trkpt>
      <trkpt lat="44.67160315252840518951416015625" lon="6.78320542909204959869384765625">
        <ele>1711.4000244140625</ele>
        <time>2026-08-31T05:18:16.000Z</time>
        <extensions>
          <ns3:TrackPointExtension>
            <ns3:hr>157</ns3:hr>
            <ns3:cad>0</ns3:cad>
          </ns3:TrackPointExtension>
        </extensions>
      </trkpt>
      <trkpt lat="44.67160315252840518951416015625" lon="6.78320542909204959869384765625">
        <ele>1711.4000244140625</ele>
        <time>2026-08-31T05:18:17.000Z</time>
        <extensions>
          <ns3:TrackPointExtension>
            <ns3:hr>157</ns3:hr>
            <ns3:cad>0</ns3:cad>
          </ns3:TrackPointExtension>
        </extensions>
      </trkpt>
      <trkpt lat="44.67160315252840518951416015625" lon="6.78320542909204959869384765625">
        <ele>1711.4000244140625</ele>
        <time>2026-08-31T05:18:18.000Z</time>
        <extensions>
          <ns3:TrackPointExtension>
            <ns3:hr>156</ns3:hr>
            <ns3:cad>0</ns3:cad>
          </ns3:TrackPointExtension>
        </extensions>
      </trkpt>
      <trkpt lat="44.67160315252840518951416015625" lon="6.78320542909204959869384765625">
        <ele>1711.4000244140625</ele>
        <time>2026-08-31T05:18:19.000Z</time>
        <extensions>
          <ns3:TrackPointExtension>
            <ns3:hr>155</ns3:hr>
            <ns3:cad>0</ns3:cad>
          </ns3:TrackPointExtension>
        </extensions>
      </trkpt>
      <trkpt lat="44.67160315252840518951416015625" lon="6.78320542909204959869384765625">
        <ele>1711.5999755859375</ele>
        <time>2026-08-31T05:18:20.000Z</time>
        <extensions>
          <ns3:TrackPointExtension>
            <ns3:hr>154</ns3:hr>
            <ns3:cad>0</ns3:cad>
          </ns3:TrackPointExtension>
        </extensions>
      </trkpt>
      <trkpt lat="44.67160315252840518951416015625" lon="6.78320542909204959869384765625">
        <ele>1711.5999755859375</ele>
        <time>2026-08-31T05:18:21.000Z</time>
        <extensions>
          <ns3:TrackPointExtension>
            <ns3:hr>153</ns3:hr>
            <ns3:cad>0</ns3:cad>
          </ns3:TrackPointExtension>
        </extensions>
      </trkpt>
      <trkpt lat="44.67160315252840518951416015625" lon="6.78320542909204959869384765625">
        <ele>1711.5999755859375</ele>
        <time>2026-08-31T05:18:22.000Z</time>
        <extensions>
          <ns3:TrackPointExtension>
            <ns3:hr>153</ns3:hr>
            <ns3:cad>0</ns3:cad>
          </ns3:TrackPointExtension>
        </extensions>
      </trkpt>
      <trkpt lat="44.67160315252840518951416015625" lon="6.78320542909204959869384765625">
        <ele>1711.5999755859375</ele>
        <time>2026-08-31T05:18:23.000Z</time>
        <extensions>
          <ns3:TrackPointExtension>
            <ns3:hr>152</ns3:hr>
            <ns3:cad>0</ns3:cad>
          </ns3:TrackPointExtension>
        </extensions>
      </trkpt>
      <trkpt lat="44.67160315252840518951416015625" lon="6.78320542909204959869384765625">
        <ele>1711.5999755859375</ele>
        <time>2026-08-31T05:18:24.000Z</time>
        <extensions>
          <ns3:TrackPointExtension>
            <ns3:hr>151</ns3:hr>
            <ns3:cad>0</ns3:cad>
          </ns3:TrackPointExtension>
        </extensions>
      </trkpt>
      <trkpt lat="44.67160315252840518951416015625" lon="6.78320542909204959869384765625">
        <ele>1711.5999755859375</ele>
        <time>2026-08-31T05:18:25.000Z</time>
        <extensions>
          <ns3:TrackPointExtension>
            <ns3:hr>150</ns3:hr>
            <ns3:cad>0</ns3:cad>
          </ns3:TrackPointExtension>
        </extensions>
      </trkpt>
      <trkpt lat="44.67160315252840518951416015625" lon="6.78320542909204959869384765625">
        <ele>1711.800048828125</ele>
        <time>2026-08-31T05:18:26.000Z</time>
        <extensions>
          <ns3:TrackPointExtension>
            <ns3:hr>150</ns3:hr>
            <ns3:cad>0</ns3:cad>
          </ns3:TrackPointExtension>
        </extensions>
      </trkpt>
      <trkpt lat="44.67160315252840518951416015625" lon="6.78320542909204959869384765625">
        <ele>1711.800048828125</ele>
        <time>2026-08-31T05:18:27.000Z</time>
        <extensions>
          <ns3:TrackPointExtension>
            <ns3:hr>149</ns3:hr>
            <ns3:cad>0</ns3:cad>
          </ns3:TrackPointExtension>
        </extensions>
      </trkpt>
      <trkpt lat="44.67160315252840518951416015625" lon="6.78320542909204959869384765625">
        <ele>1711.800048828125</ele>
        <time>2026-08-31T05:18:28.000Z</time>
        <extensions>
          <ns3:TrackPointExtension>
            <ns3:hr>148</ns3:hr>
            <ns3:cad>0</ns3:cad>
          </ns3:TrackPointExtension>
        </extensions>
      </trkpt>
      <trkpt lat="44.67160315252840518951416015625" lon="6.78320542909204959869384765625">
        <ele>1711.800048828125</ele>
        <time>2026-08-31T05:18:29.000Z</time>
        <extensions>
          <ns3:TrackPointExtension>
            <ns3:hr>148</ns3:hr>
            <ns3:cad>0</ns3:cad>
          </ns3:TrackPointExtension>
        </extensions>
      </trkpt>
      <trkpt lat="44.67160315252840518951416015625" lon="6.78320542909204959869384765625">
        <ele>1711.800048828125</ele>
        <time>2026-08-31T05:18:30.000Z</time>
        <extensions>
          <ns3:TrackPointExtension>
            <ns3:hr>147</ns3:hr>
            <ns3:cad>0</ns3:cad>
          </ns3:TrackPointExtension>
        </extensions>
      </trkpt>
      <trkpt lat="44.6716042421758174896240234375" lon="6.78321414627134799957275390625">
        <ele>1711.800048828125</ele>
        <time>2026-08-31T05:18:31.000Z</time>
        <extensions>
          <ns3:TrackPointExtension>
            <ns3:hr>146</ns3:hr>
            <ns3:cad>0</ns3:cad>
          </ns3:TrackPointExtension>
        </extensions>
      </trkpt>
      <trkpt lat="44.671616815030574798583984375" lon="6.7832306586205959320068359375">
        <ele>1711.800048828125</ele>
        <time>2026-08-31T05:18:32.000Z</time>
        <extensions>
          <ns3:TrackPointExtension>
            <ns3:hr>146</ns3:hr>
            <ns3:cad>0</ns3:cad>
          </ns3:TrackPointExtension>
        </extensions>
      </trkpt>
      <trkpt lat="44.6716265380382537841796875" lon="6.78324289619922637939453125">
        <ele>1712</ele>
        <time>2026-08-31T05:18:33.000Z</time>
        <extensions>
          <ns3:TrackPointExtension>
            <ns3:hr>145</ns3:hr>
            <ns3:cad>0</ns3:cad>
          </ns3:TrackPointExtension>
        </extensions>
      </trkpt>
      <trkpt lat="44.671630896627902984619140625" lon="6.78325220011174678802490234375">
        <ele>1712</ele>
        <time>2026-08-31T05:18:34.000Z</time>
        <extensions>
          <ns3:TrackPointExtension>
            <ns3:hr>145</ns3:hr>
            <ns3:cad>0</ns3:cad>
          </ns3:TrackPointExtension>
        </extensions>
      </trkpt>
      <trkpt lat="44.6716374345123767852783203125" lon="6.78325840272009372711181640625">
        <ele>1712.199951171875</ele>
        <time>2026-08-31T05:18:35.000Z</time>
        <extensions>
          <ns3:TrackPointExtension>
            <ns3:hr>144</ns3:hr>
            <ns3:cad>0</ns3:cad>
          </ns3:TrackPointExtension>
        </extensions>
      </trkpt>
      <trkpt lat="44.6716438047587871551513671875" lon="6.78326703608036041259765625">
        <ele>1712.4000244140625</ele>
        <time>2026-08-31T05:18:36.000Z</time>
        <extensions>
          <ns3:TrackPointExtension>
            <ns3:hr>144</ns3:hr>
            <ns3:cad>0</ns3:cad>
          </ns3:TrackPointExtension>
        </extensions>
      </trkpt>
      <trkpt lat="44.6716488339006900787353515625" lon="6.78327281959354877471923828125">
        <ele>1712.5999755859375</ele>
        <time>2026-08-31T05:18:37.000Z</time>
        <extensions>
          <ns3:TrackPointExtension>
            <ns3:hr>143</ns3:hr>
            <ns3:cad>54</ns3:cad>
          </ns3:TrackPointExtension>
        </extensions>
      </trkpt>
      <trkpt lat="44.6716560423374176025390625" lon="6.78327935747802257537841796875">
        <ele>1712.800048828125</ele>
        <time>2026-08-31T05:18:38.000Z</time>
        <extensions>
          <ns3:TrackPointExtension>
            <ns3:hr>142</ns3:hr>
            <ns3:cad>54</ns3:cad>
          </ns3:TrackPointExtension>
        </extensions>
      </trkpt>
      <trkpt lat="44.6716635860502719879150390625" lon="6.78328673355281352996826171875">
        <ele>1713</ele>
        <time>2026-08-31T05:18:39.000Z</time>
        <extensions>
          <ns3:TrackPointExtension>
            <ns3:hr>141</ns3:hr>
            <ns3:cad>53</ns3:cad>
          </ns3:TrackPointExtension>
        </extensions>
      </trkpt>
      <trkpt lat="44.6716709621250629425048828125" lon="6.78329260088503360748291015625">
        <ele>1713.199951171875</ele>
        <time>2026-08-31T05:18:40.000Z</time>
        <extensions>
          <ns3:TrackPointExtension>
            <ns3:hr>141</ns3:hr>
            <ns3:cad>53</ns3:cad>
          </ns3:TrackPointExtension>
        </extensions>
      </trkpt>
      <trkpt lat="44.6716783381998538970947265625" lon="6.783298887312412261962890625">
        <ele>1713.4000244140625</ele>
        <time>2026-08-31T05:18:41.000Z</time>
        <extensions>
          <ns3:TrackPointExtension>
            <ns3:hr>140</ns3:hr>
            <ns3:cad>53</ns3:cad>
          </ns3:TrackPointExtension>
        </extensions>
      </trkpt>
      <trkpt lat="44.6716847084462642669677734375" lon="6.7833040840923786163330078125">
        <ele>1713.4000244140625</ele>
        <time>2026-08-31T05:18:42.000Z</time>
        <extensions>
          <ns3:TrackPointExtension>
            <ns3:hr>138</ns3:hr>
            <ns3:cad>52</ns3:cad>
          </ns3:TrackPointExtension>
        </extensions>
      </trkpt>
      <trkpt lat="44.67169200070202350616455078125" lon="6.78331037051975727081298828125">
        <ele>1713.5999755859375</ele>
        <time>2026-08-31T05:18:43.000Z</time>
        <extensions>
          <ns3:TrackPointExtension>
            <ns3:hr>134</ns3:hr>
            <ns3:cad>50</ns3:cad>
          </ns3:TrackPointExtension>
        </extensions>
      </trkpt>
      <trkpt lat="44.6716987900435924530029296875" lon="6.78332093171775341033935546875">
        <ele>1713.800048828125</ele>
        <time>2026-08-31T05:18:44.000Z</time>
        <extensions>
          <ns3:TrackPointExtension>
            <ns3:hr>131</ns3:hr>
            <ns3:cad>50</ns3:cad>
          </ns3:TrackPointExtension>
        </extensions>
      </trkpt>
      <trkpt lat="44.67170474119484424591064453125" lon="6.78332931362092494964599609375">
        <ele>1714</ele>
        <time>2026-08-31T05:18:45.000Z</time>
        <extensions>
          <ns3:TrackPointExtension>
            <ns3:hr>130</ns3:hr>
            <ns3:cad>50</ns3:cad>
          </ns3:TrackPointExtension>
        </extensions>
      </trkpt>
      <trkpt lat="44.6717108599841594696044921875" lon="6.78334021009504795074462890625">
        <ele>1714.199951171875</ele>
        <time>2026-08-31T05:18:46.000Z</time>
        <extensions>
          <ns3:TrackPointExtension>
            <ns3:hr>128</ns3:hr>
            <ns3:cad>49</ns3:cad>
          </ns3:TrackPointExtension>
        </extensions>
      </trkpt>
      <trkpt lat="44.671712033450603485107421875" lon="6.7833500169217586517333984375">
        <ele>1714.4000244140625</ele>
        <time>2026-08-31T05:18:47.000Z</time>
        <extensions>
          <ns3:TrackPointExtension>
            <ns3:hr>127</ns3:hr>
            <ns3:cad>0</ns3:cad>
          </ns3:TrackPointExtension>
        </extensions>
      </trkpt>
      <trkpt lat="44.67171865515410900115966796875" lon="6.78336359560489654541015625">
        <ele>1714.800048828125</ele>
        <time>2026-08-31T05:18:48.000Z</time>
        <extensions>
          <ns3:TrackPointExtension>
            <ns3:hr>126</ns3:hr>
            <ns3:cad>0</ns3:cad>
          </ns3:TrackPointExtension>
        </extensions>
      </trkpt>
      <trkpt lat="44.67172376811504364013671875" lon="6.783376671373844146728515625">
        <ele>1715</ele>
        <time>2026-08-31T05:18:49.000Z</time>
        <extensions>
          <ns3:TrackPointExtension>
            <ns3:hr>126</ns3:hr>
            <ns3:cad>0</ns3:cad>
          </ns3:TrackPointExtension>
        </extensions>
      </trkpt>
      <trkpt lat="44.67172938399016857147216796875" lon="6.783390082418918609619140625">
        <ele>1715.199951171875</ele>
        <time>2026-08-31T05:18:50.000Z</time>
        <extensions>
          <ns3:TrackPointExtension>
            <ns3:hr>126</ns3:hr>
            <ns3:cad>51</ns3:cad>
          </ns3:TrackPointExtension>
        </extensions>
      </trkpt>
      <trkpt lat="44.67173491604626178741455078125" lon="6.783400811254978179931640625">
        <ele>1715.4000244140625</ele>
        <time>2026-08-31T05:18:51.000Z</time>
        <extensions>
          <ns3:TrackPointExtension>
            <ns3:hr>125</ns3:hr>
            <ns3:cad>51</ns3:cad>
          </ns3:TrackPointExtension>
        </extensions>
      </trkpt>
      <trkpt lat="44.6717406995594501495361328125" lon="6.783407516777515411376953125">
        <ele>1715.800048828125</ele>
        <time>2026-08-31T05:18:52.000Z</time>
        <extensions>
          <ns3:TrackPointExtension>
            <ns3:hr>125</ns3:hr>
            <ns3:cad>51</ns3:cad>
          </ns3:TrackPointExtension>
        </extensions>
      </trkpt>
      <trkpt lat="44.67174832709133625030517578125" lon="6.783417575061321258544921875">
        <ele>1716</ele>
        <time>2026-08-31T05:18:53.000Z</time>
        <extensions>
          <ns3:TrackPointExtension>
            <ns3:hr>125</ns3:hr>
            <ns3:cad>53</ns3:cad>
          </ns3:TrackPointExtension>
        </extensions>
      </trkpt>
      <trkpt lat="44.67175620608031749725341796875" lon="6.78342872299253940582275390625">
        <ele>1716.199951171875</ele>
        <time>2026-08-31T05:18:54.000Z</time>
        <extensions>
          <ns3:TrackPointExtension>
            <ns3:hr>125</ns3:hr>
            <ns3:cad>53</ns3:cad>
          </ns3:TrackPointExtension>
        </extensions>
      </trkpt>
      <trkpt lat="44.671762324869632720947265625" lon="6.78343559615314006805419921875">
        <ele>1716.4000244140625</ele>
        <time>2026-08-31T05:18:55.000Z</time>
        <extensions>
          <ns3:TrackPointExtension>
            <ns3:hr>125</ns3:hr>
            <ns3:cad>53</ns3:cad>
          </ns3:TrackPointExtension>
        </extensions>
      </trkpt>
      <trkpt lat="44.67176978476345539093017578125" lon="6.7834452353417873382568359375">
        <ele>1716.5999755859375</ele>
        <time>2026-08-31T05:18:56.000Z</time>
        <extensions>
          <ns3:TrackPointExtension>
            <ns3:hr>125</ns3:hr>
            <ns3:cad>53</ns3:cad>
          </ns3:TrackPointExtension>
        </extensions>
      </trkpt>
      <trkpt lat="44.67177808284759521484375" lon="6.7834519408643245697021484375">
        <ele>1716.800048828125</ele>
        <time>2026-08-31T05:18:57.000Z</time>
        <extensions>
          <ns3:TrackPointExtension>
            <ns3:hr>126</ns3:hr>
            <ns3:cad>53</ns3:cad>
          </ns3:TrackPointExtension>
        </extensions>
      </trkpt>
      <trkpt lat="44.6717879734933376312255859375" lon="6.78346208296716213226318359375">
        <ele>1717</ele>
        <time>2026-08-31T05:18:58.000Z</time>
        <extensions>
          <ns3:TrackPointExtension>
            <ns3:hr>126</ns3:hr>
            <ns3:cad>52</ns3:cad>
          </ns3:TrackPointExtension>
        </extensions>
      </trkpt>
      <trkpt lat="44.67179484665393829345703125" lon="6.783469207584857940673828125">
        <ele>1717.199951171875</ele>
        <time>2026-08-31T05:18:59.000Z</time>
        <extensions>
          <ns3:TrackPointExtension>
            <ns3:hr>126</ns3:hr>
            <ns3:cad>52</ns3:cad>
          </ns3:TrackPointExtension>
        </extensions>
      </trkpt>
      <trkpt lat="44.67180280946195125579833984375" lon="6.78347733803093433380126953125">
        <ele>1717.4000244140625</ele>
        <time>2026-08-31T05:19:00.000Z</time>
        <extensions>
          <ns3:TrackPointExtension>
            <ns3:hr>127</ns3:hr>
            <ns3:cad>52</ns3:cad>
          </ns3:TrackPointExtension>
        </extensions>
      </trkpt>
      <trkpt lat="44.67181018553674221038818359375" lon="6.7834844626486301422119140625">
        <ele>1717.5999755859375</ele>
        <time>2026-08-31T05:19:01.000Z</time>
        <extensions>
          <ns3:TrackPointExtension>
            <ns3:hr>128</ns3:hr>
            <ns3:cad>52</ns3:cad>
          </ns3:TrackPointExtension>
        </extensions>
      </trkpt>
      <trkpt lat="44.6718171425163745880126953125" lon="6.78349058143794536590576171875">
        <ele>1717.800048828125</ele>
        <time>2026-08-31T05:19:02.000Z</time>
        <extensions>
          <ns3:TrackPointExtension>
            <ns3:hr>129</ns3:hr>
            <ns3:cad>52</ns3:cad>
          </ns3:TrackPointExtension>
        </extensions>
      </trkpt>
      <trkpt lat="44.67182326130568981170654296875" lon="6.7834975384175777435302734375">
        <ele>1718</ele>
        <time>2026-08-31T05:19:03.000Z</time>
        <extensions>
          <ns3:TrackPointExtension>
            <ns3:hr>130</ns3:hr>
            <ns3:cad>52</ns3:cad>
          </ns3:TrackPointExtension>
        </extensions>
      </trkpt>
      <trkpt lat="44.67183030210435390472412109375" lon="6.7835059203207492828369140625">
        <ele>1718.199951171875</ele>
        <time>2026-08-31T05:19:04.000Z</time>
        <extensions>
          <ns3:TrackPointExtension>
            <ns3:hr>131</ns3:hr>
            <ns3:cad>52</ns3:cad>
          </ns3:TrackPointExtension>
        </extensions>
      </trkpt>
      <trkpt lat="44.67183910310268402099609375" lon="6.78351472131907939910888671875">
        <ele>1718.4000244140625</ele>
        <time>2026-08-31T05:19:05.000Z</time>
        <extensions>
          <ns3:TrackPointExtension>
            <ns3:hr>131</ns3:hr>
            <ns3:cad>0</ns3:cad>
          </ns3:TrackPointExtension>
        </extensions>
      </trkpt>
      <trkpt lat="44.6718449704349040985107421875" lon="6.78352243266999721527099609375">
        <ele>1718.800048828125</ele>
        <time>2026-08-31T05:19:06.000Z</time>
        <extensions>
          <ns3:TrackPointExtension>
            <ns3:hr>132</ns3:hr>
            <ns3:cad>0</ns3:cad>
          </ns3:TrackPointExtension>
        </extensions>
      </trkpt>
      <trkpt lat="44.6718556992709636688232421875" lon="6.7835305631160736083984375">
        <ele>1719</ele>
        <time>2026-08-31T05:19:07.000Z</time>
        <extensions>
          <ns3:TrackPointExtension>
            <ns3:hr>133</ns3:hr>
            <ns3:cad>0</ns3:cad>
          </ns3:TrackPointExtension>
        </extensions>
      </trkpt>
      <trkpt lat="44.67186190187931060791015625" lon="6.7835377715528011322021484375">
        <ele>1719.199951171875</ele>
        <time>2026-08-31T05:19:08.000Z</time>
        <extensions>
          <ns3:TrackPointExtension>
            <ns3:hr>133</ns3:hr>
            <ns3:cad>0</ns3:cad>
          </ns3:TrackPointExtension>
        </extensions>
      </trkpt>
      <trkpt lat="44.67186835594475269317626953125" lon="6.78354439325630664825439453125">
        <ele>1719.5999755859375</ele>
        <time>2026-08-31T05:19:09.000Z</time>
        <extensions>
          <ns3:TrackPointExtension>
            <ns3:hr>134</ns3:hr>
            <ns3:cad>0</ns3:cad>
          </ns3:TrackPointExtension>
        </extensions>
      </trkpt>
      <trkpt lat="44.6718731336295604705810546875" lon="6.7835481651127338409423828125">
        <ele>1719.800048828125</ele>
        <time>2026-08-31T05:19:10.000Z</time>
        <extensions>
          <ns3:TrackPointExtension>
            <ns3:hr>135</ns3:hr>
            <ns3:cad>0</ns3:cad>
          </ns3:TrackPointExtension>
        </extensions>
      </trkpt>
      <trkpt lat="44.67188092879951000213623046875" lon="6.78355294279754161834716796875">
        <ele>1720</ele>
        <time>2026-08-31T05:19:11.000Z</time>
        <extensions>
          <ns3:TrackPointExtension>
            <ns3:hr>135</ns3:hr>
            <ns3:cad>0</ns3:cad>
          </ns3:TrackPointExtension>
        </extensions>
      </trkpt>
      <trkpt lat="44.67188931070268154144287109375" lon="6.78355671465396881103515625">
        <ele>1720.199951171875</ele>
        <time>2026-08-31T05:19:12.000Z</time>
        <extensions>
          <ns3:TrackPointExtension>
            <ns3:hr>136</ns3:hr>
            <ns3:cad>0</ns3:cad>
          </ns3:TrackPointExtension>
        </extensions>
      </trkpt>
      <trkpt lat="44.6718966029584407806396484375" lon="6.78356434218585491180419921875">
        <ele>1720.4000244140625</ele>
        <time>2026-08-31T05:19:13.000Z</time>
        <extensions>
          <ns3:TrackPointExtension>
            <ns3:hr>136</ns3:hr>
            <ns3:cad>0</ns3:cad>
          </ns3:TrackPointExtension>
        </extensions>
      </trkpt>
      <trkpt lat="44.67190674506127834320068359375" lon="6.783572472631931304931640625">
        <ele>1720.5999755859375</ele>
        <time>2026-08-31T05:19:14.000Z</time>
        <extensions>
          <ns3:TrackPointExtension>
            <ns3:hr>136</ns3:hr>
            <ns3:cad>0</ns3:cad>
          </ns3:TrackPointExtension>
        </extensions>
      </trkpt>
      <trkpt lat="44.67191495932638645172119140625" lon="6.7835842072963714599609375">
        <ele>1720.800048828125</ele>
        <time>2026-08-31T05:19:15.000Z</time>
        <extensions>
          <ns3:TrackPointExtension>
            <ns3:hr>137</ns3:hr>
            <ns3:cad>0</ns3:cad>
          </ns3:TrackPointExtension>
        </extensions>
      </trkpt>
      <trkpt lat="44.671923257410526275634765625" lon="6.78359384648501873016357421875">
        <ele>1721</ele>
        <time>2026-08-31T05:19:16.000Z</time>
        <extensions>
          <ns3:TrackPointExtension>
            <ns3:hr>137</ns3:hr>
            <ns3:cad>0</ns3:cad>
          </ns3:TrackPointExtension>
        </extensions>
      </trkpt>
      <trkpt lat="44.6719297952950000762939453125" lon="6.78360239602625370025634765625">
        <ele>1721</ele>
        <time>2026-08-31T05:19:17.000Z</time>
        <extensions>
          <ns3:TrackPointExtension>
            <ns3:hr>138</ns3:hr>
            <ns3:cad>0</ns3:cad>
          </ns3:TrackPointExtension>
        </extensions>
      </trkpt>
      <trkpt lat="44.67193893156945705413818359375" lon="6.783610023558139801025390625">
        <ele>1721.199951171875</ele>
        <time>2026-08-31T05:19:18.000Z</time>
        <extensions>
          <ns3:TrackPointExtension>
            <ns3:hr>138</ns3:hr>
            <ns3:cad>0</ns3:cad>
          </ns3:TrackPointExtension>
        </extensions>
      </trkpt>
      <trkpt lat="44.67194546945393085479736328125" lon="6.783616729080677032470703125">
        <ele>1721.4000244140625</ele>
        <time>2026-08-31T05:19:19.000Z</time>
        <extensions>
          <ns3:TrackPointExtension>
            <ns3:hr>139</ns3:hr>
            <ns3:cad>0</ns3:cad>
          </ns3:TrackPointExtension>
        </extensions>
      </trkpt>
      <trkpt lat="44.67195033095777034759521484375" lon="6.783629469573497772216796875">
        <ele>1721.800048828125</ele>
        <time>2026-08-31T05:19:20.000Z</time>
        <extensions>
          <ns3:TrackPointExtension>
            <ns3:hr>139</ns3:hr>
            <ns3:cad>0</ns3:cad>
          </ns3:TrackPointExtension>
        </extensions>
      </trkpt>
      <trkpt lat="44.6719556115567684173583984375" lon="6.78363642655313014984130859375">
        <ele>1722</ele>
        <time>2026-08-31T05:19:21.000Z</time>
        <extensions>
          <ns3:TrackPointExtension>
            <ns3:hr>139</ns3:hr>
            <ns3:cad>0</ns3:cad>
          </ns3:TrackPointExtension>
        </extensions>
      </trkpt>
      <trkpt lat="44.67196055687963962554931640625" lon="6.78364229388535022735595703125">
        <ele>1722.199951171875</ele>
        <time>2026-08-31T05:19:22.000Z</time>
        <extensions>
          <ns3:TrackPointExtension>
            <ns3:hr>139</ns3:hr>
            <ns3:cad>0</ns3:cad>
          </ns3:TrackPointExtension>
        </extensions>
      </trkpt>
      <trkpt lat="44.671970866620540618896484375" lon="6.7836500890552997589111328125">
        <ele>1722.199951171875</ele>
        <time>2026-08-31T05:19:23.000Z</time>
        <extensions>
          <ns3:TrackPointExtension>
            <ns3:hr>139</ns3:hr>
            <ns3:cad>0</ns3:cad>
          </ns3:TrackPointExtension>
        </extensions>
      </trkpt>
      <trkpt lat="44.671978913247585296630859375" lon="6.783656962215900421142578125">
        <ele>1722.4000244140625</ele>
        <time>2026-08-31T05:19:24.000Z</time>
        <extensions>
          <ns3:TrackPointExtension>
            <ns3:hr>140</ns3:hr>
            <ns3:cad>0</ns3:cad>
          </ns3:TrackPointExtension>
        </extensions>
      </trkpt>
      <trkpt lat="44.67198503203690052032470703125" lon="6.7836665175855159759521484375">
        <ele>1722.5999755859375</ele>
        <time>2026-08-31T05:19:25.000Z</time>
        <extensions>
          <ns3:TrackPointExtension>
            <ns3:hr>140</ns3:hr>
            <ns3:cad>52</ns3:cad>
          </ns3:TrackPointExtension>
        </extensions>
      </trkpt>
      <trkpt lat="44.6719886362552642822265625" lon="6.78367230109870433807373046875">
        <ele>1722.5999755859375</ele>
        <time>2026-08-31T05:19:26.000Z</time>
        <extensions>
          <ns3:TrackPointExtension>
            <ns3:hr>141</ns3:hr>
            <ns3:cad>52</ns3:cad>
          </ns3:TrackPointExtension>
        </extensions>
      </trkpt>
      <trkpt lat="44.67199374921619892120361328125" lon="6.78368001244962215423583984375">
        <ele>1722.800048828125</ele>
        <time>2026-08-31T05:19:27.000Z</time>
        <extensions>
          <ns3:TrackPointExtension>
            <ns3:hr>141</ns3:hr>
            <ns3:cad>52</ns3:cad>
          </ns3:TrackPointExtension>
        </extensions>
      </trkpt>
      <trkpt lat="44.67199995182454586029052734375" lon="6.783687137067317962646484375">
        <ele>1723</ele>
        <time>2026-08-31T05:19:28.000Z</time>
        <extensions>
          <ns3:TrackPointExtension>
            <ns3:hr>142</ns3:hr>
            <ns3:cad>0</ns3:cad>
          </ns3:TrackPointExtension>
        </extensions>
      </trkpt>
      <trkpt lat="44.67200783081352710723876953125" lon="6.78369292058050632476806640625">
        <ele>1723.199951171875</ele>
        <time>2026-08-31T05:19:29.000Z</time>
        <extensions>
          <ns3:TrackPointExtension>
            <ns3:hr>142</ns3:hr>
            <ns3:cad>0</ns3:cad>
          </ns3:TrackPointExtension>
        </extensions>
      </trkpt>
      <trkpt lat="44.67201554216444492340087890625" lon="6.7836973629891872406005859375">
        <ele>1723.4000244140625</ele>
        <time>2026-08-31T05:19:30.000Z</time>
        <extensions>
          <ns3:TrackPointExtension>
            <ns3:hr>143</ns3:hr>
            <ns3:cad>0</ns3:cad>
          </ns3:TrackPointExtension>
        </extensions>
      </trkpt>
      <trkpt lat="44.672023169696331024169921875" lon="6.78370180539786815643310546875">
        <ele>1723.4000244140625</ele>
        <time>2026-08-31T05:19:31.000Z</time>
        <extensions>
          <ns3:TrackPointExtension>
            <ns3:hr>144</ns3:hr>
            <ns3:cad>0</ns3:cad>
          </ns3:TrackPointExtension>
        </extensions>
      </trkpt>
      <trkpt lat="44.6720360778272151947021484375" lon="6.783708594739437103271484375">
        <ele>1723.5999755859375</ele>
        <time>2026-08-31T05:19:32.000Z</time>
        <extensions>
          <ns3:TrackPointExtension>
            <ns3:hr>144</ns3:hr>
            <ns3:cad>0</ns3:cad>
          </ns3:TrackPointExtension>
        </extensions>
      </trkpt>
      <trkpt lat="44.67204554937779903411865234375" lon="6.783713959157466888427734375">
        <ele>1723.5999755859375</ele>
        <time>2026-08-31T05:19:33.000Z</time>
        <extensions>
          <ns3:TrackPointExtension>
            <ns3:hr>144</ns3:hr>
            <ns3:cad>0</ns3:cad>
          </ns3:TrackPointExtension>
        </extensions>
      </trkpt>
      <trkpt lat="44.672052673995494842529296875" lon="6.7837198264896869659423828125">
        <ele>1723.800048828125</ele>
        <time>2026-08-31T05:19:34.000Z</time>
        <extensions>
          <ns3:TrackPointExtension>
            <ns3:hr>144</ns3:hr>
            <ns3:cad>0</ns3:cad>
          </ns3:TrackPointExtension>
        </extensions>
      </trkpt>
      <trkpt lat="44.67206046916544437408447265625" lon="6.78372644819319248199462890625">
        <ele>1724.199951171875</ele>
        <time>2026-08-31T05:19:35.000Z</time>
        <extensions>
          <ns3:TrackPointExtension>
            <ns3:hr>144</ns3:hr>
            <ns3:cad>0</ns3:cad>
          </ns3:TrackPointExtension>
        </extensions>
      </trkpt>
      <trkpt lat="44.67206717468798160552978515625" lon="6.78373097442090511322021484375">
        <ele>1724.4000244140625</ele>
        <time>2026-08-31T05:19:36.000Z</time>
        <extensions>
          <ns3:TrackPointExtension>
            <ns3:hr>145</ns3:hr>
            <ns3:cad>51</ns3:cad>
          </ns3:TrackPointExtension>
        </extensions>
      </trkpt>
      <trkpt lat="44.67207924462854862213134765625" lon="6.783734746277332305908203125">
        <ele>1724.5999755859375</ele>
        <time>2026-08-31T05:19:37.000Z</time>
        <extensions>
          <ns3:TrackPointExtension>
            <ns3:hr>145</ns3:hr>
            <ns3:cad>51</ns3:cad>
          </ns3:TrackPointExtension>
        </extensions>
      </trkpt>
      <trkpt lat="44.67208812944591045379638671875" lon="6.7837406136095523834228515625">
        <ele>1724.800048828125</ele>
        <time>2026-08-31T05:19:38.000Z</time>
        <extensions>
          <ns3:TrackPointExtension>
            <ns3:hr>145</ns3:hr>
            <ns3:cad>51</ns3:cad>
          </ns3:TrackPointExtension>
        </extensions>
      </trkpt>
      <trkpt lat="44.67210170812904834747314453125" lon="6.7837489955127239227294921875">
        <ele>1725</ele>
        <time>2026-08-31T05:19:39.000Z</time>
        <extensions>
          <ns3:TrackPointExtension>
            <ns3:hr>145</ns3:hr>
            <ns3:cad>0</ns3:cad>
          </ns3:TrackPointExtension>
        </extensions>
      </trkpt>
      <trkpt lat="44.67211134731769561767578125" lon="6.78375394083559513092041015625">
        <ele>1725.4000244140625</ele>
        <time>2026-08-31T05:19:40.000Z</time>
        <extensions>
          <ns3:TrackPointExtension>
            <ns3:hr>145</ns3:hr>
            <ns3:cad>0</ns3:cad>
          </ns3:TrackPointExtension>
        </extensions>
      </trkpt>
      <trkpt lat="44.67211964540183544158935546875" lon="6.7837573774158954620361328125">
        <ele>1725.5999755859375</ele>
        <time>2026-08-31T05:19:41.000Z</time>
        <extensions>
          <ns3:TrackPointExtension>
            <ns3:hr>146</ns3:hr>
            <ns3:cad>0</ns3:cad>
          </ns3:TrackPointExtension>
        </extensions>
      </trkpt>
      <trkpt lat="44.6721289493143558502197265625" lon="6.78375997580587863922119140625">
        <ele>1725.800048828125</ele>
        <time>2026-08-31T05:19:42.000Z</time>
        <extensions>
          <ns3:TrackPointExtension>
            <ns3:hr>146</ns3:hr>
            <ns3:cad>0</ns3:cad>
          </ns3:TrackPointExtension>
        </extensions>
      </trkpt>
      <trkpt lat="44.6721336431801319122314453125" lon="6.7837607301771640777587890625">
        <ele>1726</ele>
        <time>2026-08-31T05:19:43.000Z</time>
        <extensions>
          <ns3:TrackPointExtension>
            <ns3:hr>146</ns3:hr>
            <ns3:cad>0</ns3:cad>
          </ns3:TrackPointExtension>
        </extensions>
      </trkpt>
      <trkpt lat="44.67214462347328662872314453125" lon="6.78376249037683010101318359375">
        <ele>1726.199951171875</ele>
        <time>2026-08-31T05:19:44.000Z</time>
        <extensions>
          <ns3:TrackPointExtension>
            <ns3:hr>146</ns3:hr>
            <ns3:cad>0</ns3:cad>
          </ns3:TrackPointExtension>
        </extensions>
      </trkpt>
      <trkpt lat="44.6721524186432361602783203125" lon="6.78376466967165470123291015625">
        <ele>1726.199951171875</ele>
        <time>2026-08-31T05:19:45.000Z</time>
        <extensions>
          <ns3:TrackPointExtension>
            <ns3:hr>146</ns3:hr>
            <ns3:cad>0</ns3:cad>
          </ns3:TrackPointExtension>
        </extensions>
      </trkpt>
      <trkpt lat="44.6721631474792957305908203125" lon="6.7837687768042087554931640625">
        <ele>1726.4000244140625</ele>
        <time>2026-08-31T05:19:46.000Z</time>
        <extensions>
          <ns3:TrackPointExtension>
            <ns3:hr>146</ns3:hr>
            <ns3:cad>0</ns3:cad>
          </ns3:TrackPointExtension>
        </extensions>
      </trkpt>
      <trkpt lat="44.672172032296657562255859375" lon="6.7837717942893505096435546875">
        <ele>1726.5999755859375</ele>
        <time>2026-08-31T05:19:47.000Z</time>
        <extensions>
          <ns3:TrackPointExtension>
            <ns3:hr>146</ns3:hr>
            <ns3:cad>0</ns3:cad>
          </ns3:TrackPointExtension>
        </extensions>
      </trkpt>
      <trkpt lat="44.6721842698752880096435546875" lon="6.7837746441364288330078125">
        <ele>1726.800048828125</ele>
        <time>2026-08-31T05:19:48.000Z</time>
        <extensions>
          <ns3:TrackPointExtension>
            <ns3:hr>146</ns3:hr>
            <ns3:cad>0</ns3:cad>
          </ns3:TrackPointExtension>
        </extensions>
      </trkpt>
      <trkpt lat="44.6721936576068401336669921875" lon="6.7837746441364288330078125">
        <ele>1727</ele>
        <time>2026-08-31T05:19:49.000Z</time>
        <extensions>
          <ns3:TrackPointExtension>
            <ns3:hr>146</ns3:hr>
            <ns3:cad>0</ns3:cad>
          </ns3:TrackPointExtension>
        </extensions>
      </trkpt>
      <trkpt lat="44.67219851911067962646484375" lon="6.78377397358417510986328125">
        <ele>1727.4000244140625</ele>
        <time>2026-08-31T05:19:50.000Z</time>
        <extensions>
          <ns3:TrackPointExtension>
            <ns3:hr>146</ns3:hr>
            <ns3:cad>0</ns3:cad>
          </ns3:TrackPointExtension>
        </extensions>
      </trkpt>
      <trkpt lat="44.67221067287027835845947265625" lon="6.7837795056402683258056640625">
        <ele>1727.5999755859375</ele>
        <time>2026-08-31T05:19:51.000Z</time>
        <extensions>
          <ns3:TrackPointExtension>
            <ns3:hr>146</ns3:hr>
            <ns3:cad>0</ns3:cad>
          </ns3:TrackPointExtension>
        </extensions>
      </trkpt>
      <trkpt lat="44.67221469618380069732666015625" lon="6.783780343830585479736328125">
        <ele>1727.800048828125</ele>
        <time>2026-08-31T05:19:52.000Z</time>
        <extensions>
          <ns3:TrackPointExtension>
            <ns3:hr>146</ns3:hr>
            <ns3:cad>0</ns3:cad>
          </ns3:TrackPointExtension>
        </extensions>
      </trkpt>
      <trkpt lat="44.6722238324582576751708984375" lon="6.783785037696361541748046875">
        <ele>1728</ele>
        <time>2026-08-31T05:19:53.000Z</time>
        <extensions>
          <ns3:TrackPointExtension>
            <ns3:hr>146</ns3:hr>
            <ns3:cad>0</ns3:cad>
          </ns3:TrackPointExtension>
        </extensions>
      </trkpt>
      <trkpt lat="44.67223095707595348358154296875" lon="6.783792413771152496337890625">
        <ele>1728</ele>
        <time>2026-08-31T05:19:54.000Z</time>
        <extensions>
          <ns3:TrackPointExtension>
            <ns3:hr>146</ns3:hr>
            <ns3:cad>0</ns3:cad>
          </ns3:TrackPointExtension>
        </extensions>
      </trkpt>
      <trkpt lat="44.672243781387805938720703125" lon="6.78379953838884830474853515625">
        <ele>1728.199951171875</ele>
        <time>2026-08-31T05:19:55.000Z</time>
        <extensions>
          <ns3:TrackPointExtension>
            <ns3:hr>146</ns3:hr>
            <ns3:cad>0</ns3:cad>
          </ns3:TrackPointExtension>
        </extensions>
      </trkpt>
      <trkpt lat="44.672253839671611785888671875" lon="6.7838033102452754974365234375">
        <ele>1728.199951171875</ele>
        <time>2026-08-31T05:19:56.000Z</time>
        <extensions>
          <ns3:TrackPointExtension>
            <ns3:hr>146</ns3:hr>
            <ns3:cad>0</ns3:cad>
          </ns3:TrackPointExtension>
        </extensions>
      </trkpt>
      <trkpt lat="44.672268591821193695068359375" lon="6.78381110541522502899169921875">
        <ele>1728.4000244140625</ele>
        <time>2026-08-31T05:19:57.000Z</time>
        <extensions>
          <ns3:TrackPointExtension>
            <ns3:hr>147</ns3:hr>
            <ns3:cad>0</ns3:cad>
          </ns3:TrackPointExtension>
        </extensions>
      </trkpt>
      <trkpt lat="44.672275297343730926513671875" lon="6.783817224204540252685546875">
        <ele>1728.4000244140625</ele>
        <time>2026-08-31T05:19:58.000Z</time>
        <extensions>
          <ns3:TrackPointExtension>
            <ns3:hr>146</ns3:hr>
            <ns3:cad>0</ns3:cad>
          </ns3:TrackPointExtension>
        </extensions>
      </trkpt>
      <trkpt lat="44.6722818352282047271728515625" lon="6.7838271148502826690673828125">
        <ele>1728.5999755859375</ele>
        <time>2026-08-31T05:19:59.000Z</time>
        <extensions>
          <ns3:TrackPointExtension>
            <ns3:hr>147</ns3:hr>
            <ns3:cad>0</ns3:cad>
          </ns3:TrackPointExtension>
        </extensions>
      </trkpt>
      <trkpt lat="44.67229147441685199737548828125" lon="6.7838344909250736236572265625">
        <ele>1728.5999755859375</ele>
        <time>2026-08-31T05:20:00.000Z</time>
        <extensions>
          <ns3:TrackPointExtension>
            <ns3:hr>147</ns3:hr>
            <ns3:cad>0</ns3:cad>
          </ns3:TrackPointExtension>
        </extensions>
      </trkpt>
      <trkpt lat="44.672300778329372406005859375" lon="6.7838375084102153778076171875">
        <ele>1728.800048828125</ele>
        <time>2026-08-31T05:20:01.000Z</time>
        <extensions>
          <ns3:TrackPointExtension>
            <ns3:hr>147</ns3:hr>
            <ns3:cad>0</ns3:cad>
          </ns3:TrackPointExtension>
        </extensions>
      </trkpt>
      <trkpt lat="44.672314189374446868896484375" lon="6.7838411964476108551025390625">
        <ele>1728.800048828125</ele>
        <time>2026-08-31T05:20:02.000Z</time>
        <extensions>
          <ns3:TrackPointExtension>
            <ns3:hr>147</ns3:hr>
            <ns3:cad>53</ns3:cad>
          </ns3:TrackPointExtension>
        </extensions>
      </trkpt>
      <trkpt lat="44.67231896705925464630126953125" lon="6.78384329192340373992919921875">
        <ele>1729</ele>
        <time>2026-08-31T05:20:03.000Z</time>
        <extensions>
          <ns3:TrackPointExtension>
            <ns3:hr>147</ns3:hr>
            <ns3:cad>53</ns3:cad>
          </ns3:TrackPointExtension>
        </extensions>
      </trkpt>
      <trkpt lat="44.67232860624790191650390625" lon="6.78384681232273578643798828125">
        <ele>1729.199951171875</ele>
        <time>2026-08-31T05:20:04.000Z</time>
        <extensions>
          <ns3:TrackPointExtension>
            <ns3:hr>147</ns3:hr>
            <ns3:cad>53</ns3:cad>
          </ns3:TrackPointExtension>
        </extensions>
      </trkpt>
      <trkpt lat="44.67233598232269287109375" lon="6.783855445683002471923828125">
        <ele>1729.4000244140625</ele>
        <time>2026-08-31T05:20:05.000Z</time>
        <extensions>
          <ns3:TrackPointExtension>
            <ns3:hr>147</ns3:hr>
            <ns3:cad>53</ns3:cad>
          </ns3:TrackPointExtension>
        </extensions>
      </trkpt>
      <trkpt lat="44.67234746553003787994384765625" lon="6.78386156447231769561767578125">
        <ele>1729.5999755859375</ele>
        <time>2026-08-31T05:20:06.000Z</time>
        <extensions>
          <ns3:TrackPointExtension>
            <ns3:hr>146</ns3:hr>
            <ns3:cad>55</ns3:cad>
          </ns3:TrackPointExtension>
        </extensions>
      </trkpt>
      <trkpt lat="44.6723579429090023040771484375" lon="6.78386910818517208099365234375">
        <ele>1729.5999755859375</ele>
        <time>2026-08-31T05:20:07.000Z</time>
        <extensions>
          <ns3:TrackPointExtension>
            <ns3:hr>147</ns3:hr>
            <ns3:cad>55</ns3:cad>
          </ns3:TrackPointExtension>
        </extensions>
      </trkpt>
      <trkpt lat="44.67237143777310848236083984375" lon="6.78387631662189960479736328125">
        <ele>1729.800048828125</ele>
        <time>2026-08-31T05:20:08.000Z</time>
        <extensions>
          <ns3:TrackPointExtension>
            <ns3:hr>147</ns3:hr>
            <ns3:cad>0</ns3:cad>
          </ns3:TrackPointExtension>
        </extensions>
      </trkpt>
      <trkpt lat="44.67238334007561206817626953125" lon="6.7838807590305805206298828125">
        <ele>1730</ele>
        <time>2026-08-31T05:20:09.000Z</time>
        <extensions>
          <ns3:TrackPointExtension>
            <ns3:hr>147</ns3:hr>
            <ns3:cad>0</ns3:cad>
          </ns3:TrackPointExtension>
        </extensions>
      </trkpt>
      <trkpt lat="44.6723909676074981689453125" lon="6.78388335742056369781494140625">
        <ele>1730.199951171875</ele>
        <time>2026-08-31T05:20:10.000Z</time>
        <extensions>
          <ns3:TrackPointExtension>
            <ns3:hr>146</ns3:hr>
            <ns3:cad>0</ns3:cad>
          </ns3:TrackPointExtension>
        </extensions>
      </trkpt>
      <trkpt lat="44.67239859513938426971435546875" lon="6.78388302214443683624267578125">
        <ele>1730.4000244140625</ele>
        <time>2026-08-31T05:20:11.000Z</time>
        <extensions>
          <ns3:TrackPointExtension>
            <ns3:hr>146</ns3:hr>
            <ns3:cad>0</ns3:cad>
          </ns3:TrackPointExtension>
        </extensions>
      </trkpt>
      <trkpt lat="44.6724048815667629241943359375" lon="6.7838819324970245361328125">
        <ele>1730.5999755859375</ele>
        <time>2026-08-31T05:20:12.000Z</time>
        <extensions>
          <ns3:TrackPointExtension>
            <ns3:hr>146</ns3:hr>
            <ns3:cad>54</ns3:cad>
          </ns3:TrackPointExtension>
        </extensions>
      </trkpt>
      <trkpt lat="44.6724152751266956329345703125" lon="6.7838827706873416900634765625">
        <ele>1730.5999755859375</ele>
        <time>2026-08-31T05:20:13.000Z</time>
        <extensions>
          <ns3:TrackPointExtension>
            <ns3:hr>146</ns3:hr>
            <ns3:cad>54</ns3:cad>
          </ns3:TrackPointExtension>
        </extensions>
      </trkpt>
      <trkpt lat="44.67242407612502574920654296875" lon="6.78388662636280059814453125">
        <ele>1730.800048828125</ele>
        <time>2026-08-31T05:20:14.000Z</time>
        <extensions>
          <ns3:TrackPointExtension>
            <ns3:hr>145</ns3:hr>
            <ns3:cad>54</ns3:cad>
          </ns3:TrackPointExtension>
        </extensions>
      </trkpt>
      <trkpt lat="44.6724370680749416351318359375" lon="6.78389333188533782958984375">
        <ele>1731</ele>
        <time>2026-08-31T05:20:15.000Z</time>
        <extensions>
          <ns3:TrackPointExtension>
            <ns3:hr>145</ns3:hr>
            <ns3:cad>54</ns3:cad>
          </ns3:TrackPointExtension>
        </extensions>
      </trkpt>
      <trkpt lat="44.67244419269263744354248046875" lon="6.78390263579785823822021484375">
        <ele>1731</ele>
        <time>2026-08-31T05:20:16.000Z</time>
        <extensions>
          <ns3:TrackPointExtension>
            <ns3:hr>145</ns3:hr>
            <ns3:cad>54</ns3:cad>
          </ns3:TrackPointExtension>
        </extensions>
      </trkpt>
      <trkpt lat="44.6724508143961429595947265625" lon="6.78392015397548675537109375">
        <ele>1731.199951171875</ele>
        <time>2026-08-31T05:20:17.000Z</time>
        <extensions>
          <ns3:TrackPointExtension>
            <ns3:hr>145</ns3:hr>
            <ns3:cad>0</ns3:cad>
          </ns3:TrackPointExtension>
        </extensions>
      </trkpt>
      <trkpt lat="44.6724568493664264678955078125" lon="6.78393482230603694915771484375">
        <ele>1731.4000244140625</ele>
        <time>2026-08-31T05:20:18.000Z</time>
        <extensions>
          <ns3:TrackPointExtension>
            <ns3:hr>145</ns3:hr>
            <ns3:cad>0</ns3:cad>
          </ns3:TrackPointExtension>
        </extensions>
      </trkpt>
      <trkpt lat="44.6724618785083293914794921875" lon="6.78394907154142856597900390625">
        <ele>1731.4000244140625</ele>
        <time>2026-08-31T05:20:19.000Z</time>
        <extensions>
          <ns3:TrackPointExtension>
            <ns3:hr>144</ns3:hr>
            <ns3:cad>0</ns3:cad>
          </ns3:TrackPointExtension>
        </extensions>
      </trkpt>
      <trkpt lat="44.67246313579380512237548828125" lon="6.783969439566135406494140625">
        <ele>1731.5999755859375</ele>
        <time>2026-08-31T05:20:20.000Z</time>
        <extensions>
          <ns3:TrackPointExtension>
            <ns3:hr>144</ns3:hr>
            <ns3:cad>0</ns3:cad>
          </ns3:TrackPointExtension>
        </extensions>
      </trkpt>
      <trkpt lat="44.67246514745056629180908203125" lon="6.78398846648633480072021484375">
        <ele>1731.800048828125</ele>
        <time>2026-08-31T05:20:21.000Z</time>
        <extensions>
          <ns3:TrackPointExtension>
            <ns3:hr>144</ns3:hr>
            <ns3:cad>0</ns3:cad>
          </ns3:TrackPointExtension>
        </extensions>
      </trkpt>
      <trkpt lat="44.672469086945056915283203125" lon="6.784006990492343902587890625">
        <ele>1732</ele>
        <time>2026-08-31T05:20:22.000Z</time>
        <extensions>
          <ns3:TrackPointExtension>
            <ns3:hr>145</ns3:hr>
            <ns3:cad>0</ns3:cad>
          </ns3:TrackPointExtension>
        </extensions>
      </trkpt>
      <trkpt lat="44.67247168533504009246826171875" lon="6.78402082063257694244384765625">
        <ele>1732</ele>
        <time>2026-08-31T05:20:23.000Z</time>
        <extensions>
          <ns3:TrackPointExtension>
            <ns3:hr>144</ns3:hr>
            <ns3:cad>0</ns3:cad>
          </ns3:TrackPointExtension>
        </extensions>
      </trkpt>
      <trkpt lat="44.67247772030532360076904296875" lon="6.7840346507728099822998046875">
        <ele>1732.199951171875</ele>
        <time>2026-08-31T05:20:24.000Z</time>
        <extensions>
          <ns3:TrackPointExtension>
            <ns3:hr>145</ns3:hr>
            <ns3:cad>0</ns3:cad>
          </ns3:TrackPointExtension>
        </extensions>
      </trkpt>
      <trkpt lat="44.6724799834191799163818359375" lon="6.7840437032282352447509765625">
        <ele>1732.4000244140625</ele>
        <time>2026-08-31T05:20:25.000Z</time>
        <extensions>
          <ns3:TrackPointExtension>
            <ns3:hr>146</ns3:hr>
            <ns3:cad>0</ns3:cad>
          </ns3:TrackPointExtension>
        </extensions>
      </trkpt>
      <trkpt lat="44.6724823303520679473876953125" lon="6.78406088612973690032958984375">
        <ele>1732.5999755859375</ele>
        <time>2026-08-31T05:20:26.000Z</time>
        <extensions>
          <ns3:TrackPointExtension>
            <ns3:hr>146</ns3:hr>
            <ns3:cad>0</ns3:cad>
          </ns3:TrackPointExtension>
        </extensions>
      </trkpt>
      <trkpt lat="44.6724796481430530548095703125" lon="6.784074045717716217041015625">
        <ele>1732.800048828125</ele>
        <time>2026-08-31T05:20:27.000Z</time>
        <extensions>
          <ns3:TrackPointExtension>
            <ns3:hr>146</ns3:hr>
            <ns3:cad>0</ns3:cad>
          </ns3:TrackPointExtension>
        </extensions>
      </trkpt>
      <trkpt lat="44.6724850125610828399658203125" lon="6.78408645093441009521484375">
        <ele>1733</ele>
        <time>2026-08-31T05:20:28.000Z</time>
        <extensions>
          <ns3:TrackPointExtension>
            <ns3:hr>147</ns3:hr>
            <ns3:cad>0</ns3:cad>
          </ns3:TrackPointExtension>
        </extensions>
      </trkpt>
      <trkpt lat="44.67248819768428802490234375" lon="6.78410212509334087371826171875">
        <ele>1733.199951171875</ele>
        <time>2026-08-31T05:20:29.000Z</time>
        <extensions>
          <ns3:TrackPointExtension>
            <ns3:hr>148</ns3:hr>
            <ns3:cad>0</ns3:cad>
          </ns3:TrackPointExtension>
        </extensions>
      </trkpt>
      <trkpt lat="44.6724928915500640869140625" lon="6.78411788307130336761474609375">
        <ele>1733.4000244140625</ele>
        <time>2026-08-31T05:20:30.000Z</time>
        <extensions>
          <ns3:TrackPointExtension>
            <ns3:hr>149</ns3:hr>
            <ns3:cad>0</ns3:cad>
          </ns3:TrackPointExtension>
        </extensions>
      </trkpt>
      <trkpt lat="44.67249599285423755645751953125" lon="6.78413179703056812286376953125">
        <ele>1733.5999755859375</ele>
        <time>2026-08-31T05:20:31.000Z</time>
        <extensions>
          <ns3:TrackPointExtension>
            <ns3:hr>150</ns3:hr>
            <ns3:cad>0</ns3:cad>
          </ns3:TrackPointExtension>
        </extensions>
      </trkpt>
      <trkpt lat="44.67250001616775989532470703125" lon="6.784142442047595977783203125">
        <ele>1733.800048828125</ele>
        <time>2026-08-31T05:20:32.000Z</time>
        <extensions>
          <ns3:TrackPointExtension>
            <ns3:hr>150</ns3:hr>
            <ns3:cad>0</ns3:cad>
          </ns3:TrackPointExtension>
        </extensions>
      </trkpt>
      <trkpt lat="44.67250387184321880340576171875" lon="6.78415157832205295562744140625">
        <ele>1733.800048828125</ele>
        <time>2026-08-31T05:20:33.000Z</time>
        <extensions>
          <ns3:TrackPointExtension>
            <ns3:hr>150</ns3:hr>
            <ns3:cad>0</ns3:cad>
          </ns3:TrackPointExtension>
        </extensions>
      </trkpt>
      <trkpt lat="44.67250705696642398834228515625" lon="6.78415845148265361785888671875">
        <ele>1734</ele>
        <time>2026-08-31T05:20:34.000Z</time>
        <extensions>
          <ns3:TrackPointExtension>
            <ns3:hr>150</ns3:hr>
            <ns3:cad>0</ns3:cad>
          </ns3:TrackPointExtension>
        </extensions>
      </trkpt>
      <trkpt lat="44.6725151874125003814697265625" lon="6.7841711081564426422119140625">
        <ele>1734.199951171875</ele>
        <time>2026-08-31T05:20:35.000Z</time>
        <extensions>
          <ns3:TrackPointExtension>
            <ns3:hr>151</ns3:hr>
            <ns3:cad>0</ns3:cad>
          </ns3:TrackPointExtension>
        </extensions>
      </trkpt>
      <trkpt lat="44.67252130620181560516357421875" lon="6.78418024443089962005615234375">
        <ele>1734.4000244140625</ele>
        <time>2026-08-31T05:20:36.000Z</time>
        <extensions>
          <ns3:TrackPointExtension>
            <ns3:hr>151</ns3:hr>
            <ns3:cad>0</ns3:cad>
          </ns3:TrackPointExtension>
        </extensions>
      </trkpt>
      <trkpt lat="44.67253153212368488311767578125" lon="6.78418778814375400543212890625">
        <ele>1734.5999755859375</ele>
        <time>2026-08-31T05:20:37.000Z</time>
        <extensions>
          <ns3:TrackPointExtension>
            <ns3:hr>152</ns3:hr>
            <ns3:cad>0</ns3:cad>
          </ns3:TrackPointExtension>
        </extensions>
      </trkpt>
      <trkpt lat="44.672534130513668060302734375" lon="6.7841908894479274749755859375">
        <ele>1735</ele>
        <time>2026-08-31T05:20:38.000Z</time>
        <extensions>
          <ns3:TrackPointExtension>
            <ns3:hr>153</ns3:hr>
            <ns3:cad>0</ns3:cad>
          </ns3:TrackPointExtension>
        </extensions>
      </trkpt>
      <trkpt lat="44.6725443564355373382568359375" lon="6.78419231437146663665771484375">
        <ele>1735.199951171875</ele>
        <time>2026-08-31T05:20:39.000Z</time>
        <extensions>
          <ns3:TrackPointExtension>
            <ns3:hr>154</ns3:hr>
            <ns3:cad>0</ns3:cad>
          </ns3:TrackPointExtension>
        </extensions>
      </trkpt>
      <trkpt lat="44.67255257070064544677734375" lon="6.78419399075210094451904296875">
        <ele>1735.4000244140625</ele>
        <time>2026-08-31T05:20:40.000Z</time>
        <extensions>
          <ns3:TrackPointExtension>
            <ns3:hr>154</ns3:hr>
            <ns3:cad>0</ns3:cad>
          </ns3:TrackPointExtension>
        </extensions>
      </trkpt>
      <trkpt lat="44.67256472446024417877197265625" lon="6.78419767878949642181396484375">
        <ele>1735.5999755859375</ele>
        <time>2026-08-31T05:20:41.000Z</time>
        <extensions>
          <ns3:TrackPointExtension>
            <ns3:hr>154</ns3:hr>
            <ns3:cad>0</ns3:cad>
          </ns3:TrackPointExtension>
        </extensions>
      </trkpt>
      <trkpt lat="44.6725748665630817413330078125" lon="6.78420186974108219146728515625">
        <ele>1735.5999755859375</ele>
        <time>2026-08-31T05:20:42.000Z</time>
        <extensions>
          <ns3:TrackPointExtension>
            <ns3:hr>154</ns3:hr>
            <ns3:cad>0</ns3:cad>
          </ns3:TrackPointExtension>
        </extensions>
      </trkpt>
      <trkpt lat="44.672589115798473358154296875" lon="6.7842069827020168304443359375">
        <ele>1735.800048828125</ele>
        <time>2026-08-31T05:20:43.000Z</time>
        <extensions>
          <ns3:TrackPointExtension>
            <ns3:hr>154</ns3:hr>
            <ns3:cad>0</ns3:cad>
          </ns3:TrackPointExtension>
        </extensions>
      </trkpt>
      <trkpt lat="44.672598503530025482177734375" lon="6.784210838377475738525390625">
        <ele>1736</ele>
        <time>2026-08-31T05:20:44.000Z</time>
        <extensions>
          <ns3:TrackPointExtension>
            <ns3:hr>154</ns3:hr>
            <ns3:cad>0</ns3:cad>
          </ns3:TrackPointExtension>
        </extensions>
      </trkpt>
      <trkpt lat="44.67260948382318019866943359375" lon="6.7842160351574420928955078125">
        <ele>1736</ele>
        <time>2026-08-31T05:20:45.000Z</time>
        <extensions>
          <ns3:TrackPointExtension>
            <ns3:hr>154</ns3:hr>
            <ns3:cad>0</ns3:cad>
          </ns3:TrackPointExtension>
        </extensions>
      </trkpt>
      <trkpt lat="44.67262272723019123077392578125" lon="6.7842250876128673553466796875">
        <ele>1736.199951171875</ele>
        <time>2026-08-31T05:20:46.000Z</time>
        <extensions>
          <ns3:TrackPointExtension>
            <ns3:hr>154</ns3:hr>
            <ns3:cad>0</ns3:cad>
          </ns3:TrackPointExtension>
        </extensions>
      </trkpt>
      <trkpt lat="44.672632031142711639404296875" lon="6.7842351458966732025146484375">
        <ele>1736.199951171875</ele>
        <time>2026-08-31T05:20:47.000Z</time>
        <extensions>
          <ns3:TrackPointExtension>
            <ns3:hr>154</ns3:hr>
            <ns3:cad>0</ns3:cad>
          </ns3:TrackPointExtension>
        </extensions>
      </trkpt>
      <trkpt lat="44.67264116741716861724853515625" lon="6.784244365990161895751953125">
        <ele>1736.4000244140625</ele>
        <time>2026-08-31T05:20:48.000Z</time>
        <extensions>
          <ns3:TrackPointExtension>
            <ns3:hr>154</ns3:hr>
            <ns3:cad>0</ns3:cad>
          </ns3:TrackPointExtension>
        </extensions>
      </trkpt>
      <trkpt lat="44.67265047132968902587890625" lon="6.78425082005560398101806640625">
        <ele>1736.4000244140625</ele>
        <time>2026-08-31T05:20:49.000Z</time>
        <extensions>
          <ns3:TrackPointExtension>
            <ns3:hr>154</ns3:hr>
            <ns3:cad>0</ns3:cad>
          </ns3:TrackPointExtension>
        </extensions>
      </trkpt>
      <trkpt lat="44.67266044579446315765380859375" lon="6.78426154889166355133056640625">
        <ele>1736.4000244140625</ele>
        <time>2026-08-31T05:20:50.000Z</time>
        <extensions>
          <ns3:TrackPointExtension>
            <ns3:hr>154</ns3:hr>
            <ns3:cad>0</ns3:cad>
          </ns3:TrackPointExtension>
        </extensions>
      </trkpt>
      <trkpt lat="44.67266882769763469696044921875" lon="6.784270517528057098388671875">
        <ele>1736.5999755859375</ele>
        <time>2026-08-31T05:20:51.000Z</time>
        <extensions>
          <ns3:TrackPointExtension>
            <ns3:hr>154</ns3:hr>
            <ns3:cad>0</ns3:cad>
          </ns3:TrackPointExtension>
        </extensions>
      </trkpt>
      <trkpt lat="44.672682322561740875244140625" lon="6.78427898325026035308837890625">
        <ele>1736.5999755859375</ele>
        <time>2026-08-31T05:20:52.000Z</time>
        <extensions>
          <ns3:TrackPointExtension>
            <ns3:hr>155</ns3:hr>
            <ns3:cad>0</ns3:cad>
          </ns3:TrackPointExtension>
        </extensions>
      </trkpt>
      <trkpt lat="44.6726952306926250457763671875" lon="6.78429038263857364654541015625">
        <ele>1736.5999755859375</ele>
        <time>2026-08-31T05:20:53.000Z</time>
        <extensions>
          <ns3:TrackPointExtension>
            <ns3:hr>155</ns3:hr>
            <ns3:cad>0</ns3:cad>
          </ns3:TrackPointExtension>
        </extensions>
      </trkpt>
      <trkpt lat="44.67270704917609691619873046875" lon="6.78430915810167789459228515625">
        <ele>1736.5999755859375</ele>
        <time>2026-08-31T05:20:54.000Z</time>
        <extensions>
          <ns3:TrackPointExtension>
            <ns3:hr>155</ns3:hr>
            <ns3:cad>0</ns3:cad>
          </ns3:TrackPointExtension>
        </extensions>
      </trkpt>
      <trkpt lat="44.672711826860904693603515625" lon="6.78432893939316272735595703125">
        <ele>1736.5999755859375</ele>
        <time>2026-08-31T05:20:55.000Z</time>
        <extensions>
          <ns3:TrackPointExtension>
            <ns3:hr>155</ns3:hr>
            <ns3:cad>0</ns3:cad>
          </ns3:TrackPointExtension>
        </extensions>
      </trkpt>
      <trkpt lat="44.6727153472602367401123046875" lon="6.7843467928469181060791015625">
        <ele>1736.5999755859375</ele>
        <time>2026-08-31T05:20:56.000Z</time>
        <extensions>
          <ns3:TrackPointExtension>
            <ns3:hr>155</ns3:hr>
            <ns3:cad>0</ns3:cad>
          </ns3:TrackPointExtension>
        </extensions>
      </trkpt>
      <trkpt lat="44.67271794565021991729736328125" lon="6.7843642272055149078369140625">
        <ele>1736.5999755859375</ele>
        <time>2026-08-31T05:20:57.000Z</time>
        <extensions>
          <ns3:TrackPointExtension>
            <ns3:hr>155</ns3:hr>
            <ns3:cad>0</ns3:cad>
          </ns3:TrackPointExtension>
        </extensions>
      </trkpt>
      <trkpt lat="44.67271593399345874786376953125" lon="6.78437805734574794769287109375">
        <ele>1736.800048828125</ele>
        <time>2026-08-31T05:20:58.000Z</time>
        <extensions>
          <ns3:TrackPointExtension>
            <ns3:hr>154</ns3:hr>
            <ns3:cad>0</ns3:cad>
          </ns3:TrackPointExtension>
        </extensions>
      </trkpt>
      <trkpt lat="44.67271895147860050201416015625" lon="6.78439297713339328765869140625">
        <ele>1736.800048828125</ele>
        <time>2026-08-31T05:20:59.000Z</time>
        <extensions>
          <ns3:TrackPointExtension>
            <ns3:hr>153</ns3:hr>
            <ns3:cad>0</ns3:cad>
          </ns3:TrackPointExtension>
        </extensions>
      </trkpt>
      <trkpt lat="44.672720544040203094482421875" lon="6.784412674605846405029296875">
        <ele>1737</ele>
        <time>2026-08-31T05:21:00.000Z</time>
        <extensions>
          <ns3:TrackPointExtension>
            <ns3:hr>152</ns3:hr>
            <ns3:cad>0</ns3:cad>
          </ns3:TrackPointExtension>
        </extensions>
      </trkpt>
      <trkpt lat="44.6727233938872814178466796875" lon="6.7844275943934917449951171875">
        <ele>1737.199951171875</ele>
        <time>2026-08-31T05:21:01.000Z</time>
        <extensions>
          <ns3:TrackPointExtension>
            <ns3:hr>150</ns3:hr>
            <ns3:cad>0</ns3:cad>
          </ns3:TrackPointExtension>
        </extensions>
      </trkpt>
      <trkpt lat="44.67272247187793254852294921875" lon="6.78444813005626201629638671875">
        <ele>1737.199951171875</ele>
        <time>2026-08-31T05:21:02.000Z</time>
        <extensions>
          <ns3:TrackPointExtension>
            <ns3:hr>149</ns3:hr>
            <ns3:cad>0</ns3:cad>
          </ns3:TrackPointExtension>
        </extensions>
      </trkpt>
      <trkpt lat="44.6727233938872814178466796875" lon="6.78446405567228794097900390625">
        <ele>1737.199951171875</ele>
        <time>2026-08-31T05:21:03.000Z</time>
        <extensions>
          <ns3:TrackPointExtension>
            <ns3:hr>148</ns3:hr>
            <ns3:cad>0</ns3:cad>
          </ns3:TrackPointExtension>
        </extensions>
      </trkpt>
      <trkpt lat="44.67272414825856685638427734375" lon="6.78448249585926532745361328125">
        <ele>1737.4000244140625</ele>
        <time>2026-08-31T05:21:04.000Z</time>
        <extensions>
          <ns3:TrackPointExtension>
            <ns3:hr>148</ns3:hr>
            <ns3:cad>0</ns3:cad>
          </ns3:TrackPointExtension>
        </extensions>
      </trkpt>
      <trkpt lat="44.67272331006824970245361328125" lon="6.78449951112270355224609375">
        <ele>1737.4000244140625</ele>
        <time>2026-08-31T05:21:05.000Z</time>
        <extensions>
          <ns3:TrackPointExtension>
            <ns3:hr>148</ns3:hr>
            <ns3:cad>0</ns3:cad>
          </ns3:TrackPointExtension>
        </extensions>
      </trkpt>
      <trkpt lat="44.6727254055440425872802734375" lon="6.78452021442353725433349609375">
        <ele>1737.4000244140625</ele>
        <time>2026-08-31T05:21:06.000Z</time>
        <extensions>
          <ns3:TrackPointExtension>
            <ns3:hr>148</ns3:hr>
            <ns3:cad>0</ns3:cad>
          </ns3:TrackPointExtension>
        </extensions>
      </trkpt>
      <trkpt lat="44.67272733338177204132080078125" lon="6.784537397325038909912109375">
        <ele>1737.5999755859375</ele>
        <time>2026-08-31T05:21:07.000Z</time>
        <extensions>
          <ns3:TrackPointExtension>
            <ns3:hr>148</ns3:hr>
            <ns3:cad>0</ns3:cad>
          </ns3:TrackPointExtension>
        </extensions>
      </trkpt>
      <trkpt lat="44.67272615991532802581787109375" lon="6.78455592133104801177978515625">
        <ele>1737.800048828125</ele>
        <time>2026-08-31T05:21:08.000Z</time>
        <extensions>
          <ns3:TrackPointExtension>
            <ns3:hr>148</ns3:hr>
            <ns3:cad>0</ns3:cad>
          </ns3:TrackPointExtension>
        </extensions>
      </trkpt>
      <trkpt lat="44.67272532172501087188720703125" lon="6.78457335568964481353759765625">
        <ele>1737.800048828125</ele>
        <time>2026-08-31T05:21:09.000Z</time>
        <extensions>
          <ns3:TrackPointExtension>
            <ns3:hr>148</ns3:hr>
            <ns3:cad>0</ns3:cad>
          </ns3:TrackPointExtension>
        </extensions>
      </trkpt>
      <trkpt lat="44.67272515408694744110107421875" lon="6.7845908738672733306884765625">
        <ele>1738</ele>
        <time>2026-08-31T05:21:10.000Z</time>
        <extensions>
          <ns3:TrackPointExtension>
            <ns3:hr>148</ns3:hr>
            <ns3:cad>0</ns3:cad>
          </ns3:TrackPointExtension>
        </extensions>
      </trkpt>
      <trkpt lat="44.67272716574370861053466796875" lon="6.7846088111400604248046875">
        <ele>1738.199951171875</ele>
        <time>2026-08-31T05:21:11.000Z</time>
        <extensions>
          <ns3:TrackPointExtension>
            <ns3:hr>148</ns3:hr>
            <ns3:cad>0</ns3:cad>
          </ns3:TrackPointExtension>
        </extensions>
      </trkpt>
      <trkpt lat="44.6727284230291843414306640625" lon="6.7846195399761199951171875">
        <ele>1738.199951171875</ele>
        <time>2026-08-31T05:21:12.000Z</time>
        <extensions>
          <ns3:TrackPointExtension>
            <ns3:hr>148</ns3:hr>
            <ns3:cad>0</ns3:cad>
          </ns3:TrackPointExtension>
        </extensions>
      </trkpt>
      <trkpt lat="44.67273102141916751861572265625" lon="6.78463638760149478912353515625">
        <ele>1738.4000244140625</ele>
        <time>2026-08-31T05:21:13.000Z</time>
        <extensions>
          <ns3:TrackPointExtension>
            <ns3:hr>148</ns3:hr>
            <ns3:cad>0</ns3:cad>
          </ns3:TrackPointExtension>
        </extensions>
      </trkpt>
      <trkpt lat="44.672734625637531280517578125" lon="6.7846431769430637359619140625">
        <ele>1738.5999755859375</ele>
        <time>2026-08-31T05:21:14.000Z</time>
        <extensions>
          <ns3:TrackPointExtension>
            <ns3:hr>148</ns3:hr>
            <ns3:cad>56</ns3:cad>
          </ns3:TrackPointExtension>
        </extensions>
      </trkpt>
      <trkpt lat="44.67273839749395847320556640625" lon="6.78466052748262882232666015625">
        <ele>1738.800048828125</ele>
        <time>2026-08-31T05:21:15.000Z</time>
        <extensions>
          <ns3:TrackPointExtension>
            <ns3:hr>149</ns3:hr>
            <ns3:cad>56</ns3:cad>
          </ns3:TrackPointExtension>
        </extensions>
      </trkpt>
      <trkpt lat="44.6727414987981319427490234375" lon="6.7846758663654327392578125">
        <ele>1738.800048828125</ele>
        <time>2026-08-31T05:21:16.000Z</time>
        <extensions>
          <ns3:TrackPointExtension>
            <ns3:hr>150</ns3:hr>
            <ns3:cad>56</ns3:cad>
          </ns3:TrackPointExtension>
        </extensions>
      </trkpt>
      <trkpt lat="44.67274493537843227386474609375" lon="6.7846887744963169097900390625">
        <ele>1739</ele>
        <time>2026-08-31T05:21:17.000Z</time>
        <extensions>
          <ns3:TrackPointExtension>
            <ns3:hr>150</ns3:hr>
            <ns3:cad>54</ns3:cad>
          </ns3:TrackPointExtension>
        </extensions>
      </trkpt>
      <trkpt lat="44.67274761758744716644287109375" lon="6.7847025208175182342529296875">
        <ele>1739.199951171875</ele>
        <time>2026-08-31T05:21:18.000Z</time>
        <extensions>
          <ns3:TrackPointExtension>
            <ns3:hr>149</ns3:hr>
            <ns3:cad>54</ns3:cad>
          </ns3:TrackPointExtension>
        </extensions>
      </trkpt>
      <trkpt lat="44.67275197617709636688232421875" lon="6.7847145907580852508544921875">
        <ele>1739.4000244140625</ele>
        <time>2026-08-31T05:21:19.000Z</time>
        <extensions>
          <ns3:TrackPointExtension>
            <ns3:hr>150</ns3:hr>
            <ns3:cad>54</ns3:cad>
          </ns3:TrackPointExtension>
        </extensions>
      </trkpt>
      <trkpt lat="44.67275784350931644439697265625" lon="6.78472758270800113677978515625">
        <ele>1739.5999755859375</ele>
        <time>2026-08-31T05:21:20.000Z</time>
        <extensions>
          <ns3:TrackPointExtension>
            <ns3:hr>150</ns3:hr>
            <ns3:cad>54</ns3:cad>
          </ns3:TrackPointExtension>
        </extensions>
      </trkpt>
      <trkpt lat="44.67276270501315593719482421875" lon="6.784739233553409576416015625">
        <ele>1739.5999755859375</ele>
        <time>2026-08-31T05:21:21.000Z</time>
        <extensions>
          <ns3:TrackPointExtension>
            <ns3:hr>151</ns3:hr>
            <ns3:cad>0</ns3:cad>
          </ns3:TrackPointExtension>
        </extensions>
      </trkpt>
      <trkpt lat="44.67276941053569316864013671875" lon="6.78475189022719860076904296875">
        <ele>1739.800048828125</ele>
        <time>2026-08-31T05:21:22.000Z</time>
        <extensions>
          <ns3:TrackPointExtension>
            <ns3:hr>151</ns3:hr>
            <ns3:cad>0</ns3:cad>
          </ns3:TrackPointExtension>
        </extensions>
      </trkpt>
      <trkpt lat="44.67277519404888153076171875" lon="6.784766055643558502197265625">
        <ele>1740</ele>
        <time>2026-08-31T05:21:23.000Z</time>
        <extensions>
          <ns3:TrackPointExtension>
            <ns3:hr>151</ns3:hr>
            <ns3:cad>0</ns3:cad>
          </ns3:TrackPointExtension>
        </extensions>
      </trkpt>
      <trkpt lat="44.672780223190784454345703125" lon="6.78478172980248928070068359375">
        <ele>1740.199951171875</ele>
        <time>2026-08-31T05:21:24.000Z</time>
        <extensions>
          <ns3:TrackPointExtension>
            <ns3:hr>150</ns3:hr>
            <ns3:cad>0</ns3:cad>
          </ns3:TrackPointExtension>
        </extensions>
      </trkpt>
      <trkpt lat="44.672784917056560516357421875" lon="6.7847943864762783050537109375">
        <ele>1740.4000244140625</ele>
        <time>2026-08-31T05:21:25.000Z</time>
        <extensions>
          <ns3:TrackPointExtension>
            <ns3:hr>150</ns3:hr>
            <ns3:cad>0</ns3:cad>
          </ns3:TrackPointExtension>
        </extensions>
      </trkpt>
      <trkpt lat="44.672789610922336578369140625" lon="6.784806959331035614013671875">
        <ele>1740.5999755859375</ele>
        <time>2026-08-31T05:21:26.000Z</time>
        <extensions>
          <ns3:TrackPointExtension>
            <ns3:hr>150</ns3:hr>
            <ns3:cad>54</ns3:cad>
          </ns3:TrackPointExtension>
        </extensions>
      </trkpt>
      <trkpt lat="44.67279405333101749420166015625" lon="6.78481877781450748443603515625">
        <ele>1740.5999755859375</ele>
        <time>2026-08-31T05:21:27.000Z</time>
        <extensions>
          <ns3:TrackPointExtension>
            <ns3:hr>150</ns3:hr>
            <ns3:cad>54</ns3:cad>
          </ns3:TrackPointExtension>
        </extensions>
      </trkpt>
      <trkpt lat="44.67279874719679355621337890625" lon="6.7848285846412181854248046875">
        <ele>1740.800048828125</ele>
        <time>2026-08-31T05:21:28.000Z</time>
        <extensions>
          <ns3:TrackPointExtension>
            <ns3:hr>151</ns3:hr>
            <ns3:cad>54</ns3:cad>
          </ns3:TrackPointExtension>
        </extensions>
      </trkpt>
      <trkpt lat="44.67280243523418903350830078125" lon="6.78483805619180202484130859375">
        <ele>1741</ele>
        <time>2026-08-31T05:21:29.000Z</time>
        <extensions>
          <ns3:TrackPointExtension>
            <ns3:hr>151</ns3:hr>
            <ns3:cad>54</ns3:cad>
          </ns3:TrackPointExtension>
        </extensions>
      </trkpt>
      <trkpt lat="44.6728075481951236724853515625" lon="6.78485079668462276458740234375">
        <ele>1741.199951171875</ele>
        <time>2026-08-31T05:21:30.000Z</time>
        <extensions>
          <ns3:TrackPointExtension>
            <ns3:hr>150</ns3:hr>
            <ns3:cad>54</ns3:cad>
          </ns3:TrackPointExtension>
        </extensions>
      </trkpt>
      <trkpt lat="44.672813080251216888427734375" lon="6.78486764430999755859375">
        <ele>1741.4000244140625</ele>
        <time>2026-08-31T05:21:31.000Z</time>
        <extensions>
          <ns3:TrackPointExtension>
            <ns3:hr>150</ns3:hr>
            <ns3:cad>54</ns3:cad>
          </ns3:TrackPointExtension>
        </extensions>
      </trkpt>
      <trkpt lat="44.672816433012485504150390625" lon="6.78488298319280147552490234375">
        <ele>1741.5999755859375</ele>
        <time>2026-08-31T05:21:32.000Z</time>
        <extensions>
          <ns3:TrackPointExtension>
            <ns3:hr>150</ns3:hr>
            <ns3:cad>54</ns3:cad>
          </ns3:TrackPointExtension>
        </extensions>
      </trkpt>
      <trkpt lat="44.6728206239640712738037109375" lon="6.78489656187593936920166015625">
        <ele>1741.800048828125</ele>
        <time>2026-08-31T05:21:33.000Z</time>
        <extensions>
          <ns3:TrackPointExtension>
            <ns3:hr>150</ns3:hr>
            <ns3:cad>51</ns3:cad>
          </ns3:TrackPointExtension>
        </extensions>
      </trkpt>
      <trkpt lat="44.6728223003447055816650390625" lon="6.784910894930362701416015625">
        <ele>1742</ele>
        <time>2026-08-31T05:21:34.000Z</time>
        <extensions>
          <ns3:TrackPointExtension>
            <ns3:hr>149</ns3:hr>
            <ns3:cad>51</ns3:cad>
          </ns3:TrackPointExtension>
        </extensions>
      </trkpt>
      <trkpt lat="44.67282674275338649749755859375" lon="6.7849251441657543182373046875">
        <ele>1742.199951171875</ele>
        <time>2026-08-31T05:21:35.000Z</time>
        <extensions>
          <ns3:TrackPointExtension>
            <ns3:hr>149</ns3:hr>
            <ns3:cad>51</ns3:cad>
          </ns3:TrackPointExtension>
        </extensions>
      </trkpt>
      <trkpt lat="44.67283110134303569793701171875" lon="6.78493780083954334259033203125">
        <ele>1742.199951171875</ele>
        <time>2026-08-31T05:21:36.000Z</time>
        <extensions>
          <ns3:TrackPointExtension>
            <ns3:hr>149</ns3:hr>
            <ns3:cad>0</ns3:cad>
          </ns3:TrackPointExtension>
        </extensions>
      </trkpt>
      <trkpt lat="44.672837890684604644775390625" lon="6.7849489487707614898681640625">
        <ele>1742.4000244140625</ele>
        <time>2026-08-31T05:21:37.000Z</time>
        <extensions>
          <ns3:TrackPointExtension>
            <ns3:hr>148</ns3:hr>
            <ns3:cad>0</ns3:cad>
          </ns3:TrackPointExtension>
        </extensions>
      </trkpt>
      <trkpt lat="44.6728437580168247222900390625" lon="6.78496177308261394500732421875">
        <ele>1742.5999755859375</ele>
        <time>2026-08-31T05:21:38.000Z</time>
        <extensions>
          <ns3:TrackPointExtension>
            <ns3:hr>147</ns3:hr>
            <ns3:cad>0</ns3:cad>
          </ns3:TrackPointExtension>
        </extensions>
      </trkpt>
      <trkpt lat="44.67285339720547199249267578125" lon="6.78497317247092723846435546875">
        <ele>1742.5999755859375</ele>
        <time>2026-08-31T05:21:39.000Z</time>
        <extensions>
          <ns3:TrackPointExtension>
            <ns3:hr>147</ns3:hr>
            <ns3:cad>0</ns3:cad>
          </ns3:TrackPointExtension>
        </extensions>
      </trkpt>
      <trkpt lat="44.672860689461231231689453125" lon="6.78498926572501659393310546875">
        <ele>1742.800048828125</ele>
        <time>2026-08-31T05:21:40.000Z</time>
        <extensions>
          <ns3:TrackPointExtension>
            <ns3:hr>146</ns3:hr>
            <ns3:cad>0</ns3:cad>
          </ns3:TrackPointExtension>
        </extensions>
      </trkpt>
      <trkpt lat="44.67286580242216587066650390625" lon="6.7850004136562347412109375">
        <ele>1743</ele>
        <time>2026-08-31T05:21:41.000Z</time>
        <extensions>
          <ns3:TrackPointExtension>
            <ns3:hr>145</ns3:hr>
            <ns3:cad>0</ns3:cad>
          </ns3:TrackPointExtension>
        </extensions>
      </trkpt>
      <trkpt lat="44.67287066392600536346435546875" lon="6.7850106395781040191650390625">
        <ele>1743.199951171875</ele>
        <time>2026-08-31T05:21:42.000Z</time>
        <extensions>
          <ns3:TrackPointExtension>
            <ns3:hr>145</ns3:hr>
            <ns3:cad>0</ns3:cad>
          </ns3:TrackPointExtension>
        </extensions>
      </trkpt>
      <trkpt lat="44.67287502251565456390380859375" lon="6.78502212278544902801513671875">
        <ele>1743.4000244140625</ele>
        <time>2026-08-31T05:21:43.000Z</time>
        <extensions>
          <ns3:TrackPointExtension>
            <ns3:hr>144</ns3:hr>
            <ns3:cad>0</ns3:cad>
          </ns3:TrackPointExtension>
        </extensions>
      </trkpt>
      <trkpt lat="44.6728803031146526336669921875" lon="6.7850326001644134521484375">
        <ele>1743.4000244140625</ele>
        <time>2026-08-31T05:21:44.000Z</time>
        <extensions>
          <ns3:TrackPointExtension>
            <ns3:hr>144</ns3:hr>
            <ns3:cad>0</ns3:cad>
          </ns3:TrackPointExtension>
        </extensions>
      </trkpt>
      <trkpt lat="44.67288373969495296478271484375" lon="6.78504592739045619964599609375">
        <ele>1743.5999755859375</ele>
        <time>2026-08-31T05:21:45.000Z</time>
        <extensions>
          <ns3:TrackPointExtension>
            <ns3:hr>144</ns3:hr>
            <ns3:cad>0</ns3:cad>
          </ns3:TrackPointExtension>
        </extensions>
      </trkpt>
      <trkpt lat="44.672892205417156219482421875" lon="6.78505313582718372344970703125">
        <ele>1743.800048828125</ele>
        <time>2026-08-31T05:21:46.000Z</time>
        <extensions>
          <ns3:TrackPointExtension>
            <ns3:hr>143</ns3:hr>
            <ns3:cad>0</ns3:cad>
          </ns3:TrackPointExtension>
        </extensions>
      </trkpt>
      <trkpt lat="44.672900922596454620361328125" lon="6.78506637923419475555419921875">
        <ele>1744</ele>
        <time>2026-08-31T05:21:47.000Z</time>
        <extensions>
          <ns3:TrackPointExtension>
            <ns3:hr>142</ns3:hr>
            <ns3:cad>0</ns3:cad>
          </ns3:TrackPointExtension>
        </extensions>
      </trkpt>
      <trkpt lat="44.67290670610964298248291015625" lon="6.78507744334638118743896484375">
        <ele>1744</ele>
        <time>2026-08-31T05:21:48.000Z</time>
        <extensions>
          <ns3:TrackPointExtension>
            <ns3:hr>142</ns3:hr>
            <ns3:cad>0</ns3:cad>
          </ns3:TrackPointExtension>
        </extensions>
      </trkpt>
      <trkpt lat="44.67291458509862422943115234375" lon="6.78508867509663105010986328125">
        <ele>1744.199951171875</ele>
        <time>2026-08-31T05:21:49.000Z</time>
        <extensions>
          <ns3:TrackPointExtension>
            <ns3:hr>142</ns3:hr>
            <ns3:cad>0</ns3:cad>
          </ns3:TrackPointExtension>
        </extensions>
      </trkpt>
      <trkpt lat="44.67292196117341518402099609375" lon="6.78509973920881748199462890625">
        <ele>1744.4000244140625</ele>
        <time>2026-08-31T05:21:50.000Z</time>
        <extensions>
          <ns3:TrackPointExtension>
            <ns3:hr>141</ns3:hr>
            <ns3:cad>54</ns3:cad>
          </ns3:TrackPointExtension>
        </extensions>
      </trkpt>
      <trkpt lat="44.67292581684887409210205078125" lon="6.78510996513068675994873046875">
        <ele>1744.5999755859375</ele>
        <time>2026-08-31T05:21:51.000Z</time>
        <extensions>
          <ns3:TrackPointExtension>
            <ns3:hr>141</ns3:hr>
            <ns3:cad>54</ns3:cad>
          </ns3:TrackPointExtension>
        </extensions>
      </trkpt>
      <trkpt lat="44.67293185181915760040283203125" lon="6.7851226218044757843017578125">
        <ele>1744.800048828125</ele>
        <time>2026-08-31T05:21:52.000Z</time>
        <extensions>
          <ns3:TrackPointExtension>
            <ns3:hr>141</ns3:hr>
            <ns3:cad>54</ns3:cad>
          </ns3:TrackPointExtension>
        </extensions>
      </trkpt>
      <trkpt lat="44.67293570749461650848388671875" lon="6.78513611666858196258544921875">
        <ele>1745</ele>
        <time>2026-08-31T05:21:53.000Z</time>
        <extensions>
          <ns3:TrackPointExtension>
            <ns3:hr>142</ns3:hr>
            <ns3:cad>54</ns3:cad>
          </ns3:TrackPointExtension>
        </extensions>
      </trkpt>
      <trkpt lat="44.67294023372232913970947265625" lon="6.7851479351520538330078125">
        <ele>1745.199951171875</ele>
        <time>2026-08-31T05:21:54.000Z</time>
        <extensions>
          <ns3:TrackPointExtension>
            <ns3:hr>142</ns3:hr>
            <ns3:cad>54</ns3:cad>
          </ns3:TrackPointExtension>
        </extensions>
      </trkpt>
      <trkpt lat="44.6729463525116443634033203125" lon="6.78515874780714511871337890625">
        <ele>1745.4000244140625</ele>
        <time>2026-08-31T05:21:55.000Z</time>
        <extensions>
          <ns3:TrackPointExtension>
            <ns3:hr>142</ns3:hr>
            <ns3:cad>0</ns3:cad>
          </ns3:TrackPointExtension>
        </extensions>
      </trkpt>
      <trkpt lat="44.67295213602483272552490234375" lon="6.78517199121415615081787109375">
        <ele>1745.5999755859375</ele>
        <time>2026-08-31T05:21:56.000Z</time>
        <extensions>
          <ns3:TrackPointExtension>
            <ns3:hr>142</ns3:hr>
            <ns3:cad>0</ns3:cad>
          </ns3:TrackPointExtension>
        </extensions>
      </trkpt>
      <trkpt lat="44.67295825481414794921875" lon="6.78518087603151798248291015625">
        <ele>1745.800048828125</ele>
        <time>2026-08-31T05:21:57.000Z</time>
        <extensions>
          <ns3:TrackPointExtension>
            <ns3:hr>141</ns3:hr>
            <ns3:cad>0</ns3:cad>
          </ns3:TrackPointExtension>
        </extensions>
      </trkpt>
      <trkpt lat="44.6729647926986217498779296875" lon="6.78519361652433872222900390625">
        <ele>1746</ele>
        <time>2026-08-31T05:21:58.000Z</time>
        <extensions>
          <ns3:TrackPointExtension>
            <ns3:hr>142</ns3:hr>
            <ns3:cad>0</ns3:cad>
          </ns3:TrackPointExtension>
        </extensions>
      </trkpt>
      <trkpt lat="44.67297309078276157379150390625" lon="6.78520493209362030029296875">
        <ele>1746.199951171875</ele>
        <time>2026-08-31T05:21:59.000Z</time>
        <extensions>
          <ns3:TrackPointExtension>
            <ns3:hr>142</ns3:hr>
            <ns3:cad>51</ns3:cad>
          </ns3:TrackPointExtension>
        </extensions>
      </trkpt>
      <trkpt lat="44.67297770082950592041015625" lon="6.7852148227393627166748046875">
        <ele>1746.4000244140625</ele>
        <time>2026-08-31T05:22:00.000Z</time>
        <extensions>
          <ns3:TrackPointExtension>
            <ns3:hr>142</ns3:hr>
            <ns3:cad>51</ns3:cad>
          </ns3:TrackPointExtension>
        </extensions>
      </trkpt>
      <trkpt lat="44.672984741628170013427734375" lon="6.785224042832851409912109375">
        <ele>1746.5999755859375</ele>
        <time>2026-08-31T05:22:01.000Z</time>
        <extensions>
          <ns3:TrackPointExtension>
            <ns3:hr>141</ns3:hr>
            <ns3:cad>51</ns3:cad>
          </ns3:TrackPointExtension>
        </extensions>
      </trkpt>
      <trkpt lat="44.67298834584653377532958984375" lon="6.78523468784987926483154296875">
        <ele>1747</ele>
        <time>2026-08-31T05:22:02.000Z</time>
        <extensions>
          <ns3:TrackPointExtension>
            <ns3:hr>141</ns3:hr>
            <ns3:cad>51</ns3:cad>
          </ns3:TrackPointExtension>
        </extensions>
      </trkpt>
      <trkpt lat="44.6729916147887706756591796875" lon="6.78524382412433624267578125">
        <ele>1747.199951171875</ele>
        <time>2026-08-31T05:22:03.000Z</time>
        <extensions>
          <ns3:TrackPointExtension>
            <ns3:hr>141</ns3:hr>
            <ns3:cad>51</ns3:cad>
          </ns3:TrackPointExtension>
        </extensions>
      </trkpt>
      <trkpt lat="44.6729963086545467376708984375" lon="6.785254217684268951416015625">
        <ele>1747.4000244140625</ele>
        <time>2026-08-31T05:22:04.000Z</time>
        <extensions>
          <ns3:TrackPointExtension>
            <ns3:hr>141</ns3:hr>
            <ns3:cad>51</ns3:cad>
          </ns3:TrackPointExtension>
        </extensions>
      </trkpt>
      <trkpt lat="44.6730010025203227996826171875" lon="6.78526419214904308319091796875">
        <ele>1747.4000244140625</ele>
        <time>2026-08-31T05:22:05.000Z</time>
        <extensions>
          <ns3:TrackPointExtension>
            <ns3:hr>142</ns3:hr>
            <ns3:cad>51</ns3:cad>
          </ns3:TrackPointExtension>
        </extensions>
      </trkpt>
      <trkpt lat="44.6730100549757480621337890625" lon="6.78527198731899261474609375">
        <ele>1747.5999755859375</ele>
        <time>2026-08-31T05:22:06.000Z</time>
        <extensions>
          <ns3:TrackPointExtension>
            <ns3:hr>142</ns3:hr>
            <ns3:cad>51</ns3:cad>
          </ns3:TrackPointExtension>
        </extensions>
      </trkpt>
      <trkpt lat="44.67301667667925357818603515625" lon="6.7852812074124813079833984375">
        <ele>1747.800048828125</ele>
        <time>2026-08-31T05:22:07.000Z</time>
        <extensions>
          <ns3:TrackPointExtension>
            <ns3:hr>142</ns3:hr>
            <ns3:cad>51</ns3:cad>
          </ns3:TrackPointExtension>
        </extensions>
      </trkpt>
      <trkpt lat="44.6730231307446956634521484375" lon="6.7852899245917797088623046875">
        <ele>1748</ele>
        <time>2026-08-31T05:22:08.000Z</time>
        <extensions>
          <ns3:TrackPointExtension>
            <ns3:hr>142</ns3:hr>
            <ns3:cad>51</ns3:cad>
          </ns3:TrackPointExtension>
        </extensions>
      </trkpt>
      <trkpt lat="44.67302237637341022491455078125" lon="6.78530124016106128692626953125">
        <ele>1748.199951171875</ele>
        <time>2026-08-31T05:22:09.000Z</time>
        <extensions>
          <ns3:TrackPointExtension>
            <ns3:hr>142</ns3:hr>
            <ns3:cad>51</ns3:cad>
          </ns3:TrackPointExtension>
        </extensions>
      </trkpt>
      <trkpt lat="44.67302723787724971771240234375" lon="6.785317249596118927001953125">
        <ele>1748.4000244140625</ele>
        <time>2026-08-31T05:22:10.000Z</time>
        <extensions>
          <ns3:TrackPointExtension>
            <ns3:hr>142</ns3:hr>
            <ns3:cad>51</ns3:cad>
          </ns3:TrackPointExtension>
        </extensions>
      </trkpt>
      <trkpt lat="44.67303193174302577972412109375" lon="6.7853284813463687896728515625">
        <ele>1748.5999755859375</ele>
        <time>2026-08-31T05:22:11.000Z</time>
        <extensions>
          <ns3:TrackPointExtension>
            <ns3:hr>142</ns3:hr>
            <ns3:cad>0</ns3:cad>
          </ns3:TrackPointExtension>
        </extensions>
      </trkpt>
      <trkpt lat="44.67303696088492870330810546875" lon="6.78534013219177722930908203125">
        <ele>1748.800048828125</ele>
        <time>2026-08-31T05:22:12.000Z</time>
        <extensions>
          <ns3:TrackPointExtension>
            <ns3:hr>143</ns3:hr>
            <ns3:cad>0</ns3:cad>
          </ns3:TrackPointExtension>
        </extensions>
      </trkpt>
      <trkpt lat="44.67304073274135589599609375" lon="6.7853506095707416534423828125">
        <ele>1749</ele>
        <time>2026-08-31T05:22:13.000Z</time>
        <extensions>
          <ns3:TrackPointExtension>
            <ns3:hr>144</ns3:hr>
            <ns3:cad>0</ns3:cad>
          </ns3:TrackPointExtension>
        </extensions>
      </trkpt>
      <trkpt lat="44.67304416932165622711181640625" lon="6.7853630147874355316162109375">
        <ele>1749.199951171875</ele>
        <time>2026-08-31T05:22:14.000Z</time>
        <extensions>
          <ns3:TrackPointExtension>
            <ns3:hr>146</ns3:hr>
            <ns3:cad>0</ns3:cad>
          </ns3:TrackPointExtension>
        </extensions>
      </trkpt>
      <trkpt lat="44.67304601334035396575927734375" lon="6.785374246537685394287109375">
        <ele>1749.199951171875</ele>
        <time>2026-08-31T05:22:15.000Z</time>
        <extensions>
          <ns3:TrackPointExtension>
            <ns3:hr>149</ns3:hr>
            <ns3:cad>0</ns3:cad>
          </ns3:TrackPointExtension>
        </extensions>
      </trkpt>
      <trkpt lat="44.67304668389260768890380859375" lon="6.785384975373744964599609375">
        <ele>1749.4000244140625</ele>
        <time>2026-08-31T05:22:16.000Z</time>
        <extensions>
          <ns3:TrackPointExtension>
            <ns3:hr>151</ns3:hr>
            <ns3:cad>0</ns3:cad>
          </ns3:TrackPointExtension>
        </extensions>
      </trkpt>
      <trkpt lat="44.6730479411780834197998046875" lon="6.78539897315204143524169921875">
        <ele>1749.5999755859375</ele>
        <time>2026-08-31T05:22:17.000Z</time>
        <extensions>
          <ns3:TrackPointExtension>
            <ns3:hr>152</ns3:hr>
            <ns3:cad>0</ns3:cad>
          </ns3:TrackPointExtension>
        </extensions>
      </trkpt>
      <trkpt lat="44.67305271886289119720458984375" lon="6.7854089476168155670166015625">
        <ele>1749.800048828125</ele>
        <time>2026-08-31T05:22:18.000Z</time>
        <extensions>
          <ns3:TrackPointExtension>
            <ns3:hr>152</ns3:hr>
            <ns3:cad>0</ns3:cad>
          </ns3:TrackPointExtension>
        </extensions>
      </trkpt>
      <trkpt lat="44.67305548489093780517578125" lon="6.785422526299953460693359375">
        <ele>1750</ele>
        <time>2026-08-31T05:22:19.000Z</time>
        <extensions>
          <ns3:TrackPointExtension>
            <ns3:hr>153</ns3:hr>
            <ns3:cad>0</ns3:cad>
          </ns3:TrackPointExtension>
        </extensions>
      </trkpt>
      <trkpt lat="44.67306093312799930572509765625" lon="6.78543400950729846954345703125">
        <ele>1750.199951171875</ele>
        <time>2026-08-31T05:22:20.000Z</time>
        <extensions>
          <ns3:TrackPointExtension>
            <ns3:hr>153</ns3:hr>
            <ns3:cad>0</ns3:cad>
          </ns3:TrackPointExtension>
        </extensions>
      </trkpt>
      <trkpt lat="44.673063866794109344482421875" lon="6.78544071502983570098876953125">
        <ele>1750.4000244140625</ele>
        <time>2026-08-31T05:22:21.000Z</time>
        <extensions>
          <ns3:TrackPointExtension>
            <ns3:hr>153</ns3:hr>
            <ns3:cad>0</ns3:cad>
          </ns3:TrackPointExtension>
        </extensions>
      </trkpt>
      <trkpt lat="44.6730670519173145294189453125" lon="6.7854515276849269866943359375">
        <ele>1750.5999755859375</ele>
        <time>2026-08-31T05:22:22.000Z</time>
        <extensions>
          <ns3:TrackPointExtension>
            <ns3:hr>153</ns3:hr>
            <ns3:cad>0</ns3:cad>
          </ns3:TrackPointExtension>
        </extensions>
      </trkpt>
      <trkpt lat="44.67306646518409252166748046875" lon="6.7854568921029567718505859375">
        <ele>1750.800048828125</ele>
        <time>2026-08-31T05:22:23.000Z</time>
        <extensions>
          <ns3:TrackPointExtension>
            <ns3:hr>153</ns3:hr>
            <ns3:cad>0</ns3:cad>
          </ns3:TrackPointExtension>
        </extensions>
      </trkpt>
      <trkpt lat="44.67306881211698055267333984375" lon="6.7854692973196506500244140625">
        <ele>1751</ele>
        <time>2026-08-31T05:22:24.000Z</time>
        <extensions>
          <ns3:TrackPointExtension>
            <ns3:hr>153</ns3:hr>
            <ns3:cad>0</ns3:cad>
          </ns3:TrackPointExtension>
        </extensions>
      </trkpt>
      <trkpt lat="44.6730747632682323455810546875" lon="6.7854793556034564971923828125">
        <ele>1751.199951171875</ele>
        <time>2026-08-31T05:22:25.000Z</time>
        <extensions>
          <ns3:TrackPointExtension>
            <ns3:hr>153</ns3:hr>
            <ns3:cad>0</ns3:cad>
          </ns3:TrackPointExtension>
        </extensions>
      </trkpt>
      <trkpt lat="44.67307962477207183837890625" lon="6.78548815660178661346435546875">
        <ele>1751.4000244140625</ele>
        <time>2026-08-31T05:22:26.000Z</time>
        <extensions>
          <ns3:TrackPointExtension>
            <ns3:hr>153</ns3:hr>
            <ns3:cad>0</ns3:cad>
          </ns3:TrackPointExtension>
        </extensions>
      </trkpt>
      <trkpt lat="44.67308633029460906982421875" lon="6.7854988016188144683837890625">
        <ele>1751.4000244140625</ele>
        <time>2026-08-31T05:22:27.000Z</time>
        <extensions>
          <ns3:TrackPointExtension>
            <ns3:hr>153</ns3:hr>
            <ns3:cad>0</ns3:cad>
          </ns3:TrackPointExtension>
        </extensions>
      </trkpt>
      <trkpt lat="44.67309035360813140869140625" lon="6.7855061776936054229736328125">
        <ele>1751.5999755859375</ele>
        <time>2026-08-31T05:22:28.000Z</time>
        <extensions>
          <ns3:TrackPointExtension>
            <ns3:hr>153</ns3:hr>
            <ns3:cad>0</ns3:cad>
          </ns3:TrackPointExtension>
        </extensions>
      </trkpt>
      <trkpt lat="44.67309664003551006317138671875" lon="6.78551447577774524688720703125">
        <ele>1751.800048828125</ele>
        <time>2026-08-31T05:22:29.000Z</time>
        <extensions>
          <ns3:TrackPointExtension>
            <ns3:hr>153</ns3:hr>
            <ns3:cad>0</ns3:cad>
          </ns3:TrackPointExtension>
        </extensions>
      </trkpt>
      <trkpt lat="44.673103429377079010009765625" lon="6.7855216003954410552978515625">
        <ele>1752</ele>
        <time>2026-08-31T05:22:30.000Z</time>
        <extensions>
          <ns3:TrackPointExtension>
            <ns3:hr>153</ns3:hr>
            <ns3:cad>0</ns3:cad>
          </ns3:TrackPointExtension>
        </extensions>
      </trkpt>
      <trkpt lat="44.6731146611273288726806640625" lon="6.78553291596472263336181640625">
        <ele>1752.4000244140625</ele>
        <time>2026-08-31T05:22:31.000Z</time>
        <extensions>
          <ns3:TrackPointExtension>
            <ns3:hr>153</ns3:hr>
            <ns3:cad>52</ns3:cad>
          </ns3:TrackPointExtension>
        </extensions>
      </trkpt>
      <trkpt lat="44.6731190197169780731201171875" lon="6.78554029203951358795166015625">
        <ele>1752.5999755859375</ele>
        <time>2026-08-31T05:22:32.000Z</time>
        <extensions>
          <ns3:TrackPointExtension>
            <ns3:hr>153</ns3:hr>
            <ns3:cad>52</ns3:cad>
          </ns3:TrackPointExtension>
        </extensions>
      </trkpt>
      <trkpt lat="44.67312262393534183502197265625" lon="6.78554699756205081939697265625">
        <ele>1752.5999755859375</ele>
        <time>2026-08-31T05:22:33.000Z</time>
        <extensions>
          <ns3:TrackPointExtension>
            <ns3:hr>153</ns3:hr>
            <ns3:cad>52</ns3:cad>
          </ns3:TrackPointExtension>
        </extensions>
      </trkpt>
      <trkpt lat="44.67312932945787906646728515625" lon="6.7855489253997802734375">
        <ele>1752.800048828125</ele>
        <time>2026-08-31T05:22:34.000Z</time>
        <extensions>
          <ns3:TrackPointExtension>
            <ns3:hr>153</ns3:hr>
            <ns3:cad>52</ns3:cad>
          </ns3:TrackPointExtension>
        </extensions>
      </trkpt>
      <trkpt lat="44.6731339395046234130859375" lon="6.7855502665042877197265625">
        <ele>1753</ele>
        <time>2026-08-31T05:22:35.000Z</time>
        <extensions>
          <ns3:TrackPointExtension>
            <ns3:hr>153</ns3:hr>
            <ns3:cad>0</ns3:cad>
          </ns3:TrackPointExtension>
        </extensions>
      </trkpt>
      <trkpt lat="44.6731394715607166290283203125" lon="6.7855504341423511505126953125">
        <ele>1753.199951171875</ele>
        <time>2026-08-31T05:22:36.000Z</time>
        <extensions>
          <ns3:TrackPointExtension>
            <ns3:hr>153</ns3:hr>
            <ns3:cad>0</ns3:cad>
          </ns3:TrackPointExtension>
        </extensions>
      </trkpt>
      <trkpt lat="44.673147685825824737548828125" lon="6.78555370308458805084228515625">
        <ele>1753.4000244140625</ele>
        <time>2026-08-31T05:22:37.000Z</time>
        <extensions>
          <ns3:TrackPointExtension>
            <ns3:hr>153</ns3:hr>
            <ns3:cad>0</ns3:cad>
          </ns3:TrackPointExtension>
        </extensions>
      </trkpt>
      <trkpt lat="44.6731538884341716766357421875" lon="6.78555630147457122802734375">
        <ele>1753.5999755859375</ele>
        <time>2026-08-31T05:22:38.000Z</time>
        <extensions>
          <ns3:TrackPointExtension>
            <ns3:hr>153</ns3:hr>
            <ns3:cad>0</ns3:cad>
          </ns3:TrackPointExtension>
        </extensions>
      </trkpt>
      <trkpt lat="44.6731629408895969390869140625" lon="6.78555764257907867431640625">
        <ele>1754</ele>
        <time>2026-08-31T05:22:39.000Z</time>
        <extensions>
          <ns3:TrackPointExtension>
            <ns3:hr>153</ns3:hr>
            <ns3:cad>0</ns3:cad>
          </ns3:TrackPointExtension>
        </extensions>
      </trkpt>
      <trkpt lat="44.6731726638972759246826171875" lon="6.7855621688067913055419921875">
        <ele>1754.199951171875</ele>
        <time>2026-08-31T05:22:40.000Z</time>
        <extensions>
          <ns3:TrackPointExtension>
            <ns3:hr>154</ns3:hr>
            <ns3:cad>0</ns3:cad>
          </ns3:TrackPointExtension>
        </extensions>
      </trkpt>
      <trkpt lat="44.67318330891430377960205078125" lon="6.78556761704385280609130859375">
        <ele>1754.4000244140625</ele>
        <time>2026-08-31T05:22:41.000Z</time>
        <extensions>
          <ns3:TrackPointExtension>
            <ns3:hr>153</ns3:hr>
            <ns3:cad>0</ns3:cad>
          </ns3:TrackPointExtension>
        </extensions>
      </trkpt>
      <trkpt lat="44.67319085262715816497802734375" lon="6.78557516075670719146728515625">
        <ele>1754.4000244140625</ele>
        <time>2026-08-31T05:22:42.000Z</time>
        <extensions>
          <ns3:TrackPointExtension>
            <ns3:hr>153</ns3:hr>
            <ns3:cad>0</ns3:cad>
          </ns3:TrackPointExtension>
        </extensions>
      </trkpt>
      <trkpt lat="44.67320309020578861236572265625" lon="6.78558186627924442291259765625">
        <ele>1754.5999755859375</ele>
        <time>2026-08-31T05:22:43.000Z</time>
        <extensions>
          <ns3:TrackPointExtension>
            <ns3:hr>153</ns3:hr>
            <ns3:cad>0</ns3:cad>
          </ns3:TrackPointExtension>
        </extensions>
      </trkpt>
      <trkpt lat="44.67320459894835948944091796875" lon="6.78558580577373504638671875">
        <ele>1754.800048828125</ele>
        <time>2026-08-31T05:22:44.000Z</time>
        <extensions>
          <ns3:TrackPointExtension>
            <ns3:hr>153</ns3:hr>
            <ns3:cad>0</ns3:cad>
          </ns3:TrackPointExtension>
        </extensions>
      </trkpt>
      <trkpt lat="44.67320895753800868988037109375" lon="6.78559309802949428558349609375">
        <ele>1755</ele>
        <time>2026-08-31T05:22:45.000Z</time>
        <extensions>
          <ns3:TrackPointExtension>
            <ns3:hr>153</ns3:hr>
            <ns3:cad>0</ns3:cad>
          </ns3:TrackPointExtension>
        </extensions>
      </trkpt>
      <trkpt lat="44.67321314848959445953369140625" lon="6.7855970375239849090576171875">
        <ele>1755.199951171875</ele>
        <time>2026-08-31T05:22:46.000Z</time>
        <extensions>
          <ns3:TrackPointExtension>
            <ns3:hr>153</ns3:hr>
            <ns3:cad>0</ns3:cad>
          </ns3:TrackPointExtension>
        </extensions>
      </trkpt>
      <trkpt lat="44.67321985401213169097900390625" lon="6.78560516797006130218505859375">
        <ele>1755.4000244140625</ele>
        <time>2026-08-31T05:22:47.000Z</time>
        <extensions>
          <ns3:TrackPointExtension>
            <ns3:hr>153</ns3:hr>
            <ns3:cad>0</ns3:cad>
          </ns3:TrackPointExtension>
        </extensions>
      </trkpt>
      <trkpt lat="44.67322580516338348388671875" lon="6.7856104485690593719482421875">
        <ele>1755.5999755859375</ele>
        <time>2026-08-31T05:22:48.000Z</time>
        <extensions>
          <ns3:TrackPointExtension>
            <ns3:hr>153</ns3:hr>
            <ns3:cad>0</ns3:cad>
          </ns3:TrackPointExtension>
        </extensions>
      </trkpt>
      <trkpt lat="44.67323443852365016937255859375" lon="6.7856278829276561737060546875">
        <ele>1755.800048828125</ele>
        <time>2026-08-31T05:22:49.000Z</time>
        <extensions>
          <ns3:TrackPointExtension>
            <ns3:hr>153</ns3:hr>
            <ns3:cad>0</ns3:cad>
          </ns3:TrackPointExtension>
        </extensions>
      </trkpt>
      <trkpt lat="44.6732437424361705780029296875" lon="6.78562914021313190460205078125">
        <ele>1756</ele>
        <time>2026-08-31T05:22:50.000Z</time>
        <extensions>
          <ns3:TrackPointExtension>
            <ns3:hr>154</ns3:hr>
            <ns3:cad>0</ns3:cad>
          </ns3:TrackPointExtension>
        </extensions>
      </trkpt>
      <trkpt lat="44.67325656674802303314208984375" lon="6.78563148714601993560791015625">
        <ele>1756.199951171875</ele>
        <time>2026-08-31T05:22:51.000Z</time>
        <extensions>
          <ns3:TrackPointExtension>
            <ns3:hr>155</ns3:hr>
            <ns3:cad>0</ns3:cad>
          </ns3:TrackPointExtension>
        </extensions>
      </trkpt>
      <trkpt lat="44.67327048070728778839111328125" lon="6.7856360971927642822265625">
        <ele>1756.4000244140625</ele>
        <time>2026-08-31T05:22:52.000Z</time>
        <extensions>
          <ns3:TrackPointExtension>
            <ns3:hr>155</ns3:hr>
            <ns3:cad>0</ns3:cad>
          </ns3:TrackPointExtension>
        </extensions>
      </trkpt>
      <trkpt lat="44.67327752150595188140869140625" lon="6.7856376059353351593017578125">
        <ele>1756.4000244140625</ele>
        <time>2026-08-31T05:22:53.000Z</time>
        <extensions>
          <ns3:TrackPointExtension>
            <ns3:hr>155</ns3:hr>
            <ns3:cad>0</ns3:cad>
          </ns3:TrackPointExtension>
        </extensions>
      </trkpt>
      <trkpt lat="44.6732903458178043365478515625" lon="6.7856416292488574981689453125">
        <ele>1756.5999755859375</ele>
        <time>2026-08-31T05:22:54.000Z</time>
        <extensions>
          <ns3:TrackPointExtension>
            <ns3:hr>156</ns3:hr>
            <ns3:cad>0</ns3:cad>
          </ns3:TrackPointExtension>
        </extensions>
      </trkpt>
      <trkpt lat="44.673293530941009521484375" lon="6.785647161304950714111328125">
        <ele>1756.800048828125</ele>
        <time>2026-08-31T05:22:55.000Z</time>
        <extensions>
          <ns3:TrackPointExtension>
            <ns3:hr>156</ns3:hr>
            <ns3:cad>0</ns3:cad>
          </ns3:TrackPointExtension>
        </extensions>
      </trkpt>
      <trkpt lat="44.67330501414835453033447265625" lon="6.78565160371363162994384765625">
        <ele>1757</ele>
        <time>2026-08-31T05:22:56.000Z</time>
        <extensions>
          <ns3:TrackPointExtension>
            <ns3:hr>156</ns3:hr>
            <ns3:cad>0</ns3:cad>
          </ns3:TrackPointExtension>
        </extensions>
      </trkpt>
      <trkpt lat="44.67330819927155971527099609375" lon="6.7856547050178050994873046875">
        <ele>1757</ele>
        <time>2026-08-31T05:22:57.000Z</time>
        <extensions>
          <ns3:TrackPointExtension>
            <ns3:hr>156</ns3:hr>
            <ns3:cad>0</ns3:cad>
          </ns3:TrackPointExtension>
        </extensions>
      </trkpt>
      <trkpt lat="44.67332194559276103973388671875" lon="6.7856590636074542999267578125">
        <ele>1757.199951171875</ele>
        <time>2026-08-31T05:22:58.000Z</time>
        <extensions>
          <ns3:TrackPointExtension>
            <ns3:hr>156</ns3:hr>
            <ns3:cad>0</ns3:cad>
          </ns3:TrackPointExtension>
        </extensions>
      </trkpt>
      <trkpt lat="44.67332580126821994781494140625" lon="6.78566317074000835418701171875">
        <ele>1757.5999755859375</ele>
        <time>2026-08-31T05:22:59.000Z</time>
        <extensions>
          <ns3:TrackPointExtension>
            <ns3:hr>156</ns3:hr>
            <ns3:cad>0</ns3:cad>
          </ns3:TrackPointExtension>
        </extensions>
      </trkpt>
      <trkpt lat="44.67333854176104068756103515625" lon="6.7856667749583721160888671875">
        <ele>1757.800048828125</ele>
        <time>2026-08-31T05:23:00.000Z</time>
        <extensions>
          <ns3:TrackPointExtension>
            <ns3:hr>155</ns3:hr>
            <ns3:cad>0</ns3:cad>
          </ns3:TrackPointExtension>
        </extensions>
      </trkpt>
      <trkpt lat="44.67334449291229248046875" lon="6.78566493093967437744140625">
        <ele>1758</ele>
        <time>2026-08-31T05:23:01.000Z</time>
        <extensions>
          <ns3:TrackPointExtension>
            <ns3:hr>155</ns3:hr>
            <ns3:cad>0</ns3:cad>
          </ns3:TrackPointExtension>
        </extensions>
      </trkpt>
      <trkpt lat="44.67335077933967113494873046875" lon="6.7856674455106258392333984375">
        <ele>1758.199951171875</ele>
        <time>2026-08-31T05:23:02.000Z</time>
        <extensions>
          <ns3:TrackPointExtension>
            <ns3:hr>155</ns3:hr>
            <ns3:cad>0</ns3:cad>
          </ns3:TrackPointExtension>
        </extensions>
      </trkpt>
      <trkpt lat="44.673364944756031036376953125" lon="6.7856697924435138702392578125">
        <ele>1758.4000244140625</ele>
        <time>2026-08-31T05:23:03.000Z</time>
        <extensions>
          <ns3:TrackPointExtension>
            <ns3:hr>155</ns3:hr>
            <ns3:cad>0</ns3:cad>
          </ns3:TrackPointExtension>
        </extensions>
      </trkpt>
      <trkpt lat="44.67337441630661487579345703125" lon="6.7856734804809093475341796875">
        <ele>1758.5999755859375</ele>
        <time>2026-08-31T05:23:04.000Z</time>
        <extensions>
          <ns3:TrackPointExtension>
            <ns3:hr>155</ns3:hr>
            <ns3:cad>0</ns3:cad>
          </ns3:TrackPointExtension>
        </extensions>
      </trkpt>
      <trkpt lat="44.6733899228274822235107421875" lon="6.785680018365383148193359375">
        <ele>1758.800048828125</ele>
        <time>2026-08-31T05:23:05.000Z</time>
        <extensions>
          <ns3:TrackPointExtension>
            <ns3:hr>155</ns3:hr>
            <ns3:cad>0</ns3:cad>
          </ns3:TrackPointExtension>
        </extensions>
      </trkpt>
      <trkpt lat="44.67339335940778255462646484375" lon="6.78568798117339611053466796875">
        <ele>1759</ele>
        <time>2026-08-31T05:23:06.000Z</time>
        <extensions>
          <ns3:TrackPointExtension>
            <ns3:hr>154</ns3:hr>
            <ns3:cad>0</ns3:cad>
          </ns3:TrackPointExtension>
        </extensions>
      </trkpt>
      <trkpt lat="44.67340475879609584808349609375" lon="6.78570021875202655792236328125">
        <ele>1759.199951171875</ele>
        <time>2026-08-31T05:23:07.000Z</time>
        <extensions>
          <ns3:TrackPointExtension>
            <ns3:hr>154</ns3:hr>
            <ns3:cad>0</ns3:cad>
          </ns3:TrackPointExtension>
        </extensions>
      </trkpt>
      <trkpt lat="44.673411883413791656494140625" lon="6.78570575080811977386474609375">
        <ele>1759.4000244140625</ele>
        <time>2026-08-31T05:23:08.000Z</time>
        <extensions>
          <ns3:TrackPointExtension>
            <ns3:hr>154</ns3:hr>
            <ns3:cad>0</ns3:cad>
          </ns3:TrackPointExtension>
        </extensions>
      </trkpt>
      <trkpt lat="44.67342219315469264984130859375" lon="6.78571262396872043609619140625">
        <ele>1759.5999755859375</ele>
        <time>2026-08-31T05:23:09.000Z</time>
        <extensions>
          <ns3:TrackPointExtension>
            <ns3:hr>154</ns3:hr>
            <ns3:cad>0</ns3:cad>
          </ns3:TrackPointExtension>
        </extensions>
      </trkpt>
      <trkpt lat="44.67342973686754703521728515625" lon="6.78571228869259357452392578125">
        <ele>1759.800048828125</ele>
        <time>2026-08-31T05:23:10.000Z</time>
        <extensions>
          <ns3:TrackPointExtension>
            <ns3:hr>154</ns3:hr>
            <ns3:cad>0</ns3:cad>
          </ns3:TrackPointExtension>
        </extensions>
      </trkpt>
      <trkpt lat="44.67343904078006744384765625" lon="6.7857192456722259521484375">
        <ele>1760</ele>
        <time>2026-08-31T05:23:11.000Z</time>
        <extensions>
          <ns3:TrackPointExtension>
            <ns3:hr>153</ns3:hr>
            <ns3:cad>0</ns3:cad>
          </ns3:TrackPointExtension>
        </extensions>
      </trkpt>
      <trkpt lat="44.6734506078064441680908203125" lon="6.7857153899967670440673828125">
        <ele>1760.199951171875</ele>
        <time>2026-08-31T05:23:12.000Z</time>
        <extensions>
          <ns3:TrackPointExtension>
            <ns3:hr>153</ns3:hr>
            <ns3:cad>0</ns3:cad>
          </ns3:TrackPointExtension>
        </extensions>
      </trkpt>
      <trkpt lat="44.67345647513866424560546875" lon="6.78571765311062335968017578125">
        <ele>1760.4000244140625</ele>
        <time>2026-08-31T05:23:13.000Z</time>
        <extensions>
          <ns3:TrackPointExtension>
            <ns3:hr>152</ns3:hr>
            <ns3:cad>0</ns3:cad>
          </ns3:TrackPointExtension>
        </extensions>
      </trkpt>
      <trkpt lat="44.67346946708858013153076171875" lon="6.78570843301713466644287109375">
        <ele>1760.5999755859375</ele>
        <time>2026-08-31T05:23:14.000Z</time>
        <extensions>
          <ns3:TrackPointExtension>
            <ns3:hr>152</ns3:hr>
            <ns3:cad>0</ns3:cad>
          </ns3:TrackPointExtension>
        </extensions>
      </trkpt>
      <trkpt lat="44.6734717302024364471435546875" lon="6.78570122458040714263916015625">
        <ele>1760.800048828125</ele>
        <time>2026-08-31T05:23:15.000Z</time>
        <extensions>
          <ns3:TrackPointExtension>
            <ns3:hr>151</ns3:hr>
            <ns3:cad>0</ns3:cad>
          </ns3:TrackPointExtension>
        </extensions>
      </trkpt>
      <trkpt lat="44.67346963472664356231689453125" lon="6.78568412549793720245361328125">
        <ele>1761</ele>
        <time>2026-08-31T05:23:16.000Z</time>
        <extensions>
          <ns3:TrackPointExtension>
            <ns3:hr>151</ns3:hr>
            <ns3:cad>0</ns3:cad>
          </ns3:TrackPointExtension>
        </extensions>
      </trkpt>
      <trkpt lat="44.67347030527889728546142578125" lon="6.78567809052765369415283203125">
        <ele>1761.199951171875</ele>
        <time>2026-08-31T05:23:17.000Z</time>
        <extensions>
          <ns3:TrackPointExtension>
            <ns3:hr>150</ns3:hr>
            <ns3:cad>0</ns3:cad>
          </ns3:TrackPointExtension>
        </extensions>
      </trkpt>
      <trkpt lat="44.67346988618373870849609375" lon="6.785672642290592193603515625">
        <ele>1761.4000244140625</ele>
        <time>2026-08-31T05:23:18.000Z</time>
        <extensions>
          <ns3:TrackPointExtension>
            <ns3:hr>151</ns3:hr>
            <ns3:cad>0</ns3:cad>
          </ns3:TrackPointExtension>
        </extensions>
      </trkpt>
      <trkpt lat="44.673464857041835784912109375" lon="6.785669624805450439453125">
        <ele>1761.5999755859375</ele>
        <time>2026-08-31T05:23:19.000Z</time>
        <extensions>
          <ns3:TrackPointExtension>
            <ns3:hr>151</ns3:hr>
            <ns3:cad>0</ns3:cad>
          </ns3:TrackPointExtension>
        </extensions>
      </trkpt>
      <trkpt lat="44.673458151519298553466796875" lon="6.7856650985777378082275390625">
        <ele>1761.800048828125</ele>
        <time>2026-08-31T05:23:20.000Z</time>
        <extensions>
          <ns3:TrackPointExtension>
            <ns3:hr>151</ns3:hr>
            <ns3:cad>0</ns3:cad>
          </ns3:TrackPointExtension>
        </extensions>
      </trkpt>
      <trkpt lat="44.67345379292964935302734375" lon="6.78566233254969120025634765625">
        <ele>1762</ele>
        <time>2026-08-31T05:23:21.000Z</time>
        <extensions>
          <ns3:TrackPointExtension>
            <ns3:hr>151</ns3:hr>
            <ns3:cad>0</ns3:cad>
          </ns3:TrackPointExtension>
        </extensions>
      </trkpt>
      <trkpt lat="44.6734449081122875213623046875" lon="6.7856573872268199920654296875">
        <ele>1762</ele>
        <time>2026-08-31T05:23:22.000Z</time>
        <extensions>
          <ns3:TrackPointExtension>
            <ns3:hr>153</ns3:hr>
            <ns3:cad>0</ns3:cad>
          </ns3:TrackPointExtension>
        </extensions>
      </trkpt>
      <trkpt lat="44.673435688018798828125" lon="6.78564623929560184478759765625">
        <ele>1762.199951171875</ele>
        <time>2026-08-31T05:23:23.000Z</time>
        <extensions>
          <ns3:TrackPointExtension>
            <ns3:hr>155</ns3:hr>
            <ns3:cad>0</ns3:cad>
          </ns3:TrackPointExtension>
        </extensions>
      </trkpt>
      <trkpt lat="44.673425294458866119384765625" lon="6.78564003668725490570068359375">
        <ele>1762.4000244140625</ele>
        <time>2026-08-31T05:23:24.000Z</time>
        <extensions>
          <ns3:TrackPointExtension>
            <ns3:hr>156</ns3:hr>
            <ns3:cad>0</ns3:cad>
          </ns3:TrackPointExtension>
        </extensions>
      </trkpt>
      <trkpt lat="44.67342428863048553466796875" lon="6.78563584573566913604736328125">
        <ele>1762.5999755859375</ele>
        <time>2026-08-31T05:23:25.000Z</time>
        <extensions>
          <ns3:TrackPointExtension>
            <ns3:hr>158</ns3:hr>
            <ns3:cad>0</ns3:cad>
          </ns3:TrackPointExtension>
        </extensions>
      </trkpt>
      <trkpt lat="44.6734142303466796875" lon="6.78562293760478496551513671875">
        <ele>1762.800048828125</ele>
        <time>2026-08-31T05:23:26.000Z</time>
        <extensions>
          <ns3:TrackPointExtension>
            <ns3:hr>158</ns3:hr>
            <ns3:cad>50</ns3:cad>
          </ns3:TrackPointExtension>
        </extensions>
      </trkpt>
      <trkpt lat="44.67341096140444278717041015625" lon="6.78561522625386714935302734375">
        <ele>1763</ele>
        <time>2026-08-31T05:23:27.000Z</time>
        <extensions>
          <ns3:TrackPointExtension>
            <ns3:hr>159</ns3:hr>
            <ns3:cad>50</ns3:cad>
          </ns3:TrackPointExtension>
        </extensions>
      </trkpt>
      <trkpt lat="44.67340375296771526336669921875" lon="6.78560399450361728668212890625">
        <ele>1763</ele>
        <time>2026-08-31T05:23:28.000Z</time>
        <extensions>
          <ns3:TrackPointExtension>
            <ns3:hr>159</ns3:hr>
            <ns3:cad>54</ns3:cad>
          </ns3:TrackPointExtension>
        </extensions>
      </trkpt>
      <trkpt lat="44.6734019927680492401123046875" lon="6.7855910025537014007568359375">
        <ele>1763.199951171875</ele>
        <time>2026-08-31T05:23:29.000Z</time>
        <extensions>
          <ns3:TrackPointExtension>
            <ns3:hr>159</ns3:hr>
            <ns3:cad>54</ns3:cad>
          </ns3:TrackPointExtension>
        </extensions>
      </trkpt>
      <trkpt lat="44.6734086982905864715576171875" lon="6.78557985462248325347900390625">
        <ele>1763.4000244140625</ele>
        <time>2026-08-31T05:23:30.000Z</time>
        <extensions>
          <ns3:TrackPointExtension>
            <ns3:hr>159</ns3:hr>
            <ns3:cad>54</ns3:cad>
          </ns3:TrackPointExtension>
        </extensions>
      </trkpt>
      <trkpt lat="44.67341263778507709503173828125" lon="6.7855744063854217529296875">
        <ele>1763.4000244140625</ele>
        <time>2026-08-31T05:23:31.000Z</time>
        <extensions>
          <ns3:TrackPointExtension>
            <ns3:hr>160</ns3:hr>
            <ns3:cad>54</ns3:cad>
          </ns3:TrackPointExtension>
        </extensions>
      </trkpt>
      <trkpt lat="44.67341833747923374176025390625" lon="6.78557482548058032989501953125">
        <ele>1763.5999755859375</ele>
        <time>2026-08-31T05:23:32.000Z</time>
        <extensions>
          <ns3:TrackPointExtension>
            <ns3:hr>159</ns3:hr>
            <ns3:cad>0</ns3:cad>
          </ns3:TrackPointExtension>
        </extensions>
      </trkpt>
      <trkpt lat="44.67342386953532695770263671875" lon="6.785582788288593292236328125">
        <ele>1763.800048828125</ele>
        <time>2026-08-31T05:23:33.000Z</time>
        <extensions>
          <ns3:TrackPointExtension>
            <ns3:hr>160</ns3:hr>
            <ns3:cad>0</ns3:cad>
          </ns3:TrackPointExtension>
        </extensions>
      </trkpt>
      <trkpt lat="44.6734291501343250274658203125" lon="6.78558421321213245391845703125">
        <ele>1763.800048828125</ele>
        <time>2026-08-31T05:23:34.000Z</time>
        <extensions>
          <ns3:TrackPointExtension>
            <ns3:hr>160</ns3:hr>
            <ns3:cad>0</ns3:cad>
          </ns3:TrackPointExtension>
        </extensions>
      </trkpt>
      <trkpt lat="44.673437364399433135986328125" lon="6.78558907471597194671630859375">
        <ele>1764</ele>
        <time>2026-08-31T05:23:35.000Z</time>
        <extensions>
          <ns3:TrackPointExtension>
            <ns3:hr>160</ns3:hr>
            <ns3:cad>0</ns3:cad>
          </ns3:TrackPointExtension>
        </extensions>
      </trkpt>
      <trkpt lat="44.67344432137906551361083984375" lon="6.785591505467891693115234375">
        <ele>1764.199951171875</ele>
        <time>2026-08-31T05:23:36.000Z</time>
        <extensions>
          <ns3:TrackPointExtension>
            <ns3:hr>162</ns3:hr>
            <ns3:cad>0</ns3:cad>
          </ns3:TrackPointExtension>
        </extensions>
      </trkpt>
      <trkpt lat="44.673454128205776214599609375" lon="6.78559594787657260894775390625">
        <ele>1764.4000244140625</ele>
        <time>2026-08-31T05:23:37.000Z</time>
        <extensions>
          <ns3:TrackPointExtension>
            <ns3:hr>163</ns3:hr>
            <ns3:cad>0</ns3:cad>
          </ns3:TrackPointExtension>
        </extensions>
      </trkpt>
      <trkpt lat="44.67346393503248691558837890625" lon="6.78560097701847553253173828125">
        <ele>1764.5999755859375</ele>
        <time>2026-08-31T05:23:38.000Z</time>
        <extensions>
          <ns3:TrackPointExtension>
            <ns3:hr>163</ns3:hr>
            <ns3:cad>0</ns3:cad>
          </ns3:TrackPointExtension>
        </extensions>
      </trkpt>
      <trkpt lat="44.6734764240682125091552734375" lon="6.78560835309326648712158203125">
        <ele>1764.5999755859375</ele>
        <time>2026-08-31T05:23:39.000Z</time>
        <extensions>
          <ns3:TrackPointExtension>
            <ns3:hr>163</ns3:hr>
            <ns3:cad>0</ns3:cad>
          </ns3:TrackPointExtension>
        </extensions>
      </trkpt>
      <trkpt lat="44.673484973609447479248046875" lon="6.7856161482632160186767578125">
        <ele>1764.800048828125</ele>
        <time>2026-08-31T05:23:40.000Z</time>
        <extensions>
          <ns3:TrackPointExtension>
            <ns3:hr>164</ns3:hr>
            <ns3:cad>0</ns3:cad>
          </ns3:TrackPointExtension>
        </extensions>
      </trkpt>
      <trkpt lat="44.67349025420844554901123046875" lon="6.7856255359947681427001953125">
        <ele>1765</ele>
        <time>2026-08-31T05:23:41.000Z</time>
        <extensions>
          <ns3:TrackPointExtension>
            <ns3:hr>163</ns3:hr>
            <ns3:cad>0</ns3:cad>
          </ns3:TrackPointExtension>
        </extensions>
      </trkpt>
      <trkpt lat="44.67350198887288570404052734375" lon="6.7856298945844173431396484375">
        <ele>1765</ele>
        <time>2026-08-31T05:23:42.000Z</time>
        <extensions>
          <ns3:TrackPointExtension>
            <ns3:hr>163</ns3:hr>
            <ns3:cad>0</ns3:cad>
          </ns3:TrackPointExtension>
        </extensions>
      </trkpt>
      <trkpt lat="44.6735099516808986663818359375" lon="6.78562981076538562774658203125">
        <ele>1765.199951171875</ele>
        <time>2026-08-31T05:23:43.000Z</time>
        <extensions>
          <ns3:TrackPointExtension>
            <ns3:hr>163</ns3:hr>
            <ns3:cad>0</ns3:cad>
          </ns3:TrackPointExtension>
        </extensions>
      </trkpt>
      <trkpt lat="44.67351506464183330535888671875" lon="6.78562696091830730438232421875">
        <ele>1765.4000244140625</ele>
        <time>2026-08-31T05:23:44.000Z</time>
        <extensions>
          <ns3:TrackPointExtension>
            <ns3:hr>163</ns3:hr>
            <ns3:cad>0</ns3:cad>
          </ns3:TrackPointExtension>
        </extensions>
      </trkpt>
      <trkpt lat="44.67351992614567279815673828125" lon="6.78563551045954227447509765625">
        <ele>1765.4000244140625</ele>
        <time>2026-08-31T05:23:45.000Z</time>
        <extensions>
          <ns3:TrackPointExtension>
            <ns3:hr>163</ns3:hr>
            <ns3:cad>0</ns3:cad>
          </ns3:TrackPointExtension>
        </extensions>
      </trkpt>
      <trkpt lat="44.6735273860394954681396484375" lon="6.78563098423182964324951171875">
        <ele>1765.5999755859375</ele>
        <time>2026-08-31T05:23:46.000Z</time>
        <extensions>
          <ns3:TrackPointExtension>
            <ns3:hr>163</ns3:hr>
            <ns3:cad>0</ns3:cad>
          </ns3:TrackPointExtension>
        </extensions>
      </trkpt>
      <trkpt lat="44.673531912267208099365234375" lon="6.78563131950795650482177734375">
        <ele>1765.5999755859375</ele>
        <time>2026-08-31T05:23:47.000Z</time>
        <extensions>
          <ns3:TrackPointExtension>
            <ns3:hr>162</ns3:hr>
            <ns3:cad>0</ns3:cad>
          </ns3:TrackPointExtension>
        </extensions>
      </trkpt>
      <trkpt lat="44.6735340915620326995849609375" lon="6.78562981076538562774658203125">
        <ele>1765.800048828125</ele>
        <time>2026-08-31T05:23:48.000Z</time>
        <extensions>
          <ns3:TrackPointExtension>
            <ns3:hr>162</ns3:hr>
            <ns3:cad>0</ns3:cad>
          </ns3:TrackPointExtension>
        </extensions>
      </trkpt>
      <trkpt lat="44.67353400774300098419189453125" lon="6.78562964312732219696044921875">
        <ele>1765.800048828125</ele>
        <time>2026-08-31T05:23:49.000Z</time>
        <extensions>
          <ns3:TrackPointExtension>
            <ns3:hr>162</ns3:hr>
            <ns3:cad>0</ns3:cad>
          </ns3:TrackPointExtension>
        </extensions>
      </trkpt>
      <trkpt lat="44.67353400774300098419189453125" lon="6.78562964312732219696044921875">
        <ele>1766</ele>
        <time>2026-08-31T05:23:50.000Z</time>
        <extensions>
          <ns3:TrackPointExtension>
            <ns3:hr>163</ns3:hr>
            <ns3:cad>0</ns3:cad>
          </ns3:TrackPointExtension>
        </extensions>
      </trkpt>
      <trkpt lat="44.67353400774300098419189453125" lon="6.78562964312732219696044921875">
        <ele>1766</ele>
        <time>2026-08-31T05:23:51.000Z</time>
        <extensions>
          <ns3:TrackPointExtension>
            <ns3:hr>162</ns3:hr>
            <ns3:cad>0</ns3:cad>
          </ns3:TrackPointExtension>
        </extensions>
      </trkpt>
      <trkpt lat="44.67353400774300098419189453125" lon="6.78562964312732219696044921875">
        <ele>1766</ele>
        <time>2026-08-31T05:23:52.000Z</time>
        <extensions>
          <ns3:TrackPointExtension>
            <ns3:hr>162</ns3:hr>
            <ns3:cad>0</ns3:cad>
          </ns3:TrackPointExtension>
        </extensions>
      </trkpt>
      <trkpt lat="44.67353400774300098419189453125" lon="6.78562964312732219696044921875">
        <ele>1766</ele>
        <time>2026-08-31T05:23:53.000Z</time>
        <extensions>
          <ns3:TrackPointExtension>
            <ns3:hr>163</ns3:hr>
            <ns3:cad>0</ns3:cad>
          </ns3:TrackPointExtension>
        </extensions>
      </trkpt>
      <trkpt lat="44.67353400774300098419189453125" lon="6.78562964312732219696044921875">
        <ele>1766</ele>
        <time>2026-08-31T05:23:54.000Z</time>
        <extensions>
          <ns3:TrackPointExtension>
            <ns3:hr>162</ns3:hr>
            <ns3:cad>0</ns3:cad>
          </ns3:TrackPointExtension>
        </extensions>
      </trkpt>
      <trkpt lat="44.67353400774300098419189453125" lon="6.78562964312732219696044921875">
        <ele>1766</ele>
        <time>2026-08-31T05:23:55.000Z</time>
        <extensions>
          <ns3:TrackPointExtension>
            <ns3:hr>162</ns3:hr>
            <ns3:cad>0</ns3:cad>
          </ns3:TrackPointExtension>
        </extensions>
      </trkpt>
      <trkpt lat="44.67353400774300098419189453125" lon="6.78562964312732219696044921875">
        <ele>1766</ele>
        <time>2026-08-31T05:23:56.000Z</time>
        <extensions>
          <ns3:TrackPointExtension>
            <ns3:hr>161</ns3:hr>
            <ns3:cad>0</ns3:cad>
          </ns3:TrackPointExtension>
        </extensions>
      </trkpt>
      <trkpt lat="44.67353400774300098419189453125" lon="6.78562964312732219696044921875">
        <ele>1766.199951171875</ele>
        <time>2026-08-31T05:23:57.000Z</time>
        <extensions>
          <ns3:TrackPointExtension>
            <ns3:hr>161</ns3:hr>
            <ns3:cad>0</ns3:cad>
          </ns3:TrackPointExtension>
        </extensions>
      </trkpt>
      <trkpt lat="44.67353400774300098419189453125" lon="6.78562964312732219696044921875">
        <ele>1766.199951171875</ele>
        <time>2026-08-31T05:23:58.000Z</time>
        <extensions>
          <ns3:TrackPointExtension>
            <ns3:hr>160</ns3:hr>
            <ns3:cad>0</ns3:cad>
          </ns3:TrackPointExtension>
        </extensions>
      </trkpt>
      <trkpt lat="44.67353400774300098419189453125" lon="6.78562964312732219696044921875">
        <ele>1766.199951171875</ele>
        <time>2026-08-31T05:23:59.000Z</time>
        <extensions>
          <ns3:TrackPointExtension>
            <ns3:hr>160</ns3:hr>
            <ns3:cad>0</ns3:cad>
          </ns3:TrackPointExtension>
        </extensions>
      </trkpt>
      <trkpt lat="44.67353400774300098419189453125" lon="6.78562964312732219696044921875">
        <ele>1766.199951171875</ele>
        <time>2026-08-31T05:24:00.000Z</time>
        <extensions>
          <ns3:TrackPointExtension>
            <ns3:hr>160</ns3:hr>
            <ns3:cad>0</ns3:cad>
          </ns3:TrackPointExtension>
        </extensions>
      </trkpt>
      <trkpt lat="44.67353484593331813812255859375" lon="6.78562813438475131988525390625">
        <ele>1766</ele>
        <time>2026-08-31T05:24:01.000Z</time>
        <extensions>
          <ns3:TrackPointExtension>
            <ns3:hr>161</ns3:hr>
            <ns3:cad>0</ns3:cad>
          </ns3:TrackPointExtension>
        </extensions>
      </trkpt>
      <trkpt lat="44.67353400774300098419189453125" lon="6.78562964312732219696044921875">
        <ele>1766</ele>
        <time>2026-08-31T05:24:02.000Z</time>
        <extensions>
          <ns3:TrackPointExtension>
            <ns3:hr>161</ns3:hr>
            <ns3:cad>0</ns3:cad>
          </ns3:TrackPointExtension>
        </extensions>
      </trkpt>
      <trkpt lat="44.67353400774300098419189453125" lon="6.78562964312732219696044921875">
        <ele>1766</ele>
        <time>2026-08-31T05:24:03.000Z</time>
        <extensions>
          <ns3:TrackPointExtension>
            <ns3:hr>160</ns3:hr>
            <ns3:cad>0</ns3:cad>
          </ns3:TrackPointExtension>
        </extensions>
      </trkpt>
      <trkpt lat="44.67353400774300098419189453125" lon="6.78562964312732219696044921875">
        <ele>1766</ele>
        <time>2026-08-31T05:24:04.000Z</time>
        <extensions>
          <ns3:TrackPointExtension>
            <ns3:hr>160</ns3:hr>
            <ns3:cad>0</ns3:cad>
          </ns3:TrackPointExtension>
        </extensions>
      </trkpt>
      <trkpt lat="44.67353400774300098419189453125" lon="6.78562964312732219696044921875">
        <ele>1766</ele>
        <time>2026-08-31T05:24:05.000Z</time>
        <extensions>
          <ns3:TrackPointExtension>
            <ns3:hr>159</ns3:hr>
            <ns3:cad>0</ns3:cad>
          </ns3:TrackPointExtension>
        </extensions>
      </trkpt>
      <trkpt lat="44.67353400774300098419189453125" lon="6.78562964312732219696044921875">
        <ele>1766</ele>
        <time>2026-08-31T05:24:06.000Z</time>
        <extensions>
          <ns3:TrackPointExtension>
            <ns3:hr>158</ns3:hr>
            <ns3:cad>0</ns3:cad>
          </ns3:TrackPointExtension>
        </extensions>
      </trkpt>
      <trkpt lat="44.673534594476222991943359375" lon="6.7856312356889247894287109375">
        <ele>1766</ele>
        <time>2026-08-31T05:24:07.000Z</time>
        <extensions>
          <ns3:TrackPointExtension>
            <ns3:hr>157</ns3:hr>
            <ns3:cad>0</ns3:cad>
          </ns3:TrackPointExtension>
        </extensions>
      </trkpt>
      <trkpt lat="44.67353400774300098419189453125" lon="6.78562964312732219696044921875">
        <ele>1766.199951171875</ele>
        <time>2026-08-31T05:24:08.000Z</time>
        <extensions>
          <ns3:TrackPointExtension>
            <ns3:hr>156</ns3:hr>
            <ns3:cad>0</ns3:cad>
          </ns3:TrackPointExtension>
        </extensions>
      </trkpt>
      <trkpt lat="44.67353400774300098419189453125" lon="6.78562964312732219696044921875">
        <ele>1766.199951171875</ele>
        <time>2026-08-31T05:24:09.000Z</time>
        <extensions>
          <ns3:TrackPointExtension>
            <ns3:hr>155</ns3:hr>
            <ns3:cad>0</ns3:cad>
          </ns3:TrackPointExtension>
        </extensions>
      </trkpt>
      <trkpt lat="44.67353400774300098419189453125" lon="6.78562964312732219696044921875">
        <ele>1766.199951171875</ele>
        <time>2026-08-31T05:24:10.000Z</time>
        <extensions>
          <ns3:TrackPointExtension>
            <ns3:hr>154</ns3:hr>
            <ns3:cad>0</ns3:cad>
          </ns3:TrackPointExtension>
        </extensions>
      </trkpt>
      <trkpt lat="44.67353400774300098419189453125" lon="6.78562964312732219696044921875">
        <ele>1766</ele>
        <time>2026-08-31T05:24:11.000Z</time>
        <extensions>
          <ns3:TrackPointExtension>
            <ns3:hr>154</ns3:hr>
            <ns3:cad>0</ns3:cad>
          </ns3:TrackPointExtension>
        </extensions>
      </trkpt>
      <trkpt lat="44.67353400774300098419189453125" lon="6.78562964312732219696044921875">
        <ele>1766</ele>
        <time>2026-08-31T05:24:12.000Z</time>
        <extensions>
          <ns3:TrackPointExtension>
            <ns3:hr>153</ns3:hr>
            <ns3:cad>0</ns3:cad>
          </ns3:TrackPointExtension>
        </extensions>
      </trkpt>
      <trkpt lat="44.67353400774300098419189453125" lon="6.78562964312732219696044921875">
        <ele>1766</ele>
        <time>2026-08-31T05:24:13.000Z</time>
        <extensions>
          <ns3:TrackPointExtension>
            <ns3:hr>153</ns3:hr>
            <ns3:cad>0</ns3:cad>
          </ns3:TrackPointExtension>
        </extensions>
      </trkpt>
      <trkpt lat="44.6735300682485103607177734375" lon="6.78562947548925876617431640625">
        <ele>1766</ele>
        <time>2026-08-31T05:24:14.000Z</time>
        <extensions>
          <ns3:TrackPointExtension>
            <ns3:hr>153</ns3:hr>
            <ns3:cad>0</ns3:cad>
          </ns3:TrackPointExtension>
        </extensions>
      </trkpt>
      <trkpt lat="44.67353031970560550689697265625" lon="6.785631738603115081787109375">
        <ele>1766.199951171875</ele>
        <time>2026-08-31T05:24:15.000Z</time>
        <extensions>
          <ns3:TrackPointExtension>
            <ns3:hr>152</ns3:hr>
            <ns3:cad>0</ns3:cad>
          </ns3:TrackPointExtension>
        </extensions>
      </trkpt>
      <trkpt lat="44.673527218401432037353515625" lon="6.7856312356889247894287109375">
        <ele>1766.199951171875</ele>
        <time>2026-08-31T05:24:16.000Z</time>
        <extensions>
          <ns3:TrackPointExtension>
            <ns3:hr>152</ns3:hr>
            <ns3:cad>0</ns3:cad>
          </ns3:TrackPointExtension>
        </extensions>
      </trkpt>
      <trkpt lat="44.67353400774300098419189453125" lon="6.78562964312732219696044921875">
        <ele>1766.199951171875</ele>
        <time>2026-08-31T05:24:17.000Z</time>
        <extensions>
          <ns3:TrackPointExtension>
            <ns3:hr>152</ns3:hr>
            <ns3:cad>0</ns3:cad>
          </ns3:TrackPointExtension>
        </extensions>
      </trkpt>
      <trkpt lat="44.67353400774300098419189453125" lon="6.78562964312732219696044921875">
        <ele>1766.199951171875</ele>
        <time>2026-08-31T05:24:18.000Z</time>
        <extensions>
          <ns3:TrackPointExtension>
            <ns3:hr>152</ns3:hr>
            <ns3:cad>51</ns3:cad>
          </ns3:TrackPointExtension>
        </extensions>
      </trkpt>
      <trkpt lat="44.6735233627259731292724609375" lon="6.785634420812129974365234375">
        <ele>1766</ele>
        <time>2026-08-31T05:24:19.000Z</time>
        <extensions>
          <ns3:TrackPointExtension>
            <ns3:hr>152</ns3:hr>
            <ns3:cad>51</ns3:cad>
          </ns3:TrackPointExtension>
        </extensions>
      </trkpt>
      <trkpt lat="44.67352210544049739837646484375" lon="6.78563266061246395111083984375">
        <ele>1766</ele>
        <time>2026-08-31T05:24:20.000Z</time>
        <extensions>
          <ns3:TrackPointExtension>
            <ns3:hr>152</ns3:hr>
            <ns3:cad>51</ns3:cad>
          </ns3:TrackPointExtension>
        </extensions>
      </trkpt>
      <trkpt lat="44.6735226921737194061279296875" lon="6.785632409155368804931640625">
        <ele>1766</ele>
        <time>2026-08-31T05:24:21.000Z</time>
        <extensions>
          <ns3:TrackPointExtension>
            <ns3:hr>152</ns3:hr>
            <ns3:cad>51</ns3:cad>
          </ns3:TrackPointExtension>
        </extensions>
      </trkpt>
      <trkpt lat="44.67352227307856082916259765625" lon="6.785632073879241943359375">
        <ele>1766</ele>
        <time>2026-08-31T05:24:22.000Z</time>
        <extensions>
          <ns3:TrackPointExtension>
            <ns3:hr>153</ns3:hr>
            <ns3:cad>51</ns3:cad>
          </ns3:TrackPointExtension>
        </extensions>
      </trkpt>
      <trkpt lat="44.67352143488824367523193359375" lon="6.7856312356889247894287109375">
        <ele>1766</ele>
        <time>2026-08-31T05:24:23.000Z</time>
        <extensions>
          <ns3:TrackPointExtension>
            <ns3:hr>153</ns3:hr>
            <ns3:cad>51</ns3:cad>
          </ns3:TrackPointExtension>
        </extensions>
      </trkpt>
      <trkpt lat="44.67352260835468769073486328125" lon="6.78562914021313190460205078125">
        <ele>1766</ele>
        <time>2026-08-31T05:24:24.000Z</time>
        <extensions>
          <ns3:TrackPointExtension>
            <ns3:hr>154</ns3:hr>
            <ns3:cad>51</ns3:cad>
          </ns3:TrackPointExtension>
        </extensions>
      </trkpt>
      <trkpt lat="44.67352487146854400634765625" lon="6.78562729619443416595458984375">
        <ele>1765.800048828125</ele>
        <time>2026-08-31T05:24:25.000Z</time>
        <extensions>
          <ns3:TrackPointExtension>
            <ns3:hr>154</ns3:hr>
            <ns3:cad>0</ns3:cad>
          </ns3:TrackPointExtension>
        </extensions>
      </trkpt>
      <trkpt lat="44.673527218401432037353515625" lon="6.78562394343316555023193359375">
        <ele>1765.800048828125</ele>
        <time>2026-08-31T05:24:26.000Z</time>
        <extensions>
          <ns3:TrackPointExtension>
            <ns3:hr>154</ns3:hr>
            <ns3:cad>0</ns3:cad>
          </ns3:TrackPointExtension>
        </extensions>
      </trkpt>
      <trkpt lat="44.67353048734366893768310546875" lon="6.7856200039386749267578125">
        <ele>1765.800048828125</ele>
        <time>2026-08-31T05:24:27.000Z</time>
        <extensions>
          <ns3:TrackPointExtension>
            <ns3:hr>154</ns3:hr>
            <ns3:cad>0</ns3:cad>
          </ns3:TrackPointExtension>
        </extensions>
      </trkpt>
      <trkpt lat="44.6735322475433349609375" lon="6.78561790846288204193115234375">
        <ele>1765.800048828125</ele>
        <time>2026-08-31T05:24:28.000Z</time>
        <extensions>
          <ns3:TrackPointExtension>
            <ns3:hr>153</ns3:hr>
            <ns3:cad>0</ns3:cad>
          </ns3:TrackPointExtension>
        </extensions>
      </trkpt>
      <trkpt lat="44.67353316955268383026123046875" lon="6.78561799228191375732421875">
        <ele>1765.800048828125</ele>
        <time>2026-08-31T05:24:29.000Z</time>
        <extensions>
          <ns3:TrackPointExtension>
            <ns3:hr>153</ns3:hr>
            <ns3:cad>0</ns3:cad>
          </ns3:TrackPointExtension>
        </extensions>
      </trkpt>
      <trkpt lat="44.67353300191462039947509765625" lon="6.78562293760478496551513671875">
        <ele>1765.800048828125</ele>
        <time>2026-08-31T05:24:30.000Z</time>
        <extensions>
          <ns3:TrackPointExtension>
            <ns3:hr>152</ns3:hr>
            <ns3:cad>0</ns3:cad>
          </ns3:TrackPointExtension>
        </extensions>
      </trkpt>
      <trkpt lat="44.67353350482881069183349609375" lon="6.7856258712708950042724609375">
        <ele>1765.5999755859375</ele>
        <time>2026-08-31T05:24:31.000Z</time>
        <extensions>
          <ns3:TrackPointExtension>
            <ns3:hr>152</ns3:hr>
            <ns3:cad>0</ns3:cad>
          </ns3:TrackPointExtension>
        </extensions>
      </trkpt>
      <trkpt lat="44.67353316955268383026123046875" lon="6.7856280505657196044921875">
        <ele>1765.5999755859375</ele>
        <time>2026-08-31T05:24:32.000Z</time>
        <extensions>
          <ns3:TrackPointExtension>
            <ns3:hr>152</ns3:hr>
            <ns3:cad>0</ns3:cad>
          </ns3:TrackPointExtension>
        </extensions>
      </trkpt>
      <trkpt lat="44.67353266663849353790283203125" lon="6.78563031367957592010498046875">
        <ele>1765.5999755859375</ele>
        <time>2026-08-31T05:24:33.000Z</time>
        <extensions>
          <ns3:TrackPointExtension>
            <ns3:hr>152</ns3:hr>
            <ns3:cad>0</ns3:cad>
          </ns3:TrackPointExtension>
        </extensions>
      </trkpt>
      <trkpt lat="44.67353560030460357666015625" lon="6.78562947548925876617431640625">
        <ele>1765.5999755859375</ele>
        <time>2026-08-31T05:24:34.000Z</time>
        <extensions>
          <ns3:TrackPointExtension>
            <ns3:hr>151</ns3:hr>
            <ns3:cad>0</ns3:cad>
          </ns3:TrackPointExtension>
        </extensions>
      </trkpt>
      <trkpt lat="44.67353702522814273834228515625" lon="6.7856309004127979278564453125">
        <ele>1765.800048828125</ele>
        <time>2026-08-31T05:24:35.000Z</time>
        <extensions>
          <ns3:TrackPointExtension>
            <ns3:hr>151</ns3:hr>
            <ns3:cad>0</ns3:cad>
          </ns3:TrackPointExtension>
        </extensions>
      </trkpt>
      <trkpt lat="44.67353400774300098419189453125" lon="6.78562964312732219696044921875">
        <ele>1765.800048828125</ele>
        <time>2026-08-31T05:24:36.000Z</time>
        <extensions>
          <ns3:TrackPointExtension>
            <ns3:hr>150</ns3:hr>
            <ns3:cad>0</ns3:cad>
          </ns3:TrackPointExtension>
        </extensions>
      </trkpt>
      <trkpt lat="44.67353400774300098419189453125" lon="6.78562964312732219696044921875">
        <ele>1765.800048828125</ele>
        <time>2026-08-31T05:24:37.000Z</time>
        <extensions>
          <ns3:TrackPointExtension>
            <ns3:hr>150</ns3:hr>
            <ns3:cad>0</ns3:cad>
          </ns3:TrackPointExtension>
        </extensions>
      </trkpt>
      <trkpt lat="44.67353400774300098419189453125" lon="6.78562964312732219696044921875">
        <ele>1765.800048828125</ele>
        <time>2026-08-31T05:24:38.000Z</time>
        <extensions>
          <ns3:TrackPointExtension>
            <ns3:hr>150</ns3:hr>
            <ns3:cad>0</ns3:cad>
          </ns3:TrackPointExtension>
        </extensions>
      </trkpt>
      <trkpt lat="44.67353400774300098419189453125" lon="6.78562964312732219696044921875">
        <ele>1765.800048828125</ele>
        <time>2026-08-31T05:24:39.000Z</time>
        <extensions>
          <ns3:TrackPointExtension>
            <ns3:hr>149</ns3:hr>
            <ns3:cad>0</ns3:cad>
          </ns3:TrackPointExtension>
        </extensions>
      </trkpt>
      <trkpt lat="44.67353400774300098419189453125" lon="6.78562964312732219696044921875">
        <ele>1765.800048828125</ele>
        <time>2026-08-31T05:24:40.000Z</time>
        <extensions>
          <ns3:TrackPointExtension>
            <ns3:hr>148</ns3:hr>
            <ns3:cad>0</ns3:cad>
          </ns3:TrackPointExtension>
        </extensions>
      </trkpt>
      <trkpt lat="44.67353400774300098419189453125" lon="6.78562964312732219696044921875">
        <ele>1765.800048828125</ele>
        <time>2026-08-31T05:24:41.000Z</time>
        <extensions>
          <ns3:TrackPointExtension>
            <ns3:hr>148</ns3:hr>
            <ns3:cad>0</ns3:cad>
          </ns3:TrackPointExtension>
        </extensions>
      </trkpt>
      <trkpt lat="44.67353400774300098419189453125" lon="6.78562964312732219696044921875">
        <ele>1765.800048828125</ele>
        <time>2026-08-31T05:24:42.000Z</time>
        <extensions>
          <ns3:TrackPointExtension>
            <ns3:hr>148</ns3:hr>
            <ns3:cad>0</ns3:cad>
          </ns3:TrackPointExtension>
        </extensions>
      </trkpt>
      <trkpt lat="44.67353400774300098419189453125" lon="6.78562964312732219696044921875">
        <ele>1765.800048828125</ele>
        <time>2026-08-31T05:24:43.000Z</time>
        <extensions>
          <ns3:TrackPointExtension>
            <ns3:hr>147</ns3:hr>
            <ns3:cad>0</ns3:cad>
          </ns3:TrackPointExtension>
        </extensions>
      </trkpt>
      <trkpt lat="44.67353400774300098419189453125" lon="6.78562964312732219696044921875">
        <ele>1765.800048828125</ele>
        <time>2026-08-31T05:24:44.000Z</time>
        <extensions>
          <ns3:TrackPointExtension>
            <ns3:hr>147</ns3:hr>
            <ns3:cad>0</ns3:cad>
          </ns3:TrackPointExtension>
        </extensions>
      </trkpt>
      <trkpt lat="44.67353400774300098419189453125" lon="6.78562964312732219696044921875">
        <ele>1765.800048828125</ele>
        <time>2026-08-31T05:24:45.000Z</time>
        <extensions>
          <ns3:TrackPointExtension>
            <ns3:hr>147</ns3:hr>
            <ns3:cad>0</ns3:cad>
          </ns3:TrackPointExtension>
        </extensions>
      </trkpt>
      <trkpt lat="44.67353400774300098419189453125" lon="6.78562964312732219696044921875">
        <ele>1765.800048828125</ele>
        <time>2026-08-31T05:24:46.000Z</time>
        <extensions>
          <ns3:TrackPointExtension>
            <ns3:hr>146</ns3:hr>
            <ns3:cad>0</ns3:cad>
          </ns3:TrackPointExtension>
        </extensions>
      </trkpt>
      <trkpt lat="44.67353400774300098419189453125" lon="6.78562964312732219696044921875">
        <ele>1765.800048828125</ele>
        <time>2026-08-31T05:24:47.000Z</time>
        <extensions>
          <ns3:TrackPointExtension>
            <ns3:hr>146</ns3:hr>
            <ns3:cad>0</ns3:cad>
          </ns3:TrackPointExtension>
        </extensions>
      </trkpt>
      <trkpt lat="44.67353400774300098419189453125" lon="6.78562964312732219696044921875">
        <ele>1765.800048828125</ele>
        <time>2026-08-31T05:24:48.000Z</time>
        <extensions>
          <ns3:TrackPointExtension>
            <ns3:hr>145</ns3:hr>
            <ns3:cad>0</ns3:cad>
          </ns3:TrackPointExtension>
        </extensions>
      </trkpt>
      <trkpt lat="44.67353400774300098419189453125" lon="6.78562964312732219696044921875">
        <ele>1765.800048828125</ele>
        <time>2026-08-31T05:24:49.000Z</time>
        <extensions>
          <ns3:TrackPointExtension>
            <ns3:hr>145</ns3:hr>
            <ns3:cad>0</ns3:cad>
          </ns3:TrackPointExtension>
        </extensions>
      </trkpt>
      <trkpt lat="44.67353400774300098419189453125" lon="6.78562964312732219696044921875">
        <ele>1765.800048828125</ele>
        <time>2026-08-31T05:24:50.000Z</time>
        <extensions>
          <ns3:TrackPointExtension>
            <ns3:hr>144</ns3:hr>
            <ns3:cad>0</ns3:cad>
          </ns3:TrackPointExtension>
        </extensions>
      </trkpt>
      <trkpt lat="44.67353400774300098419189453125" lon="6.78562964312732219696044921875">
        <ele>1765.800048828125</ele>
        <time>2026-08-31T05:24:51.000Z</time>
        <extensions>
          <ns3:TrackPointExtension>
            <ns3:hr>145</ns3:hr>
            <ns3:cad>0</ns3:cad>
          </ns3:TrackPointExtension>
        </extensions>
      </trkpt>
      <trkpt lat="44.67353400774300098419189453125" lon="6.78562964312732219696044921875">
        <ele>1765.800048828125</ele>
        <time>2026-08-31T05:24:52.000Z</time>
        <extensions>
          <ns3:TrackPointExtension>
            <ns3:hr>147</ns3:hr>
            <ns3:cad>0</ns3:cad>
          </ns3:TrackPointExtension>
        </extensions>
      </trkpt>
      <trkpt lat="44.67353400774300098419189453125" lon="6.78562964312732219696044921875">
        <ele>1765.800048828125</ele>
        <time>2026-08-31T05:24:53.000Z</time>
        <extensions>
          <ns3:TrackPointExtension>
            <ns3:hr>149</ns3:hr>
            <ns3:cad>0</ns3:cad>
          </ns3:TrackPointExtension>
        </extensions>
      </trkpt>
      <trkpt lat="44.67353400774300098419189453125" lon="6.78562964312732219696044921875">
        <ele>1765.800048828125</ele>
        <time>2026-08-31T05:24:54.000Z</time>
        <extensions>
          <ns3:TrackPointExtension>
            <ns3:hr>148</ns3:hr>
            <ns3:cad>0</ns3:cad>
          </ns3:TrackPointExtension>
        </extensions>
      </trkpt>
      <trkpt lat="44.67353400774300098419189453125" lon="6.78562964312732219696044921875">
        <ele>1765.800048828125</ele>
        <time>2026-08-31T05:24:55.000Z</time>
        <extensions>
          <ns3:TrackPointExtension>
            <ns3:hr>148</ns3:hr>
            <ns3:cad>0</ns3:cad>
          </ns3:TrackPointExtension>
        </extensions>
      </trkpt>
      <trkpt lat="44.67353400774300098419189453125" lon="6.78562964312732219696044921875">
        <ele>1765.800048828125</ele>
        <time>2026-08-31T05:24:56.000Z</time>
        <extensions>
          <ns3:TrackPointExtension>
            <ns3:hr>148</ns3:hr>
            <ns3:cad>0</ns3:cad>
          </ns3:TrackPointExtension>
        </extensions>
      </trkpt>
      <trkpt lat="44.67353400774300098419189453125" lon="6.78562964312732219696044921875">
        <ele>1765.800048828125</ele>
        <time>2026-08-31T05:24:57.000Z</time>
        <extensions>
          <ns3:TrackPointExtension>
            <ns3:hr>148</ns3:hr>
            <ns3:cad>0</ns3:cad>
          </ns3:TrackPointExtension>
        </extensions>
      </trkpt>
      <trkpt lat="44.67353400774300098419189453125" lon="6.78562964312732219696044921875">
        <ele>1765.800048828125</ele>
        <time>2026-08-31T05:24:58.000Z</time>
        <extensions>
          <ns3:TrackPointExtension>
            <ns3:hr>147</ns3:hr>
            <ns3:cad>0</ns3:cad>
          </ns3:TrackPointExtension>
        </extensions>
      </trkpt>
      <trkpt lat="44.67353400774300098419189453125" lon="6.78562964312732219696044921875">
        <ele>1765.800048828125</ele>
        <time>2026-08-31T05:24:59.000Z</time>
        <extensions>
          <ns3:TrackPointExtension>
            <ns3:hr>147</ns3:hr>
            <ns3:cad>0</ns3:cad>
          </ns3:TrackPointExtension>
        </extensions>
      </trkpt>
      <trkpt lat="44.67353400774300098419189453125" lon="6.78562964312732219696044921875">
        <ele>1765.5999755859375</ele>
        <time>2026-08-31T05:25:00.000Z</time>
        <extensions>
          <ns3:TrackPointExtension>
            <ns3:hr>147</ns3:hr>
            <ns3:cad>0</ns3:cad>
          </ns3:TrackPointExtension>
        </extensions>
      </trkpt>
      <trkpt lat="44.67353400774300098419189453125" lon="6.78562964312732219696044921875">
        <ele>1765.5999755859375</ele>
        <time>2026-08-31T05:25:01.000Z</time>
        <extensions>
          <ns3:TrackPointExtension>
            <ns3:hr>146</ns3:hr>
            <ns3:cad>0</ns3:cad>
          </ns3:TrackPointExtension>
        </extensions>
      </trkpt>
      <trkpt lat="44.67353400774300098419189453125" lon="6.78562964312732219696044921875">
        <ele>1765.5999755859375</ele>
        <time>2026-08-31T05:25:02.000Z</time>
        <extensions>
          <ns3:TrackPointExtension>
            <ns3:hr>146</ns3:hr>
            <ns3:cad>0</ns3:cad>
          </ns3:TrackPointExtension>
        </extensions>
      </trkpt>
      <trkpt lat="44.67353400774300098419189453125" lon="6.78562964312732219696044921875">
        <ele>1765.4000244140625</ele>
        <time>2026-08-31T05:25:03.000Z</time>
        <extensions>
          <ns3:TrackPointExtension>
            <ns3:hr>146</ns3:hr>
            <ns3:cad>0</ns3:cad>
          </ns3:TrackPointExtension>
        </extensions>
      </trkpt>
      <trkpt lat="44.67353400774300098419189453125" lon="6.78562964312732219696044921875">
        <ele>1765.5999755859375</ele>
        <time>2026-08-31T05:25:04.000Z</time>
        <extensions>
          <ns3:TrackPointExtension>
            <ns3:hr>146</ns3:hr>
            <ns3:cad>0</ns3:cad>
          </ns3:TrackPointExtension>
        </extensions>
      </trkpt>
      <trkpt lat="44.67353400774300098419189453125" lon="6.78562964312732219696044921875">
        <ele>1765.5999755859375</ele>
        <time>2026-08-31T05:25:05.000Z</time>
        <extensions>
          <ns3:TrackPointExtension>
            <ns3:hr>145</ns3:hr>
            <ns3:cad>0</ns3:cad>
          </ns3:TrackPointExtension>
        </extensions>
      </trkpt>
      <trkpt lat="44.67353400774300098419189453125" lon="6.78562964312732219696044921875">
        <ele>1765.5999755859375</ele>
        <time>2026-08-31T05:25:06.000Z</time>
        <extensions>
          <ns3:TrackPointExtension>
            <ns3:hr>145</ns3:hr>
            <ns3:cad>0</ns3:cad>
          </ns3:TrackPointExtension>
        </extensions>
      </trkpt>
      <trkpt lat="44.67353400774300098419189453125" lon="6.78562964312732219696044921875">
        <ele>1765.5999755859375</ele>
        <time>2026-08-31T05:25:07.000Z</time>
        <extensions>
          <ns3:TrackPointExtension>
            <ns3:hr>145</ns3:hr>
            <ns3:cad>0</ns3:cad>
          </ns3:TrackPointExtension>
        </extensions>
      </trkpt>
      <trkpt lat="44.67353400774300098419189453125" lon="6.78562964312732219696044921875">
        <ele>1765.5999755859375</ele>
        <time>2026-08-31T05:25:08.000Z</time>
        <extensions>
          <ns3:TrackPointExtension>
            <ns3:hr>145</ns3:hr>
            <ns3:cad>0</ns3:cad>
          </ns3:TrackPointExtension>
        </extensions>
      </trkpt>
      <trkpt lat="44.67353518120944499969482421875" lon="6.78563081659376621246337890625">
        <ele>1765.5999755859375</ele>
        <time>2026-08-31T05:25:09.000Z</time>
        <extensions>
          <ns3:TrackPointExtension>
            <ns3:hr>144</ns3:hr>
            <ns3:cad>0</ns3:cad>
          </ns3:TrackPointExtension>
        </extensions>
      </trkpt>
      <trkpt lat="44.67353400774300098419189453125" lon="6.78562964312732219696044921875">
        <ele>1765.5999755859375</ele>
        <time>2026-08-31T05:25:10.000Z</time>
        <extensions>
          <ns3:TrackPointExtension>
            <ns3:hr>144</ns3:hr>
            <ns3:cad>0</ns3:cad>
          </ns3:TrackPointExtension>
        </extensions>
      </trkpt>
      <trkpt lat="44.67353400774300098419189453125" lon="6.78562964312732219696044921875">
        <ele>1765.5999755859375</ele>
        <time>2026-08-31T05:25:11.000Z</time>
        <extensions>
          <ns3:TrackPointExtension>
            <ns3:hr>144</ns3:hr>
            <ns3:cad>0</ns3:cad>
          </ns3:TrackPointExtension>
        </extensions>
      </trkpt>
      <trkpt lat="44.67353400774300098419189453125" lon="6.78562964312732219696044921875">
        <ele>1765.5999755859375</ele>
        <time>2026-08-31T05:25:12.000Z</time>
        <extensions>
          <ns3:TrackPointExtension>
            <ns3:hr>144</ns3:hr>
            <ns3:cad>0</ns3:cad>
          </ns3:TrackPointExtension>
        </extensions>
      </trkpt>
      <trkpt lat="44.67353400774300098419189453125" lon="6.78562964312732219696044921875">
        <ele>1765.5999755859375</ele>
        <time>2026-08-31T05:25:13.000Z</time>
        <extensions>
          <ns3:TrackPointExtension>
            <ns3:hr>143</ns3:hr>
            <ns3:cad>0</ns3:cad>
          </ns3:TrackPointExtension>
        </extensions>
      </trkpt>
      <trkpt lat="44.67353400774300098419189453125" lon="6.78562964312732219696044921875">
        <ele>1765.5999755859375</ele>
        <time>2026-08-31T05:25:14.000Z</time>
        <extensions>
          <ns3:TrackPointExtension>
            <ns3:hr>143</ns3:hr>
            <ns3:cad>0</ns3:cad>
          </ns3:TrackPointExtension>
        </extensions>
      </trkpt>
      <trkpt lat="44.67353400774300098419189453125" lon="6.78562964312732219696044921875">
        <ele>1765.5999755859375</ele>
        <time>2026-08-31T05:25:15.000Z</time>
        <extensions>
          <ns3:TrackPointExtension>
            <ns3:hr>143</ns3:hr>
            <ns3:cad>0</ns3:cad>
          </ns3:TrackPointExtension>
        </extensions>
      </trkpt>
      <trkpt lat="44.67353400774300098419189453125" lon="6.78562964312732219696044921875">
        <ele>1765.5999755859375</ele>
        <time>2026-08-31T05:25:16.000Z</time>
        <extensions>
          <ns3:TrackPointExtension>
            <ns3:hr>142</ns3:hr>
            <ns3:cad>0</ns3:cad>
          </ns3:TrackPointExtension>
        </extensions>
      </trkpt>
      <trkpt lat="44.67353400774300098419189453125" lon="6.78562964312732219696044921875">
        <ele>1765.5999755859375</ele>
        <time>2026-08-31T05:25:17.000Z</time>
        <extensions>
          <ns3:TrackPointExtension>
            <ns3:hr>142</ns3:hr>
            <ns3:cad>0</ns3:cad>
          </ns3:TrackPointExtension>
        </extensions>
      </trkpt>
      <trkpt lat="44.67353400774300098419189453125" lon="6.78562964312732219696044921875">
        <ele>1765.5999755859375</ele>
        <time>2026-08-31T05:25:18.000Z</time>
        <extensions>
          <ns3:TrackPointExtension>
            <ns3:hr>142</ns3:hr>
            <ns3:cad>0</ns3:cad>
          </ns3:TrackPointExtension>
        </extensions>
      </trkpt>
      <trkpt lat="44.67353400774300098419189453125" lon="6.78562964312732219696044921875">
        <ele>1765.5999755859375</ele>
        <time>2026-08-31T05:25:19.000Z</time>
        <extensions>
          <ns3:TrackPointExtension>
            <ns3:hr>141</ns3:hr>
            <ns3:cad>0</ns3:cad>
          </ns3:TrackPointExtension>
        </extensions>
      </trkpt>
      <trkpt lat="44.67353400774300098419189453125" lon="6.78562964312732219696044921875">
        <ele>1765.800048828125</ele>
        <time>2026-08-31T05:25:20.000Z</time>
        <extensions>
          <ns3:TrackPointExtension>
            <ns3:hr>141</ns3:hr>
            <ns3:cad>0</ns3:cad>
          </ns3:TrackPointExtension>
        </extensions>
      </trkpt>
      <trkpt lat="44.67353400774300098419189453125" lon="6.78562964312732219696044921875">
        <ele>1765.800048828125</ele>
        <time>2026-08-31T05:25:21.000Z</time>
        <extensions>
          <ns3:TrackPointExtension>
            <ns3:hr>141</ns3:hr>
            <ns3:cad>0</ns3:cad>
          </ns3:TrackPointExtension>
        </extensions>
      </trkpt>
      <trkpt lat="44.67353400774300098419189453125" lon="6.78562964312732219696044921875">
        <ele>1766</ele>
        <time>2026-08-31T05:25:22.000Z</time>
        <extensions>
          <ns3:TrackPointExtension>
            <ns3:hr>141</ns3:hr>
            <ns3:cad>0</ns3:cad>
          </ns3:TrackPointExtension>
        </extensions>
      </trkpt>
      <trkpt lat="44.67353400774300098419189453125" lon="6.78562964312732219696044921875">
        <ele>1766</ele>
        <time>2026-08-31T05:25:23.000Z</time>
        <extensions>
          <ns3:TrackPointExtension>
            <ns3:hr>140</ns3:hr>
            <ns3:cad>0</ns3:cad>
          </ns3:TrackPointExtension>
        </extensions>
      </trkpt>
      <trkpt lat="44.673537947237491607666015625" lon="6.78563349880278110504150390625">
        <ele>1766</ele>
        <time>2026-08-31T05:25:24.000Z</time>
        <extensions>
          <ns3:TrackPointExtension>
            <ns3:hr>140</ns3:hr>
            <ns3:cad>0</ns3:cad>
          </ns3:TrackPointExtension>
        </extensions>
      </trkpt>
      <trkpt lat="44.67353400774300098419189453125" lon="6.78562964312732219696044921875">
        <ele>1766</ele>
        <time>2026-08-31T05:25:25.000Z</time>
        <extensions>
          <ns3:TrackPointExtension>
            <ns3:hr>139</ns3:hr>
            <ns3:cad>0</ns3:cad>
          </ns3:TrackPointExtension>
        </extensions>
      </trkpt>
      <trkpt lat="44.67353400774300098419189453125" lon="6.78562964312732219696044921875">
        <ele>1766</ele>
        <time>2026-08-31T05:25:26.000Z</time>
        <extensions>
          <ns3:TrackPointExtension>
            <ns3:hr>139</ns3:hr>
            <ns3:cad>0</ns3:cad>
          </ns3:TrackPointExtension>
        </extensions>
      </trkpt>
      <trkpt lat="44.67353400774300098419189453125" lon="6.78562964312732219696044921875">
        <ele>1766</ele>
        <time>2026-08-31T05:25:27.000Z</time>
        <extensions>
          <ns3:TrackPointExtension>
            <ns3:hr>139</ns3:hr>
            <ns3:cad>0</ns3:cad>
          </ns3:TrackPointExtension>
        </extensions>
      </trkpt>
      <trkpt lat="44.67353400774300098419189453125" lon="6.78562964312732219696044921875">
        <ele>1766</ele>
        <time>2026-08-31T05:25:28.000Z</time>
        <extensions>
          <ns3:TrackPointExtension>
            <ns3:hr>139</ns3:hr>
            <ns3:cad>0</ns3:cad>
          </ns3:TrackPointExtension>
        </extensions>
      </trkpt>
      <trkpt lat="44.67353400774300098419189453125" lon="6.78562964312732219696044921875">
        <ele>1766</ele>
        <time>2026-08-31T05:25:29.000Z</time>
        <extensions>
          <ns3:TrackPointExtension>
            <ns3:hr>138</ns3:hr>
            <ns3:cad>0</ns3:cad>
          </ns3:TrackPointExtension>
        </extensions>
      </trkpt>
      <trkpt lat="44.67353702522814273834228515625" lon="6.78563618101179599761962890625">
        <ele>1766</ele>
        <time>2026-08-31T05:25:30.000Z</time>
        <extensions>
          <ns3:TrackPointExtension>
            <ns3:hr>138</ns3:hr>
            <ns3:cad>0</ns3:cad>
          </ns3:TrackPointExtension>
        </extensions>
      </trkpt>
      <trkpt lat="44.6735387854278087615966796875" lon="6.78563031367957592010498046875">
        <ele>1766</ele>
        <time>2026-08-31T05:25:31.000Z</time>
        <extensions>
          <ns3:TrackPointExtension>
            <ns3:hr>138</ns3:hr>
            <ns3:cad>0</ns3:cad>
          </ns3:TrackPointExtension>
        </extensions>
      </trkpt>
      <trkpt lat="44.67353400774300098419189453125" lon="6.78562964312732219696044921875">
        <ele>1766</ele>
        <time>2026-08-31T05:25:32.000Z</time>
        <extensions>
          <ns3:TrackPointExtension>
            <ns3:hr>137</ns3:hr>
            <ns3:cad>0</ns3:cad>
          </ns3:TrackPointExtension>
        </extensions>
      </trkpt>
      <trkpt lat="44.67353400774300098419189453125" lon="6.78562964312732219696044921875">
        <ele>1766</ele>
        <time>2026-08-31T05:25:33.000Z</time>
        <extensions>
          <ns3:TrackPointExtension>
            <ns3:hr>137</ns3:hr>
            <ns3:cad>0</ns3:cad>
          </ns3:TrackPointExtension>
        </extensions>
      </trkpt>
      <trkpt lat="44.67353400774300098419189453125" lon="6.78562964312732219696044921875">
        <ele>1766</ele>
        <time>2026-08-31T05:25:34.000Z</time>
        <extensions>
          <ns3:TrackPointExtension>
            <ns3:hr>137</ns3:hr>
            <ns3:cad>0</ns3:cad>
          </ns3:TrackPointExtension>
        </extensions>
      </trkpt>
      <trkpt lat="44.67353400774300098419189453125" lon="6.78562964312732219696044921875">
        <ele>1766</ele>
        <time>2026-08-31T05:25:35.000Z</time>
        <extensions>
          <ns3:TrackPointExtension>
            <ns3:hr>136</ns3:hr>
            <ns3:cad>0</ns3:cad>
          </ns3:TrackPointExtension>
        </extensions>
      </trkpt>
      <trkpt lat="44.67353400774300098419189453125" lon="6.78562964312732219696044921875">
        <ele>1766</ele>
        <time>2026-08-31T05:25:36.000Z</time>
        <extensions>
          <ns3:TrackPointExtension>
            <ns3:hr>136</ns3:hr>
            <ns3:cad>0</ns3:cad>
          </ns3:TrackPointExtension>
        </extensions>
      </trkpt>
      <trkpt lat="44.67353400774300098419189453125" lon="6.78562964312732219696044921875">
        <ele>1766</ele>
        <time>2026-08-31T05:25:37.000Z</time>
        <extensions>
          <ns3:TrackPointExtension>
            <ns3:hr>135</ns3:hr>
            <ns3:cad>0</ns3:cad>
          </ns3:TrackPointExtension>
        </extensions>
      </trkpt>
      <trkpt lat="44.67353400774300098419189453125" lon="6.78562964312732219696044921875">
        <ele>1766</ele>
        <time>2026-08-31T05:25:38.000Z</time>
        <extensions>
          <ns3:TrackPointExtension>
            <ns3:hr>135</ns3:hr>
            <ns3:cad>0</ns3:cad>
          </ns3:TrackPointExtension>
        </extensions>
      </trkpt>
      <trkpt lat="44.67353400774300098419189453125" lon="6.78562964312732219696044921875">
        <ele>1766</ele>
        <time>2026-08-31T05:25:39.000Z</time>
        <extensions>
          <ns3:TrackPointExtension>
            <ns3:hr>135</ns3:hr>
            <ns3:cad>0</ns3:cad>
          </ns3:TrackPointExtension>
        </extensions>
      </trkpt>
      <trkpt lat="44.67353400774300098419189453125" lon="6.78562964312732219696044921875">
        <ele>1765.800048828125</ele>
        <time>2026-08-31T05:25:40.000Z</time>
        <extensions>
          <ns3:TrackPointExtension>
            <ns3:hr>134</ns3:hr>
            <ns3:cad>0</ns3:cad>
          </ns3:TrackPointExtension>
        </extensions>
      </trkpt>
      <trkpt lat="44.67353400774300098419189453125" lon="6.78562964312732219696044921875">
        <ele>1765.800048828125</ele>
        <time>2026-08-31T05:25:41.000Z</time>
        <extensions>
          <ns3:TrackPointExtension>
            <ns3:hr>134</ns3:hr>
            <ns3:cad>0</ns3:cad>
          </ns3:TrackPointExtension>
        </extensions>
      </trkpt>
      <trkpt lat="44.67353400774300098419189453125" lon="6.78562964312732219696044921875">
        <ele>1765.5999755859375</ele>
        <time>2026-08-31T05:25:42.000Z</time>
        <extensions>
          <ns3:TrackPointExtension>
            <ns3:hr>134</ns3:hr>
            <ns3:cad>0</ns3:cad>
          </ns3:TrackPointExtension>
        </extensions>
      </trkpt>
      <trkpt lat="44.67353400774300098419189453125" lon="6.78562964312732219696044921875">
        <ele>1765.5999755859375</ele>
        <time>2026-08-31T05:25:43.000Z</time>
        <extensions>
          <ns3:TrackPointExtension>
            <ns3:hr>133</ns3:hr>
            <ns3:cad>0</ns3:cad>
          </ns3:TrackPointExtension>
        </extensions>
      </trkpt>
      <trkpt lat="44.67353400774300098419189453125" lon="6.78562964312732219696044921875">
        <ele>1765.4000244140625</ele>
        <time>2026-08-31T05:25:44.000Z</time>
        <extensions>
          <ns3:TrackPointExtension>
            <ns3:hr>133</ns3:hr>
            <ns3:cad>0</ns3:cad>
          </ns3:TrackPointExtension>
        </extensions>
      </trkpt>
      <trkpt lat="44.67353400774300098419189453125" lon="6.78562964312732219696044921875">
        <ele>1765.5999755859375</ele>
        <time>2026-08-31T05:25:45.000Z</time>
        <extensions>
          <ns3:TrackPointExtension>
            <ns3:hr>133</ns3:hr>
            <ns3:cad>0</ns3:cad>
          </ns3:TrackPointExtension>
        </extensions>
      </trkpt>
      <trkpt lat="44.67353400774300098419189453125" lon="6.78562964312732219696044921875">
        <ele>1765.5999755859375</ele>
        <time>2026-08-31T05:25:46.000Z</time>
        <extensions>
          <ns3:TrackPointExtension>
            <ns3:hr>133</ns3:hr>
            <ns3:cad>0</ns3:cad>
          </ns3:TrackPointExtension>
        </extensions>
      </trkpt>
      <trkpt lat="44.67353400774300098419189453125" lon="6.78562964312732219696044921875">
        <ele>1765.5999755859375</ele>
        <time>2026-08-31T05:25:47.000Z</time>
        <extensions>
          <ns3:TrackPointExtension>
            <ns3:hr>132</ns3:hr>
            <ns3:cad>0</ns3:cad>
          </ns3:TrackPointExtension>
        </extensions>
      </trkpt>
      <trkpt lat="44.67353400774300098419189453125" lon="6.78562964312732219696044921875">
        <ele>1765.5999755859375</ele>
        <time>2026-08-31T05:25:48.000Z</time>
        <extensions>
          <ns3:TrackPointExtension>
            <ns3:hr>132</ns3:hr>
            <ns3:cad>0</ns3:cad>
          </ns3:TrackPointExtension>
        </extensions>
      </trkpt>
      <trkpt lat="44.67353400774300098419189453125" lon="6.78562964312732219696044921875">
        <ele>1765.5999755859375</ele>
        <time>2026-08-31T05:25:49.000Z</time>
        <extensions>
          <ns3:TrackPointExtension>
            <ns3:hr>131</ns3:hr>
            <ns3:cad>0</ns3:cad>
          </ns3:TrackPointExtension>
        </extensions>
      </trkpt>
      <trkpt lat="44.67353400774300098419189453125" lon="6.78562964312732219696044921875">
        <ele>1765.5999755859375</ele>
        <time>2026-08-31T05:25:50.000Z</time>
        <extensions>
          <ns3:TrackPointExtension>
            <ns3:hr>131</ns3:hr>
            <ns3:cad>0</ns3:cad>
          </ns3:TrackPointExtension>
        </extensions>
      </trkpt>
      <trkpt lat="44.67353400774300098419189453125" lon="6.78562964312732219696044921875">
        <ele>1765.800048828125</ele>
        <time>2026-08-31T05:25:51.000Z</time>
        <extensions>
          <ns3:TrackPointExtension>
            <ns3:hr>130</ns3:hr>
            <ns3:cad>0</ns3:cad>
          </ns3:TrackPointExtension>
        </extensions>
      </trkpt>
      <trkpt lat="44.67353400774300098419189453125" lon="6.78562964312732219696044921875">
        <ele>1765.800048828125</ele>
        <time>2026-08-31T05:25:52.000Z</time>
        <extensions>
          <ns3:TrackPointExtension>
            <ns3:hr>129</ns3:hr>
            <ns3:cad>0</ns3:cad>
          </ns3:TrackPointExtension>
        </extensions>
      </trkpt>
      <trkpt lat="44.67353400774300098419189453125" lon="6.78562964312732219696044921875">
        <ele>1766</ele>
        <time>2026-08-31T05:25:53.000Z</time>
        <extensions>
          <ns3:TrackPointExtension>
            <ns3:hr>128</ns3:hr>
            <ns3:cad>0</ns3:cad>
          </ns3:TrackPointExtension>
        </extensions>
      </trkpt>
      <trkpt lat="44.67353400774300098419189453125" lon="6.78562964312732219696044921875">
        <ele>1766.199951171875</ele>
        <time>2026-08-31T05:25:54.000Z</time>
        <extensions>
          <ns3:TrackPointExtension>
            <ns3:hr>127</ns3:hr>
            <ns3:cad>0</ns3:cad>
          </ns3:TrackPointExtension>
        </extensions>
      </trkpt>
      <trkpt lat="44.67353400774300098419189453125" lon="6.78562964312732219696044921875">
        <ele>1766.199951171875</ele>
        <time>2026-08-31T05:25:55.000Z</time>
        <extensions>
          <ns3:TrackPointExtension>
            <ns3:hr>125</ns3:hr>
            <ns3:cad>0</ns3:cad>
          </ns3:TrackPointExtension>
        </extensions>
      </trkpt>
      <trkpt lat="44.673537947237491607666015625" lon="6.78563450463116168975830078125">
        <ele>1766.199951171875</ele>
        <time>2026-08-31T05:25:56.000Z</time>
        <extensions>
          <ns3:TrackPointExtension>
            <ns3:hr>122</ns3:hr>
            <ns3:cad>0</ns3:cad>
          </ns3:TrackPointExtension>
        </extensions>
      </trkpt>
      <trkpt lat="44.6735310740768909454345703125" lon="6.785643137991428375244140625">
        <ele>1766.199951171875</ele>
        <time>2026-08-31T05:25:57.000Z</time>
        <extensions>
          <ns3:TrackPointExtension>
            <ns3:hr>121</ns3:hr>
            <ns3:cad>0</ns3:cad>
          </ns3:TrackPointExtension>
        </extensions>
      </trkpt>
      <trkpt lat="44.6735334210097789764404296875" lon="6.7856449820101261138916015625">
        <ele>1766.199951171875</ele>
        <time>2026-08-31T05:25:58.000Z</time>
        <extensions>
          <ns3:TrackPointExtension>
            <ns3:hr>121</ns3:hr>
            <ns3:cad>0</ns3:cad>
          </ns3:TrackPointExtension>
        </extensions>
      </trkpt>
      <trkpt lat="44.67353065498173236846923828125" lon="6.78564607165753841400146484375">
        <ele>1766.199951171875</ele>
        <time>2026-08-31T05:25:59.000Z</time>
        <extensions>
          <ns3:TrackPointExtension>
            <ns3:hr>120</ns3:hr>
            <ns3:cad>0</ns3:cad>
          </ns3:TrackPointExtension>
        </extensions>
      </trkpt>
      <trkpt lat="44.67353400774300098419189453125" lon="6.78562964312732219696044921875">
        <ele>1766.199951171875</ele>
        <time>2026-08-31T05:26:00.000Z</time>
        <extensions>
          <ns3:TrackPointExtension>
            <ns3:hr>119</ns3:hr>
            <ns3:cad>0</ns3:cad>
          </ns3:TrackPointExtension>
        </extensions>
      </trkpt>
      <trkpt lat="44.67353400774300098419189453125" lon="6.78562964312732219696044921875">
        <ele>1766.199951171875</ele>
        <time>2026-08-31T05:26:01.000Z</time>
        <extensions>
          <ns3:TrackPointExtension>
            <ns3:hr>119</ns3:hr>
            <ns3:cad>0</ns3:cad>
          </ns3:TrackPointExtension>
        </extensions>
      </trkpt>
      <trkpt lat="44.67353400774300098419189453125" lon="6.78562964312732219696044921875">
        <ele>1766.199951171875</ele>
        <time>2026-08-31T05:26:02.000Z</time>
        <extensions>
          <ns3:TrackPointExtension>
            <ns3:hr>119</ns3:hr>
            <ns3:cad>0</ns3:cad>
          </ns3:TrackPointExtension>
        </extensions>
      </trkpt>
      <trkpt lat="44.67353400774300098419189453125" lon="6.78562964312732219696044921875">
        <ele>1766.199951171875</ele>
        <time>2026-08-31T05:26:03.000Z</time>
        <extensions>
          <ns3:TrackPointExtension>
            <ns3:hr>118</ns3:hr>
            <ns3:cad>0</ns3:cad>
          </ns3:TrackPointExtension>
        </extensions>
      </trkpt>
      <trkpt lat="44.67353400774300098419189453125" lon="6.78562964312732219696044921875">
        <ele>1766.199951171875</ele>
        <time>2026-08-31T05:26:04.000Z</time>
        <extensions>
          <ns3:TrackPointExtension>
            <ns3:hr>118</ns3:hr>
            <ns3:cad>0</ns3:cad>
          </ns3:TrackPointExtension>
        </extensions>
      </trkpt>
      <trkpt lat="44.67353400774300098419189453125" lon="6.78562964312732219696044921875">
        <ele>1766.199951171875</ele>
        <time>2026-08-31T05:26:05.000Z</time>
        <extensions>
          <ns3:TrackPointExtension>
            <ns3:hr>119</ns3:hr>
            <ns3:cad>0</ns3:cad>
          </ns3:TrackPointExtension>
        </extensions>
      </trkpt>
      <trkpt lat="44.67353400774300098419189453125" lon="6.78562964312732219696044921875">
        <ele>1766.199951171875</ele>
        <time>2026-08-31T05:26:06.000Z</time>
        <extensions>
          <ns3:TrackPointExtension>
            <ns3:hr>119</ns3:hr>
            <ns3:cad>0</ns3:cad>
          </ns3:TrackPointExtension>
        </extensions>
      </trkpt>
      <trkpt lat="44.67353400774300098419189453125" lon="6.78562964312732219696044921875">
        <ele>1766.199951171875</ele>
        <time>2026-08-31T05:26:07.000Z</time>
        <extensions>
          <ns3:TrackPointExtension>
            <ns3:hr>119</ns3:hr>
            <ns3:cad>0</ns3:cad>
          </ns3:TrackPointExtension>
        </extensions>
      </trkpt>
      <trkpt lat="44.67352889478206634521484375" lon="6.78564137779176235198974609375">
        <ele>1766.199951171875</ele>
        <time>2026-08-31T05:26:08.000Z</time>
        <extensions>
          <ns3:TrackPointExtension>
            <ns3:hr>119</ns3:hr>
            <ns3:cad>0</ns3:cad>
          </ns3:TrackPointExtension>
        </extensions>
      </trkpt>
      <trkpt lat="44.67353400774300098419189453125" lon="6.78562964312732219696044921875">
        <ele>1766.199951171875</ele>
        <time>2026-08-31T05:26:09.000Z</time>
        <extensions>
          <ns3:TrackPointExtension>
            <ns3:hr>118</ns3:hr>
            <ns3:cad>0</ns3:cad>
          </ns3:TrackPointExtension>
        </extensions>
      </trkpt>
      <trkpt lat="44.67353400774300098419189453125" lon="6.78562964312732219696044921875">
        <ele>1766.199951171875</ele>
        <time>2026-08-31T05:26:10.000Z</time>
        <extensions>
          <ns3:TrackPointExtension>
            <ns3:hr>118</ns3:hr>
            <ns3:cad>0</ns3:cad>
          </ns3:TrackPointExtension>
        </extensions>
      </trkpt>
      <trkpt lat="44.67353400774300098419189453125" lon="6.78562964312732219696044921875">
        <ele>1766.199951171875</ele>
        <time>2026-08-31T05:26:11.000Z</time>
        <extensions>
          <ns3:TrackPointExtension>
            <ns3:hr>118</ns3:hr>
            <ns3:cad>0</ns3:cad>
          </ns3:TrackPointExtension>
        </extensions>
      </trkpt>
      <trkpt lat="44.67353400774300098419189453125" lon="6.78562964312732219696044921875">
        <ele>1766.199951171875</ele>
        <time>2026-08-31T05:26:12.000Z</time>
        <extensions>
          <ns3:TrackPointExtension>
            <ns3:hr>117</ns3:hr>
            <ns3:cad>0</ns3:cad>
          </ns3:TrackPointExtension>
        </extensions>
      </trkpt>
      <trkpt lat="44.67353400774300098419189453125" lon="6.78562964312732219696044921875">
        <ele>1766.199951171875</ele>
        <time>2026-08-31T05:26:13.000Z</time>
        <extensions>
          <ns3:TrackPointExtension>
            <ns3:hr>117</ns3:hr>
            <ns3:cad>0</ns3:cad>
          </ns3:TrackPointExtension>
        </extensions>
      </trkpt>
      <trkpt lat="44.67353400774300098419189453125" lon="6.78562964312732219696044921875">
        <ele>1766.199951171875</ele>
        <time>2026-08-31T05:26:14.000Z</time>
        <extensions>
          <ns3:TrackPointExtension>
            <ns3:hr>117</ns3:hr>
            <ns3:cad>0</ns3:cad>
          </ns3:TrackPointExtension>
        </extensions>
      </trkpt>
      <trkpt lat="44.67353400774300098419189453125" lon="6.78562964312732219696044921875">
        <ele>1766.199951171875</ele>
        <time>2026-08-31T05:26:15.000Z</time>
        <extensions>
          <ns3:TrackPointExtension>
            <ns3:hr>117</ns3:hr>
            <ns3:cad>0</ns3:cad>
          </ns3:TrackPointExtension>
        </extensions>
      </trkpt>
      <trkpt lat="44.67353400774300098419189453125" lon="6.78562964312732219696044921875">
        <ele>1766.199951171875</ele>
        <time>2026-08-31T05:26:16.000Z</time>
        <extensions>
          <ns3:TrackPointExtension>
            <ns3:hr>117</ns3:hr>
            <ns3:cad>0</ns3:cad>
          </ns3:TrackPointExtension>
        </extensions>
      </trkpt>
      <trkpt lat="44.67353400774300098419189453125" lon="6.78562964312732219696044921875">
        <ele>1766.199951171875</ele>
        <time>2026-08-31T05:26:17.000Z</time>
        <extensions>
          <ns3:TrackPointExtension>
            <ns3:hr>117</ns3:hr>
            <ns3:cad>0</ns3:cad>
          </ns3:TrackPointExtension>
        </extensions>
      </trkpt>
      <trkpt lat="44.67353400774300098419189453125" lon="6.78562964312732219696044921875">
        <ele>1766.199951171875</ele>
        <time>2026-08-31T05:26:18.000Z</time>
        <extensions>
          <ns3:TrackPointExtension>
            <ns3:hr>117</ns3:hr>
            <ns3:cad>0</ns3:cad>
          </ns3:TrackPointExtension>
        </extensions>
      </trkpt>
      <trkpt lat="44.67353400774300098419189453125" lon="6.78562964312732219696044921875">
        <ele>1766.199951171875</ele>
        <time>2026-08-31T05:26:19.000Z</time>
        <extensions>
          <ns3:TrackPointExtension>
            <ns3:hr>117</ns3:hr>
            <ns3:cad>0</ns3:cad>
          </ns3:TrackPointExtension>
        </extensions>
      </trkpt>
      <trkpt lat="44.67353400774300098419189453125" lon="6.78562964312732219696044921875">
        <ele>1766.199951171875</ele>
        <time>2026-08-31T05:26:20.000Z</time>
        <extensions>
          <ns3:TrackPointExtension>
            <ns3:hr>116</ns3:hr>
            <ns3:cad>0</ns3:cad>
          </ns3:TrackPointExtension>
        </extensions>
      </trkpt>
      <trkpt lat="44.67353400774300098419189453125" lon="6.78562964312732219696044921875">
        <ele>1766.199951171875</ele>
        <time>2026-08-31T05:26:21.000Z</time>
        <extensions>
          <ns3:TrackPointExtension>
            <ns3:hr>117</ns3:hr>
            <ns3:cad>0</ns3:cad>
          </ns3:TrackPointExtension>
        </extensions>
      </trkpt>
      <trkpt lat="44.67353400774300098419189453125" lon="6.78562964312732219696044921875">
        <ele>1766.199951171875</ele>
        <time>2026-08-31T05:26:22.000Z</time>
        <extensions>
          <ns3:TrackPointExtension>
            <ns3:hr>117</ns3:hr>
            <ns3:cad>0</ns3:cad>
          </ns3:TrackPointExtension>
        </extensions>
      </trkpt>
      <trkpt lat="44.67353400774300098419189453125" lon="6.78562964312732219696044921875">
        <ele>1766.199951171875</ele>
        <time>2026-08-31T05:26:23.000Z</time>
        <extensions>
          <ns3:TrackPointExtension>
            <ns3:hr>116</ns3:hr>
            <ns3:cad>0</ns3:cad>
          </ns3:TrackPointExtension>
        </extensions>
      </trkpt>
      <trkpt lat="44.67353400774300098419189453125" lon="6.78562964312732219696044921875">
        <ele>1766.199951171875</ele>
        <time>2026-08-31T05:26:24.000Z</time>
        <extensions>
          <ns3:TrackPointExtension>
            <ns3:hr>117</ns3:hr>
            <ns3:cad>0</ns3:cad>
          </ns3:TrackPointExtension>
        </extensions>
      </trkpt>
      <trkpt lat="44.67353400774300098419189453125" lon="6.78562964312732219696044921875">
        <ele>1766.4000244140625</ele>
        <time>2026-08-31T05:26:25.000Z</time>
        <extensions>
          <ns3:TrackPointExtension>
            <ns3:hr>117</ns3:hr>
            <ns3:cad>0</ns3:cad>
          </ns3:TrackPointExtension>
        </extensions>
      </trkpt>
      <trkpt lat="44.67353400774300098419189453125" lon="6.78562964312732219696044921875">
        <ele>1766.4000244140625</ele>
        <time>2026-08-31T05:26:26.000Z</time>
        <extensions>
          <ns3:TrackPointExtension>
            <ns3:hr>116</ns3:hr>
            <ns3:cad>0</ns3:cad>
          </ns3:TrackPointExtension>
        </extensions>
      </trkpt>
      <trkpt lat="44.67353400774300098419189453125" lon="6.78562964312732219696044921875">
        <ele>1766.4000244140625</ele>
        <time>2026-08-31T05:26:27.000Z</time>
        <extensions>
          <ns3:TrackPointExtension>
            <ns3:hr>116</ns3:hr>
            <ns3:cad>0</ns3:cad>
          </ns3:TrackPointExtension>
        </extensions>
      </trkpt>
      <trkpt lat="44.67353266663849353790283203125" lon="6.78563299588859081268310546875">
        <ele>1766.4000244140625</ele>
        <time>2026-08-31T05:26:28.000Z</time>
        <extensions>
          <ns3:TrackPointExtension>
            <ns3:hr>116</ns3:hr>
            <ns3:cad>0</ns3:cad>
          </ns3:TrackPointExtension>
        </extensions>
      </trkpt>
      <trkpt lat="44.67353484593331813812255859375" lon="6.78563131950795650482177734375">
        <ele>1766.4000244140625</ele>
        <time>2026-08-31T05:26:29.000Z</time>
        <extensions>
          <ns3:TrackPointExtension>
            <ns3:hr>116</ns3:hr>
            <ns3:cad>0</ns3:cad>
          </ns3:TrackPointExtension>
        </extensions>
      </trkpt>
      <trkpt lat="44.67353803105652332305908203125" lon="6.78562939167022705078125">
        <ele>1766.4000244140625</ele>
        <time>2026-08-31T05:26:30.000Z</time>
        <extensions>
          <ns3:TrackPointExtension>
            <ns3:hr>116</ns3:hr>
            <ns3:cad>0</ns3:cad>
          </ns3:TrackPointExtension>
        </extensions>
      </trkpt>
      <trkpt lat="44.6735377795994281768798828125" lon="6.78563165478408336639404296875">
        <ele>1766.199951171875</ele>
        <time>2026-08-31T05:26:31.000Z</time>
        <extensions>
          <ns3:TrackPointExtension>
            <ns3:hr>116</ns3:hr>
            <ns3:cad>0</ns3:cad>
          </ns3:TrackPointExtension>
        </extensions>
      </trkpt>
      <trkpt lat="44.67353736050426959991455078125" lon="6.785637438297271728515625">
        <ele>1766.199951171875</ele>
        <time>2026-08-31T05:26:32.000Z</time>
        <extensions>
          <ns3:TrackPointExtension>
            <ns3:hr>116</ns3:hr>
            <ns3:cad>0</ns3:cad>
          </ns3:TrackPointExtension>
        </extensions>
      </trkpt>
      <trkpt lat="44.67353400774300098419189453125" lon="6.78562964312732219696044921875">
        <ele>1766.199951171875</ele>
        <time>2026-08-31T05:26:33.000Z</time>
        <extensions>
          <ns3:TrackPointExtension>
            <ns3:hr>116</ns3:hr>
            <ns3:cad>0</ns3:cad>
          </ns3:TrackPointExtension>
        </extensions>
      </trkpt>
      <trkpt lat="44.67353400774300098419189453125" lon="6.78562964312732219696044921875">
        <ele>1766.199951171875</ele>
        <time>2026-08-31T05:26:34.000Z</time>
        <extensions>
          <ns3:TrackPointExtension>
            <ns3:hr>115</ns3:hr>
            <ns3:cad>0</ns3:cad>
          </ns3:TrackPointExtension>
        </extensions>
      </trkpt>
      <trkpt lat="44.67353400774300098419189453125" lon="6.78562964312732219696044921875">
        <ele>1766.199951171875</ele>
        <time>2026-08-31T05:26:35.000Z</time>
        <extensions>
          <ns3:TrackPointExtension>
            <ns3:hr>115</ns3:hr>
            <ns3:cad>0</ns3:cad>
          </ns3:TrackPointExtension>
        </extensions>
      </trkpt>
      <trkpt lat="44.67353400774300098419189453125" lon="6.78562964312732219696044921875">
        <ele>1766.199951171875</ele>
        <time>2026-08-31T05:26:36.000Z</time>
        <extensions>
          <ns3:TrackPointExtension>
            <ns3:hr>115</ns3:hr>
            <ns3:cad>0</ns3:cad>
          </ns3:TrackPointExtension>
        </extensions>
      </trkpt>
      <trkpt lat="44.67353400774300098419189453125" lon="6.78562964312732219696044921875">
        <ele>1766.199951171875</ele>
        <time>2026-08-31T05:26:37.000Z</time>
        <extensions>
          <ns3:TrackPointExtension>
            <ns3:hr>116</ns3:hr>
            <ns3:cad>0</ns3:cad>
          </ns3:TrackPointExtension>
        </extensions>
      </trkpt>
      <trkpt lat="44.67353400774300098419189453125" lon="6.78562964312732219696044921875">
        <ele>1766.199951171875</ele>
        <time>2026-08-31T05:26:38.000Z</time>
        <extensions>
          <ns3:TrackPointExtension>
            <ns3:hr>116</ns3:hr>
            <ns3:cad>0</ns3:cad>
          </ns3:TrackPointExtension>
        </extensions>
      </trkpt>
      <trkpt lat="44.67353400774300098419189453125" lon="6.78562964312732219696044921875">
        <ele>1766.199951171875</ele>
        <time>2026-08-31T05:26:39.000Z</time>
        <extensions>
          <ns3:TrackPointExtension>
            <ns3:hr>116</ns3:hr>
            <ns3:cad>0</ns3:cad>
          </ns3:TrackPointExtension>
        </extensions>
      </trkpt>
      <trkpt lat="44.67353400774300098419189453125" lon="6.78562964312732219696044921875">
        <ele>1766.199951171875</ele>
        <time>2026-08-31T05:26:40.000Z</time>
        <extensions>
          <ns3:TrackPointExtension>
            <ns3:hr>116</ns3:hr>
            <ns3:cad>0</ns3:cad>
          </ns3:TrackPointExtension>
        </extensions>
      </trkpt>
      <trkpt lat="44.67353400774300098419189453125" lon="6.78562964312732219696044921875">
        <ele>1766.199951171875</ele>
        <time>2026-08-31T05:26:41.000Z</time>
        <extensions>
          <ns3:TrackPointExtension>
            <ns3:hr>116</ns3:hr>
            <ns3:cad>0</ns3:cad>
          </ns3:TrackPointExtension>
        </extensions>
      </trkpt>
      <trkpt lat="44.67353400774300098419189453125" lon="6.78562964312732219696044921875">
        <ele>1766.199951171875</ele>
        <time>2026-08-31T05:26:42.000Z</time>
        <extensions>
          <ns3:TrackPointExtension>
            <ns3:hr>116</ns3:hr>
            <ns3:cad>0</ns3:cad>
          </ns3:TrackPointExtension>
        </extensions>
      </trkpt>
      <trkpt lat="44.67353400774300098419189453125" lon="6.78562964312732219696044921875">
        <ele>1766.199951171875</ele>
        <time>2026-08-31T05:26:43.000Z</time>
        <extensions>
          <ns3:TrackPointExtension>
            <ns3:hr>115</ns3:hr>
            <ns3:cad>0</ns3:cad>
          </ns3:TrackPointExtension>
        </extensions>
      </trkpt>
      <trkpt lat="44.67353668995201587677001953125" lon="6.785640455782413482666015625">
        <ele>1766.199951171875</ele>
        <time>2026-08-31T05:26:44.000Z</time>
        <extensions>
          <ns3:TrackPointExtension>
            <ns3:hr>115</ns3:hr>
            <ns3:cad>0</ns3:cad>
          </ns3:TrackPointExtension>
        </extensions>
      </trkpt>
      <trkpt lat="44.673536606132984161376953125" lon="6.78565017879009246826171875">
        <ele>1766.199951171875</ele>
        <time>2026-08-31T05:26:45.000Z</time>
        <extensions>
          <ns3:TrackPointExtension>
            <ns3:hr>114</ns3:hr>
            <ns3:cad>0</ns3:cad>
          </ns3:TrackPointExtension>
        </extensions>
      </trkpt>
      <trkpt lat="44.6735334210097789764404296875" lon="6.785649843513965606689453125">
        <ele>1766.199951171875</ele>
        <time>2026-08-31T05:26:46.000Z</time>
        <extensions>
          <ns3:TrackPointExtension>
            <ns3:hr>114</ns3:hr>
            <ns3:cad>0</ns3:cad>
          </ns3:TrackPointExtension>
        </extensions>
      </trkpt>
      <trkpt lat="44.67353400774300098419189453125" lon="6.78562964312732219696044921875">
        <ele>1766.199951171875</ele>
        <time>2026-08-31T05:26:47.000Z</time>
        <extensions>
          <ns3:TrackPointExtension>
            <ns3:hr>113</ns3:hr>
            <ns3:cad>0</ns3:cad>
          </ns3:TrackPointExtension>
        </extensions>
      </trkpt>
      <trkpt lat="44.67353400774300098419189453125" lon="6.78562964312732219696044921875">
        <ele>1766.199951171875</ele>
        <time>2026-08-31T05:26:48.000Z</time>
        <extensions>
          <ns3:TrackPointExtension>
            <ns3:hr>113</ns3:hr>
            <ns3:cad>0</ns3:cad>
          </ns3:TrackPointExtension>
        </extensions>
      </trkpt>
      <trkpt lat="44.67353400774300098419189453125" lon="6.78562964312732219696044921875">
        <ele>1766.199951171875</ele>
        <time>2026-08-31T05:26:49.000Z</time>
        <extensions>
          <ns3:TrackPointExtension>
            <ns3:hr>112</ns3:hr>
            <ns3:cad>0</ns3:cad>
          </ns3:TrackPointExtension>
        </extensions>
      </trkpt>
      <trkpt lat="44.67353400774300098419189453125" lon="6.78562964312732219696044921875">
        <ele>1766.199951171875</ele>
        <time>2026-08-31T05:26:50.000Z</time>
        <extensions>
          <ns3:TrackPointExtension>
            <ns3:hr>112</ns3:hr>
            <ns3:cad>0</ns3:cad>
          </ns3:TrackPointExtension>
        </extensions>
      </trkpt>
      <trkpt lat="44.67353400774300098419189453125" lon="6.78562964312732219696044921875">
        <ele>1766.199951171875</ele>
        <time>2026-08-31T05:26:51.000Z</time>
        <extensions>
          <ns3:TrackPointExtension>
            <ns3:hr>112</ns3:hr>
            <ns3:cad>0</ns3:cad>
          </ns3:TrackPointExtension>
        </extensions>
      </trkpt>
      <trkpt lat="44.67353400774300098419189453125" lon="6.78562964312732219696044921875">
        <ele>1766.199951171875</ele>
        <time>2026-08-31T05:26:52.000Z</time>
        <extensions>
          <ns3:TrackPointExtension>
            <ns3:hr>112</ns3:hr>
            <ns3:cad>0</ns3:cad>
          </ns3:TrackPointExtension>
        </extensions>
      </trkpt>
      <trkpt lat="44.67353400774300098419189453125" lon="6.78562964312732219696044921875">
        <ele>1766.4000244140625</ele>
        <time>2026-08-31T05:26:53.000Z</time>
        <extensions>
          <ns3:TrackPointExtension>
            <ns3:hr>112</ns3:hr>
            <ns3:cad>0</ns3:cad>
          </ns3:TrackPointExtension>
        </extensions>
      </trkpt>
      <trkpt lat="44.6735330857336521148681640625" lon="6.78564506582915782928466796875">
        <ele>1766.4000244140625</ele>
        <time>2026-08-31T05:26:54.000Z</time>
        <extensions>
          <ns3:TrackPointExtension>
            <ns3:hr>111</ns3:hr>
            <ns3:cad>0</ns3:cad>
          </ns3:TrackPointExtension>
        </extensions>
      </trkpt>
      <trkpt lat="44.6735307388007640838623046875" lon="6.78564121015369892120361328125">
        <ele>1766.4000244140625</ele>
        <time>2026-08-31T05:26:55.000Z</time>
        <extensions>
          <ns3:TrackPointExtension>
            <ns3:hr>110</ns3:hr>
            <ns3:cad>0</ns3:cad>
          </ns3:TrackPointExtension>
        </extensions>
      </trkpt>
      <trkpt lat="44.67353400774300098419189453125" lon="6.78562964312732219696044921875">
        <ele>1766.4000244140625</ele>
        <time>2026-08-31T05:26:56.000Z</time>
        <extensions>
          <ns3:TrackPointExtension>
            <ns3:hr>109</ns3:hr>
            <ns3:cad>84</ns3:cad>
          </ns3:TrackPointExtension>
        </extensions>
      </trkpt>
      <trkpt lat="44.6735310740768909454345703125" lon="6.78563483990728855133056640625">
        <ele>1766.4000244140625</ele>
        <time>2026-08-31T05:26:57.000Z</time>
        <extensions>
          <ns3:TrackPointExtension>
            <ns3:hr>108</ns3:hr>
            <ns3:cad>84</ns3:cad>
          </ns3:TrackPointExtension>
        </extensions>
      </trkpt>
      <trkpt lat="44.6735350973904132843017578125" lon="6.7856339178979396820068359375">
        <ele>1766.4000244140625</ele>
        <time>2026-08-31T05:26:58.000Z</time>
        <extensions>
          <ns3:TrackPointExtension>
            <ns3:hr>106</ns3:hr>
            <ns3:cad>0</ns3:cad>
          </ns3:TrackPointExtension>
        </extensions>
      </trkpt>
      <trkpt lat="44.67353886924684047698974609375" lon="6.785634420812129974365234375">
        <ele>1766.4000244140625</ele>
        <time>2026-08-31T05:26:59.000Z</time>
        <extensions>
          <ns3:TrackPointExtension>
            <ns3:hr>105</ns3:hr>
            <ns3:cad>0</ns3:cad>
          </ns3:TrackPointExtension>
        </extensions>
      </trkpt>
      <trkpt lat="44.6735491789877414703369140625" lon="6.78563944995403289794921875">
        <ele>1766.4000244140625</ele>
        <time>2026-08-31T05:27:00.000Z</time>
        <extensions>
          <ns3:TrackPointExtension>
            <ns3:hr>105</ns3:hr>
            <ns3:cad>0</ns3:cad>
          </ns3:TrackPointExtension>
        </extensions>
      </trkpt>
      <trkpt lat="44.6735578961670398712158203125" lon="6.78564422763884067535400390625">
        <ele>1766.4000244140625</ele>
        <time>2026-08-31T05:27:01.000Z</time>
        <extensions>
          <ns3:TrackPointExtension>
            <ns3:hr>105</ns3:hr>
            <ns3:cad>0</ns3:cad>
          </ns3:TrackPointExtension>
        </extensions>
      </trkpt>
      <trkpt lat="44.673567451536655426025390625" lon="6.7856516875326633453369140625">
        <ele>1766.5999755859375</ele>
        <time>2026-08-31T05:27:02.000Z</time>
        <extensions>
          <ns3:TrackPointExtension>
            <ns3:hr>105</ns3:hr>
            <ns3:cad>0</ns3:cad>
          </ns3:TrackPointExtension>
        </extensions>
      </trkpt>
      <trkpt lat="44.6735786832869052886962890625" lon="6.78565395064651966094970703125">
        <ele>1766.800048828125</ele>
        <time>2026-08-31T05:27:03.000Z</time>
        <extensions>
          <ns3:TrackPointExtension>
            <ns3:hr>105</ns3:hr>
            <ns3:cad>0</ns3:cad>
          </ns3:TrackPointExtension>
        </extensions>
      </trkpt>
      <trkpt lat="44.673588909208774566650390625" lon="6.7856580577790737152099609375">
        <ele>1766.800048828125</ele>
        <time>2026-08-31T05:27:04.000Z</time>
        <extensions>
          <ns3:TrackPointExtension>
            <ns3:hr>106</ns3:hr>
            <ns3:cad>0</ns3:cad>
          </ns3:TrackPointExtension>
        </extensions>
      </trkpt>
      <trkpt lat="44.67359804548323154449462890625" lon="6.78566250018775463104248046875">
        <ele>1767</ele>
        <time>2026-08-31T05:27:05.000Z</time>
        <extensions>
          <ns3:TrackPointExtension>
            <ns3:hr>106</ns3:hr>
            <ns3:cad>0</ns3:cad>
          </ns3:TrackPointExtension>
        </extensions>
      </trkpt>
      <trkpt lat="44.67360709793865680694580078125" lon="6.785663925111293792724609375">
        <ele>1767</ele>
        <time>2026-08-31T05:27:06.000Z</time>
        <extensions>
          <ns3:TrackPointExtension>
            <ns3:hr>106</ns3:hr>
            <ns3:cad>0</ns3:cad>
          </ns3:TrackPointExtension>
        </extensions>
      </trkpt>
      <trkpt lat="44.67361346818506717681884765625" lon="6.78566618822515010833740234375">
        <ele>1767</ele>
        <time>2026-08-31T05:27:07.000Z</time>
        <extensions>
          <ns3:TrackPointExtension>
            <ns3:hr>107</ns3:hr>
            <ns3:cad>0</ns3:cad>
          </ns3:TrackPointExtension>
        </extensions>
      </trkpt>
      <trkpt lat="44.6736215986311435699462890625" lon="6.7856785096228122711181640625">
        <ele>1767.199951171875</ele>
        <time>2026-08-31T05:27:08.000Z</time>
        <extensions>
          <ns3:TrackPointExtension>
            <ns3:hr>107</ns3:hr>
            <ns3:cad>52</ns3:cad>
          </ns3:TrackPointExtension>
        </extensions>
      </trkpt>
      <trkpt lat="44.67362754978239536285400390625" lon="6.78568664006888866424560546875">
        <ele>1767.4000244140625</ele>
        <time>2026-08-31T05:27:09.000Z</time>
        <extensions>
          <ns3:TrackPointExtension>
            <ns3:hr>108</ns3:hr>
            <ns3:cad>52</ns3:cad>
          </ns3:TrackPointExtension>
        </extensions>
      </trkpt>
      <trkpt lat="44.67363593168556690216064453125" lon="6.7856956087052822113037109375">
        <ele>1767.4000244140625</ele>
        <time>2026-08-31T05:27:10.000Z</time>
        <extensions>
          <ns3:TrackPointExtension>
            <ns3:hr>108</ns3:hr>
            <ns3:cad>52</ns3:cad>
          </ns3:TrackPointExtension>
        </extensions>
      </trkpt>
      <trkpt lat="44.673645235598087310791015625" lon="6.785704828798770904541015625">
        <ele>1767.5999755859375</ele>
        <time>2026-08-31T05:27:11.000Z</time>
        <extensions>
          <ns3:TrackPointExtension>
            <ns3:hr>109</ns3:hr>
            <ns3:cad>52</ns3:cad>
          </ns3:TrackPointExtension>
        </extensions>
      </trkpt>
      <trkpt lat="44.67365453951060771942138671875" lon="6.78571446798741817474365234375">
        <ele>1767.800048828125</ele>
        <time>2026-08-31T05:27:12.000Z</time>
        <extensions>
          <ns3:TrackPointExtension>
            <ns3:hr>109</ns3:hr>
            <ns3:cad>52</ns3:cad>
          </ns3:TrackPointExtension>
        </extensions>
      </trkpt>
      <trkpt lat="44.6736614964902400970458984375" lon="6.78572268225252628326416015625">
        <ele>1767.800048828125</ele>
        <time>2026-08-31T05:27:13.000Z</time>
        <extensions>
          <ns3:TrackPointExtension>
            <ns3:hr>109</ns3:hr>
            <ns3:cad>52</ns3:cad>
          </ns3:TrackPointExtension>
        </extensions>
      </trkpt>
      <trkpt lat="44.673668034374713897705078125" lon="6.785731650888919830322265625">
        <ele>1768</ele>
        <time>2026-08-31T05:27:14.000Z</time>
        <extensions>
          <ns3:TrackPointExtension>
            <ns3:hr>109</ns3:hr>
            <ns3:cad>49</ns3:cad>
          </ns3:TrackPointExtension>
        </extensions>
      </trkpt>
      <trkpt lat="44.6736745722591876983642578125" lon="6.78573944605886936187744140625">
        <ele>1768.199951171875</ele>
        <time>2026-08-31T05:27:15.000Z</time>
        <extensions>
          <ns3:TrackPointExtension>
            <ns3:hr>109</ns3:hr>
            <ns3:cad>49</ns3:cad>
          </ns3:TrackPointExtension>
        </extensions>
      </trkpt>
      <trkpt lat="44.673680104315280914306640625" lon="6.78575386293232440948486328125">
        <ele>1768.199951171875</ele>
        <time>2026-08-31T05:27:16.000Z</time>
        <extensions>
          <ns3:TrackPointExtension>
            <ns3:hr>110</ns3:hr>
            <ns3:cad>49</ns3:cad>
          </ns3:TrackPointExtension>
        </extensions>
      </trkpt>
      <trkpt lat="44.67368387617170810699462890625" lon="6.7857675254344940185546875">
        <ele>1768.4000244140625</ele>
        <time>2026-08-31T05:27:17.000Z</time>
        <extensions>
          <ns3:TrackPointExtension>
            <ns3:hr>110</ns3:hr>
            <ns3:cad>49</ns3:cad>
          </ns3:TrackPointExtension>
        </extensions>
      </trkpt>
      <trkpt lat="44.67367867939174175262451171875" lon="6.78578286431729793548583984375">
        <ele>1768.5999755859375</ele>
        <time>2026-08-31T05:27:18.000Z</time>
        <extensions>
          <ns3:TrackPointExtension>
            <ns3:hr>111</ns3:hr>
            <ns3:cad>49</ns3:cad>
          </ns3:TrackPointExtension>
        </extensions>
      </trkpt>
      <trkpt lat="44.67368043959140777587890625" lon="6.785797365009784698486328125">
        <ele>1768.800048828125</ele>
        <time>2026-08-31T05:27:19.000Z</time>
        <extensions>
          <ns3:TrackPointExtension>
            <ns3:hr>112</ns3:hr>
            <ns3:cad>49</ns3:cad>
          </ns3:TrackPointExtension>
        </extensions>
      </trkpt>
      <trkpt lat="44.67367968522012233734130859375" lon="6.78581253625452518463134765625">
        <ele>1769</ele>
        <time>2026-08-31T05:27:20.000Z</time>
        <extensions>
          <ns3:TrackPointExtension>
            <ns3:hr>113</ns3:hr>
            <ns3:cad>64</ns3:cad>
          </ns3:TrackPointExtension>
        </extensions>
      </trkpt>
      <trkpt lat="44.67367817647755146026611328125" lon="6.78582862950861454010009765625">
        <ele>1769.199951171875</ele>
        <time>2026-08-31T05:27:21.000Z</time>
        <extensions>
          <ns3:TrackPointExtension>
            <ns3:hr>113</ns3:hr>
            <ns3:cad>64</ns3:cad>
          </ns3:TrackPointExtension>
        </extensions>
      </trkpt>
      <trkpt lat="44.67367700301110744476318359375" lon="6.78584329783916473388671875">
        <ele>1769.4000244140625</ele>
        <time>2026-08-31T05:27:22.000Z</time>
        <extensions>
          <ns3:TrackPointExtension>
            <ns3:hr>114</ns3:hr>
            <ns3:cad>0</ns3:cad>
          </ns3:TrackPointExtension>
        </extensions>
      </trkpt>
      <trkpt lat="44.673675410449504852294921875" lon="6.7858587205410003662109375">
        <ele>1769.5999755859375</ele>
        <time>2026-08-31T05:27:23.000Z</time>
        <extensions>
          <ns3:TrackPointExtension>
            <ns3:hr>115</ns3:hr>
            <ns3:cad>0</ns3:cad>
          </ns3:TrackPointExtension>
        </extensions>
      </trkpt>
      <trkpt lat="44.67367348261177539825439453125" lon="6.78587556816637516021728515625">
        <ele>1769.800048828125</ele>
        <time>2026-08-31T05:27:24.000Z</time>
        <extensions>
          <ns3:TrackPointExtension>
            <ns3:hr>116</ns3:hr>
            <ns3:cad>0</ns3:cad>
          </ns3:TrackPointExtension>
        </extensions>
      </trkpt>
      <trkpt lat="44.6736692078411579132080078125" lon="6.78589166142046451568603515625">
        <ele>1769.800048828125</ele>
        <time>2026-08-31T05:27:25.000Z</time>
        <extensions>
          <ns3:TrackPointExtension>
            <ns3:hr>116</ns3:hr>
            <ns3:cad>0</ns3:cad>
          </ns3:TrackPointExtension>
        </extensions>
      </trkpt>
      <trkpt lat="44.67366660945117473602294921875" lon="6.78590758703649044036865234375">
        <ele>1770</ele>
        <time>2026-08-31T05:27:26.000Z</time>
        <extensions>
          <ns3:TrackPointExtension>
            <ns3:hr>117</ns3:hr>
            <ns3:cad>0</ns3:cad>
          </ns3:TrackPointExtension>
        </extensions>
      </trkpt>
      <trkpt lat="44.67366426251828670501708984375" lon="6.78591731004416942596435546875">
        <ele>1770.199951171875</ele>
        <time>2026-08-31T05:27:27.000Z</time>
        <extensions>
          <ns3:TrackPointExtension>
            <ns3:hr>118</ns3:hr>
            <ns3:cad>0</ns3:cad>
          </ns3:TrackPointExtension>
        </extensions>
      </trkpt>
      <trkpt lat="44.6736625023186206817626953125" lon="6.78593222983181476593017578125">
        <ele>1770.4000244140625</ele>
        <time>2026-08-31T05:27:28.000Z</time>
        <extensions>
          <ns3:TrackPointExtension>
            <ns3:hr>119</ns3:hr>
            <ns3:cad>0</ns3:cad>
          </ns3:TrackPointExtension>
        </extensions>
      </trkpt>
      <trkpt lat="44.6736596524715423583984375" lon="6.78594463504850864410400390625">
        <ele>1770.4000244140625</ele>
        <time>2026-08-31T05:27:29.000Z</time>
        <extensions>
          <ns3:TrackPointExtension>
            <ns3:hr>119</ns3:hr>
            <ns3:cad>0</ns3:cad>
          </ns3:TrackPointExtension>
        </extensions>
      </trkpt>
      <trkpt lat="44.6736594848334789276123046875" lon="6.7859467305243015289306640625">
        <ele>1770.5999755859375</ele>
        <time>2026-08-31T05:27:30.000Z</time>
        <extensions>
          <ns3:TrackPointExtension>
            <ns3:hr>120</ns3:hr>
            <ns3:cad>0</ns3:cad>
          </ns3:TrackPointExtension>
        </extensions>
      </trkpt>
      <trkpt lat="44.67365923337638378143310546875" lon="6.7859531007707118988037109375">
        <ele>1770.800048828125</ele>
        <time>2026-08-31T05:27:31.000Z</time>
        <extensions>
          <ns3:TrackPointExtension>
            <ns3:hr>121</ns3:hr>
            <ns3:cad>0</ns3:cad>
          </ns3:TrackPointExtension>
        </extensions>
      </trkpt>
      <trkpt lat="44.6736537851393222808837890625" lon="6.78594748489558696746826171875">
        <ele>1770.800048828125</ele>
        <time>2026-08-31T05:27:32.000Z</time>
        <extensions>
          <ns3:TrackPointExtension>
            <ns3:hr>122</ns3:hr>
            <ns3:cad>0</ns3:cad>
          </ns3:TrackPointExtension>
        </extensions>
      </trkpt>
      <trkpt lat="44.673651270568370819091796875" lon="6.78594681434333324432373046875">
        <ele>1771</ele>
        <time>2026-08-31T05:27:33.000Z</time>
        <extensions>
          <ns3:TrackPointExtension>
            <ns3:hr>123</ns3:hr>
            <ns3:cad>0</ns3:cad>
          </ns3:TrackPointExtension>
        </extensions>
      </trkpt>
      <trkpt lat="44.67365135438740253448486328125" lon="6.78594681434333324432373046875">
        <ele>1771</ele>
        <time>2026-08-31T05:27:34.000Z</time>
        <extensions>
          <ns3:TrackPointExtension>
            <ns3:hr>123</ns3:hr>
            <ns3:cad>0</ns3:cad>
          </ns3:TrackPointExtension>
        </extensions>
      </trkpt>
      <trkpt lat="44.67365135438740253448486328125" lon="6.78594681434333324432373046875">
        <ele>1771</ele>
        <time>2026-08-31T05:27:35.000Z</time>
        <extensions>
          <ns3:TrackPointExtension>
            <ns3:hr>123</ns3:hr>
            <ns3:cad>0</ns3:cad>
          </ns3:TrackPointExtension>
        </extensions>
      </trkpt>
      <trkpt lat="44.67365135438740253448486328125" lon="6.78594681434333324432373046875">
        <ele>1771</ele>
        <time>2026-08-31T05:27:36.000Z</time>
        <extensions>
          <ns3:TrackPointExtension>
            <ns3:hr>124</ns3:hr>
            <ns3:cad>0</ns3:cad>
          </ns3:TrackPointExtension>
        </extensions>
      </trkpt>
      <trkpt lat="44.67365135438740253448486328125" lon="6.78594681434333324432373046875">
        <ele>1771</ele>
        <time>2026-08-31T05:27:37.000Z</time>
        <extensions>
          <ns3:TrackPointExtension>
            <ns3:hr>124</ns3:hr>
            <ns3:cad>0</ns3:cad>
          </ns3:TrackPointExtension>
        </extensions>
      </trkpt>
      <trkpt lat="44.67365135438740253448486328125" lon="6.78594681434333324432373046875">
        <ele>1771</ele>
        <time>2026-08-31T05:27:38.000Z</time>
        <extensions>
          <ns3:TrackPointExtension>
            <ns3:hr>124</ns3:hr>
            <ns3:cad>0</ns3:cad>
          </ns3:TrackPointExtension>
        </extensions>
      </trkpt>
      <trkpt lat="44.67365135438740253448486328125" lon="6.78594681434333324432373046875">
        <ele>1771</ele>
        <time>2026-08-31T05:27:39.000Z</time>
        <extensions>
          <ns3:TrackPointExtension>
            <ns3:hr>125</ns3:hr>
            <ns3:cad>0</ns3:cad>
          </ns3:TrackPointExtension>
        </extensions>
      </trkpt>
      <trkpt lat="44.67365101911127567291259765625" lon="6.785946898162364959716796875">
        <ele>1771.199951171875</ele>
        <time>2026-08-31T05:27:40.000Z</time>
        <extensions>
          <ns3:TrackPointExtension>
            <ns3:hr>125</ns3:hr>
            <ns3:cad>0</ns3:cad>
          </ns3:TrackPointExtension>
        </extensions>
      </trkpt>
      <trkpt lat="44.673647917807102203369140625" lon="6.78594597615301609039306640625">
        <ele>1771.199951171875</ele>
        <time>2026-08-31T05:27:41.000Z</time>
        <extensions>
          <ns3:TrackPointExtension>
            <ns3:hr>124</ns3:hr>
            <ns3:cad>0</ns3:cad>
          </ns3:TrackPointExtension>
        </extensions>
      </trkpt>
      <trkpt lat="44.67364783398807048797607421875" lon="6.78594010882079601287841796875">
        <ele>1771.199951171875</ele>
        <time>2026-08-31T05:27:42.000Z</time>
        <extensions>
          <ns3:TrackPointExtension>
            <ns3:hr>124</ns3:hr>
            <ns3:cad>0</ns3:cad>
          </ns3:TrackPointExtension>
        </extensions>
      </trkpt>
      <trkpt lat="44.67365135438740253448486328125" lon="6.78594681434333324432373046875">
        <ele>1771.199951171875</ele>
        <time>2026-08-31T05:27:43.000Z</time>
        <extensions>
          <ns3:TrackPointExtension>
            <ns3:hr>124</ns3:hr>
            <ns3:cad>0</ns3:cad>
          </ns3:TrackPointExtension>
        </extensions>
      </trkpt>
      <trkpt lat="44.67365135438740253448486328125" lon="6.78594681434333324432373046875">
        <ele>1771.199951171875</ele>
        <time>2026-08-31T05:27:44.000Z</time>
        <extensions>
          <ns3:TrackPointExtension>
            <ns3:hr>124</ns3:hr>
            <ns3:cad>0</ns3:cad>
          </ns3:TrackPointExtension>
        </extensions>
      </trkpt>
      <trkpt lat="44.67365135438740253448486328125" lon="6.78594681434333324432373046875">
        <ele>1771</ele>
        <time>2026-08-31T05:27:45.000Z</time>
        <extensions>
          <ns3:TrackPointExtension>
            <ns3:hr>123</ns3:hr>
            <ns3:cad>0</ns3:cad>
          </ns3:TrackPointExtension>
        </extensions>
      </trkpt>
      <trkpt lat="44.67365135438740253448486328125" lon="6.78594681434333324432373046875">
        <ele>1771</ele>
        <time>2026-08-31T05:27:46.000Z</time>
        <extensions>
          <ns3:TrackPointExtension>
            <ns3:hr>123</ns3:hr>
            <ns3:cad>0</ns3:cad>
          </ns3:TrackPointExtension>
        </extensions>
      </trkpt>
      <trkpt lat="44.67365135438740253448486328125" lon="6.78594681434333324432373046875">
        <ele>1770.800048828125</ele>
        <time>2026-08-31T05:27:47.000Z</time>
        <extensions>
          <ns3:TrackPointExtension>
            <ns3:hr>122</ns3:hr>
            <ns3:cad>0</ns3:cad>
          </ns3:TrackPointExtension>
        </extensions>
      </trkpt>
      <trkpt lat="44.67365135438740253448486328125" lon="6.78594681434333324432373046875">
        <ele>1770.800048828125</ele>
        <time>2026-08-31T05:27:48.000Z</time>
        <extensions>
          <ns3:TrackPointExtension>
            <ns3:hr>122</ns3:hr>
            <ns3:cad>0</ns3:cad>
          </ns3:TrackPointExtension>
        </extensions>
      </trkpt>
      <trkpt lat="44.67365135438740253448486328125" lon="6.78594681434333324432373046875">
        <ele>1770.5999755859375</ele>
        <time>2026-08-31T05:27:49.000Z</time>
        <extensions>
          <ns3:TrackPointExtension>
            <ns3:hr>122</ns3:hr>
            <ns3:cad>0</ns3:cad>
          </ns3:TrackPointExtension>
        </extensions>
      </trkpt>
      <trkpt lat="44.67365135438740253448486328125" lon="6.78594681434333324432373046875">
        <ele>1770.5999755859375</ele>
        <time>2026-08-31T05:27:50.000Z</time>
        <extensions>
          <ns3:TrackPointExtension>
            <ns3:hr>122</ns3:hr>
            <ns3:cad>0</ns3:cad>
          </ns3:TrackPointExtension>
        </extensions>
      </trkpt>
      <trkpt lat="44.67365135438740253448486328125" lon="6.78594681434333324432373046875">
        <ele>1770.5999755859375</ele>
        <time>2026-08-31T05:27:51.000Z</time>
        <extensions>
          <ns3:TrackPointExtension>
            <ns3:hr>122</ns3:hr>
            <ns3:cad>0</ns3:cad>
          </ns3:TrackPointExtension>
        </extensions>
      </trkpt>
      <trkpt lat="44.67365135438740253448486328125" lon="6.78594681434333324432373046875">
        <ele>1770.800048828125</ele>
        <time>2026-08-31T05:27:52.000Z</time>
        <extensions>
          <ns3:TrackPointExtension>
            <ns3:hr>122</ns3:hr>
            <ns3:cad>0</ns3:cad>
          </ns3:TrackPointExtension>
        </extensions>
      </trkpt>
      <trkpt lat="44.67365135438740253448486328125" lon="6.78594681434333324432373046875">
        <ele>1770.800048828125</ele>
        <time>2026-08-31T05:27:53.000Z</time>
        <extensions>
          <ns3:TrackPointExtension>
            <ns3:hr>122</ns3:hr>
            <ns3:cad>0</ns3:cad>
          </ns3:TrackPointExtension>
        </extensions>
      </trkpt>
      <trkpt lat="44.67364816926419734954833984375" lon="6.785938851535320281982421875">
        <ele>1770.800048828125</ele>
        <time>2026-08-31T05:27:54.000Z</time>
        <extensions>
          <ns3:TrackPointExtension>
            <ns3:hr>123</ns3:hr>
            <ns3:cad>0</ns3:cad>
          </ns3:TrackPointExtension>
        </extensions>
      </trkpt>
      <trkpt lat="44.67364766635000705718994140625" lon="6.7859393544495105743408203125">
        <ele>1770.800048828125</ele>
        <time>2026-08-31T05:27:55.000Z</time>
        <extensions>
          <ns3:TrackPointExtension>
            <ns3:hr>123</ns3:hr>
            <ns3:cad>0</ns3:cad>
          </ns3:TrackPointExtension>
        </extensions>
      </trkpt>
      <trkpt lat="44.67365219257771968841552734375" lon="6.7859396897256374359130859375">
        <ele>1770.800048828125</ele>
        <time>2026-08-31T05:27:56.000Z</time>
        <extensions>
          <ns3:TrackPointExtension>
            <ns3:hr>124</ns3:hr>
            <ns3:cad>0</ns3:cad>
          </ns3:TrackPointExtension>
        </extensions>
      </trkpt>
      <trkpt lat="44.67365135438740253448486328125" lon="6.78594681434333324432373046875">
        <ele>1770.800048828125</ele>
        <time>2026-08-31T05:27:57.000Z</time>
        <extensions>
          <ns3:TrackPointExtension>
            <ns3:hr>124</ns3:hr>
            <ns3:cad>0</ns3:cad>
          </ns3:TrackPointExtension>
        </extensions>
      </trkpt>
      <trkpt lat="44.67365135438740253448486328125" lon="6.78594681434333324432373046875">
        <ele>1770.800048828125</ele>
        <time>2026-08-31T05:27:58.000Z</time>
        <extensions>
          <ns3:TrackPointExtension>
            <ns3:hr>125</ns3:hr>
            <ns3:cad>0</ns3:cad>
          </ns3:TrackPointExtension>
        </extensions>
      </trkpt>
      <trkpt lat="44.673650264739990234375" lon="6.7859403602778911590576171875">
        <ele>1770.800048828125</ele>
        <time>2026-08-31T05:27:59.000Z</time>
        <extensions>
          <ns3:TrackPointExtension>
            <ns3:hr>125</ns3:hr>
            <ns3:cad>0</ns3:cad>
          </ns3:TrackPointExtension>
        </extensions>
      </trkpt>
      <trkpt lat="44.67364615760743618011474609375" lon="6.7859413661062717437744140625">
        <ele>1770.800048828125</ele>
        <time>2026-08-31T05:28:00.000Z</time>
        <extensions>
          <ns3:TrackPointExtension>
            <ns3:hr>125</ns3:hr>
            <ns3:cad>0</ns3:cad>
          </ns3:TrackPointExtension>
        </extensions>
      </trkpt>
      <trkpt lat="44.6736489236354827880859375" lon="6.7859396897256374359130859375">
        <ele>1770.800048828125</ele>
        <time>2026-08-31T05:28:01.000Z</time>
        <extensions>
          <ns3:TrackPointExtension>
            <ns3:hr>125</ns3:hr>
            <ns3:cad>0</ns3:cad>
          </ns3:TrackPointExtension>
        </extensions>
      </trkpt>
      <trkpt lat="44.6736554615199565887451171875" lon="6.7859423719346523284912109375">
        <ele>1770.800048828125</ele>
        <time>2026-08-31T05:28:02.000Z</time>
        <extensions>
          <ns3:TrackPointExtension>
            <ns3:hr>124</ns3:hr>
            <ns3:cad>0</ns3:cad>
          </ns3:TrackPointExtension>
        </extensions>
      </trkpt>
      <trkpt lat="44.67365822754800319671630859375" lon="6.78594480268657207489013671875">
        <ele>1770.800048828125</ele>
        <time>2026-08-31T05:28:03.000Z</time>
        <extensions>
          <ns3:TrackPointExtension>
            <ns3:hr>125</ns3:hr>
            <ns3:cad>0</ns3:cad>
          </ns3:TrackPointExtension>
        </extensions>
      </trkpt>
      <trkpt lat="44.67366141267120838165283203125" lon="6.7859440483152866363525390625">
        <ele>1770.800048828125</ele>
        <time>2026-08-31T05:28:04.000Z</time>
        <extensions>
          <ns3:TrackPointExtension>
            <ns3:hr>124</ns3:hr>
            <ns3:cad>0</ns3:cad>
          </ns3:TrackPointExtension>
        </extensions>
      </trkpt>
      <trkpt lat="44.67366476543247699737548828125" lon="6.78594396449625492095947265625">
        <ele>1770.800048828125</ele>
        <time>2026-08-31T05:28:05.000Z</time>
        <extensions>
          <ns3:TrackPointExtension>
            <ns3:hr>124</ns3:hr>
            <ns3:cad>0</ns3:cad>
          </ns3:TrackPointExtension>
        </extensions>
      </trkpt>
      <trkpt lat="44.67365135438740253448486328125" lon="6.78594681434333324432373046875">
        <ele>1770.800048828125</ele>
        <time>2026-08-31T05:28:06.000Z</time>
        <extensions>
          <ns3:TrackPointExtension>
            <ns3:hr>124</ns3:hr>
            <ns3:cad>0</ns3:cad>
          </ns3:TrackPointExtension>
        </extensions>
      </trkpt>
      <trkpt lat="44.67365135438740253448486328125" lon="6.78594681434333324432373046875">
        <ele>1770.800048828125</ele>
        <time>2026-08-31T05:28:07.000Z</time>
        <extensions>
          <ns3:TrackPointExtension>
            <ns3:hr>123</ns3:hr>
            <ns3:cad>0</ns3:cad>
          </ns3:TrackPointExtension>
        </extensions>
      </trkpt>
      <trkpt lat="44.67365135438740253448486328125" lon="6.78594681434333324432373046875">
        <ele>1770.5999755859375</ele>
        <time>2026-08-31T05:28:08.000Z</time>
        <extensions>
          <ns3:TrackPointExtension>
            <ns3:hr>123</ns3:hr>
            <ns3:cad>0</ns3:cad>
          </ns3:TrackPointExtension>
        </extensions>
      </trkpt>
      <trkpt lat="44.67365135438740253448486328125" lon="6.78594681434333324432373046875">
        <ele>1770.800048828125</ele>
        <time>2026-08-31T05:28:09.000Z</time>
        <extensions>
          <ns3:TrackPointExtension>
            <ns3:hr>123</ns3:hr>
            <ns3:cad>0</ns3:cad>
          </ns3:TrackPointExtension>
        </extensions>
      </trkpt>
      <trkpt lat="44.67365135438740253448486328125" lon="6.78594681434333324432373046875">
        <ele>1770.5999755859375</ele>
        <time>2026-08-31T05:28:10.000Z</time>
        <extensions>
          <ns3:TrackPointExtension>
            <ns3:hr>123</ns3:hr>
            <ns3:cad>0</ns3:cad>
          </ns3:TrackPointExtension>
        </extensions>
      </trkpt>
      <trkpt lat="44.67365135438740253448486328125" lon="6.78594681434333324432373046875">
        <ele>1770.5999755859375</ele>
        <time>2026-08-31T05:28:11.000Z</time>
        <extensions>
          <ns3:TrackPointExtension>
            <ns3:hr>122</ns3:hr>
            <ns3:cad>0</ns3:cad>
          </ns3:TrackPointExtension>
        </extensions>
      </trkpt>
      <trkpt lat="44.67365135438740253448486328125" lon="6.78594681434333324432373046875">
        <ele>1770.5999755859375</ele>
        <time>2026-08-31T05:28:12.000Z</time>
        <extensions>
          <ns3:TrackPointExtension>
            <ns3:hr>122</ns3:hr>
            <ns3:cad>59</ns3:cad>
          </ns3:TrackPointExtension>
        </extensions>
      </trkpt>
      <trkpt lat="44.67366258613765239715576171875" lon="6.78594664670526981353759765625">
        <ele>1770.5999755859375</ele>
        <time>2026-08-31T05:28:13.000Z</time>
        <extensions>
          <ns3:TrackPointExtension>
            <ns3:hr>122</ns3:hr>
            <ns3:cad>59</ns3:cad>
          </ns3:TrackPointExtension>
        </extensions>
      </trkpt>
      <trkpt lat="44.67365906573832035064697265625" lon="6.7859460599720478057861328125">
        <ele>1770.5999755859375</ele>
        <time>2026-08-31T05:28:14.000Z</time>
        <extensions>
          <ns3:TrackPointExtension>
            <ns3:hr>122</ns3:hr>
            <ns3:cad>0</ns3:cad>
          </ns3:TrackPointExtension>
        </extensions>
      </trkpt>
      <trkpt lat="44.67366057448089122772216796875" lon="6.785945557057857513427734375">
        <ele>1770.5999755859375</ele>
        <time>2026-08-31T05:28:15.000Z</time>
        <extensions>
          <ns3:TrackPointExtension>
            <ns3:hr>122</ns3:hr>
            <ns3:cad>0</ns3:cad>
          </ns3:TrackPointExtension>
        </extensions>
      </trkpt>
      <trkpt lat="44.67366141267120838165283203125" lon="6.7859447188675403594970703125">
        <ele>1770.5999755859375</ele>
        <time>2026-08-31T05:28:16.000Z</time>
        <extensions>
          <ns3:TrackPointExtension>
            <ns3:hr>121</ns3:hr>
            <ns3:cad>0</ns3:cad>
          </ns3:TrackPointExtension>
        </extensions>
      </trkpt>
      <trkpt lat="44.6736609935760498046875" lon="6.78594656288623809814453125">
        <ele>1770.5999755859375</ele>
        <time>2026-08-31T05:28:17.000Z</time>
        <extensions>
          <ns3:TrackPointExtension>
            <ns3:hr>121</ns3:hr>
            <ns3:cad>0</ns3:cad>
          </ns3:TrackPointExtension>
        </extensions>
      </trkpt>
      <trkpt lat="44.6736614964902400970458984375" lon="6.78594924509525299072265625">
        <ele>1770.5999755859375</ele>
        <time>2026-08-31T05:28:18.000Z</time>
        <extensions>
          <ns3:TrackPointExtension>
            <ns3:hr>121</ns3:hr>
            <ns3:cad>0</ns3:cad>
          </ns3:TrackPointExtension>
        </extensions>
      </trkpt>
      <trkpt lat="44.6736618317663669586181640625" lon="6.78595184348523616790771484375">
        <ele>1770.5999755859375</ele>
        <time>2026-08-31T05:28:19.000Z</time>
        <extensions>
          <ns3:TrackPointExtension>
            <ns3:hr>120</ns3:hr>
            <ns3:cad>0</ns3:cad>
          </ns3:TrackPointExtension>
        </extensions>
      </trkpt>
      <trkpt lat="44.67366032302379608154296875" lon="6.78595167584717273712158203125">
        <ele>1770.5999755859375</ele>
        <time>2026-08-31T05:28:20.000Z</time>
        <extensions>
          <ns3:TrackPointExtension>
            <ns3:hr>120</ns3:hr>
            <ns3:cad>0</ns3:cad>
          </ns3:TrackPointExtension>
        </extensions>
      </trkpt>
      <trkpt lat="44.6736591495573520660400390625" lon="6.78595125675201416015625">
        <ele>1770.5999755859375</ele>
        <time>2026-08-31T05:28:21.000Z</time>
        <extensions>
          <ns3:TrackPointExtension>
            <ns3:hr>120</ns3:hr>
            <ns3:cad>0</ns3:cad>
          </ns3:TrackPointExtension>
        </extensions>
      </trkpt>
      <trkpt lat="44.67365738935768604278564453125" lon="6.78595150820910930633544921875">
        <ele>1770.4000244140625</ele>
        <time>2026-08-31T05:28:22.000Z</time>
        <extensions>
          <ns3:TrackPointExtension>
            <ns3:hr>120</ns3:hr>
            <ns3:cad>0</ns3:cad>
          </ns3:TrackPointExtension>
        </extensions>
      </trkpt>
      <trkpt lat="44.67365135438740253448486328125" lon="6.78594681434333324432373046875">
        <ele>1770.4000244140625</ele>
        <time>2026-08-31T05:28:23.000Z</time>
        <extensions>
          <ns3:TrackPointExtension>
            <ns3:hr>120</ns3:hr>
            <ns3:cad>0</ns3:cad>
          </ns3:TrackPointExtension>
        </extensions>
      </trkpt>
      <trkpt lat="44.67365135438740253448486328125" lon="6.78594681434333324432373046875">
        <ele>1770.4000244140625</ele>
        <time>2026-08-31T05:28:24.000Z</time>
        <extensions>
          <ns3:TrackPointExtension>
            <ns3:hr>119</ns3:hr>
            <ns3:cad>0</ns3:cad>
          </ns3:TrackPointExtension>
        </extensions>
      </trkpt>
      <trkpt lat="44.67365135438740253448486328125" lon="6.78594681434333324432373046875">
        <ele>1770.5999755859375</ele>
        <time>2026-08-31T05:28:25.000Z</time>
        <extensions>
          <ns3:TrackPointExtension>
            <ns3:hr>120</ns3:hr>
            <ns3:cad>0</ns3:cad>
          </ns3:TrackPointExtension>
        </extensions>
      </trkpt>
      <trkpt lat="44.67365135438740253448486328125" lon="6.78594681434333324432373046875">
        <ele>1770.5999755859375</ele>
        <time>2026-08-31T05:28:26.000Z</time>
        <extensions>
          <ns3:TrackPointExtension>
            <ns3:hr>121</ns3:hr>
            <ns3:cad>0</ns3:cad>
          </ns3:TrackPointExtension>
        </extensions>
      </trkpt>
      <trkpt lat="44.67365135438740253448486328125" lon="6.78594681434333324432373046875">
        <ele>1770.5999755859375</ele>
        <time>2026-08-31T05:28:27.000Z</time>
        <extensions>
          <ns3:TrackPointExtension>
            <ns3:hr>122</ns3:hr>
            <ns3:cad>0</ns3:cad>
          </ns3:TrackPointExtension>
        </extensions>
      </trkpt>
      <trkpt lat="44.67365135438740253448486328125" lon="6.78594681434333324432373046875">
        <ele>1770.5999755859375</ele>
        <time>2026-08-31T05:28:28.000Z</time>
        <extensions>
          <ns3:TrackPointExtension>
            <ns3:hr>123</ns3:hr>
            <ns3:cad>0</ns3:cad>
          </ns3:TrackPointExtension>
        </extensions>
      </trkpt>
      <trkpt lat="44.67365135438740253448486328125" lon="6.78594681434333324432373046875">
        <ele>1770.5999755859375</ele>
        <time>2026-08-31T05:28:29.000Z</time>
        <extensions>
          <ns3:TrackPointExtension>
            <ns3:hr>124</ns3:hr>
            <ns3:cad>0</ns3:cad>
          </ns3:TrackPointExtension>
        </extensions>
      </trkpt>
      <trkpt lat="44.67365135438740253448486328125" lon="6.78594681434333324432373046875">
        <ele>1770.5999755859375</ele>
        <time>2026-08-31T05:28:30.000Z</time>
        <extensions>
          <ns3:TrackPointExtension>
            <ns3:hr>125</ns3:hr>
            <ns3:cad>0</ns3:cad>
          </ns3:TrackPointExtension>
        </extensions>
      </trkpt>
      <trkpt lat="44.67365135438740253448486328125" lon="6.78594681434333324432373046875">
        <ele>1770.5999755859375</ele>
        <time>2026-08-31T05:28:31.000Z</time>
        <extensions>
          <ns3:TrackPointExtension>
            <ns3:hr>126</ns3:hr>
            <ns3:cad>0</ns3:cad>
          </ns3:TrackPointExtension>
        </extensions>
      </trkpt>
      <trkpt lat="44.67365135438740253448486328125" lon="6.78594681434333324432373046875">
        <ele>1770.5999755859375</ele>
        <time>2026-08-31T05:28:32.000Z</time>
        <extensions>
          <ns3:TrackPointExtension>
            <ns3:hr>127</ns3:hr>
            <ns3:cad>0</ns3:cad>
          </ns3:TrackPointExtension>
        </extensions>
      </trkpt>
      <trkpt lat="44.67365135438740253448486328125" lon="6.78594681434333324432373046875">
        <ele>1770.5999755859375</ele>
        <time>2026-08-31T05:28:33.000Z</time>
        <extensions>
          <ns3:TrackPointExtension>
            <ns3:hr>127</ns3:hr>
            <ns3:cad>0</ns3:cad>
          </ns3:TrackPointExtension>
        </extensions>
      </trkpt>
      <trkpt lat="44.67365135438740253448486328125" lon="6.78594681434333324432373046875">
        <ele>1770.5999755859375</ele>
        <time>2026-08-31T05:28:34.000Z</time>
        <extensions>
          <ns3:TrackPointExtension>
            <ns3:hr>127</ns3:hr>
            <ns3:cad>0</ns3:cad>
          </ns3:TrackPointExtension>
        </extensions>
      </trkpt>
      <trkpt lat="44.67365135438740253448486328125" lon="6.78594681434333324432373046875">
        <ele>1770.5999755859375</ele>
        <time>2026-08-31T05:28:35.000Z</time>
        <extensions>
          <ns3:TrackPointExtension>
            <ns3:hr>127</ns3:hr>
            <ns3:cad>0</ns3:cad>
          </ns3:TrackPointExtension>
        </extensions>
      </trkpt>
      <trkpt lat="44.67365135438740253448486328125" lon="6.78594681434333324432373046875">
        <ele>1770.5999755859375</ele>
        <time>2026-08-31T05:28:36.000Z</time>
        <extensions>
          <ns3:TrackPointExtension>
            <ns3:hr>127</ns3:hr>
            <ns3:cad>0</ns3:cad>
          </ns3:TrackPointExtension>
        </extensions>
      </trkpt>
      <trkpt lat="44.67365135438740253448486328125" lon="6.78594681434333324432373046875">
        <ele>1770.5999755859375</ele>
        <time>2026-08-31T05:28:37.000Z</time>
        <extensions>
          <ns3:TrackPointExtension>
            <ns3:hr>127</ns3:hr>
            <ns3:cad>0</ns3:cad>
          </ns3:TrackPointExtension>
        </extensions>
      </trkpt>
      <trkpt lat="44.67365135438740253448486328125" lon="6.78594681434333324432373046875">
        <ele>1770.800048828125</ele>
        <time>2026-08-31T05:28:38.000Z</time>
        <extensions>
          <ns3:TrackPointExtension>
            <ns3:hr>128</ns3:hr>
            <ns3:cad>0</ns3:cad>
          </ns3:TrackPointExtension>
        </extensions>
      </trkpt>
      <trkpt lat="44.67365135438740253448486328125" lon="6.78594681434333324432373046875">
        <ele>1770.800048828125</ele>
        <time>2026-08-31T05:28:39.000Z</time>
        <extensions>
          <ns3:TrackPointExtension>
            <ns3:hr>127</ns3:hr>
            <ns3:cad>0</ns3:cad>
          </ns3:TrackPointExtension>
        </extensions>
      </trkpt>
      <trkpt lat="44.6736581437289714813232421875" lon="6.78594782017171382904052734375">
        <ele>1770.800048828125</ele>
        <time>2026-08-31T05:28:40.000Z</time>
        <extensions>
          <ns3:TrackPointExtension>
            <ns3:hr>127</ns3:hr>
            <ns3:cad>71</ns3:cad>
          </ns3:TrackPointExtension>
        </extensions>
      </trkpt>
      <trkpt lat="44.67366359196603298187255859375" lon="6.7859467305243015289306640625">
        <ele>1770.800048828125</ele>
        <time>2026-08-31T05:28:41.000Z</time>
        <extensions>
          <ns3:TrackPointExtension>
            <ns3:hr>127</ns3:hr>
            <ns3:cad>71</ns3:cad>
          </ns3:TrackPointExtension>
        </extensions>
      </trkpt>
      <trkpt lat="44.673664011061191558837890625" lon="6.78594614379107952117919921875">
        <ele>1770.5999755859375</ele>
        <time>2026-08-31T05:28:42.000Z</time>
        <extensions>
          <ns3:TrackPointExtension>
            <ns3:hr>127</ns3:hr>
            <ns3:cad>0</ns3:cad>
          </ns3:TrackPointExtension>
        </extensions>
      </trkpt>
      <trkpt lat="44.67366342432796955108642578125" lon="6.7859457246959209442138671875">
        <ele>1770.5999755859375</ele>
        <time>2026-08-31T05:28:43.000Z</time>
        <extensions>
          <ns3:TrackPointExtension>
            <ns3:hr>129</ns3:hr>
            <ns3:cad>0</ns3:cad>
          </ns3:TrackPointExtension>
        </extensions>
      </trkpt>
      <trkpt lat="44.673664681613445281982421875" lon="6.785944886505603790283203125">
        <ele>1770.4000244140625</ele>
        <time>2026-08-31T05:28:44.000Z</time>
        <extensions>
          <ns3:TrackPointExtension>
            <ns3:hr>129</ns3:hr>
            <ns3:cad>0</ns3:cad>
          </ns3:TrackPointExtension>
        </extensions>
      </trkpt>
      <trkpt lat="44.6736638434231281280517578125" lon="6.785945557057857513427734375">
        <ele>1770.4000244140625</ele>
        <time>2026-08-31T05:28:45.000Z</time>
        <extensions>
          <ns3:TrackPointExtension>
            <ns3:hr>128</ns3:hr>
            <ns3:cad>0</ns3:cad>
          </ns3:TrackPointExtension>
        </extensions>
      </trkpt>
      <trkpt lat="44.67366342432796955108642578125" lon="6.78594790399074554443359375">
        <ele>1770.4000244140625</ele>
        <time>2026-08-31T05:28:46.000Z</time>
        <extensions>
          <ns3:TrackPointExtension>
            <ns3:hr>128</ns3:hr>
            <ns3:cad>0</ns3:cad>
          </ns3:TrackPointExtension>
        </extensions>
      </trkpt>
      <trkpt lat="44.67366258613765239715576171875" lon="6.78594999946653842926025390625">
        <ele>1770.4000244140625</ele>
        <time>2026-08-31T05:28:47.000Z</time>
        <extensions>
          <ns3:TrackPointExtension>
            <ns3:hr>127</ns3:hr>
            <ns3:cad>0</ns3:cad>
          </ns3:TrackPointExtension>
        </extensions>
      </trkpt>
      <trkpt lat="44.67366174794733524322509765625" lon="6.7859504185616970062255859375">
        <ele>1770.4000244140625</ele>
        <time>2026-08-31T05:28:48.000Z</time>
        <extensions>
          <ns3:TrackPointExtension>
            <ns3:hr>127</ns3:hr>
            <ns3:cad>0</ns3:cad>
          </ns3:TrackPointExtension>
        </extensions>
      </trkpt>
      <trkpt lat="44.6736621670424938201904296875" lon="6.7859537713229656219482421875">
        <ele>1770.4000244140625</ele>
        <time>2026-08-31T05:28:49.000Z</time>
        <extensions>
          <ns3:TrackPointExtension>
            <ns3:hr>128</ns3:hr>
            <ns3:cad>0</ns3:cad>
          </ns3:TrackPointExtension>
        </extensions>
      </trkpt>
      <trkpt lat="44.67366191558539867401123046875" lon="6.78595385514199733734130859375">
        <ele>1770.4000244140625</ele>
        <time>2026-08-31T05:28:50.000Z</time>
        <extensions>
          <ns3:TrackPointExtension>
            <ns3:hr>128</ns3:hr>
            <ns3:cad>0</ns3:cad>
          </ns3:TrackPointExtension>
        </extensions>
      </trkpt>
      <trkpt lat="44.67365135438740253448486328125" lon="6.78594681434333324432373046875">
        <ele>1770.4000244140625</ele>
        <time>2026-08-31T05:28:51.000Z</time>
        <extensions>
          <ns3:TrackPointExtension>
            <ns3:hr>127</ns3:hr>
            <ns3:cad>0</ns3:cad>
          </ns3:TrackPointExtension>
        </extensions>
      </trkpt>
      <trkpt lat="44.67365135438740253448486328125" lon="6.78594681434333324432373046875">
        <ele>1770.4000244140625</ele>
        <time>2026-08-31T05:28:52.000Z</time>
        <extensions>
          <ns3:TrackPointExtension>
            <ns3:hr>127</ns3:hr>
            <ns3:cad>0</ns3:cad>
          </ns3:TrackPointExtension>
        </extensions>
      </trkpt>
      <trkpt lat="44.67365135438740253448486328125" lon="6.78594681434333324432373046875">
        <ele>1770.4000244140625</ele>
        <time>2026-08-31T05:28:53.000Z</time>
        <extensions>
          <ns3:TrackPointExtension>
            <ns3:hr>127</ns3:hr>
            <ns3:cad>0</ns3:cad>
          </ns3:TrackPointExtension>
        </extensions>
      </trkpt>
      <trkpt lat="44.67365135438740253448486328125" lon="6.78594681434333324432373046875">
        <ele>1770.4000244140625</ele>
        <time>2026-08-31T05:28:54.000Z</time>
        <extensions>
          <ns3:TrackPointExtension>
            <ns3:hr>127</ns3:hr>
            <ns3:cad>0</ns3:cad>
          </ns3:TrackPointExtension>
        </extensions>
      </trkpt>
      <trkpt lat="44.67365135438740253448486328125" lon="6.78594681434333324432373046875">
        <ele>1770.4000244140625</ele>
        <time>2026-08-31T05:28:55.000Z</time>
        <extensions>
          <ns3:TrackPointExtension>
            <ns3:hr>126</ns3:hr>
            <ns3:cad>0</ns3:cad>
          </ns3:TrackPointExtension>
        </extensions>
      </trkpt>
      <trkpt lat="44.67365135438740253448486328125" lon="6.78594681434333324432373046875">
        <ele>1770.199951171875</ele>
        <time>2026-08-31T05:28:56.000Z</time>
        <extensions>
          <ns3:TrackPointExtension>
            <ns3:hr>125</ns3:hr>
            <ns3:cad>0</ns3:cad>
          </ns3:TrackPointExtension>
        </extensions>
      </trkpt>
      <trkpt lat="44.67366359196603298187255859375" lon="6.78595620207488536834716796875">
        <ele>1770.199951171875</ele>
        <time>2026-08-31T05:28:57.000Z</time>
        <extensions>
          <ns3:TrackPointExtension>
            <ns3:hr>124</ns3:hr>
            <ns3:cad>0</ns3:cad>
          </ns3:TrackPointExtension>
        </extensions>
      </trkpt>
      <trkpt lat="44.673663675785064697265625" lon="6.785956285893917083740234375">
        <ele>1770.4000244140625</ele>
        <time>2026-08-31T05:28:58.000Z</time>
        <extensions>
          <ns3:TrackPointExtension>
            <ns3:hr>123</ns3:hr>
            <ns3:cad>0</ns3:cad>
          </ns3:TrackPointExtension>
        </extensions>
      </trkpt>
      <trkpt lat="44.673663675785064697265625" lon="6.785956285893917083740234375">
        <ele>1770.4000244140625</ele>
        <time>2026-08-31T05:28:59.000Z</time>
        <extensions>
          <ns3:TrackPointExtension>
            <ns3:hr>122</ns3:hr>
            <ns3:cad>0</ns3:cad>
          </ns3:TrackPointExtension>
        </extensions>
      </trkpt>
      <trkpt lat="44.673663675785064697265625" lon="6.785956285893917083740234375">
        <ele>1770.4000244140625</ele>
        <time>2026-08-31T05:29:00.000Z</time>
        <extensions>
          <ns3:TrackPointExtension>
            <ns3:hr>123</ns3:hr>
            <ns3:cad>0</ns3:cad>
          </ns3:TrackPointExtension>
        </extensions>
      </trkpt>
      <trkpt lat="44.673663675785064697265625" lon="6.785956285893917083740234375">
        <ele>1770.4000244140625</ele>
        <time>2026-08-31T05:29:01.000Z</time>
        <extensions>
          <ns3:TrackPointExtension>
            <ns3:hr>123</ns3:hr>
            <ns3:cad>0</ns3:cad>
          </ns3:TrackPointExtension>
        </extensions>
      </trkpt>
      <trkpt lat="44.673663675785064697265625" lon="6.785956285893917083740234375">
        <ele>1770.4000244140625</ele>
        <time>2026-08-31T05:29:02.000Z</time>
        <extensions>
          <ns3:TrackPointExtension>
            <ns3:hr>123</ns3:hr>
            <ns3:cad>0</ns3:cad>
          </ns3:TrackPointExtension>
        </extensions>
      </trkpt>
      <trkpt lat="44.673663675785064697265625" lon="6.785956285893917083740234375">
        <ele>1770.4000244140625</ele>
        <time>2026-08-31T05:29:03.000Z</time>
        <extensions>
          <ns3:TrackPointExtension>
            <ns3:hr>123</ns3:hr>
            <ns3:cad>0</ns3:cad>
          </ns3:TrackPointExtension>
        </extensions>
      </trkpt>
      <trkpt lat="44.673663675785064697265625" lon="6.785956285893917083740234375">
        <ele>1770.4000244140625</ele>
        <time>2026-08-31T05:29:04.000Z</time>
        <extensions>
          <ns3:TrackPointExtension>
            <ns3:hr>124</ns3:hr>
            <ns3:cad>0</ns3:cad>
          </ns3:TrackPointExtension>
        </extensions>
      </trkpt>
      <trkpt lat="44.673663675785064697265625" lon="6.785956285893917083740234375">
        <ele>1770.4000244140625</ele>
        <time>2026-08-31T05:29:05.000Z</time>
        <extensions>
          <ns3:TrackPointExtension>
            <ns3:hr>124</ns3:hr>
            <ns3:cad>0</ns3:cad>
          </ns3:TrackPointExtension>
        </extensions>
      </trkpt>
      <trkpt lat="44.673663675785064697265625" lon="6.785956285893917083740234375">
        <ele>1770.4000244140625</ele>
        <time>2026-08-31T05:29:06.000Z</time>
        <extensions>
          <ns3:TrackPointExtension>
            <ns3:hr>125</ns3:hr>
            <ns3:cad>0</ns3:cad>
          </ns3:TrackPointExtension>
        </extensions>
      </trkpt>
      <trkpt lat="44.673663675785064697265625" lon="6.785956285893917083740234375">
        <ele>1770.4000244140625</ele>
        <time>2026-08-31T05:29:07.000Z</time>
        <extensions>
          <ns3:TrackPointExtension>
            <ns3:hr>125</ns3:hr>
            <ns3:cad>0</ns3:cad>
          </ns3:TrackPointExtension>
        </extensions>
      </trkpt>
      <trkpt lat="44.673663675785064697265625" lon="6.785956285893917083740234375">
        <ele>1770.4000244140625</ele>
        <time>2026-08-31T05:29:08.000Z</time>
        <extensions>
          <ns3:TrackPointExtension>
            <ns3:hr>125</ns3:hr>
            <ns3:cad>0</ns3:cad>
          </ns3:TrackPointExtension>
        </extensions>
      </trkpt>
      <trkpt lat="44.673663675785064697265625" lon="6.785956285893917083740234375">
        <ele>1770.5999755859375</ele>
        <time>2026-08-31T05:29:09.000Z</time>
        <extensions>
          <ns3:TrackPointExtension>
            <ns3:hr>124</ns3:hr>
            <ns3:cad>0</ns3:cad>
          </ns3:TrackPointExtension>
        </extensions>
      </trkpt>
      <trkpt lat="44.67366275377571582794189453125" lon="6.78595687262713909149169921875">
        <ele>1770.5999755859375</ele>
        <time>2026-08-31T05:29:10.000Z</time>
        <extensions>
          <ns3:TrackPointExtension>
            <ns3:hr>125</ns3:hr>
            <ns3:cad>0</ns3:cad>
          </ns3:TrackPointExtension>
        </extensions>
      </trkpt>
      <trkpt lat="44.6736623346805572509765625" lon="6.78595368750393390655517578125">
        <ele>1770.5999755859375</ele>
        <time>2026-08-31T05:29:11.000Z</time>
        <extensions>
          <ns3:TrackPointExtension>
            <ns3:hr>125</ns3:hr>
            <ns3:cad>0</ns3:cad>
          </ns3:TrackPointExtension>
        </extensions>
      </trkpt>
      <trkpt lat="44.673661999404430389404296875" lon="6.78595469333231449127197265625">
        <ele>1770.5999755859375</ele>
        <time>2026-08-31T05:29:12.000Z</time>
        <extensions>
          <ns3:TrackPointExtension>
            <ns3:hr>125</ns3:hr>
            <ns3:cad>0</ns3:cad>
          </ns3:TrackPointExtension>
        </extensions>
      </trkpt>
      <trkpt lat="44.67366107739508152008056640625" lon="6.7859534360468387603759765625">
        <ele>1770.5999755859375</ele>
        <time>2026-08-31T05:29:13.000Z</time>
        <extensions>
          <ns3:TrackPointExtension>
            <ns3:hr>125</ns3:hr>
            <ns3:cad>0</ns3:cad>
          </ns3:TrackPointExtension>
        </extensions>
      </trkpt>
      <trkpt lat="44.67365940101444721221923828125" lon="6.78595268167555332183837890625">
        <ele>1770.5999755859375</ele>
        <time>2026-08-31T05:29:14.000Z</time>
        <extensions>
          <ns3:TrackPointExtension>
            <ns3:hr>124</ns3:hr>
            <ns3:cad>0</ns3:cad>
          </ns3:TrackPointExtension>
        </extensions>
      </trkpt>
      <trkpt lat="44.67366141267120838165283203125" lon="6.78595125675201416015625">
        <ele>1770.4000244140625</ele>
        <time>2026-08-31T05:29:15.000Z</time>
        <extensions>
          <ns3:TrackPointExtension>
            <ns3:hr>123</ns3:hr>
            <ns3:cad>0</ns3:cad>
          </ns3:TrackPointExtension>
        </extensions>
      </trkpt>
      <trkpt lat="44.673663675785064697265625" lon="6.785956285893917083740234375">
        <ele>1770.4000244140625</ele>
        <time>2026-08-31T05:29:16.000Z</time>
        <extensions>
          <ns3:TrackPointExtension>
            <ns3:hr>123</ns3:hr>
            <ns3:cad>0</ns3:cad>
          </ns3:TrackPointExtension>
        </extensions>
      </trkpt>
      <trkpt lat="44.673663675785064697265625" lon="6.785956285893917083740234375">
        <ele>1770.4000244140625</ele>
        <time>2026-08-31T05:29:17.000Z</time>
        <extensions>
          <ns3:TrackPointExtension>
            <ns3:hr>122</ns3:hr>
            <ns3:cad>0</ns3:cad>
          </ns3:TrackPointExtension>
        </extensions>
      </trkpt>
      <trkpt lat="44.673663675785064697265625" lon="6.785956285893917083740234375">
        <ele>1770.199951171875</ele>
        <time>2026-08-31T05:29:18.000Z</time>
        <extensions>
          <ns3:TrackPointExtension>
            <ns3:hr>121</ns3:hr>
            <ns3:cad>0</ns3:cad>
          </ns3:TrackPointExtension>
        </extensions>
      </trkpt>
      <trkpt lat="44.673663675785064697265625" lon="6.785956285893917083740234375">
        <ele>1770.199951171875</ele>
        <time>2026-08-31T05:29:19.000Z</time>
        <extensions>
          <ns3:TrackPointExtension>
            <ns3:hr>121</ns3:hr>
            <ns3:cad>0</ns3:cad>
          </ns3:TrackPointExtension>
        </extensions>
      </trkpt>
      <trkpt lat="44.673663675785064697265625" lon="6.785956285893917083740234375">
        <ele>1770.199951171875</ele>
        <time>2026-08-31T05:29:20.000Z</time>
        <extensions>
          <ns3:TrackPointExtension>
            <ns3:hr>121</ns3:hr>
            <ns3:cad>0</ns3:cad>
          </ns3:TrackPointExtension>
        </extensions>
      </trkpt>
      <trkpt lat="44.673663675785064697265625" lon="6.785956285893917083740234375">
        <ele>1770.199951171875</ele>
        <time>2026-08-31T05:29:21.000Z</time>
        <extensions>
          <ns3:TrackPointExtension>
            <ns3:hr>119</ns3:hr>
            <ns3:cad>0</ns3:cad>
          </ns3:TrackPointExtension>
        </extensions>
      </trkpt>
      <trkpt lat="44.673663675785064697265625" lon="6.785956285893917083740234375">
        <ele>1770.199951171875</ele>
        <time>2026-08-31T05:29:22.000Z</time>
        <extensions>
          <ns3:TrackPointExtension>
            <ns3:hr>119</ns3:hr>
            <ns3:cad>0</ns3:cad>
          </ns3:TrackPointExtension>
        </extensions>
      </trkpt>
      <trkpt lat="44.673663675785064697265625" lon="6.785956285893917083740234375">
        <ele>1770.199951171875</ele>
        <time>2026-08-31T05:29:23.000Z</time>
        <extensions>
          <ns3:TrackPointExtension>
            <ns3:hr>118</ns3:hr>
            <ns3:cad>0</ns3:cad>
          </ns3:TrackPointExtension>
        </extensions>
      </trkpt>
      <trkpt lat="44.673663675785064697265625" lon="6.785956285893917083740234375">
        <ele>1770.199951171875</ele>
        <time>2026-08-31T05:29:24.000Z</time>
        <extensions>
          <ns3:TrackPointExtension>
            <ns3:hr>118</ns3:hr>
            <ns3:cad>0</ns3:cad>
          </ns3:TrackPointExtension>
        </extensions>
      </trkpt>
      <trkpt lat="44.673663675785064697265625" lon="6.785956285893917083740234375">
        <ele>1770.199951171875</ele>
        <time>2026-08-31T05:29:25.000Z</time>
        <extensions>
          <ns3:TrackPointExtension>
            <ns3:hr>117</ns3:hr>
            <ns3:cad>0</ns3:cad>
          </ns3:TrackPointExtension>
        </extensions>
      </trkpt>
      <trkpt lat="44.673663675785064697265625" lon="6.785956285893917083740234375">
        <ele>1770.199951171875</ele>
        <time>2026-08-31T05:29:26.000Z</time>
        <extensions>
          <ns3:TrackPointExtension>
            <ns3:hr>116</ns3:hr>
            <ns3:cad>0</ns3:cad>
          </ns3:TrackPointExtension>
        </extensions>
      </trkpt>
      <trkpt lat="44.673663675785064697265625" lon="6.785956285893917083740234375">
        <ele>1770.199951171875</ele>
        <time>2026-08-31T05:29:27.000Z</time>
        <extensions>
          <ns3:TrackPointExtension>
            <ns3:hr>115</ns3:hr>
            <ns3:cad>0</ns3:cad>
          </ns3:TrackPointExtension>
        </extensions>
      </trkpt>
      <trkpt lat="44.673663675785064697265625" lon="6.785956285893917083740234375">
        <ele>1770.199951171875</ele>
        <time>2026-08-31T05:29:28.000Z</time>
        <extensions>
          <ns3:TrackPointExtension>
            <ns3:hr>115</ns3:hr>
            <ns3:cad>0</ns3:cad>
          </ns3:TrackPointExtension>
        </extensions>
      </trkpt>
      <trkpt lat="44.673663675785064697265625" lon="6.785956285893917083740234375">
        <ele>1770.199951171875</ele>
        <time>2026-08-31T05:29:29.000Z</time>
        <extensions>
          <ns3:TrackPointExtension>
            <ns3:hr>115</ns3:hr>
            <ns3:cad>0</ns3:cad>
          </ns3:TrackPointExtension>
        </extensions>
      </trkpt>
      <trkpt lat="44.673663675785064697265625" lon="6.785956285893917083740234375">
        <ele>1770.199951171875</ele>
        <time>2026-08-31T05:29:30.000Z</time>
        <extensions>
          <ns3:TrackPointExtension>
            <ns3:hr>115</ns3:hr>
            <ns3:cad>0</ns3:cad>
          </ns3:TrackPointExtension>
        </extensions>
      </trkpt>
      <trkpt lat="44.673663675785064697265625" lon="6.785956285893917083740234375">
        <ele>1770.199951171875</ele>
        <time>2026-08-31T05:29:31.000Z</time>
        <extensions>
          <ns3:TrackPointExtension>
            <ns3:hr>114</ns3:hr>
            <ns3:cad>0</ns3:cad>
          </ns3:TrackPointExtension>
        </extensions>
      </trkpt>
      <trkpt lat="44.673663675785064697265625" lon="6.785956285893917083740234375">
        <ele>1770.199951171875</ele>
        <time>2026-08-31T05:29:32.000Z</time>
        <extensions>
          <ns3:TrackPointExtension>
            <ns3:hr>114</ns3:hr>
            <ns3:cad>0</ns3:cad>
          </ns3:TrackPointExtension>
        </extensions>
      </trkpt>
      <trkpt lat="44.673663675785064697265625" lon="6.785956285893917083740234375">
        <ele>1770.199951171875</ele>
        <time>2026-08-31T05:29:33.000Z</time>
        <extensions>
          <ns3:TrackPointExtension>
            <ns3:hr>114</ns3:hr>
            <ns3:cad>0</ns3:cad>
          </ns3:TrackPointExtension>
        </extensions>
      </trkpt>
      <trkpt lat="44.67365772463381290435791015625" lon="6.78595502860844135284423828125">
        <ele>1770.199951171875</ele>
        <time>2026-08-31T05:29:34.000Z</time>
        <extensions>
          <ns3:TrackPointExtension>
            <ns3:hr>115</ns3:hr>
            <ns3:cad>0</ns3:cad>
          </ns3:TrackPointExtension>
        </extensions>
      </trkpt>
      <trkpt lat="44.6736591495573520660400390625" lon="6.78595720790326595306396484375">
        <ele>1770.199951171875</ele>
        <time>2026-08-31T05:29:35.000Z</time>
        <extensions>
          <ns3:TrackPointExtension>
            <ns3:hr>114</ns3:hr>
            <ns3:cad>0</ns3:cad>
          </ns3:TrackPointExtension>
        </extensions>
      </trkpt>
      <trkpt lat="44.67365688644349575042724609375" lon="6.785956285893917083740234375">
        <ele>1770.4000244140625</ele>
        <time>2026-08-31T05:29:36.000Z</time>
        <extensions>
          <ns3:TrackPointExtension>
            <ns3:hr>114</ns3:hr>
            <ns3:cad>0</ns3:cad>
          </ns3:TrackPointExtension>
        </extensions>
      </trkpt>
      <trkpt lat="44.67365521006286144256591796875" lon="6.78595586679875850677490234375">
        <ele>1770.4000244140625</ele>
        <time>2026-08-31T05:29:37.000Z</time>
        <extensions>
          <ns3:TrackPointExtension>
            <ns3:hr>115</ns3:hr>
            <ns3:cad>0</ns3:cad>
          </ns3:TrackPointExtension>
        </extensions>
      </trkpt>
      <trkpt lat="44.673663675785064697265625" lon="6.785956285893917083740234375">
        <ele>1770.4000244140625</ele>
        <time>2026-08-31T05:29:38.000Z</time>
        <extensions>
          <ns3:TrackPointExtension>
            <ns3:hr>115</ns3:hr>
            <ns3:cad>0</ns3:cad>
          </ns3:TrackPointExtension>
        </extensions>
      </trkpt>
      <trkpt lat="44.673663675785064697265625" lon="6.785956285893917083740234375">
        <ele>1770.4000244140625</ele>
        <time>2026-08-31T05:29:39.000Z</time>
        <extensions>
          <ns3:TrackPointExtension>
            <ns3:hr>115</ns3:hr>
            <ns3:cad>0</ns3:cad>
          </ns3:TrackPointExtension>
        </extensions>
      </trkpt>
      <trkpt lat="44.673663675785064697265625" lon="6.785956285893917083740234375">
        <ele>1770.4000244140625</ele>
        <time>2026-08-31T05:29:40.000Z</time>
        <extensions>
          <ns3:TrackPointExtension>
            <ns3:hr>115</ns3:hr>
            <ns3:cad>0</ns3:cad>
          </ns3:TrackPointExtension>
        </extensions>
      </trkpt>
      <trkpt lat="44.673663675785064697265625" lon="6.785956285893917083740234375">
        <ele>1770.199951171875</ele>
        <time>2026-08-31T05:29:41.000Z</time>
        <extensions>
          <ns3:TrackPointExtension>
            <ns3:hr>115</ns3:hr>
            <ns3:cad>0</ns3:cad>
          </ns3:TrackPointExtension>
        </extensions>
      </trkpt>
      <trkpt lat="44.673663675785064697265625" lon="6.785956285893917083740234375">
        <ele>1770.199951171875</ele>
        <time>2026-08-31T05:29:42.000Z</time>
        <extensions>
          <ns3:TrackPointExtension>
            <ns3:hr>116</ns3:hr>
            <ns3:cad>0</ns3:cad>
          </ns3:TrackPointExtension>
        </extensions>
      </trkpt>
      <trkpt lat="44.673663675785064697265625" lon="6.785956285893917083740234375">
        <ele>1770</ele>
        <time>2026-08-31T05:29:43.000Z</time>
        <extensions>
          <ns3:TrackPointExtension>
            <ns3:hr>115</ns3:hr>
            <ns3:cad>0</ns3:cad>
          </ns3:TrackPointExtension>
        </extensions>
      </trkpt>
      <trkpt lat="44.67365571297705173492431640625" lon="6.78595536388456821441650390625">
        <ele>1770</ele>
        <time>2026-08-31T05:29:44.000Z</time>
        <extensions>
          <ns3:TrackPointExtension>
            <ns3:hr>115</ns3:hr>
            <ns3:cad>0</ns3:cad>
          </ns3:TrackPointExtension>
        </extensions>
      </trkpt>
      <trkpt lat="44.673656634986400604248046875" lon="6.78595595061779022216796875">
        <ele>1770.199951171875</ele>
        <time>2026-08-31T05:29:45.000Z</time>
        <extensions>
          <ns3:TrackPointExtension>
            <ns3:hr>116</ns3:hr>
            <ns3:cad>0</ns3:cad>
          </ns3:TrackPointExtension>
        </extensions>
      </trkpt>
      <trkpt lat="44.6736574731767177581787109375" lon="6.78595553152263164520263671875">
        <ele>1770.199951171875</ele>
        <time>2026-08-31T05:29:46.000Z</time>
        <extensions>
          <ns3:TrackPointExtension>
            <ns3:hr>115</ns3:hr>
            <ns3:cad>0</ns3:cad>
          </ns3:TrackPointExtension>
        </extensions>
      </trkpt>
      <trkpt lat="44.67365227639675140380859375" lon="6.785944215953350067138671875">
        <ele>1770.4000244140625</ele>
        <time>2026-08-31T05:29:47.000Z</time>
        <extensions>
          <ns3:TrackPointExtension>
            <ns3:hr>115</ns3:hr>
            <ns3:cad>0</ns3:cad>
          </ns3:TrackPointExtension>
        </extensions>
      </trkpt>
      <trkpt lat="44.67365068383514881134033203125" lon="6.785948574542999267578125">
        <ele>1770.4000244140625</ele>
        <time>2026-08-31T05:29:48.000Z</time>
        <extensions>
          <ns3:TrackPointExtension>
            <ns3:hr>115</ns3:hr>
            <ns3:cad>0</ns3:cad>
          </ns3:TrackPointExtension>
        </extensions>
      </trkpt>
      <trkpt lat="44.6736511029303073883056640625" lon="6.78595016710460186004638671875">
        <ele>1770.4000244140625</ele>
        <time>2026-08-31T05:29:49.000Z</time>
        <extensions>
          <ns3:TrackPointExtension>
            <ns3:hr>115</ns3:hr>
            <ns3:cad>0</ns3:cad>
          </ns3:TrackPointExtension>
        </extensions>
      </trkpt>
      <trkpt lat="44.67365034855902194976806640625" lon="6.78594966419041156768798828125">
        <ele>1770.4000244140625</ele>
        <time>2026-08-31T05:29:50.000Z</time>
        <extensions>
          <ns3:TrackPointExtension>
            <ns3:hr>115</ns3:hr>
            <ns3:cad>0</ns3:cad>
          </ns3:TrackPointExtension>
        </extensions>
      </trkpt>
      <trkpt lat="44.6736534498631954193115234375" lon="6.7859474010765552520751953125">
        <ele>1770.4000244140625</ele>
        <time>2026-08-31T05:29:51.000Z</time>
        <extensions>
          <ns3:TrackPointExtension>
            <ns3:hr>115</ns3:hr>
            <ns3:cad>0</ns3:cad>
          </ns3:TrackPointExtension>
        </extensions>
      </trkpt>
      <trkpt lat="44.67365219257771968841552734375" lon="6.78593994118273258209228515625">
        <ele>1770.4000244140625</ele>
        <time>2026-08-31T05:29:52.000Z</time>
        <extensions>
          <ns3:TrackPointExtension>
            <ns3:hr>115</ns3:hr>
            <ns3:cad>0</ns3:cad>
          </ns3:TrackPointExtension>
        </extensions>
      </trkpt>
      <trkpt lat="44.6736507676541805267333984375" lon="6.785938180983066558837890625">
        <ele>1770.4000244140625</ele>
        <time>2026-08-31T05:29:53.000Z</time>
        <extensions>
          <ns3:TrackPointExtension>
            <ns3:hr>114</ns3:hr>
            <ns3:cad>0</ns3:cad>
          </ns3:TrackPointExtension>
        </extensions>
      </trkpt>
      <trkpt lat="44.67366795055568218231201171875" lon="6.78594480268657207489013671875">
        <ele>1770.5999755859375</ele>
        <time>2026-08-31T05:29:54.000Z</time>
        <extensions>
          <ns3:TrackPointExtension>
            <ns3:hr>115</ns3:hr>
            <ns3:cad>0</ns3:cad>
          </ns3:TrackPointExtension>
        </extensions>
      </trkpt>
      <trkpt lat="44.67366510070860385894775390625" lon="6.785943210124969482421875">
        <ele>1770.5999755859375</ele>
        <time>2026-08-31T05:29:55.000Z</time>
        <extensions>
          <ns3:TrackPointExtension>
            <ns3:hr>115</ns3:hr>
            <ns3:cad>0</ns3:cad>
          </ns3:TrackPointExtension>
        </extensions>
      </trkpt>
      <trkpt lat="44.6736621670424938201904296875" lon="6.7859418690204620361328125">
        <ele>1770.5999755859375</ele>
        <time>2026-08-31T05:29:56.000Z</time>
        <extensions>
          <ns3:TrackPointExtension>
            <ns3:hr>115</ns3:hr>
            <ns3:cad>0</ns3:cad>
          </ns3:TrackPointExtension>
        </extensions>
      </trkpt>
      <trkpt lat="44.673663675785064697265625" lon="6.785956285893917083740234375">
        <ele>1770.5999755859375</ele>
        <time>2026-08-31T05:29:57.000Z</time>
        <extensions>
          <ns3:TrackPointExtension>
            <ns3:hr>115</ns3:hr>
            <ns3:cad>0</ns3:cad>
          </ns3:TrackPointExtension>
        </extensions>
      </trkpt>
      <trkpt lat="44.673663675785064697265625" lon="6.785956285893917083740234375">
        <ele>1770.5999755859375</ele>
        <time>2026-08-31T05:29:58.000Z</time>
        <extensions>
          <ns3:TrackPointExtension>
            <ns3:hr>116</ns3:hr>
            <ns3:cad>0</ns3:cad>
          </ns3:TrackPointExtension>
        </extensions>
      </trkpt>
      <trkpt lat="44.673663675785064697265625" lon="6.785956285893917083740234375">
        <ele>1770.5999755859375</ele>
        <time>2026-08-31T05:29:59.000Z</time>
        <extensions>
          <ns3:TrackPointExtension>
            <ns3:hr>115</ns3:hr>
            <ns3:cad>0</ns3:cad>
          </ns3:TrackPointExtension>
        </extensions>
      </trkpt>
      <trkpt lat="44.673663675785064697265625" lon="6.785956285893917083740234375">
        <ele>1770.5999755859375</ele>
        <time>2026-08-31T05:30:00.000Z</time>
        <extensions>
          <ns3:TrackPointExtension>
            <ns3:hr>115</ns3:hr>
            <ns3:cad>0</ns3:cad>
          </ns3:TrackPointExtension>
        </extensions>
      </trkpt>
      <trkpt lat="44.673663675785064697265625" lon="6.785956285893917083740234375">
        <ele>1770.5999755859375</ele>
        <time>2026-08-31T05:30:01.000Z</time>
        <extensions>
          <ns3:TrackPointExtension>
            <ns3:hr>115</ns3:hr>
            <ns3:cad>0</ns3:cad>
          </ns3:TrackPointExtension>
        </extensions>
      </trkpt>
      <trkpt lat="44.673663675785064697265625" lon="6.785956285893917083740234375">
        <ele>1770.5999755859375</ele>
        <time>2026-08-31T05:30:02.000Z</time>
        <extensions>
          <ns3:TrackPointExtension>
            <ns3:hr>115</ns3:hr>
            <ns3:cad>0</ns3:cad>
          </ns3:TrackPointExtension>
        </extensions>
      </trkpt>
      <trkpt lat="44.673663675785064697265625" lon="6.785956285893917083740234375">
        <ele>1770.5999755859375</ele>
        <time>2026-08-31T05:30:03.000Z</time>
        <extensions>
          <ns3:TrackPointExtension>
            <ns3:hr>115</ns3:hr>
            <ns3:cad>0</ns3:cad>
          </ns3:TrackPointExtension>
        </extensions>
      </trkpt>
      <trkpt lat="44.673663675785064697265625" lon="6.785956285893917083740234375">
        <ele>1770.5999755859375</ele>
        <time>2026-08-31T05:30:04.000Z</time>
        <extensions>
          <ns3:TrackPointExtension>
            <ns3:hr>114</ns3:hr>
            <ns3:cad>0</ns3:cad>
          </ns3:TrackPointExtension>
        </extensions>
      </trkpt>
      <trkpt lat="44.673663675785064697265625" lon="6.785956285893917083740234375">
        <ele>1770.5999755859375</ele>
        <time>2026-08-31T05:30:05.000Z</time>
        <extensions>
          <ns3:TrackPointExtension>
            <ns3:hr>114</ns3:hr>
            <ns3:cad>0</ns3:cad>
          </ns3:TrackPointExtension>
        </extensions>
      </trkpt>
      <trkpt lat="44.673663675785064697265625" lon="6.785956285893917083740234375">
        <ele>1770.5999755859375</ele>
        <time>2026-08-31T05:30:06.000Z</time>
        <extensions>
          <ns3:TrackPointExtension>
            <ns3:hr>113</ns3:hr>
            <ns3:cad>0</ns3:cad>
          </ns3:TrackPointExtension>
        </extensions>
      </trkpt>
      <trkpt lat="44.673663675785064697265625" lon="6.785956285893917083740234375">
        <ele>1770.5999755859375</ele>
        <time>2026-08-31T05:30:07.000Z</time>
        <extensions>
          <ns3:TrackPointExtension>
            <ns3:hr>113</ns3:hr>
            <ns3:cad>0</ns3:cad>
          </ns3:TrackPointExtension>
        </extensions>
      </trkpt>
      <trkpt lat="44.673663675785064697265625" lon="6.785956285893917083740234375">
        <ele>1770.5999755859375</ele>
        <time>2026-08-31T05:30:08.000Z</time>
        <extensions>
          <ns3:TrackPointExtension>
            <ns3:hr>113</ns3:hr>
            <ns3:cad>0</ns3:cad>
          </ns3:TrackPointExtension>
        </extensions>
      </trkpt>
      <trkpt lat="44.673663675785064697265625" lon="6.785956285893917083740234375">
        <ele>1770.5999755859375</ele>
        <time>2026-08-31T05:30:09.000Z</time>
        <extensions>
          <ns3:TrackPointExtension>
            <ns3:hr>113</ns3:hr>
            <ns3:cad>0</ns3:cad>
          </ns3:TrackPointExtension>
        </extensions>
      </trkpt>
      <trkpt lat="44.673663675785064697265625" lon="6.785956285893917083740234375">
        <ele>1770.5999755859375</ele>
        <time>2026-08-31T05:30:10.000Z</time>
        <extensions>
          <ns3:TrackPointExtension>
            <ns3:hr>112</ns3:hr>
            <ns3:cad>0</ns3:cad>
          </ns3:TrackPointExtension>
        </extensions>
      </trkpt>
      <trkpt lat="44.673663675785064697265625" lon="6.785956285893917083740234375">
        <ele>1770.5999755859375</ele>
        <time>2026-08-31T05:30:11.000Z</time>
        <extensions>
          <ns3:TrackPointExtension>
            <ns3:hr>112</ns3:hr>
            <ns3:cad>0</ns3:cad>
          </ns3:TrackPointExtension>
        </extensions>
      </trkpt>
      <trkpt lat="44.673663675785064697265625" lon="6.785956285893917083740234375">
        <ele>1770.5999755859375</ele>
        <time>2026-08-31T05:30:12.000Z</time>
        <extensions>
          <ns3:TrackPointExtension>
            <ns3:hr>112</ns3:hr>
            <ns3:cad>0</ns3:cad>
          </ns3:TrackPointExtension>
        </extensions>
      </trkpt>
      <trkpt lat="44.673663675785064697265625" lon="6.785956285893917083740234375">
        <ele>1770.5999755859375</ele>
        <time>2026-08-31T05:30:13.000Z</time>
        <extensions>
          <ns3:TrackPointExtension>
            <ns3:hr>111</ns3:hr>
            <ns3:cad>0</ns3:cad>
          </ns3:TrackPointExtension>
        </extensions>
      </trkpt>
      <trkpt lat="44.673663675785064697265625" lon="6.785956285893917083740234375">
        <ele>1770.5999755859375</ele>
        <time>2026-08-31T05:30:14.000Z</time>
        <extensions>
          <ns3:TrackPointExtension>
            <ns3:hr>111</ns3:hr>
            <ns3:cad>0</ns3:cad>
          </ns3:TrackPointExtension>
        </extensions>
      </trkpt>
      <trkpt lat="44.673663675785064697265625" lon="6.785956285893917083740234375">
        <ele>1770.5999755859375</ele>
        <time>2026-08-31T05:30:15.000Z</time>
        <extensions>
          <ns3:TrackPointExtension>
            <ns3:hr>111</ns3:hr>
            <ns3:cad>0</ns3:cad>
          </ns3:TrackPointExtension>
        </extensions>
      </trkpt>
      <trkpt lat="44.673663675785064697265625" lon="6.785956285893917083740234375">
        <ele>1770.5999755859375</ele>
        <time>2026-08-31T05:30:16.000Z</time>
        <extensions>
          <ns3:TrackPointExtension>
            <ns3:hr>110</ns3:hr>
            <ns3:cad>0</ns3:cad>
          </ns3:TrackPointExtension>
        </extensions>
      </trkpt>
      <trkpt lat="44.673663675785064697265625" lon="6.785956285893917083740234375">
        <ele>1770.5999755859375</ele>
        <time>2026-08-31T05:30:17.000Z</time>
        <extensions>
          <ns3:TrackPointExtension>
            <ns3:hr>110</ns3:hr>
            <ns3:cad>0</ns3:cad>
          </ns3:TrackPointExtension>
        </extensions>
      </trkpt>
      <trkpt lat="44.673663675785064697265625" lon="6.785956285893917083740234375">
        <ele>1770.5999755859375</ele>
        <time>2026-08-31T05:30:18.000Z</time>
        <extensions>
          <ns3:TrackPointExtension>
            <ns3:hr>110</ns3:hr>
            <ns3:cad>0</ns3:cad>
          </ns3:TrackPointExtension>
        </extensions>
      </trkpt>
      <trkpt lat="44.673663675785064697265625" lon="6.785956285893917083740234375">
        <ele>1770.5999755859375</ele>
        <time>2026-08-31T05:30:19.000Z</time>
        <extensions>
          <ns3:TrackPointExtension>
            <ns3:hr>110</ns3:hr>
            <ns3:cad>0</ns3:cad>
          </ns3:TrackPointExtension>
        </extensions>
      </trkpt>
      <trkpt lat="44.67366158030927181243896484375" lon="6.78594899363815784454345703125">
        <ele>1770.5999755859375</ele>
        <time>2026-08-31T05:30:20.000Z</time>
        <extensions>
          <ns3:TrackPointExtension>
            <ns3:hr>111</ns3:hr>
            <ns3:cad>0</ns3:cad>
          </ns3:TrackPointExtension>
        </extensions>
      </trkpt>
      <trkpt lat="44.67365562915802001953125" lon="6.78596139885485172271728515625">
        <ele>1770.5999755859375</ele>
        <time>2026-08-31T05:30:21.000Z</time>
        <extensions>
          <ns3:TrackPointExtension>
            <ns3:hr>111</ns3:hr>
            <ns3:cad>0</ns3:cad>
          </ns3:TrackPointExtension>
        </extensions>
      </trkpt>
      <trkpt lat="44.67365236021578311920166015625" lon="6.78597648628056049346923828125">
        <ele>1770.5999755859375</ele>
        <time>2026-08-31T05:30:22.000Z</time>
        <extensions>
          <ns3:TrackPointExtension>
            <ns3:hr>111</ns3:hr>
            <ns3:cad>0</ns3:cad>
          </ns3:TrackPointExtension>
        </extensions>
      </trkpt>
      <trkpt lat="44.67364900745451450347900390625" lon="6.7859933339059352874755859375">
        <ele>1770.5999755859375</ele>
        <time>2026-08-31T05:30:23.000Z</time>
        <extensions>
          <ns3:TrackPointExtension>
            <ns3:hr>112</ns3:hr>
            <ns3:cad>0</ns3:cad>
          </ns3:TrackPointExtension>
        </extensions>
      </trkpt>
      <trkpt lat="44.673645906150341033935546875" lon="6.7860090918838977813720703125">
        <ele>1770.5999755859375</ele>
        <time>2026-08-31T05:30:24.000Z</time>
        <extensions>
          <ns3:TrackPointExtension>
            <ns3:hr>112</ns3:hr>
            <ns3:cad>0</ns3:cad>
          </ns3:TrackPointExtension>
        </extensions>
      </trkpt>
      <trkpt lat="44.673647247254848480224609375" lon="6.7860235087573528289794921875">
        <ele>1770.800048828125</ele>
        <time>2026-08-31T05:30:25.000Z</time>
        <extensions>
          <ns3:TrackPointExtension>
            <ns3:hr>112</ns3:hr>
            <ns3:cad>50</ns3:cad>
          </ns3:TrackPointExtension>
        </extensions>
      </trkpt>
      <trkpt lat="44.67364666052162647247314453125" lon="6.78603650070726871490478515625">
        <ele>1771</ele>
        <time>2026-08-31T05:30:26.000Z</time>
        <extensions>
          <ns3:TrackPointExtension>
            <ns3:hr>111</ns3:hr>
            <ns3:cad>51</ns3:cad>
          </ns3:TrackPointExtension>
        </extensions>
      </trkpt>
      <trkpt lat="44.67364565469324588775634765625" lon="6.786049492657184600830078125">
        <ele>1771.199951171875</ele>
        <time>2026-08-31T05:30:27.000Z</time>
        <extensions>
          <ns3:TrackPointExtension>
            <ns3:hr>112</ns3:hr>
            <ns3:cad>52</ns3:cad>
          </ns3:TrackPointExtension>
        </extensions>
      </trkpt>
      <trkpt lat="44.673644565045833587646484375" lon="6.7860598862171173095703125">
        <ele>1771.4000244140625</ele>
        <time>2026-08-31T05:30:28.000Z</time>
        <extensions>
          <ns3:TrackPointExtension>
            <ns3:hr>112</ns3:hr>
            <ns3:cad>52</ns3:cad>
          </ns3:TrackPointExtension>
        </extensions>
      </trkpt>
      <trkpt lat="44.6736417151987552642822265625" lon="6.7860727943480014801025390625">
        <ele>1771.5999755859375</ele>
        <time>2026-08-31T05:30:29.000Z</time>
        <extensions>
          <ns3:TrackPointExtension>
            <ns3:hr>111</ns3:hr>
            <ns3:cad>50</ns3:cad>
          </ns3:TrackPointExtension>
        </extensions>
      </trkpt>
      <trkpt lat="44.67363928444683551788330078125" lon="6.78608335554599761962890625">
        <ele>1771.800048828125</ele>
        <time>2026-08-31T05:30:30.000Z</time>
        <extensions>
          <ns3:TrackPointExtension>
            <ns3:hr>111</ns3:hr>
            <ns3:cad>50</ns3:cad>
          </ns3:TrackPointExtension>
        </extensions>
      </trkpt>
      <trkpt lat="44.67363626696169376373291015625" lon="6.78609668277204036712646484375">
        <ele>1772</ele>
        <time>2026-08-31T05:30:31.000Z</time>
        <extensions>
          <ns3:TrackPointExtension>
            <ns3:hr>111</ns3:hr>
            <ns3:cad>51</ns3:cad>
          </ns3:TrackPointExtension>
        </extensions>
      </trkpt>
      <trkpt lat="44.67363375239074230194091796875" lon="6.78611059673130512237548828125">
        <ele>1772.199951171875</ele>
        <time>2026-08-31T05:30:32.000Z</time>
        <extensions>
          <ns3:TrackPointExtension>
            <ns3:hr>111</ns3:hr>
            <ns3:cad>51</ns3:cad>
          </ns3:TrackPointExtension>
        </extensions>
      </trkpt>
      <trkpt lat="44.67363308183848857879638671875" lon="6.78612668998539447784423828125">
        <ele>1772.4000244140625</ele>
        <time>2026-08-31T05:30:33.000Z</time>
        <extensions>
          <ns3:TrackPointExtension>
            <ns3:hr>112</ns3:hr>
            <ns3:cad>51</ns3:cad>
          </ns3:TrackPointExtension>
        </extensions>
      </trkpt>
      <trkpt lat="44.67363090254366397857666015625" lon="6.78614244796335697174072265625">
        <ele>1772.5999755859375</ele>
        <time>2026-08-31T05:30:34.000Z</time>
        <extensions>
          <ns3:TrackPointExtension>
            <ns3:hr>111</ns3:hr>
            <ns3:cad>51</ns3:cad>
          </ns3:TrackPointExtension>
        </extensions>
      </trkpt>
      <trkpt lat="44.673629812896251678466796875" lon="6.7861512489616870880126953125">
        <ele>1772.800048828125</ele>
        <time>2026-08-31T05:30:35.000Z</time>
        <extensions>
          <ns3:TrackPointExtension>
            <ns3:hr>112</ns3:hr>
            <ns3:cad>51</ns3:cad>
          </ns3:TrackPointExtension>
        </extensions>
      </trkpt>
      <trkpt lat="44.673627801239490509033203125" lon="6.78617094643414020538330078125">
        <ele>1773</ele>
        <time>2026-08-31T05:30:36.000Z</time>
        <extensions>
          <ns3:TrackPointExtension>
            <ns3:hr>112</ns3:hr>
            <ns3:cad>51</ns3:cad>
          </ns3:TrackPointExtension>
        </extensions>
      </trkpt>
      <trkpt lat="44.67362880706787109375" lon="6.7861874587833881378173828125">
        <ele>1773.199951171875</ele>
        <time>2026-08-31T05:30:37.000Z</time>
        <extensions>
          <ns3:TrackPointExtension>
            <ns3:hr>113</ns3:hr>
            <ns3:cad>51</ns3:cad>
          </ns3:TrackPointExtension>
        </extensions>
      </trkpt>
      <trkpt lat="44.6736289747059345245361328125" lon="6.7862020432949066162109375">
        <ele>1773.4000244140625</ele>
        <time>2026-08-31T05:30:38.000Z</time>
        <extensions>
          <ns3:TrackPointExtension>
            <ns3:hr>114</ns3:hr>
            <ns3:cad>51</ns3:cad>
          </ns3:TrackPointExtension>
        </extensions>
      </trkpt>
      <trkpt lat="44.67362654395401477813720703125" lon="6.78621956147253513336181640625">
        <ele>1773.5999755859375</ele>
        <time>2026-08-31T05:30:39.000Z</time>
        <extensions>
          <ns3:TrackPointExtension>
            <ns3:hr>116</ns3:hr>
            <ns3:cad>51</ns3:cad>
          </ns3:TrackPointExtension>
        </extensions>
      </trkpt>
      <trkpt lat="44.67362880706787109375" lon="6.78623087704181671142578125">
        <ele>1773.800048828125</ele>
        <time>2026-08-31T05:30:40.000Z</time>
        <extensions>
          <ns3:TrackPointExtension>
            <ns3:hr>119</ns3:hr>
            <ns3:cad>51</ns3:cad>
          </ns3:TrackPointExtension>
        </extensions>
      </trkpt>
      <trkpt lat="44.673627801239490509033203125" lon="6.786248646676540374755859375">
        <ele>1774</ele>
        <time>2026-08-31T05:30:41.000Z</time>
        <extensions>
          <ns3:TrackPointExtension>
            <ns3:hr>120</ns3:hr>
            <ns3:cad>51</ns3:cad>
          </ns3:TrackPointExtension>
        </extensions>
      </trkpt>
      <trkpt lat="44.6736194193363189697265625" lon="6.7862602137029170989990234375">
        <ele>1774.199951171875</ele>
        <time>2026-08-31T05:30:42.000Z</time>
        <extensions>
          <ns3:TrackPointExtension>
            <ns3:hr>121</ns3:hr>
            <ns3:cad>51</ns3:cad>
          </ns3:TrackPointExtension>
        </extensions>
      </trkpt>
      <trkpt lat="44.67361514456570148468017578125" lon="6.78627622313797473907470703125">
        <ele>1774.5999755859375</ele>
        <time>2026-08-31T05:30:43.000Z</time>
        <extensions>
          <ns3:TrackPointExtension>
            <ns3:hr>121</ns3:hr>
            <ns3:cad>51</ns3:cad>
          </ns3:TrackPointExtension>
        </extensions>
      </trkpt>
      <trkpt lat="44.6736148931086063385009765625" lon="6.7862877063453197479248046875">
        <ele>1774.5999755859375</ele>
        <time>2026-08-31T05:30:44.000Z</time>
        <extensions>
          <ns3:TrackPointExtension>
            <ns3:hr>120</ns3:hr>
            <ns3:cad>0</ns3:cad>
          </ns3:TrackPointExtension>
        </extensions>
      </trkpt>
      <trkpt lat="44.67361363582313060760498046875" lon="6.78629986010491847991943359375">
        <ele>1774.800048828125</ele>
        <time>2026-08-31T05:30:45.000Z</time>
        <extensions>
          <ns3:TrackPointExtension>
            <ns3:hr>119</ns3:hr>
            <ns3:cad>0</ns3:cad>
          </ns3:TrackPointExtension>
        </extensions>
      </trkpt>
      <trkpt lat="44.67361338436603546142578125" lon="6.78631142713129520416259765625">
        <ele>1775</ele>
        <time>2026-08-31T05:30:46.000Z</time>
        <extensions>
          <ns3:TrackPointExtension>
            <ns3:hr>120</ns3:hr>
            <ns3:cad>0</ns3:cad>
          </ns3:TrackPointExtension>
        </extensions>
      </trkpt>
      <trkpt lat="44.67361363582313060760498046875" lon="6.7863214015960693359375">
        <ele>1775.199951171875</ele>
        <time>2026-08-31T05:30:47.000Z</time>
        <extensions>
          <ns3:TrackPointExtension>
            <ns3:hr>121</ns3:hr>
            <ns3:cad>0</ns3:cad>
          </ns3:TrackPointExtension>
        </extensions>
      </trkpt>
      <trkpt lat="44.67361338436603546142578125" lon="6.7863339744508266448974609375">
        <ele>1775.4000244140625</ele>
        <time>2026-08-31T05:30:48.000Z</time>
        <extensions>
          <ns3:TrackPointExtension>
            <ns3:hr>121</ns3:hr>
            <ns3:cad>0</ns3:cad>
          </ns3:TrackPointExtension>
        </extensions>
      </trkpt>
      <trkpt lat="44.6736145578324794769287109375" lon="6.78634948097169399261474609375">
        <ele>1775.5999755859375</ele>
        <time>2026-08-31T05:30:49.000Z</time>
        <extensions>
          <ns3:TrackPointExtension>
            <ns3:hr>123</ns3:hr>
            <ns3:cad>0</ns3:cad>
          </ns3:TrackPointExtension>
        </extensions>
      </trkpt>
      <trkpt lat="44.6736152283847332000732421875" lon="6.7863651551306247711181640625">
        <ele>1775.800048828125</ele>
        <time>2026-08-31T05:30:50.000Z</time>
        <extensions>
          <ns3:TrackPointExtension>
            <ns3:hr>124</ns3:hr>
            <ns3:cad>0</ns3:cad>
          </ns3:TrackPointExtension>
        </extensions>
      </trkpt>
      <trkpt lat="44.6736180782318115234375" lon="6.78637982346117496490478515625">
        <ele>1776</ele>
        <time>2026-08-31T05:30:51.000Z</time>
        <extensions>
          <ns3:TrackPointExtension>
            <ns3:hr>124</ns3:hr>
            <ns3:cad>0</ns3:cad>
          </ns3:TrackPointExtension>
        </extensions>
      </trkpt>
      <trkpt lat="44.67362352646887302398681640625" lon="6.78639105521142482757568359375">
        <ele>1776.199951171875</ele>
        <time>2026-08-31T05:30:52.000Z</time>
        <extensions>
          <ns3:TrackPointExtension>
            <ns3:hr>125</ns3:hr>
            <ns3:cad>0</ns3:cad>
          </ns3:TrackPointExtension>
        </extensions>
      </trkpt>
      <trkpt lat="44.673635847866535186767578125" lon="6.7863951623439788818359375">
        <ele>1776.4000244140625</ele>
        <time>2026-08-31T05:30:53.000Z</time>
        <extensions>
          <ns3:TrackPointExtension>
            <ns3:hr>126</ns3:hr>
            <ns3:cad>0</ns3:cad>
          </ns3:TrackPointExtension>
        </extensions>
      </trkpt>
      <trkpt lat="44.67364414595067501068115234375" lon="6.786391474306583404541015625">
        <ele>1776.5999755859375</ele>
        <time>2026-08-31T05:30:54.000Z</time>
        <extensions>
          <ns3:TrackPointExtension>
            <ns3:hr>128</ns3:hr>
            <ns3:cad>0</ns3:cad>
          </ns3:TrackPointExtension>
        </extensions>
      </trkpt>
      <trkpt lat="44.673646576702594757080078125" lon="6.78638904355466365814208984375">
        <ele>1776.5999755859375</ele>
        <time>2026-08-31T05:30:55.000Z</time>
        <extensions>
          <ns3:TrackPointExtension>
            <ns3:hr>129</ns3:hr>
            <ns3:cad>0</ns3:cad>
          </ns3:TrackPointExtension>
        </extensions>
      </trkpt>
      <trkpt lat="44.67364967800676822662353515625" lon="6.7863752134144306182861328125">
        <ele>1776.800048828125</ele>
        <time>2026-08-31T05:30:56.000Z</time>
        <extensions>
          <ns3:TrackPointExtension>
            <ns3:hr>129</ns3:hr>
            <ns3:cad>0</ns3:cad>
          </ns3:TrackPointExtension>
        </extensions>
      </trkpt>
      <trkpt lat="44.67364816926419734954833984375" lon="6.78636775352060794830322265625">
        <ele>1777</ele>
        <time>2026-08-31T05:30:57.000Z</time>
        <extensions>
          <ns3:TrackPointExtension>
            <ns3:hr>130</ns3:hr>
            <ns3:cad>0</ns3:cad>
          </ns3:TrackPointExtension>
        </extensions>
      </trkpt>
      <trkpt lat="44.67364749871194362640380859375" lon="6.78635283373296260833740234375">
        <ele>1777.199951171875</ele>
        <time>2026-08-31T05:30:58.000Z</time>
        <extensions>
          <ns3:TrackPointExtension>
            <ns3:hr>131</ns3:hr>
            <ns3:cad>0</ns3:cad>
          </ns3:TrackPointExtension>
        </extensions>
      </trkpt>
      <trkpt lat="44.67364615760743618011474609375" lon="6.786337830126285552978515625">
        <ele>1777.4000244140625</ele>
        <time>2026-08-31T05:30:59.000Z</time>
        <extensions>
          <ns3:TrackPointExtension>
            <ns3:hr>132</ns3:hr>
            <ns3:cad>0</ns3:cad>
          </ns3:TrackPointExtension>
        </extensions>
      </trkpt>
      <trkpt lat="44.67364883981645107269287109375" lon="6.78632919676601886749267578125">
        <ele>1777.5999755859375</ele>
        <time>2026-08-31T05:31:00.000Z</time>
        <extensions>
          <ns3:TrackPointExtension>
            <ns3:hr>132</ns3:hr>
            <ns3:cad>0</ns3:cad>
          </ns3:TrackPointExtension>
        </extensions>
      </trkpt>
      <trkpt lat="44.67365252785384654998779296875" lon="6.786315031349658966064453125">
        <ele>1777.800048828125</ele>
        <time>2026-08-31T05:31:01.000Z</time>
        <extensions>
          <ns3:TrackPointExtension>
            <ns3:hr>133</ns3:hr>
            <ns3:cad>0</ns3:cad>
          </ns3:TrackPointExtension>
        </extensions>
      </trkpt>
      <trkpt lat="44.6736551262438297271728515625" lon="6.786304302513599395751953125">
        <ele>1778</ele>
        <time>2026-08-31T05:31:02.000Z</time>
        <extensions>
          <ns3:TrackPointExtension>
            <ns3:hr>134</ns3:hr>
            <ns3:cad>0</ns3:cad>
          </ns3:TrackPointExtension>
        </extensions>
      </trkpt>
      <trkpt lat="44.67365554533898830413818359375" lon="6.786304302513599395751953125">
        <ele>1778.199951171875</ele>
        <time>2026-08-31T05:31:03.000Z</time>
        <extensions>
          <ns3:TrackPointExtension>
            <ns3:hr>134</ns3:hr>
            <ns3:cad>0</ns3:cad>
          </ns3:TrackPointExtension>
        </extensions>
      </trkpt>
      <trkpt lat="44.67366426251828670501708984375" lon="6.78629382513463497161865234375">
        <ele>1778.4000244140625</ele>
        <time>2026-08-31T05:31:04.000Z</time>
        <extensions>
          <ns3:TrackPointExtension>
            <ns3:hr>135</ns3:hr>
            <ns3:cad>0</ns3:cad>
          </ns3:TrackPointExtension>
        </extensions>
      </trkpt>
      <trkpt lat="44.6736782602965831756591796875" lon="6.7862877063453197479248046875">
        <ele>1778.5999755859375</ele>
        <time>2026-08-31T05:31:05.000Z</time>
        <extensions>
          <ns3:TrackPointExtension>
            <ns3:hr>135</ns3:hr>
            <ns3:cad>0</ns3:cad>
          </ns3:TrackPointExtension>
        </extensions>
      </trkpt>
      <trkpt lat="44.67368890531361103057861328125" lon="6.7862863652408123016357421875">
        <ele>1778.800048828125</ele>
        <time>2026-08-31T05:31:06.000Z</time>
        <extensions>
          <ns3:TrackPointExtension>
            <ns3:hr>136</ns3:hr>
            <ns3:cad>0</ns3:cad>
          </ns3:TrackPointExtension>
        </extensions>
      </trkpt>
      <trkpt lat="44.67369343154132366180419921875" lon="6.78629013709723949432373046875">
        <ele>1779.199951171875</ele>
        <time>2026-08-31T05:31:07.000Z</time>
        <extensions>
          <ns3:TrackPointExtension>
            <ns3:hr>137</ns3:hr>
            <ns3:cad>0</ns3:cad>
          </ns3:TrackPointExtension>
        </extensions>
      </trkpt>
      <trkpt lat="44.67370063997805118560791015625" lon="6.78630329668521881103515625">
        <ele>1779.4000244140625</ele>
        <time>2026-08-31T05:31:08.000Z</time>
        <extensions>
          <ns3:TrackPointExtension>
            <ns3:hr>138</ns3:hr>
            <ns3:cad>0</ns3:cad>
          </ns3:TrackPointExtension>
        </extensions>
      </trkpt>
      <trkpt lat="44.67370198108255863189697265625" lon="6.7863091640174388885498046875">
        <ele>1779.5999755859375</ele>
        <time>2026-08-31T05:31:09.000Z</time>
        <extensions>
          <ns3:TrackPointExtension>
            <ns3:hr>139</ns3:hr>
            <ns3:cad>0</ns3:cad>
          </ns3:TrackPointExtension>
        </extensions>
      </trkpt>
      <trkpt lat="44.6737040765583515167236328125" lon="6.78631796501576900482177734375">
        <ele>1779.5999755859375</ele>
        <time>2026-08-31T05:31:10.000Z</time>
        <extensions>
          <ns3:TrackPointExtension>
            <ns3:hr>139</ns3:hr>
            <ns3:cad>0</ns3:cad>
          </ns3:TrackPointExtension>
        </extensions>
      </trkpt>
      <trkpt lat="44.67370701022446155548095703125" lon="6.78633070550858974456787109375">
        <ele>1779.800048828125</ele>
        <time>2026-08-31T05:31:11.000Z</time>
        <extensions>
          <ns3:TrackPointExtension>
            <ns3:hr>140</ns3:hr>
            <ns3:cad>0</ns3:cad>
          </ns3:TrackPointExtension>
        </extensions>
      </trkpt>
      <trkpt lat="44.67371103353798389434814453125" lon="6.786345876753330230712890625">
        <ele>1779.800048828125</ele>
        <time>2026-08-31T05:31:12.000Z</time>
        <extensions>
          <ns3:TrackPointExtension>
            <ns3:hr>140</ns3:hr>
            <ns3:cad>0</ns3:cad>
          </ns3:TrackPointExtension>
        </extensions>
      </trkpt>
      <trkpt lat="44.67371530830860137939453125" lon="6.78635937161743640899658203125">
        <ele>1779.800048828125</ele>
        <time>2026-08-31T05:31:13.000Z</time>
        <extensions>
          <ns3:TrackPointExtension>
            <ns3:hr>141</ns3:hr>
            <ns3:cad>0</ns3:cad>
          </ns3:TrackPointExtension>
        </extensions>
      </trkpt>
      <trkpt lat="44.673722684383392333984375" lon="6.78637496195733547210693359375">
        <ele>1780</ele>
        <time>2026-08-31T05:31:14.000Z</time>
        <extensions>
          <ns3:TrackPointExtension>
            <ns3:hr>142</ns3:hr>
            <ns3:cad>0</ns3:cad>
          </ns3:TrackPointExtension>
        </extensions>
      </trkpt>
      <trkpt lat="44.6737288869917392730712890625" lon="6.78638703189790248870849609375">
        <ele>1780</ele>
        <time>2026-08-31T05:31:15.000Z</time>
        <extensions>
          <ns3:TrackPointExtension>
            <ns3:hr>142</ns3:hr>
            <ns3:cad>0</ns3:cad>
          </ns3:TrackPointExtension>
        </extensions>
      </trkpt>
      <trkpt lat="44.67373550869524478912353515625" lon="6.78640379570424556732177734375">
        <ele>1780.199951171875</ele>
        <time>2026-08-31T05:31:16.000Z</time>
        <extensions>
          <ns3:TrackPointExtension>
            <ns3:hr>143</ns3:hr>
            <ns3:cad>0</ns3:cad>
          </ns3:TrackPointExtension>
        </extensions>
      </trkpt>
      <trkpt lat="44.67374288477003574371337890625" lon="6.7864174582064151763916015625">
        <ele>1780.199951171875</ele>
        <time>2026-08-31T05:31:17.000Z</time>
        <extensions>
          <ns3:TrackPointExtension>
            <ns3:hr>144</ns3:hr>
            <ns3:cad>0</ns3:cad>
          </ns3:TrackPointExtension>
        </extensions>
      </trkpt>
      <trkpt lat="44.67375244013965129852294921875" lon="6.78642692975699901580810546875">
        <ele>1780.4000244140625</ele>
        <time>2026-08-31T05:31:18.000Z</time>
        <extensions>
          <ns3:TrackPointExtension>
            <ns3:hr>144</ns3:hr>
            <ns3:cad>0</ns3:cad>
          </ns3:TrackPointExtension>
        </extensions>
      </trkpt>
      <trkpt lat="44.6737634204328060150146484375" lon="6.7864362336695194244384765625">
        <ele>1780.4000244140625</ele>
        <time>2026-08-31T05:31:19.000Z</time>
        <extensions>
          <ns3:TrackPointExtension>
            <ns3:hr>145</ns3:hr>
            <ns3:cad>0</ns3:cad>
          </ns3:TrackPointExtension>
        </extensions>
      </trkpt>
      <trkpt lat="44.67377205379307270050048828125" lon="6.78644235245883464813232421875">
        <ele>1780.5999755859375</ele>
        <time>2026-08-31T05:31:20.000Z</time>
        <extensions>
          <ns3:TrackPointExtension>
            <ns3:hr>145</ns3:hr>
            <ns3:cad>0</ns3:cad>
          </ns3:TrackPointExtension>
        </extensions>
      </trkpt>
      <trkpt lat="44.67378211207687854766845703125" lon="6.7864501476287841796875">
        <ele>1780.5999755859375</ele>
        <time>2026-08-31T05:31:21.000Z</time>
        <extensions>
          <ns3:TrackPointExtension>
            <ns3:hr>145</ns3:hr>
            <ns3:cad>0</ns3:cad>
          </ns3:TrackPointExtension>
        </extensions>
      </trkpt>
      <trkpt lat="44.673794768750667572021484375" lon="6.78646179847419261932373046875">
        <ele>1780.5999755859375</ele>
        <time>2026-08-31T05:31:22.000Z</time>
        <extensions>
          <ns3:TrackPointExtension>
            <ns3:hr>146</ns3:hr>
            <ns3:cad>0</ns3:cad>
          </ns3:TrackPointExtension>
        </extensions>
      </trkpt>
      <trkpt lat="44.67380541376769542694091796875" lon="6.78646984510123729705810546875">
        <ele>1780.5999755859375</ele>
        <time>2026-08-31T05:31:23.000Z</time>
        <extensions>
          <ns3:TrackPointExtension>
            <ns3:hr>147</ns3:hr>
            <ns3:cad>57</ns3:cad>
          </ns3:TrackPointExtension>
        </extensions>
      </trkpt>
      <trkpt lat="44.67381446622312068939208984375" lon="6.786478646099567413330078125">
        <ele>1780.800048828125</ele>
        <time>2026-08-31T05:31:24.000Z</time>
        <extensions>
          <ns3:TrackPointExtension>
            <ns3:hr>147</ns3:hr>
            <ns3:cad>57</ns3:cad>
          </ns3:TrackPointExtension>
        </extensions>
      </trkpt>
      <trkpt lat="44.6738227643072605133056640625" lon="6.7864863574504852294921875">
        <ele>1780.800048828125</ele>
        <time>2026-08-31T05:31:25.000Z</time>
        <extensions>
          <ns3:TrackPointExtension>
            <ns3:hr>147</ns3:hr>
            <ns3:cad>57</ns3:cad>
          </ns3:TrackPointExtension>
        </extensions>
      </trkpt>
      <trkpt lat="44.67383223585784435272216796875" lon="6.7864955775439739227294921875">
        <ele>1780.800048828125</ele>
        <time>2026-08-31T05:31:26.000Z</time>
        <extensions>
          <ns3:TrackPointExtension>
            <ns3:hr>147</ns3:hr>
            <ns3:cad>57</ns3:cad>
          </ns3:TrackPointExtension>
        </extensions>
      </trkpt>
      <trkpt lat="44.67384061776101589202880859375" lon="6.7865042947232723236083984375">
        <ele>1781</ele>
        <time>2026-08-31T05:31:27.000Z</time>
        <extensions>
          <ns3:TrackPointExtension>
            <ns3:hr>147</ns3:hr>
            <ns3:cad>57</ns3:cad>
          </ns3:TrackPointExtension>
        </extensions>
      </trkpt>
      <trkpt lat="44.673849754035472869873046875" lon="6.7865130119025707244873046875">
        <ele>1781</ele>
        <time>2026-08-31T05:31:28.000Z</time>
        <extensions>
          <ns3:TrackPointExtension>
            <ns3:hr>148</ns3:hr>
            <ns3:cad>57</ns3:cad>
          </ns3:TrackPointExtension>
        </extensions>
      </trkpt>
      <trkpt lat="44.67386106960475444793701171875" lon="6.7865230701863765716552734375">
        <ele>1781</ele>
        <time>2026-08-31T05:31:29.000Z</time>
        <extensions>
          <ns3:TrackPointExtension>
            <ns3:hr>148</ns3:hr>
            <ns3:cad>57</ns3:cad>
          </ns3:TrackPointExtension>
        </extensions>
      </trkpt>
      <trkpt lat="44.67387246899306774139404296875" lon="6.78653153590857982635498046875">
        <ele>1781.199951171875</ele>
        <time>2026-08-31T05:31:30.000Z</time>
        <extensions>
          <ns3:TrackPointExtension>
            <ns3:hr>148</ns3:hr>
            <ns3:cad>57</ns3:cad>
          </ns3:TrackPointExtension>
        </extensions>
      </trkpt>
      <trkpt lat="44.67388252727687358856201171875" lon="6.78654293529689311981201171875">
        <ele>1781.199951171875</ele>
        <time>2026-08-31T05:31:31.000Z</time>
        <extensions>
          <ns3:TrackPointExtension>
            <ns3:hr>149</ns3:hr>
            <ns3:cad>57</ns3:cad>
          </ns3:TrackPointExtension>
        </extensions>
      </trkpt>
      <trkpt lat="44.67389040626585483551025390625" lon="6.78655282594263553619384765625">
        <ele>1781.4000244140625</ele>
        <time>2026-08-31T05:31:32.000Z</time>
        <extensions>
          <ns3:TrackPointExtension>
            <ns3:hr>149</ns3:hr>
            <ns3:cad>56</ns3:cad>
          </ns3:TrackPointExtension>
        </extensions>
      </trkpt>
      <trkpt lat="44.67389996163547039031982421875" lon="6.78656489588320255279541015625">
        <ele>1781.5999755859375</ele>
        <time>2026-08-31T05:31:33.000Z</time>
        <extensions>
          <ns3:TrackPointExtension>
            <ns3:hr>149</ns3:hr>
            <ns3:cad>0</ns3:cad>
          </ns3:TrackPointExtension>
        </extensions>
      </trkpt>
      <trkpt lat="44.6739079244434833526611328125" lon="6.78657285869121551513671875">
        <ele>1781.5999755859375</ele>
        <time>2026-08-31T05:31:34.000Z</time>
        <extensions>
          <ns3:TrackPointExtension>
            <ns3:hr>149</ns3:hr>
            <ns3:cad>0</ns3:cad>
          </ns3:TrackPointExtension>
        </extensions>
      </trkpt>
      <trkpt lat="44.67391588725149631500244140625" lon="6.78658065386116504669189453125">
        <ele>1781.800048828125</ele>
        <time>2026-08-31T05:31:35.000Z</time>
        <extensions>
          <ns3:TrackPointExtension>
            <ns3:hr>149</ns3:hr>
            <ns3:cad>0</ns3:cad>
          </ns3:TrackPointExtension>
        </extensions>
      </trkpt>
      <trkpt lat="44.67392611317336559295654296875" lon="6.786588616669178009033203125">
        <ele>1781.800048828125</ele>
        <time>2026-08-31T05:31:36.000Z</time>
        <extensions>
          <ns3:TrackPointExtension>
            <ns3:hr>150</ns3:hr>
            <ns3:cad>0</ns3:cad>
          </ns3:TrackPointExtension>
        </extensions>
      </trkpt>
      <trkpt lat="44.67393457889556884765625" lon="6.78659423254430294036865234375">
        <ele>1782</ele>
        <time>2026-08-31T05:31:37.000Z</time>
        <extensions>
          <ns3:TrackPointExtension>
            <ns3:hr>149</ns3:hr>
            <ns3:cad>0</ns3:cad>
          </ns3:TrackPointExtension>
        </extensions>
      </trkpt>
      <trkpt lat="44.6739451400935649871826171875" lon="6.7866016924381256103515625">
        <ele>1782.199951171875</ele>
        <time>2026-08-31T05:31:38.000Z</time>
        <extensions>
          <ns3:TrackPointExtension>
            <ns3:hr>148</ns3:hr>
            <ns3:cad>0</ns3:cad>
          </ns3:TrackPointExtension>
        </extensions>
      </trkpt>
      <trkpt lat="44.6739535219967365264892578125" lon="6.78660680539906024932861328125">
        <ele>1782.199951171875</ele>
        <time>2026-08-31T05:31:39.000Z</time>
        <extensions>
          <ns3:TrackPointExtension>
            <ns3:hr>148</ns3:hr>
            <ns3:cad>0</ns3:cad>
          </ns3:TrackPointExtension>
        </extensions>
      </trkpt>
      <trkpt lat="44.673966430127620697021484375" lon="6.78661719895899295806884765625">
        <ele>1782.4000244140625</ele>
        <time>2026-08-31T05:31:40.000Z</time>
        <extensions>
          <ns3:TrackPointExtension>
            <ns3:hr>148</ns3:hr>
            <ns3:cad>0</ns3:cad>
          </ns3:TrackPointExtension>
        </extensions>
      </trkpt>
      <trkpt lat="44.6739733032882213592529296875" lon="6.786623485386371612548828125">
        <ele>1782.5999755859375</ele>
        <time>2026-08-31T05:31:41.000Z</time>
        <extensions>
          <ns3:TrackPointExtension>
            <ns3:hr>147</ns3:hr>
            <ns3:cad>0</ns3:cad>
          </ns3:TrackPointExtension>
        </extensions>
      </trkpt>
      <trkpt lat="44.67398277483880519866943359375" lon="6.7866380698978900909423828125">
        <ele>1782.5999755859375</ele>
        <time>2026-08-31T05:31:42.000Z</time>
        <extensions>
          <ns3:TrackPointExtension>
            <ns3:hr>147</ns3:hr>
            <ns3:cad>0</ns3:cad>
          </ns3:TrackPointExtension>
        </extensions>
      </trkpt>
      <trkpt lat="44.6739877201616764068603515625" lon="6.7866454459726810455322265625">
        <ele>1782.800048828125</ele>
        <time>2026-08-31T05:31:43.000Z</time>
        <extensions>
          <ns3:TrackPointExtension>
            <ns3:hr>147</ns3:hr>
            <ns3:cad>0</ns3:cad>
          </ns3:TrackPointExtension>
        </extensions>
      </trkpt>
      <trkpt lat="44.67399735935032367706298828125" lon="6.78665927611291408538818359375">
        <ele>1783</ele>
        <time>2026-08-31T05:31:44.000Z</time>
        <extensions>
          <ns3:TrackPointExtension>
            <ns3:hr>147</ns3:hr>
            <ns3:cad>0</ns3:cad>
          </ns3:TrackPointExtension>
        </extensions>
      </trkpt>
      <trkpt lat="44.6740054897964000701904296875" lon="6.78666673600673675537109375">
        <ele>1783</ele>
        <time>2026-08-31T05:31:45.000Z</time>
        <extensions>
          <ns3:TrackPointExtension>
            <ns3:hr>147</ns3:hr>
            <ns3:cad>0</ns3:cad>
          </ns3:TrackPointExtension>
        </extensions>
      </trkpt>
      <trkpt lat="44.67401596717536449432373046875" lon="6.78667436353862285614013671875">
        <ele>1783.199951171875</ele>
        <time>2026-08-31T05:31:46.000Z</time>
        <extensions>
          <ns3:TrackPointExtension>
            <ns3:hr>147</ns3:hr>
            <ns3:cad>0</ns3:cad>
          </ns3:TrackPointExtension>
        </extensions>
      </trkpt>
      <trkpt lat="44.6740244328975677490234375" lon="6.7866796441376209259033203125">
        <ele>1783.199951171875</ele>
        <time>2026-08-31T05:31:47.000Z</time>
        <extensions>
          <ns3:TrackPointExtension>
            <ns3:hr>147</ns3:hr>
            <ns3:cad>0</ns3:cad>
          </ns3:TrackPointExtension>
        </extensions>
      </trkpt>
      <trkpt lat="44.67403742484748363494873046875" lon="6.78668928332626819610595703125">
        <ele>1783.4000244140625</ele>
        <time>2026-08-31T05:31:48.000Z</time>
        <extensions>
          <ns3:TrackPointExtension>
            <ns3:hr>147</ns3:hr>
            <ns3:cad>0</ns3:cad>
          </ns3:TrackPointExtension>
        </extensions>
      </trkpt>
      <trkpt lat="44.6740460582077503204345703125" lon="6.78669892251491546630859375">
        <ele>1783.4000244140625</ele>
        <time>2026-08-31T05:31:49.000Z</time>
        <extensions>
          <ns3:TrackPointExtension>
            <ns3:hr>147</ns3:hr>
            <ns3:cad>0</ns3:cad>
          </ns3:TrackPointExtension>
        </extensions>
      </trkpt>
      <trkpt lat="44.67406072653830051422119140625" lon="6.7867094837129116058349609375">
        <ele>1783.5999755859375</ele>
        <time>2026-08-31T05:31:50.000Z</time>
        <extensions>
          <ns3:TrackPointExtension>
            <ns3:hr>147</ns3:hr>
            <ns3:cad>0</ns3:cad>
          </ns3:TrackPointExtension>
        </extensions>
      </trkpt>
      <trkpt lat="44.6740688569843769073486328125" lon="6.78671878762543201446533203125">
        <ele>1783.800048828125</ele>
        <time>2026-08-31T05:31:51.000Z</time>
        <extensions>
          <ns3:TrackPointExtension>
            <ns3:hr>147</ns3:hr>
            <ns3:cad>0</ns3:cad>
          </ns3:TrackPointExtension>
        </extensions>
      </trkpt>
      <trkpt lat="44.67407765798270702362060546875" lon="6.7867285944521427154541015625">
        <ele>1783.800048828125</ele>
        <time>2026-08-31T05:31:52.000Z</time>
        <extensions>
          <ns3:TrackPointExtension>
            <ns3:hr>148</ns3:hr>
            <ns3:cad>0</ns3:cad>
          </ns3:TrackPointExtension>
        </extensions>
      </trkpt>
      <trkpt lat="44.674085788428783416748046875" lon="6.78673806600272655487060546875">
        <ele>1784</ele>
        <time>2026-08-31T05:31:53.000Z</time>
        <extensions>
          <ns3:TrackPointExtension>
            <ns3:hr>148</ns3:hr>
            <ns3:cad>0</ns3:cad>
          </ns3:TrackPointExtension>
        </extensions>
      </trkpt>
      <trkpt lat="44.674091152846813201904296875" lon="6.7867520637810230255126953125">
        <ele>1784.199951171875</ele>
        <time>2026-08-31T05:31:54.000Z</time>
        <extensions>
          <ns3:TrackPointExtension>
            <ns3:hr>148</ns3:hr>
            <ns3:cad>0</ns3:cad>
          </ns3:TrackPointExtension>
        </extensions>
      </trkpt>
      <trkpt lat="44.6741022169589996337890625" lon="6.78676086477935314178466796875">
        <ele>1784.199951171875</ele>
        <time>2026-08-31T05:31:55.000Z</time>
        <extensions>
          <ns3:TrackPointExtension>
            <ns3:hr>148</ns3:hr>
            <ns3:cad>0</ns3:cad>
          </ns3:TrackPointExtension>
        </extensions>
      </trkpt>
      <trkpt lat="44.67410867102444171905517578125" lon="6.78676664829254150390625">
        <ele>1784.4000244140625</ele>
        <time>2026-08-31T05:31:56.000Z</time>
        <extensions>
          <ns3:TrackPointExtension>
            <ns3:hr>148</ns3:hr>
            <ns3:cad>0</ns3:cad>
          </ns3:TrackPointExtension>
        </extensions>
      </trkpt>
      <trkpt lat="44.6741183102130889892578125" lon="6.78678098134696483612060546875">
        <ele>1784.5999755859375</ele>
        <time>2026-08-31T05:31:57.000Z</time>
        <extensions>
          <ns3:TrackPointExtension>
            <ns3:hr>148</ns3:hr>
            <ns3:cad>0</ns3:cad>
          </ns3:TrackPointExtension>
        </extensions>
      </trkpt>
      <trkpt lat="44.67412375845015048980712890625" lon="6.7867882736027240753173828125">
        <ele>1784.800048828125</ele>
        <time>2026-08-31T05:31:58.000Z</time>
        <extensions>
          <ns3:TrackPointExtension>
            <ns3:hr>148</ns3:hr>
            <ns3:cad>0</ns3:cad>
          </ns3:TrackPointExtension>
        </extensions>
      </trkpt>
      <trkpt lat="44.67413264326751232147216796875" lon="6.78679875098168849945068359375">
        <ele>1784.800048828125</ele>
        <time>2026-08-31T05:31:59.000Z</time>
        <extensions>
          <ns3:TrackPointExtension>
            <ns3:hr>148</ns3:hr>
            <ns3:cad>0</ns3:cad>
          </ns3:TrackPointExtension>
        </extensions>
      </trkpt>
      <trkpt lat="44.67413985170423984527587890625" lon="6.7868104018270969390869140625">
        <ele>1785</ele>
        <time>2026-08-31T05:32:00.000Z</time>
        <extensions>
          <ns3:TrackPointExtension>
            <ns3:hr>148</ns3:hr>
            <ns3:cad>0</ns3:cad>
          </ns3:TrackPointExtension>
        </extensions>
      </trkpt>
      <trkpt lat="44.67414571903645992279052734375" lon="6.786821298301219940185546875">
        <ele>1785.199951171875</ele>
        <time>2026-08-31T05:32:01.000Z</time>
        <extensions>
          <ns3:TrackPointExtension>
            <ns3:hr>148</ns3:hr>
            <ns3:cad>0</ns3:cad>
          </ns3:TrackPointExtension>
        </extensions>
      </trkpt>
      <trkpt lat="44.6741533465683460235595703125" lon="6.78683194331824779510498046875">
        <ele>1785.199951171875</ele>
        <time>2026-08-31T05:32:02.000Z</time>
        <extensions>
          <ns3:TrackPointExtension>
            <ns3:hr>148</ns3:hr>
            <ns3:cad>0</ns3:cad>
          </ns3:TrackPointExtension>
        </extensions>
      </trkpt>
      <trkpt lat="44.67416147701442241668701171875" lon="6.7868425883352756500244140625">
        <ele>1785.4000244140625</ele>
        <time>2026-08-31T05:32:03.000Z</time>
        <extensions>
          <ns3:TrackPointExtension>
            <ns3:hr>149</ns3:hr>
            <ns3:cad>0</ns3:cad>
          </ns3:TrackPointExtension>
        </extensions>
      </trkpt>
      <trkpt lat="44.67416860163211822509765625" lon="6.78685189224779605865478515625">
        <ele>1785.5999755859375</ele>
        <time>2026-08-31T05:32:04.000Z</time>
        <extensions>
          <ns3:TrackPointExtension>
            <ns3:hr>149</ns3:hr>
            <ns3:cad>0</ns3:cad>
          </ns3:TrackPointExtension>
        </extensions>
      </trkpt>
      <trkpt lat="44.67418461106717586517333984375" lon="6.7868630401790142059326171875">
        <ele>1785.800048828125</ele>
        <time>2026-08-31T05:32:05.000Z</time>
        <extensions>
          <ns3:TrackPointExtension>
            <ns3:hr>148</ns3:hr>
            <ns3:cad>0</ns3:cad>
          </ns3:TrackPointExtension>
        </extensions>
      </trkpt>
      <trkpt lat="44.67419332824647426605224609375" lon="6.7868714220821857452392578125">
        <ele>1786</ele>
        <time>2026-08-31T05:32:06.000Z</time>
        <extensions>
          <ns3:TrackPointExtension>
            <ns3:hr>147</ns3:hr>
            <ns3:cad>0</ns3:cad>
          </ns3:TrackPointExtension>
        </extensions>
      </trkpt>
      <trkpt lat="44.67420279979705810546875" lon="6.78688592277467250823974609375">
        <ele>1786</ele>
        <time>2026-08-31T05:32:07.000Z</time>
        <extensions>
          <ns3:TrackPointExtension>
            <ns3:hr>146</ns3:hr>
            <ns3:cad>0</ns3:cad>
          </ns3:TrackPointExtension>
        </extensions>
      </trkpt>
      <trkpt lat="44.67421285808086395263671875" lon="6.7868940532207489013671875">
        <ele>1786.199951171875</ele>
        <time>2026-08-31T05:32:08.000Z</time>
        <extensions>
          <ns3:TrackPointExtension>
            <ns3:hr>146</ns3:hr>
            <ns3:cad>0</ns3:cad>
          </ns3:TrackPointExtension>
        </extensions>
      </trkpt>
      <trkpt lat="44.67422065325081348419189453125" lon="6.786905787885189056396484375">
        <ele>1786.4000244140625</ele>
        <time>2026-08-31T05:32:09.000Z</time>
        <extensions>
          <ns3:TrackPointExtension>
            <ns3:hr>145</ns3:hr>
            <ns3:cad>0</ns3:cad>
          </ns3:TrackPointExtension>
        </extensions>
      </trkpt>
      <trkpt lat="44.67422869987785816192626953125" lon="6.78691609762609004974365234375">
        <ele>1786.4000244140625</ele>
        <time>2026-08-31T05:32:10.000Z</time>
        <extensions>
          <ns3:TrackPointExtension>
            <ns3:hr>144</ns3:hr>
            <ns3:cad>0</ns3:cad>
          </ns3:TrackPointExtension>
        </extensions>
      </trkpt>
      <trkpt lat="44.6742351539433002471923828125" lon="6.78692112676799297332763671875">
        <ele>1786.5999755859375</ele>
        <time>2026-08-31T05:32:11.000Z</time>
        <extensions>
          <ns3:TrackPointExtension>
            <ns3:hr>144</ns3:hr>
            <ns3:cad>0</ns3:cad>
          </ns3:TrackPointExtension>
        </extensions>
      </trkpt>
      <trkpt lat="44.67424646951258182525634765625" lon="6.7869317717850208282470703125">
        <ele>1786.800048828125</ele>
        <time>2026-08-31T05:32:12.000Z</time>
        <extensions>
          <ns3:TrackPointExtension>
            <ns3:hr>144</ns3:hr>
            <ns3:cad>0</ns3:cad>
          </ns3:TrackPointExtension>
        </extensions>
      </trkpt>
      <trkpt lat="44.6742515824735164642333984375" lon="6.7869401536881923675537109375">
        <ele>1786.800048828125</ele>
        <time>2026-08-31T05:32:13.000Z</time>
        <extensions>
          <ns3:TrackPointExtension>
            <ns3:hr>143</ns3:hr>
            <ns3:cad>0</ns3:cad>
          </ns3:TrackPointExtension>
        </extensions>
      </trkpt>
      <trkpt lat="44.674260802567005157470703125" lon="6.78695331327617168426513671875">
        <ele>1787</ele>
        <time>2026-08-31T05:32:14.000Z</time>
        <extensions>
          <ns3:TrackPointExtension>
            <ns3:hr>143</ns3:hr>
            <ns3:cad>0</ns3:cad>
          </ns3:TrackPointExtension>
        </extensions>
      </trkpt>
      <trkpt lat="44.67427077703177928924560546875" lon="6.78696286864578723907470703125">
        <ele>1787.199951171875</ele>
        <time>2026-08-31T05:32:15.000Z</time>
        <extensions>
          <ns3:TrackPointExtension>
            <ns3:hr>143</ns3:hr>
            <ns3:cad>0</ns3:cad>
          </ns3:TrackPointExtension>
        </extensions>
      </trkpt>
      <trkpt lat="44.674280919134616851806640625" lon="6.78697393275797367095947265625">
        <ele>1787.199951171875</ele>
        <time>2026-08-31T05:32:16.000Z</time>
        <extensions>
          <ns3:TrackPointExtension>
            <ns3:hr>143</ns3:hr>
            <ns3:cad>0</ns3:cad>
          </ns3:TrackPointExtension>
        </extensions>
      </trkpt>
      <trkpt lat="44.67428821139037609100341796875" lon="6.78698164410889148712158203125">
        <ele>1787.4000244140625</ele>
        <time>2026-08-31T05:32:17.000Z</time>
        <extensions>
          <ns3:TrackPointExtension>
            <ns3:hr>143</ns3:hr>
            <ns3:cad>0</ns3:cad>
          </ns3:TrackPointExtension>
        </extensions>
      </trkpt>
      <trkpt lat="44.67430061660706996917724609375" lon="6.786992289125919342041015625">
        <ele>1787.5999755859375</ele>
        <time>2026-08-31T05:32:18.000Z</time>
        <extensions>
          <ns3:TrackPointExtension>
            <ns3:hr>143</ns3:hr>
            <ns3:cad>0</ns3:cad>
          </ns3:TrackPointExtension>
        </extensions>
      </trkpt>
      <trkpt lat="44.6743075735867023468017578125" lon="6.78700041957199573516845703125">
        <ele>1787.5999755859375</ele>
        <time>2026-08-31T05:32:19.000Z</time>
        <extensions>
          <ns3:TrackPointExtension>
            <ns3:hr>142</ns3:hr>
            <ns3:cad>0</ns3:cad>
          </ns3:TrackPointExtension>
        </extensions>
      </trkpt>
      <trkpt lat="44.6743199788033962249755859375" lon="6.78701466880738735198974609375">
        <ele>1787.800048828125</ele>
        <time>2026-08-31T05:32:20.000Z</time>
        <extensions>
          <ns3:TrackPointExtension>
            <ns3:hr>142</ns3:hr>
            <ns3:cad>0</ns3:cad>
          </ns3:TrackPointExtension>
        </extensions>
      </trkpt>
      <trkpt lat="44.67433095909655094146728515625" lon="6.78702087141573429107666015625">
        <ele>1788</ele>
        <time>2026-08-31T05:32:21.000Z</time>
        <extensions>
          <ns3:TrackPointExtension>
            <ns3:hr>142</ns3:hr>
            <ns3:cad>0</ns3:cad>
          </ns3:TrackPointExtension>
        </extensions>
      </trkpt>
      <trkpt lat="44.6743320487439632415771484375" lon="6.7870323546230792999267578125">
        <ele>1788.199951171875</ele>
        <time>2026-08-31T05:32:22.000Z</time>
        <extensions>
          <ns3:TrackPointExtension>
            <ns3:hr>143</ns3:hr>
            <ns3:cad>0</ns3:cad>
          </ns3:TrackPointExtension>
        </extensions>
      </trkpt>
      <trkpt lat="44.674325175583362579345703125" lon="6.7870295047760009765625">
        <ele>1788.199951171875</ele>
        <time>2026-08-31T05:32:23.000Z</time>
        <extensions>
          <ns3:TrackPointExtension>
            <ns3:hr>142</ns3:hr>
            <ns3:cad>0</ns3:cad>
          </ns3:TrackPointExtension>
        </extensions>
      </trkpt>
      <trkpt lat="44.67431754805147647857666015625" lon="6.7870233021676540374755859375">
        <ele>1788.199951171875</ele>
        <time>2026-08-31T05:32:24.000Z</time>
        <extensions>
          <ns3:TrackPointExtension>
            <ns3:hr>142</ns3:hr>
            <ns3:cad>0</ns3:cad>
          </ns3:TrackPointExtension>
        </extensions>
      </trkpt>
      <trkpt lat="44.6743189729750156402587890625" lon="6.7870222963392734527587890625">
        <ele>1788.4000244140625</ele>
        <time>2026-08-31T05:32:25.000Z</time>
        <extensions>
          <ns3:TrackPointExtension>
            <ns3:hr>143</ns3:hr>
            <ns3:cad>55</ns3:cad>
          </ns3:TrackPointExtension>
        </extensions>
      </trkpt>
      <trkpt lat="44.67431888915598392486572265625" lon="6.787022463977336883544921875">
        <ele>1788.199951171875</ele>
        <time>2026-08-31T05:32:26.000Z</time>
        <extensions>
          <ns3:TrackPointExtension>
            <ns3:hr>143</ns3:hr>
            <ns3:cad>55</ns3:cad>
          </ns3:TrackPointExtension>
        </extensions>
      </trkpt>
      <trkpt lat="44.67432056553661823272705078125" lon="6.78702724166214466094970703125">
        <ele>1788.199951171875</ele>
        <time>2026-08-31T05:32:27.000Z</time>
        <extensions>
          <ns3:TrackPointExtension>
            <ns3:hr>143</ns3:hr>
            <ns3:cad>0</ns3:cad>
          </ns3:TrackPointExtension>
        </extensions>
      </trkpt>
      <trkpt lat="44.674326516687870025634765625" lon="6.7870363779366016387939453125">
        <ele>1788.199951171875</ele>
        <time>2026-08-31T05:32:28.000Z</time>
        <extensions>
          <ns3:TrackPointExtension>
            <ns3:hr>143</ns3:hr>
            <ns3:cad>0</ns3:cad>
          </ns3:TrackPointExtension>
        </extensions>
      </trkpt>
      <trkpt lat="44.67433397658169269561767578125" lon="6.7870454303920269012451171875">
        <ele>1788.199951171875</ele>
        <time>2026-08-31T05:32:29.000Z</time>
        <extensions>
          <ns3:TrackPointExtension>
            <ns3:hr>143</ns3:hr>
            <ns3:cad>55</ns3:cad>
          </ns3:TrackPointExtension>
        </extensions>
      </trkpt>
      <trkpt lat="44.67434168793261051177978515625" lon="6.78704853169620037078857421875">
        <ele>1788.4000244140625</ele>
        <time>2026-08-31T05:32:30.000Z</time>
        <extensions>
          <ns3:TrackPointExtension>
            <ns3:hr>142</ns3:hr>
            <ns3:cad>55</ns3:cad>
          </ns3:TrackPointExtension>
        </extensions>
      </trkpt>
      <trkpt lat="44.67435308732092380523681640625" lon="6.78705406375229358673095703125">
        <ele>1788.5999755859375</ele>
        <time>2026-08-31T05:32:31.000Z</time>
        <extensions>
          <ns3:TrackPointExtension>
            <ns3:hr>141</ns3:hr>
            <ns3:cad>55</ns3:cad>
          </ns3:TrackPointExtension>
        </extensions>
      </trkpt>
      <trkpt lat="44.67436582781374454498291015625" lon="6.787060685455799102783203125">
        <ele>1788.800048828125</ele>
        <time>2026-08-31T05:32:32.000Z</time>
        <extensions>
          <ns3:TrackPointExtension>
            <ns3:hr>140</ns3:hr>
            <ns3:cad>53</ns3:cad>
          </ns3:TrackPointExtension>
        </extensions>
      </trkpt>
      <trkpt lat="44.6743706054985523223876953125" lon="6.78706898353993892669677734375">
        <ele>1789</ele>
        <time>2026-08-31T05:32:33.000Z</time>
        <extensions>
          <ns3:TrackPointExtension>
            <ns3:hr>139</ns3:hr>
            <ns3:cad>52</ns3:cad>
          </ns3:TrackPointExtension>
        </extensions>
      </trkpt>
      <trkpt lat="44.67437446117401123046875" lon="6.78706965409219264984130859375">
        <ele>1789</ele>
        <time>2026-08-31T05:32:34.000Z</time>
        <extensions>
          <ns3:TrackPointExtension>
            <ns3:hr>139</ns3:hr>
            <ns3:cad>0</ns3:cad>
          </ns3:TrackPointExtension>
        </extensions>
      </trkpt>
      <trkpt lat="44.67437337152659893035888671875" lon="6.78707049228250980377197265625">
        <ele>1789.199951171875</ele>
        <time>2026-08-31T05:32:35.000Z</time>
        <extensions>
          <ns3:TrackPointExtension>
            <ns3:hr>138</ns3:hr>
            <ns3:cad>0</ns3:cad>
          </ns3:TrackPointExtension>
        </extensions>
      </trkpt>
      <trkpt lat="44.6743732877075672149658203125" lon="6.787072755396366119384765625">
        <ele>1789.199951171875</ele>
        <time>2026-08-31T05:32:36.000Z</time>
        <extensions>
          <ns3:TrackPointExtension>
            <ns3:hr>138</ns3:hr>
            <ns3:cad>0</ns3:cad>
          </ns3:TrackPointExtension>
        </extensions>
      </trkpt>
      <trkpt lat="44.67437320388853549957275390625" lon="6.78706713952124118804931640625">
        <ele>1789.199951171875</ele>
        <time>2026-08-31T05:32:37.000Z</time>
        <extensions>
          <ns3:TrackPointExtension>
            <ns3:hr>138</ns3:hr>
            <ns3:cad>0</ns3:cad>
          </ns3:TrackPointExtension>
        </extensions>
      </trkpt>
      <trkpt lat="44.6743719466030597686767578125" lon="6.78706370294094085693359375">
        <ele>1789.199951171875</ele>
        <time>2026-08-31T05:32:38.000Z</time>
        <extensions>
          <ns3:TrackPointExtension>
            <ns3:hr>137</ns3:hr>
            <ns3:cad>0</ns3:cad>
          </ns3:TrackPointExtension>
        </extensions>
      </trkpt>
      <trkpt lat="44.674373455345630645751953125" lon="6.7870611883699893951416015625">
        <ele>1789.199951171875</ele>
        <time>2026-08-31T05:32:39.000Z</time>
        <extensions>
          <ns3:TrackPointExtension>
            <ns3:hr>137</ns3:hr>
            <ns3:cad>0</ns3:cad>
          </ns3:TrackPointExtension>
        </extensions>
      </trkpt>
      <trkpt lat="44.67437555082142353057861328125" lon="6.787062697112560272216796875">
        <ele>1789.199951171875</ele>
        <time>2026-08-31T05:32:40.000Z</time>
        <extensions>
          <ns3:TrackPointExtension>
            <ns3:hr>136</ns3:hr>
            <ns3:cad>0</ns3:cad>
          </ns3:TrackPointExtension>
        </extensions>
      </trkpt>
      <trkpt lat="44.6743758022785186767578125" lon="6.7870628647506237030029296875">
        <ele>1789.199951171875</ele>
        <time>2026-08-31T05:32:41.000Z</time>
        <extensions>
          <ns3:TrackPointExtension>
            <ns3:hr>136</ns3:hr>
            <ns3:cad>0</ns3:cad>
          </ns3:TrackPointExtension>
        </extensions>
      </trkpt>
      <trkpt lat="44.67437404207885265350341796875" lon="6.78706160746514797210693359375">
        <ele>1789.199951171875</ele>
        <time>2026-08-31T05:32:42.000Z</time>
        <extensions>
          <ns3:TrackPointExtension>
            <ns3:hr>136</ns3:hr>
            <ns3:cad>0</ns3:cad>
          </ns3:TrackPointExtension>
        </extensions>
      </trkpt>
      <trkpt lat="44.67437420971691608428955078125" lon="6.787063367664813995361328125">
        <ele>1789.199951171875</ele>
        <time>2026-08-31T05:32:43.000Z</time>
        <extensions>
          <ns3:TrackPointExtension>
            <ns3:hr>135</ns3:hr>
            <ns3:cad>0</ns3:cad>
          </ns3:TrackPointExtension>
        </extensions>
      </trkpt>
      <trkpt lat="44.67437488026916980743408203125" lon="6.7870657145977020263671875">
        <ele>1789.199951171875</ele>
        <time>2026-08-31T05:32:44.000Z</time>
        <extensions>
          <ns3:TrackPointExtension>
            <ns3:hr>134</ns3:hr>
            <ns3:cad>0</ns3:cad>
          </ns3:TrackPointExtension>
        </extensions>
      </trkpt>
      <trkpt lat="44.67437337152659893035888671875" lon="6.7870655469596385955810546875">
        <ele>1789.199951171875</ele>
        <time>2026-08-31T05:32:45.000Z</time>
        <extensions>
          <ns3:TrackPointExtension>
            <ns3:hr>134</ns3:hr>
            <ns3:cad>0</ns3:cad>
          </ns3:TrackPointExtension>
        </extensions>
      </trkpt>
      <trkpt lat="44.67437337152659893035888671875" lon="6.7870655469596385955810546875">
        <ele>1789.199951171875</ele>
        <time>2026-08-31T05:32:46.000Z</time>
        <extensions>
          <ns3:TrackPointExtension>
            <ns3:hr>133</ns3:hr>
            <ns3:cad>0</ns3:cad>
          </ns3:TrackPointExtension>
        </extensions>
      </trkpt>
      <trkpt lat="44.674373455345630645751953125" lon="6.78706563077867031097412109375">
        <ele>1789.199951171875</ele>
        <time>2026-08-31T05:32:47.000Z</time>
        <extensions>
          <ns3:TrackPointExtension>
            <ns3:hr>133</ns3:hr>
            <ns3:cad>0</ns3:cad>
          </ns3:TrackPointExtension>
        </extensions>
      </trkpt>
      <trkpt lat="44.674377143383026123046875" lon="6.787069402635097503662109375">
        <ele>1789</ele>
        <time>2026-08-31T05:32:48.000Z</time>
        <extensions>
          <ns3:TrackPointExtension>
            <ns3:hr>133</ns3:hr>
            <ns3:cad>0</ns3:cad>
          </ns3:TrackPointExtension>
        </extensions>
      </trkpt>
      <trkpt lat="44.67438678257167339324951171875" lon="6.78707736544311046600341796875">
        <ele>1789</ele>
        <time>2026-08-31T05:32:49.000Z</time>
        <extensions>
          <ns3:TrackPointExtension>
            <ns3:hr>133</ns3:hr>
            <ns3:cad>0</ns3:cad>
          </ns3:TrackPointExtension>
        </extensions>
      </trkpt>
      <trkpt lat="44.67439415864646434783935546875" lon="6.78708541207015514373779296875">
        <ele>1789</ele>
        <time>2026-08-31T05:32:50.000Z</time>
        <extensions>
          <ns3:TrackPointExtension>
            <ns3:hr>132</ns3:hr>
            <ns3:cad>0</ns3:cad>
          </ns3:TrackPointExtension>
        </extensions>
      </trkpt>
      <trkpt lat="44.674401618540287017822265625" lon="6.7870952188968658447265625">
        <ele>1789.199951171875</ele>
        <time>2026-08-31T05:32:51.000Z</time>
        <extensions>
          <ns3:TrackPointExtension>
            <ns3:hr>132</ns3:hr>
            <ns3:cad>0</ns3:cad>
          </ns3:TrackPointExtension>
        </extensions>
      </trkpt>
      <trkpt lat="44.6744078211486339569091796875" lon="6.78710318170487880706787109375">
        <ele>1789.199951171875</ele>
        <time>2026-08-31T05:32:52.000Z</time>
        <extensions>
          <ns3:TrackPointExtension>
            <ns3:hr>132</ns3:hr>
            <ns3:cad>0</ns3:cad>
          </ns3:TrackPointExtension>
        </extensions>
      </trkpt>
      <trkpt lat="44.6744162030518054962158203125" lon="6.78711466491222381591796875">
        <ele>1789.4000244140625</ele>
        <time>2026-08-31T05:32:53.000Z</time>
        <extensions>
          <ns3:TrackPointExtension>
            <ns3:hr>132</ns3:hr>
            <ns3:cad>53</ns3:cad>
          </ns3:TrackPointExtension>
        </extensions>
      </trkpt>
      <trkpt lat="44.6744282729923725128173828125" lon="6.7871228791773319244384765625">
        <ele>1789.5999755859375</ele>
        <time>2026-08-31T05:32:54.000Z</time>
        <extensions>
          <ns3:TrackPointExtension>
            <ns3:hr>132</ns3:hr>
            <ns3:cad>55</ns3:cad>
          </ns3:TrackPointExtension>
        </extensions>
      </trkpt>
      <trkpt lat="44.67443757690489292144775390625" lon="6.7871312610805034637451171875">
        <ele>1789.800048828125</ele>
        <time>2026-08-31T05:32:55.000Z</time>
        <extensions>
          <ns3:TrackPointExtension>
            <ns3:hr>132</ns3:hr>
            <ns3:cad>55</ns3:cad>
          </ns3:TrackPointExtension>
        </extensions>
      </trkpt>
      <trkpt lat="44.67444889247417449951171875" lon="6.787140481173992156982421875">
        <ele>1790</ele>
        <time>2026-08-31T05:32:56.000Z</time>
        <extensions>
          <ns3:TrackPointExtension>
            <ns3:hr>132</ns3:hr>
            <ns3:cad>55</ns3:cad>
          </ns3:TrackPointExtension>
        </extensions>
      </trkpt>
      <trkpt lat="44.6744589507579803466796875" lon="6.78714911453425884246826171875">
        <ele>1790.199951171875</ele>
        <time>2026-08-31T05:32:57.000Z</time>
        <extensions>
          <ns3:TrackPointExtension>
            <ns3:hr>131</ns3:hr>
            <ns3:cad>55</ns3:cad>
          </ns3:TrackPointExtension>
        </extensions>
      </trkpt>
      <trkpt lat="44.67446875758469104766845703125" lon="6.787158586084842681884765625">
        <ele>1790.4000244140625</ele>
        <time>2026-08-31T05:32:58.000Z</time>
        <extensions>
          <ns3:TrackPointExtension>
            <ns3:hr>130</ns3:hr>
            <ns3:cad>55</ns3:cad>
          </ns3:TrackPointExtension>
        </extensions>
      </trkpt>
      <trkpt lat="44.67447571456432342529296875" lon="6.7871654592454433441162109375">
        <ele>1790.5999755859375</ele>
        <time>2026-08-31T05:32:59.000Z</time>
        <extensions>
          <ns3:TrackPointExtension>
            <ns3:hr>130</ns3:hr>
            <ns3:cad>55</ns3:cad>
          </ns3:TrackPointExtension>
        </extensions>
      </trkpt>
      <trkpt lat="44.67448568902909755706787109375" lon="6.78717493079602718353271484375">
        <ele>1790.800048828125</ele>
        <time>2026-08-31T05:33:00.000Z</time>
        <extensions>
          <ns3:TrackPointExtension>
            <ns3:hr>130</ns3:hr>
            <ns3:cad>0</ns3:cad>
          </ns3:TrackPointExtension>
        </extensions>
      </trkpt>
      <trkpt lat="44.6744946576654911041259765625" lon="6.78718549199402332305908203125">
        <ele>1790.800048828125</ele>
        <time>2026-08-31T05:33:01.000Z</time>
        <extensions>
          <ns3:TrackPointExtension>
            <ns3:hr>131</ns3:hr>
            <ns3:cad>0</ns3:cad>
          </ns3:TrackPointExtension>
        </extensions>
      </trkpt>
      <trkpt lat="44.67450547032058238983154296875" lon="6.78719588555395603179931640625">
        <ele>1791</ele>
        <time>2026-08-31T05:33:02.000Z</time>
        <extensions>
          <ns3:TrackPointExtension>
            <ns3:hr>131</ns3:hr>
            <ns3:cad>0</ns3:cad>
          </ns3:TrackPointExtension>
        </extensions>
      </trkpt>
      <trkpt lat="44.67451318167150020599365234375" lon="6.7872050218284130096435546875">
        <ele>1791.199951171875</ele>
        <time>2026-08-31T05:33:03.000Z</time>
        <extensions>
          <ns3:TrackPointExtension>
            <ns3:hr>131</ns3:hr>
            <ns3:cad>0</ns3:cad>
          </ns3:TrackPointExtension>
        </extensions>
      </trkpt>
      <trkpt lat="44.674523659050464630126953125" lon="6.7872134037315845489501953125">
        <ele>1791.4000244140625</ele>
        <time>2026-08-31T05:33:04.000Z</time>
        <extensions>
          <ns3:TrackPointExtension>
            <ns3:hr>132</ns3:hr>
            <ns3:cad>0</ns3:cad>
          </ns3:TrackPointExtension>
        </extensions>
      </trkpt>
      <trkpt lat="44.67453480698168277740478515625" lon="6.78721969015896320343017578125">
        <ele>1791.4000244140625</ele>
        <time>2026-08-31T05:33:05.000Z</time>
        <extensions>
          <ns3:TrackPointExtension>
            <ns3:hr>132</ns3:hr>
            <ns3:cad>0</ns3:cad>
          </ns3:TrackPointExtension>
        </extensions>
      </trkpt>
      <trkpt lat="44.6745472960174083709716796875" lon="6.78723134100437164306640625">
        <ele>1791.5999755859375</ele>
        <time>2026-08-31T05:33:06.000Z</time>
        <extensions>
          <ns3:TrackPointExtension>
            <ns3:hr>132</ns3:hr>
            <ns3:cad>0</ns3:cad>
          </ns3:TrackPointExtension>
        </extensions>
      </trkpt>
      <trkpt lat="44.67456020414829254150390625" lon="6.7872400581836700439453125">
        <ele>1791.800048828125</ele>
        <time>2026-08-31T05:33:07.000Z</time>
        <extensions>
          <ns3:TrackPointExtension>
            <ns3:hr>133</ns3:hr>
            <ns3:cad>0</ns3:cad>
          </ns3:TrackPointExtension>
        </extensions>
      </trkpt>
      <trkpt lat="44.67457151971757411956787109375" lon="6.78725372068583965301513671875">
        <ele>1791.800048828125</ele>
        <time>2026-08-31T05:33:08.000Z</time>
        <extensions>
          <ns3:TrackPointExtension>
            <ns3:hr>133</ns3:hr>
            <ns3:cad>0</ns3:cad>
          </ns3:TrackPointExtension>
        </extensions>
      </trkpt>
      <trkpt lat="44.67457436956465244293212890625" lon="6.7872734181582927703857421875">
        <ele>1792</ele>
        <time>2026-08-31T05:33:09.000Z</time>
        <extensions>
          <ns3:TrackPointExtension>
            <ns3:hr>134</ns3:hr>
            <ns3:cad>57</ns3:cad>
          </ns3:TrackPointExtension>
        </extensions>
      </trkpt>
      <trkpt lat="44.67458057217299938201904296875" lon="6.787292025983333587646484375">
        <ele>1792</ele>
        <time>2026-08-31T05:33:10.000Z</time>
        <extensions>
          <ns3:TrackPointExtension>
            <ns3:hr>134</ns3:hr>
            <ns3:cad>57</ns3:cad>
          </ns3:TrackPointExtension>
        </extensions>
      </trkpt>
      <trkpt lat="44.67458593659102916717529296875" lon="6.7873086221516132354736328125">
        <ele>1792</ele>
        <time>2026-08-31T05:33:11.000Z</time>
        <extensions>
          <ns3:TrackPointExtension>
            <ns3:hr>135</ns3:hr>
            <ns3:cad>57</ns3:cad>
          </ns3:TrackPointExtension>
        </extensions>
      </trkpt>
      <trkpt lat="44.67459046281874179840087890625" lon="6.78732546977698802947998046875">
        <ele>1792.199951171875</ele>
        <time>2026-08-31T05:33:12.000Z</time>
        <extensions>
          <ns3:TrackPointExtension>
            <ns3:hr>135</ns3:hr>
            <ns3:cad>57</ns3:cad>
          </ns3:TrackPointExtension>
        </extensions>
      </trkpt>
      <trkpt lat="44.674594737589359283447265625" lon="6.7873414792120456695556640625">
        <ele>1792.4000244140625</ele>
        <time>2026-08-31T05:33:13.000Z</time>
        <extensions>
          <ns3:TrackPointExtension>
            <ns3:hr>135</ns3:hr>
            <ns3:cad>57</ns3:cad>
          </ns3:TrackPointExtension>
        </extensions>
      </trkpt>
      <trkpt lat="44.67459582723677158355712890625" lon="6.78736033849418163299560546875">
        <ele>1792.4000244140625</ele>
        <time>2026-08-31T05:33:14.000Z</time>
        <extensions>
          <ns3:TrackPointExtension>
            <ns3:hr>135</ns3:hr>
            <ns3:cad>57</ns3:cad>
          </ns3:TrackPointExtension>
        </extensions>
      </trkpt>
      <trkpt lat="44.6745979227125644683837890625" lon="6.7873780243098735809326171875">
        <ele>1792.5999755859375</ele>
        <time>2026-08-31T05:33:15.000Z</time>
        <extensions>
          <ns3:TrackPointExtension>
            <ns3:hr>136</ns3:hr>
            <ns3:cad>57</ns3:cad>
          </ns3:TrackPointExtension>
        </extensions>
      </trkpt>
      <trkpt lat="44.6745984256267547607421875" lon="6.78739302791655063629150390625">
        <ele>1792.800048828125</ele>
        <time>2026-08-31T05:33:16.000Z</time>
        <extensions>
          <ns3:TrackPointExtension>
            <ns3:hr>136</ns3:hr>
            <ns3:cad>57</ns3:cad>
          </ns3:TrackPointExtension>
        </extensions>
      </trkpt>
      <trkpt lat="44.67459976673126220703125" lon="6.78740811534225940704345703125">
        <ele>1792.800048828125</ele>
        <time>2026-08-31T05:33:17.000Z</time>
        <extensions>
          <ns3:TrackPointExtension>
            <ns3:hr>137</ns3:hr>
            <ns3:cad>57</ns3:cad>
          </ns3:TrackPointExtension>
        </extensions>
      </trkpt>
      <trkpt lat="44.67459985055029392242431640625" lon="6.78742043673992156982421875">
        <ele>1793</ele>
        <time>2026-08-31T05:33:18.000Z</time>
        <extensions>
          <ns3:TrackPointExtension>
            <ns3:hr>137</ns3:hr>
            <ns3:cad>57</ns3:cad>
          </ns3:TrackPointExtension>
        </extensions>
      </trkpt>
      <trkpt lat="44.67460018582642078399658203125" lon="6.7874387092888355255126953125">
        <ele>1793</ele>
        <time>2026-08-31T05:33:19.000Z</time>
        <extensions>
          <ns3:TrackPointExtension>
            <ns3:hr>138</ns3:hr>
            <ns3:cad>57</ns3:cad>
          </ns3:TrackPointExtension>
        </extensions>
      </trkpt>
      <trkpt lat="44.67460102401673793792724609375" lon="6.78745304234325885772705078125">
        <ele>1793</ele>
        <time>2026-08-31T05:33:20.000Z</time>
        <extensions>
          <ns3:TrackPointExtension>
            <ns3:hr>139</ns3:hr>
            <ns3:cad>57</ns3:cad>
          </ns3:TrackPointExtension>
        </extensions>
      </trkpt>
      <trkpt lat="44.674602784216403961181640625" lon="6.787469051778316497802734375">
        <ele>1793.199951171875</ele>
        <time>2026-08-31T05:33:21.000Z</time>
        <extensions>
          <ns3:TrackPointExtension>
            <ns3:hr>139</ns3:hr>
            <ns3:cad>57</ns3:cad>
          </ns3:TrackPointExtension>
        </extensions>
      </trkpt>
      <trkpt lat="44.67460638843476772308349609375" lon="6.7874873243272304534912109375">
        <ele>1793.199951171875</ele>
        <time>2026-08-31T05:33:22.000Z</time>
        <extensions>
          <ns3:TrackPointExtension>
            <ns3:hr>140</ns3:hr>
            <ns3:cad>57</ns3:cad>
          </ns3:TrackPointExtension>
        </extensions>
      </trkpt>
      <trkpt lat="44.6746118366718292236328125" lon="6.787503249943256378173828125">
        <ele>1793.4000244140625</ele>
        <time>2026-08-31T05:33:23.000Z</time>
        <extensions>
          <ns3:TrackPointExtension>
            <ns3:hr>140</ns3:hr>
            <ns3:cad>57</ns3:cad>
          </ns3:TrackPointExtension>
        </extensions>
      </trkpt>
      <trkpt lat="44.6746158599853515625" lon="6.78751858882606029510498046875">
        <ele>1793.4000244140625</ele>
        <time>2026-08-31T05:33:24.000Z</time>
        <extensions>
          <ns3:TrackPointExtension>
            <ns3:hr>140</ns3:hr>
            <ns3:cad>0</ns3:cad>
          </ns3:TrackPointExtension>
        </extensions>
      </trkpt>
      <trkpt lat="44.67462164349853992462158203125" lon="6.78753602318465709686279296875">
        <ele>1793.5999755859375</ele>
        <time>2026-08-31T05:33:25.000Z</time>
        <extensions>
          <ns3:TrackPointExtension>
            <ns3:hr>140</ns3:hr>
            <ns3:cad>0</ns3:cad>
          </ns3:TrackPointExtension>
        </extensions>
      </trkpt>
      <trkpt lat="44.67462734319269657135009765625" lon="6.78755295462906360626220703125">
        <ele>1793.5999755859375</ele>
        <time>2026-08-31T05:33:26.000Z</time>
        <extensions>
          <ns3:TrackPointExtension>
            <ns3:hr>140</ns3:hr>
            <ns3:cad>0</ns3:cad>
          </ns3:TrackPointExtension>
        </extensions>
      </trkpt>
      <trkpt lat="44.67463354580104351043701171875" lon="6.78756854496896266937255859375">
        <ele>1793.800048828125</ele>
        <time>2026-08-31T05:33:27.000Z</time>
        <extensions>
          <ns3:TrackPointExtension>
            <ns3:hr>140</ns3:hr>
            <ns3:cad>0</ns3:cad>
          </ns3:TrackPointExtension>
        </extensions>
      </trkpt>
      <trkpt lat="44.67463874258100986480712890625" lon="6.787588410079479217529296875">
        <ele>1794</ele>
        <time>2026-08-31T05:33:28.000Z</time>
        <extensions>
          <ns3:TrackPointExtension>
            <ns3:hr>141</ns3:hr>
            <ns3:cad>0</ns3:cad>
          </ns3:TrackPointExtension>
        </extensions>
      </trkpt>
      <trkpt lat="44.67464243061840534210205078125" lon="6.78760659880936145782470703125">
        <ele>1794.199951171875</ele>
        <time>2026-08-31T05:33:29.000Z</time>
        <extensions>
          <ns3:TrackPointExtension>
            <ns3:hr>140</ns3:hr>
            <ns3:cad>0</ns3:cad>
          </ns3:TrackPointExtension>
        </extensions>
      </trkpt>
      <trkpt lat="44.67464511282742023468017578125" lon="6.78762654773890972137451171875">
        <ele>1794.199951171875</ele>
        <time>2026-08-31T05:33:30.000Z</time>
        <extensions>
          <ns3:TrackPointExtension>
            <ns3:hr>140</ns3:hr>
            <ns3:cad>0</ns3:cad>
          </ns3:TrackPointExtension>
        </extensions>
      </trkpt>
      <trkpt lat="44.67464678920805454254150390625" lon="6.78764331154525279998779296875">
        <ele>1794.4000244140625</ele>
        <time>2026-08-31T05:33:31.000Z</time>
        <extensions>
          <ns3:TrackPointExtension>
            <ns3:hr>140</ns3:hr>
            <ns3:cad>0</ns3:cad>
          </ns3:TrackPointExtension>
        </extensions>
      </trkpt>
      <trkpt lat="44.67464930377900600433349609375" lon="6.7876640148460865020751953125">
        <ele>1794.4000244140625</ele>
        <time>2026-08-31T05:33:32.000Z</time>
        <extensions>
          <ns3:TrackPointExtension>
            <ns3:hr>139</ns3:hr>
            <ns3:cad>0</ns3:cad>
          </ns3:TrackPointExtension>
        </extensions>
      </trkpt>
      <trkpt lat="44.6746512316167354583740234375" lon="6.78767734207212924957275390625">
        <ele>1794.4000244140625</ele>
        <time>2026-08-31T05:33:33.000Z</time>
        <extensions>
          <ns3:TrackPointExtension>
            <ns3:hr>139</ns3:hr>
            <ns3:cad>0</ns3:cad>
          </ns3:TrackPointExtension>
        </extensions>
      </trkpt>
      <trkpt lat="44.67465265654027462005615234375" lon="6.78769527934491634368896484375">
        <ele>1794.5999755859375</ele>
        <time>2026-08-31T05:33:34.000Z</time>
        <extensions>
          <ns3:TrackPointExtension>
            <ns3:hr>139</ns3:hr>
            <ns3:cad>55</ns3:cad>
          </ns3:TrackPointExtension>
        </extensions>
      </trkpt>
      <trkpt lat="44.6746515668928623199462890625" lon="6.78770936094224452972412109375">
        <ele>1794.5999755859375</ele>
        <time>2026-08-31T05:33:35.000Z</time>
        <extensions>
          <ns3:TrackPointExtension>
            <ns3:hr>139</ns3:hr>
            <ns3:cad>55</ns3:cad>
          </ns3:TrackPointExtension>
        </extensions>
      </trkpt>
      <trkpt lat="44.67465148307383060455322265625" lon="6.78773048333823680877685546875">
        <ele>1794.800048828125</ele>
        <time>2026-08-31T05:33:36.000Z</time>
        <extensions>
          <ns3:TrackPointExtension>
            <ns3:hr>139</ns3:hr>
            <ns3:cad>58</ns3:cad>
          </ns3:TrackPointExtension>
        </extensions>
      </trkpt>
      <trkpt lat="44.674651063978672027587890625" lon="6.78774808533489704132080078125">
        <ele>1794.800048828125</ele>
        <time>2026-08-31T05:33:37.000Z</time>
        <extensions>
          <ns3:TrackPointExtension>
            <ns3:hr>139</ns3:hr>
            <ns3:cad>58</ns3:cad>
          </ns3:TrackPointExtension>
        </extensions>
      </trkpt>
      <trkpt lat="44.674650393426418304443359375" lon="6.7877713032066822052001953125">
        <ele>1794.800048828125</ele>
        <time>2026-08-31T05:33:38.000Z</time>
        <extensions>
          <ns3:TrackPointExtension>
            <ns3:hr>139</ns3:hr>
            <ns3:cad>58</ns3:cad>
          </ns3:TrackPointExtension>
        </extensions>
      </trkpt>
      <trkpt lat="44.6746505610644817352294921875" lon="6.78778588771820068359375">
        <ele>1794.800048828125</ele>
        <time>2026-08-31T05:33:39.000Z</time>
        <extensions>
          <ns3:TrackPointExtension>
            <ns3:hr>139</ns3:hr>
            <ns3:cad>58</ns3:cad>
          </ns3:TrackPointExtension>
        </extensions>
      </trkpt>
      <trkpt lat="44.67465181834995746612548828125" lon="6.78780399262905120849609375">
        <ele>1794.800048828125</ele>
        <time>2026-08-31T05:33:40.000Z</time>
        <extensions>
          <ns3:TrackPointExtension>
            <ns3:hr>139</ns3:hr>
            <ns3:cad>58</ns3:cad>
          </ns3:TrackPointExtension>
        </extensions>
      </trkpt>
      <trkpt lat="44.67465148307383060455322265625" lon="6.78781799040734767913818359375">
        <ele>1794.800048828125</ele>
        <time>2026-08-31T05:33:41.000Z</time>
        <extensions>
          <ns3:TrackPointExtension>
            <ns3:hr>139</ns3:hr>
            <ns3:cad>0</ns3:cad>
          </ns3:TrackPointExtension>
        </extensions>
      </trkpt>
      <trkpt lat="44.67465139925479888916015625" lon="6.78783609531819820404052734375">
        <ele>1794.800048828125</ele>
        <time>2026-08-31T05:33:42.000Z</time>
        <extensions>
          <ns3:TrackPointExtension>
            <ns3:hr>139</ns3:hr>
            <ns3:cad>0</ns3:cad>
          </ns3:TrackPointExtension>
        </extensions>
      </trkpt>
      <trkpt lat="44.674651063978672027587890625" lon="6.78784900344908237457275390625">
        <ele>1794.800048828125</ele>
        <time>2026-08-31T05:33:43.000Z</time>
        <extensions>
          <ns3:TrackPointExtension>
            <ns3:hr>138</ns3:hr>
            <ns3:cad>0</ns3:cad>
          </ns3:TrackPointExtension>
        </extensions>
      </trkpt>
      <trkpt lat="44.67465315945446491241455078125" lon="6.7878663539886474609375">
        <ele>1794.800048828125</ele>
        <time>2026-08-31T05:33:44.000Z</time>
        <extensions>
          <ns3:TrackPointExtension>
            <ns3:hr>139</ns3:hr>
            <ns3:cad>0</ns3:cad>
          </ns3:TrackPointExtension>
        </extensions>
      </trkpt>
      <trkpt lat="44.67465383000671863555908203125" lon="6.787880770862102508544921875">
        <ele>1794.800048828125</ele>
        <time>2026-08-31T05:33:45.000Z</time>
        <extensions>
          <ns3:TrackPointExtension>
            <ns3:hr>139</ns3:hr>
            <ns3:cad>0</ns3:cad>
          </ns3:TrackPointExtension>
        </extensions>
      </trkpt>
      <trkpt lat="44.67465466819703578948974609375" lon="6.7878990434110164642333984375">
        <ele>1795</ele>
        <time>2026-08-31T05:33:46.000Z</time>
        <extensions>
          <ns3:TrackPointExtension>
            <ns3:hr>139</ns3:hr>
            <ns3:cad>0</ns3:cad>
          </ns3:TrackPointExtension>
        </extensions>
      </trkpt>
      <trkpt lat="44.6746549196541309356689453125" lon="6.7879144661128520965576171875">
        <ele>1795</ele>
        <time>2026-08-31T05:33:47.000Z</time>
        <extensions>
          <ns3:TrackPointExtension>
            <ns3:hr>139</ns3:hr>
            <ns3:cad>0</ns3:cad>
          </ns3:TrackPointExtension>
        </extensions>
      </trkpt>
      <trkpt lat="44.67465584166347980499267578125" lon="6.7879362590610980987548828125">
        <ele>1795.199951171875</ele>
        <time>2026-08-31T05:33:48.000Z</time>
        <extensions>
          <ns3:TrackPointExtension>
            <ns3:hr>139</ns3:hr>
            <ns3:cad>0</ns3:cad>
          </ns3:TrackPointExtension>
        </extensions>
      </trkpt>
      <trkpt lat="44.67465667985379695892333984375" lon="6.7879536934196949005126953125">
        <ele>1795.199951171875</ele>
        <time>2026-08-31T05:33:49.000Z</time>
        <extensions>
          <ns3:TrackPointExtension>
            <ns3:hr>138</ns3:hr>
            <ns3:cad>0</ns3:cad>
          </ns3:TrackPointExtension>
        </extensions>
      </trkpt>
      <trkpt lat="44.6746579371392726898193359375" lon="6.787977330386638641357421875">
        <ele>1795.4000244140625</ele>
        <time>2026-08-31T05:33:50.000Z</time>
        <extensions>
          <ns3:TrackPointExtension>
            <ns3:hr>138</ns3:hr>
            <ns3:cad>0</ns3:cad>
          </ns3:TrackPointExtension>
        </extensions>
      </trkpt>
      <trkpt lat="44.67466522939503192901611328125" lon="6.78799803368747234344482421875">
        <ele>1795.4000244140625</ele>
        <time>2026-08-31T05:33:51.000Z</time>
        <extensions>
          <ns3:TrackPointExtension>
            <ns3:hr>138</ns3:hr>
            <ns3:cad>0</ns3:cad>
          </ns3:TrackPointExtension>
        </extensions>
      </trkpt>
      <trkpt lat="44.67466522939503192901611328125" lon="6.78801932372152805328369140625">
        <ele>1795.4000244140625</ele>
        <time>2026-08-31T05:33:52.000Z</time>
        <extensions>
          <ns3:TrackPointExtension>
            <ns3:hr>138</ns3:hr>
            <ns3:cad>0</ns3:cad>
          </ns3:TrackPointExtension>
        </extensions>
      </trkpt>
      <trkpt lat="44.674667157232761383056640625" lon="6.788037009537220001220703125">
        <ele>1795.4000244140625</ele>
        <time>2026-08-31T05:33:53.000Z</time>
        <extensions>
          <ns3:TrackPointExtension>
            <ns3:hr>138</ns3:hr>
            <ns3:cad>0</ns3:cad>
          </ns3:TrackPointExtension>
        </extensions>
      </trkpt>
      <trkpt lat="44.6746679954230785369873046875" lon="6.788055785000324249267578125">
        <ele>1795.5999755859375</ele>
        <time>2026-08-31T05:33:54.000Z</time>
        <extensions>
          <ns3:TrackPointExtension>
            <ns3:hr>137</ns3:hr>
            <ns3:cad>0</ns3:cad>
          </ns3:TrackPointExtension>
        </extensions>
      </trkpt>
      <trkpt lat="44.6746693365275859832763671875" lon="6.788073889911174774169921875">
        <ele>1795.5999755859375</ele>
        <time>2026-08-31T05:33:55.000Z</time>
        <extensions>
          <ns3:TrackPointExtension>
            <ns3:hr>137</ns3:hr>
            <ns3:cad>0</ns3:cad>
          </ns3:TrackPointExtension>
        </extensions>
      </trkpt>
      <trkpt lat="44.674666821956634521484375" lon="6.7880921624600887298583984375">
        <ele>1795.800048828125</ele>
        <time>2026-08-31T05:33:56.000Z</time>
        <extensions>
          <ns3:TrackPointExtension>
            <ns3:hr>137</ns3:hr>
            <ns3:cad>0</ns3:cad>
          </ns3:TrackPointExtension>
        </extensions>
      </trkpt>
      <trkpt lat="44.67466707341372966766357421875" lon="6.78810616023838520050048828125">
        <ele>1795.800048828125</ele>
        <time>2026-08-31T05:33:57.000Z</time>
        <extensions>
          <ns3:TrackPointExtension>
            <ns3:hr>137</ns3:hr>
            <ns3:cad>0</ns3:cad>
          </ns3:TrackPointExtension>
        </extensions>
      </trkpt>
      <trkpt lat="44.67466640286147594451904296875" lon="6.7881236784160137176513671875">
        <ele>1796</ele>
        <time>2026-08-31T05:33:58.000Z</time>
        <extensions>
          <ns3:TrackPointExtension>
            <ns3:hr>137</ns3:hr>
            <ns3:cad>0</ns3:cad>
          </ns3:TrackPointExtension>
        </extensions>
      </trkpt>
      <trkpt lat="44.674666821956634521484375" lon="6.78813926875591278076171875">
        <ele>1796</ele>
        <time>2026-08-31T05:33:59.000Z</time>
        <extensions>
          <ns3:TrackPointExtension>
            <ns3:hr>137</ns3:hr>
            <ns3:cad>0</ns3:cad>
          </ns3:TrackPointExtension>
        </extensions>
      </trkpt>
      <trkpt lat="44.6746656484901905059814453125" lon="6.7881582118570804595947265625">
        <ele>1796.199951171875</ele>
        <time>2026-08-31T05:34:00.000Z</time>
        <extensions>
          <ns3:TrackPointExtension>
            <ns3:hr>138</ns3:hr>
            <ns3:cad>0</ns3:cad>
          </ns3:TrackPointExtension>
        </extensions>
      </trkpt>
      <trkpt lat="44.6746653132140636444091796875" lon="6.78817279636859893798828125">
        <ele>1796.199951171875</ele>
        <time>2026-08-31T05:34:01.000Z</time>
        <extensions>
          <ns3:TrackPointExtension>
            <ns3:hr>138</ns3:hr>
            <ns3:cad>0</ns3:cad>
          </ns3:TrackPointExtension>
        </extensions>
      </trkpt>
      <trkpt lat="44.674667157232761383056640625" lon="6.78818997927010059356689453125">
        <ele>1796.4000244140625</ele>
        <time>2026-08-31T05:34:02.000Z</time>
        <extensions>
          <ns3:TrackPointExtension>
            <ns3:hr>138</ns3:hr>
            <ns3:cad>0</ns3:cad>
          </ns3:TrackPointExtension>
        </extensions>
      </trkpt>
      <trkpt lat="44.6746669895946979522705078125" lon="6.78820489905774593353271484375">
        <ele>1796.5999755859375</ele>
        <time>2026-08-31T05:34:03.000Z</time>
        <extensions>
          <ns3:TrackPointExtension>
            <ns3:hr>138</ns3:hr>
            <ns3:cad>0</ns3:cad>
          </ns3:TrackPointExtension>
        </extensions>
      </trkpt>
      <trkpt lat="44.67466623522341251373291015625" lon="6.78822468034923076629638671875">
        <ele>1796.5999755859375</ele>
        <time>2026-08-31T05:34:04.000Z</time>
        <extensions>
          <ns3:TrackPointExtension>
            <ns3:hr>138</ns3:hr>
            <ns3:cad>0</ns3:cad>
          </ns3:TrackPointExtension>
        </extensions>
      </trkpt>
      <trkpt lat="44.67466615140438079833984375" lon="6.78824429400265216827392578125">
        <ele>1796.800048828125</ele>
        <time>2026-08-31T05:34:05.000Z</time>
        <extensions>
          <ns3:TrackPointExtension>
            <ns3:hr>138</ns3:hr>
            <ns3:cad>0</ns3:cad>
          </ns3:TrackPointExtension>
        </extensions>
      </trkpt>
      <trkpt lat="44.6746656484901905059814453125" lon="6.7882601357996463775634765625">
        <ele>1796.800048828125</ele>
        <time>2026-08-31T05:34:06.000Z</time>
        <extensions>
          <ns3:TrackPointExtension>
            <ns3:hr>139</ns3:hr>
            <ns3:cad>0</ns3:cad>
          </ns3:TrackPointExtension>
        </extensions>
      </trkpt>
      <trkpt lat="44.674667827785015106201171875" lon="6.78828167729079723358154296875">
        <ele>1797</ele>
        <time>2026-08-31T05:34:07.000Z</time>
        <extensions>
          <ns3:TrackPointExtension>
            <ns3:hr>139</ns3:hr>
            <ns3:cad>0</ns3:cad>
          </ns3:TrackPointExtension>
        </extensions>
      </trkpt>
      <trkpt lat="44.67466975562274456024169921875" lon="6.78830246441066265106201171875">
        <ele>1797</ele>
        <time>2026-08-31T05:34:08.000Z</time>
        <extensions>
          <ns3:TrackPointExtension>
            <ns3:hr>139</ns3:hr>
            <ns3:cad>0</ns3:cad>
          </ns3:TrackPointExtension>
        </extensions>
      </trkpt>
      <trkpt lat="44.67467042617499828338623046875" lon="6.78832123987376689910888671875">
        <ele>1797</ele>
        <time>2026-08-31T05:34:09.000Z</time>
        <extensions>
          <ns3:TrackPointExtension>
            <ns3:hr>139</ns3:hr>
            <ns3:cad>57</ns3:cad>
          </ns3:TrackPointExtension>
        </extensions>
      </trkpt>
      <trkpt lat="44.6746696718037128448486328125" lon="6.78833867423236370086669921875">
        <ele>1797.199951171875</ele>
        <time>2026-08-31T05:34:10.000Z</time>
        <extensions>
          <ns3:TrackPointExtension>
            <ns3:hr>139</ns3:hr>
            <ns3:cad>57</ns3:cad>
          </ns3:TrackPointExtension>
        </extensions>
      </trkpt>
      <trkpt lat="44.674669839441776275634765625" lon="6.78835812024772167205810546875">
        <ele>1797.199951171875</ele>
        <time>2026-08-31T05:34:11.000Z</time>
        <extensions>
          <ns3:TrackPointExtension>
            <ns3:hr>140</ns3:hr>
            <ns3:cad>60</ns3:cad>
          </ns3:TrackPointExtension>
        </extensions>
      </trkpt>
      <trkpt lat="44.67467042617499828338623046875" lon="6.78837622515857219696044921875">
        <ele>1797.4000244140625</ele>
        <time>2026-08-31T05:34:12.000Z</time>
        <extensions>
          <ns3:TrackPointExtension>
            <ns3:hr>140</ns3:hr>
            <ns3:cad>62</ns3:cad>
          </ns3:TrackPointExtension>
        </extensions>
      </trkpt>
      <trkpt lat="44.67467285692691802978515625" lon="6.7883929051458835601806640625">
        <ele>1797.5999755859375</ele>
        <time>2026-08-31T05:34:13.000Z</time>
        <extensions>
          <ns3:TrackPointExtension>
            <ns3:hr>140</ns3:hr>
            <ns3:cad>62</ns3:cad>
          </ns3:TrackPointExtension>
        </extensions>
      </trkpt>
      <trkpt lat="44.67467528767883777618408203125" lon="6.78840883076190948486328125">
        <ele>1797.5999755859375</ele>
        <time>2026-08-31T05:34:14.000Z</time>
        <extensions>
          <ns3:TrackPointExtension>
            <ns3:hr>140</ns3:hr>
            <ns3:cad>62</ns3:cad>
          </ns3:TrackPointExtension>
        </extensions>
      </trkpt>
      <trkpt lat="44.6746780537068843841552734375" lon="6.7884287796914577484130859375">
        <ele>1797.800048828125</ele>
        <time>2026-08-31T05:34:15.000Z</time>
        <extensions>
          <ns3:TrackPointExtension>
            <ns3:hr>140</ns3:hr>
            <ns3:cad>0</ns3:cad>
          </ns3:TrackPointExtension>
        </extensions>
      </trkpt>
      <trkpt lat="44.67468132264912128448486328125" lon="6.78844512440264225006103515625">
        <ele>1797.800048828125</ele>
        <time>2026-08-31T05:34:16.000Z</time>
        <extensions>
          <ns3:TrackPointExtension>
            <ns3:hr>140</ns3:hr>
            <ns3:cad>0</ns3:cad>
          </ns3:TrackPointExtension>
        </extensions>
      </trkpt>
      <trkpt lat="44.67468358576297760009765625" lon="6.788461469113826751708984375">
        <ele>1797.800048828125</ele>
        <time>2026-08-31T05:34:17.000Z</time>
        <extensions>
          <ns3:TrackPointExtension>
            <ns3:hr>140</ns3:hr>
            <ns3:cad>0</ns3:cad>
          </ns3:TrackPointExtension>
        </extensions>
      </trkpt>
      <trkpt lat="44.6746854297816753387451171875" lon="6.78847588598728179931640625">
        <ele>1798</ele>
        <time>2026-08-31T05:34:18.000Z</time>
        <extensions>
          <ns3:TrackPointExtension>
            <ns3:hr>140</ns3:hr>
            <ns3:cad>0</ns3:cad>
          </ns3:TrackPointExtension>
        </extensions>
      </trkpt>
      <trkpt lat="44.67468853108584880828857421875" lon="6.788492985069751739501953125">
        <ele>1798</ele>
        <time>2026-08-31T05:34:19.000Z</time>
        <extensions>
          <ns3:TrackPointExtension>
            <ns3:hr>140</ns3:hr>
            <ns3:cad>0</ns3:cad>
          </ns3:TrackPointExtension>
        </extensions>
      </trkpt>
      <trkpt lat="44.67469104565680027008056640625" lon="6.788509748876094818115234375">
        <ele>1798.199951171875</ele>
        <time>2026-08-31T05:34:20.000Z</time>
        <extensions>
          <ns3:TrackPointExtension>
            <ns3:hr>141</ns3:hr>
            <ns3:cad>0</ns3:cad>
          </ns3:TrackPointExtension>
        </extensions>
      </trkpt>
      <trkpt lat="44.6746961586177349090576171875" lon="6.7885307036340236663818359375">
        <ele>1798.4000244140625</ele>
        <time>2026-08-31T05:34:21.000Z</time>
        <extensions>
          <ns3:TrackPointExtension>
            <ns3:hr>141</ns3:hr>
            <ns3:cad>0</ns3:cad>
          </ns3:TrackPointExtension>
        </extensions>
      </trkpt>
      <trkpt lat="44.674698673188686370849609375" lon="6.78854486905038356781005859375">
        <ele>1798.5999755859375</ele>
        <time>2026-08-31T05:34:22.000Z</time>
        <extensions>
          <ns3:TrackPointExtension>
            <ns3:hr>141</ns3:hr>
            <ns3:cad>0</ns3:cad>
          </ns3:TrackPointExtension>
        </extensions>
      </trkpt>
      <trkpt lat="44.6747035346925258636474609375" lon="6.78856247104704380035400390625">
        <ele>1798.5999755859375</ele>
        <time>2026-08-31T05:34:23.000Z</time>
        <extensions>
          <ns3:TrackPointExtension>
            <ns3:hr>141</ns3:hr>
            <ns3:cad>0</ns3:cad>
          </ns3:TrackPointExtension>
        </extensions>
      </trkpt>
      <trkpt lat="44.674707390367984771728515625" lon="6.78857185877859592437744140625">
        <ele>1798.800048828125</ele>
        <time>2026-08-31T05:34:24.000Z</time>
        <extensions>
          <ns3:TrackPointExtension>
            <ns3:hr>142</ns3:hr>
            <ns3:cad>0</ns3:cad>
          </ns3:TrackPointExtension>
        </extensions>
      </trkpt>
      <trkpt lat="44.674712754786014556884765625" lon="6.788587868213653564453125">
        <ele>1799</ele>
        <time>2026-08-31T05:34:25.000Z</time>
        <extensions>
          <ns3:TrackPointExtension>
            <ns3:hr>142</ns3:hr>
            <ns3:cad>0</ns3:cad>
          </ns3:TrackPointExtension>
        </extensions>
      </trkpt>
      <trkpt lat="44.67471535317599773406982421875" lon="6.7885974235832691192626953125">
        <ele>1799</ele>
        <time>2026-08-31T05:34:26.000Z</time>
        <extensions>
          <ns3:TrackPointExtension>
            <ns3:hr>142</ns3:hr>
            <ns3:cad>0</ns3:cad>
          </ns3:TrackPointExtension>
        </extensions>
      </trkpt>
      <trkpt lat="44.674721471965312957763671875" lon="6.78861242718994617462158203125">
        <ele>1799.199951171875</ele>
        <time>2026-08-31T05:34:27.000Z</time>
        <extensions>
          <ns3:TrackPointExtension>
            <ns3:hr>142</ns3:hr>
            <ns3:cad>0</ns3:cad>
          </ns3:TrackPointExtension>
        </extensions>
      </trkpt>
      <trkpt lat="44.6747283451259136199951171875" lon="6.78862701170146465301513671875">
        <ele>1799.199951171875</ele>
        <time>2026-08-31T05:34:28.000Z</time>
        <extensions>
          <ns3:TrackPointExtension>
            <ns3:hr>143</ns3:hr>
            <ns3:cad>0</ns3:cad>
          </ns3:TrackPointExtension>
        </extensions>
      </trkpt>
      <trkpt lat="44.6747353859245777130126953125" lon="6.78864176385104656219482421875">
        <ele>1799.4000244140625</ele>
        <time>2026-08-31T05:34:29.000Z</time>
        <extensions>
          <ns3:TrackPointExtension>
            <ns3:hr>143</ns3:hr>
            <ns3:cad>0</ns3:cad>
          </ns3:TrackPointExtension>
        </extensions>
      </trkpt>
      <trkpt lat="44.67474116943776607513427734375" lon="6.78865148685872554779052734375">
        <ele>1799.4000244140625</ele>
        <time>2026-08-31T05:34:30.000Z</time>
        <extensions>
          <ns3:TrackPointExtension>
            <ns3:hr>143</ns3:hr>
            <ns3:cad>0</ns3:cad>
          </ns3:TrackPointExtension>
        </extensions>
      </trkpt>
      <trkpt lat="44.67475064098834991455078125" lon="6.78866724483668804168701171875">
        <ele>1799.5999755859375</ele>
        <time>2026-08-31T05:34:31.000Z</time>
        <extensions>
          <ns3:TrackPointExtension>
            <ns3:hr>143</ns3:hr>
            <ns3:cad>0</ns3:cad>
          </ns3:TrackPointExtension>
        </extensions>
      </trkpt>
      <trkpt lat="44.67476069927215576171875" lon="6.78867680020630359649658203125">
        <ele>1799.5999755859375</ele>
        <time>2026-08-31T05:34:32.000Z</time>
        <extensions>
          <ns3:TrackPointExtension>
            <ns3:hr>143</ns3:hr>
            <ns3:cad>0</ns3:cad>
          </ns3:TrackPointExtension>
        </extensions>
      </trkpt>
      <trkpt lat="44.67477469705045223236083984375" lon="6.78868987597525119781494140625">
        <ele>1799.800048828125</ele>
        <time>2026-08-31T05:34:33.000Z</time>
        <extensions>
          <ns3:TrackPointExtension>
            <ns3:hr>144</ns3:hr>
            <ns3:cad>0</ns3:cad>
          </ns3:TrackPointExtension>
        </extensions>
      </trkpt>
      <trkpt lat="44.6747829951345920562744140625" lon="6.7886983416974544525146484375">
        <ele>1800</ele>
        <time>2026-08-31T05:34:34.000Z</time>
        <extensions>
          <ns3:TrackPointExtension>
            <ns3:hr>144</ns3:hr>
            <ns3:cad>0</ns3:cad>
          </ns3:TrackPointExtension>
        </extensions>
      </trkpt>
      <trkpt lat="44.67479414306581020355224609375" lon="6.788711249828338623046875">
        <ele>1800</ele>
        <time>2026-08-31T05:34:35.000Z</time>
        <extensions>
          <ns3:TrackPointExtension>
            <ns3:hr>144</ns3:hr>
            <ns3:cad>0</ns3:cad>
          </ns3:TrackPointExtension>
        </extensions>
      </trkpt>
      <trkpt lat="44.674803279340267181396484375" lon="6.7887179553508758544921875">
        <ele>1800.199951171875</ele>
        <time>2026-08-31T05:34:36.000Z</time>
        <extensions>
          <ns3:TrackPointExtension>
            <ns3:hr>143</ns3:hr>
            <ns3:cad>0</ns3:cad>
          </ns3:TrackPointExtension>
        </extensions>
      </trkpt>
      <trkpt lat="44.67481233179569244384765625" lon="6.78872130811214447021484375">
        <ele>1800.4000244140625</ele>
        <time>2026-08-31T05:34:37.000Z</time>
        <extensions>
          <ns3:TrackPointExtension>
            <ns3:hr>144</ns3:hr>
            <ns3:cad>0</ns3:cad>
          </ns3:TrackPointExtension>
        </extensions>
      </trkpt>
      <trkpt lat="44.67482465319335460662841796875" lon="6.7887301929295063018798828125">
        <ele>1800.4000244140625</ele>
        <time>2026-08-31T05:34:38.000Z</time>
        <extensions>
          <ns3:TrackPointExtension>
            <ns3:hr>144</ns3:hr>
            <ns3:cad>0</ns3:cad>
          </ns3:TrackPointExtension>
        </extensions>
      </trkpt>
      <trkpt lat="44.674827754497528076171875" lon="6.78873471915721893310546875">
        <ele>1800.5999755859375</ele>
        <time>2026-08-31T05:34:39.000Z</time>
        <extensions>
          <ns3:TrackPointExtension>
            <ns3:hr>144</ns3:hr>
            <ns3:cad>0</ns3:cad>
          </ns3:TrackPointExtension>
        </extensions>
      </trkpt>
      <trkpt lat="44.6748383156955242156982421875" lon="6.78874586708843708038330078125">
        <ele>1800.5999755859375</ele>
        <time>2026-08-31T05:34:40.000Z</time>
        <extensions>
          <ns3:TrackPointExtension>
            <ns3:hr>145</ns3:hr>
            <ns3:cad>0</ns3:cad>
          </ns3:TrackPointExtension>
        </extensions>
      </trkpt>
      <trkpt lat="44.67484175227582454681396484375" lon="6.7887536622583866119384765625">
        <ele>1800.800048828125</ele>
        <time>2026-08-31T05:34:41.000Z</time>
        <extensions>
          <ns3:TrackPointExtension>
            <ns3:hr>146</ns3:hr>
            <ns3:cad>0</ns3:cad>
          </ns3:TrackPointExtension>
        </extensions>
      </trkpt>
      <trkpt lat="44.67484979890286922454833984375" lon="6.788765899837017059326171875">
        <ele>1801</ele>
        <time>2026-08-31T05:34:42.000Z</time>
        <extensions>
          <ns3:TrackPointExtension>
            <ns3:hr>147</ns3:hr>
            <ns3:cad>0</ns3:cad>
          </ns3:TrackPointExtension>
        </extensions>
      </trkpt>
      <trkpt lat="44.67485801316797733306884765625" lon="6.7887767963111400604248046875">
        <ele>1801.199951171875</ele>
        <time>2026-08-31T05:34:43.000Z</time>
        <extensions>
          <ns3:TrackPointExtension>
            <ns3:hr>147</ns3:hr>
            <ns3:cad>0</ns3:cad>
          </ns3:TrackPointExtension>
        </extensions>
      </trkpt>
      <trkpt lat="44.67487092129886150360107421875" lon="6.78879079408943653106689453125">
        <ele>1801.199951171875</ele>
        <time>2026-08-31T05:34:44.000Z</time>
        <extensions>
          <ns3:TrackPointExtension>
            <ns3:hr>147</ns3:hr>
            <ns3:cad>0</ns3:cad>
          </ns3:TrackPointExtension>
        </extensions>
      </trkpt>
      <trkpt lat="44.67487913556396961212158203125" lon="6.78880118764936923980712890625">
        <ele>1801.4000244140625</ele>
        <time>2026-08-31T05:34:45.000Z</time>
        <extensions>
          <ns3:TrackPointExtension>
            <ns3:hr>147</ns3:hr>
            <ns3:cad>0</ns3:cad>
          </ns3:TrackPointExtension>
        </extensions>
      </trkpt>
      <trkpt lat="44.674892462790012359619140625" lon="6.78881560452282428741455078125">
        <ele>1801.5999755859375</ele>
        <time>2026-08-31T05:34:46.000Z</time>
        <extensions>
          <ns3:TrackPointExtension>
            <ns3:hr>147</ns3:hr>
            <ns3:cad>0</ns3:cad>
          </ns3:TrackPointExtension>
        </extensions>
      </trkpt>
      <trkpt lat="44.67489925213158130645751953125" lon="6.78882599808275699615478515625">
        <ele>1801.5999755859375</ele>
        <time>2026-08-31T05:34:47.000Z</time>
        <extensions>
          <ns3:TrackPointExtension>
            <ns3:hr>147</ns3:hr>
            <ns3:cad>0</ns3:cad>
          </ns3:TrackPointExtension>
        </extensions>
      </trkpt>
      <trkpt lat="44.6749053709208965301513671875" lon="6.7888418398797512054443359375">
        <ele>1801.800048828125</ele>
        <time>2026-08-31T05:34:48.000Z</time>
        <extensions>
          <ns3:TrackPointExtension>
            <ns3:hr>146</ns3:hr>
            <ns3:cad>0</ns3:cad>
          </ns3:TrackPointExtension>
        </extensions>
      </trkpt>
      <trkpt lat="44.67491232790052890777587890625" lon="6.7888579331338405609130859375">
        <ele>1802</ele>
        <time>2026-08-31T05:34:49.000Z</time>
        <extensions>
          <ns3:TrackPointExtension>
            <ns3:hr>147</ns3:hr>
            <ns3:cad>0</ns3:cad>
          </ns3:TrackPointExtension>
        </extensions>
      </trkpt>
      <trkpt lat="44.67491903342306613922119140625" lon="6.78886656649410724639892578125">
        <ele>1802.199951171875</ele>
        <time>2026-08-31T05:34:50.000Z</time>
        <extensions>
          <ns3:TrackPointExtension>
            <ns3:hr>147</ns3:hr>
            <ns3:cad>0</ns3:cad>
          </ns3:TrackPointExtension>
        </extensions>
      </trkpt>
      <trkpt lat="44.67492825351655483245849609375" lon="6.7888815701007843017578125">
        <ele>1802.199951171875</ele>
        <time>2026-08-31T05:34:51.000Z</time>
        <extensions>
          <ns3:TrackPointExtension>
            <ns3:hr>147</ns3:hr>
            <ns3:cad>0</ns3:cad>
          </ns3:TrackPointExtension>
        </extensions>
      </trkpt>
      <trkpt lat="44.67493143863976001739501953125" lon="6.7888867668807506561279296875">
        <ele>1802.4000244140625</ele>
        <time>2026-08-31T05:34:52.000Z</time>
        <extensions>
          <ns3:TrackPointExtension>
            <ns3:hr>147</ns3:hr>
            <ns3:cad>0</ns3:cad>
          </ns3:TrackPointExtension>
        </extensions>
      </trkpt>
      <trkpt lat="44.67493814416229724884033203125" lon="6.78889707662165164947509765625">
        <ele>1802.4000244140625</ele>
        <time>2026-08-31T05:34:53.000Z</time>
        <extensions>
          <ns3:TrackPointExtension>
            <ns3:hr>147</ns3:hr>
            <ns3:cad>0</ns3:cad>
          </ns3:TrackPointExtension>
        </extensions>
      </trkpt>
      <trkpt lat="44.67494283802807331085205078125" lon="6.7889052070677280426025390625">
        <ele>1802.5999755859375</ele>
        <time>2026-08-31T05:34:54.000Z</time>
        <extensions>
          <ns3:TrackPointExtension>
            <ns3:hr>147</ns3:hr>
            <ns3:cad>0</ns3:cad>
          </ns3:TrackPointExtension>
        </extensions>
      </trkpt>
      <trkpt lat="44.67495038174092769622802734375" lon="6.78891618736088275909423828125">
        <ele>1802.800048828125</ele>
        <time>2026-08-31T05:34:55.000Z</time>
        <extensions>
          <ns3:TrackPointExtension>
            <ns3:hr>147</ns3:hr>
            <ns3:cad>0</ns3:cad>
          </ns3:TrackPointExtension>
        </extensions>
      </trkpt>
      <trkpt lat="44.674956500530242919921875" lon="6.78892758674919605255126953125">
        <ele>1802.800048828125</ele>
        <time>2026-08-31T05:34:56.000Z</time>
        <extensions>
          <ns3:TrackPointExtension>
            <ns3:hr>147</ns3:hr>
            <ns3:cad>0</ns3:cad>
          </ns3:TrackPointExtension>
        </extensions>
      </trkpt>
      <trkpt lat="44.67496697790920734405517578125" lon="6.7889387346804141998291015625">
        <ele>1803</ele>
        <time>2026-08-31T05:34:57.000Z</time>
        <extensions>
          <ns3:TrackPointExtension>
            <ns3:hr>147</ns3:hr>
            <ns3:cad>0</ns3:cad>
          </ns3:TrackPointExtension>
        </extensions>
      </trkpt>
      <trkpt lat="44.67497787438333034515380859375" lon="6.78894820623099803924560546875">
        <ele>1803.199951171875</ele>
        <time>2026-08-31T05:34:58.000Z</time>
        <extensions>
          <ns3:TrackPointExtension>
            <ns3:hr>147</ns3:hr>
            <ns3:cad>0</ns3:cad>
          </ns3:TrackPointExtension>
        </extensions>
      </trkpt>
      <trkpt lat="44.67499044723808765411376953125" lon="6.78895876742899417877197265625">
        <ele>1803.4000244140625</ele>
        <time>2026-08-31T05:34:59.000Z</time>
        <extensions>
          <ns3:TrackPointExtension>
            <ns3:hr>147</ns3:hr>
            <ns3:cad>0</ns3:cad>
          </ns3:TrackPointExtension>
        </extensions>
      </trkpt>
      <trkpt lat="44.675001092255115509033203125" lon="6.7889638803899288177490234375">
        <ele>1803.5999755859375</ele>
        <time>2026-08-31T05:35:00.000Z</time>
        <extensions>
          <ns3:TrackPointExtension>
            <ns3:hr>148</ns3:hr>
            <ns3:cad>0</ns3:cad>
          </ns3:TrackPointExtension>
        </extensions>
      </trkpt>
      <trkpt lat="44.67500838451087474822998046875" lon="6.78897150792181491851806640625">
        <ele>1803.5999755859375</ele>
        <time>2026-08-31T05:35:01.000Z</time>
        <extensions>
          <ns3:TrackPointExtension>
            <ns3:hr>147</ns3:hr>
            <ns3:cad>0</ns3:cad>
          </ns3:TrackPointExtension>
        </extensions>
      </trkpt>
      <trkpt lat="44.67501995153725147247314453125" lon="6.78898139856755733489990234375">
        <ele>1803.800048828125</ele>
        <time>2026-08-31T05:35:02.000Z</time>
        <extensions>
          <ns3:TrackPointExtension>
            <ns3:hr>147</ns3:hr>
            <ns3:cad>0</ns3:cad>
          </ns3:TrackPointExtension>
        </extensions>
      </trkpt>
      <trkpt lat="44.67502498067915439605712890625" lon="6.78898240439593791961669921875">
        <ele>1804</ele>
        <time>2026-08-31T05:35:03.000Z</time>
        <extensions>
          <ns3:TrackPointExtension>
            <ns3:hr>147</ns3:hr>
            <ns3:cad>0</ns3:cad>
          </ns3:TrackPointExtension>
        </extensions>
      </trkpt>
      <trkpt lat="44.6750364638864994049072265625" lon="6.78898910991847515106201171875">
        <ele>1804.199951171875</ele>
        <time>2026-08-31T05:35:04.000Z</time>
        <extensions>
          <ns3:TrackPointExtension>
            <ns3:hr>147</ns3:hr>
            <ns3:cad>0</ns3:cad>
          </ns3:TrackPointExtension>
        </extensions>
      </trkpt>
      <trkpt lat="44.67504241503775119781494140625" lon="6.7889927141368389129638671875">
        <ele>1804.4000244140625</ele>
        <time>2026-08-31T05:35:05.000Z</time>
        <extensions>
          <ns3:TrackPointExtension>
            <ns3:hr>147</ns3:hr>
            <ns3:cad>0</ns3:cad>
          </ns3:TrackPointExtension>
        </extensions>
      </trkpt>
      <trkpt lat="44.675052054226398468017578125" lon="6.78899967111647129058837890625">
        <ele>1804.4000244140625</ele>
        <time>2026-08-31T05:35:06.000Z</time>
        <extensions>
          <ns3:TrackPointExtension>
            <ns3:hr>147</ns3:hr>
            <ns3:cad>0</ns3:cad>
          </ns3:TrackPointExtension>
        </extensions>
      </trkpt>
      <trkpt lat="44.67506119050085544586181640625" lon="6.789004616439342498779296875">
        <ele>1804.5999755859375</ele>
        <time>2026-08-31T05:35:07.000Z</time>
        <extensions>
          <ns3:TrackPointExtension>
            <ns3:hr>147</ns3:hr>
            <ns3:cad>0</ns3:cad>
          </ns3:TrackPointExtension>
        </extensions>
      </trkpt>
      <trkpt lat="44.6750740148127079010009765625" lon="6.78901107050478458404541015625">
        <ele>1804.800048828125</ele>
        <time>2026-08-31T05:35:08.000Z</time>
        <extensions>
          <ns3:TrackPointExtension>
            <ns3:hr>147</ns3:hr>
            <ns3:cad>0</ns3:cad>
          </ns3:TrackPointExtension>
        </extensions>
      </trkpt>
      <trkpt lat="44.67508264817297458648681640625" lon="6.789018698036670684814453125">
        <ele>1805</ele>
        <time>2026-08-31T05:35:09.000Z</time>
        <extensions>
          <ns3:TrackPointExtension>
            <ns3:hr>147</ns3:hr>
            <ns3:cad>0</ns3:cad>
          </ns3:TrackPointExtension>
        </extensions>
      </trkpt>
      <trkpt lat="44.67509605921804904937744140625" lon="6.7890188656747341156005859375">
        <ele>1805</ele>
        <time>2026-08-31T05:35:10.000Z</time>
        <extensions>
          <ns3:TrackPointExtension>
            <ns3:hr>147</ns3:hr>
            <ns3:cad>0</ns3:cad>
          </ns3:TrackPointExtension>
        </extensions>
      </trkpt>
      <trkpt lat="44.67510997317731380462646484375" lon="6.78902330808341503143310546875">
        <ele>1805.199951171875</ele>
        <time>2026-08-31T05:35:11.000Z</time>
        <extensions>
          <ns3:TrackPointExtension>
            <ns3:hr>146</ns3:hr>
            <ns3:cad>0</ns3:cad>
          </ns3:TrackPointExtension>
        </extensions>
      </trkpt>
      <trkpt lat="44.6751189418137073516845703125" lon="6.78903353400528430938720703125">
        <ele>1805.4000244140625</ele>
        <time>2026-08-31T05:35:12.000Z</time>
        <extensions>
          <ns3:TrackPointExtension>
            <ns3:hr>146</ns3:hr>
            <ns3:cad>0</ns3:cad>
          </ns3:TrackPointExtension>
        </extensions>
      </trkpt>
      <trkpt lat="44.6751310117542743682861328125" lon="6.789040155708789825439453125">
        <ele>1805.4000244140625</ele>
        <time>2026-08-31T05:35:13.000Z</time>
        <extensions>
          <ns3:TrackPointExtension>
            <ns3:hr>146</ns3:hr>
            <ns3:cad>0</ns3:cad>
          </ns3:TrackPointExtension>
        </extensions>
      </trkpt>
      <trkpt lat="44.67514232732355594635009765625" lon="6.7890493758022785186767578125">
        <ele>1805.5999755859375</ele>
        <time>2026-08-31T05:35:14.000Z</time>
        <extensions>
          <ns3:TrackPointExtension>
            <ns3:hr>146</ns3:hr>
            <ns3:cad>0</ns3:cad>
          </ns3:TrackPointExtension>
        </extensions>
      </trkpt>
      <trkpt lat="44.67515565454959869384765625" lon="6.78905817680060863494873046875">
        <ele>1805.5999755859375</ele>
        <time>2026-08-31T05:35:15.000Z</time>
        <extensions>
          <ns3:TrackPointExtension>
            <ns3:hr>146</ns3:hr>
            <ns3:cad>0</ns3:cad>
          </ns3:TrackPointExtension>
        </extensions>
      </trkpt>
      <trkpt lat="44.67516378499567508697509765625" lon="6.7890698276460170745849609375">
        <ele>1805.800048828125</ele>
        <time>2026-08-31T05:35:16.000Z</time>
        <extensions>
          <ns3:TrackPointExtension>
            <ns3:hr>147</ns3:hr>
            <ns3:cad>0</ns3:cad>
          </ns3:TrackPointExtension>
        </extensions>
      </trkpt>
      <trkpt lat="44.67517535202205181121826171875" lon="6.78908265195786952972412109375">
        <ele>1805.800048828125</ele>
        <time>2026-08-31T05:35:17.000Z</time>
        <extensions>
          <ns3:TrackPointExtension>
            <ns3:hr>146</ns3:hr>
            <ns3:cad>0</ns3:cad>
          </ns3:TrackPointExtension>
        </extensions>
      </trkpt>
      <trkpt lat="44.67518038116395473480224609375" lon="6.78909254260361194610595703125">
        <ele>1806</ele>
        <time>2026-08-31T05:35:18.000Z</time>
        <extensions>
          <ns3:TrackPointExtension>
            <ns3:hr>146</ns3:hr>
            <ns3:cad>0</ns3:cad>
          </ns3:TrackPointExtension>
        </extensions>
      </trkpt>
      <trkpt lat="44.67519052326679229736328125" lon="6.78910880349576473236083984375">
        <ele>1806</ele>
        <time>2026-08-31T05:35:19.000Z</time>
        <extensions>
          <ns3:TrackPointExtension>
            <ns3:hr>146</ns3:hr>
            <ns3:cad>0</ns3:cad>
          </ns3:TrackPointExtension>
        </extensions>
      </trkpt>
      <trkpt lat="44.67519815079867839813232421875" lon="6.789123974740505218505859375">
        <ele>1806.199951171875</ele>
        <time>2026-08-31T05:35:20.000Z</time>
        <extensions>
          <ns3:TrackPointExtension>
            <ns3:hr>146</ns3:hr>
            <ns3:cad>0</ns3:cad>
          </ns3:TrackPointExtension>
        </extensions>
      </trkpt>
      <trkpt lat="44.67520569451153278350830078125" lon="6.78914065472781658172607421875">
        <ele>1806.199951171875</ele>
        <time>2026-08-31T05:35:21.000Z</time>
        <extensions>
          <ns3:TrackPointExtension>
            <ns3:hr>146</ns3:hr>
            <ns3:cad>0</ns3:cad>
          </ns3:TrackPointExtension>
        </extensions>
      </trkpt>
      <trkpt lat="44.67520971782505512237548828125" lon="6.7891526408493518829345703125">
        <ele>1806.4000244140625</ele>
        <time>2026-08-31T05:35:22.000Z</time>
        <extensions>
          <ns3:TrackPointExtension>
            <ns3:hr>146</ns3:hr>
            <ns3:cad>0</ns3:cad>
          </ns3:TrackPointExtension>
        </extensions>
      </trkpt>
      <trkpt lat="44.6752161718904972076416015625" lon="6.78917099721729755401611328125">
        <ele>1806.4000244140625</ele>
        <time>2026-08-31T05:35:23.000Z</time>
        <extensions>
          <ns3:TrackPointExtension>
            <ns3:hr>146</ns3:hr>
            <ns3:cad>0</ns3:cad>
          </ns3:TrackPointExtension>
        </extensions>
      </trkpt>
      <trkpt lat="44.67522363178431987762451171875" lon="6.789184994995594024658203125">
        <ele>1806.4000244140625</ele>
        <time>2026-08-31T05:35:24.000Z</time>
        <extensions>
          <ns3:TrackPointExtension>
            <ns3:hr>146</ns3:hr>
            <ns3:cad>0</ns3:cad>
          </ns3:TrackPointExtension>
        </extensions>
      </trkpt>
      <trkpt lat="44.67523084022104740142822265625" lon="6.78920418955385684967041015625">
        <ele>1806.5999755859375</ele>
        <time>2026-08-31T05:35:25.000Z</time>
        <extensions>
          <ns3:TrackPointExtension>
            <ns3:hr>146</ns3:hr>
            <ns3:cad>0</ns3:cad>
          </ns3:TrackPointExtension>
        </extensions>
      </trkpt>
      <trkpt lat="44.675233773887157440185546875" lon="6.78922061808407306671142578125">
        <ele>1806.5999755859375</ele>
        <time>2026-08-31T05:35:26.000Z</time>
        <extensions>
          <ns3:TrackPointExtension>
            <ns3:hr>146</ns3:hr>
            <ns3:cad>0</ns3:cad>
          </ns3:TrackPointExtension>
        </extensions>
      </trkpt>
      <trkpt lat="44.675235450267791748046875" lon="6.789234615862369537353515625">
        <ele>1806.800048828125</ele>
        <time>2026-08-31T05:35:27.000Z</time>
        <extensions>
          <ns3:TrackPointExtension>
            <ns3:hr>145</ns3:hr>
            <ns3:cad>0</ns3:cad>
          </ns3:TrackPointExtension>
        </extensions>
      </trkpt>
      <trkpt lat="44.67523670755326747894287109375" lon="6.78925246931612491607666015625">
        <ele>1807</ele>
        <time>2026-08-31T05:35:28.000Z</time>
        <extensions>
          <ns3:TrackPointExtension>
            <ns3:hr>144</ns3:hr>
            <ns3:cad>0</ns3:cad>
          </ns3:TrackPointExtension>
        </extensions>
      </trkpt>
      <trkpt lat="44.6752416528761386871337890625" lon="6.7892676405608654022216796875">
        <ele>1807</ele>
        <time>2026-08-31T05:35:29.000Z</time>
        <extensions>
          <ns3:TrackPointExtension>
            <ns3:hr>144</ns3:hr>
            <ns3:cad>0</ns3:cad>
          </ns3:TrackPointExtension>
        </extensions>
      </trkpt>
      <trkpt lat="44.67524358071386814117431640625" lon="6.789284236729145050048828125">
        <ele>1807.199951171875</ele>
        <time>2026-08-31T05:35:30.000Z</time>
        <extensions>
          <ns3:TrackPointExtension>
            <ns3:hr>144</ns3:hr>
            <ns3:cad>0</ns3:cad>
          </ns3:TrackPointExtension>
        </extensions>
      </trkpt>
      <trkpt lat="44.67524793930351734161376953125" lon="6.7893051914870738983154296875">
        <ele>1807.4000244140625</ele>
        <time>2026-08-31T05:35:31.000Z</time>
        <extensions>
          <ns3:TrackPointExtension>
            <ns3:hr>144</ns3:hr>
            <ns3:cad>0</ns3:cad>
          </ns3:TrackPointExtension>
        </extensions>
      </trkpt>
      <trkpt lat="44.675251208245754241943359375" lon="6.78931675851345062255859375">
        <ele>1807.4000244140625</ele>
        <time>2026-08-31T05:35:32.000Z</time>
        <extensions>
          <ns3:TrackPointExtension>
            <ns3:hr>145</ns3:hr>
            <ns3:cad>0</ns3:cad>
          </ns3:TrackPointExtension>
        </extensions>
      </trkpt>
      <trkpt lat="44.67524953186511993408203125" lon="6.78932757116854190826416015625">
        <ele>1807.5999755859375</ele>
        <time>2026-08-31T05:35:33.000Z</time>
        <extensions>
          <ns3:TrackPointExtension>
            <ns3:hr>145</ns3:hr>
            <ns3:cad>0</ns3:cad>
          </ns3:TrackPointExtension>
        </extensions>
      </trkpt>
      <trkpt lat="44.6752473525702953338623046875" lon="6.78933997638523578643798828125">
        <ele>1807.5999755859375</ele>
        <time>2026-08-31T05:35:34.000Z</time>
        <extensions>
          <ns3:TrackPointExtension>
            <ns3:hr>145</ns3:hr>
            <ns3:cad>0</ns3:cad>
          </ns3:TrackPointExtension>
        </extensions>
      </trkpt>
      <trkpt lat="44.6752496995031833648681640625" lon="6.78935338743031024932861328125">
        <ele>1807.5999755859375</ele>
        <time>2026-08-31T05:35:35.000Z</time>
        <extensions>
          <ns3:TrackPointExtension>
            <ns3:hr>146</ns3:hr>
            <ns3:cad>0</ns3:cad>
          </ns3:TrackPointExtension>
        </extensions>
      </trkpt>
      <trkpt lat="44.6752490289509296417236328125" lon="6.78936914540827274322509765625">
        <ele>1807.800048828125</ele>
        <time>2026-08-31T05:35:36.000Z</time>
        <extensions>
          <ns3:TrackPointExtension>
            <ns3:hr>147</ns3:hr>
            <ns3:cad>0</ns3:cad>
          </ns3:TrackPointExtension>
        </extensions>
      </trkpt>
      <trkpt lat="44.6752507053315639495849609375" lon="6.789381466805934906005859375">
        <ele>1807.800048828125</ele>
        <time>2026-08-31T05:35:37.000Z</time>
        <extensions>
          <ns3:TrackPointExtension>
            <ns3:hr>147</ns3:hr>
            <ns3:cad>0</ns3:cad>
          </ns3:TrackPointExtension>
        </extensions>
      </trkpt>
      <trkpt lat="44.67525414191186428070068359375" lon="6.7893960513174533843994140625">
        <ele>1808</ele>
        <time>2026-08-31T05:35:38.000Z</time>
        <extensions>
          <ns3:TrackPointExtension>
            <ns3:hr>147</ns3:hr>
            <ns3:cad>0</ns3:cad>
          </ns3:TrackPointExtension>
        </extensions>
      </trkpt>
      <trkpt lat="44.67525715939700603485107421875" lon="6.78940937854349613189697265625">
        <ele>1808</ele>
        <time>2026-08-31T05:35:39.000Z</time>
        <extensions>
          <ns3:TrackPointExtension>
            <ns3:hr>147</ns3:hr>
            <ns3:cad>0</ns3:cad>
          </ns3:TrackPointExtension>
        </extensions>
      </trkpt>
      <trkpt lat="44.6752587519586086273193359375" lon="6.78942203521728515625">
        <ele>1808.199951171875</ele>
        <time>2026-08-31T05:35:40.000Z</time>
        <extensions>
          <ns3:TrackPointExtension>
            <ns3:hr>148</ns3:hr>
            <ns3:cad>0</ns3:cad>
          </ns3:TrackPointExtension>
        </extensions>
      </trkpt>
      <trkpt lat="44.6752610988914966583251953125" lon="6.78943770937621593475341796875">
        <ele>1808.4000244140625</ele>
        <time>2026-08-31T05:35:41.000Z</time>
        <extensions>
          <ns3:TrackPointExtension>
            <ns3:hr>148</ns3:hr>
            <ns3:cad>0</ns3:cad>
          </ns3:TrackPointExtension>
        </extensions>
      </trkpt>
      <trkpt lat="44.675267972052097320556640625" lon="6.789457239210605621337890625">
        <ele>1808.5999755859375</ele>
        <time>2026-08-31T05:35:42.000Z</time>
        <extensions>
          <ns3:TrackPointExtension>
            <ns3:hr>148</ns3:hr>
            <ns3:cad>0</ns3:cad>
          </ns3:TrackPointExtension>
        </extensions>
      </trkpt>
      <trkpt lat="44.67527308501303195953369140625" lon="6.7894745059311389923095703125">
        <ele>1808.800048828125</ele>
        <time>2026-08-31T05:35:43.000Z</time>
        <extensions>
          <ns3:TrackPointExtension>
            <ns3:hr>148</ns3:hr>
            <ns3:cad>0</ns3:cad>
          </ns3:TrackPointExtension>
        </extensions>
      </trkpt>
      <trkpt lat="44.67527627013623714447021484375" lon="6.789490766823291778564453125">
        <ele>1809</ele>
        <time>2026-08-31T05:35:44.000Z</time>
        <extensions>
          <ns3:TrackPointExtension>
            <ns3:hr>148</ns3:hr>
            <ns3:cad>0</ns3:cad>
          </ns3:TrackPointExtension>
        </extensions>
      </trkpt>
      <trkpt lat="44.675278365612030029296875" lon="6.78950744681060314178466796875">
        <ele>1809</ele>
        <time>2026-08-31T05:35:45.000Z</time>
        <extensions>
          <ns3:TrackPointExtension>
            <ns3:hr>147</ns3:hr>
            <ns3:cad>0</ns3:cad>
          </ns3:TrackPointExtension>
        </extensions>
      </trkpt>
      <trkpt lat="44.67527945525944232940673828125" lon="6.78951524198055267333984375">
        <ele>1809.199951171875</ele>
        <time>2026-08-31T05:35:46.000Z</time>
        <extensions>
          <ns3:TrackPointExtension>
            <ns3:hr>148</ns3:hr>
            <ns3:cad>0</ns3:cad>
          </ns3:TrackPointExtension>
        </extensions>
      </trkpt>
      <trkpt lat="44.675278700888156890869140625" lon="6.78953041322529315948486328125">
        <ele>1809.4000244140625</ele>
        <time>2026-08-31T05:35:47.000Z</time>
        <extensions>
          <ns3:TrackPointExtension>
            <ns3:hr>148</ns3:hr>
            <ns3:cad>0</ns3:cad>
          </ns3:TrackPointExtension>
        </extensions>
      </trkpt>
      <trkpt lat="44.6752785332500934600830078125" lon="6.78954063914716243743896484375">
        <ele>1809.5999755859375</ele>
        <time>2026-08-31T05:35:48.000Z</time>
        <extensions>
          <ns3:TrackPointExtension>
            <ns3:hr>148</ns3:hr>
            <ns3:cad>0</ns3:cad>
          </ns3:TrackPointExtension>
        </extensions>
      </trkpt>
      <trkpt lat="44.675280712544918060302734375" lon="6.7895574867725372314453125">
        <ele>1809.5999755859375</ele>
        <time>2026-08-31T05:35:49.000Z</time>
        <extensions>
          <ns3:TrackPointExtension>
            <ns3:hr>148</ns3:hr>
            <ns3:cad>0</ns3:cad>
          </ns3:TrackPointExtension>
        </extensions>
      </trkpt>
      <trkpt lat="44.67528062872588634490966796875" lon="6.7895697243511676788330078125">
        <ele>1809.800048828125</ele>
        <time>2026-08-31T05:35:50.000Z</time>
        <extensions>
          <ns3:TrackPointExtension>
            <ns3:hr>148</ns3:hr>
            <ns3:cad>0</ns3:cad>
          </ns3:TrackPointExtension>
        </extensions>
      </trkpt>
      <trkpt lat="44.67528280802071094512939453125" lon="6.789587326347827911376953125">
        <ele>1810</ele>
        <time>2026-08-31T05:35:51.000Z</time>
        <extensions>
          <ns3:TrackPointExtension>
            <ns3:hr>148</ns3:hr>
            <ns3:cad>0</ns3:cad>
          </ns3:TrackPointExtension>
        </extensions>
      </trkpt>
      <trkpt lat="44.6752845682203769683837890625" lon="6.7896012403070926666259765625">
        <ele>1810</ele>
        <time>2026-08-31T05:35:52.000Z</time>
        <extensions>
          <ns3:TrackPointExtension>
            <ns3:hr>149</ns3:hr>
            <ns3:cad>0</ns3:cad>
          </ns3:TrackPointExtension>
        </extensions>
      </trkpt>
      <trkpt lat="44.67528817243874073028564453125" lon="6.789615489542484283447265625">
        <ele>1810.199951171875</ele>
        <time>2026-08-31T05:35:53.000Z</time>
        <extensions>
          <ns3:TrackPointExtension>
            <ns3:hr>149</ns3:hr>
            <ns3:cad>0</ns3:cad>
          </ns3:TrackPointExtension>
        </extensions>
      </trkpt>
      <trkpt lat="44.67529253102838993072509765625" lon="6.78963166661560535430908203125">
        <ele>1810.4000244140625</ele>
        <time>2026-08-31T05:35:54.000Z</time>
        <extensions>
          <ns3:TrackPointExtension>
            <ns3:hr>149</ns3:hr>
            <ns3:cad>0</ns3:cad>
          </ns3:TrackPointExtension>
        </extensions>
      </trkpt>
      <trkpt lat="44.6752996556460857391357421875" lon="6.7896458320319652557373046875">
        <ele>1810.4000244140625</ele>
        <time>2026-08-31T05:35:55.000Z</time>
        <extensions>
          <ns3:TrackPointExtension>
            <ns3:hr>149</ns3:hr>
            <ns3:cad>0</ns3:cad>
          </ns3:TrackPointExtension>
        </extensions>
      </trkpt>
      <trkpt lat="44.67530426569283008575439453125" lon="6.7896609194576740264892578125">
        <ele>1810.5999755859375</ele>
        <time>2026-08-31T05:35:56.000Z</time>
        <extensions>
          <ns3:TrackPointExtension>
            <ns3:hr>148</ns3:hr>
            <ns3:cad>0</ns3:cad>
          </ns3:TrackPointExtension>
        </extensions>
      </trkpt>
      <trkpt lat="44.67530895955860614776611328125" lon="6.78967173211276531219482421875">
        <ele>1810.800048828125</ele>
        <time>2026-08-31T05:35:57.000Z</time>
        <extensions>
          <ns3:TrackPointExtension>
            <ns3:hr>149</ns3:hr>
            <ns3:cad>0</ns3:cad>
          </ns3:TrackPointExtension>
        </extensions>
      </trkpt>
      <trkpt lat="44.67531658709049224853515625" lon="6.78968950174748897552490234375">
        <ele>1811</ele>
        <time>2026-08-31T05:35:58.000Z</time>
        <extensions>
          <ns3:TrackPointExtension>
            <ns3:hr>148</ns3:hr>
            <ns3:cad>0</ns3:cad>
          </ns3:TrackPointExtension>
        </extensions>
      </trkpt>
      <trkpt lat="44.67531918548047542572021484375" lon="6.7897014878690242767333984375">
        <ele>1811.199951171875</ele>
        <time>2026-08-31T05:35:59.000Z</time>
        <extensions>
          <ns3:TrackPointExtension>
            <ns3:hr>147</ns3:hr>
            <ns3:cad>0</ns3:cad>
          </ns3:TrackPointExtension>
        </extensions>
      </trkpt>
      <trkpt lat="44.67531926929950714111328125" lon="6.7897229455411434173583984375">
        <ele>1811.199951171875</ele>
        <time>2026-08-31T05:36:00.000Z</time>
        <extensions>
          <ns3:TrackPointExtension>
            <ns3:hr>147</ns3:hr>
            <ns3:cad>0</ns3:cad>
          </ns3:TrackPointExtension>
        </extensions>
      </trkpt>
      <trkpt lat="44.6753197722136974334716796875" lon="6.78974197246134281158447265625">
        <ele>1811.4000244140625</ele>
        <time>2026-08-31T05:36:01.000Z</time>
        <extensions>
          <ns3:TrackPointExtension>
            <ns3:hr>144</ns3:hr>
            <ns3:cad>0</ns3:cad>
          </ns3:TrackPointExtension>
        </extensions>
      </trkpt>
      <trkpt lat="44.67531600035727024078369140625" lon="6.7897604964673519134521484375">
        <ele>1811.5999755859375</ele>
        <time>2026-08-31T05:36:02.000Z</time>
        <extensions>
          <ns3:TrackPointExtension>
            <ns3:hr>143</ns3:hr>
            <ns3:cad>0</ns3:cad>
          </ns3:TrackPointExtension>
        </extensions>
      </trkpt>
      <trkpt lat="44.6753147430717945098876953125" lon="6.78977533243596553802490234375">
        <ele>1811.800048828125</ele>
        <time>2026-08-31T05:36:03.000Z</time>
        <extensions>
          <ns3:TrackPointExtension>
            <ns3:hr>142</ns3:hr>
            <ns3:cad>0</ns3:cad>
          </ns3:TrackPointExtension>
        </extensions>
      </trkpt>
      <trkpt lat="44.67531231231987476348876953125" lon="6.7897946946322917938232421875">
        <ele>1811.800048828125</ele>
        <time>2026-08-31T05:36:04.000Z</time>
        <extensions>
          <ns3:TrackPointExtension>
            <ns3:hr>142</ns3:hr>
            <ns3:cad>0</ns3:cad>
          </ns3:TrackPointExtension>
        </extensions>
      </trkpt>
      <trkpt lat="44.67531197704374790191650390625" lon="6.789807267487049102783203125">
        <ele>1812</ele>
        <time>2026-08-31T05:36:05.000Z</time>
        <extensions>
          <ns3:TrackPointExtension>
            <ns3:hr>142</ns3:hr>
            <ns3:cad>0</ns3:cad>
          </ns3:TrackPointExtension>
        </extensions>
      </trkpt>
      <trkpt lat="44.6753127314150333404541015625" lon="6.7898245342075824737548828125">
        <ele>1812.199951171875</ele>
        <time>2026-08-31T05:36:06.000Z</time>
        <extensions>
          <ns3:TrackPointExtension>
            <ns3:hr>143</ns3:hr>
            <ns3:cad>0</ns3:cad>
          </ns3:TrackPointExtension>
        </extensions>
      </trkpt>
      <trkpt lat="44.67531315051019191741943359375" lon="6.789837777614593505859375">
        <ele>1812.4000244140625</ele>
        <time>2026-08-31T05:36:07.000Z</time>
        <extensions>
          <ns3:TrackPointExtension>
            <ns3:hr>142</ns3:hr>
            <ns3:cad>0</ns3:cad>
          </ns3:TrackPointExtension>
        </extensions>
      </trkpt>
      <trkpt lat="44.67530795373022556304931640625" lon="6.7898513562977313995361328125">
        <ele>1812.4000244140625</ele>
        <time>2026-08-31T05:36:08.000Z</time>
        <extensions>
          <ns3:TrackPointExtension>
            <ns3:hr>142</ns3:hr>
            <ns3:cad>0</ns3:cad>
          </ns3:TrackPointExtension>
        </extensions>
      </trkpt>
      <trkpt lat="44.67530661262571811676025390625" lon="6.7898661084473133087158203125">
        <ele>1812.5999755859375</ele>
        <time>2026-08-31T05:36:09.000Z</time>
        <extensions>
          <ns3:TrackPointExtension>
            <ns3:hr>142</ns3:hr>
            <ns3:cad>0</ns3:cad>
          </ns3:TrackPointExtension>
        </extensions>
      </trkpt>
      <trkpt lat="44.67530309222638607025146484375" lon="6.78987591527402400970458984375">
        <ele>1812.800048828125</ele>
        <time>2026-08-31T05:36:10.000Z</time>
        <extensions>
          <ns3:TrackPointExtension>
            <ns3:hr>142</ns3:hr>
            <ns3:cad>0</ns3:cad>
          </ns3:TrackPointExtension>
        </extensions>
      </trkpt>
      <trkpt lat="44.675299488008022308349609375" lon="6.789896786212921142578125">
        <ele>1812.800048828125</ele>
        <time>2026-08-31T05:36:11.000Z</time>
        <extensions>
          <ns3:TrackPointExtension>
            <ns3:hr>142</ns3:hr>
            <ns3:cad>0</ns3:cad>
          </ns3:TrackPointExtension>
        </extensions>
      </trkpt>
      <trkpt lat="44.675298146903514862060546875" lon="6.78991279564797878265380859375">
        <ele>1813</ele>
        <time>2026-08-31T05:36:12.000Z</time>
        <extensions>
          <ns3:TrackPointExtension>
            <ns3:hr>142</ns3:hr>
            <ns3:cad>0</ns3:cad>
          </ns3:TrackPointExtension>
        </extensions>
      </trkpt>
      <trkpt lat="44.67529471032321453094482421875" lon="6.7899308167397975921630859375">
        <ele>1813</ele>
        <time>2026-08-31T05:36:13.000Z</time>
        <extensions>
          <ns3:TrackPointExtension>
            <ns3:hr>141</ns3:hr>
            <ns3:cad>0</ns3:cad>
          </ns3:TrackPointExtension>
        </extensions>
      </trkpt>
      <trkpt lat="44.67529378831386566162109375" lon="6.789946071803569793701171875">
        <ele>1813.199951171875</ele>
        <time>2026-08-31T05:36:14.000Z</time>
        <extensions>
          <ns3:TrackPointExtension>
            <ns3:hr>141</ns3:hr>
            <ns3:cad>0</ns3:cad>
          </ns3:TrackPointExtension>
        </extensions>
      </trkpt>
      <trkpt lat="44.67528976500034332275390625" lon="6.78996090777218341827392578125">
        <ele>1813.4000244140625</ele>
        <time>2026-08-31T05:36:15.000Z</time>
        <extensions>
          <ns3:TrackPointExtension>
            <ns3:hr>141</ns3:hr>
            <ns3:cad>0</ns3:cad>
          </ns3:TrackPointExtension>
        </extensions>
      </trkpt>
      <trkpt lat="44.67528515495359897613525390625" lon="6.7899747379124164581298828125">
        <ele>1813.4000244140625</ele>
        <time>2026-08-31T05:36:16.000Z</time>
        <extensions>
          <ns3:TrackPointExtension>
            <ns3:hr>141</ns3:hr>
            <ns3:cad>0</ns3:cad>
          </ns3:TrackPointExtension>
        </extensions>
      </trkpt>
      <trkpt lat="44.6752798743546009063720703125" lon="6.78999342955648899078369140625">
        <ele>1813.5999755859375</ele>
        <time>2026-08-31T05:36:17.000Z</time>
        <extensions>
          <ns3:TrackPointExtension>
            <ns3:hr>141</ns3:hr>
            <ns3:cad>0</ns3:cad>
          </ns3:TrackPointExtension>
        </extensions>
      </trkpt>
      <trkpt lat="44.67527643777430057525634765625" lon="6.79000675678253173828125">
        <ele>1813.5999755859375</ele>
        <time>2026-08-31T05:36:18.000Z</time>
        <extensions>
          <ns3:TrackPointExtension>
            <ns3:hr>140</ns3:hr>
            <ns3:cad>0</ns3:cad>
          </ns3:TrackPointExtension>
        </extensions>
      </trkpt>
      <trkpt lat="44.6752735041081905364990234375" lon="6.7900216765701770782470703125">
        <ele>1813.800048828125</ele>
        <time>2026-08-31T05:36:19.000Z</time>
        <extensions>
          <ns3:TrackPointExtension>
            <ns3:hr>140</ns3:hr>
            <ns3:cad>0</ns3:cad>
          </ns3:TrackPointExtension>
        </extensions>
      </trkpt>
      <trkpt lat="44.6752689778804779052734375" lon="6.79003718309104442596435546875">
        <ele>1813.800048828125</ele>
        <time>2026-08-31T05:36:20.000Z</time>
        <extensions>
          <ns3:TrackPointExtension>
            <ns3:hr>140</ns3:hr>
            <ns3:cad>0</ns3:cad>
          </ns3:TrackPointExtension>
        </extensions>
      </trkpt>
      <trkpt lat="44.67526369728147983551025390625" lon="6.79004673846065998077392578125">
        <ele>1814</ele>
        <time>2026-08-31T05:36:21.000Z</time>
        <extensions>
          <ns3:TrackPointExtension>
            <ns3:hr>140</ns3:hr>
            <ns3:cad>0</ns3:cad>
          </ns3:TrackPointExtension>
        </extensions>
      </trkpt>
      <trkpt lat="44.6752584166824817657470703125" lon="6.7900622449815273284912109375">
        <ele>1814.199951171875</ele>
        <time>2026-08-31T05:36:22.000Z</time>
        <extensions>
          <ns3:TrackPointExtension>
            <ns3:hr>139</ns3:hr>
            <ns3:cad>0</ns3:cad>
          </ns3:TrackPointExtension>
        </extensions>
      </trkpt>
      <trkpt lat="44.6752513758838176727294921875" lon="6.79007607512176036834716796875">
        <ele>1814.4000244140625</ele>
        <time>2026-08-31T05:36:23.000Z</time>
        <extensions>
          <ns3:TrackPointExtension>
            <ns3:hr>139</ns3:hr>
            <ns3:cad>0</ns3:cad>
          </ns3:TrackPointExtension>
        </extensions>
      </trkpt>
      <trkpt lat="44.67524475418031215667724609375" lon="6.790095269680023193359375">
        <ele>1814.5999755859375</ele>
        <time>2026-08-31T05:36:24.000Z</time>
        <extensions>
          <ns3:TrackPointExtension>
            <ns3:hr>139</ns3:hr>
            <ns3:cad>0</ns3:cad>
          </ns3:TrackPointExtension>
        </extensions>
      </trkpt>
      <trkpt lat="44.6752433292567729949951171875" lon="6.79010490886867046356201171875">
        <ele>1814.5999755859375</ele>
        <time>2026-08-31T05:36:25.000Z</time>
        <extensions>
          <ns3:TrackPointExtension>
            <ns3:hr>139</ns3:hr>
            <ns3:cad>0</ns3:cad>
          </ns3:TrackPointExtension>
        </extensions>
      </trkpt>
      <trkpt lat="44.6752406470477581024169921875" lon="6.79012066684663295745849609375">
        <ele>1814.800048828125</ele>
        <time>2026-08-31T05:36:26.000Z</time>
        <extensions>
          <ns3:TrackPointExtension>
            <ns3:hr>139</ns3:hr>
            <ns3:cad>0</ns3:cad>
          </ns3:TrackPointExtension>
        </extensions>
      </trkpt>
      <trkpt lat="44.67523838393390178680419921875" lon="6.7901314795017242431640625">
        <ele>1814.800048828125</ele>
        <time>2026-08-31T05:36:27.000Z</time>
        <extensions>
          <ns3:TrackPointExtension>
            <ns3:hr>140</ns3:hr>
            <ns3:cad>0</ns3:cad>
          </ns3:TrackPointExtension>
        </extensions>
      </trkpt>
      <trkpt lat="44.67523352243006229400634765625" lon="6.79014648310840129852294921875">
        <ele>1815</ele>
        <time>2026-08-31T05:36:28.000Z</time>
        <extensions>
          <ns3:TrackPointExtension>
            <ns3:hr>139</ns3:hr>
            <ns3:cad>0</ns3:cad>
          </ns3:TrackPointExtension>
        </extensions>
      </trkpt>
      <trkpt lat="44.67522949911653995513916015625" lon="6.7901624925434589385986328125">
        <ele>1815.199951171875</ele>
        <time>2026-08-31T05:36:29.000Z</time>
        <extensions>
          <ns3:TrackPointExtension>
            <ns3:hr>140</ns3:hr>
            <ns3:cad>0</ns3:cad>
          </ns3:TrackPointExtension>
        </extensions>
      </trkpt>
      <trkpt lat="44.67522329650819301605224609375" lon="6.7901765741407871246337890625">
        <ele>1815.4000244140625</ele>
        <time>2026-08-31T05:36:30.000Z</time>
        <extensions>
          <ns3:TrackPointExtension>
            <ns3:hr>140</ns3:hr>
            <ns3:cad>0</ns3:cad>
          </ns3:TrackPointExtension>
        </extensions>
      </trkpt>
      <trkpt lat="44.67522011138498783111572265625" lon="6.7901919968426227569580078125">
        <ele>1815.5999755859375</ele>
        <time>2026-08-31T05:36:31.000Z</time>
        <extensions>
          <ns3:TrackPointExtension>
            <ns3:hr>140</ns3:hr>
            <ns3:cad>0</ns3:cad>
          </ns3:TrackPointExtension>
        </extensions>
      </trkpt>
      <trkpt lat="44.675219692289829254150390625" lon="6.79021085612475872039794921875">
        <ele>1815.800048828125</ele>
        <time>2026-08-31T05:36:32.000Z</time>
        <extensions>
          <ns3:TrackPointExtension>
            <ns3:hr>140</ns3:hr>
            <ns3:cad>0</ns3:cad>
          </ns3:TrackPointExtension>
        </extensions>
      </trkpt>
      <trkpt lat="44.675219357013702392578125" lon="6.79022644646465778350830078125">
        <ele>1815.800048828125</ele>
        <time>2026-08-31T05:36:33.000Z</time>
        <extensions>
          <ns3:TrackPointExtension>
            <ns3:hr>140</ns3:hr>
            <ns3:cad>0</ns3:cad>
          </ns3:TrackPointExtension>
        </extensions>
      </trkpt>
      <trkpt lat="44.67521877028048038482666015625" lon="6.79024689830839633941650390625">
        <ele>1816</ele>
        <time>2026-08-31T05:36:34.000Z</time>
        <extensions>
          <ns3:TrackPointExtension>
            <ns3:hr>140</ns3:hr>
            <ns3:cad>0</ns3:cad>
          </ns3:TrackPointExtension>
        </extensions>
      </trkpt>
      <trkpt lat="44.67522296123206615447998046875" lon="6.7902629077434539794921875">
        <ele>1816</ele>
        <time>2026-08-31T05:36:35.000Z</time>
        <extensions>
          <ns3:TrackPointExtension>
            <ns3:hr>141</ns3:hr>
            <ns3:cad>0</ns3:cad>
          </ns3:TrackPointExtension>
        </extensions>
      </trkpt>
      <trkpt lat="44.6752255596220493316650390625" lon="6.79027891717851161956787109375">
        <ele>1816.199951171875</ele>
        <time>2026-08-31T05:36:36.000Z</time>
        <extensions>
          <ns3:TrackPointExtension>
            <ns3:hr>141</ns3:hr>
            <ns3:cad>0</ns3:cad>
          </ns3:TrackPointExtension>
        </extensions>
      </trkpt>
      <trkpt lat="44.67522941529750823974609375" lon="6.79029299877583980560302734375">
        <ele>1816.4000244140625</ele>
        <time>2026-08-31T05:36:37.000Z</time>
        <extensions>
          <ns3:TrackPointExtension>
            <ns3:hr>141</ns3:hr>
            <ns3:cad>0</ns3:cad>
          </ns3:TrackPointExtension>
        </extensions>
      </trkpt>
      <trkpt lat="44.67522916384041309356689453125" lon="6.790300793945789337158203125">
        <ele>1816.5999755859375</ele>
        <time>2026-08-31T05:36:38.000Z</time>
        <extensions>
          <ns3:TrackPointExtension>
            <ns3:hr>141</ns3:hr>
            <ns3:cad>0</ns3:cad>
          </ns3:TrackPointExtension>
        </extensions>
      </trkpt>
      <trkpt lat="44.6752319298684597015380859375" lon="6.79031764157116413116455078125">
        <ele>1817</ele>
        <time>2026-08-31T05:36:39.000Z</time>
        <extensions>
          <ns3:TrackPointExtension>
            <ns3:hr>141</ns3:hr>
            <ns3:cad>0</ns3:cad>
          </ns3:TrackPointExtension>
        </extensions>
      </trkpt>
      <trkpt lat="44.675232432782649993896484375" lon="6.79032501764595508575439453125">
        <ele>1817.199951171875</ele>
        <time>2026-08-31T05:36:40.000Z</time>
        <extensions>
          <ns3:TrackPointExtension>
            <ns3:hr>140</ns3:hr>
            <ns3:cad>0</ns3:cad>
          </ns3:TrackPointExtension>
        </extensions>
      </trkpt>
      <trkpt lat="44.675234444439411163330078125" lon="6.7903415299952030181884765625">
        <ele>1817.4000244140625</ele>
        <time>2026-08-31T05:36:41.000Z</time>
        <extensions>
          <ns3:TrackPointExtension>
            <ns3:hr>141</ns3:hr>
            <ns3:cad>0</ns3:cad>
          </ns3:TrackPointExtension>
        </extensions>
      </trkpt>
      <trkpt lat="44.675238132476806640625" lon="6.7903515882790088653564453125">
        <ele>1817.4000244140625</ele>
        <time>2026-08-31T05:36:42.000Z</time>
        <extensions>
          <ns3:TrackPointExtension>
            <ns3:hr>141</ns3:hr>
            <ns3:cad>0</ns3:cad>
          </ns3:TrackPointExtension>
        </extensions>
      </trkpt>
      <trkpt lat="44.6752433292567729949951171875" lon="6.7903683520853519439697265625">
        <ele>1817.5999755859375</ele>
        <time>2026-08-31T05:36:43.000Z</time>
        <extensions>
          <ns3:TrackPointExtension>
            <ns3:hr>141</ns3:hr>
            <ns3:cad>0</ns3:cad>
          </ns3:TrackPointExtension>
        </extensions>
      </trkpt>
      <trkpt lat="44.6752470172941684722900390625" lon="6.79038519971072673797607421875">
        <ele>1817.5999755859375</ele>
        <time>2026-08-31T05:36:44.000Z</time>
        <extensions>
          <ns3:TrackPointExtension>
            <ns3:hr>141</ns3:hr>
            <ns3:cad>0</ns3:cad>
          </ns3:TrackPointExtension>
        </extensions>
      </trkpt>
      <trkpt lat="44.67524810694158077239990234375" lon="6.790400706231594085693359375">
        <ele>1817.800048828125</ele>
        <time>2026-08-31T05:36:45.000Z</time>
        <extensions>
          <ns3:TrackPointExtension>
            <ns3:hr>141</ns3:hr>
            <ns3:cad>0</ns3:cad>
          </ns3:TrackPointExtension>
        </extensions>
      </trkpt>
      <trkpt lat="44.67525414191186428070068359375" lon="6.790410764515399932861328125">
        <ele>1817.800048828125</ele>
        <time>2026-08-31T05:36:46.000Z</time>
        <extensions>
          <ns3:TrackPointExtension>
            <ns3:hr>141</ns3:hr>
            <ns3:cad>0</ns3:cad>
          </ns3:TrackPointExtension>
        </extensions>
      </trkpt>
      <trkpt lat="44.6752617694437503814697265625" lon="6.7904270254075527191162109375">
        <ele>1817.800048828125</ele>
        <time>2026-08-31T05:36:47.000Z</time>
        <extensions>
          <ns3:TrackPointExtension>
            <ns3:hr>141</ns3:hr>
            <ns3:cad>0</ns3:cad>
          </ns3:TrackPointExtension>
        </extensions>
      </trkpt>
      <trkpt lat="44.67526830732822418212890625" lon="6.79043926298618316650390625">
        <ele>1817.800048828125</ele>
        <time>2026-08-31T05:36:48.000Z</time>
        <extensions>
          <ns3:TrackPointExtension>
            <ns3:hr>141</ns3:hr>
            <ns3:cad>0</ns3:cad>
          </ns3:TrackPointExtension>
        </extensions>
      </trkpt>
      <trkpt lat="44.675278365612030029296875" lon="6.7904585413634777069091796875">
        <ele>1818</ele>
        <time>2026-08-31T05:36:49.000Z</time>
        <extensions>
          <ns3:TrackPointExtension>
            <ns3:hr>141</ns3:hr>
            <ns3:cad>0</ns3:cad>
          </ns3:TrackPointExtension>
        </extensions>
      </trkpt>
      <trkpt lat="44.67528867535293102264404296875" lon="6.7904716171324253082275390625">
        <ele>1818</ele>
        <time>2026-08-31T05:36:50.000Z</time>
        <extensions>
          <ns3:TrackPointExtension>
            <ns3:hr>141</ns3:hr>
            <ns3:cad>0</ns3:cad>
          </ns3:TrackPointExtension>
        </extensions>
      </trkpt>
      <trkpt lat="44.67530074529349803924560546875" lon="6.79048360325396060943603515625">
        <ele>1818</ele>
        <time>2026-08-31T05:36:51.000Z</time>
        <extensions>
          <ns3:TrackPointExtension>
            <ns3:hr>142</ns3:hr>
            <ns3:cad>0</ns3:cad>
          </ns3:TrackPointExtension>
        </extensions>
      </trkpt>
      <trkpt lat="44.67531013302505016326904296875" lon="6.79049282334744930267333984375">
        <ele>1818</ele>
        <time>2026-08-31T05:36:52.000Z</time>
        <extensions>
          <ns3:TrackPointExtension>
            <ns3:hr>142</ns3:hr>
            <ns3:cad>0</ns3:cad>
          </ns3:TrackPointExtension>
        </extensions>
      </trkpt>
      <trkpt lat="44.67532304115593433380126953125" lon="6.79049969650804996490478515625">
        <ele>1818</ele>
        <time>2026-08-31T05:36:53.000Z</time>
        <extensions>
          <ns3:TrackPointExtension>
            <ns3:hr>142</ns3:hr>
            <ns3:cad>0</ns3:cad>
          </ns3:TrackPointExtension>
        </extensions>
      </trkpt>
      <trkpt lat="44.67533376999199390411376953125" lon="6.79050824604928493499755859375">
        <ele>1818</ele>
        <time>2026-08-31T05:36:54.000Z</time>
        <extensions>
          <ns3:TrackPointExtension>
            <ns3:hr>143</ns3:hr>
            <ns3:cad>0</ns3:cad>
          </ns3:TrackPointExtension>
        </extensions>
      </trkpt>
      <trkpt lat="44.675346426665782928466796875" lon="6.790519058704376220703125">
        <ele>1818</ele>
        <time>2026-08-31T05:36:55.000Z</time>
        <extensions>
          <ns3:TrackPointExtension>
            <ns3:hr>143</ns3:hr>
            <ns3:cad>0</ns3:cad>
          </ns3:TrackPointExtension>
        </extensions>
      </trkpt>
      <trkpt lat="44.675357826054096221923828125" lon="6.7905239202082157135009765625">
        <ele>1818</ele>
        <time>2026-08-31T05:36:56.000Z</time>
        <extensions>
          <ns3:TrackPointExtension>
            <ns3:hr>144</ns3:hr>
            <ns3:cad>0</ns3:cad>
          </ns3:TrackPointExtension>
        </extensions>
      </trkpt>
      <trkpt lat="44.67536813579499721527099609375" lon="6.79052987135946750640869140625">
        <ele>1818</ele>
        <time>2026-08-31T05:36:57.000Z</time>
        <extensions>
          <ns3:TrackPointExtension>
            <ns3:hr>144</ns3:hr>
            <ns3:cad>0</ns3:cad>
          </ns3:TrackPointExtension>
        </extensions>
      </trkpt>
      <trkpt lat="44.67538037337362766265869140625" lon="6.7905376665294170379638671875">
        <ele>1818.199951171875</ele>
        <time>2026-08-31T05:36:58.000Z</time>
        <extensions>
          <ns3:TrackPointExtension>
            <ns3:hr>145</ns3:hr>
            <ns3:cad>0</ns3:cad>
          </ns3:TrackPointExtension>
        </extensions>
      </trkpt>
      <trkpt lat="44.67539294622838497161865234375" lon="6.7905483953654766082763671875">
        <ele>1818.199951171875</ele>
        <time>2026-08-31T05:36:59.000Z</time>
        <extensions>
          <ns3:TrackPointExtension>
            <ns3:hr>145</ns3:hr>
            <ns3:cad>0</ns3:cad>
          </ns3:TrackPointExtension>
        </extensions>
      </trkpt>
      <trkpt lat="44.67540484853088855743408203125" lon="6.7905601300299167633056640625">
        <ele>1818.199951171875</ele>
        <time>2026-08-31T05:37:00.000Z</time>
        <extensions>
          <ns3:TrackPointExtension>
            <ns3:hr>145</ns3:hr>
            <ns3:cad>0</ns3:cad>
          </ns3:TrackPointExtension>
        </extensions>
      </trkpt>
      <trkpt lat="44.675414152443408966064453125" lon="6.7905701883137226104736328125">
        <ele>1818.199951171875</ele>
        <time>2026-08-31T05:37:01.000Z</time>
        <extensions>
          <ns3:TrackPointExtension>
            <ns3:hr>145</ns3:hr>
            <ns3:cad>0</ns3:cad>
          </ns3:TrackPointExtension>
        </extensions>
      </trkpt>
      <trkpt lat="44.67542563565075397491455078125" lon="6.7905835993587970733642578125">
        <ele>1818.199951171875</ele>
        <time>2026-08-31T05:37:02.000Z</time>
        <extensions>
          <ns3:TrackPointExtension>
            <ns3:hr>146</ns3:hr>
            <ns3:cad>0</ns3:cad>
          </ns3:TrackPointExtension>
        </extensions>
      </trkpt>
      <trkpt lat="44.67543435283005237579345703125" lon="6.79059055633842945098876953125">
        <ele>1818.199951171875</ele>
        <time>2026-08-31T05:37:03.000Z</time>
        <extensions>
          <ns3:TrackPointExtension>
            <ns3:hr>145</ns3:hr>
            <ns3:cad>0</ns3:cad>
          </ns3:TrackPointExtension>
        </extensions>
      </trkpt>
      <trkpt lat="44.67544424347579479217529296875" lon="6.79060363210737705230712890625">
        <ele>1818.199951171875</ele>
        <time>2026-08-31T05:37:04.000Z</time>
        <extensions>
          <ns3:TrackPointExtension>
            <ns3:hr>145</ns3:hr>
            <ns3:cad>0</ns3:cad>
          </ns3:TrackPointExtension>
        </extensions>
      </trkpt>
      <trkpt lat="44.67545430175960063934326171875" lon="6.79061737842857837677001953125">
        <ele>1818.4000244140625</ele>
        <time>2026-08-31T05:37:05.000Z</time>
        <extensions>
          <ns3:TrackPointExtension>
            <ns3:hr>145</ns3:hr>
            <ns3:cad>0</ns3:cad>
          </ns3:TrackPointExtension>
        </extensions>
      </trkpt>
      <trkpt lat="44.67546201311051845550537109375" lon="6.7906303703784942626953125">
        <ele>1818.4000244140625</ele>
        <time>2026-08-31T05:37:06.000Z</time>
        <extensions>
          <ns3:TrackPointExtension>
            <ns3:hr>146</ns3:hr>
            <ns3:cad>0</ns3:cad>
          </ns3:TrackPointExtension>
        </extensions>
      </trkpt>
      <trkpt lat="44.67547022737562656402587890625" lon="6.7906473018229007720947265625">
        <ele>1818.4000244140625</ele>
        <time>2026-08-31T05:37:07.000Z</time>
        <extensions>
          <ns3:TrackPointExtension>
            <ns3:hr>145</ns3:hr>
            <ns3:cad>0</ns3:cad>
          </ns3:TrackPointExtension>
        </extensions>
      </trkpt>
      <trkpt lat="44.67547860927879810333251953125" lon="6.7906610481441020965576171875">
        <ele>1818.4000244140625</ele>
        <time>2026-08-31T05:37:08.000Z</time>
        <extensions>
          <ns3:TrackPointExtension>
            <ns3:hr>145</ns3:hr>
            <ns3:cad>0</ns3:cad>
          </ns3:TrackPointExtension>
        </extensions>
      </trkpt>
      <trkpt lat="44.675484560430049896240234375" lon="6.790674291551113128662109375">
        <ele>1818.4000244140625</ele>
        <time>2026-08-31T05:37:09.000Z</time>
        <extensions>
          <ns3:TrackPointExtension>
            <ns3:hr>145</ns3:hr>
            <ns3:cad>0</ns3:cad>
          </ns3:TrackPointExtension>
        </extensions>
      </trkpt>
      <trkpt lat="44.67548984102904796600341796875" lon="6.7906882055103778839111328125">
        <ele>1818.4000244140625</ele>
        <time>2026-08-31T05:37:10.000Z</time>
        <extensions>
          <ns3:TrackPointExtension>
            <ns3:hr>145</ns3:hr>
            <ns3:cad>0</ns3:cad>
          </ns3:TrackPointExtension>
        </extensions>
      </trkpt>
      <trkpt lat="44.6754942834377288818359375" lon="6.79071192629635334014892578125">
        <ele>1818.4000244140625</ele>
        <time>2026-08-31T05:37:11.000Z</time>
        <extensions>
          <ns3:TrackPointExtension>
            <ns3:hr>144</ns3:hr>
            <ns3:cad>0</ns3:cad>
          </ns3:TrackPointExtension>
        </extensions>
      </trkpt>
      <trkpt lat="44.67550727538764476776123046875" lon="6.79074210114777088165283203125">
        <ele>1818.5999755859375</ele>
        <time>2026-08-31T05:37:12.000Z</time>
        <extensions>
          <ns3:TrackPointExtension>
            <ns3:hr>144</ns3:hr>
            <ns3:cad>0</ns3:cad>
          </ns3:TrackPointExtension>
        </extensions>
      </trkpt>
      <trkpt lat="44.6755157411098480224609375" lon="6.7907636426389217376708984375">
        <ele>1819</ele>
        <time>2026-08-31T05:37:13.000Z</time>
        <extensions>
          <ns3:TrackPointExtension>
            <ns3:hr>144</ns3:hr>
            <ns3:cad>0</ns3:cad>
          </ns3:TrackPointExtension>
        </extensions>
      </trkpt>
      <trkpt lat="44.67552269808948040008544921875" lon="6.79079725407063961029052734375">
        <ele>1819</ele>
        <time>2026-08-31T05:37:14.000Z</time>
        <extensions>
          <ns3:TrackPointExtension>
            <ns3:hr>144</ns3:hr>
            <ns3:cad>0</ns3:cad>
          </ns3:TrackPointExtension>
        </extensions>
      </trkpt>
      <trkpt lat="44.6755252964794635772705078125" lon="6.79082742892205715179443359375">
        <ele>1819.199951171875</ele>
        <time>2026-08-31T05:37:15.000Z</time>
        <extensions>
          <ns3:TrackPointExtension>
            <ns3:hr>143</ns3:hr>
            <ns3:cad>81</ns3:cad>
          </ns3:TrackPointExtension>
        </extensions>
      </trkpt>
      <trkpt lat="44.67553258873522281646728515625" lon="6.7908556759357452392578125">
        <ele>1819.199951171875</ele>
        <time>2026-08-31T05:37:16.000Z</time>
        <extensions>
          <ns3:TrackPointExtension>
            <ns3:hr>143</ns3:hr>
            <ns3:cad>82</ns3:cad>
          </ns3:TrackPointExtension>
        </extensions>
      </trkpt>
      <trkpt lat="44.675538204610347747802734375" lon="6.79088979028165340423583984375">
        <ele>1819.199951171875</ele>
        <time>2026-08-31T05:37:17.000Z</time>
        <extensions>
          <ns3:TrackPointExtension>
            <ns3:hr>143</ns3:hr>
            <ns3:cad>81</ns3:cad>
          </ns3:TrackPointExtension>
        </extensions>
      </trkpt>
      <trkpt lat="44.6755427308380603790283203125" lon="6.79091937839984893798828125">
        <ele>1819.199951171875</ele>
        <time>2026-08-31T05:37:18.000Z</time>
        <extensions>
          <ns3:TrackPointExtension>
            <ns3:hr>143</ns3:hr>
            <ns3:cad>81</ns3:cad>
          </ns3:TrackPointExtension>
        </extensions>
      </trkpt>
      <trkpt lat="44.67554080300033092498779296875" lon="6.79094427265226840972900390625">
        <ele>1819.199951171875</ele>
        <time>2026-08-31T05:37:19.000Z</time>
        <extensions>
          <ns3:TrackPointExtension>
            <ns3:hr>143</ns3:hr>
            <ns3:cad>81</ns3:cad>
          </ns3:TrackPointExtension>
        </extensions>
      </trkpt>
      <trkpt lat="44.6755380369722843170166015625" lon="6.790977381169795989990234375">
        <ele>1819.199951171875</ele>
        <time>2026-08-31T05:37:20.000Z</time>
        <extensions>
          <ns3:TrackPointExtension>
            <ns3:hr>143</ns3:hr>
            <ns3:cad>81</ns3:cad>
          </ns3:TrackPointExtension>
        </extensions>
      </trkpt>
      <trkpt lat="44.67553242109715938568115234375" lon="6.79100386798381805419921875">
        <ele>1819.199951171875</ele>
        <time>2026-08-31T05:37:21.000Z</time>
        <extensions>
          <ns3:TrackPointExtension>
            <ns3:hr>143</ns3:hr>
            <ns3:cad>81</ns3:cad>
          </ns3:TrackPointExtension>
        </extensions>
      </trkpt>
      <trkpt lat="44.6755279786884784698486328125" lon="6.79103161208331584930419921875">
        <ele>1819.199951171875</ele>
        <time>2026-08-31T05:37:22.000Z</time>
        <extensions>
          <ns3:TrackPointExtension>
            <ns3:hr>142</ns3:hr>
            <ns3:cad>81</ns3:cad>
          </ns3:TrackPointExtension>
        </extensions>
      </trkpt>
      <trkpt lat="44.675525128841400146484375" lon="6.7910643853247165679931640625">
        <ele>1819.199951171875</ele>
        <time>2026-08-31T05:37:23.000Z</time>
        <extensions>
          <ns3:TrackPointExtension>
            <ns3:hr>142</ns3:hr>
            <ns3:cad>81</ns3:cad>
          </ns3:TrackPointExtension>
        </extensions>
      </trkpt>
      <trkpt lat="44.6755286492407321929931640625" lon="6.79108743555843830108642578125">
        <ele>1819.4000244140625</ele>
        <time>2026-08-31T05:37:24.000Z</time>
        <extensions>
          <ns3:TrackPointExtension>
            <ns3:hr>142</ns3:hr>
            <ns3:cad>81</ns3:cad>
          </ns3:TrackPointExtension>
        </extensions>
      </trkpt>
      <trkpt lat="44.67552445828914642333984375" lon="6.791116185486316680908203125">
        <ele>1819.4000244140625</ele>
        <time>2026-08-31T05:37:25.000Z</time>
        <extensions>
          <ns3:TrackPointExtension>
            <ns3:hr>141</ns3:hr>
            <ns3:cad>81</ns3:cad>
          </ns3:TrackPointExtension>
        </extensions>
      </trkpt>
      <trkpt lat="44.67552253045141696929931640625" lon="6.7911461926996707916259765625">
        <ele>1819.5999755859375</ele>
        <time>2026-08-31T05:37:26.000Z</time>
        <extensions>
          <ns3:TrackPointExtension>
            <ns3:hr>141</ns3:hr>
            <ns3:cad>81</ns3:cad>
          </ns3:TrackPointExtension>
        </extensions>
      </trkpt>
      <trkpt lat="44.67552202753722667694091796875" lon="6.79116840474307537078857421875">
        <ele>1819.800048828125</ele>
        <time>2026-08-31T05:37:27.000Z</time>
        <extensions>
          <ns3:TrackPointExtension>
            <ns3:hr>141</ns3:hr>
            <ns3:cad>81</ns3:cad>
          </ns3:TrackPointExtension>
        </extensions>
      </trkpt>
      <trkpt lat="44.675514064729213714599609375" lon="6.791197322309017181396484375">
        <ele>1820</ele>
        <time>2026-08-31T05:37:28.000Z</time>
        <extensions>
          <ns3:TrackPointExtension>
            <ns3:hr>141</ns3:hr>
            <ns3:cad>81</ns3:cad>
          </ns3:TrackPointExtension>
        </extensions>
      </trkpt>
      <trkpt lat="44.67550970613956451416015625" lon="6.7912249825894832611083984375">
        <ele>1820</ele>
        <time>2026-08-31T05:37:29.000Z</time>
        <extensions>
          <ns3:TrackPointExtension>
            <ns3:hr>140</ns3:hr>
            <ns3:cad>81</ns3:cad>
          </ns3:TrackPointExtension>
        </extensions>
      </trkpt>
      <trkpt lat="44.67551163397729396820068359375" lon="6.79124669171869754791259765625">
        <ele>1820.199951171875</ele>
        <time>2026-08-31T05:37:30.000Z</time>
        <extensions>
          <ns3:TrackPointExtension>
            <ns3:hr>140</ns3:hr>
            <ns3:cad>80</ns3:cad>
          </ns3:TrackPointExtension>
        </extensions>
      </trkpt>
      <trkpt lat="44.67550492845475673675537109375" lon="6.79128172807395458221435546875">
        <ele>1820.199951171875</ele>
        <time>2026-08-31T05:37:31.000Z</time>
        <extensions>
          <ns3:TrackPointExtension>
            <ns3:hr>140</ns3:hr>
            <ns3:cad>80</ns3:cad>
          </ns3:TrackPointExtension>
        </extensions>
      </trkpt>
      <trkpt lat="44.6754994802176952362060546875" lon="6.7913091368973255157470703125">
        <ele>1820.4000244140625</ele>
        <time>2026-08-31T05:37:32.000Z</time>
        <extensions>
          <ns3:TrackPointExtension>
            <ns3:hr>140</ns3:hr>
            <ns3:cad>80</ns3:cad>
          </ns3:TrackPointExtension>
        </extensions>
      </trkpt>
      <trkpt lat="44.6754969656467437744140625" lon="6.7913352884352207183837890625">
        <ele>1820.4000244140625</ele>
        <time>2026-08-31T05:37:33.000Z</time>
        <extensions>
          <ns3:TrackPointExtension>
            <ns3:hr>140</ns3:hr>
            <ns3:cad>80</ns3:cad>
          </ns3:TrackPointExtension>
        </extensions>
      </trkpt>
      <trkpt lat="44.67548715882003307342529296875" lon="6.7913637869060039520263671875">
        <ele>1820.5999755859375</ele>
        <time>2026-08-31T05:37:34.000Z</time>
        <extensions>
          <ns3:TrackPointExtension>
            <ns3:hr>140</ns3:hr>
            <ns3:cad>80</ns3:cad>
          </ns3:TrackPointExtension>
        </extensions>
      </trkpt>
      <trkpt lat="44.67547927983105182647705078125" lon="6.7913894355297088623046875">
        <ele>1820.5999755859375</ele>
        <time>2026-08-31T05:37:35.000Z</time>
        <extensions>
          <ns3:TrackPointExtension>
            <ns3:hr>140</ns3:hr>
            <ns3:cad>80</ns3:cad>
          </ns3:TrackPointExtension>
        </extensions>
      </trkpt>
      <trkpt lat="44.67547693289816379547119140625" lon="6.79141785018146038055419921875">
        <ele>1820.800048828125</ele>
        <time>2026-08-31T05:37:36.000Z</time>
        <extensions>
          <ns3:TrackPointExtension>
            <ns3:hr>140</ns3:hr>
            <ns3:cad>80</ns3:cad>
          </ns3:TrackPointExtension>
        </extensions>
      </trkpt>
      <trkpt lat="44.67546804808080196380615234375" lon="6.791456826031208038330078125">
        <ele>1820.800048828125</ele>
        <time>2026-08-31T05:37:37.000Z</time>
        <extensions>
          <ns3:TrackPointExtension>
            <ns3:hr>140</ns3:hr>
            <ns3:cad>81</ns3:cad>
          </ns3:TrackPointExtension>
        </extensions>
      </trkpt>
      <trkpt lat="44.67546318657696247100830078125" lon="6.79148775525391101837158203125">
        <ele>1820.800048828125</ele>
        <time>2026-08-31T05:37:38.000Z</time>
        <extensions>
          <ns3:TrackPointExtension>
            <ns3:hr>140</ns3:hr>
            <ns3:cad>81</ns3:cad>
          </ns3:TrackPointExtension>
        </extensions>
      </trkpt>
      <trkpt lat="44.67546016909182071685791015625" lon="6.791516840457916259765625">
        <ele>1820.800048828125</ele>
        <time>2026-08-31T05:37:39.000Z</time>
        <extensions>
          <ns3:TrackPointExtension>
            <ns3:hr>140</ns3:hr>
            <ns3:cad>81</ns3:cad>
          </ns3:TrackPointExtension>
        </extensions>
      </trkpt>
      <trkpt lat="44.6754585765302181243896484375" lon="6.7915538884699344635009765625">
        <ele>1820.800048828125</ele>
        <time>2026-08-31T05:37:40.000Z</time>
        <extensions>
          <ns3:TrackPointExtension>
            <ns3:hr>141</ns3:hr>
            <ns3:cad>80</ns3:cad>
          </ns3:TrackPointExtension>
        </extensions>
      </trkpt>
      <trkpt lat="44.67545513994991779327392578125" lon="6.79157760925590991973876953125">
        <ele>1820.800048828125</ele>
        <time>2026-08-31T05:37:41.000Z</time>
        <extensions>
          <ns3:TrackPointExtension>
            <ns3:hr>141</ns3:hr>
            <ns3:cad>80</ns3:cad>
          </ns3:TrackPointExtension>
        </extensions>
      </trkpt>
      <trkpt lat="44.67545069754123687744140625" lon="6.79160811938345432281494140625">
        <ele>1820.800048828125</ele>
        <time>2026-08-31T05:37:42.000Z</time>
        <extensions>
          <ns3:TrackPointExtension>
            <ns3:hr>141</ns3:hr>
            <ns3:cad>80</ns3:cad>
          </ns3:TrackPointExtension>
        </extensions>
      </trkpt>
      <trkpt lat="44.67544734477996826171875" lon="6.7916380427777767181396484375">
        <ele>1821</ele>
        <time>2026-08-31T05:37:43.000Z</time>
        <extensions>
          <ns3:TrackPointExtension>
            <ns3:hr>142</ns3:hr>
            <ns3:cad>81</ns3:cad>
          </ns3:TrackPointExtension>
        </extensions>
      </trkpt>
      <trkpt lat="44.67545044608414173126220703125" lon="6.79166042245924472808837890625">
        <ele>1821</ele>
        <time>2026-08-31T05:37:44.000Z</time>
        <extensions>
          <ns3:TrackPointExtension>
            <ns3:hr>142</ns3:hr>
            <ns3:cad>81</ns3:cad>
          </ns3:TrackPointExtension>
        </extensions>
      </trkpt>
      <trkpt lat="44.6754414774477481842041015625" lon="6.79169395007193088531494140625">
        <ele>1821.199951171875</ele>
        <time>2026-08-31T05:37:45.000Z</time>
        <extensions>
          <ns3:TrackPointExtension>
            <ns3:hr>142</ns3:hr>
            <ns3:cad>81</ns3:cad>
          </ns3:TrackPointExtension>
        </extensions>
      </trkpt>
      <trkpt lat="44.6754406392574310302734375" lon="6.79172513075172901153564453125">
        <ele>1821.4000244140625</ele>
        <time>2026-08-31T05:37:46.000Z</time>
        <extensions>
          <ns3:TrackPointExtension>
            <ns3:hr>143</ns3:hr>
            <ns3:cad>81</ns3:cad>
          </ns3:TrackPointExtension>
        </extensions>
      </trkpt>
      <trkpt lat="44.67544089071452617645263671875" lon="6.79174952208995819091796875">
        <ele>1821.4000244140625</ele>
        <time>2026-08-31T05:37:47.000Z</time>
        <extensions>
          <ns3:TrackPointExtension>
            <ns3:hr>143</ns3:hr>
            <ns3:cad>81</ns3:cad>
          </ns3:TrackPointExtension>
        </extensions>
      </trkpt>
      <trkpt lat="44.67543661594390869140625" lon="6.79178296588361263275146484375">
        <ele>1821.5999755859375</ele>
        <time>2026-08-31T05:37:48.000Z</time>
        <extensions>
          <ns3:TrackPointExtension>
            <ns3:hr>144</ns3:hr>
            <ns3:cad>81</ns3:cad>
          </ns3:TrackPointExtension>
        </extensions>
      </trkpt>
      <trkpt lat="44.67543485574424266815185546875" lon="6.79181045852601528167724609375">
        <ele>1821.5999755859375</ele>
        <time>2026-08-31T05:37:49.000Z</time>
        <extensions>
          <ns3:TrackPointExtension>
            <ns3:hr>144</ns3:hr>
            <ns3:cad>81</ns3:cad>
          </ns3:TrackPointExtension>
        </extensions>
      </trkpt>
      <trkpt lat="44.67543535865843296051025390625" lon="6.79183610714972019195556640625">
        <ele>1821.5999755859375</ele>
        <time>2026-08-31T05:37:50.000Z</time>
        <extensions>
          <ns3:TrackPointExtension>
            <ns3:hr>144</ns3:hr>
            <ns3:cad>81</ns3:cad>
          </ns3:TrackPointExtension>
        </extensions>
      </trkpt>
      <trkpt lat="44.6754325926303863525390625" lon="6.791871897876262664794921875">
        <ele>1821.5999755859375</ele>
        <time>2026-08-31T05:37:51.000Z</time>
        <extensions>
          <ns3:TrackPointExtension>
            <ns3:hr>144</ns3:hr>
            <ns3:cad>81</ns3:cad>
          </ns3:TrackPointExtension>
        </extensions>
      </trkpt>
      <trkpt lat="44.67543066479265689849853515625" lon="6.7919012345373630523681640625">
        <ele>1821.5999755859375</ele>
        <time>2026-08-31T05:37:52.000Z</time>
        <extensions>
          <ns3:TrackPointExtension>
            <ns3:hr>144</ns3:hr>
            <ns3:cad>82</ns3:cad>
          </ns3:TrackPointExtension>
        </extensions>
      </trkpt>
      <trkpt lat="44.675425551831722259521484375" lon="6.7919354327023029327392578125">
        <ele>1821.5999755859375</ele>
        <time>2026-08-31T05:37:53.000Z</time>
        <extensions>
          <ns3:TrackPointExtension>
            <ns3:hr>144</ns3:hr>
            <ns3:cad>82</ns3:cad>
          </ns3:TrackPointExtension>
        </extensions>
      </trkpt>
      <trkpt lat="44.67542387545108795166015625" lon="6.79196837358176708221435546875">
        <ele>1821.5999755859375</ele>
        <time>2026-08-31T05:37:54.000Z</time>
        <extensions>
          <ns3:TrackPointExtension>
            <ns3:hr>144</ns3:hr>
            <ns3:cad>81</ns3:cad>
          </ns3:TrackPointExtension>
        </extensions>
      </trkpt>
      <trkpt lat="44.67542563565075397491455078125" lon="6.79199628531932830810546875">
        <ele>1821.800048828125</ele>
        <time>2026-08-31T05:37:55.000Z</time>
        <extensions>
          <ns3:TrackPointExtension>
            <ns3:hr>145</ns3:hr>
            <ns3:cad>81</ns3:cad>
          </ns3:TrackPointExtension>
        </extensions>
      </trkpt>
      <trkpt lat="44.6754227019846439361572265625" lon="6.79203090257942676544189453125">
        <ele>1821.800048828125</ele>
        <time>2026-08-31T05:37:56.000Z</time>
        <extensions>
          <ns3:TrackPointExtension>
            <ns3:hr>145</ns3:hr>
            <ns3:cad>80</ns3:cad>
          </ns3:TrackPointExtension>
        </extensions>
      </trkpt>
      <trkpt lat="44.6754156611859798431396484375" lon="6.79206468164920806884765625">
        <ele>1821.800048828125</ele>
        <time>2026-08-31T05:37:57.000Z</time>
        <extensions>
          <ns3:TrackPointExtension>
            <ns3:hr>145</ns3:hr>
            <ns3:cad>80</ns3:cad>
          </ns3:TrackPointExtension>
        </extensions>
      </trkpt>
      <trkpt lat="44.6754173375666141510009765625" lon="6.7920853011310100555419921875">
        <ele>1821.800048828125</ele>
        <time>2026-08-31T05:37:58.000Z</time>
        <extensions>
          <ns3:TrackPointExtension>
            <ns3:hr>145</ns3:hr>
            <ns3:cad>81</ns3:cad>
          </ns3:TrackPointExtension>
        </extensions>
      </trkpt>
      <trkpt lat="44.67541289515793323516845703125" lon="6.79211941547691822052001953125">
        <ele>1821.800048828125</ele>
        <time>2026-08-31T05:37:59.000Z</time>
        <extensions>
          <ns3:TrackPointExtension>
            <ns3:hr>145</ns3:hr>
            <ns3:cad>82</ns3:cad>
          </ns3:TrackPointExtension>
        </extensions>
      </trkpt>
      <trkpt lat="44.67541222460567951202392578125" lon="6.7921453155577182769775390625">
        <ele>1822</ele>
        <time>2026-08-31T05:38:00.000Z</time>
        <extensions>
          <ns3:TrackPointExtension>
            <ns3:hr>145</ns3:hr>
            <ns3:cad>82</ns3:cad>
          </ns3:TrackPointExtension>
        </extensions>
      </trkpt>
      <trkpt lat="44.6754116378724575042724609375" lon="6.7921681143343448638916015625">
        <ele>1822.199951171875</ele>
        <time>2026-08-31T05:38:01.000Z</time>
        <extensions>
          <ns3:TrackPointExtension>
            <ns3:hr>146</ns3:hr>
            <ns3:cad>82</ns3:cad>
          </ns3:TrackPointExtension>
        </extensions>
      </trkpt>
      <trkpt lat="44.6754045970737934112548828125" lon="6.7922003008425235748291015625">
        <ele>1822.4000244140625</ele>
        <time>2026-08-31T05:38:02.000Z</time>
        <extensions>
          <ns3:TrackPointExtension>
            <ns3:hr>146</ns3:hr>
            <ns3:cad>81</ns3:cad>
          </ns3:TrackPointExtension>
        </extensions>
      </trkpt>
      <trkpt lat="44.6753985621035099029541015625" lon="6.79223223589360713958740234375">
        <ele>1822.4000244140625</ele>
        <time>2026-08-31T05:38:03.000Z</time>
        <extensions>
          <ns3:TrackPointExtension>
            <ns3:hr>147</ns3:hr>
            <ns3:cad>80</ns3:cad>
          </ns3:TrackPointExtension>
        </extensions>
      </trkpt>
      <trkpt lat="44.67539881356060504913330078125" lon="6.79226207546889781951904296875">
        <ele>1822.4000244140625</ele>
        <time>2026-08-31T05:38:04.000Z</time>
        <extensions>
          <ns3:TrackPointExtension>
            <ns3:hr>147</ns3:hr>
            <ns3:cad>80</ns3:cad>
          </ns3:TrackPointExtension>
        </extensions>
      </trkpt>
      <trkpt lat="44.67539579607546329498291015625" lon="6.79229828529059886932373046875">
        <ele>1822.4000244140625</ele>
        <time>2026-08-31T05:38:05.000Z</time>
        <extensions>
          <ns3:TrackPointExtension>
            <ns3:hr>147</ns3:hr>
            <ns3:cad>80</ns3:cad>
          </ns3:TrackPointExtension>
        </extensions>
      </trkpt>
      <trkpt lat="44.67539143748581409454345703125" lon="6.79232351481914520263671875">
        <ele>1822.199951171875</ele>
        <time>2026-08-31T05:38:06.000Z</time>
        <extensions>
          <ns3:TrackPointExtension>
            <ns3:hr>148</ns3:hr>
            <ns3:cad>80</ns3:cad>
          </ns3:TrackPointExtension>
        </extensions>
      </trkpt>
      <trkpt lat="44.675391353666782379150390625" lon="6.79234840907156467437744140625">
        <ele>1822.199951171875</ele>
        <time>2026-08-31T05:38:07.000Z</time>
        <extensions>
          <ns3:TrackPointExtension>
            <ns3:hr>149</ns3:hr>
            <ns3:cad>81</ns3:cad>
          </ns3:TrackPointExtension>
        </extensions>
      </trkpt>
      <trkpt lat="44.67539244331419467926025390625" lon="6.79237958975136280059814453125">
        <ele>1822.199951171875</ele>
        <time>2026-08-31T05:38:08.000Z</time>
        <extensions>
          <ns3:TrackPointExtension>
            <ns3:hr>149</ns3:hr>
            <ns3:cad>82</ns3:cad>
          </ns3:TrackPointExtension>
        </extensions>
      </trkpt>
      <trkpt lat="44.67539261095225811004638671875" lon="6.79240825586020946502685546875">
        <ele>1822.199951171875</ele>
        <time>2026-08-31T05:38:09.000Z</time>
        <extensions>
          <ns3:TrackPointExtension>
            <ns3:hr>150</ns3:hr>
            <ns3:cad>82</ns3:cad>
          </ns3:TrackPointExtension>
        </extensions>
      </trkpt>
      <trkpt lat="44.675396382808685302734375" lon="6.7924346588551998138427734375">
        <ele>1822.4000244140625</ele>
        <time>2026-08-31T05:38:10.000Z</time>
        <extensions>
          <ns3:TrackPointExtension>
            <ns3:hr>151</ns3:hr>
            <ns3:cad>81</ns3:cad>
          </ns3:TrackPointExtension>
        </extensions>
      </trkpt>
      <trkpt lat="44.67540333978831768035888671875" lon="6.79246307350695133209228515625">
        <ele>1822.4000244140625</ele>
        <time>2026-08-31T05:38:11.000Z</time>
        <extensions>
          <ns3:TrackPointExtension>
            <ns3:hr>151</ns3:hr>
            <ns3:cad>81</ns3:cad>
          </ns3:TrackPointExtension>
        </extensions>
      </trkpt>
      <trkpt lat="44.67541222460567951202392578125" lon="6.79248151369392871856689453125">
        <ele>1822.5999755859375</ele>
        <time>2026-08-31T05:38:12.000Z</time>
        <extensions>
          <ns3:TrackPointExtension>
            <ns3:hr>152</ns3:hr>
            <ns3:cad>81</ns3:cad>
          </ns3:TrackPointExtension>
        </extensions>
      </trkpt>
      <trkpt lat="44.6754205226898193359375" lon="6.79251126945018768310546875">
        <ele>1822.800048828125</ele>
        <time>2026-08-31T05:38:13.000Z</time>
        <extensions>
          <ns3:TrackPointExtension>
            <ns3:hr>153</ns3:hr>
            <ns3:cad>81</ns3:cad>
          </ns3:TrackPointExtension>
        </extensions>
      </trkpt>
      <trkpt lat="44.6754270605742931365966796875" lon="6.79253750480711460113525390625">
        <ele>1822.800048828125</ele>
        <time>2026-08-31T05:38:14.000Z</time>
        <extensions>
          <ns3:TrackPointExtension>
            <ns3:hr>153</ns3:hr>
            <ns3:cad>81</ns3:cad>
          </ns3:TrackPointExtension>
        </extensions>
      </trkpt>
      <trkpt lat="44.67543250881135463714599609375" lon="6.792557202279567718505859375">
        <ele>1823</ele>
        <time>2026-08-31T05:38:15.000Z</time>
        <extensions>
          <ns3:TrackPointExtension>
            <ns3:hr>154</ns3:hr>
            <ns3:cad>81</ns3:cad>
          </ns3:TrackPointExtension>
        </extensions>
      </trkpt>
      <trkpt lat="44.67544055543839931488037109375" lon="6.79258192889392375946044921875">
        <ele>1823</ele>
        <time>2026-08-31T05:38:16.000Z</time>
        <extensions>
          <ns3:TrackPointExtension>
            <ns3:hr>154</ns3:hr>
            <ns3:cad>81</ns3:cad>
          </ns3:TrackPointExtension>
        </extensions>
      </trkpt>
      <trkpt lat="44.67544692568480968475341796875" lon="6.7926116846501827239990234375">
        <ele>1823</ele>
        <time>2026-08-31T05:38:17.000Z</time>
        <extensions>
          <ns3:TrackPointExtension>
            <ns3:hr>154</ns3:hr>
            <ns3:cad>81</ns3:cad>
          </ns3:TrackPointExtension>
        </extensions>
      </trkpt>
      <trkpt lat="44.6754572354257106781005859375" lon="6.79262937046587467193603515625">
        <ele>1823.199951171875</ele>
        <time>2026-08-31T05:38:18.000Z</time>
        <extensions>
          <ns3:TrackPointExtension>
            <ns3:hr>154</ns3:hr>
            <ns3:cad>80</ns3:cad>
          </ns3:TrackPointExtension>
        </extensions>
      </trkpt>
      <trkpt lat="44.6754666231572628021240234375" lon="6.79265351034700870513916015625">
        <ele>1823.199951171875</ele>
        <time>2026-08-31T05:38:19.000Z</time>
        <extensions>
          <ns3:TrackPointExtension>
            <ns3:hr>155</ns3:hr>
            <ns3:cad>79</ns3:cad>
          </ns3:TrackPointExtension>
        </extensions>
      </trkpt>
      <trkpt lat="44.675476849079132080078125" lon="6.79268485866487026214599609375">
        <ele>1823.4000244140625</ele>
        <time>2026-08-31T05:38:20.000Z</time>
        <extensions>
          <ns3:TrackPointExtension>
            <ns3:hr>155</ns3:hr>
            <ns3:cad>79</ns3:cad>
          </ns3:TrackPointExtension>
        </extensions>
      </trkpt>
      <trkpt lat="44.67548866756260395050048828125" lon="6.79270162247121334075927734375">
        <ele>1823.5999755859375</ele>
        <time>2026-08-31T05:38:21.000Z</time>
        <extensions>
          <ns3:TrackPointExtension>
            <ns3:hr>155</ns3:hr>
            <ns3:cad>80</ns3:cad>
          </ns3:TrackPointExtension>
        </extensions>
      </trkpt>
      <trkpt lat="44.67549855820834636688232421875" lon="6.79272945038974285125732421875">
        <ele>1823.5999755859375</ele>
        <time>2026-08-31T05:38:22.000Z</time>
        <extensions>
          <ns3:TrackPointExtension>
            <ns3:hr>156</ns3:hr>
            <ns3:cad>81</ns3:cad>
          </ns3:TrackPointExtension>
        </extensions>
      </trkpt>
      <trkpt lat="44.6755112148821353912353515625" lon="6.79275727830827236175537109375">
        <ele>1823.800048828125</ele>
        <time>2026-08-31T05:38:23.000Z</time>
        <extensions>
          <ns3:TrackPointExtension>
            <ns3:hr>156</ns3:hr>
            <ns3:cad>81</ns3:cad>
          </ns3:TrackPointExtension>
        </extensions>
      </trkpt>
      <trkpt lat="44.67551934532821178436279296875" lon="6.79277219809591770172119140625">
        <ele>1824</ele>
        <time>2026-08-31T05:38:24.000Z</time>
        <extensions>
          <ns3:TrackPointExtension>
            <ns3:hr>156</ns3:hr>
            <ns3:cad>80</ns3:cad>
          </ns3:TrackPointExtension>
        </extensions>
      </trkpt>
      <trkpt lat="44.67552789486944675445556640625" lon="6.79279482923448085784912109375">
        <ele>1824</ele>
        <time>2026-08-31T05:38:25.000Z</time>
        <extensions>
          <ns3:TrackPointExtension>
            <ns3:hr>156</ns3:hr>
            <ns3:cad>80</ns3:cad>
          </ns3:TrackPointExtension>
        </extensions>
      </trkpt>
      <trkpt lat="44.6755387075245380401611328125" lon="6.79281896911561489105224609375">
        <ele>1824.199951171875</ele>
        <time>2026-08-31T05:38:26.000Z</time>
        <extensions>
          <ns3:TrackPointExtension>
            <ns3:hr>156</ns3:hr>
            <ns3:cad>80</ns3:cad>
          </ns3:TrackPointExtension>
        </extensions>
      </trkpt>
      <trkpt lat="44.67554734088480472564697265625" lon="6.7928353138267993927001953125">
        <ele>1824.4000244140625</ele>
        <time>2026-08-31T05:38:27.000Z</time>
        <extensions>
          <ns3:TrackPointExtension>
            <ns3:hr>157</ns3:hr>
            <ns3:cad>80</ns3:cad>
          </ns3:TrackPointExtension>
        </extensions>
      </trkpt>
      <trkpt lat="44.675554297864437103271484375" lon="6.79285618476569652557373046875">
        <ele>1824.4000244140625</ele>
        <time>2026-08-31T05:38:28.000Z</time>
        <extensions>
          <ns3:TrackPointExtension>
            <ns3:hr>157</ns3:hr>
            <ns3:cad>80</ns3:cad>
          </ns3:TrackPointExtension>
        </extensions>
      </trkpt>
      <trkpt lat="44.675570391118526458740234375" lon="6.79288250394165515899658203125">
        <ele>1824.5999755859375</ele>
        <time>2026-08-31T05:38:29.000Z</time>
        <extensions>
          <ns3:TrackPointExtension>
            <ns3:hr>157</ns3:hr>
            <ns3:cad>79</ns3:cad>
          </ns3:TrackPointExtension>
        </extensions>
      </trkpt>
      <trkpt lat="44.6755816228687763214111328125" lon="6.79290010593831539154052734375">
        <ele>1824.5999755859375</ele>
        <time>2026-08-31T05:38:30.000Z</time>
        <extensions>
          <ns3:TrackPointExtension>
            <ns3:hr>157</ns3:hr>
            <ns3:cad>79</ns3:cad>
          </ns3:TrackPointExtension>
        </extensions>
      </trkpt>
      <trkpt lat="44.67559545300900936126708984375" lon="6.7929244972765445709228515625">
        <ele>1824.800048828125</ele>
        <time>2026-08-31T05:38:31.000Z</time>
        <extensions>
          <ns3:TrackPointExtension>
            <ns3:hr>158</ns3:hr>
            <ns3:cad>79</ns3:cad>
          </ns3:TrackPointExtension>
        </extensions>
      </trkpt>
      <trkpt lat="44.67560685239732265472412109375" lon="6.7929409258067607879638671875">
        <ele>1824.800048828125</ele>
        <time>2026-08-31T05:38:32.000Z</time>
        <extensions>
          <ns3:TrackPointExtension>
            <ns3:hr>158</ns3:hr>
            <ns3:cad>79</ns3:cad>
          </ns3:TrackPointExtension>
        </extensions>
      </trkpt>
      <trkpt lat="44.67561439611017704010009765625" lon="6.79295257665216922760009765625">
        <ele>1825</ele>
        <time>2026-08-31T05:38:33.000Z</time>
        <extensions>
          <ns3:TrackPointExtension>
            <ns3:hr>158</ns3:hr>
            <ns3:cad>79</ns3:cad>
          </ns3:TrackPointExtension>
        </extensions>
      </trkpt>
      <trkpt lat="44.67562294565141201019287109375" lon="6.792961545288562774658203125">
        <ele>1825</ele>
        <time>2026-08-31T05:38:34.000Z</time>
        <extensions>
          <ns3:TrackPointExtension>
            <ns3:hr>158</ns3:hr>
            <ns3:cad>79</ns3:cad>
          </ns3:TrackPointExtension>
        </extensions>
      </trkpt>
      <trkpt lat="44.67562981881201267242431640625" lon="6.79297319613397121429443359375">
        <ele>1825</ele>
        <time>2026-08-31T05:38:35.000Z</time>
        <extensions>
          <ns3:TrackPointExtension>
            <ns3:hr>159</ns3:hr>
            <ns3:cad>79</ns3:cad>
          </ns3:TrackPointExtension>
        </extensions>
      </trkpt>
      <trkpt lat="44.675638787448406219482421875" lon="6.7929878644645214080810546875">
        <ele>1825</ele>
        <time>2026-08-31T05:38:36.000Z</time>
        <extensions>
          <ns3:TrackPointExtension>
            <ns3:hr>159</ns3:hr>
            <ns3:cad>79</ns3:cad>
          </ns3:TrackPointExtension>
        </extensions>
      </trkpt>
      <trkpt lat="44.67564658261835575103759765625" lon="6.79300437681376934051513671875">
        <ele>1825.199951171875</ele>
        <time>2026-08-31T05:38:37.000Z</time>
        <extensions>
          <ns3:TrackPointExtension>
            <ns3:hr>159</ns3:hr>
            <ns3:cad>79</ns3:cad>
          </ns3:TrackPointExtension>
        </extensions>
      </trkpt>
      <trkpt lat="44.67565228231251239776611328125" lon="6.79302181117236614227294921875">
        <ele>1825.199951171875</ele>
        <time>2026-08-31T05:38:38.000Z</time>
        <extensions>
          <ns3:TrackPointExtension>
            <ns3:hr>159</ns3:hr>
            <ns3:cad>64</ns3:cad>
          </ns3:TrackPointExtension>
        </extensions>
      </trkpt>
      <trkpt lat="44.67565831728279590606689453125" lon="6.793037317693233489990234375">
        <ele>1825.199951171875</ele>
        <time>2026-08-31T05:38:39.000Z</time>
        <extensions>
          <ns3:TrackPointExtension>
            <ns3:hr>160</ns3:hr>
            <ns3:cad>62</ns3:cad>
          </ns3:TrackPointExtension>
        </extensions>
      </trkpt>
      <trkpt lat="44.6756647713482379913330078125" lon="6.793051064014434814453125">
        <ele>1825.199951171875</ele>
        <time>2026-08-31T05:38:40.000Z</time>
        <extensions>
          <ns3:TrackPointExtension>
            <ns3:hr>160</ns3:hr>
            <ns3:cad>61</ns3:cad>
          </ns3:TrackPointExtension>
        </extensions>
      </trkpt>
      <trkpt lat="44.67567332088947296142578125" lon="6.79306405596435070037841796875">
        <ele>1825.199951171875</ele>
        <time>2026-08-31T05:38:41.000Z</time>
        <extensions>
          <ns3:TrackPointExtension>
            <ns3:hr>160</ns3:hr>
            <ns3:cad>60</ns3:cad>
          </ns3:TrackPointExtension>
        </extensions>
      </trkpt>
      <trkpt lat="44.6756798587739467620849609375" lon="6.79307880811393260955810546875">
        <ele>1825.199951171875</ele>
        <time>2026-08-31T05:38:42.000Z</time>
        <extensions>
          <ns3:TrackPointExtension>
            <ns3:hr>159</ns3:hr>
            <ns3:cad>60</ns3:cad>
          </ns3:TrackPointExtension>
        </extensions>
      </trkpt>
      <trkpt lat="44.67568564228713512420654296875" lon="6.7930921353399753570556640625">
        <ele>1825.199951171875</ele>
        <time>2026-08-31T05:38:43.000Z</time>
        <extensions>
          <ns3:TrackPointExtension>
            <ns3:hr>159</ns3:hr>
            <ns3:cad>60</ns3:cad>
          </ns3:TrackPointExtension>
        </extensions>
      </trkpt>
      <trkpt lat="44.6756927669048309326171875" lon="6.7931033670902252197265625">
        <ele>1825.4000244140625</ele>
        <time>2026-08-31T05:38:44.000Z</time>
        <extensions>
          <ns3:TrackPointExtension>
            <ns3:hr>159</ns3:hr>
            <ns3:cad>60</ns3:cad>
          </ns3:TrackPointExtension>
        </extensions>
      </trkpt>
      <trkpt lat="44.67570106498897075653076171875" lon="6.7931189574301242828369140625">
        <ele>1825.5999755859375</ele>
        <time>2026-08-31T05:38:45.000Z</time>
        <extensions>
          <ns3:TrackPointExtension>
            <ns3:hr>159</ns3:hr>
            <ns3:cad>61</ns3:cad>
          </ns3:TrackPointExtension>
        </extensions>
      </trkpt>
      <trkpt lat="44.67570978216826915740966796875" lon="6.7931340448558330535888671875">
        <ele>1825.800048828125</ele>
        <time>2026-08-31T05:38:46.000Z</time>
        <extensions>
          <ns3:TrackPointExtension>
            <ns3:hr>159</ns3:hr>
            <ns3:cad>62</ns3:cad>
          </ns3:TrackPointExtension>
        </extensions>
      </trkpt>
      <trkpt lat="44.6757167391479015350341796875" lon="6.7931487970054149627685546875">
        <ele>1825.800048828125</ele>
        <time>2026-08-31T05:38:47.000Z</time>
        <extensions>
          <ns3:TrackPointExtension>
            <ns3:hr>159</ns3:hr>
            <ns3:cad>62</ns3:cad>
          </ns3:TrackPointExtension>
        </extensions>
      </trkpt>
      <trkpt lat="44.67572319321334362030029296875" lon="6.793166063725948333740234375">
        <ele>1826</ele>
        <time>2026-08-31T05:38:48.000Z</time>
        <extensions>
          <ns3:TrackPointExtension>
            <ns3:hr>158</ns3:hr>
            <ns3:cad>62</ns3:cad>
          </ns3:TrackPointExtension>
        </extensions>
      </trkpt>
      <trkpt lat="44.67573040165007114410400390625" lon="6.79318291135132312774658203125">
        <ele>1826</ele>
        <time>2026-08-31T05:38:49.000Z</time>
        <extensions>
          <ns3:TrackPointExtension>
            <ns3:hr>157</ns3:hr>
            <ns3:cad>61</ns3:cad>
          </ns3:TrackPointExtension>
        </extensions>
      </trkpt>
      <trkpt lat="44.67573794536292552947998046875" lon="6.79319833405315876007080078125">
        <ele>1825.800048828125</ele>
        <time>2026-08-31T05:38:50.000Z</time>
        <extensions>
          <ns3:TrackPointExtension>
            <ns3:hr>156</ns3:hr>
            <ns3:cad>61</ns3:cad>
          </ns3:TrackPointExtension>
        </extensions>
      </trkpt>
      <trkpt lat="44.67574431560933589935302734375" lon="6.7932114936411380767822265625">
        <ele>1825.800048828125</ele>
        <time>2026-08-31T05:38:51.000Z</time>
        <extensions>
          <ns3:TrackPointExtension>
            <ns3:hr>155</ns3:hr>
            <ns3:cad>61</ns3:cad>
          </ns3:TrackPointExtension>
        </extensions>
      </trkpt>
      <trkpt lat="44.675751440227031707763671875" lon="6.79322599433362483978271484375">
        <ele>1825.5999755859375</ele>
        <time>2026-08-31T05:38:52.000Z</time>
        <extensions>
          <ns3:TrackPointExtension>
            <ns3:hr>154</ns3:hr>
            <ns3:cad>62</ns3:cad>
          </ns3:TrackPointExtension>
        </extensions>
      </trkpt>
      <trkpt lat="44.67576007358729839324951171875" lon="6.793243847787380218505859375">
        <ele>1825.5999755859375</ele>
        <time>2026-08-31T05:38:53.000Z</time>
        <extensions>
          <ns3:TrackPointExtension>
            <ns3:hr>154</ns3:hr>
            <ns3:cad>62</ns3:cad>
          </ns3:TrackPointExtension>
        </extensions>
      </trkpt>
      <trkpt lat="44.6757680363953113555908203125" lon="6.79326237179338932037353515625">
        <ele>1825.5999755859375</ele>
        <time>2026-08-31T05:38:54.000Z</time>
        <extensions>
          <ns3:TrackPointExtension>
            <ns3:hr>154</ns3:hr>
            <ns3:cad>62</ns3:cad>
          </ns3:TrackPointExtension>
        </extensions>
      </trkpt>
      <trkpt lat="44.67577398754656314849853515625" lon="6.7932825721800327301025390625">
        <ele>1825.800048828125</ele>
        <time>2026-08-31T05:38:55.000Z</time>
        <extensions>
          <ns3:TrackPointExtension>
            <ns3:hr>153</ns3:hr>
            <ns3:cad>62</ns3:cad>
          </ns3:TrackPointExtension>
        </extensions>
      </trkpt>
      <trkpt lat="44.675780273973941802978515625" lon="6.7932991683483123779296875">
        <ele>1826</ele>
        <time>2026-08-31T05:38:56.000Z</time>
        <extensions>
          <ns3:TrackPointExtension>
            <ns3:hr>152</ns3:hr>
            <ns3:cad>62</ns3:cad>
          </ns3:TrackPointExtension>
        </extensions>
      </trkpt>
      <trkpt lat="44.67578723095357418060302734375" lon="6.79331450723111629486083984375">
        <ele>1826.199951171875</ele>
        <time>2026-08-31T05:38:57.000Z</time>
        <extensions>
          <ns3:TrackPointExtension>
            <ns3:hr>151</ns3:hr>
            <ns3:cad>60</ns3:cad>
          </ns3:TrackPointExtension>
        </extensions>
      </trkpt>
      <trkpt lat="44.67579544521868228912353515625" lon="6.79332925938069820404052734375">
        <ele>1826.199951171875</ele>
        <time>2026-08-31T05:38:58.000Z</time>
        <extensions>
          <ns3:TrackPointExtension>
            <ns3:hr>150</ns3:hr>
            <ns3:cad>59</ns3:cad>
          </ns3:TrackPointExtension>
        </extensions>
      </trkpt>
      <trkpt lat="44.6758025698363780975341796875" lon="6.7933419160544872283935546875">
        <ele>1826.199951171875</ele>
        <time>2026-08-31T05:38:59.000Z</time>
        <extensions>
          <ns3:TrackPointExtension>
            <ns3:hr>150</ns3:hr>
            <ns3:cad>59</ns3:cad>
          </ns3:TrackPointExtension>
        </extensions>
      </trkpt>
      <trkpt lat="44.67580902390182018280029296875" lon="6.79335775785148143768310546875">
        <ele>1826.199951171875</ele>
        <time>2026-08-31T05:39:00.000Z</time>
        <extensions>
          <ns3:TrackPointExtension>
            <ns3:hr>149</ns3:hr>
            <ns3:cad>59</ns3:cad>
          </ns3:TrackPointExtension>
        </extensions>
      </trkpt>
      <trkpt lat="44.67581606470048427581787109375" lon="6.7933700792491436004638671875">
        <ele>1826.199951171875</ele>
        <time>2026-08-31T05:39:01.000Z</time>
        <extensions>
          <ns3:TrackPointExtension>
            <ns3:hr>149</ns3:hr>
            <ns3:cad>59</ns3:cad>
          </ns3:TrackPointExtension>
        </extensions>
      </trkpt>
      <trkpt lat="44.67582612298429012298583984375" lon="6.79338164627552032470703125">
        <ele>1826</ele>
        <time>2026-08-31T05:39:02.000Z</time>
        <extensions>
          <ns3:TrackPointExtension>
            <ns3:hr>149</ns3:hr>
            <ns3:cad>60</ns3:cad>
          </ns3:TrackPointExtension>
        </extensions>
      </trkpt>
      <trkpt lat="44.67583425343036651611328125" lon="6.7933965660631656646728515625">
        <ele>1826</ele>
        <time>2026-08-31T05:39:03.000Z</time>
        <extensions>
          <ns3:TrackPointExtension>
            <ns3:hr>149</ns3:hr>
            <ns3:cad>60</ns3:cad>
          </ns3:TrackPointExtension>
        </extensions>
      </trkpt>
      <trkpt lat="44.67584087513387203216552734375" lon="6.79341056384146213531494140625">
        <ele>1826</ele>
        <time>2026-08-31T05:39:04.000Z</time>
        <extensions>
          <ns3:TrackPointExtension>
            <ns3:hr>149</ns3:hr>
            <ns3:cad>60</ns3:cad>
          </ns3:TrackPointExtension>
        </extensions>
      </trkpt>
      <trkpt lat="44.67584766447544097900390625" lon="6.793421208858489990234375">
        <ele>1826.199951171875</ele>
        <time>2026-08-31T05:39:05.000Z</time>
        <extensions>
          <ns3:TrackPointExtension>
            <ns3:hr>149</ns3:hr>
            <ns3:cad>60</ns3:cad>
          </ns3:TrackPointExtension>
        </extensions>
      </trkpt>
      <trkpt lat="44.6758531965315341949462890625" lon="6.79342992603778839111328125">
        <ele>1826.199951171875</ele>
        <time>2026-08-31T05:39:06.000Z</time>
        <extensions>
          <ns3:TrackPointExtension>
            <ns3:hr>149</ns3:hr>
            <ns3:cad>59</ns3:cad>
          </ns3:TrackPointExtension>
        </extensions>
      </trkpt>
      <trkpt lat="44.6758612431585788726806640625" lon="6.7934440076351165771484375">
        <ele>1826.4000244140625</ele>
        <time>2026-08-31T05:39:07.000Z</time>
        <extensions>
          <ns3:TrackPointExtension>
            <ns3:hr>148</ns3:hr>
            <ns3:cad>59</ns3:cad>
          </ns3:TrackPointExtension>
        </extensions>
      </trkpt>
      <trkpt lat="44.6758692897856235504150390625" lon="6.7934602685272693634033203125">
        <ele>1826.4000244140625</ele>
        <time>2026-08-31T05:39:08.000Z</time>
        <extensions>
          <ns3:TrackPointExtension>
            <ns3:hr>148</ns3:hr>
            <ns3:cad>61</ns3:cad>
          </ns3:TrackPointExtension>
        </extensions>
      </trkpt>
      <trkpt lat="44.6758770011365413665771484375" lon="6.7934763617813587188720703125">
        <ele>1826.4000244140625</ele>
        <time>2026-08-31T05:39:09.000Z</time>
        <extensions>
          <ns3:TrackPointExtension>
            <ns3:hr>148</ns3:hr>
            <ns3:cad>61</ns3:cad>
          </ns3:TrackPointExtension>
        </extensions>
      </trkpt>
      <trkpt lat="44.6758853830397129058837890625" lon="6.79349103011190891265869140625">
        <ele>1826.5999755859375</ele>
        <time>2026-08-31T05:39:10.000Z</time>
        <extensions>
          <ns3:TrackPointExtension>
            <ns3:hr>148</ns3:hr>
            <ns3:cad>62</ns3:cad>
          </ns3:TrackPointExtension>
        </extensions>
      </trkpt>
      <trkpt lat="44.675892926752567291259765625" lon="6.79350494407117366790771484375">
        <ele>1826.5999755859375</ele>
        <time>2026-08-31T05:39:11.000Z</time>
        <extensions>
          <ns3:TrackPointExtension>
            <ns3:hr>148</ns3:hr>
            <ns3:cad>62</ns3:cad>
          </ns3:TrackPointExtension>
        </extensions>
      </trkpt>
      <trkpt lat="44.67590122483670711517333984375" lon="6.7935219593346118927001953125">
        <ele>1826.4000244140625</ele>
        <time>2026-08-31T05:39:12.000Z</time>
        <extensions>
          <ns3:TrackPointExtension>
            <ns3:hr>148</ns3:hr>
            <ns3:cad>62</ns3:cad>
          </ns3:TrackPointExtension>
        </extensions>
      </trkpt>
      <trkpt lat="44.67590793035924434661865234375" lon="6.7935353703796863555908203125">
        <ele>1826.4000244140625</ele>
        <time>2026-08-31T05:39:13.000Z</time>
        <extensions>
          <ns3:TrackPointExtension>
            <ns3:hr>148</ns3:hr>
            <ns3:cad>62</ns3:cad>
          </ns3:TrackPointExtension>
        </extensions>
      </trkpt>
      <trkpt lat="44.67591647990047931671142578125" lon="6.7935517989099025726318359375">
        <ele>1826.5999755859375</ele>
        <time>2026-08-31T05:39:14.000Z</time>
        <extensions>
          <ns3:TrackPointExtension>
            <ns3:hr>148</ns3:hr>
            <ns3:cad>61</ns3:cad>
          </ns3:TrackPointExtension>
        </extensions>
      </trkpt>
      <trkpt lat="44.67592410743236541748046875" lon="6.7935668863356113433837890625">
        <ele>1826.5999755859375</ele>
        <time>2026-08-31T05:39:15.000Z</time>
        <extensions>
          <ns3:TrackPointExtension>
            <ns3:hr>147</ns3:hr>
            <ns3:cad>61</ns3:cad>
          </ns3:TrackPointExtension>
        </extensions>
      </trkpt>
      <trkpt lat="44.67593089677393436431884765625" lon="6.793579794466495513916015625">
        <ele>1826.5999755859375</ele>
        <time>2026-08-31T05:39:16.000Z</time>
        <extensions>
          <ns3:TrackPointExtension>
            <ns3:hr>148</ns3:hr>
            <ns3:cad>62</ns3:cad>
          </ns3:TrackPointExtension>
        </extensions>
      </trkpt>
      <trkpt lat="44.6759380213916301727294921875" lon="6.79359312169253826141357421875">
        <ele>1826.800048828125</ele>
        <time>2026-08-31T05:39:17.000Z</time>
        <extensions>
          <ns3:TrackPointExtension>
            <ns3:hr>148</ns3:hr>
            <ns3:cad>62</ns3:cad>
          </ns3:TrackPointExtension>
        </extensions>
      </trkpt>
      <trkpt lat="44.67594212852418422698974609375" lon="6.79360385052859783172607421875">
        <ele>1827</ele>
        <time>2026-08-31T05:39:18.000Z</time>
        <extensions>
          <ns3:TrackPointExtension>
            <ns3:hr>147</ns3:hr>
            <ns3:cad>62</ns3:cad>
          </ns3:TrackPointExtension>
        </extensions>
      </trkpt>
      <trkpt lat="44.6759500913321971893310546875" lon="6.79361809976398944854736328125">
        <ele>1827</ele>
        <time>2026-08-31T05:39:19.000Z</time>
        <extensions>
          <ns3:TrackPointExtension>
            <ns3:hr>147</ns3:hr>
            <ns3:cad>60</ns3:cad>
          </ns3:TrackPointExtension>
        </extensions>
      </trkpt>
      <trkpt lat="44.67595905996859073638916015625" lon="6.7936302535235881805419921875">
        <ele>1827</ele>
        <time>2026-08-31T05:39:20.000Z</time>
        <extensions>
          <ns3:TrackPointExtension>
            <ns3:hr>147</ns3:hr>
            <ns3:cad>60</ns3:cad>
          </ns3:TrackPointExtension>
        </extensions>
      </trkpt>
      <trkpt lat="44.675967693328857421875" lon="6.79364777170121669769287109375">
        <ele>1827.199951171875</ele>
        <time>2026-08-31T05:39:21.000Z</time>
        <extensions>
          <ns3:TrackPointExtension>
            <ns3:hr>148</ns3:hr>
            <ns3:cad>60</ns3:cad>
          </ns3:TrackPointExtension>
        </extensions>
      </trkpt>
      <trkpt lat="44.67597817070782184600830078125" lon="6.7936641164124011993408203125">
        <ele>1827.199951171875</ele>
        <time>2026-08-31T05:39:22.000Z</time>
        <extensions>
          <ns3:TrackPointExtension>
            <ns3:hr>147</ns3:hr>
            <ns3:cad>60</ns3:cad>
          </ns3:TrackPointExtension>
        </extensions>
      </trkpt>
      <trkpt lat="44.67598705552518367767333984375" lon="6.7936815507709980010986328125">
        <ele>1827.199951171875</ele>
        <time>2026-08-31T05:39:23.000Z</time>
        <extensions>
          <ns3:TrackPointExtension>
            <ns3:hr>147</ns3:hr>
            <ns3:cad>63</ns3:cad>
          </ns3:TrackPointExtension>
        </extensions>
      </trkpt>
      <trkpt lat="44.67599694617092609405517578125" lon="6.79369756020605564117431640625">
        <ele>1827.199951171875</ele>
        <time>2026-08-31T05:39:24.000Z</time>
        <extensions>
          <ns3:TrackPointExtension>
            <ns3:hr>147</ns3:hr>
            <ns3:cad>63</ns3:cad>
          </ns3:TrackPointExtension>
        </extensions>
      </trkpt>
      <trkpt lat="44.67600666917860507965087890625" lon="6.7937130667269229888916015625">
        <ele>1827</ele>
        <time>2026-08-31T05:39:25.000Z</time>
        <extensions>
          <ns3:TrackPointExtension>
            <ns3:hr>148</ns3:hr>
            <ns3:cad>63</ns3:cad>
          </ns3:TrackPointExtension>
        </extensions>
      </trkpt>
      <trkpt lat="44.67601655982434749603271484375" lon="6.79372689686715602874755859375">
        <ele>1827</ele>
        <time>2026-08-31T05:39:26.000Z</time>
        <extensions>
          <ns3:TrackPointExtension>
            <ns3:hr>149</ns3:hr>
            <ns3:cad>63</ns3:cad>
          </ns3:TrackPointExtension>
        </extensions>
      </trkpt>
      <trkpt lat="44.67602225951850414276123046875" lon="6.793742738664150238037109375">
        <ele>1827.199951171875</ele>
        <time>2026-08-31T05:39:27.000Z</time>
        <extensions>
          <ns3:TrackPointExtension>
            <ns3:hr>150</ns3:hr>
            <ns3:cad>62</ns3:cad>
          </ns3:TrackPointExtension>
        </extensions>
      </trkpt>
      <trkpt lat="44.67602913267910480499267578125" lon="6.79375723935663700103759765625">
        <ele>1827.199951171875</ele>
        <time>2026-08-31T05:39:28.000Z</time>
        <extensions>
          <ns3:TrackPointExtension>
            <ns3:hr>150</ns3:hr>
            <ns3:cad>62</ns3:cad>
          </ns3:TrackPointExtension>
        </extensions>
      </trkpt>
      <trkpt lat="44.67603676021099090576171875" lon="6.79377190768718719482421875">
        <ele>1827.199951171875</ele>
        <time>2026-08-31T05:39:29.000Z</time>
        <extensions>
          <ns3:TrackPointExtension>
            <ns3:hr>150</ns3:hr>
            <ns3:cad>62</ns3:cad>
          </ns3:TrackPointExtension>
        </extensions>
      </trkpt>
      <trkpt lat="44.676045477390289306640625" lon="6.79378808476030826568603515625">
        <ele>1827.4000244140625</ele>
        <time>2026-08-31T05:39:30.000Z</time>
        <extensions>
          <ns3:TrackPointExtension>
            <ns3:hr>150</ns3:hr>
            <ns3:cad>63</ns3:cad>
          </ns3:TrackPointExtension>
        </extensions>
      </trkpt>
      <trkpt lat="44.6760533563792705535888671875" lon="6.79380300454795360565185546875">
        <ele>1827.4000244140625</ele>
        <time>2026-08-31T05:39:31.000Z</time>
        <extensions>
          <ns3:TrackPointExtension>
            <ns3:hr>149</ns3:hr>
            <ns3:cad>63</ns3:cad>
          </ns3:TrackPointExtension>
        </extensions>
      </trkpt>
      <trkpt lat="44.67606031335890293121337890625" lon="6.7938159964978694915771484375">
        <ele>1827.5999755859375</ele>
        <time>2026-08-31T05:39:32.000Z</time>
        <extensions>
          <ns3:TrackPointExtension>
            <ns3:hr>149</ns3:hr>
            <ns3:cad>63</ns3:cad>
          </ns3:TrackPointExtension>
        </extensions>
      </trkpt>
      <trkpt lat="44.6760664321482181549072265625" lon="6.79383217357099056243896484375">
        <ele>1827.5999755859375</ele>
        <time>2026-08-31T05:39:33.000Z</time>
        <extensions>
          <ns3:TrackPointExtension>
            <ns3:hr>149</ns3:hr>
            <ns3:cad>62</ns3:cad>
          </ns3:TrackPointExtension>
        </extensions>
      </trkpt>
      <trkpt lat="44.67607489787042140960693359375" lon="6.79384608753025531768798828125">
        <ele>1827.5999755859375</ele>
        <time>2026-08-31T05:39:34.000Z</time>
        <extensions>
          <ns3:TrackPointExtension>
            <ns3:hr>148</ns3:hr>
            <ns3:cad>62</ns3:cad>
          </ns3:TrackPointExtension>
        </extensions>
      </trkpt>
      <trkpt lat="44.6760818548500537872314453125" lon="6.7938602529466152191162109375">
        <ele>1827.800048828125</ele>
        <time>2026-08-31T05:39:35.000Z</time>
        <extensions>
          <ns3:TrackPointExtension>
            <ns3:hr>148</ns3:hr>
            <ns3:cad>62</ns3:cad>
          </ns3:TrackPointExtension>
        </extensions>
      </trkpt>
      <trkpt lat="44.676088728010654449462890625" lon="6.7938743345439434051513671875">
        <ele>1827.800048828125</ele>
        <time>2026-08-31T05:39:36.000Z</time>
        <extensions>
          <ns3:TrackPointExtension>
            <ns3:hr>148</ns3:hr>
            <ns3:cad>62</ns3:cad>
          </ns3:TrackPointExtension>
        </extensions>
      </trkpt>
      <trkpt lat="44.6760962717235088348388671875" lon="6.7938907630741596221923828125">
        <ele>1827.5999755859375</ele>
        <time>2026-08-31T05:39:37.000Z</time>
        <extensions>
          <ns3:TrackPointExtension>
            <ns3:hr>149</ns3:hr>
            <ns3:cad>62</ns3:cad>
          </ns3:TrackPointExtension>
        </extensions>
      </trkpt>
      <trkpt lat="44.67610339634120464324951171875" lon="6.793905012309551239013671875">
        <ele>1827.5999755859375</ele>
        <time>2026-08-31T05:39:38.000Z</time>
        <extensions>
          <ns3:TrackPointExtension>
            <ns3:hr>149</ns3:hr>
            <ns3:cad>62</ns3:cad>
          </ns3:TrackPointExtension>
        </extensions>
      </trkpt>
      <trkpt lat="44.67611026950180530548095703125" lon="6.793919093906879425048828125">
        <ele>1827.800048828125</ele>
        <time>2026-08-31T05:39:39.000Z</time>
        <extensions>
          <ns3:TrackPointExtension>
            <ns3:hr>148</ns3:hr>
            <ns3:cad>62</ns3:cad>
          </ns3:TrackPointExtension>
        </extensions>
      </trkpt>
      <trkpt lat="44.67611596919596195220947265625" lon="6.79393376223742961883544921875">
        <ele>1827.800048828125</ele>
        <time>2026-08-31T05:39:40.000Z</time>
        <extensions>
          <ns3:TrackPointExtension>
            <ns3:hr>148</ns3:hr>
            <ns3:cad>62</ns3:cad>
          </ns3:TrackPointExtension>
        </extensions>
      </trkpt>
      <trkpt lat="44.6761220879852771759033203125" lon="6.79394817911088466644287109375">
        <ele>1827.800048828125</ele>
        <time>2026-08-31T05:39:41.000Z</time>
        <extensions>
          <ns3:TrackPointExtension>
            <ns3:hr>148</ns3:hr>
            <ns3:cad>62</ns3:cad>
          </ns3:TrackPointExtension>
        </extensions>
      </trkpt>
      <trkpt lat="44.67612988315522670745849609375" lon="6.7939631827175617218017578125">
        <ele>1828</ele>
        <time>2026-08-31T05:39:42.000Z</time>
        <extensions>
          <ns3:TrackPointExtension>
            <ns3:hr>147</ns3:hr>
            <ns3:cad>61</ns3:cad>
          </ns3:TrackPointExtension>
        </extensions>
      </trkpt>
      <trkpt lat="44.67613734304904937744140625" lon="6.79397919215261936187744140625">
        <ele>1828</ele>
        <time>2026-08-31T05:39:43.000Z</time>
        <extensions>
          <ns3:TrackPointExtension>
            <ns3:hr>146</ns3:hr>
            <ns3:cad>61</ns3:cad>
          </ns3:TrackPointExtension>
        </extensions>
      </trkpt>
      <trkpt lat="44.67614564113318920135498046875" lon="6.7939946986734867095947265625">
        <ele>1828.199951171875</ele>
        <time>2026-08-31T05:39:44.000Z</time>
        <extensions>
          <ns3:TrackPointExtension>
            <ns3:hr>145</ns3:hr>
            <ns3:cad>61</ns3:cad>
          </ns3:TrackPointExtension>
        </extensions>
      </trkpt>
      <trkpt lat="44.67615335248410701751708984375" lon="6.79400769062340259552001953125">
        <ele>1828.199951171875</ele>
        <time>2026-08-31T05:39:45.000Z</time>
        <extensions>
          <ns3:TrackPointExtension>
            <ns3:hr>144</ns3:hr>
            <ns3:cad>61</ns3:cad>
          </ns3:TrackPointExtension>
        </extensions>
      </trkpt>
      <trkpt lat="44.6761616505682468414306640625" lon="6.79402227513492107391357421875">
        <ele>1828.199951171875</ele>
        <time>2026-08-31T05:39:46.000Z</time>
        <extensions>
          <ns3:TrackPointExtension>
            <ns3:hr>143</ns3:hr>
            <ns3:cad>61</ns3:cad>
          </ns3:TrackPointExtension>
        </extensions>
      </trkpt>
      <trkpt lat="44.67616818845272064208984375" lon="6.79403803311288356781005859375">
        <ele>1828.199951171875</ele>
        <time>2026-08-31T05:39:47.000Z</time>
        <extensions>
          <ns3:TrackPointExtension>
            <ns3:hr>143</ns3:hr>
            <ns3:cad>61</ns3:cad>
          </ns3:TrackPointExtension>
        </extensions>
      </trkpt>
      <trkpt lat="44.6761740557849407196044921875" lon="6.7940513603389263153076171875">
        <ele>1828.199951171875</ele>
        <time>2026-08-31T05:39:48.000Z</time>
        <extensions>
          <ns3:TrackPointExtension>
            <ns3:hr>143</ns3:hr>
            <ns3:cad>62</ns3:cad>
          </ns3:TrackPointExtension>
        </extensions>
      </trkpt>
      <trkpt lat="44.67618034221231937408447265625" lon="6.79406502284109592437744140625">
        <ele>1828.199951171875</ele>
        <time>2026-08-31T05:39:49.000Z</time>
        <extensions>
          <ns3:TrackPointExtension>
            <ns3:hr>142</ns3:hr>
            <ns3:cad>62</ns3:cad>
          </ns3:TrackPointExtension>
        </extensions>
      </trkpt>
      <trkpt lat="44.6761884726583957672119140625" lon="6.79408111609518527984619140625">
        <ele>1828.199951171875</ele>
        <time>2026-08-31T05:39:50.000Z</time>
        <extensions>
          <ns3:TrackPointExtension>
            <ns3:hr>142</ns3:hr>
            <ns3:cad>62</ns3:cad>
          </ns3:TrackPointExtension>
        </extensions>
      </trkpt>
      <trkpt lat="44.67619626782834529876708984375" lon="6.7940966226160526275634765625">
        <ele>1828.199951171875</ele>
        <time>2026-08-31T05:39:51.000Z</time>
        <extensions>
          <ns3:TrackPointExtension>
            <ns3:hr>142</ns3:hr>
            <ns3:cad>62</ns3:cad>
          </ns3:TrackPointExtension>
        </extensions>
      </trkpt>
      <trkpt lat="44.67620314098894596099853515625" lon="6.79411363787949085235595703125">
        <ele>1828.199951171875</ele>
        <time>2026-08-31T05:39:52.000Z</time>
        <extensions>
          <ns3:TrackPointExtension>
            <ns3:hr>141</ns3:hr>
            <ns3:cad>60</ns3:cad>
          </ns3:TrackPointExtension>
        </extensions>
      </trkpt>
      <trkpt lat="44.67620967887341976165771484375" lon="6.794128976762294769287109375">
        <ele>1828.199951171875</ele>
        <time>2026-08-31T05:39:53.000Z</time>
        <extensions>
          <ns3:TrackPointExtension>
            <ns3:hr>141</ns3:hr>
            <ns3:cad>60</ns3:cad>
          </ns3:TrackPointExtension>
        </extensions>
      </trkpt>
      <trkpt lat="44.67621688731014728546142578125" lon="6.79414465092122554779052734375">
        <ele>1828.199951171875</ele>
        <time>2026-08-31T05:39:54.000Z</time>
        <extensions>
          <ns3:TrackPointExtension>
            <ns3:hr>141</ns3:hr>
            <ns3:cad>60</ns3:cad>
          </ns3:TrackPointExtension>
        </extensions>
      </trkpt>
      <trkpt lat="44.67622241936624050140380859375" lon="6.7941620014607906341552734375">
        <ele>1828.4000244140625</ele>
        <time>2026-08-31T05:39:55.000Z</time>
        <extensions>
          <ns3:TrackPointExtension>
            <ns3:hr>141</ns3:hr>
            <ns3:cad>60</ns3:cad>
          </ns3:TrackPointExtension>
        </extensions>
      </trkpt>
      <trkpt lat="44.6762293763458728790283203125" lon="6.79417784325778484344482421875">
        <ele>1828.4000244140625</ele>
        <time>2026-08-31T05:39:56.000Z</time>
        <extensions>
          <ns3:TrackPointExtension>
            <ns3:hr>140</ns3:hr>
            <ns3:cad>61</ns3:cad>
          </ns3:TrackPointExtension>
        </extensions>
      </trkpt>
      <trkpt lat="44.6762370876967906951904296875" lon="6.79419460706412792205810546875">
        <ele>1828.4000244140625</ele>
        <time>2026-08-31T05:39:57.000Z</time>
        <extensions>
          <ns3:TrackPointExtension>
            <ns3:hr>140</ns3:hr>
            <ns3:cad>61</ns3:cad>
          </ns3:TrackPointExtension>
        </extensions>
      </trkpt>
      <trkpt lat="44.67624471522867679595947265625" lon="6.79420910775661468505859375">
        <ele>1828.5999755859375</ele>
        <time>2026-08-31T05:39:58.000Z</time>
        <extensions>
          <ns3:TrackPointExtension>
            <ns3:hr>140</ns3:hr>
            <ns3:cad>62</ns3:cad>
          </ns3:TrackPointExtension>
        </extensions>
      </trkpt>
      <trkpt lat="44.67625343240797519683837890625" lon="6.794223524630069732666015625">
        <ele>1828.5999755859375</ele>
        <time>2026-08-31T05:39:59.000Z</time>
        <extensions>
          <ns3:TrackPointExtension>
            <ns3:hr>140</ns3:hr>
            <ns3:cad>62</ns3:cad>
          </ns3:TrackPointExtension>
        </extensions>
      </trkpt>
      <trkpt lat="44.67626114375889301300048828125" lon="6.79423836059868335723876953125">
        <ele>1828.5999755859375</ele>
        <time>2026-08-31T05:40:00.000Z</time>
        <extensions>
          <ns3:TrackPointExtension>
            <ns3:hr>139</ns3:hr>
            <ns3:cad>61</ns3:cad>
          </ns3:TrackPointExtension>
        </extensions>
      </trkpt>
      <trkpt lat="44.6762712858617305755615234375" lon="6.79425344802439212799072265625">
        <ele>1828.5999755859375</ele>
        <time>2026-08-31T05:40:01.000Z</time>
        <extensions>
          <ns3:TrackPointExtension>
            <ns3:hr>139</ns3:hr>
            <ns3:cad>61</ns3:cad>
          </ns3:TrackPointExtension>
        </extensions>
      </trkpt>
      <trkpt lat="44.6762803383171558380126953125" lon="6.7942729778587818145751953125">
        <ele>1828.800048828125</ele>
        <time>2026-08-31T05:40:02.000Z</time>
        <extensions>
          <ns3:TrackPointExtension>
            <ns3:hr>139</ns3:hr>
            <ns3:cad>61</ns3:cad>
          </ns3:TrackPointExtension>
        </extensions>
      </trkpt>
      <trkpt lat="44.67628888785839080810546875" lon="6.79428756237030029296875">
        <ele>1828.800048828125</ele>
        <time>2026-08-31T05:40:03.000Z</time>
        <extensions>
          <ns3:TrackPointExtension>
            <ns3:hr>139</ns3:hr>
            <ns3:cad>61</ns3:cad>
          </ns3:TrackPointExtension>
        </extensions>
      </trkpt>
      <trkpt lat="44.67629768885672092437744140625" lon="6.7943028174340724945068359375">
        <ele>1828.800048828125</ele>
        <time>2026-08-31T05:40:04.000Z</time>
        <extensions>
          <ns3:TrackPointExtension>
            <ns3:hr>138</ns3:hr>
            <ns3:cad>61</ns3:cad>
          </ns3:TrackPointExtension>
        </extensions>
      </trkpt>
      <trkpt lat="44.6763058193027973175048828125" lon="6.794317066669464111328125">
        <ele>1829</ele>
        <time>2026-08-31T05:40:05.000Z</time>
        <extensions>
          <ns3:TrackPointExtension>
            <ns3:hr>138</ns3:hr>
            <ns3:cad>61</ns3:cad>
          </ns3:TrackPointExtension>
        </extensions>
      </trkpt>
      <trkpt lat="44.6763150393962860107421875" lon="6.794334836304187774658203125">
        <ele>1829</ele>
        <time>2026-08-31T05:40:06.000Z</time>
        <extensions>
          <ns3:TrackPointExtension>
            <ns3:hr>138</ns3:hr>
            <ns3:cad>61</ns3:cad>
          </ns3:TrackPointExtension>
        </extensions>
      </trkpt>
      <trkpt lat="44.67632316984236240386962890625" lon="6.7943507619202136993408203125">
        <ele>1829</ele>
        <time>2026-08-31T05:40:07.000Z</time>
        <extensions>
          <ns3:TrackPointExtension>
            <ns3:hr>138</ns3:hr>
            <ns3:cad>61</ns3:cad>
          </ns3:TrackPointExtension>
        </extensions>
      </trkpt>
      <trkpt lat="44.6763299591839313507080078125" lon="6.7943668551743030548095703125">
        <ele>1829</ele>
        <time>2026-08-31T05:40:08.000Z</time>
        <extensions>
          <ns3:TrackPointExtension>
            <ns3:hr>138</ns3:hr>
            <ns3:cad>61</ns3:cad>
          </ns3:TrackPointExtension>
        </extensions>
      </trkpt>
      <trkpt lat="44.67633641324937343597412109375" lon="6.7943854629993438720703125">
        <ele>1829.199951171875</ele>
        <time>2026-08-31T05:40:09.000Z</time>
        <extensions>
          <ns3:TrackPointExtension>
            <ns3:hr>138</ns3:hr>
            <ns3:cad>61</ns3:cad>
          </ns3:TrackPointExtension>
        </extensions>
      </trkpt>
      <trkpt lat="44.67634010128676891326904296875" lon="6.79440583102405071258544921875">
        <ele>1829.199951171875</ele>
        <time>2026-08-31T05:40:10.000Z</time>
        <extensions>
          <ns3:TrackPointExtension>
            <ns3:hr>138</ns3:hr>
            <ns3:cad>61</ns3:cad>
          </ns3:TrackPointExtension>
        </extensions>
      </trkpt>
      <trkpt lat="44.67634119093418121337890625" lon="6.79442636668682098388671875">
        <ele>1829.4000244140625</ele>
        <time>2026-08-31T05:40:11.000Z</time>
        <extensions>
          <ns3:TrackPointExtension>
            <ns3:hr>139</ns3:hr>
            <ns3:cad>15</ns3:cad>
          </ns3:TrackPointExtension>
        </extensions>
      </trkpt>
      <trkpt lat="44.676342867314815521240234375" lon="6.7944432981312274932861328125">
        <ele>1829.4000244140625</ele>
        <time>2026-08-31T05:40:12.000Z</time>
        <extensions>
          <ns3:TrackPointExtension>
            <ns3:hr>138</ns3:hr>
            <ns3:cad>15</ns3:cad>
          </ns3:TrackPointExtension>
        </extensions>
      </trkpt>
      <trkpt lat="44.67634479515254497528076171875" lon="6.79446123540401458740234375">
        <ele>1829.4000244140625</ele>
        <time>2026-08-31T05:40:13.000Z</time>
        <extensions>
          <ns3:TrackPointExtension>
            <ns3:hr>138</ns3:hr>
            <ns3:cad>15</ns3:cad>
          </ns3:TrackPointExtension>
        </extensions>
      </trkpt>
      <trkpt lat="44.67634747736155986785888671875" lon="6.7944758199155330657958984375">
        <ele>1829.5999755859375</ele>
        <time>2026-08-31T05:40:14.000Z</time>
        <extensions>
          <ns3:TrackPointExtension>
            <ns3:hr>139</ns3:hr>
            <ns3:cad>0</ns3:cad>
          </ns3:TrackPointExtension>
        </extensions>
      </trkpt>
      <trkpt lat="44.67634915374219417572021484375" lon="6.794492416083812713623046875">
        <ele>1829.5999755859375</ele>
        <time>2026-08-31T05:40:15.000Z</time>
        <extensions>
          <ns3:TrackPointExtension>
            <ns3:hr>138</ns3:hr>
            <ns3:cad>0</ns3:cad>
          </ns3:TrackPointExtension>
        </extensions>
      </trkpt>
      <trkpt lat="44.6763525903224945068359375" lon="6.79451219737529754638671875">
        <ele>1829.5999755859375</ele>
        <time>2026-08-31T05:40:16.000Z</time>
        <extensions>
          <ns3:TrackPointExtension>
            <ns3:hr>138</ns3:hr>
            <ns3:cad>0</ns3:cad>
          </ns3:TrackPointExtension>
        </extensions>
      </trkpt>
      <trkpt lat="44.6763571165502071380615234375" lon="6.79452703334391117095947265625">
        <ele>1829.5999755859375</ele>
        <time>2026-08-31T05:40:17.000Z</time>
        <extensions>
          <ns3:TrackPointExtension>
            <ns3:hr>139</ns3:hr>
            <ns3:cad>0</ns3:cad>
          </ns3:TrackPointExtension>
        </extensions>
      </trkpt>
      <trkpt lat="44.67636172659695148468017578125" lon="6.7945442162454128265380859375">
        <ele>1829.800048828125</ele>
        <time>2026-08-31T05:40:18.000Z</time>
        <extensions>
          <ns3:TrackPointExtension>
            <ns3:hr>139</ns3:hr>
            <ns3:cad>0</ns3:cad>
          </ns3:TrackPointExtension>
        </extensions>
      </trkpt>
      <trkpt lat="44.67636709101498126983642578125" lon="6.794562824070453643798828125">
        <ele>1829.800048828125</ele>
        <time>2026-08-31T05:40:19.000Z</time>
        <extensions>
          <ns3:TrackPointExtension>
            <ns3:hr>139</ns3:hr>
            <ns3:cad>0</ns3:cad>
          </ns3:TrackPointExtension>
        </extensions>
      </trkpt>
      <trkpt lat="44.67637228779494762420654296875" lon="6.79458017461001873016357421875">
        <ele>1829.800048828125</ele>
        <time>2026-08-31T05:40:20.000Z</time>
        <extensions>
          <ns3:TrackPointExtension>
            <ns3:hr>138</ns3:hr>
            <ns3:cad>0</ns3:cad>
          </ns3:TrackPointExtension>
        </extensions>
      </trkpt>
      <trkpt lat="44.676383771002292633056640625" lon="6.7945935018360614776611328125">
        <ele>1829.800048828125</ele>
        <time>2026-08-31T05:40:21.000Z</time>
        <extensions>
          <ns3:TrackPointExtension>
            <ns3:hr>139</ns3:hr>
            <ns3:cad>0</ns3:cad>
          </ns3:TrackPointExtension>
        </extensions>
      </trkpt>
      <trkpt lat="44.67639072798192501068115234375" lon="6.79460850544273853302001953125">
        <ele>1829.800048828125</ele>
        <time>2026-08-31T05:40:22.000Z</time>
        <extensions>
          <ns3:TrackPointExtension>
            <ns3:hr>139</ns3:hr>
            <ns3:cad>0</ns3:cad>
          </ns3:TrackPointExtension>
        </extensions>
      </trkpt>
      <trkpt lat="44.6763980202376842498779296875" lon="6.794621162116527557373046875">
        <ele>1829.800048828125</ele>
        <time>2026-08-31T05:40:23.000Z</time>
        <extensions>
          <ns3:TrackPointExtension>
            <ns3:hr>140</ns3:hr>
            <ns3:cad>0</ns3:cad>
          </ns3:TrackPointExtension>
        </extensions>
      </trkpt>
      <trkpt lat="44.67640095390379428863525390625" lon="6.79463666863739490509033203125">
        <ele>1830</ele>
        <time>2026-08-31T05:40:24.000Z</time>
        <extensions>
          <ns3:TrackPointExtension>
            <ns3:hr>140</ns3:hr>
            <ns3:cad>0</ns3:cad>
          </ns3:TrackPointExtension>
        </extensions>
      </trkpt>
      <trkpt lat="44.676409251987934112548828125" lon="6.7946535162627696990966796875">
        <ele>1830</ele>
        <time>2026-08-31T05:40:25.000Z</time>
        <extensions>
          <ns3:TrackPointExtension>
            <ns3:hr>140</ns3:hr>
            <ns3:cad>0</ns3:cad>
          </ns3:TrackPointExtension>
        </extensions>
      </trkpt>
      <trkpt lat="44.6764134429395198822021484375" lon="6.794672124087810516357421875">
        <ele>1830</ele>
        <time>2026-08-31T05:40:26.000Z</time>
        <extensions>
          <ns3:TrackPointExtension>
            <ns3:hr>140</ns3:hr>
            <ns3:cad>0</ns3:cad>
          </ns3:TrackPointExtension>
        </extensions>
      </trkpt>
      <trkpt lat="44.6764181368052959442138671875" lon="6.79469165392220020294189453125">
        <ele>1830</ele>
        <time>2026-08-31T05:40:27.000Z</time>
        <extensions>
          <ns3:TrackPointExtension>
            <ns3:hr>140</ns3:hr>
            <ns3:cad>0</ns3:cad>
          </ns3:TrackPointExtension>
        </extensions>
      </trkpt>
      <trkpt lat="44.676424004137516021728515625" lon="6.79470808245241641998291015625">
        <ele>1830</ele>
        <time>2026-08-31T05:40:28.000Z</time>
        <extensions>
          <ns3:TrackPointExtension>
            <ns3:hr>140</ns3:hr>
            <ns3:cad>0</ns3:cad>
          </ns3:TrackPointExtension>
        </extensions>
      </trkpt>
      <trkpt lat="44.6764302067458629608154296875" lon="6.79472987540066242218017578125">
        <ele>1830</ele>
        <time>2026-08-31T05:40:29.000Z</time>
        <extensions>
          <ns3:TrackPointExtension>
            <ns3:hr>140</ns3:hr>
            <ns3:cad>0</ns3:cad>
          </ns3:TrackPointExtension>
        </extensions>
      </trkpt>
      <trkpt lat="44.67643733136355876922607421875" lon="6.79474328644573688507080078125">
        <ele>1830</ele>
        <time>2026-08-31T05:40:30.000Z</time>
        <extensions>
          <ns3:TrackPointExtension>
            <ns3:hr>140</ns3:hr>
            <ns3:cad>0</ns3:cad>
          </ns3:TrackPointExtension>
        </extensions>
      </trkpt>
      <trkpt lat="44.67644604854285717010498046875" lon="6.79475669749081134796142578125">
        <ele>1830</ele>
        <time>2026-08-31T05:40:31.000Z</time>
        <extensions>
          <ns3:TrackPointExtension>
            <ns3:hr>140</ns3:hr>
            <ns3:cad>0</ns3:cad>
          </ns3:TrackPointExtension>
        </extensions>
      </trkpt>
      <trkpt lat="44.67645074240863323211669921875" lon="6.7947608046233654022216796875">
        <ele>1830</ele>
        <time>2026-08-31T05:40:32.000Z</time>
        <extensions>
          <ns3:TrackPointExtension>
            <ns3:hr>140</ns3:hr>
            <ns3:cad>0</ns3:cad>
          </ns3:TrackPointExtension>
        </extensions>
      </trkpt>
      <trkpt lat="44.67644839547574520111083984375" lon="6.79475988261401653289794921875">
        <ele>1830</ele>
        <time>2026-08-31T05:40:33.000Z</time>
        <extensions>
          <ns3:TrackPointExtension>
            <ns3:hr>140</ns3:hr>
            <ns3:cad>0</ns3:cad>
          </ns3:TrackPointExtension>
        </extensions>
      </trkpt>
      <trkpt lat="44.67644847929477691650390625" lon="6.79475988261401653289794921875">
        <ele>1830</ele>
        <time>2026-08-31T05:40:34.000Z</time>
        <extensions>
          <ns3:TrackPointExtension>
            <ns3:hr>140</ns3:hr>
            <ns3:cad>0</ns3:cad>
          </ns3:TrackPointExtension>
        </extensions>
      </trkpt>
      <trkpt lat="44.67644847929477691650390625" lon="6.79475988261401653289794921875">
        <ele>1830</ele>
        <time>2026-08-31T05:40:35.000Z</time>
        <extensions>
          <ns3:TrackPointExtension>
            <ns3:hr>140</ns3:hr>
            <ns3:cad>0</ns3:cad>
          </ns3:TrackPointExtension>
        </extensions>
      </trkpt>
      <trkpt lat="44.67644847929477691650390625" lon="6.79475988261401653289794921875">
        <ele>1829.800048828125</ele>
        <time>2026-08-31T05:40:36.000Z</time>
        <extensions>
          <ns3:TrackPointExtension>
            <ns3:hr>140</ns3:hr>
            <ns3:cad>0</ns3:cad>
          </ns3:TrackPointExtension>
        </extensions>
      </trkpt>
      <trkpt lat="44.67644847929477691650390625" lon="6.79475988261401653289794921875">
        <ele>1829.800048828125</ele>
        <time>2026-08-31T05:40:37.000Z</time>
        <extensions>
          <ns3:TrackPointExtension>
            <ns3:hr>139</ns3:hr>
            <ns3:cad>0</ns3:cad>
          </ns3:TrackPointExtension>
        </extensions>
      </trkpt>
      <trkpt lat="44.67644847929477691650390625" lon="6.79475988261401653289794921875">
        <ele>1829.800048828125</ele>
        <time>2026-08-31T05:40:38.000Z</time>
        <extensions>
          <ns3:TrackPointExtension>
            <ns3:hr>138</ns3:hr>
            <ns3:cad>0</ns3:cad>
          </ns3:TrackPointExtension>
        </extensions>
      </trkpt>
      <trkpt lat="44.67644806019961833953857421875" lon="6.794759966433048248291015625">
        <ele>1829.800048828125</ele>
        <time>2026-08-31T05:40:39.000Z</time>
        <extensions>
          <ns3:TrackPointExtension>
            <ns3:hr>137</ns3:hr>
            <ns3:cad>0</ns3:cad>
          </ns3:TrackPointExtension>
        </extensions>
      </trkpt>
      <trkpt lat="44.67645250260829925537109375" lon="6.794774048030376434326171875">
        <ele>1829.800048828125</ele>
        <time>2026-08-31T05:40:40.000Z</time>
        <extensions>
          <ns3:TrackPointExtension>
            <ns3:hr>136</ns3:hr>
            <ns3:cad>0</ns3:cad>
          </ns3:TrackPointExtension>
        </extensions>
      </trkpt>
      <trkpt lat="44.67645476572215557098388671875" lon="6.794787459075450897216796875">
        <ele>1829.800048828125</ele>
        <time>2026-08-31T05:40:41.000Z</time>
        <extensions>
          <ns3:TrackPointExtension>
            <ns3:hr>135</ns3:hr>
            <ns3:cad>0</ns3:cad>
          </ns3:TrackPointExtension>
        </extensions>
      </trkpt>
      <trkpt lat="44.6764556877315044403076171875" lon="6.79480514489114284515380859375">
        <ele>1830</ele>
        <time>2026-08-31T05:40:42.000Z</time>
        <extensions>
          <ns3:TrackPointExtension>
            <ns3:hr>133</ns3:hr>
            <ns3:cad>0</ns3:cad>
          </ns3:TrackPointExtension>
        </extensions>
      </trkpt>
      <trkpt lat="44.6764563582837581634521484375" lon="6.79482392035424709320068359375">
        <ele>1830</ele>
        <time>2026-08-31T05:40:43.000Z</time>
        <extensions>
          <ns3:TrackPointExtension>
            <ns3:hr>131</ns3:hr>
            <ns3:cad>0</ns3:cad>
          </ns3:TrackPointExtension>
        </extensions>
      </trkpt>
      <trkpt lat="44.67645979486405849456787109375" lon="6.79484018124639987945556640625">
        <ele>1830</ele>
        <time>2026-08-31T05:40:44.000Z</time>
        <extensions>
          <ns3:TrackPointExtension>
            <ns3:hr>130</ns3:hr>
            <ns3:cad>0</ns3:cad>
          </ns3:TrackPointExtension>
        </extensions>
      </trkpt>
      <trkpt lat="44.67646398581564426422119140625" lon="6.7948587052524089813232421875">
        <ele>1830.199951171875</ele>
        <time>2026-08-31T05:40:45.000Z</time>
        <extensions>
          <ns3:TrackPointExtension>
            <ns3:hr>130</ns3:hr>
            <ns3:cad>0</ns3:cad>
          </ns3:TrackPointExtension>
        </extensions>
      </trkpt>
      <trkpt lat="44.6764680929481983184814453125" lon="6.79486985318362712860107421875">
        <ele>1830.199951171875</ele>
        <time>2026-08-31T05:40:46.000Z</time>
        <extensions>
          <ns3:TrackPointExtension>
            <ns3:hr>129</ns3:hr>
            <ns3:cad>0</ns3:cad>
          </ns3:TrackPointExtension>
        </extensions>
      </trkpt>
      <trkpt lat="44.67647370882332324981689453125" lon="6.7948897182941436767578125">
        <ele>1830.199951171875</ele>
        <time>2026-08-31T05:40:47.000Z</time>
        <extensions>
          <ns3:TrackPointExtension>
            <ns3:hr>129</ns3:hr>
            <ns3:cad>0</ns3:cad>
          </ns3:TrackPointExtension>
        </extensions>
      </trkpt>
      <trkpt lat="44.67647605575621128082275390625" lon="6.79490807466208934783935546875">
        <ele>1830.199951171875</ele>
        <time>2026-08-31T05:40:48.000Z</time>
        <extensions>
          <ns3:TrackPointExtension>
            <ns3:hr>129</ns3:hr>
            <ns3:cad>0</ns3:cad>
          </ns3:TrackPointExtension>
        </extensions>
      </trkpt>
      <trkpt lat="44.67648024670779705047607421875" lon="6.79492634721100330352783203125">
        <ele>1830.199951171875</ele>
        <time>2026-08-31T05:40:49.000Z</time>
        <extensions>
          <ns3:TrackPointExtension>
            <ns3:hr>129</ns3:hr>
            <ns3:cad>0</ns3:cad>
          </ns3:TrackPointExtension>
        </extensions>
      </trkpt>
      <trkpt lat="44.67648779042065143585205078125" lon="6.79494227282702922821044921875">
        <ele>1830.199951171875</ele>
        <time>2026-08-31T05:40:50.000Z</time>
        <extensions>
          <ns3:TrackPointExtension>
            <ns3:hr>128</ns3:hr>
            <ns3:cad>0</ns3:cad>
          </ns3:TrackPointExtension>
        </extensions>
      </trkpt>
      <trkpt lat="44.6764942444860935211181640625" lon="6.79496138356626033782958984375">
        <ele>1830.199951171875</ele>
        <time>2026-08-31T05:40:51.000Z</time>
        <extensions>
          <ns3:TrackPointExtension>
            <ns3:hr>128</ns3:hr>
            <ns3:cad>0</ns3:cad>
          </ns3:TrackPointExtension>
        </extensions>
      </trkpt>
      <trkpt lat="44.6765006147325038909912109375" lon="6.79497647099196910858154296875">
        <ele>1830.4000244140625</ele>
        <time>2026-08-31T05:40:52.000Z</time>
        <extensions>
          <ns3:TrackPointExtension>
            <ns3:hr>128</ns3:hr>
            <ns3:cad>0</ns3:cad>
          </ns3:TrackPointExtension>
        </extensions>
      </trkpt>
      <trkpt lat="44.67650505714118480682373046875" lon="6.7949944920837879180908203125">
        <ele>1830.4000244140625</ele>
        <time>2026-08-31T05:40:53.000Z</time>
        <extensions>
          <ns3:TrackPointExtension>
            <ns3:hr>128</ns3:hr>
            <ns3:cad>0</ns3:cad>
          </ns3:TrackPointExtension>
        </extensions>
      </trkpt>
      <trkpt lat="44.6765106730163097381591796875" lon="6.795010082423686981201171875">
        <ele>1830.5999755859375</ele>
        <time>2026-08-31T05:40:54.000Z</time>
        <extensions>
          <ns3:TrackPointExtension>
            <ns3:hr>129</ns3:hr>
            <ns3:cad>0</ns3:cad>
          </ns3:TrackPointExtension>
        </extensions>
      </trkpt>
      <trkpt lat="44.67651419341564178466796875" lon="6.795030869543552398681640625">
        <ele>1830.5999755859375</ele>
        <time>2026-08-31T05:40:55.000Z</time>
        <extensions>
          <ns3:TrackPointExtension>
            <ns3:hr>128</ns3:hr>
            <ns3:cad>0</ns3:cad>
          </ns3:TrackPointExtension>
        </extensions>
      </trkpt>
      <trkpt lat="44.67652064748108386993408203125" lon="6.7950481362640857696533203125">
        <ele>1830.5999755859375</ele>
        <time>2026-08-31T05:40:56.000Z</time>
        <extensions>
          <ns3:TrackPointExtension>
            <ns3:hr>128</ns3:hr>
            <ns3:cad>0</ns3:cad>
          </ns3:TrackPointExtension>
        </extensions>
      </trkpt>
      <trkpt lat="44.67652567662298679351806640625" lon="6.79506666027009487152099609375">
        <ele>1830.5999755859375</ele>
        <time>2026-08-31T05:40:57.000Z</time>
        <extensions>
          <ns3:TrackPointExtension>
            <ns3:hr>128</ns3:hr>
            <ns3:cad>15</ns3:cad>
          </ns3:TrackPointExtension>
        </extensions>
      </trkpt>
      <trkpt lat="44.676531292498111724853515625" lon="6.7950819991528987884521484375">
        <ele>1830.800048828125</ele>
        <time>2026-08-31T05:40:58.000Z</time>
        <extensions>
          <ns3:TrackPointExtension>
            <ns3:hr>129</ns3:hr>
            <ns3:cad>15</ns3:cad>
          </ns3:TrackPointExtension>
        </extensions>
      </trkpt>
      <trkpt lat="44.6765349805355072021484375" lon="6.7951017804443836212158203125">
        <ele>1830.800048828125</ele>
        <time>2026-08-31T05:40:59.000Z</time>
        <extensions>
          <ns3:TrackPointExtension>
            <ns3:hr>128</ns3:hr>
            <ns3:cad>15</ns3:cad>
          </ns3:TrackPointExtension>
        </extensions>
      </trkpt>
      <trkpt lat="44.67653757892549037933349609375" lon="6.79511728696525096893310546875">
        <ele>1830.800048828125</ele>
        <time>2026-08-31T05:41:00.000Z</time>
        <extensions>
          <ns3:TrackPointExtension>
            <ns3:hr>128</ns3:hr>
            <ns3:cad>15</ns3:cad>
          </ns3:TrackPointExtension>
        </extensions>
      </trkpt>
      <trkpt lat="44.67654235661029815673828125" lon="6.795138828456401824951171875">
        <ele>1831</ele>
        <time>2026-08-31T05:41:01.000Z</time>
        <extensions>
          <ns3:TrackPointExtension>
            <ns3:hr>129</ns3:hr>
            <ns3:cad>15</ns3:cad>
          </ns3:TrackPointExtension>
        </extensions>
      </trkpt>
      <trkpt lat="44.67654981650412082672119140625" lon="6.79515433497726917266845703125">
        <ele>1831</ele>
        <time>2026-08-31T05:41:02.000Z</time>
        <extensions>
          <ns3:TrackPointExtension>
            <ns3:hr>128</ns3:hr>
            <ns3:cad>15</ns3:cad>
          </ns3:TrackPointExtension>
        </extensions>
      </trkpt>
      <trkpt lat="44.6765532530844211578369140625" lon="6.79517445154488086700439453125">
        <ele>1831</ele>
        <time>2026-08-31T05:41:03.000Z</time>
        <extensions>
          <ns3:TrackPointExtension>
            <ns3:hr>128</ns3:hr>
            <ns3:cad>0</ns3:cad>
          </ns3:TrackPointExtension>
        </extensions>
      </trkpt>
      <trkpt lat="44.67656104825437068939208984375" lon="6.79519104771316051483154296875">
        <ele>1831</ele>
        <time>2026-08-31T05:41:04.000Z</time>
        <extensions>
          <ns3:TrackPointExtension>
            <ns3:hr>128</ns3:hr>
            <ns3:cad>0</ns3:cad>
          </ns3:TrackPointExtension>
        </extensions>
      </trkpt>
      <trkpt lat="44.6765646524727344512939453125" lon="6.7952107451856136322021484375">
        <ele>1831.199951171875</ele>
        <time>2026-08-31T05:41:05.000Z</time>
        <extensions>
          <ns3:TrackPointExtension>
            <ns3:hr>128</ns3:hr>
            <ns3:cad>0</ns3:cad>
          </ns3:TrackPointExtension>
        </extensions>
      </trkpt>
      <trkpt lat="44.6765680052340030670166015625" lon="6.79522507824003696441650390625">
        <ele>1831.199951171875</ele>
        <time>2026-08-31T05:41:06.000Z</time>
        <extensions>
          <ns3:TrackPointExtension>
            <ns3:hr>128</ns3:hr>
            <ns3:cad>0</ns3:cad>
          </ns3:TrackPointExtension>
        </extensions>
      </trkpt>
      <trkpt lat="44.67656993307173252105712890625" lon="6.79524519480764865875244140625">
        <ele>1831.4000244140625</ele>
        <time>2026-08-31T05:41:07.000Z</time>
        <extensions>
          <ns3:TrackPointExtension>
            <ns3:hr>128</ns3:hr>
            <ns3:cad>0</ns3:cad>
          </ns3:TrackPointExtension>
        </extensions>
      </trkpt>
      <trkpt lat="44.6765737049281597137451171875" lon="6.7952620424330234527587890625">
        <ele>1831.4000244140625</ele>
        <time>2026-08-31T05:41:08.000Z</time>
        <extensions>
          <ns3:TrackPointExtension>
            <ns3:hr>128</ns3:hr>
            <ns3:cad>0</ns3:cad>
          </ns3:TrackPointExtension>
        </extensions>
      </trkpt>
      <trkpt lat="44.67657328583300113677978515625" lon="6.79528257809579372406005859375">
        <ele>1831.5999755859375</ele>
        <time>2026-08-31T05:41:09.000Z</time>
        <extensions>
          <ns3:TrackPointExtension>
            <ns3:hr>128</ns3:hr>
            <ns3:cad>0</ns3:cad>
          </ns3:TrackPointExtension>
        </extensions>
      </trkpt>
      <trkpt lat="44.67657429166138172149658203125" lon="6.7953005991876125335693359375">
        <ele>1831.5999755859375</ele>
        <time>2026-08-31T05:41:10.000Z</time>
        <extensions>
          <ns3:TrackPointExtension>
            <ns3:hr>128</ns3:hr>
            <ns3:cad>0</ns3:cad>
          </ns3:TrackPointExtension>
        </extensions>
      </trkpt>
      <trkpt lat="44.6765730343759059906005859375" lon="6.79531962610781192779541015625">
        <ele>1831.800048828125</ele>
        <time>2026-08-31T05:41:11.000Z</time>
        <extensions>
          <ns3:TrackPointExtension>
            <ns3:hr>129</ns3:hr>
            <ns3:cad>0</ns3:cad>
          </ns3:TrackPointExtension>
        </extensions>
      </trkpt>
      <trkpt lat="44.67657194472849369049072265625" lon="6.79533689282834529876708984375">
        <ele>1831.800048828125</ele>
        <time>2026-08-31T05:41:12.000Z</time>
        <extensions>
          <ns3:TrackPointExtension>
            <ns3:hr>129</ns3:hr>
            <ns3:cad>0</ns3:cad>
          </ns3:TrackPointExtension>
        </extensions>
      </trkpt>
      <trkpt lat="44.67656892724335193634033203125" lon="6.79535533301532268524169921875">
        <ele>1832</ele>
        <time>2026-08-31T05:41:13.000Z</time>
        <extensions>
          <ns3:TrackPointExtension>
            <ns3:hr>130</ns3:hr>
            <ns3:cad>0</ns3:cad>
          </ns3:TrackPointExtension>
        </extensions>
      </trkpt>
      <trkpt lat="44.67657026834785938262939453125" lon="6.7953725159168243408203125">
        <ele>1832</ele>
        <time>2026-08-31T05:41:14.000Z</time>
        <extensions>
          <ns3:TrackPointExtension>
            <ns3:hr>131</ns3:hr>
            <ns3:cad>0</ns3:cad>
          </ns3:TrackPointExtension>
        </extensions>
      </trkpt>
      <trkpt lat="44.676566831767559051513671875" lon="6.79539171047508716583251953125">
        <ele>1832</ele>
        <time>2026-08-31T05:41:15.000Z</time>
        <extensions>
          <ns3:TrackPointExtension>
            <ns3:hr>131</ns3:hr>
            <ns3:cad>0</ns3:cad>
          </ns3:TrackPointExtension>
        </extensions>
      </trkpt>
      <trkpt lat="44.6765676699578762054443359375" lon="6.79541207849979400634765625">
        <ele>1832.199951171875</ele>
        <time>2026-08-31T05:41:16.000Z</time>
        <extensions>
          <ns3:TrackPointExtension>
            <ns3:hr>131</ns3:hr>
            <ns3:cad>0</ns3:cad>
          </ns3:TrackPointExtension>
        </extensions>
      </trkpt>
      <trkpt lat="44.67656322754919528961181640625" lon="6.795431189239025115966796875">
        <ele>1832.199951171875</ele>
        <time>2026-08-31T05:41:17.000Z</time>
        <extensions>
          <ns3:TrackPointExtension>
            <ns3:hr>132</ns3:hr>
            <ns3:cad>0</ns3:cad>
          </ns3:TrackPointExtension>
        </extensions>
      </trkpt>
      <trkpt lat="44.676558114588260650634765625" lon="6.79544828832149505615234375">
        <ele>1832.4000244140625</ele>
        <time>2026-08-31T05:41:18.000Z</time>
        <extensions>
          <ns3:TrackPointExtension>
            <ns3:hr>133</ns3:hr>
            <ns3:cad>0</ns3:cad>
          </ns3:TrackPointExtension>
        </extensions>
      </trkpt>
      <trkpt lat="44.67655249871313571929931640625" lon="6.79546697996556758880615234375">
        <ele>1832.5999755859375</ele>
        <time>2026-08-31T05:41:19.000Z</time>
        <extensions>
          <ns3:TrackPointExtension>
            <ns3:hr>133</ns3:hr>
            <ns3:cad>0</ns3:cad>
          </ns3:TrackPointExtension>
        </extensions>
      </trkpt>
      <trkpt lat="44.6765552647411823272705078125" lon="6.79548257030546665191650390625">
        <ele>1832.5999755859375</ele>
        <time>2026-08-31T05:41:20.000Z</time>
        <extensions>
          <ns3:TrackPointExtension>
            <ns3:hr>133</ns3:hr>
            <ns3:cad>0</ns3:cad>
          </ns3:TrackPointExtension>
        </extensions>
      </trkpt>
      <trkpt lat="44.676555097103118896484375" lon="6.79550134576857089996337890625">
        <ele>1832.800048828125</ele>
        <time>2026-08-31T05:41:21.000Z</time>
        <extensions>
          <ns3:TrackPointExtension>
            <ns3:hr>133</ns3:hr>
            <ns3:cad>0</ns3:cad>
          </ns3:TrackPointExtension>
        </extensions>
      </trkpt>
      <trkpt lat="44.6765562705695629119873046875" lon="6.79551660083234310150146484375">
        <ele>1832.800048828125</ele>
        <time>2026-08-31T05:41:22.000Z</time>
        <extensions>
          <ns3:TrackPointExtension>
            <ns3:hr>134</ns3:hr>
            <ns3:cad>0</ns3:cad>
          </ns3:TrackPointExtension>
        </extensions>
      </trkpt>
      <trkpt lat="44.67656339518725872039794921875" lon="6.79553135298192501068115234375">
        <ele>1833</ele>
        <time>2026-08-31T05:41:23.000Z</time>
        <extensions>
          <ns3:TrackPointExtension>
            <ns3:hr>134</ns3:hr>
            <ns3:cad>0</ns3:cad>
          </ns3:TrackPointExtension>
        </extensions>
      </trkpt>
      <trkpt lat="44.67656515538692474365234375" lon="6.79555021226406097412109375">
        <ele>1833</ele>
        <time>2026-08-31T05:41:24.000Z</time>
        <extensions>
          <ns3:TrackPointExtension>
            <ns3:hr>134</ns3:hr>
            <ns3:cad>0</ns3:cad>
          </ns3:TrackPointExtension>
        </extensions>
      </trkpt>
      <trkpt lat="44.67656540684401988983154296875" lon="6.79556856863200664520263671875">
        <ele>1833</ele>
        <time>2026-08-31T05:41:25.000Z</time>
        <extensions>
          <ns3:TrackPointExtension>
            <ns3:hr>135</ns3:hr>
            <ns3:cad>0</ns3:cad>
          </ns3:TrackPointExtension>
        </extensions>
      </trkpt>
      <trkpt lat="44.676565490663051605224609375" lon="6.79558315314352512359619140625">
        <ele>1833.199951171875</ele>
        <time>2026-08-31T05:41:26.000Z</time>
        <extensions>
          <ns3:TrackPointExtension>
            <ns3:hr>135</ns3:hr>
            <ns3:cad>0</ns3:cad>
          </ns3:TrackPointExtension>
        </extensions>
      </trkpt>
      <trkpt lat="44.67657060362398624420166015625" lon="6.79560544900596141815185546875">
        <ele>1833.199951171875</ele>
        <time>2026-08-31T05:41:27.000Z</time>
        <extensions>
          <ns3:TrackPointExtension>
            <ns3:hr>135</ns3:hr>
            <ns3:cad>0</ns3:cad>
          </ns3:TrackPointExtension>
        </extensions>
      </trkpt>
      <trkpt lat="44.6765743754804134368896484375" lon="6.79562397301197052001953125">
        <ele>1833.4000244140625</ele>
        <time>2026-08-31T05:41:28.000Z</time>
        <extensions>
          <ns3:TrackPointExtension>
            <ns3:hr>135</ns3:hr>
            <ns3:cad>0</ns3:cad>
          </ns3:TrackPointExtension>
        </extensions>
      </trkpt>
      <trkpt lat="44.6765750460326671600341796875" lon="6.7956415750086307525634765625">
        <ele>1833.4000244140625</ele>
        <time>2026-08-31T05:41:29.000Z</time>
        <extensions>
          <ns3:TrackPointExtension>
            <ns3:hr>135</ns3:hr>
            <ns3:cad>0</ns3:cad>
          </ns3:TrackPointExtension>
        </extensions>
      </trkpt>
      <trkpt lat="44.676581919193267822265625" lon="6.79565473459661006927490234375">
        <ele>1833.4000244140625</ele>
        <time>2026-08-31T05:41:30.000Z</time>
        <extensions>
          <ns3:TrackPointExtension>
            <ns3:hr>136</ns3:hr>
            <ns3:cad>0</ns3:cad>
          </ns3:TrackPointExtension>
        </extensions>
      </trkpt>
      <trkpt lat="44.676584266126155853271484375" lon="6.7956680618226528167724609375">
        <ele>1833.5999755859375</ele>
        <time>2026-08-31T05:41:31.000Z</time>
        <extensions>
          <ns3:TrackPointExtension>
            <ns3:hr>136</ns3:hr>
            <ns3:cad>0</ns3:cad>
          </ns3:TrackPointExtension>
        </extensions>
      </trkpt>
      <trkpt lat="44.67658795416355133056640625" lon="6.79568457417190074920654296875">
        <ele>1833.5999755859375</ele>
        <time>2026-08-31T05:41:32.000Z</time>
        <extensions>
          <ns3:TrackPointExtension>
            <ns3:hr>136</ns3:hr>
            <ns3:cad>61</ns3:cad>
          </ns3:TrackPointExtension>
        </extensions>
      </trkpt>
      <trkpt lat="44.67659591697156429290771484375" lon="6.79570712149143218994140625">
        <ele>1833.5999755859375</ele>
        <time>2026-08-31T05:41:33.000Z</time>
        <extensions>
          <ns3:TrackPointExtension>
            <ns3:hr>136</ns3:hr>
            <ns3:cad>61</ns3:cad>
          </ns3:TrackPointExtension>
        </extensions>
      </trkpt>
      <trkpt lat="44.6766008622944355010986328125" lon="6.7957250587642192840576171875">
        <ele>1833.5999755859375</ele>
        <time>2026-08-31T05:41:34.000Z</time>
        <extensions>
          <ns3:TrackPointExtension>
            <ns3:hr>135</ns3:hr>
            <ns3:cad>0</ns3:cad>
          </ns3:TrackPointExtension>
        </extensions>
      </trkpt>
      <trkpt lat="44.67660647816956043243408203125" lon="6.7957453429698944091796875">
        <ele>1833.800048828125</ele>
        <time>2026-08-31T05:41:35.000Z</time>
        <extensions>
          <ns3:TrackPointExtension>
            <ns3:hr>136</ns3:hr>
            <ns3:cad>0</ns3:cad>
          </ns3:TrackPointExtension>
        </extensions>
      </trkpt>
      <trkpt lat="44.67660966329276561737060546875" lon="6.79576302878558635711669921875">
        <ele>1833.800048828125</ele>
        <time>2026-08-31T05:41:36.000Z</time>
        <extensions>
          <ns3:TrackPointExtension>
            <ns3:hr>136</ns3:hr>
            <ns3:cad>0</ns3:cad>
          </ns3:TrackPointExtension>
        </extensions>
      </trkpt>
      <trkpt lat="44.67661351896822452545166015625" lon="6.795783229172229766845703125">
        <ele>1833.800048828125</ele>
        <time>2026-08-31T05:41:37.000Z</time>
        <extensions>
          <ns3:TrackPointExtension>
            <ns3:hr>136</ns3:hr>
            <ns3:cad>15</ns3:cad>
          </ns3:TrackPointExtension>
        </extensions>
      </trkpt>
      <trkpt lat="44.67661569826304912567138671875" lon="6.795795969665050506591796875">
        <ele>1833.800048828125</ele>
        <time>2026-08-31T05:41:38.000Z</time>
        <extensions>
          <ns3:TrackPointExtension>
            <ns3:hr>136</ns3:hr>
            <ns3:cad>15</ns3:cad>
          </ns3:TrackPointExtension>
        </extensions>
      </trkpt>
      <trkpt lat="44.67661921866238117218017578125" lon="6.79581197910010814666748046875">
        <ele>1833.800048828125</ele>
        <time>2026-08-31T05:41:39.000Z</time>
        <extensions>
          <ns3:TrackPointExtension>
            <ns3:hr>136</ns3:hr>
            <ns3:cad>0</ns3:cad>
          </ns3:TrackPointExtension>
        </extensions>
      </trkpt>
      <trkpt lat="44.67662525363266468048095703125" lon="6.79582756944000720977783203125">
        <ele>1834</ele>
        <time>2026-08-31T05:41:40.000Z</time>
        <extensions>
          <ns3:TrackPointExtension>
            <ns3:hr>137</ns3:hr>
            <ns3:cad>0</ns3:cad>
          </ns3:TrackPointExtension>
        </extensions>
      </trkpt>
      <trkpt lat="44.67662944458425045013427734375" lon="6.79584383033215999603271484375">
        <ele>1834</ele>
        <time>2026-08-31T05:41:41.000Z</time>
        <extensions>
          <ns3:TrackPointExtension>
            <ns3:hr>137</ns3:hr>
            <ns3:cad>15</ns3:cad>
          </ns3:TrackPointExtension>
        </extensions>
      </trkpt>
      <trkpt lat="44.67663229443132877349853515625" lon="6.795855648815631866455078125">
        <ele>1834</ele>
        <time>2026-08-31T05:41:42.000Z</time>
        <extensions>
          <ns3:TrackPointExtension>
            <ns3:hr>137</ns3:hr>
            <ns3:cad>15</ns3:cad>
          </ns3:TrackPointExtension>
        </extensions>
      </trkpt>
      <trkpt lat="44.67663765884935855865478515625" lon="6.795873083174228668212890625">
        <ele>1834</ele>
        <time>2026-08-31T05:41:43.000Z</time>
        <extensions>
          <ns3:TrackPointExtension>
            <ns3:hr>137</ns3:hr>
            <ns3:cad>15</ns3:cad>
          </ns3:TrackPointExtension>
        </extensions>
      </trkpt>
      <trkpt lat="44.67665098607540130615234375" lon="6.7958886735141277313232421875">
        <ele>1834</ele>
        <time>2026-08-31T05:41:44.000Z</time>
        <extensions>
          <ns3:TrackPointExtension>
            <ns3:hr>137</ns3:hr>
            <ns3:cad>15</ns3:cad>
          </ns3:TrackPointExtension>
        </extensions>
      </trkpt>
      <trkpt lat="44.6766588650643825531005859375" lon="6.7959062755107879638671875">
        <ele>1834.199951171875</ele>
        <time>2026-08-31T05:41:45.000Z</time>
        <extensions>
          <ns3:TrackPointExtension>
            <ns3:hr>137</ns3:hr>
            <ns3:cad>15</ns3:cad>
          </ns3:TrackPointExtension>
        </extensions>
      </trkpt>
      <trkpt lat="44.676663391292095184326171875" lon="6.7959228716790676116943359375">
        <ele>1834.199951171875</ele>
        <time>2026-08-31T05:41:46.000Z</time>
        <extensions>
          <ns3:TrackPointExtension>
            <ns3:hr>137</ns3:hr>
            <ns3:cad>0</ns3:cad>
          </ns3:TrackPointExtension>
        </extensions>
      </trkpt>
      <trkpt lat="44.6766690909862518310546875" lon="6.79594315588474273681640625">
        <ele>1834.4000244140625</ele>
        <time>2026-08-31T05:41:47.000Z</time>
        <extensions>
          <ns3:TrackPointExtension>
            <ns3:hr>137</ns3:hr>
            <ns3:cad>0</ns3:cad>
          </ns3:TrackPointExtension>
        </extensions>
      </trkpt>
      <trkpt lat="44.67667370103299617767333984375" lon="6.79595748893916606903076171875">
        <ele>1834.5999755859375</ele>
        <time>2026-08-31T05:41:48.000Z</time>
        <extensions>
          <ns3:TrackPointExtension>
            <ns3:hr>137</ns3:hr>
            <ns3:cad>0</ns3:cad>
          </ns3:TrackPointExtension>
        </extensions>
      </trkpt>
      <trkpt lat="44.67668275348842144012451171875" lon="6.7959751747548580169677734375">
        <ele>1834.800048828125</ele>
        <time>2026-08-31T05:41:49.000Z</time>
        <extensions>
          <ns3:TrackPointExtension>
            <ns3:hr>137</ns3:hr>
            <ns3:cad>0</ns3:cad>
          </ns3:TrackPointExtension>
        </extensions>
      </trkpt>
      <trkpt lat="44.6766856871545314788818359375" lon="6.79598816670477390289306640625">
        <ele>1834.800048828125</ele>
        <time>2026-08-31T05:41:50.000Z</time>
        <extensions>
          <ns3:TrackPointExtension>
            <ns3:hr>137</ns3:hr>
            <ns3:cad>0</ns3:cad>
          </ns3:TrackPointExtension>
        </extensions>
      </trkpt>
      <trkpt lat="44.67669792473316192626953125" lon="6.79600459523499011993408203125">
        <ele>1835</ele>
        <time>2026-08-31T05:41:51.000Z</time>
        <extensions>
          <ns3:TrackPointExtension>
            <ns3:hr>139</ns3:hr>
            <ns3:cad>0</ns3:cad>
          </ns3:TrackPointExtension>
        </extensions>
      </trkpt>
      <trkpt lat="44.67670186422765254974365234375" lon="6.7960204370319843292236328125">
        <ele>1835.199951171875</ele>
        <time>2026-08-31T05:41:52.000Z</time>
        <extensions>
          <ns3:TrackPointExtension>
            <ns3:hr>140</ns3:hr>
            <ns3:cad>0</ns3:cad>
          </ns3:TrackPointExtension>
        </extensions>
      </trkpt>
      <trkpt lat="44.6767120063304901123046875" lon="6.7960365302860736846923828125">
        <ele>1835.199951171875</ele>
        <time>2026-08-31T05:41:53.000Z</time>
        <extensions>
          <ns3:TrackPointExtension>
            <ns3:hr>141</ns3:hr>
            <ns3:cad>0</ns3:cad>
          </ns3:TrackPointExtension>
        </extensions>
      </trkpt>
      <trkpt lat="44.67671527527272701263427734375" lon="6.796052120625972747802734375">
        <ele>1835.4000244140625</ele>
        <time>2026-08-31T05:41:54.000Z</time>
        <extensions>
          <ns3:TrackPointExtension>
            <ns3:hr>141</ns3:hr>
            <ns3:cad>0</ns3:cad>
          </ns3:TrackPointExtension>
        </extensions>
      </trkpt>
      <trkpt lat="44.67671644873917102813720703125" lon="6.79607056081295013427734375">
        <ele>1835.4000244140625</ele>
        <time>2026-08-31T05:41:55.000Z</time>
        <extensions>
          <ns3:TrackPointExtension>
            <ns3:hr>142</ns3:hr>
            <ns3:cad>0</ns3:cad>
          </ns3:TrackPointExtension>
        </extensions>
      </trkpt>
      <trkpt lat="44.6767208911478519439697265625" lon="6.79608405567705631256103515625">
        <ele>1835.4000244140625</ele>
        <time>2026-08-31T05:41:56.000Z</time>
        <extensions>
          <ns3:TrackPointExtension>
            <ns3:hr>142</ns3:hr>
            <ns3:cad>0</ns3:cad>
          </ns3:TrackPointExtension>
        </extensions>
      </trkpt>
      <trkpt lat="44.6767254173755645751953125" lon="6.7960995621979236602783203125">
        <ele>1835.5999755859375</ele>
        <time>2026-08-31T05:41:57.000Z</time>
        <extensions>
          <ns3:TrackPointExtension>
            <ns3:hr>142</ns3:hr>
            <ns3:cad>0</ns3:cad>
          </ns3:TrackPointExtension>
        </extensions>
      </trkpt>
      <trkpt lat="44.676731787621974945068359375" lon="6.796115823090076446533203125">
        <ele>1835.5999755859375</ele>
        <time>2026-08-31T05:41:58.000Z</time>
        <extensions>
          <ns3:TrackPointExtension>
            <ns3:hr>142</ns3:hr>
            <ns3:cad>0</ns3:cad>
          </ns3:TrackPointExtension>
        </extensions>
      </trkpt>
      <trkpt lat="44.67673606239259243011474609375" lon="6.79613116197288036346435546875">
        <ele>1835.800048828125</ele>
        <time>2026-08-31T05:41:59.000Z</time>
        <extensions>
          <ns3:TrackPointExtension>
            <ns3:hr>142</ns3:hr>
            <ns3:cad>0</ns3:cad>
          </ns3:TrackPointExtension>
        </extensions>
      </trkpt>
      <trkpt lat="44.6767406724393367767333984375" lon="6.796146668493747711181640625">
        <ele>1836</ele>
        <time>2026-08-31T05:42:00.000Z</time>
        <extensions>
          <ns3:TrackPointExtension>
            <ns3:hr>142</ns3:hr>
            <ns3:cad>0</ns3:cad>
          </ns3:TrackPointExtension>
        </extensions>
      </trkpt>
      <trkpt lat="44.67674025334417819976806640625" lon="6.7961610853672027587890625">
        <ele>1836</ele>
        <time>2026-08-31T05:42:01.000Z</time>
        <extensions>
          <ns3:TrackPointExtension>
            <ns3:hr>142</ns3:hr>
            <ns3:cad>0</ns3:cad>
          </ns3:TrackPointExtension>
        </extensions>
      </trkpt>
      <trkpt lat="44.67674360610544681549072265625" lon="6.7961798608303070068359375">
        <ele>1836.199951171875</ele>
        <time>2026-08-31T05:42:02.000Z</time>
        <extensions>
          <ns3:TrackPointExtension>
            <ns3:hr>141</ns3:hr>
            <ns3:cad>0</ns3:cad>
          </ns3:TrackPointExtension>
        </extensions>
      </trkpt>
      <trkpt lat="44.6767453663051128387451171875" lon="6.79619201458990573883056640625">
        <ele>1836.199951171875</ele>
        <time>2026-08-31T05:42:03.000Z</time>
        <extensions>
          <ns3:TrackPointExtension>
            <ns3:hr>141</ns3:hr>
            <ns3:cad>0</ns3:cad>
          </ns3:TrackPointExtension>
        </extensions>
      </trkpt>
      <trkpt lat="44.67675064690411090850830078125" lon="6.79621347226202487945556640625">
        <ele>1836.4000244140625</ele>
        <time>2026-08-31T05:42:04.000Z</time>
        <extensions>
          <ns3:TrackPointExtension>
            <ns3:hr>141</ns3:hr>
            <ns3:cad>0</ns3:cad>
          </ns3:TrackPointExtension>
        </extensions>
      </trkpt>
      <trkpt lat="44.6767522394657135009765625" lon="6.79622604511678218841552734375">
        <ele>1836.4000244140625</ele>
        <time>2026-08-31T05:42:05.000Z</time>
        <extensions>
          <ns3:TrackPointExtension>
            <ns3:hr>142</ns3:hr>
            <ns3:cad>0</ns3:cad>
          </ns3:TrackPointExtension>
        </extensions>
      </trkpt>
      <trkpt lat="44.67675534076988697052001953125" lon="6.7962467484176158905029296875">
        <ele>1836.5999755859375</ele>
        <time>2026-08-31T05:42:06.000Z</time>
        <extensions>
          <ns3:TrackPointExtension>
            <ns3:hr>141</ns3:hr>
            <ns3:cad>0</ns3:cad>
          </ns3:TrackPointExtension>
        </extensions>
      </trkpt>
      <trkpt lat="44.67675584368407726287841796875" lon="6.79625638760626316070556640625">
        <ele>1836.800048828125</ele>
        <time>2026-08-31T05:42:07.000Z</time>
        <extensions>
          <ns3:TrackPointExtension>
            <ns3:hr>141</ns3:hr>
            <ns3:cad>0</ns3:cad>
          </ns3:TrackPointExtension>
        </extensions>
      </trkpt>
      <trkpt lat="44.67675785534083843231201171875" lon="6.79627566598355770111083984375">
        <ele>1837</ele>
        <time>2026-08-31T05:42:08.000Z</time>
        <extensions>
          <ns3:TrackPointExtension>
            <ns3:hr>142</ns3:hr>
            <ns3:cad>0</ns3:cad>
          </ns3:TrackPointExtension>
        </extensions>
      </trkpt>
      <trkpt lat="44.6767628006637096405029296875" lon="6.79628857411444187164306640625">
        <ele>1837</ele>
        <time>2026-08-31T05:42:09.000Z</time>
        <extensions>
          <ns3:TrackPointExtension>
            <ns3:hr>142</ns3:hr>
            <ns3:cad>0</ns3:cad>
          </ns3:TrackPointExtension>
        </extensions>
      </trkpt>
      <trkpt lat="44.67676497995853424072265625" lon="6.796306930482387542724609375">
        <ele>1837.199951171875</ele>
        <time>2026-08-31T05:42:10.000Z</time>
        <extensions>
          <ns3:TrackPointExtension>
            <ns3:hr>142</ns3:hr>
            <ns3:cad>0</ns3:cad>
          </ns3:TrackPointExtension>
        </extensions>
      </trkpt>
      <trkpt lat="44.67676841653883457183837890625" lon="6.79632000625133514404296875">
        <ele>1837.4000244140625</ele>
        <time>2026-08-31T05:42:11.000Z</time>
        <extensions>
          <ns3:TrackPointExtension>
            <ns3:hr>142</ns3:hr>
            <ns3:cad>0</ns3:cad>
          </ns3:TrackPointExtension>
        </extensions>
      </trkpt>
      <trkpt lat="44.67676959000527858734130859375" lon="6.79633718915283679962158203125">
        <ele>1837.4000244140625</ele>
        <time>2026-08-31T05:42:12.000Z</time>
        <extensions>
          <ns3:TrackPointExtension>
            <ns3:hr>141</ns3:hr>
            <ns3:cad>0</ns3:cad>
          </ns3:TrackPointExtension>
        </extensions>
      </trkpt>
      <trkpt lat="44.6767715178430080413818359375" lon="6.79635487496852874755859375">
        <ele>1837.5999755859375</ele>
        <time>2026-08-31T05:42:13.000Z</time>
        <extensions>
          <ns3:TrackPointExtension>
            <ns3:hr>142</ns3:hr>
            <ns3:cad>0</ns3:cad>
          </ns3:TrackPointExtension>
        </extensions>
      </trkpt>
      <trkpt lat="44.67677428387105464935302734375" lon="6.79637423716485500335693359375">
        <ele>1837.5999755859375</ele>
        <time>2026-08-31T05:42:14.000Z</time>
        <extensions>
          <ns3:TrackPointExtension>
            <ns3:hr>142</ns3:hr>
            <ns3:cad>0</ns3:cad>
          </ns3:TrackPointExtension>
        </extensions>
      </trkpt>
      <trkpt lat="44.67677704989910125732421875" lon="6.79639016278088092803955078125">
        <ele>1837.800048828125</ele>
        <time>2026-08-31T05:42:15.000Z</time>
        <extensions>
          <ns3:TrackPointExtension>
            <ns3:hr>142</ns3:hr>
            <ns3:cad>0</ns3:cad>
          </ns3:TrackPointExtension>
        </extensions>
      </trkpt>
      <trkpt lat="44.6767772175371646881103515625" lon="6.7964056693017482757568359375">
        <ele>1837.800048828125</ele>
        <time>2026-08-31T05:42:16.000Z</time>
        <extensions>
          <ns3:TrackPointExtension>
            <ns3:hr>142</ns3:hr>
            <ns3:cad>0</ns3:cad>
          </ns3:TrackPointExtension>
        </extensions>
      </trkpt>
      <trkpt lat="44.676779396831989288330078125" lon="6.79642268456518650054931640625">
        <ele>1838</ele>
        <time>2026-08-31T05:42:17.000Z</time>
        <extensions>
          <ns3:TrackPointExtension>
            <ns3:hr>143</ns3:hr>
            <ns3:cad>0</ns3:cad>
          </ns3:TrackPointExtension>
        </extensions>
      </trkpt>
      <trkpt lat="44.67678618617355823516845703125" lon="6.796436011791229248046875">
        <ele>1838</ele>
        <time>2026-08-31T05:42:18.000Z</time>
        <extensions>
          <ns3:TrackPointExtension>
            <ns3:hr>143</ns3:hr>
            <ns3:cad>59</ns3:cad>
          </ns3:TrackPointExtension>
        </extensions>
      </trkpt>
      <trkpt lat="44.6767902933061122894287109375" lon="6.796456463634967803955078125">
        <ele>1838.199951171875</ele>
        <time>2026-08-31T05:42:19.000Z</time>
        <extensions>
          <ns3:TrackPointExtension>
            <ns3:hr>143</ns3:hr>
            <ns3:cad>59</ns3:cad>
          </ns3:TrackPointExtension>
        </extensions>
      </trkpt>
      <trkpt lat="44.67679423280060291290283203125" lon="6.7964722216129302978515625">
        <ele>1838.199951171875</ele>
        <time>2026-08-31T05:42:20.000Z</time>
        <extensions>
          <ns3:TrackPointExtension>
            <ns3:hr>142</ns3:hr>
            <ns3:cad>59</ns3:cad>
          </ns3:TrackPointExtension>
        </extensions>
      </trkpt>
      <trkpt lat="44.67679942958056926727294921875" lon="6.79648839868605136871337890625">
        <ele>1838.4000244140625</ele>
        <time>2026-08-31T05:42:21.000Z</time>
        <extensions>
          <ns3:TrackPointExtension>
            <ns3:hr>143</ns3:hr>
            <ns3:cad>59</ns3:cad>
          </ns3:TrackPointExtension>
        </extensions>
      </trkpt>
      <trkpt lat="44.67680462636053562164306640625" lon="6.7965059168636798858642578125">
        <ele>1838.4000244140625</ele>
        <time>2026-08-31T05:42:22.000Z</time>
        <extensions>
          <ns3:TrackPointExtension>
            <ns3:hr>143</ns3:hr>
            <ns3:cad>59</ns3:cad>
          </ns3:TrackPointExtension>
        </extensions>
      </trkpt>
      <trkpt lat="44.676809571683406829833984375" lon="6.7965236864984035491943359375">
        <ele>1838.5999755859375</ele>
        <time>2026-08-31T05:42:23.000Z</time>
        <extensions>
          <ns3:TrackPointExtension>
            <ns3:hr>142</ns3:hr>
            <ns3:cad>59</ns3:cad>
          </ns3:TrackPointExtension>
        </extensions>
      </trkpt>
      <trkpt lat="44.676814265549182891845703125" lon="6.79654053412377834320068359375">
        <ele>1838.5999755859375</ele>
        <time>2026-08-31T05:42:24.000Z</time>
        <extensions>
          <ns3:TrackPointExtension>
            <ns3:hr>143</ns3:hr>
            <ns3:cad>59</ns3:cad>
          </ns3:TrackPointExtension>
        </extensions>
      </trkpt>
      <trkpt lat="44.67681904323399066925048828125" lon="6.79655897431075572967529296875">
        <ele>1838.800048828125</ele>
        <time>2026-08-31T05:42:25.000Z</time>
        <extensions>
          <ns3:TrackPointExtension>
            <ns3:hr>143</ns3:hr>
            <ns3:cad>59</ns3:cad>
          </ns3:TrackPointExtension>
        </extensions>
      </trkpt>
      <trkpt lat="44.676823318004608154296875" lon="6.796575151383876800537109375">
        <ele>1838.800048828125</ele>
        <time>2026-08-31T05:42:26.000Z</time>
        <extensions>
          <ns3:TrackPointExtension>
            <ns3:hr>143</ns3:hr>
            <ns3:cad>59</ns3:cad>
          </ns3:TrackPointExtension>
        </extensions>
      </trkpt>
      <trkpt lat="44.6768258325755596160888671875" lon="6.79659199900925159454345703125">
        <ele>1839</ele>
        <time>2026-08-31T05:42:27.000Z</time>
        <extensions>
          <ns3:TrackPointExtension>
            <ns3:hr>143</ns3:hr>
            <ns3:cad>59</ns3:cad>
          </ns3:TrackPointExtension>
        </extensions>
      </trkpt>
      <trkpt lat="44.6768268384039402008056640625" lon="6.79660926572978496551513671875">
        <ele>1839</ele>
        <time>2026-08-31T05:42:28.000Z</time>
        <extensions>
          <ns3:TrackPointExtension>
            <ns3:hr>144</ns3:hr>
            <ns3:cad>59</ns3:cad>
          </ns3:TrackPointExtension>
        </extensions>
      </trkpt>
      <trkpt lat="44.67682910151779651641845703125" lon="6.79662619717419147491455078125">
        <ele>1839.199951171875</ele>
        <time>2026-08-31T05:42:29.000Z</time>
        <extensions>
          <ns3:TrackPointExtension>
            <ns3:hr>143</ns3:hr>
            <ns3:cad>59</ns3:cad>
          </ns3:TrackPointExtension>
        </extensions>
      </trkpt>
      <trkpt lat="44.67683044262230396270751953125" lon="6.7966410331428050994873046875">
        <ele>1839.199951171875</ele>
        <time>2026-08-31T05:42:30.000Z</time>
        <extensions>
          <ns3:TrackPointExtension>
            <ns3:hr>143</ns3:hr>
            <ns3:cad>59</ns3:cad>
          </ns3:TrackPointExtension>
        </extensions>
      </trkpt>
      <trkpt lat="44.6768315322697162628173828125" lon="6.79665788076817989349365234375">
        <ele>1839.4000244140625</ele>
        <time>2026-08-31T05:42:31.000Z</time>
        <extensions>
          <ns3:TrackPointExtension>
            <ns3:hr>144</ns3:hr>
            <ns3:cad>59</ns3:cad>
          </ns3:TrackPointExtension>
        </extensions>
      </trkpt>
      <trkpt lat="44.67683262191712856292724609375" lon="6.7966769076883792877197265625">
        <ele>1839.4000244140625</ele>
        <time>2026-08-31T05:42:32.000Z</time>
        <extensions>
          <ns3:TrackPointExtension>
            <ns3:hr>143</ns3:hr>
            <ns3:cad>59</ns3:cad>
          </ns3:TrackPointExtension>
        </extensions>
      </trkpt>
      <trkpt lat="44.6768342144787311553955078125" lon="6.796691156923770904541015625">
        <ele>1839.5999755859375</ele>
        <time>2026-08-31T05:42:33.000Z</time>
        <extensions>
          <ns3:TrackPointExtension>
            <ns3:hr>143</ns3:hr>
            <ns3:cad>59</ns3:cad>
          </ns3:TrackPointExtension>
        </extensions>
      </trkpt>
      <trkpt lat="44.67683429829776287078857421875" lon="6.7966963537037372589111328125">
        <ele>1839.5999755859375</ele>
        <time>2026-08-31T05:42:34.000Z</time>
        <extensions>
          <ns3:TrackPointExtension>
            <ns3:hr>143</ns3:hr>
            <ns3:cad>59</ns3:cad>
          </ns3:TrackPointExtension>
        </extensions>
      </trkpt>
      <trkpt lat="44.67683262191712856292724609375" lon="6.79669559933245182037353515625">
        <ele>1839.5999755859375</ele>
        <time>2026-08-31T05:42:35.000Z</time>
        <extensions>
          <ns3:TrackPointExtension>
            <ns3:hr>143</ns3:hr>
            <ns3:cad>0</ns3:cad>
          </ns3:TrackPointExtension>
        </extensions>
      </trkpt>
      <trkpt lat="44.6768311969935894012451171875" lon="6.7966948449611663818359375">
        <ele>1839.5999755859375</ele>
        <time>2026-08-31T05:42:36.000Z</time>
        <extensions>
          <ns3:TrackPointExtension>
            <ns3:hr>144</ns3:hr>
            <ns3:cad>0</ns3:cad>
          </ns3:TrackPointExtension>
        </extensions>
      </trkpt>
      <trkpt lat="44.67683136463165283203125" lon="6.79669492878019809722900390625">
        <ele>1839.5999755859375</ele>
        <time>2026-08-31T05:42:37.000Z</time>
        <extensions>
          <ns3:TrackPointExtension>
            <ns3:hr>143</ns3:hr>
            <ns3:cad>0</ns3:cad>
          </ns3:TrackPointExtension>
        </extensions>
      </trkpt>
      <trkpt lat="44.6768327057361602783203125" lon="6.7967077530920505523681640625">
        <ele>1839.5999755859375</ele>
        <time>2026-08-31T05:42:38.000Z</time>
        <extensions>
          <ns3:TrackPointExtension>
            <ns3:hr>142</ns3:hr>
            <ns3:cad>55</ns3:cad>
          </ns3:TrackPointExtension>
        </extensions>
      </trkpt>
      <trkpt lat="44.676833711564540863037109375" lon="6.79672275669872760772705078125">
        <ele>1839.5999755859375</ele>
        <time>2026-08-31T05:42:39.000Z</time>
        <extensions>
          <ns3:TrackPointExtension>
            <ns3:hr>142</ns3:hr>
            <ns3:cad>55</ns3:cad>
          </ns3:TrackPointExtension>
        </extensions>
      </trkpt>
      <trkpt lat="44.67683329246938228607177734375" lon="6.79673734121024608612060546875">
        <ele>1839.5999755859375</ele>
        <time>2026-08-31T05:42:40.000Z</time>
        <extensions>
          <ns3:TrackPointExtension>
            <ns3:hr>141</ns3:hr>
            <ns3:cad>0</ns3:cad>
          </ns3:TrackPointExtension>
        </extensions>
      </trkpt>
      <trkpt lat="44.67683211900293827056884765625" lon="6.79675460793077945709228515625">
        <ele>1839.5999755859375</ele>
        <time>2026-08-31T05:42:41.000Z</time>
        <extensions>
          <ns3:TrackPointExtension>
            <ns3:hr>138</ns3:hr>
            <ns3:cad>0</ns3:cad>
          </ns3:TrackPointExtension>
        </extensions>
      </trkpt>
      <trkpt lat="44.67683128081262111663818359375" lon="6.7967712879180908203125">
        <ele>1839.800048828125</ele>
        <time>2026-08-31T05:42:42.000Z</time>
        <extensions>
          <ns3:TrackPointExtension>
            <ns3:hr>138</ns3:hr>
            <ns3:cad>50</ns3:cad>
          </ns3:TrackPointExtension>
        </extensions>
      </trkpt>
      <trkpt lat="44.676830358803272247314453125" lon="6.79678536951541900634765625">
        <ele>1839.800048828125</ele>
        <time>2026-08-31T05:42:43.000Z</time>
        <extensions>
          <ns3:TrackPointExtension>
            <ns3:hr>138</ns3:hr>
            <ns3:cad>51</ns3:cad>
          </ns3:TrackPointExtension>
        </extensions>
      </trkpt>
      <trkpt lat="44.676830358803272247314453125" lon="6.7967999540269374847412109375">
        <ele>1840</ele>
        <time>2026-08-31T05:42:44.000Z</time>
        <extensions>
          <ns3:TrackPointExtension>
            <ns3:hr>139</ns3:hr>
            <ns3:cad>51</ns3:cad>
          </ns3:TrackPointExtension>
        </extensions>
      </trkpt>
      <trkpt lat="44.67682993970811367034912109375" lon="6.79681244306266307830810546875">
        <ele>1840</ele>
        <time>2026-08-31T05:42:45.000Z</time>
        <extensions>
          <ns3:TrackPointExtension>
            <ns3:hr>138</ns3:hr>
            <ns3:cad>55</ns3:cad>
          </ns3:TrackPointExtension>
        </extensions>
      </trkpt>
      <trkpt lat="44.6768295206129550933837890625" lon="6.796827614307403564453125">
        <ele>1840</ele>
        <time>2026-08-31T05:42:46.000Z</time>
        <extensions>
          <ns3:TrackPointExtension>
            <ns3:hr>138</ns3:hr>
            <ns3:cad>56</ns3:cad>
          </ns3:TrackPointExtension>
        </extensions>
      </trkpt>
      <trkpt lat="44.6768298558890819549560546875" lon="6.79684177972376346588134765625">
        <ele>1840</ele>
        <time>2026-08-31T05:42:47.000Z</time>
        <extensions>
          <ns3:TrackPointExtension>
            <ns3:hr>138</ns3:hr>
            <ns3:cad>57</ns3:cad>
          </ns3:TrackPointExtension>
        </extensions>
      </trkpt>
      <trkpt lat="44.67683094553649425506591796875" lon="6.7968566156923770904541015625">
        <ele>1840.199951171875</ele>
        <time>2026-08-31T05:42:48.000Z</time>
        <extensions>
          <ns3:TrackPointExtension>
            <ns3:hr>138</ns3:hr>
            <ns3:cad>57</ns3:cad>
          </ns3:TrackPointExtension>
        </extensions>
      </trkpt>
      <trkpt lat="44.6768315322697162628173828125" lon="6.79687044583261013031005859375">
        <ele>1840.199951171875</ele>
        <time>2026-08-31T05:42:49.000Z</time>
        <extensions>
          <ns3:TrackPointExtension>
            <ns3:hr>138</ns3:hr>
            <ns3:cad>57</ns3:cad>
          </ns3:TrackPointExtension>
        </extensions>
      </trkpt>
      <trkpt lat="44.6768322028219699859619140625" lon="6.79688385687768459320068359375">
        <ele>1840.199951171875</ele>
        <time>2026-08-31T05:42:50.000Z</time>
        <extensions>
          <ns3:TrackPointExtension>
            <ns3:hr>137</ns3:hr>
            <ns3:cad>57</ns3:cad>
          </ns3:TrackPointExtension>
        </extensions>
      </trkpt>
      <trkpt lat="44.676833711564540863037109375" lon="6.79689995013177394866943359375">
        <ele>1840.199951171875</ele>
        <time>2026-08-31T05:42:51.000Z</time>
        <extensions>
          <ns3:TrackPointExtension>
            <ns3:hr>137</ns3:hr>
            <ns3:cad>57</ns3:cad>
          </ns3:TrackPointExtension>
        </extensions>
      </trkpt>
      <trkpt lat="44.6768352203071117401123046875" lon="6.79691570810973644256591796875">
        <ele>1840.4000244140625</ele>
        <time>2026-08-31T05:42:52.000Z</time>
        <extensions>
          <ns3:TrackPointExtension>
            <ns3:hr>137</ns3:hr>
            <ns3:cad>57</ns3:cad>
          </ns3:TrackPointExtension>
        </extensions>
      </trkpt>
      <trkpt lat="44.67683630995452404022216796875" lon="6.79693548940122127532958984375">
        <ele>1840.4000244140625</ele>
        <time>2026-08-31T05:42:53.000Z</time>
        <extensions>
          <ns3:TrackPointExtension>
            <ns3:hr>137</ns3:hr>
            <ns3:cad>57</ns3:cad>
          </ns3:TrackPointExtension>
        </extensions>
      </trkpt>
      <trkpt lat="44.67683605849742889404296875" lon="6.79695761762559413909912109375">
        <ele>1840.4000244140625</ele>
        <time>2026-08-31T05:42:54.000Z</time>
        <extensions>
          <ns3:TrackPointExtension>
            <ns3:hr>136</ns3:hr>
            <ns3:cad>58</ns3:cad>
          </ns3:TrackPointExtension>
        </extensions>
      </trkpt>
      <trkpt lat="44.67683698050677776336669921875" lon="6.7969764769077301025390625">
        <ele>1840.4000244140625</ele>
        <time>2026-08-31T05:42:55.000Z</time>
        <extensions>
          <ns3:TrackPointExtension>
            <ns3:hr>136</ns3:hr>
            <ns3:cad>58</ns3:cad>
          </ns3:TrackPointExtension>
        </extensions>
      </trkpt>
      <trkpt lat="44.6768382377922534942626953125" lon="6.79699198342859745025634765625">
        <ele>1840.4000244140625</ele>
        <time>2026-08-31T05:42:56.000Z</time>
        <extensions>
          <ns3:TrackPointExtension>
            <ns3:hr>136</ns3:hr>
            <ns3:cad>59</ns3:cad>
          </ns3:TrackPointExtension>
        </extensions>
      </trkpt>
      <trkpt lat="44.67683899216353893280029296875" lon="6.79700790904462337493896484375">
        <ele>1840.4000244140625</ele>
        <time>2026-08-31T05:42:57.000Z</time>
        <extensions>
          <ns3:TrackPointExtension>
            <ns3:hr>136</ns3:hr>
            <ns3:cad>59</ns3:cad>
          </ns3:TrackPointExtension>
        </extensions>
      </trkpt>
      <trkpt lat="44.67684008181095123291015625" lon="6.79702584631741046905517578125">
        <ele>1840.4000244140625</ele>
        <time>2026-08-31T05:42:58.000Z</time>
        <extensions>
          <ns3:TrackPointExtension>
            <ns3:hr>136</ns3:hr>
            <ns3:cad>59</ns3:cad>
          </ns3:TrackPointExtension>
        </extensions>
      </trkpt>
      <trkpt lat="44.6768419258296489715576171875" lon="6.79704311303794384002685546875">
        <ele>1840.4000244140625</ele>
        <time>2026-08-31T05:42:59.000Z</time>
        <extensions>
          <ns3:TrackPointExtension>
            <ns3:hr>135</ns3:hr>
            <ns3:cad>60</ns3:cad>
          </ns3:TrackPointExtension>
        </extensions>
      </trkpt>
      <trkpt lat="44.67684418894350528717041015625" lon="6.79706105031073093414306640625">
        <ele>1840.4000244140625</ele>
        <time>2026-08-31T05:43:00.000Z</time>
        <extensions>
          <ns3:TrackPointExtension>
            <ns3:hr>134</ns3:hr>
            <ns3:cad>60</ns3:cad>
          </ns3:TrackPointExtension>
        </extensions>
      </trkpt>
      <trkpt lat="44.67684586532413959503173828125" lon="6.79707714356482028961181640625">
        <ele>1840.4000244140625</ele>
        <time>2026-08-31T05:43:01.000Z</time>
        <extensions>
          <ns3:TrackPointExtension>
            <ns3:hr>134</ns3:hr>
            <ns3:cad>61</ns3:cad>
          </ns3:TrackPointExtension>
        </extensions>
      </trkpt>
      <trkpt lat="44.67684871517121791839599609375" lon="6.7970933206379413604736328125">
        <ele>1840.4000244140625</ele>
        <time>2026-08-31T05:43:02.000Z</time>
        <extensions>
          <ns3:TrackPointExtension>
            <ns3:hr>134</ns3:hr>
            <ns3:cad>60</ns3:cad>
          </ns3:TrackPointExtension>
        </extensions>
      </trkpt>
      <trkpt lat="44.6768519841134548187255859375" lon="6.797109581530094146728515625">
        <ele>1840.4000244140625</ele>
        <time>2026-08-31T05:43:03.000Z</time>
        <extensions>
          <ns3:TrackPointExtension>
            <ns3:hr>134</ns3:hr>
            <ns3:cad>60</ns3:cad>
          </ns3:TrackPointExtension>
        </extensions>
      </trkpt>
      <trkpt lat="44.67685525305569171905517578125" lon="6.7971265129745006561279296875">
        <ele>1840.4000244140625</ele>
        <time>2026-08-31T05:43:04.000Z</time>
        <extensions>
          <ns3:TrackPointExtension>
            <ns3:hr>133</ns3:hr>
            <ns3:cad>59</ns3:cad>
          </ns3:TrackPointExtension>
        </extensions>
      </trkpt>
      <trkpt lat="44.67685726471245288848876953125" lon="6.79714118130505084991455078125">
        <ele>1840.4000244140625</ele>
        <time>2026-08-31T05:43:05.000Z</time>
        <extensions>
          <ns3:TrackPointExtension>
            <ns3:hr>133</ns3:hr>
            <ns3:cad>59</ns3:cad>
          </ns3:TrackPointExtension>
        </extensions>
      </trkpt>
      <trkpt lat="44.6768595278263092041015625" lon="6.79715727455914020538330078125">
        <ele>1840.4000244140625</ele>
        <time>2026-08-31T05:43:06.000Z</time>
        <extensions>
          <ns3:TrackPointExtension>
            <ns3:hr>132</ns3:hr>
            <ns3:cad>59</ns3:cad>
          </ns3:TrackPointExtension>
        </extensions>
      </trkpt>
      <trkpt lat="44.67686246149241924285888671875" lon="6.79717470891773700714111328125">
        <ele>1840.4000244140625</ele>
        <time>2026-08-31T05:43:07.000Z</time>
        <extensions>
          <ns3:TrackPointExtension>
            <ns3:hr>132</ns3:hr>
            <ns3:cad>59</ns3:cad>
          </ns3:TrackPointExtension>
        </extensions>
      </trkpt>
      <trkpt lat="44.6768660657107830047607421875" lon="6.79719281382858753204345703125">
        <ele>1840.4000244140625</ele>
        <time>2026-08-31T05:43:08.000Z</time>
        <extensions>
          <ns3:TrackPointExtension>
            <ns3:hr>131</ns3:hr>
            <ns3:cad>59</ns3:cad>
          </ns3:TrackPointExtension>
        </extensions>
      </trkpt>
      <trkpt lat="44.67687000520527362823486328125" lon="6.7972125113010406494140625">
        <ele>1840.4000244140625</ele>
        <time>2026-08-31T05:43:09.000Z</time>
        <extensions>
          <ns3:TrackPointExtension>
            <ns3:hr>131</ns3:hr>
            <ns3:cad>59</ns3:cad>
          </ns3:TrackPointExtension>
        </extensions>
      </trkpt>
      <trkpt lat="44.6768747828900814056396484375" lon="6.7972321249544620513916015625">
        <ele>1840.199951171875</ele>
        <time>2026-08-31T05:43:10.000Z</time>
        <extensions>
          <ns3:TrackPointExtension>
            <ns3:hr>130</ns3:hr>
            <ns3:cad>59</ns3:cad>
          </ns3:TrackPointExtension>
        </extensions>
      </trkpt>
      <trkpt lat="44.67687922529876232147216796875" lon="6.7972488887608051300048828125">
        <ele>1840</ele>
        <time>2026-08-31T05:43:11.000Z</time>
        <extensions>
          <ns3:TrackPointExtension>
            <ns3:hr>130</ns3:hr>
            <ns3:cad>60</ns3:cad>
          </ns3:TrackPointExtension>
        </extensions>
      </trkpt>
      <trkpt lat="44.67688458971679210662841796875" lon="6.79726414382457733154296875">
        <ele>1840</ele>
        <time>2026-08-31T05:43:12.000Z</time>
        <extensions>
          <ns3:TrackPointExtension>
            <ns3:hr>130</ns3:hr>
            <ns3:cad>61</ns3:cad>
          </ns3:TrackPointExtension>
        </extensions>
      </trkpt>
      <trkpt lat="44.67689045704901218414306640625" lon="6.79728099144995212554931640625">
        <ele>1840</ele>
        <time>2026-08-31T05:43:13.000Z</time>
        <extensions>
          <ns3:TrackPointExtension>
            <ns3:hr>130</ns3:hr>
            <ns3:cad>61</ns3:cad>
          </ns3:TrackPointExtension>
        </extensions>
      </trkpt>
      <trkpt lat="44.67689632438123226165771484375" lon="6.797297000885009765625">
        <ele>1840.199951171875</ele>
        <time>2026-08-31T05:43:14.000Z</time>
        <extensions>
          <ns3:TrackPointExtension>
            <ns3:hr>129</ns3:hr>
            <ns3:cad>62</ns3:cad>
          </ns3:TrackPointExtension>
        </extensions>
      </trkpt>
      <trkpt lat="44.67690252698957920074462890625" lon="6.797313429415225982666015625">
        <ele>1840.199951171875</ele>
        <time>2026-08-31T05:43:15.000Z</time>
        <extensions>
          <ns3:TrackPointExtension>
            <ns3:hr>129</ns3:hr>
            <ns3:cad>62</ns3:cad>
          </ns3:TrackPointExtension>
        </extensions>
      </trkpt>
      <trkpt lat="44.676910154521465301513671875" lon="6.7973290197551250457763671875">
        <ele>1840.4000244140625</ele>
        <time>2026-08-31T05:43:16.000Z</time>
        <extensions>
          <ns3:TrackPointExtension>
            <ns3:hr>129</ns3:hr>
            <ns3:cad>62</ns3:cad>
          </ns3:TrackPointExtension>
        </extensions>
      </trkpt>
      <trkpt lat="44.67691644094884395599365234375" lon="6.7973427660763263702392578125">
        <ele>1840.4000244140625</ele>
        <time>2026-08-31T05:43:17.000Z</time>
        <extensions>
          <ns3:TrackPointExtension>
            <ns3:hr>129</ns3:hr>
            <ns3:cad>62</ns3:cad>
          </ns3:TrackPointExtension>
        </extensions>
      </trkpt>
      <trkpt lat="44.67692214064300060272216796875" lon="6.79735642857849597930908203125">
        <ele>1840.4000244140625</ele>
        <time>2026-08-31T05:43:18.000Z</time>
        <extensions>
          <ns3:TrackPointExtension>
            <ns3:hr>128</ns3:hr>
            <ns3:cad>61</ns3:cad>
          </ns3:TrackPointExtension>
        </extensions>
      </trkpt>
      <trkpt lat="44.67692700214684009552001953125" lon="6.797373779118061065673828125">
        <ele>1840.4000244140625</ele>
        <time>2026-08-31T05:43:19.000Z</time>
        <extensions>
          <ns3:TrackPointExtension>
            <ns3:hr>128</ns3:hr>
            <ns3:cad>61</ns3:cad>
          </ns3:TrackPointExtension>
        </extensions>
      </trkpt>
      <trkpt lat="44.67693328857421875" lon="6.79739079438149929046630859375">
        <ele>1840.4000244140625</ele>
        <time>2026-08-31T05:43:20.000Z</time>
        <extensions>
          <ns3:TrackPointExtension>
            <ns3:hr>128</ns3:hr>
            <ns3:cad>61</ns3:cad>
          </ns3:TrackPointExtension>
        </extensions>
      </trkpt>
      <trkpt lat="44.67693932354450225830078125" lon="6.7974094860255718231201171875">
        <ele>1840.4000244140625</ele>
        <time>2026-08-31T05:43:21.000Z</time>
        <extensions>
          <ns3:TrackPointExtension>
            <ns3:hr>128</ns3:hr>
            <ns3:cad>61</ns3:cad>
          </ns3:TrackPointExtension>
        </extensions>
      </trkpt>
      <trkpt lat="44.6769426763057708740234375" lon="6.79742482490837574005126953125">
        <ele>1840.4000244140625</ele>
        <time>2026-08-31T05:43:22.000Z</time>
        <extensions>
          <ns3:TrackPointExtension>
            <ns3:hr>128</ns3:hr>
            <ns3:cad>61</ns3:cad>
          </ns3:TrackPointExtension>
        </extensions>
      </trkpt>
      <trkpt lat="44.6769461967051029205322265625" lon="6.79743790067732334136962890625">
        <ele>1840.4000244140625</ele>
        <time>2026-08-31T05:43:23.000Z</time>
        <extensions>
          <ns3:TrackPointExtension>
            <ns3:hr>127</ns3:hr>
            <ns3:cad>61</ns3:cad>
          </ns3:TrackPointExtension>
        </extensions>
      </trkpt>
      <trkpt lat="44.6769505552947521209716796875" lon="6.79745080880820751190185546875">
        <ele>1840.5999755859375</ele>
        <time>2026-08-31T05:43:24.000Z</time>
        <extensions>
          <ns3:TrackPointExtension>
            <ns3:hr>127</ns3:hr>
            <ns3:cad>61</ns3:cad>
          </ns3:TrackPointExtension>
        </extensions>
      </trkpt>
      <trkpt lat="44.676954410970211029052734375" lon="6.79746799170970916748046875">
        <ele>1840.5999755859375</ele>
        <time>2026-08-31T05:43:25.000Z</time>
        <extensions>
          <ns3:TrackPointExtension>
            <ns3:hr>127</ns3:hr>
            <ns3:cad>61</ns3:cad>
          </ns3:TrackPointExtension>
        </extensions>
      </trkpt>
      <trkpt lat="44.6769599430263042449951171875" lon="6.797485090792179107666015625">
        <ele>1840.800048828125</ele>
        <time>2026-08-31T05:43:26.000Z</time>
        <extensions>
          <ns3:TrackPointExtension>
            <ns3:hr>127</ns3:hr>
            <ns3:cad>61</ns3:cad>
          </ns3:TrackPointExtension>
        </extensions>
      </trkpt>
      <trkpt lat="44.67696438543498516082763671875" lon="6.79750160314142704010009765625">
        <ele>1841</ele>
        <time>2026-08-31T05:43:27.000Z</time>
        <extensions>
          <ns3:TrackPointExtension>
            <ns3:hr>127</ns3:hr>
            <ns3:cad>60</ns3:cad>
          </ns3:TrackPointExtension>
        </extensions>
      </trkpt>
      <trkpt lat="44.67696874402463436126708984375" lon="6.79751652292907238006591796875">
        <ele>1841</ele>
        <time>2026-08-31T05:43:28.000Z</time>
        <extensions>
          <ns3:TrackPointExtension>
            <ns3:hr>127</ns3:hr>
            <ns3:cad>59</ns3:cad>
          </ns3:TrackPointExtension>
        </extensions>
      </trkpt>
      <trkpt lat="44.676973856985569000244140625" lon="6.797533370554447174072265625">
        <ele>1841.199951171875</ele>
        <time>2026-08-31T05:43:29.000Z</time>
        <extensions>
          <ns3:TrackPointExtension>
            <ns3:hr>126</ns3:hr>
            <ns3:cad>59</ns3:cad>
          </ns3:TrackPointExtension>
        </extensions>
      </trkpt>
      <trkpt lat="44.6769775450229644775390625" lon="6.79755122400820255279541015625">
        <ele>1841.199951171875</ele>
        <time>2026-08-31T05:43:30.000Z</time>
        <extensions>
          <ns3:TrackPointExtension>
            <ns3:hr>126</ns3:hr>
            <ns3:cad>59</ns3:cad>
          </ns3:TrackPointExtension>
        </extensions>
      </trkpt>
      <trkpt lat="44.67698215506970882415771484375" lon="6.79756748490035533905029296875">
        <ele>1841.199951171875</ele>
        <time>2026-08-31T05:43:31.000Z</time>
        <extensions>
          <ns3:TrackPointExtension>
            <ns3:hr>125</ns3:hr>
            <ns3:cad>59</ns3:cad>
          </ns3:TrackPointExtension>
        </extensions>
      </trkpt>
      <trkpt lat="44.6769871003925800323486328125" lon="6.79758374579250812530517578125">
        <ele>1841.199951171875</ele>
        <time>2026-08-31T05:43:32.000Z</time>
        <extensions>
          <ns3:TrackPointExtension>
            <ns3:hr>125</ns3:hr>
            <ns3:cad>59</ns3:cad>
          </ns3:TrackPointExtension>
        </extensions>
      </trkpt>
      <trkpt lat="44.67699087224900722503662109375" lon="6.7975989170372486114501953125">
        <ele>1841.4000244140625</ele>
        <time>2026-08-31T05:43:33.000Z</time>
        <extensions>
          <ns3:TrackPointExtension>
            <ns3:hr>125</ns3:hr>
            <ns3:cad>59</ns3:cad>
          </ns3:TrackPointExtension>
        </extensions>
      </trkpt>
      <trkpt lat="44.6769944764673709869384765625" lon="6.79761526174843311309814453125">
        <ele>1841.4000244140625</ele>
        <time>2026-08-31T05:43:34.000Z</time>
        <extensions>
          <ns3:TrackPointExtension>
            <ns3:hr>124</ns3:hr>
            <ns3:cad>59</ns3:cad>
          </ns3:TrackPointExtension>
        </extensions>
      </trkpt>
      <trkpt lat="44.6769984997808933258056640625" lon="6.79763219319283962249755859375">
        <ele>1841.5999755859375</ele>
        <time>2026-08-31T05:43:35.000Z</time>
        <extensions>
          <ns3:TrackPointExtension>
            <ns3:hr>124</ns3:hr>
            <ns3:cad>59</ns3:cad>
          </ns3:TrackPointExtension>
        </extensions>
      </trkpt>
      <trkpt lat="44.67700361274182796478271484375" lon="6.79764795117080211639404296875">
        <ele>1841.5999755859375</ele>
        <time>2026-08-31T05:43:36.000Z</time>
        <extensions>
          <ns3:TrackPointExtension>
            <ns3:hr>124</ns3:hr>
            <ns3:cad>59</ns3:cad>
          </ns3:TrackPointExtension>
        </extensions>
      </trkpt>
      <trkpt lat="44.677008055150508880615234375" lon="6.79766513407230377197265625">
        <ele>1841.5999755859375</ele>
        <time>2026-08-31T05:43:37.000Z</time>
        <extensions>
          <ns3:TrackPointExtension>
            <ns3:hr>124</ns3:hr>
            <ns3:cad>59</ns3:cad>
          </ns3:TrackPointExtension>
        </extensions>
      </trkpt>
      <trkpt lat="44.67701216228306293487548828125" lon="6.79768298752605915069580078125">
        <ele>1841.800048828125</ele>
        <time>2026-08-31T05:43:38.000Z</time>
        <extensions>
          <ns3:TrackPointExtension>
            <ns3:hr>125</ns3:hr>
            <ns3:cad>59</ns3:cad>
          </ns3:TrackPointExtension>
        </extensions>
      </trkpt>
      <trkpt lat="44.6770149283111095428466796875" lon="6.79769740439951419830322265625">
        <ele>1841.800048828125</ele>
        <time>2026-08-31T05:43:39.000Z</time>
        <extensions>
          <ns3:TrackPointExtension>
            <ns3:hr>125</ns3:hr>
            <ns3:cad>59</ns3:cad>
          </ns3:TrackPointExtension>
        </extensions>
      </trkpt>
      <trkpt lat="44.677018783986568450927734375" lon="6.79771031253039836883544921875">
        <ele>1841.800048828125</ele>
        <time>2026-08-31T05:43:40.000Z</time>
        <extensions>
          <ns3:TrackPointExtension>
            <ns3:hr>125</ns3:hr>
            <ns3:cad>60</ns3:cad>
          </ns3:TrackPointExtension>
        </extensions>
      </trkpt>
      <trkpt lat="44.67702289111912250518798828125" lon="6.7977221310138702392578125">
        <ele>1841.800048828125</ele>
        <time>2026-08-31T05:43:41.000Z</time>
        <extensions>
          <ns3:TrackPointExtension>
            <ns3:hr>125</ns3:hr>
            <ns3:cad>60</ns3:cad>
          </ns3:TrackPointExtension>
        </extensions>
      </trkpt>
      <trkpt lat="44.67702691443264484405517578125" lon="6.7977393977344036102294921875">
        <ele>1841.800048828125</ele>
        <time>2026-08-31T05:43:42.000Z</time>
        <extensions>
          <ns3:TrackPointExtension>
            <ns3:hr>125</ns3:hr>
            <ns3:cad>60</ns3:cad>
          </ns3:TrackPointExtension>
        </extensions>
      </trkpt>
      <trkpt lat="44.67703144066035747528076171875" lon="6.797755658626556396484375">
        <ele>1841.800048828125</ele>
        <time>2026-08-31T05:43:43.000Z</time>
        <extensions>
          <ns3:TrackPointExtension>
            <ns3:hr>126</ns3:hr>
            <ns3:cad>59</ns3:cad>
          </ns3:TrackPointExtension>
        </extensions>
      </trkpt>
      <trkpt lat="44.67703496105968952178955078125" lon="6.79777116514742374420166015625">
        <ele>1841.5999755859375</ele>
        <time>2026-08-31T05:43:44.000Z</time>
        <extensions>
          <ns3:TrackPointExtension>
            <ns3:hr>126</ns3:hr>
            <ns3:cad>59</ns3:cad>
          </ns3:TrackPointExtension>
        </extensions>
      </trkpt>
      <trkpt lat="44.677038230001926422119140625" lon="6.797782480716705322265625">
        <ele>1841.5999755859375</ele>
        <time>2026-08-31T05:43:45.000Z</time>
        <extensions>
          <ns3:TrackPointExtension>
            <ns3:hr>126</ns3:hr>
            <ns3:cad>59</ns3:cad>
          </ns3:TrackPointExtension>
        </extensions>
      </trkpt>
      <trkpt lat="44.67704183422029018402099609375" lon="6.79779714904725551605224609375">
        <ele>1841.5999755859375</ele>
        <time>2026-08-31T05:43:46.000Z</time>
        <extensions>
          <ns3:TrackPointExtension>
            <ns3:hr>126</ns3:hr>
            <ns3:cad>59</ns3:cad>
          </ns3:TrackPointExtension>
        </extensions>
      </trkpt>
      <trkpt lat="44.67704669572412967681884765625" lon="6.79781667888164520263671875">
        <ele>1841.5999755859375</ele>
        <time>2026-08-31T05:43:47.000Z</time>
        <extensions>
          <ns3:TrackPointExtension>
            <ns3:hr>126</ns3:hr>
            <ns3:cad>59</ns3:cad>
          </ns3:TrackPointExtension>
        </extensions>
      </trkpt>
      <trkpt lat="44.67705273069441318511962890625" lon="6.7978362925350666046142578125">
        <ele>1841.5999755859375</ele>
        <time>2026-08-31T05:43:48.000Z</time>
        <extensions>
          <ns3:TrackPointExtension>
            <ns3:hr>126</ns3:hr>
            <ns3:cad>58</ns3:cad>
          </ns3:TrackPointExtension>
        </extensions>
      </trkpt>
      <trkpt lat="44.677057005465030670166015625" lon="6.79785062558948993682861328125">
        <ele>1841.5999755859375</ele>
        <time>2026-08-31T05:43:49.000Z</time>
        <extensions>
          <ns3:TrackPointExtension>
            <ns3:hr>127</ns3:hr>
            <ns3:cad>58</ns3:cad>
          </ns3:TrackPointExtension>
        </extensions>
      </trkpt>
      <trkpt lat="44.6770618669688701629638671875" lon="6.79786839522421360015869140625">
        <ele>1841.800048828125</ele>
        <time>2026-08-31T05:43:50.000Z</time>
        <extensions>
          <ns3:TrackPointExtension>
            <ns3:hr>128</ns3:hr>
            <ns3:cad>60</ns3:cad>
          </ns3:TrackPointExtension>
        </extensions>
      </trkpt>
      <trkpt lat="44.6770668961107730865478515625" lon="6.7978852428495883941650390625">
        <ele>1841.800048828125</ele>
        <time>2026-08-31T05:43:51.000Z</time>
        <extensions>
          <ns3:TrackPointExtension>
            <ns3:hr>129</ns3:hr>
            <ns3:cad>60</ns3:cad>
          </ns3:TrackPointExtension>
        </extensions>
      </trkpt>
      <trkpt lat="44.6770722605288028717041015625" lon="6.797902844846248626708984375">
        <ele>1842</ele>
        <time>2026-08-31T05:43:52.000Z</time>
        <extensions>
          <ns3:TrackPointExtension>
            <ns3:hr>129</ns3:hr>
            <ns3:cad>61</ns3:cad>
          </ns3:TrackPointExtension>
        </extensions>
      </trkpt>
      <trkpt lat="44.67708039097487926483154296875" lon="6.797920279204845428466796875">
        <ele>1842</ele>
        <time>2026-08-31T05:43:53.000Z</time>
        <extensions>
          <ns3:TrackPointExtension>
            <ns3:hr>129</ns3:hr>
            <ns3:cad>62</ns3:cad>
          </ns3:TrackPointExtension>
        </extensions>
      </trkpt>
      <trkpt lat="44.67708818614482879638671875" lon="6.79793645627796649932861328125">
        <ele>1842</ele>
        <time>2026-08-31T05:43:54.000Z</time>
        <extensions>
          <ns3:TrackPointExtension>
            <ns3:hr>129</ns3:hr>
            <ns3:cad>62</ns3:cad>
          </ns3:TrackPointExtension>
        </extensions>
      </trkpt>
      <trkpt lat="44.6770974062383174896240234375" lon="6.79795087315142154693603515625">
        <ele>1842</ele>
        <time>2026-08-31T05:43:55.000Z</time>
        <extensions>
          <ns3:TrackPointExtension>
            <ns3:hr>129</ns3:hr>
            <ns3:cad>62</ns3:cad>
          </ns3:TrackPointExtension>
        </extensions>
      </trkpt>
      <trkpt lat="44.67710654251277446746826171875" lon="6.79796411655843257904052734375">
        <ele>1842</ele>
        <time>2026-08-31T05:43:56.000Z</time>
        <extensions>
          <ns3:TrackPointExtension>
            <ns3:hr>129</ns3:hr>
            <ns3:cad>62</ns3:cad>
          </ns3:TrackPointExtension>
        </extensions>
      </trkpt>
      <trkpt lat="44.67711609788239002227783203125" lon="6.7979761026799678802490234375">
        <ele>1842</ele>
        <time>2026-08-31T05:43:57.000Z</time>
        <extensions>
          <ns3:TrackPointExtension>
            <ns3:hr>128</ns3:hr>
            <ns3:cad>62</ns3:cad>
          </ns3:TrackPointExtension>
        </extensions>
      </trkpt>
      <trkpt lat="44.67712531797587871551513671875" lon="6.79799177683889865875244140625">
        <ele>1841.800048828125</ele>
        <time>2026-08-31T05:43:58.000Z</time>
        <extensions>
          <ns3:TrackPointExtension>
            <ns3:hr>129</ns3:hr>
            <ns3:cad>62</ns3:cad>
          </ns3:TrackPointExtension>
        </extensions>
      </trkpt>
      <trkpt lat="44.6771356277167797088623046875" lon="6.7980118095874786376953125">
        <ele>1842</ele>
        <time>2026-08-31T05:43:59.000Z</time>
        <extensions>
          <ns3:TrackPointExtension>
            <ns3:hr>129</ns3:hr>
            <ns3:cad>62</ns3:cad>
          </ns3:TrackPointExtension>
        </extensions>
      </trkpt>
      <trkpt lat="44.6771466918289661407470703125" lon="6.79803284816443920135498046875">
        <ele>1842</ele>
        <time>2026-08-31T05:44:00.000Z</time>
        <extensions>
          <ns3:TrackPointExtension>
            <ns3:hr>128</ns3:hr>
            <ns3:cad>62</ns3:cad>
          </ns3:TrackPointExtension>
        </extensions>
      </trkpt>
      <trkpt lat="44.67715884558856487274169921875" lon="6.7980592511594295501708984375">
        <ele>1842</ele>
        <time>2026-08-31T05:44:01.000Z</time>
        <extensions>
          <ns3:TrackPointExtension>
            <ns3:hr>128</ns3:hr>
            <ns3:cad>58</ns3:cad>
          </ns3:TrackPointExtension>
        </extensions>
      </trkpt>
      <trkpt lat="44.6771718375384807586669921875" lon="6.79808448068797588348388671875">
        <ele>1842</ele>
        <time>2026-08-31T05:44:02.000Z</time>
        <extensions>
          <ns3:TrackPointExtension>
            <ns3:hr>128</ns3:hr>
            <ns3:cad>58</ns3:cad>
          </ns3:TrackPointExtension>
        </extensions>
      </trkpt>
      <trkpt lat="44.6771872602403163909912109375" lon="6.79810811765491962432861328125">
        <ele>1842</ele>
        <time>2026-08-31T05:44:03.000Z</time>
        <extensions>
          <ns3:TrackPointExtension>
            <ns3:hr>128</ns3:hr>
            <ns3:cad>83</ns3:cad>
          </ns3:TrackPointExtension>
        </extensions>
      </trkpt>
      <trkpt lat="44.6772070415318012237548828125" lon="6.7981353588402271270751953125">
        <ele>1842</ele>
        <time>2026-08-31T05:44:04.000Z</time>
        <extensions>
          <ns3:TrackPointExtension>
            <ns3:hr>128</ns3:hr>
            <ns3:cad>83</ns3:cad>
          </ns3:TrackPointExtension>
        </extensions>
      </trkpt>
      <trkpt lat="44.67722305096685886383056640625" lon="6.79816042073071002960205078125">
        <ele>1842</ele>
        <time>2026-08-31T05:44:05.000Z</time>
        <extensions>
          <ns3:TrackPointExtension>
            <ns3:hr>128</ns3:hr>
            <ns3:cad>82</ns3:cad>
          </ns3:TrackPointExtension>
        </extensions>
      </trkpt>
      <trkpt lat="44.67724517919123172760009765625" lon="6.79818757809698581695556640625">
        <ele>1842</ele>
        <time>2026-08-31T05:44:06.000Z</time>
        <extensions>
          <ns3:TrackPointExtension>
            <ns3:hr>128</ns3:hr>
            <ns3:cad>82</ns3:cad>
          </ns3:TrackPointExtension>
        </extensions>
      </trkpt>
      <trkpt lat="44.67726026661694049835205078125" lon="6.798211298882961273193359375">
        <ele>1842</ele>
        <time>2026-08-31T05:44:07.000Z</time>
        <extensions>
          <ns3:TrackPointExtension>
            <ns3:hr>128</ns3:hr>
            <ns3:cad>82</ns3:cad>
          </ns3:TrackPointExtension>
        </extensions>
      </trkpt>
      <trkpt lat="44.6772730909287929534912109375" lon="6.79823233745992183685302734375">
        <ele>1842</ele>
        <time>2026-08-31T05:44:08.000Z</time>
        <extensions>
          <ns3:TrackPointExtension>
            <ns3:hr>127</ns3:hr>
            <ns3:cad>82</ns3:cad>
          </ns3:TrackPointExtension>
        </extensions>
      </trkpt>
      <trkpt lat="44.6772871725261211395263671875" lon="6.79826117120683193206787109375">
        <ele>1842.199951171875</ele>
        <time>2026-08-31T05:44:09.000Z</time>
        <extensions>
          <ns3:TrackPointExtension>
            <ns3:hr>128</ns3:hr>
            <ns3:cad>82</ns3:cad>
          </ns3:TrackPointExtension>
        </extensions>
      </trkpt>
      <trkpt lat="44.6772938780486583709716796875" lon="6.79828296415507793426513671875">
        <ele>1842.199951171875</ele>
        <time>2026-08-31T05:44:10.000Z</time>
        <extensions>
          <ns3:TrackPointExtension>
            <ns3:hr>128</ns3:hr>
            <ns3:cad>82</ns3:cad>
          </ns3:TrackPointExtension>
        </extensions>
      </trkpt>
      <trkpt lat="44.67730619944632053375244140625" lon="6.7983068525791168212890625">
        <ele>1842.199951171875</ele>
        <time>2026-08-31T05:44:11.000Z</time>
        <extensions>
          <ns3:TrackPointExtension>
            <ns3:hr>129</ns3:hr>
            <ns3:cad>81</ns3:cad>
          </ns3:TrackPointExtension>
        </extensions>
      </trkpt>
      <trkpt lat="44.6773186884820461273193359375" lon="6.7983331717550754547119140625">
        <ele>1842.199951171875</ele>
        <time>2026-08-31T05:44:12.000Z</time>
        <extensions>
          <ns3:TrackPointExtension>
            <ns3:hr>129</ns3:hr>
            <ns3:cad>81</ns3:cad>
          </ns3:TrackPointExtension>
        </extensions>
      </trkpt>
      <trkpt lat="44.6773274056613445281982421875" lon="6.7983536235988140106201171875">
        <ele>1842.199951171875</ele>
        <time>2026-08-31T05:44:13.000Z</time>
        <extensions>
          <ns3:TrackPointExtension>
            <ns3:hr>130</ns3:hr>
            <ns3:cad>81</ns3:cad>
          </ns3:TrackPointExtension>
        </extensions>
      </trkpt>
      <trkpt lat="44.6773424930870532989501953125" lon="6.798380948603153228759765625">
        <ele>1842.199951171875</ele>
        <time>2026-08-31T05:44:14.000Z</time>
        <extensions>
          <ns3:TrackPointExtension>
            <ns3:hr>130</ns3:hr>
            <ns3:cad>81</ns3:cad>
          </ns3:TrackPointExtension>
        </extensions>
      </trkpt>
      <trkpt lat="44.67735632322728633880615234375" lon="6.7984092794358730316162109375">
        <ele>1842.4000244140625</ele>
        <time>2026-08-31T05:44:15.000Z</time>
        <extensions>
          <ns3:TrackPointExtension>
            <ns3:hr>131</ns3:hr>
            <ns3:cad>81</ns3:cad>
          </ns3:TrackPointExtension>
        </extensions>
      </trkpt>
      <trkpt lat="44.67737040482461452484130859375" lon="6.79842947982251644134521484375">
        <ele>1842.4000244140625</ele>
        <time>2026-08-31T05:44:16.000Z</time>
        <extensions>
          <ns3:TrackPointExtension>
            <ns3:hr>131</ns3:hr>
            <ns3:cad>81</ns3:cad>
          </ns3:TrackPointExtension>
        </extensions>
      </trkpt>
      <trkpt lat="44.67738197185099124908447265625" lon="6.7984565533697605133056640625">
        <ele>1842.4000244140625</ele>
        <time>2026-08-31T05:44:17.000Z</time>
        <extensions>
          <ns3:TrackPointExtension>
            <ns3:hr>131</ns3:hr>
            <ns3:cad>81</ns3:cad>
          </ns3:TrackPointExtension>
        </extensions>
      </trkpt>
      <trkpt lat="44.67738918028771877288818359375" lon="6.7984840460121631622314453125">
        <ele>1842.5999755859375</ele>
        <time>2026-08-31T05:44:18.000Z</time>
        <extensions>
          <ns3:TrackPointExtension>
            <ns3:hr>131</ns3:hr>
            <ns3:cad>82</ns3:cad>
          </ns3:TrackPointExtension>
        </extensions>
      </trkpt>
      <trkpt lat="44.677398316562175750732421875" lon="6.79850894026458263397216796875">
        <ele>1842.5999755859375</ele>
        <time>2026-08-31T05:44:19.000Z</time>
        <extensions>
          <ns3:TrackPointExtension>
            <ns3:hr>131</ns3:hr>
            <ns3:cad>82</ns3:cad>
          </ns3:TrackPointExtension>
        </extensions>
      </trkpt>
      <trkpt lat="44.67741005122661590576171875" lon="6.7985346727073192596435546875">
        <ele>1842.5999755859375</ele>
        <time>2026-08-31T05:44:20.000Z</time>
        <extensions>
          <ns3:TrackPointExtension>
            <ns3:hr>132</ns3:hr>
            <ns3:cad>82</ns3:cad>
          </ns3:TrackPointExtension>
        </extensions>
      </trkpt>
      <trkpt lat="44.67742019332945346832275390625" lon="6.79855638183653354644775390625">
        <ele>1842.5999755859375</ele>
        <time>2026-08-31T05:44:21.000Z</time>
        <extensions>
          <ns3:TrackPointExtension>
            <ns3:hr>132</ns3:hr>
            <ns3:cad>82</ns3:cad>
          </ns3:TrackPointExtension>
        </extensions>
      </trkpt>
      <trkpt lat="44.67743746004998683929443359375" lon="6.79857817478477954864501953125">
        <ele>1842.800048828125</ele>
        <time>2026-08-31T05:44:22.000Z</time>
        <extensions>
          <ns3:TrackPointExtension>
            <ns3:hr>133</ns3:hr>
            <ns3:cad>82</ns3:cad>
          </ns3:TrackPointExtension>
        </extensions>
      </trkpt>
      <trkpt lat="44.67745698988437652587890625" lon="6.79859862662851810455322265625">
        <ele>1842.800048828125</ele>
        <time>2026-08-31T05:44:23.000Z</time>
        <extensions>
          <ns3:TrackPointExtension>
            <ns3:hr>133</ns3:hr>
            <ns3:cad>82</ns3:cad>
          </ns3:TrackPointExtension>
        </extensions>
      </trkpt>
      <trkpt lat="44.677473418414592742919921875" lon="6.79861119948327541351318359375">
        <ele>1843</ele>
        <time>2026-08-31T05:44:24.000Z</time>
        <extensions>
          <ns3:TrackPointExtension>
            <ns3:hr>133</ns3:hr>
            <ns3:cad>81</ns3:cad>
          </ns3:TrackPointExtension>
        </extensions>
      </trkpt>
      <trkpt lat="44.67749529518187046051025390625" lon="6.79863634519279003143310546875">
        <ele>1843.199951171875</ele>
        <time>2026-08-31T05:44:25.000Z</time>
        <extensions>
          <ns3:TrackPointExtension>
            <ns3:hr>134</ns3:hr>
            <ns3:cad>81</ns3:cad>
          </ns3:TrackPointExtension>
        </extensions>
      </trkpt>
      <trkpt lat="44.6775118075311183929443359375" lon="6.79865847341716289520263671875">
        <ele>1843.199951171875</ele>
        <time>2026-08-31T05:44:26.000Z</time>
        <extensions>
          <ns3:TrackPointExtension>
            <ns3:hr>134</ns3:hr>
            <ns3:cad>82</ns3:cad>
          </ns3:TrackPointExtension>
        </extensions>
      </trkpt>
      <trkpt lat="44.677531421184539794921875" lon="6.7986764945089817047119140625">
        <ele>1843</ele>
        <time>2026-08-31T05:44:27.000Z</time>
        <extensions>
          <ns3:TrackPointExtension>
            <ns3:hr>134</ns3:hr>
            <ns3:cad>83</ns3:cad>
          </ns3:TrackPointExtension>
        </extensions>
      </trkpt>
      <trkpt lat="44.67755396850407123565673828125" lon="6.79870289750397205352783203125">
        <ele>1843</ele>
        <time>2026-08-31T05:44:28.000Z</time>
        <extensions>
          <ns3:TrackPointExtension>
            <ns3:hr>135</ns3:hr>
            <ns3:cad>83</ns3:cad>
          </ns3:TrackPointExtension>
        </extensions>
      </trkpt>
      <trkpt lat="44.67756888829171657562255859375" lon="6.79872720502316951751708984375">
        <ele>1843</ele>
        <time>2026-08-31T05:44:29.000Z</time>
        <extensions>
          <ns3:TrackPointExtension>
            <ns3:hr>135</ns3:hr>
            <ns3:cad>82</ns3:cad>
          </ns3:TrackPointExtension>
        </extensions>
      </trkpt>
      <trkpt lat="44.67758447863161563873291015625" lon="6.7987536080181598663330078125">
        <ele>1842.800048828125</ele>
        <time>2026-08-31T05:44:30.000Z</time>
        <extensions>
          <ns3:TrackPointExtension>
            <ns3:hr>135</ns3:hr>
            <ns3:cad>82</ns3:cad>
          </ns3:TrackPointExtension>
        </extensions>
      </trkpt>
      <trkpt lat="44.6776003204286098480224609375" lon="6.79878001101315021514892578125">
        <ele>1842.800048828125</ele>
        <time>2026-08-31T05:44:31.000Z</time>
        <extensions>
          <ns3:TrackPointExtension>
            <ns3:hr>136</ns3:hr>
            <ns3:cad>81</ns3:cad>
          </ns3:TrackPointExtension>
        </extensions>
      </trkpt>
      <trkpt lat="44.67761297710239887237548828125" lon="6.79880113340914249420166015625">
        <ele>1842.5999755859375</ele>
        <time>2026-08-31T05:44:32.000Z</time>
        <extensions>
          <ns3:TrackPointExtension>
            <ns3:hr>136</ns3:hr>
            <ns3:cad>81</ns3:cad>
          </ns3:TrackPointExtension>
        </extensions>
      </trkpt>
      <trkpt lat="44.677624963223934173583984375" lon="6.7988327331840991973876953125">
        <ele>1842.5999755859375</ele>
        <time>2026-08-31T05:44:33.000Z</time>
        <extensions>
          <ns3:TrackPointExtension>
            <ns3:hr>137</ns3:hr>
            <ns3:cad>81</ns3:cad>
          </ns3:TrackPointExtension>
        </extensions>
      </trkpt>
      <trkpt lat="44.67763359658420085906982421875" lon="6.7988625727593898773193359375">
        <ele>1842.5999755859375</ele>
        <time>2026-08-31T05:44:34.000Z</time>
        <extensions>
          <ns3:TrackPointExtension>
            <ns3:hr>137</ns3:hr>
            <ns3:cad>82</ns3:cad>
          </ns3:TrackPointExtension>
        </extensions>
      </trkpt>
      <trkpt lat="44.6776442416012287139892578125" lon="6.7988880537450313568115234375">
        <ele>1842.5999755859375</ele>
        <time>2026-08-31T05:44:35.000Z</time>
        <extensions>
          <ns3:TrackPointExtension>
            <ns3:hr>138</ns3:hr>
            <ns3:cad>82</ns3:cad>
          </ns3:TrackPointExtension>
        </extensions>
      </trkpt>
      <trkpt lat="44.67765555717051029205322265625" lon="6.79892132990062236785888671875">
        <ele>1842.5999755859375</ele>
        <time>2026-08-31T05:44:36.000Z</time>
        <extensions>
          <ns3:TrackPointExtension>
            <ns3:hr>138</ns3:hr>
            <ns3:cad>82</ns3:cad>
          </ns3:TrackPointExtension>
        </extensions>
      </trkpt>
      <trkpt lat="44.67766217887401580810546875" lon="6.79895049892365932464599609375">
        <ele>1842.5999755859375</ele>
        <time>2026-08-31T05:44:37.000Z</time>
        <extensions>
          <ns3:TrackPointExtension>
            <ns3:hr>138</ns3:hr>
            <ns3:cad>82</ns3:cad>
          </ns3:TrackPointExtension>
        </extensions>
      </trkpt>
      <trkpt lat="44.67767282389104366302490234375" lon="6.79897681809961795806884765625">
        <ele>1842.5999755859375</ele>
        <time>2026-08-31T05:44:38.000Z</time>
        <extensions>
          <ns3:TrackPointExtension>
            <ns3:hr>139</ns3:hr>
            <ns3:cad>82</ns3:cad>
          </ns3:TrackPointExtension>
        </extensions>
      </trkpt>
      <trkpt lat="44.67768422327935695648193359375" lon="6.7990111000835895538330078125">
        <ele>1842.5999755859375</ele>
        <time>2026-08-31T05:44:39.000Z</time>
        <extensions>
          <ns3:TrackPointExtension>
            <ns3:hr>139</ns3:hr>
            <ns3:cad>81</ns3:cad>
          </ns3:TrackPointExtension>
        </extensions>
      </trkpt>
      <trkpt lat="44.677690677344799041748046875" lon="6.79903649725019931793212890625">
        <ele>1842.5999755859375</ele>
        <time>2026-08-31T05:44:40.000Z</time>
        <extensions>
          <ns3:TrackPointExtension>
            <ns3:hr>140</ns3:hr>
            <ns3:cad>81</ns3:cad>
          </ns3:TrackPointExtension>
        </extensions>
      </trkpt>
      <trkpt lat="44.6776985563337802886962890625" lon="6.79906264878809452056884765625">
        <ele>1842.5999755859375</ele>
        <time>2026-08-31T05:44:41.000Z</time>
        <extensions>
          <ns3:TrackPointExtension>
            <ns3:hr>140</ns3:hr>
            <ns3:cad>81</ns3:cad>
          </ns3:TrackPointExtension>
        </extensions>
      </trkpt>
      <trkpt lat="44.67771071009337902069091796875" lon="6.7990954220294952392578125">
        <ele>1842.5999755859375</ele>
        <time>2026-08-31T05:44:42.000Z</time>
        <extensions>
          <ns3:TrackPointExtension>
            <ns3:hr>141</ns3:hr>
            <ns3:cad>81</ns3:cad>
          </ns3:TrackPointExtension>
        </extensions>
      </trkpt>
      <trkpt lat="44.677718840539455413818359375" lon="6.7991183884441852569580078125">
        <ele>1842.5999755859375</ele>
        <time>2026-08-31T05:44:43.000Z</time>
        <extensions>
          <ns3:TrackPointExtension>
            <ns3:hr>141</ns3:hr>
            <ns3:cad>82</ns3:cad>
          </ns3:TrackPointExtension>
        </extensions>
      </trkpt>
      <trkpt lat="44.6777231991291046142578125" lon="6.79914562962949275970458984375">
        <ele>1842.5999755859375</ele>
        <time>2026-08-31T05:44:44.000Z</time>
        <extensions>
          <ns3:TrackPointExtension>
            <ns3:hr>141</ns3:hr>
            <ns3:cad>82</ns3:cad>
          </ns3:TrackPointExtension>
        </extensions>
      </trkpt>
      <trkpt lat="44.67773166485130786895751953125" lon="6.79917865432798862457275390625">
        <ele>1842.5999755859375</ele>
        <time>2026-08-31T05:44:45.000Z</time>
        <extensions>
          <ns3:TrackPointExtension>
            <ns3:hr>142</ns3:hr>
            <ns3:cad>82</ns3:cad>
          </ns3:TrackPointExtension>
        </extensions>
      </trkpt>
      <trkpt lat="44.6777414716780185699462890625" lon="6.79920027963817119598388671875">
        <ele>1842.5999755859375</ele>
        <time>2026-08-31T05:44:46.000Z</time>
        <extensions>
          <ns3:TrackPointExtension>
            <ns3:hr>142</ns3:hr>
            <ns3:cad>81</ns3:cad>
          </ns3:TrackPointExtension>
        </extensions>
      </trkpt>
      <trkpt lat="44.67775044031441211700439453125" lon="6.79923229850828647613525390625">
        <ele>1842.800048828125</ele>
        <time>2026-08-31T05:44:47.000Z</time>
        <extensions>
          <ns3:TrackPointExtension>
            <ns3:hr>142</ns3:hr>
            <ns3:cad>81</ns3:cad>
          </ns3:TrackPointExtension>
        </extensions>
      </trkpt>
      <trkpt lat="44.67775949276983737945556640625" lon="6.79926532320678234100341796875">
        <ele>1843</ele>
        <time>2026-08-31T05:44:48.000Z</time>
        <extensions>
          <ns3:TrackPointExtension>
            <ns3:hr>142</ns3:hr>
            <ns3:cad>81</ns3:cad>
          </ns3:TrackPointExtension>
        </extensions>
      </trkpt>
      <trkpt lat="44.6777649410068988800048828125" lon="6.7992910556495189666748046875">
        <ele>1843</ele>
        <time>2026-08-31T05:44:49.000Z</time>
        <extensions>
          <ns3:TrackPointExtension>
            <ns3:hr>142</ns3:hr>
            <ns3:cad>81</ns3:cad>
          </ns3:TrackPointExtension>
        </extensions>
      </trkpt>
      <trkpt lat="44.67777256853878498077392578125" lon="6.79933070205152034759521484375">
        <ele>1843.199951171875</ele>
        <time>2026-08-31T05:44:50.000Z</time>
        <extensions>
          <ns3:TrackPointExtension>
            <ns3:hr>143</ns3:hr>
            <ns3:cad>81</ns3:cad>
          </ns3:TrackPointExtension>
        </extensions>
      </trkpt>
      <trkpt lat="44.67777256853878498077392578125" lon="6.79936137981712818145751953125">
        <ele>1843.199951171875</ele>
        <time>2026-08-31T05:44:51.000Z</time>
        <extensions>
          <ns3:TrackPointExtension>
            <ns3:hr>143</ns3:hr>
            <ns3:cad>82</ns3:cad>
          </ns3:TrackPointExtension>
        </extensions>
      </trkpt>
      <trkpt lat="44.677775837481021881103515625" lon="6.79939541034400463104248046875">
        <ele>1843.199951171875</ele>
        <time>2026-08-31T05:44:52.000Z</time>
        <extensions>
          <ns3:TrackPointExtension>
            <ns3:hr>143</ns3:hr>
            <ns3:cad>83</ns3:cad>
          </ns3:TrackPointExtension>
        </extensions>
      </trkpt>
      <trkpt lat="44.67777759768068790435791015625" lon="6.7994305305182933807373046875">
        <ele>1843.199951171875</ele>
        <time>2026-08-31T05:44:53.000Z</time>
        <extensions>
          <ns3:TrackPointExtension>
            <ns3:hr>143</ns3:hr>
            <ns3:cad>83</ns3:cad>
          </ns3:TrackPointExtension>
        </extensions>
      </trkpt>
      <trkpt lat="44.677777849137783050537109375" lon="6.79945978336036205291748046875">
        <ele>1843.199951171875</ele>
        <time>2026-08-31T05:44:54.000Z</time>
        <extensions>
          <ns3:TrackPointExtension>
            <ns3:hr>143</ns3:hr>
            <ns3:cad>82</ns3:cad>
          </ns3:TrackPointExtension>
        </extensions>
      </trkpt>
      <trkpt lat="44.67777793295681476593017578125" lon="6.79949733428657054901123046875">
        <ele>1843.199951171875</ele>
        <time>2026-08-31T05:44:55.000Z</time>
        <extensions>
          <ns3:TrackPointExtension>
            <ns3:hr>144</ns3:hr>
            <ns3:cad>82</ns3:cad>
          </ns3:TrackPointExtension>
        </extensions>
      </trkpt>
      <trkpt lat="44.677775166928768157958984375" lon="6.79953035898506641387939453125">
        <ele>1843.199951171875</ele>
        <time>2026-08-31T05:44:56.000Z</time>
        <extensions>
          <ns3:TrackPointExtension>
            <ns3:hr>144</ns3:hr>
            <ns3:cad>82</ns3:cad>
          </ns3:TrackPointExtension>
        </extensions>
      </trkpt>
      <trkpt lat="44.6777749992907047271728515625" lon="6.7995589412748813629150390625">
        <ele>1843.199951171875</ele>
        <time>2026-08-31T05:44:57.000Z</time>
        <extensions>
          <ns3:TrackPointExtension>
            <ns3:hr>144</ns3:hr>
            <ns3:cad>82</ns3:cad>
          </ns3:TrackPointExtension>
        </extensions>
      </trkpt>
      <trkpt lat="44.677770137786865234375" lon="6.7995954863727092742919921875">
        <ele>1843.199951171875</ele>
        <time>2026-08-31T05:44:58.000Z</time>
        <extensions>
          <ns3:TrackPointExtension>
            <ns3:hr>144</ns3:hr>
            <ns3:cad>82</ns3:cad>
          </ns3:TrackPointExtension>
        </extensions>
      </trkpt>
      <trkpt lat="44.67776686884462833404541015625" lon="6.79962507449090480804443359375">
        <ele>1843.199951171875</ele>
        <time>2026-08-31T05:44:59.000Z</time>
        <extensions>
          <ns3:TrackPointExtension>
            <ns3:hr>145</ns3:hr>
            <ns3:cad>82</ns3:cad>
          </ns3:TrackPointExtension>
        </extensions>
      </trkpt>
      <trkpt lat="44.677767790853977203369140625" lon="6.7996451072394847869873046875">
        <ele>1843.199951171875</ele>
        <time>2026-08-31T05:45:00.000Z</time>
        <extensions>
          <ns3:TrackPointExtension>
            <ns3:hr>145</ns3:hr>
            <ns3:cad>82</ns3:cad>
          </ns3:TrackPointExtension>
        </extensions>
      </trkpt>
      <trkpt lat="44.67776552774012088775634765625" lon="6.7996667325496673583984375">
        <ele>1843.199951171875</ele>
        <time>2026-08-31T05:45:01.000Z</time>
        <extensions>
          <ns3:TrackPointExtension>
            <ns3:hr>145</ns3:hr>
            <ns3:cad>82</ns3:cad>
          </ns3:TrackPointExtension>
        </extensions>
      </trkpt>
      <trkpt lat="44.677762426435947418212890625" lon="6.79968743585050106048583984375">
        <ele>1843.199951171875</ele>
        <time>2026-08-31T05:45:02.000Z</time>
        <extensions>
          <ns3:TrackPointExtension>
            <ns3:hr>146</ns3:hr>
            <ns3:cad>82</ns3:cad>
          </ns3:TrackPointExtension>
        </extensions>
      </trkpt>
      <trkpt lat="44.67775697819888591766357421875" lon="6.79970629513263702392578125">
        <ele>1843.199951171875</ele>
        <time>2026-08-31T05:45:03.000Z</time>
        <extensions>
          <ns3:TrackPointExtension>
            <ns3:hr>146</ns3:hr>
            <ns3:cad>82</ns3:cad>
          </ns3:TrackPointExtension>
        </extensions>
      </trkpt>
      <trkpt lat="44.6777545474469661712646484375" lon="6.7997275851666927337646484375">
        <ele>1843.4000244140625</ele>
        <time>2026-08-31T05:45:04.000Z</time>
        <extensions>
          <ns3:TrackPointExtension>
            <ns3:hr>146</ns3:hr>
            <ns3:cad>71</ns3:cad>
          </ns3:TrackPointExtension>
        </extensions>
      </trkpt>
      <trkpt lat="44.67775278724730014801025390625" lon="6.7997463606297969818115234375">
        <ele>1843.4000244140625</ele>
        <time>2026-08-31T05:45:05.000Z</time>
        <extensions>
          <ns3:TrackPointExtension>
            <ns3:hr>147</ns3:hr>
            <ns3:cad>67</ns3:cad>
          </ns3:TrackPointExtension>
        </extensions>
      </trkpt>
      <trkpt lat="44.67774926684796810150146484375" lon="6.79976605810225009918212890625">
        <ele>1843.5999755859375</ele>
        <time>2026-08-31T05:45:06.000Z</time>
        <extensions>
          <ns3:TrackPointExtension>
            <ns3:hr>147</ns3:hr>
            <ns3:cad>67</ns3:cad>
          </ns3:TrackPointExtension>
        </extensions>
      </trkpt>
      <trkpt lat="44.67774490825831890106201171875" lon="6.799787767231464385986328125">
        <ele>1843.5999755859375</ele>
        <time>2026-08-31T05:45:07.000Z</time>
        <extensions>
          <ns3:TrackPointExtension>
            <ns3:hr>147</ns3:hr>
            <ns3:cad>65</ns3:cad>
          </ns3:TrackPointExtension>
        </extensions>
      </trkpt>
      <trkpt lat="44.67773920856416225433349609375" lon="6.7998060397803783416748046875">
        <ele>1843.5999755859375</ele>
        <time>2026-08-31T05:45:08.000Z</time>
        <extensions>
          <ns3:TrackPointExtension>
            <ns3:hr>147</ns3:hr>
            <ns3:cad>63</ns3:cad>
          </ns3:TrackPointExtension>
        </extensions>
      </trkpt>
      <trkpt lat="44.67773619107902050018310546875" lon="6.79982355795800685882568359375">
        <ele>1843.5999755859375</ele>
        <time>2026-08-31T05:45:09.000Z</time>
        <extensions>
          <ns3:TrackPointExtension>
            <ns3:hr>147</ns3:hr>
            <ns3:cad>63</ns3:cad>
          </ns3:TrackPointExtension>
        </extensions>
      </trkpt>
      <trkpt lat="44.67773057520389556884765625" lon="6.7998429201543331146240234375">
        <ele>1843.800048828125</ele>
        <time>2026-08-31T05:45:10.000Z</time>
        <extensions>
          <ns3:TrackPointExtension>
            <ns3:hr>147</ns3:hr>
            <ns3:cad>64</ns3:cad>
          </ns3:TrackPointExtension>
        </extensions>
      </trkpt>
      <trkpt lat="44.67772579751908779144287109375" lon="6.7998596839606761932373046875">
        <ele>1843.800048828125</ele>
        <time>2026-08-31T05:45:11.000Z</time>
        <extensions>
          <ns3:TrackPointExtension>
            <ns3:hr>146</ns3:hr>
            <ns3:cad>64</ns3:cad>
          </ns3:TrackPointExtension>
        </extensions>
      </trkpt>
      <trkpt lat="44.6777205169200897216796875" lon="6.799877621233463287353515625">
        <ele>1843.800048828125</ele>
        <time>2026-08-31T05:45:12.000Z</time>
        <extensions>
          <ns3:TrackPointExtension>
            <ns3:hr>146</ns3:hr>
            <ns3:cad>64</ns3:cad>
          </ns3:TrackPointExtension>
        </extensions>
      </trkpt>
      <trkpt lat="44.677714817225933074951171875" lon="6.7998979054391384124755859375">
        <ele>1843.800048828125</ele>
        <time>2026-08-31T05:45:13.000Z</time>
        <extensions>
          <ns3:TrackPointExtension>
            <ns3:hr>146</ns3:hr>
            <ns3:cad>62</ns3:cad>
          </ns3:TrackPointExtension>
        </extensions>
      </trkpt>
      <trkpt lat="44.6777106262743473052978515625" lon="6.79991508834064006805419921875">
        <ele>1843.800048828125</ele>
        <time>2026-08-31T05:45:14.000Z</time>
        <extensions>
          <ns3:TrackPointExtension>
            <ns3:hr>145</ns3:hr>
            <ns3:cad>61</ns3:cad>
          </ns3:TrackPointExtension>
        </extensions>
      </trkpt>
      <trkpt lat="44.6777071058750152587890625" lon="6.79993252269923686981201171875">
        <ele>1843.5999755859375</ele>
        <time>2026-08-31T05:45:15.000Z</time>
        <extensions>
          <ns3:TrackPointExtension>
            <ns3:hr>144</ns3:hr>
            <ns3:cad>61</ns3:cad>
          </ns3:TrackPointExtension>
        </extensions>
      </trkpt>
      <trkpt lat="44.67770517803728580474853515625" lon="6.7999515496194362640380859375">
        <ele>1843.800048828125</ele>
        <time>2026-08-31T05:45:16.000Z</time>
        <extensions>
          <ns3:TrackPointExtension>
            <ns3:hr>144</ns3:hr>
            <ns3:cad>61</ns3:cad>
          </ns3:TrackPointExtension>
        </extensions>
      </trkpt>
      <trkpt lat="44.67770383693277835845947265625" lon="6.7999686487019062042236328125">
        <ele>1843.800048828125</ele>
        <time>2026-08-31T05:45:17.000Z</time>
        <extensions>
          <ns3:TrackPointExtension>
            <ns3:hr>143</ns3:hr>
            <ns3:cad>61</ns3:cad>
          </ns3:TrackPointExtension>
        </extensions>
      </trkpt>
      <trkpt lat="44.6777005679905414581298828125" lon="6.79998700506985187530517578125">
        <ele>1843.800048828125</ele>
        <time>2026-08-31T05:45:18.000Z</time>
        <extensions>
          <ns3:TrackPointExtension>
            <ns3:hr>143</ns3:hr>
            <ns3:cad>63</ns3:cad>
          </ns3:TrackPointExtension>
        </extensions>
      </trkpt>
      <trkpt lat="44.67769495211541652679443359375" lon="6.8000061996281147003173828125">
        <ele>1844</ele>
        <time>2026-08-31T05:45:19.000Z</time>
        <extensions>
          <ns3:TrackPointExtension>
            <ns3:hr>143</ns3:hr>
            <ns3:cad>63</ns3:cad>
          </ns3:TrackPointExtension>
        </extensions>
      </trkpt>
      <trkpt lat="44.6776895038783550262451171875" lon="6.80002355016767978668212890625">
        <ele>1844</ele>
        <time>2026-08-31T05:45:20.000Z</time>
        <extensions>
          <ns3:TrackPointExtension>
            <ns3:hr>143</ns3:hr>
            <ns3:cad>63</ns3:cad>
          </ns3:TrackPointExtension>
        </extensions>
      </trkpt>
      <trkpt lat="44.67768355272710323333740234375" lon="6.80004232563078403472900390625">
        <ele>1844</ele>
        <time>2026-08-31T05:45:21.000Z</time>
        <extensions>
          <ns3:TrackPointExtension>
            <ns3:hr>143</ns3:hr>
            <ns3:cad>61</ns3:cad>
          </ns3:TrackPointExtension>
        </extensions>
      </trkpt>
      <trkpt lat="44.6776767633855342864990234375" lon="6.800062023103237152099609375">
        <ele>1844</ele>
        <time>2026-08-31T05:45:22.000Z</time>
        <extensions>
          <ns3:TrackPointExtension>
            <ns3:hr>142</ns3:hr>
            <ns3:cad>61</ns3:cad>
          </ns3:TrackPointExtension>
        </extensions>
      </trkpt>
      <trkpt lat="44.677670560777187347412109375" lon="6.8000789545476436614990234375">
        <ele>1844</ele>
        <time>2026-08-31T05:45:23.000Z</time>
        <extensions>
          <ns3:TrackPointExtension>
            <ns3:hr>142</ns3:hr>
            <ns3:cad>61</ns3:cad>
          </ns3:TrackPointExtension>
        </extensions>
      </trkpt>
      <trkpt lat="44.67766444198787212371826171875" lon="6.80009521543979644775390625">
        <ele>1844</ele>
        <time>2026-08-31T05:45:24.000Z</time>
        <extensions>
          <ns3:TrackPointExtension>
            <ns3:hr>142</ns3:hr>
            <ns3:cad>62</ns3:cad>
          </ns3:TrackPointExtension>
        </extensions>
      </trkpt>
      <trkpt lat="44.67765823937952518463134765625" lon="6.80011273361742496490478515625">
        <ele>1844.199951171875</ele>
        <time>2026-08-31T05:45:25.000Z</time>
        <extensions>
          <ns3:TrackPointExtension>
            <ns3:hr>142</ns3:hr>
            <ns3:cad>63</ns3:cad>
          </ns3:TrackPointExtension>
        </extensions>
      </trkpt>
      <trkpt lat="44.677653126418590545654296875" lon="6.8001305870711803436279296875">
        <ele>1844.199951171875</ele>
        <time>2026-08-31T05:45:26.000Z</time>
        <extensions>
          <ns3:TrackPointExtension>
            <ns3:hr>141</ns3:hr>
            <ns3:cad>64</ns3:cad>
          </ns3:TrackPointExtension>
        </extensions>
      </trkpt>
      <trkpt lat="44.677647091448307037353515625" lon="6.80014944635331630706787109375">
        <ele>1844.199951171875</ele>
        <time>2026-08-31T05:45:27.000Z</time>
        <extensions>
          <ns3:TrackPointExtension>
            <ns3:hr>141</ns3:hr>
            <ns3:cad>64</ns3:cad>
          </ns3:TrackPointExtension>
        </extensions>
      </trkpt>
      <trkpt lat="44.67763946391642093658447265625" lon="6.80016621015965938568115234375">
        <ele>1844.199951171875</ele>
        <time>2026-08-31T05:45:28.000Z</time>
        <extensions>
          <ns3:TrackPointExtension>
            <ns3:hr>141</ns3:hr>
            <ns3:cad>64</ns3:cad>
          </ns3:TrackPointExtension>
        </extensions>
      </trkpt>
      <trkpt lat="44.6776331774890422821044921875" lon="6.8001795373857021331787109375">
        <ele>1844.4000244140625</ele>
        <time>2026-08-31T05:45:29.000Z</time>
        <extensions>
          <ns3:TrackPointExtension>
            <ns3:hr>141</ns3:hr>
            <ns3:cad>63</ns3:cad>
          </ns3:TrackPointExtension>
        </extensions>
      </trkpt>
      <trkpt lat="44.67762722633779048919677734375" lon="6.80019353516399860382080078125">
        <ele>1844.4000244140625</ele>
        <time>2026-08-31T05:45:30.000Z</time>
        <extensions>
          <ns3:TrackPointExtension>
            <ns3:hr>141</ns3:hr>
            <ns3:cad>62</ns3:cad>
          </ns3:TrackPointExtension>
        </extensions>
      </trkpt>
      <trkpt lat="44.6776211075484752655029296875" lon="6.800207532942295074462890625">
        <ele>1844.4000244140625</ele>
        <time>2026-08-31T05:45:31.000Z</time>
        <extensions>
          <ns3:TrackPointExtension>
            <ns3:hr>141</ns3:hr>
            <ns3:cad>62</ns3:cad>
          </ns3:TrackPointExtension>
        </extensions>
      </trkpt>
      <trkpt lat="44.67761565931141376495361328125" lon="6.8002234585583209991455078125">
        <ele>1844.5999755859375</ele>
        <time>2026-08-31T05:45:32.000Z</time>
        <extensions>
          <ns3:TrackPointExtension>
            <ns3:hr>141</ns3:hr>
            <ns3:cad>61</ns3:cad>
          </ns3:TrackPointExtension>
        </extensions>
      </trkpt>
      <trkpt lat="44.67760928906500339508056640625" lon="6.800241060554981231689453125">
        <ele>1844.5999755859375</ele>
        <time>2026-08-31T05:45:33.000Z</time>
        <extensions>
          <ns3:TrackPointExtension>
            <ns3:hr>141</ns3:hr>
            <ns3:cad>61</ns3:cad>
          </ns3:TrackPointExtension>
        </extensions>
      </trkpt>
      <trkpt lat="44.67760392464697360992431640625" lon="6.800258494913578033447265625">
        <ele>1844.800048828125</ele>
        <time>2026-08-31T05:45:34.000Z</time>
        <extensions>
          <ns3:TrackPointExtension>
            <ns3:hr>140</ns3:hr>
            <ns3:cad>60</ns3:cad>
          </ns3:TrackPointExtension>
        </extensions>
      </trkpt>
      <trkpt lat="44.67759688384830951690673828125" lon="6.80027584545314311981201171875">
        <ele>1845</ele>
        <time>2026-08-31T05:45:35.000Z</time>
        <extensions>
          <ns3:TrackPointExtension>
            <ns3:hr>140</ns3:hr>
            <ns3:cad>59</ns3:cad>
          </ns3:TrackPointExtension>
        </extensions>
      </trkpt>
      <trkpt lat="44.6775885857641696929931640625" lon="6.80029344744980335235595703125">
        <ele>1845</ele>
        <time>2026-08-31T05:45:36.000Z</time>
        <extensions>
          <ns3:TrackPointExtension>
            <ns3:hr>140</ns3:hr>
            <ns3:cad>59</ns3:cad>
          </ns3:TrackPointExtension>
        </extensions>
      </trkpt>
      <trkpt lat="44.67757961712777614593505859375" lon="6.8003106303513050079345703125">
        <ele>1845.199951171875</ele>
        <time>2026-08-31T05:45:37.000Z</time>
        <extensions>
          <ns3:TrackPointExtension>
            <ns3:hr>140</ns3:hr>
            <ns3:cad>60</ns3:cad>
          </ns3:TrackPointExtension>
        </extensions>
      </trkpt>
      <trkpt lat="44.6775714866816997528076171875" lon="6.8003263883292675018310546875">
        <ele>1845.199951171875</ele>
        <time>2026-08-31T05:45:38.000Z</time>
        <extensions>
          <ns3:TrackPointExtension>
            <ns3:hr>140</ns3:hr>
            <ns3:cad>61</ns3:cad>
          </ns3:TrackPointExtension>
        </extensions>
      </trkpt>
      <trkpt lat="44.677563607692718505859375" lon="6.80034172721207141876220703125">
        <ele>1845.199951171875</ele>
        <time>2026-08-31T05:45:39.000Z</time>
        <extensions>
          <ns3:TrackPointExtension>
            <ns3:hr>140</ns3:hr>
            <ns3:cad>61</ns3:cad>
          </ns3:TrackPointExtension>
        </extensions>
      </trkpt>
      <trkpt lat="44.677556566894054412841796875" lon="6.80035580880939960479736328125">
        <ele>1845</ele>
        <time>2026-08-31T05:45:40.000Z</time>
        <extensions>
          <ns3:TrackPointExtension>
            <ns3:hr>139</ns3:hr>
            <ns3:cad>61</ns3:cad>
          </ns3:TrackPointExtension>
        </extensions>
      </trkpt>
      <trkpt lat="44.6775490231812000274658203125" lon="6.80036989040672779083251953125">
        <ele>1845.199951171875</ele>
        <time>2026-08-31T05:45:41.000Z</time>
        <extensions>
          <ns3:TrackPointExtension>
            <ns3:hr>140</ns3:hr>
            <ns3:cad>62</ns3:cad>
          </ns3:TrackPointExtension>
        </extensions>
      </trkpt>
      <trkpt lat="44.67754147946834564208984375" lon="6.80038430728018283843994140625">
        <ele>1845.199951171875</ele>
        <time>2026-08-31T05:45:42.000Z</time>
        <extensions>
          <ns3:TrackPointExtension>
            <ns3:hr>140</ns3:hr>
            <ns3:cad>62</ns3:cad>
          </ns3:TrackPointExtension>
        </extensions>
      </trkpt>
      <trkpt lat="44.67753469012677669525146484375" lon="6.800393946468830108642578125">
        <ele>1845.199951171875</ele>
        <time>2026-08-31T05:45:43.000Z</time>
        <extensions>
          <ns3:TrackPointExtension>
            <ns3:hr>140</ns3:hr>
            <ns3:cad>62</ns3:cad>
          </ns3:TrackPointExtension>
        </extensions>
      </trkpt>
      <trkpt lat="44.67752806842327117919921875" lon="6.800404675304889678955078125">
        <ele>1845.4000244140625</ele>
        <time>2026-08-31T05:45:44.000Z</time>
        <extensions>
          <ns3:TrackPointExtension>
            <ns3:hr>140</ns3:hr>
            <ns3:cad>62</ns3:cad>
          </ns3:TrackPointExtension>
        </extensions>
      </trkpt>
      <trkpt lat="44.677518345415592193603515625" lon="6.80041716434061527252197265625">
        <ele>1845.4000244140625</ele>
        <time>2026-08-31T05:45:45.000Z</time>
        <extensions>
          <ns3:TrackPointExtension>
            <ns3:hr>139</ns3:hr>
            <ns3:cad>62</ns3:cad>
          </ns3:TrackPointExtension>
        </extensions>
      </trkpt>
      <trkpt lat="44.67750937677919864654541015625" lon="6.8004266358911991119384765625">
        <ele>1845.5999755859375</ele>
        <time>2026-08-31T05:45:46.000Z</time>
        <extensions>
          <ns3:TrackPointExtension>
            <ns3:hr>140</ns3:hr>
            <ns3:cad>62</ns3:cad>
          </ns3:TrackPointExtension>
        </extensions>
      </trkpt>
      <trkpt lat="44.6774978935718536376953125" lon="6.80043593980371952056884765625">
        <ele>1845.5999755859375</ele>
        <time>2026-08-31T05:45:47.000Z</time>
        <extensions>
          <ns3:TrackPointExtension>
            <ns3:hr>140</ns3:hr>
            <ns3:cad>61</ns3:cad>
          </ns3:TrackPointExtension>
        </extensions>
      </trkpt>
      <trkpt lat="44.6774843148887157440185546875" lon="6.80045194923877716064453125">
        <ele>1845.5999755859375</ele>
        <time>2026-08-31T05:45:48.000Z</time>
        <extensions>
          <ns3:TrackPointExtension>
            <ns3:hr>140</ns3:hr>
            <ns3:cad>60</ns3:cad>
          </ns3:TrackPointExtension>
        </extensions>
      </trkpt>
      <trkpt lat="44.67747383750975131988525390625" lon="6.8004631809890270233154296875">
        <ele>1845.800048828125</ele>
        <time>2026-08-31T05:45:49.000Z</time>
        <extensions>
          <ns3:TrackPointExtension>
            <ns3:hr>140</ns3:hr>
            <ns3:cad>60</ns3:cad>
          </ns3:TrackPointExtension>
        </extensions>
      </trkpt>
      <trkpt lat="44.67746344394981861114501953125" lon="6.8004755862057209014892578125">
        <ele>1845.800048828125</ele>
        <time>2026-08-31T05:45:50.000Z</time>
        <extensions>
          <ns3:TrackPointExtension>
            <ns3:hr>140</ns3:hr>
            <ns3:cad>61</ns3:cad>
          </ns3:TrackPointExtension>
        </extensions>
      </trkpt>
      <trkpt lat="44.67745657078921794891357421875" lon="6.80049092508852481842041015625">
        <ele>1845.800048828125</ele>
        <time>2026-08-31T05:45:51.000Z</time>
        <extensions>
          <ns3:TrackPointExtension>
            <ns3:hr>141</ns3:hr>
            <ns3:cad>61</ns3:cad>
          </ns3:TrackPointExtension>
        </extensions>
      </trkpt>
      <trkpt lat="44.67745355330407619476318359375" lon="6.80050031282007694244384765625">
        <ele>1846</ele>
        <time>2026-08-31T05:45:52.000Z</time>
        <extensions>
          <ns3:TrackPointExtension>
            <ns3:hr>144</ns3:hr>
            <ns3:cad>61</ns3:cad>
          </ns3:TrackPointExtension>
        </extensions>
      </trkpt>
      <trkpt lat="44.6774549782276153564453125" lon="6.80050383321940898895263671875">
        <ele>1846</ele>
        <time>2026-08-31T05:45:53.000Z</time>
        <extensions>
          <ns3:TrackPointExtension>
            <ns3:hr>146</ns3:hr>
            <ns3:cad>61</ns3:cad>
          </ns3:TrackPointExtension>
        </extensions>
      </trkpt>
      <trkpt lat="44.67745757661759853363037109375" lon="6.80051187984645366668701171875">
        <ele>1846.199951171875</ele>
        <time>2026-08-31T05:45:54.000Z</time>
        <extensions>
          <ns3:TrackPointExtension>
            <ns3:hr>147</ns3:hr>
            <ns3:cad>61</ns3:cad>
          </ns3:TrackPointExtension>
        </extensions>
      </trkpt>
      <trkpt lat="44.6774631924927234649658203125" lon="6.80052034556865692138671875">
        <ele>1846.199951171875</ele>
        <time>2026-08-31T05:45:55.000Z</time>
        <extensions>
          <ns3:TrackPointExtension>
            <ns3:hr>146</ns3:hr>
            <ns3:cad>61</ns3:cad>
          </ns3:TrackPointExtension>
        </extensions>
      </trkpt>
      <trkpt lat="44.677469395101070404052734375" lon="6.80052780546247959136962890625">
        <ele>1846.4000244140625</ele>
        <time>2026-08-31T05:45:56.000Z</time>
        <extensions>
          <ns3:TrackPointExtension>
            <ns3:hr>146</ns3:hr>
            <ns3:cad>55</ns3:cad>
          </ns3:TrackPointExtension>
        </extensions>
      </trkpt>
      <trkpt lat="44.6774791181087493896484375" lon="6.8005362711846828460693359375">
        <ele>1846.800048828125</ele>
        <time>2026-08-31T05:45:57.000Z</time>
        <extensions>
          <ns3:TrackPointExtension>
            <ns3:hr>145</ns3:hr>
            <ns3:cad>53</ns3:cad>
          </ns3:TrackPointExtension>
        </extensions>
      </trkpt>
      <trkpt lat="44.6774856559932231903076171875" lon="6.800543479621410369873046875">
        <ele>1847</ele>
        <time>2026-08-31T05:45:58.000Z</time>
        <extensions>
          <ns3:TrackPointExtension>
            <ns3:hr>145</ns3:hr>
            <ns3:cad>53</ns3:cad>
          </ns3:TrackPointExtension>
        </extensions>
      </trkpt>
      <trkpt lat="44.6774930320680141448974609375" lon="6.80055211298167705535888671875">
        <ele>1847.199951171875</ele>
        <time>2026-08-31T05:45:59.000Z</time>
        <extensions>
          <ns3:TrackPointExtension>
            <ns3:hr>145</ns3:hr>
            <ns3:cad>51</ns3:cad>
          </ns3:TrackPointExtension>
        </extensions>
      </trkpt>
      <trkpt lat="44.67750258743762969970703125" lon="6.80056032724678516387939453125">
        <ele>1847.5999755859375</ele>
        <time>2026-08-31T05:46:00.000Z</time>
        <extensions>
          <ns3:TrackPointExtension>
            <ns3:hr>145</ns3:hr>
            <ns3:cad>51</ns3:cad>
          </ns3:TrackPointExtension>
        </extensions>
      </trkpt>
      <trkpt lat="44.67751105315983295440673828125" lon="6.8005706369876861572265625">
        <ele>1847.800048828125</ele>
        <time>2026-08-31T05:46:01.000Z</time>
        <extensions>
          <ns3:TrackPointExtension>
            <ns3:hr>145</ns3:hr>
            <ns3:cad>52</ns3:cad>
          </ns3:TrackPointExtension>
        </extensions>
      </trkpt>
      <trkpt lat="44.677517004311084747314453125" lon="6.80058228783309459686279296875">
        <ele>1848.199951171875</ele>
        <time>2026-08-31T05:46:02.000Z</time>
        <extensions>
          <ns3:TrackPointExtension>
            <ns3:hr>145</ns3:hr>
            <ns3:cad>52</ns3:cad>
          </ns3:TrackPointExtension>
        </extensions>
      </trkpt>
      <trkpt lat="44.67752044089138507843017578125" lon="6.80059217847883701324462890625">
        <ele>1848.4000244140625</ele>
        <time>2026-08-31T05:46:03.000Z</time>
        <extensions>
          <ns3:TrackPointExtension>
            <ns3:hr>145</ns3:hr>
            <ns3:cad>53</ns3:cad>
          </ns3:TrackPointExtension>
        </extensions>
      </trkpt>
      <trkpt lat="44.6775233745574951171875" lon="6.80060123093426227569580078125">
        <ele>1848.5999755859375</ele>
        <time>2026-08-31T05:46:04.000Z</time>
        <extensions>
          <ns3:TrackPointExtension>
            <ns3:hr>146</ns3:hr>
            <ns3:cad>53</ns3:cad>
          </ns3:TrackPointExtension>
        </extensions>
      </trkpt>
      <trkpt lat="44.6775245480239391326904296875" lon="6.8006140552461147308349609375">
        <ele>1848.800048828125</ele>
        <time>2026-08-31T05:46:05.000Z</time>
        <extensions>
          <ns3:TrackPointExtension>
            <ns3:hr>146</ns3:hr>
            <ns3:cad>53</ns3:cad>
          </ns3:TrackPointExtension>
        </extensions>
      </trkpt>
      <trkpt lat="44.6775228716433048248291015625" lon="6.80062830448150634765625">
        <ele>1849</ele>
        <time>2026-08-31T05:46:06.000Z</time>
        <extensions>
          <ns3:TrackPointExtension>
            <ns3:hr>146</ns3:hr>
            <ns3:cad>51</ns3:cad>
          </ns3:TrackPointExtension>
        </extensions>
      </trkpt>
      <trkpt lat="44.67751977033913135528564453125" lon="6.8006428889930248260498046875">
        <ele>1849.199951171875</ele>
        <time>2026-08-31T05:46:07.000Z</time>
        <extensions>
          <ns3:TrackPointExtension>
            <ns3:hr>146</ns3:hr>
            <ns3:cad>51</ns3:cad>
          </ns3:TrackPointExtension>
        </extensions>
      </trkpt>
      <trkpt lat="44.67751675285398960113525390625" lon="6.8006559647619724273681640625">
        <ele>1849.4000244140625</ele>
        <time>2026-08-31T05:46:08.000Z</time>
        <extensions>
          <ns3:TrackPointExtension>
            <ns3:hr>146</ns3:hr>
            <ns3:cad>51</ns3:cad>
          </ns3:TrackPointExtension>
        </extensions>
      </trkpt>
      <trkpt lat="44.677511639893054962158203125" lon="6.8006626702845096588134765625">
        <ele>1849.4000244140625</ele>
        <time>2026-08-31T05:46:09.000Z</time>
        <extensions>
          <ns3:TrackPointExtension>
            <ns3:hr>146</ns3:hr>
            <ns3:cad>51</ns3:cad>
          </ns3:TrackPointExtension>
        </extensions>
      </trkpt>
      <trkpt lat="44.6775040961802005767822265625" lon="6.800663508474826812744140625">
        <ele>1849.4000244140625</ele>
        <time>2026-08-31T05:46:10.000Z</time>
        <extensions>
          <ns3:TrackPointExtension>
            <ns3:hr>147</ns3:hr>
            <ns3:cad>49</ns3:cad>
          </ns3:TrackPointExtension>
        </extensions>
      </trkpt>
      <trkpt lat="44.6774994023144245147705078125" lon="6.80066325701773166656494140625">
        <ele>1849.4000244140625</ele>
        <time>2026-08-31T05:46:11.000Z</time>
        <extensions>
          <ns3:TrackPointExtension>
            <ns3:hr>146</ns3:hr>
            <ns3:cad>49</ns3:cad>
          </ns3:TrackPointExtension>
        </extensions>
      </trkpt>
      <trkpt lat="44.67749814502894878387451171875" lon="6.8006623350083827972412109375">
        <ele>1849.4000244140625</ele>
        <time>2026-08-31T05:46:12.000Z</time>
        <extensions>
          <ns3:TrackPointExtension>
            <ns3:hr>145</ns3:hr>
            <ns3:cad>55</ns3:cad>
          </ns3:TrackPointExtension>
        </extensions>
      </trkpt>
      <trkpt lat="44.67749747447669506072998046875" lon="6.8006591498851776123046875">
        <ele>1849.199951171875</ele>
        <time>2026-08-31T05:46:13.000Z</time>
        <extensions>
          <ns3:TrackPointExtension>
            <ns3:hr>145</ns3:hr>
            <ns3:cad>55</ns3:cad>
          </ns3:TrackPointExtension>
        </extensions>
      </trkpt>
      <trkpt lat="44.67749747447669506072998046875" lon="6.8006552942097187042236328125">
        <ele>1849.199951171875</ele>
        <time>2026-08-31T05:46:14.000Z</time>
        <extensions>
          <ns3:TrackPointExtension>
            <ns3:hr>145</ns3:hr>
            <ns3:cad>55</ns3:cad>
          </ns3:TrackPointExtension>
        </extensions>
      </trkpt>
      <trkpt lat="44.67749655246734619140625" lon="6.80065286345779895782470703125">
        <ele>1849</ele>
        <time>2026-08-31T05:46:15.000Z</time>
        <extensions>
          <ns3:TrackPointExtension>
            <ns3:hr>144</ns3:hr>
            <ns3:cad>55</ns3:cad>
          </ns3:TrackPointExtension>
        </extensions>
      </trkpt>
      <trkpt lat="44.677496217191219329833984375" lon="6.8006519414484500885009765625">
        <ele>1849</ele>
        <time>2026-08-31T05:46:16.000Z</time>
        <extensions>
          <ns3:TrackPointExtension>
            <ns3:hr>143</ns3:hr>
            <ns3:cad>0</ns3:cad>
          </ns3:TrackPointExtension>
        </extensions>
      </trkpt>
      <trkpt lat="44.677496887743473052978515625" lon="6.8006512708961963653564453125">
        <ele>1848.800048828125</ele>
        <time>2026-08-31T05:46:17.000Z</time>
        <extensions>
          <ns3:TrackPointExtension>
            <ns3:hr>141</ns3:hr>
            <ns3:cad>0</ns3:cad>
          </ns3:TrackPointExtension>
        </extensions>
      </trkpt>
      <trkpt lat="44.6774980612099170684814453125" lon="6.80064850486814975738525390625">
        <ele>1848.800048828125</ele>
        <time>2026-08-31T05:46:18.000Z</time>
        <extensions>
          <ns3:TrackPointExtension>
            <ns3:hr>140</ns3:hr>
            <ns3:cad>0</ns3:cad>
          </ns3:TrackPointExtension>
        </extensions>
      </trkpt>
      <trkpt lat="44.6774977259337902069091796875" lon="6.80064515210688114166259765625">
        <ele>1848.800048828125</ele>
        <time>2026-08-31T05:46:19.000Z</time>
        <extensions>
          <ns3:TrackPointExtension>
            <ns3:hr>140</ns3:hr>
            <ns3:cad>0</ns3:cad>
          </ns3:TrackPointExtension>
        </extensions>
      </trkpt>
      <trkpt lat="44.6774973906576633453369140625" lon="6.800643391907215118408203125">
        <ele>1848.800048828125</ele>
        <time>2026-08-31T05:46:20.000Z</time>
        <extensions>
          <ns3:TrackPointExtension>
            <ns3:hr>140</ns3:hr>
            <ns3:cad>0</ns3:cad>
          </ns3:TrackPointExtension>
        </extensions>
      </trkpt>
      <trkpt lat="44.677498228847980499267578125" lon="6.80064029060304164886474609375">
        <ele>1848.800048828125</ele>
        <time>2026-08-31T05:46:21.000Z</time>
        <extensions>
          <ns3:TrackPointExtension>
            <ns3:hr>139</ns3:hr>
            <ns3:cad>0</ns3:cad>
          </ns3:TrackPointExtension>
        </extensions>
      </trkpt>
      <trkpt lat="44.67749780975282192230224609375" lon="6.80063836276531219482421875">
        <ele>1848.5999755859375</ele>
        <time>2026-08-31T05:46:22.000Z</time>
        <extensions>
          <ns3:TrackPointExtension>
            <ns3:hr>139</ns3:hr>
            <ns3:cad>0</ns3:cad>
          </ns3:TrackPointExtension>
        </extensions>
      </trkpt>
      <trkpt lat="44.677497558295726776123046875" lon="6.80063626728951930999755859375">
        <ele>1848.5999755859375</ele>
        <time>2026-08-31T05:46:23.000Z</time>
        <extensions>
          <ns3:TrackPointExtension>
            <ns3:hr>138</ns3:hr>
            <ns3:cad>0</ns3:cad>
          </ns3:TrackPointExtension>
        </extensions>
      </trkpt>
      <trkpt lat="44.67749655246734619140625" lon="6.80063459090888500213623046875">
        <ele>1848.5999755859375</ele>
        <time>2026-08-31T05:46:24.000Z</time>
        <extensions>
          <ns3:TrackPointExtension>
            <ns3:hr>138</ns3:hr>
            <ns3:cad>0</ns3:cad>
          </ns3:TrackPointExtension>
        </extensions>
      </trkpt>
      <trkpt lat="44.67749931849539279937744140625" lon="6.80063643492758274078369140625">
        <ele>1848.5999755859375</ele>
        <time>2026-08-31T05:46:25.000Z</time>
        <extensions>
          <ns3:TrackPointExtension>
            <ns3:hr>138</ns3:hr>
            <ns3:cad>0</ns3:cad>
          </ns3:TrackPointExtension>
        </extensions>
      </trkpt>
      <trkpt lat="44.6774978935718536376953125" lon="6.80063727311789989471435546875">
        <ele>1848.5999755859375</ele>
        <time>2026-08-31T05:46:26.000Z</time>
        <extensions>
          <ns3:TrackPointExtension>
            <ns3:hr>137</ns3:hr>
            <ns3:cad>0</ns3:cad>
          </ns3:TrackPointExtension>
        </extensions>
      </trkpt>
      <trkpt lat="44.67749856412410736083984375" lon="6.80063811130821704864501953125">
        <ele>1848.5999755859375</ele>
        <time>2026-08-31T05:46:27.000Z</time>
        <extensions>
          <ns3:TrackPointExtension>
            <ns3:hr>136</ns3:hr>
            <ns3:cad>0</ns3:cad>
          </ns3:TrackPointExtension>
        </extensions>
      </trkpt>
      <trkpt lat="44.67749948613345623016357421875" lon="6.80063844658434391021728515625">
        <ele>1848.4000244140625</ele>
        <time>2026-08-31T05:46:28.000Z</time>
        <extensions>
          <ns3:TrackPointExtension>
            <ns3:hr>135</ns3:hr>
            <ns3:cad>0</ns3:cad>
          </ns3:TrackPointExtension>
        </extensions>
      </trkpt>
      <trkpt lat="44.6774994023144245147705078125" lon="6.80064012296497821807861328125">
        <ele>1848.4000244140625</ele>
        <time>2026-08-31T05:46:29.000Z</time>
        <extensions>
          <ns3:TrackPointExtension>
            <ns3:hr>134</ns3:hr>
            <ns3:cad>0</ns3:cad>
          </ns3:TrackPointExtension>
        </extensions>
      </trkpt>
      <trkpt lat="44.67749998904764652252197265625" lon="6.800643391907215118408203125">
        <ele>1848.4000244140625</ele>
        <time>2026-08-31T05:46:30.000Z</time>
        <extensions>
          <ns3:TrackPointExtension>
            <ns3:hr>133</ns3:hr>
            <ns3:cad>0</ns3:cad>
          </ns3:TrackPointExtension>
        </extensions>
      </trkpt>
      <trkpt lat="44.67749881558120250701904296875" lon="6.8006455712020397186279296875">
        <ele>1848.4000244140625</ele>
        <time>2026-08-31T05:46:31.000Z</time>
        <extensions>
          <ns3:TrackPointExtension>
            <ns3:hr>133</ns3:hr>
            <ns3:cad>0</ns3:cad>
          </ns3:TrackPointExtension>
        </extensions>
      </trkpt>
      <trkpt lat="44.677497558295726776123046875" lon="6.8006485886871814727783203125">
        <ele>1848.4000244140625</ele>
        <time>2026-08-31T05:46:32.000Z</time>
        <extensions>
          <ns3:TrackPointExtension>
            <ns3:hr>132</ns3:hr>
            <ns3:cad>0</ns3:cad>
          </ns3:TrackPointExtension>
        </extensions>
      </trkpt>
      <trkpt lat="44.67749596573412418365478515625" lon="6.8006484210491180419921875">
        <ele>1848.4000244140625</ele>
        <time>2026-08-31T05:46:33.000Z</time>
        <extensions>
          <ns3:TrackPointExtension>
            <ns3:hr>131</ns3:hr>
            <ns3:cad>0</ns3:cad>
          </ns3:TrackPointExtension>
        </extensions>
      </trkpt>
      <trkpt lat="44.67749596573412418365478515625" lon="6.8006516061723232269287109375">
        <ele>1848.4000244140625</ele>
        <time>2026-08-31T05:46:34.000Z</time>
        <extensions>
          <ns3:TrackPointExtension>
            <ns3:hr>130</ns3:hr>
            <ns3:cad>0</ns3:cad>
          </ns3:TrackPointExtension>
        </extensions>
      </trkpt>
      <trkpt lat="44.67749563045799732208251953125" lon="6.8006522767245769500732421875">
        <ele>1848.199951171875</ele>
        <time>2026-08-31T05:46:35.000Z</time>
        <extensions>
          <ns3:TrackPointExtension>
            <ns3:hr>129</ns3:hr>
            <ns3:cad>0</ns3:cad>
          </ns3:TrackPointExtension>
        </extensions>
      </trkpt>
      <trkpt lat="44.67749261297285556793212890625" lon="6.800652109086513519287109375">
        <ele>1848.199951171875</ele>
        <time>2026-08-31T05:46:36.000Z</time>
        <extensions>
          <ns3:TrackPointExtension>
            <ns3:hr>129</ns3:hr>
            <ns3:cad>0</ns3:cad>
          </ns3:TrackPointExtension>
        </extensions>
      </trkpt>
      <trkpt lat="44.6774920262396335601806640625" lon="6.8006542883813381195068359375">
        <ele>1848.199951171875</ele>
        <time>2026-08-31T05:46:37.000Z</time>
        <extensions>
          <ns3:TrackPointExtension>
            <ns3:hr>128</ns3:hr>
            <ns3:cad>0</ns3:cad>
          </ns3:TrackPointExtension>
        </extensions>
      </trkpt>
      <trkpt lat="44.6774906851351261138916015625" lon="6.80065370164811611175537109375">
        <ele>1848.199951171875</ele>
        <time>2026-08-31T05:46:38.000Z</time>
        <extensions>
          <ns3:TrackPointExtension>
            <ns3:hr>128</ns3:hr>
            <ns3:cad>0</ns3:cad>
          </ns3:TrackPointExtension>
        </extensions>
      </trkpt>
      <trkpt lat="44.67748741619288921356201171875" lon="6.8006529472768306732177734375">
        <ele>1848.199951171875</ele>
        <time>2026-08-31T05:46:39.000Z</time>
        <extensions>
          <ns3:TrackPointExtension>
            <ns3:hr>128</ns3:hr>
            <ns3:cad>0</ns3:cad>
          </ns3:TrackPointExtension>
        </extensions>
      </trkpt>
      <trkpt lat="44.67748825438320636749267578125" lon="6.8006512708961963653564453125">
        <ele>1848.199951171875</ele>
        <time>2026-08-31T05:46:40.000Z</time>
        <extensions>
          <ns3:TrackPointExtension>
            <ns3:hr>128</ns3:hr>
            <ns3:cad>0</ns3:cad>
          </ns3:TrackPointExtension>
        </extensions>
      </trkpt>
      <trkpt lat="44.67748741619288921356201171875" lon="6.8006495945155620574951171875">
        <ele>1848.199951171875</ele>
        <time>2026-08-31T05:46:41.000Z</time>
        <extensions>
          <ns3:TrackPointExtension>
            <ns3:hr>128</ns3:hr>
            <ns3:cad>0</ns3:cad>
          </ns3:TrackPointExtension>
        </extensions>
      </trkpt>
      <trkpt lat="44.67748825438320636749267578125" lon="6.800647415220737457275390625">
        <ele>1848.199951171875</ele>
        <time>2026-08-31T05:46:42.000Z</time>
        <extensions>
          <ns3:TrackPointExtension>
            <ns3:hr>129</ns3:hr>
            <ns3:cad>0</ns3:cad>
          </ns3:TrackPointExtension>
        </extensions>
      </trkpt>
      <trkpt lat="44.67748691327869892120361328125" lon="6.80064976215362548828125">
        <ele>1848.199951171875</ele>
        <time>2026-08-31T05:46:43.000Z</time>
        <extensions>
          <ns3:TrackPointExtension>
            <ns3:hr>129</ns3:hr>
            <ns3:cad>0</ns3:cad>
          </ns3:TrackPointExtension>
        </extensions>
      </trkpt>
      <trkpt lat="44.67748506926000118255615234375" lon="6.8006502650678157806396484375">
        <ele>1848</ele>
        <time>2026-08-31T05:46:44.000Z</time>
        <extensions>
          <ns3:TrackPointExtension>
            <ns3:hr>129</ns3:hr>
            <ns3:cad>0</ns3:cad>
          </ns3:TrackPointExtension>
        </extensions>
      </trkpt>
      <trkpt lat="44.67748515307903289794921875" lon="6.8006484210491180419921875">
        <ele>1848</ele>
        <time>2026-08-31T05:46:45.000Z</time>
        <extensions>
          <ns3:TrackPointExtension>
            <ns3:hr>128</ns3:hr>
            <ns3:cad>0</ns3:cad>
          </ns3:TrackPointExtension>
        </extensions>
      </trkpt>
      <trkpt lat="44.67748624272644519805908203125" lon="6.800650097429752349853515625">
        <ele>1848</ele>
        <time>2026-08-31T05:46:46.000Z</time>
        <extensions>
          <ns3:TrackPointExtension>
            <ns3:hr>126</ns3:hr>
            <ns3:cad>0</ns3:cad>
          </ns3:TrackPointExtension>
        </extensions>
      </trkpt>
      <trkpt lat="44.6774869970977306365966796875" lon="6.80065085180103778839111328125">
        <ele>1848</ele>
        <time>2026-08-31T05:46:47.000Z</time>
        <extensions>
          <ns3:TrackPointExtension>
            <ns3:hr>126</ns3:hr>
            <ns3:cad>0</ns3:cad>
          </ns3:TrackPointExtension>
        </extensions>
      </trkpt>
      <trkpt lat="44.67748691327869892120361328125" lon="6.80065168999135494232177734375">
        <ele>1848</ele>
        <time>2026-08-31T05:46:48.000Z</time>
        <extensions>
          <ns3:TrackPointExtension>
            <ns3:hr>127</ns3:hr>
            <ns3:cad>0</ns3:cad>
          </ns3:TrackPointExtension>
        </extensions>
      </trkpt>
      <trkpt lat="44.6774930320680141448974609375" lon="6.80064766667783260345458984375">
        <ele>1848</ele>
        <time>2026-08-31T05:46:49.000Z</time>
        <extensions>
          <ns3:TrackPointExtension>
            <ns3:hr>127</ns3:hr>
            <ns3:cad>0</ns3:cad>
          </ns3:TrackPointExtension>
        </extensions>
      </trkpt>
      <trkpt lat="44.6774930320680141448974609375" lon="6.80064766667783260345458984375">
        <ele>1847.800048828125</ele>
        <time>2026-08-31T05:46:50.000Z</time>
        <extensions>
          <ns3:TrackPointExtension>
            <ns3:hr>127</ns3:hr>
            <ns3:cad>0</ns3:cad>
          </ns3:TrackPointExtension>
        </extensions>
      </trkpt>
      <trkpt lat="44.6774930320680141448974609375" lon="6.80064766667783260345458984375">
        <ele>1847.800048828125</ele>
        <time>2026-08-31T05:46:51.000Z</time>
        <extensions>
          <ns3:TrackPointExtension>
            <ns3:hr>126</ns3:hr>
            <ns3:cad>0</ns3:cad>
          </ns3:TrackPointExtension>
        </extensions>
      </trkpt>
      <trkpt lat="44.6774930320680141448974609375" lon="6.80064766667783260345458984375">
        <ele>1847.800048828125</ele>
        <time>2026-08-31T05:46:52.000Z</time>
        <extensions>
          <ns3:TrackPointExtension>
            <ns3:hr>127</ns3:hr>
            <ns3:cad>0</ns3:cad>
          </ns3:TrackPointExtension>
        </extensions>
      </trkpt>
      <trkpt lat="44.6774930320680141448974609375" lon="6.80064766667783260345458984375">
        <ele>1847.800048828125</ele>
        <time>2026-08-31T05:46:53.000Z</time>
        <extensions>
          <ns3:TrackPointExtension>
            <ns3:hr>127</ns3:hr>
            <ns3:cad>0</ns3:cad>
          </ns3:TrackPointExtension>
        </extensions>
      </trkpt>
      <trkpt lat="44.6774930320680141448974609375" lon="6.80064766667783260345458984375">
        <ele>1847.800048828125</ele>
        <time>2026-08-31T05:46:54.000Z</time>
        <extensions>
          <ns3:TrackPointExtension>
            <ns3:hr>128</ns3:hr>
            <ns3:cad>0</ns3:cad>
          </ns3:TrackPointExtension>
        </extensions>
      </trkpt>
      <trkpt lat="44.6774930320680141448974609375" lon="6.80064766667783260345458984375">
        <ele>1848</ele>
        <time>2026-08-31T05:46:55.000Z</time>
        <extensions>
          <ns3:TrackPointExtension>
            <ns3:hr>128</ns3:hr>
            <ns3:cad>0</ns3:cad>
          </ns3:TrackPointExtension>
        </extensions>
      </trkpt>
      <trkpt lat="44.6774930320680141448974609375" lon="6.80064766667783260345458984375">
        <ele>1848</ele>
        <time>2026-08-31T05:46:56.000Z</time>
        <extensions>
          <ns3:TrackPointExtension>
            <ns3:hr>128</ns3:hr>
            <ns3:cad>0</ns3:cad>
          </ns3:TrackPointExtension>
        </extensions>
      </trkpt>
      <trkpt lat="44.6774930320680141448974609375" lon="6.80064766667783260345458984375">
        <ele>1848</ele>
        <time>2026-08-31T05:46:57.000Z</time>
        <extensions>
          <ns3:TrackPointExtension>
            <ns3:hr>127</ns3:hr>
            <ns3:cad>0</ns3:cad>
          </ns3:TrackPointExtension>
        </extensions>
      </trkpt>
      <trkpt lat="44.6774930320680141448974609375" lon="6.80064766667783260345458984375">
        <ele>1848</ele>
        <time>2026-08-31T05:46:58.000Z</time>
        <extensions>
          <ns3:TrackPointExtension>
            <ns3:hr>127</ns3:hr>
            <ns3:cad>0</ns3:cad>
          </ns3:TrackPointExtension>
        </extensions>
      </trkpt>
      <trkpt lat="44.6774930320680141448974609375" lon="6.80064766667783260345458984375">
        <ele>1848</ele>
        <time>2026-08-31T05:46:59.000Z</time>
        <extensions>
          <ns3:TrackPointExtension>
            <ns3:hr>127</ns3:hr>
            <ns3:cad>0</ns3:cad>
          </ns3:TrackPointExtension>
        </extensions>
      </trkpt>
      <trkpt lat="44.6774930320680141448974609375" lon="6.80064766667783260345458984375">
        <ele>1848</ele>
        <time>2026-08-31T05:47:00.000Z</time>
        <extensions>
          <ns3:TrackPointExtension>
            <ns3:hr>127</ns3:hr>
            <ns3:cad>0</ns3:cad>
          </ns3:TrackPointExtension>
        </extensions>
      </trkpt>
      <trkpt lat="44.6774930320680141448974609375" lon="6.80064766667783260345458984375">
        <ele>1848</ele>
        <time>2026-08-31T05:47:01.000Z</time>
        <extensions>
          <ns3:TrackPointExtension>
            <ns3:hr>127</ns3:hr>
            <ns3:cad>0</ns3:cad>
          </ns3:TrackPointExtension>
        </extensions>
      </trkpt>
      <trkpt lat="44.6774930320680141448974609375" lon="6.80064766667783260345458984375">
        <ele>1848</ele>
        <time>2026-08-31T05:47:02.000Z</time>
        <extensions>
          <ns3:TrackPointExtension>
            <ns3:hr>127</ns3:hr>
            <ns3:cad>0</ns3:cad>
          </ns3:TrackPointExtension>
        </extensions>
      </trkpt>
      <trkpt lat="44.6774930320680141448974609375" lon="6.80064766667783260345458984375">
        <ele>1848</ele>
        <time>2026-08-31T05:47:03.000Z</time>
        <extensions>
          <ns3:TrackPointExtension>
            <ns3:hr>126</ns3:hr>
            <ns3:cad>0</ns3:cad>
          </ns3:TrackPointExtension>
        </extensions>
      </trkpt>
      <trkpt lat="44.6774930320680141448974609375" lon="6.80064766667783260345458984375">
        <ele>1848</ele>
        <time>2026-08-31T05:47:04.000Z</time>
        <extensions>
          <ns3:TrackPointExtension>
            <ns3:hr>126</ns3:hr>
            <ns3:cad>0</ns3:cad>
          </ns3:TrackPointExtension>
        </extensions>
      </trkpt>
      <trkpt lat="44.6774930320680141448974609375" lon="6.80064766667783260345458984375">
        <ele>1848</ele>
        <time>2026-08-31T05:47:05.000Z</time>
        <extensions>
          <ns3:TrackPointExtension>
            <ns3:hr>126</ns3:hr>
            <ns3:cad>0</ns3:cad>
          </ns3:TrackPointExtension>
        </extensions>
      </trkpt>
      <trkpt lat="44.6774930320680141448974609375" lon="6.80064766667783260345458984375">
        <ele>1848</ele>
        <time>2026-08-31T05:47:06.000Z</time>
        <extensions>
          <ns3:TrackPointExtension>
            <ns3:hr>126</ns3:hr>
            <ns3:cad>0</ns3:cad>
          </ns3:TrackPointExtension>
        </extensions>
      </trkpt>
      <trkpt lat="44.6774930320680141448974609375" lon="6.80064766667783260345458984375">
        <ele>1848</ele>
        <time>2026-08-31T05:47:07.000Z</time>
        <extensions>
          <ns3:TrackPointExtension>
            <ns3:hr>126</ns3:hr>
            <ns3:cad>0</ns3:cad>
          </ns3:TrackPointExtension>
        </extensions>
      </trkpt>
      <trkpt lat="44.6774930320680141448974609375" lon="6.80064766667783260345458984375">
        <ele>1848</ele>
        <time>2026-08-31T05:47:08.000Z</time>
        <extensions>
          <ns3:TrackPointExtension>
            <ns3:hr>125</ns3:hr>
            <ns3:cad>0</ns3:cad>
          </ns3:TrackPointExtension>
        </extensions>
      </trkpt>
      <trkpt lat="44.6774930320680141448974609375" lon="6.80064766667783260345458984375">
        <ele>1848</ele>
        <time>2026-08-31T05:47:09.000Z</time>
        <extensions>
          <ns3:TrackPointExtension>
            <ns3:hr>125</ns3:hr>
            <ns3:cad>0</ns3:cad>
          </ns3:TrackPointExtension>
        </extensions>
      </trkpt>
      <trkpt lat="44.6774930320680141448974609375" lon="6.80064766667783260345458984375">
        <ele>1848</ele>
        <time>2026-08-31T05:47:10.000Z</time>
        <extensions>
          <ns3:TrackPointExtension>
            <ns3:hr>125</ns3:hr>
            <ns3:cad>0</ns3:cad>
          </ns3:TrackPointExtension>
        </extensions>
      </trkpt>
      <trkpt lat="44.6774930320680141448974609375" lon="6.80064766667783260345458984375">
        <ele>1848</ele>
        <time>2026-08-31T05:47:11.000Z</time>
        <extensions>
          <ns3:TrackPointExtension>
            <ns3:hr>125</ns3:hr>
            <ns3:cad>0</ns3:cad>
          </ns3:TrackPointExtension>
        </extensions>
      </trkpt>
      <trkpt lat="44.6774930320680141448974609375" lon="6.80064766667783260345458984375">
        <ele>1848</ele>
        <time>2026-08-31T05:47:12.000Z</time>
        <extensions>
          <ns3:TrackPointExtension>
            <ns3:hr>125</ns3:hr>
            <ns3:cad>0</ns3:cad>
          </ns3:TrackPointExtension>
        </extensions>
      </trkpt>
      <trkpt lat="44.6774930320680141448974609375" lon="6.80064766667783260345458984375">
        <ele>1848</ele>
        <time>2026-08-31T05:47:13.000Z</time>
        <extensions>
          <ns3:TrackPointExtension>
            <ns3:hr>125</ns3:hr>
            <ns3:cad>0</ns3:cad>
          </ns3:TrackPointExtension>
        </extensions>
      </trkpt>
      <trkpt lat="44.6774930320680141448974609375" lon="6.80064766667783260345458984375">
        <ele>1848</ele>
        <time>2026-08-31T05:47:14.000Z</time>
        <extensions>
          <ns3:TrackPointExtension>
            <ns3:hr>124</ns3:hr>
            <ns3:cad>0</ns3:cad>
          </ns3:TrackPointExtension>
        </extensions>
      </trkpt>
      <trkpt lat="44.6774930320680141448974609375" lon="6.80064766667783260345458984375">
        <ele>1848</ele>
        <time>2026-08-31T05:47:15.000Z</time>
        <extensions>
          <ns3:TrackPointExtension>
            <ns3:hr>124</ns3:hr>
            <ns3:cad>0</ns3:cad>
          </ns3:TrackPointExtension>
        </extensions>
      </trkpt>
      <trkpt lat="44.6774930320680141448974609375" lon="6.80064766667783260345458984375">
        <ele>1848</ele>
        <time>2026-08-31T05:47:16.000Z</time>
        <extensions>
          <ns3:TrackPointExtension>
            <ns3:hr>124</ns3:hr>
            <ns3:cad>0</ns3:cad>
          </ns3:TrackPointExtension>
        </extensions>
      </trkpt>
      <trkpt lat="44.6774930320680141448974609375" lon="6.80064766667783260345458984375">
        <ele>1848</ele>
        <time>2026-08-31T05:47:17.000Z</time>
        <extensions>
          <ns3:TrackPointExtension>
            <ns3:hr>124</ns3:hr>
            <ns3:cad>0</ns3:cad>
          </ns3:TrackPointExtension>
        </extensions>
      </trkpt>
      <trkpt lat="44.6774930320680141448974609375" lon="6.80064766667783260345458984375">
        <ele>1848</ele>
        <time>2026-08-31T05:47:18.000Z</time>
        <extensions>
          <ns3:TrackPointExtension>
            <ns3:hr>124</ns3:hr>
            <ns3:cad>0</ns3:cad>
          </ns3:TrackPointExtension>
        </extensions>
      </trkpt>
      <trkpt lat="44.6774930320680141448974609375" lon="6.80064766667783260345458984375">
        <ele>1848.199951171875</ele>
        <time>2026-08-31T05:47:19.000Z</time>
        <extensions>
          <ns3:TrackPointExtension>
            <ns3:hr>124</ns3:hr>
            <ns3:cad>0</ns3:cad>
          </ns3:TrackPointExtension>
        </extensions>
      </trkpt>
      <trkpt lat="44.6774930320680141448974609375" lon="6.80064766667783260345458984375">
        <ele>1848.199951171875</ele>
        <time>2026-08-31T05:47:20.000Z</time>
        <extensions>
          <ns3:TrackPointExtension>
            <ns3:hr>124</ns3:hr>
            <ns3:cad>0</ns3:cad>
          </ns3:TrackPointExtension>
        </extensions>
      </trkpt>
      <trkpt lat="44.6774930320680141448974609375" lon="6.80064766667783260345458984375">
        <ele>1848.199951171875</ele>
        <time>2026-08-31T05:47:21.000Z</time>
        <extensions>
          <ns3:TrackPointExtension>
            <ns3:hr>123</ns3:hr>
            <ns3:cad>0</ns3:cad>
          </ns3:TrackPointExtension>
        </extensions>
      </trkpt>
      <trkpt lat="44.6774930320680141448974609375" lon="6.80064766667783260345458984375">
        <ele>1848.199951171875</ele>
        <time>2026-08-31T05:47:22.000Z</time>
        <extensions>
          <ns3:TrackPointExtension>
            <ns3:hr>124</ns3:hr>
            <ns3:cad>0</ns3:cad>
          </ns3:TrackPointExtension>
        </extensions>
      </trkpt>
      <trkpt lat="44.6774930320680141448974609375" lon="6.80064766667783260345458984375">
        <ele>1848.199951171875</ele>
        <time>2026-08-31T05:47:23.000Z</time>
        <extensions>
          <ns3:TrackPointExtension>
            <ns3:hr>124</ns3:hr>
            <ns3:cad>0</ns3:cad>
          </ns3:TrackPointExtension>
        </extensions>
      </trkpt>
      <trkpt lat="44.6774930320680141448974609375" lon="6.80064766667783260345458984375">
        <ele>1848.199951171875</ele>
        <time>2026-08-31T05:47:24.000Z</time>
        <extensions>
          <ns3:TrackPointExtension>
            <ns3:hr>123</ns3:hr>
            <ns3:cad>0</ns3:cad>
          </ns3:TrackPointExtension>
        </extensions>
      </trkpt>
      <trkpt lat="44.6774930320680141448974609375" lon="6.80064766667783260345458984375">
        <ele>1848.199951171875</ele>
        <time>2026-08-31T05:47:25.000Z</time>
        <extensions>
          <ns3:TrackPointExtension>
            <ns3:hr>123</ns3:hr>
            <ns3:cad>0</ns3:cad>
          </ns3:TrackPointExtension>
        </extensions>
      </trkpt>
      <trkpt lat="44.6774930320680141448974609375" lon="6.80064766667783260345458984375">
        <ele>1848.199951171875</ele>
        <time>2026-08-31T05:47:26.000Z</time>
        <extensions>
          <ns3:TrackPointExtension>
            <ns3:hr>123</ns3:hr>
            <ns3:cad>0</ns3:cad>
          </ns3:TrackPointExtension>
        </extensions>
      </trkpt>
      <trkpt lat="44.6774930320680141448974609375" lon="6.80064766667783260345458984375">
        <ele>1848.199951171875</ele>
        <time>2026-08-31T05:47:27.000Z</time>
        <extensions>
          <ns3:TrackPointExtension>
            <ns3:hr>123</ns3:hr>
            <ns3:cad>0</ns3:cad>
          </ns3:TrackPointExtension>
        </extensions>
      </trkpt>
      <trkpt lat="44.6774930320680141448974609375" lon="6.80064766667783260345458984375">
        <ele>1848.199951171875</ele>
        <time>2026-08-31T05:47:28.000Z</time>
        <extensions>
          <ns3:TrackPointExtension>
            <ns3:hr>123</ns3:hr>
            <ns3:cad>0</ns3:cad>
          </ns3:TrackPointExtension>
        </extensions>
      </trkpt>
      <trkpt lat="44.6774930320680141448974609375" lon="6.80064766667783260345458984375">
        <ele>1848.4000244140625</ele>
        <time>2026-08-31T05:47:29.000Z</time>
        <extensions>
          <ns3:TrackPointExtension>
            <ns3:hr>123</ns3:hr>
            <ns3:cad>0</ns3:cad>
          </ns3:TrackPointExtension>
        </extensions>
      </trkpt>
      <trkpt lat="44.6774930320680141448974609375" lon="6.80064766667783260345458984375">
        <ele>1848.4000244140625</ele>
        <time>2026-08-31T05:47:30.000Z</time>
        <extensions>
          <ns3:TrackPointExtension>
            <ns3:hr>122</ns3:hr>
            <ns3:cad>0</ns3:cad>
          </ns3:TrackPointExtension>
        </extensions>
      </trkpt>
      <trkpt lat="44.6774930320680141448974609375" lon="6.80064766667783260345458984375">
        <ele>1848.199951171875</ele>
        <time>2026-08-31T05:47:31.000Z</time>
        <extensions>
          <ns3:TrackPointExtension>
            <ns3:hr>122</ns3:hr>
            <ns3:cad>0</ns3:cad>
          </ns3:TrackPointExtension>
        </extensions>
      </trkpt>
      <trkpt lat="44.6774930320680141448974609375" lon="6.80064766667783260345458984375">
        <ele>1848.199951171875</ele>
        <time>2026-08-31T05:47:32.000Z</time>
        <extensions>
          <ns3:TrackPointExtension>
            <ns3:hr>123</ns3:hr>
            <ns3:cad>0</ns3:cad>
          </ns3:TrackPointExtension>
        </extensions>
      </trkpt>
      <trkpt lat="44.6774930320680141448974609375" lon="6.80064766667783260345458984375">
        <ele>1848.199951171875</ele>
        <time>2026-08-31T05:47:33.000Z</time>
        <extensions>
          <ns3:TrackPointExtension>
            <ns3:hr>123</ns3:hr>
            <ns3:cad>0</ns3:cad>
          </ns3:TrackPointExtension>
        </extensions>
      </trkpt>
      <trkpt lat="44.6774930320680141448974609375" lon="6.80064766667783260345458984375">
        <ele>1848.199951171875</ele>
        <time>2026-08-31T05:47:34.000Z</time>
        <extensions>
          <ns3:TrackPointExtension>
            <ns3:hr>123</ns3:hr>
            <ns3:cad>0</ns3:cad>
          </ns3:TrackPointExtension>
        </extensions>
      </trkpt>
      <trkpt lat="44.6774930320680141448974609375" lon="6.80064766667783260345458984375">
        <ele>1848.4000244140625</ele>
        <time>2026-08-31T05:47:35.000Z</time>
        <extensions>
          <ns3:TrackPointExtension>
            <ns3:hr>123</ns3:hr>
            <ns3:cad>0</ns3:cad>
          </ns3:TrackPointExtension>
        </extensions>
      </trkpt>
      <trkpt lat="44.6774930320680141448974609375" lon="6.80064766667783260345458984375">
        <ele>1848.4000244140625</ele>
        <time>2026-08-31T05:47:36.000Z</time>
        <extensions>
          <ns3:TrackPointExtension>
            <ns3:hr>123</ns3:hr>
            <ns3:cad>0</ns3:cad>
          </ns3:TrackPointExtension>
        </extensions>
      </trkpt>
      <trkpt lat="44.6774930320680141448974609375" lon="6.80064766667783260345458984375">
        <ele>1848.4000244140625</ele>
        <time>2026-08-31T05:47:37.000Z</time>
        <extensions>
          <ns3:TrackPointExtension>
            <ns3:hr>122</ns3:hr>
            <ns3:cad>0</ns3:cad>
          </ns3:TrackPointExtension>
        </extensions>
      </trkpt>
      <trkpt lat="44.6774930320680141448974609375" lon="6.80064766667783260345458984375">
        <ele>1848.4000244140625</ele>
        <time>2026-08-31T05:47:38.000Z</time>
        <extensions>
          <ns3:TrackPointExtension>
            <ns3:hr>122</ns3:hr>
            <ns3:cad>0</ns3:cad>
          </ns3:TrackPointExtension>
        </extensions>
      </trkpt>
      <trkpt lat="44.6774930320680141448974609375" lon="6.80064766667783260345458984375">
        <ele>1848.4000244140625</ele>
        <time>2026-08-31T05:47:39.000Z</time>
        <extensions>
          <ns3:TrackPointExtension>
            <ns3:hr>122</ns3:hr>
            <ns3:cad>0</ns3:cad>
          </ns3:TrackPointExtension>
        </extensions>
      </trkpt>
      <trkpt lat="44.6774930320680141448974609375" lon="6.80064766667783260345458984375">
        <ele>1848.4000244140625</ele>
        <time>2026-08-31T05:47:40.000Z</time>
        <extensions>
          <ns3:TrackPointExtension>
            <ns3:hr>122</ns3:hr>
            <ns3:cad>0</ns3:cad>
          </ns3:TrackPointExtension>
        </extensions>
      </trkpt>
      <trkpt lat="44.6774930320680141448974609375" lon="6.80064766667783260345458984375">
        <ele>1848.4000244140625</ele>
        <time>2026-08-31T05:47:41.000Z</time>
        <extensions>
          <ns3:TrackPointExtension>
            <ns3:hr>122</ns3:hr>
            <ns3:cad>0</ns3:cad>
          </ns3:TrackPointExtension>
        </extensions>
      </trkpt>
      <trkpt lat="44.6774930320680141448974609375" lon="6.80064766667783260345458984375">
        <ele>1848.4000244140625</ele>
        <time>2026-08-31T05:47:42.000Z</time>
        <extensions>
          <ns3:TrackPointExtension>
            <ns3:hr>122</ns3:hr>
            <ns3:cad>0</ns3:cad>
          </ns3:TrackPointExtension>
        </extensions>
      </trkpt>
      <trkpt lat="44.6774930320680141448974609375" lon="6.80064766667783260345458984375">
        <ele>1848.4000244140625</ele>
        <time>2026-08-31T05:47:43.000Z</time>
        <extensions>
          <ns3:TrackPointExtension>
            <ns3:hr>121</ns3:hr>
            <ns3:cad>0</ns3:cad>
          </ns3:TrackPointExtension>
        </extensions>
      </trkpt>
      <trkpt lat="44.6774930320680141448974609375" lon="6.80064766667783260345458984375">
        <ele>1848.4000244140625</ele>
        <time>2026-08-31T05:47:44.000Z</time>
        <extensions>
          <ns3:TrackPointExtension>
            <ns3:hr>121</ns3:hr>
            <ns3:cad>0</ns3:cad>
          </ns3:TrackPointExtension>
        </extensions>
      </trkpt>
      <trkpt lat="44.6774930320680141448974609375" lon="6.80064766667783260345458984375">
        <ele>1848.4000244140625</ele>
        <time>2026-08-31T05:47:45.000Z</time>
        <extensions>
          <ns3:TrackPointExtension>
            <ns3:hr>121</ns3:hr>
            <ns3:cad>0</ns3:cad>
          </ns3:TrackPointExtension>
        </extensions>
      </trkpt>
      <trkpt lat="44.6774930320680141448974609375" lon="6.80064766667783260345458984375">
        <ele>1848.4000244140625</ele>
        <time>2026-08-31T05:47:46.000Z</time>
        <extensions>
          <ns3:TrackPointExtension>
            <ns3:hr>121</ns3:hr>
            <ns3:cad>0</ns3:cad>
          </ns3:TrackPointExtension>
        </extensions>
      </trkpt>
      <trkpt lat="44.6774930320680141448974609375" lon="6.80064766667783260345458984375">
        <ele>1848.5999755859375</ele>
        <time>2026-08-31T05:47:47.000Z</time>
        <extensions>
          <ns3:TrackPointExtension>
            <ns3:hr>120</ns3:hr>
            <ns3:cad>0</ns3:cad>
          </ns3:TrackPointExtension>
        </extensions>
      </trkpt>
      <trkpt lat="44.6774930320680141448974609375" lon="6.80064766667783260345458984375">
        <ele>1848.5999755859375</ele>
        <time>2026-08-31T05:47:48.000Z</time>
        <extensions>
          <ns3:TrackPointExtension>
            <ns3:hr>120</ns3:hr>
            <ns3:cad>0</ns3:cad>
          </ns3:TrackPointExtension>
        </extensions>
      </trkpt>
      <trkpt lat="44.6774930320680141448974609375" lon="6.80064766667783260345458984375">
        <ele>1848.5999755859375</ele>
        <time>2026-08-31T05:47:49.000Z</time>
        <extensions>
          <ns3:TrackPointExtension>
            <ns3:hr>120</ns3:hr>
            <ns3:cad>0</ns3:cad>
          </ns3:TrackPointExtension>
        </extensions>
      </trkpt>
      <trkpt lat="44.6774930320680141448974609375" lon="6.80064766667783260345458984375">
        <ele>1848.5999755859375</ele>
        <time>2026-08-31T05:47:50.000Z</time>
        <extensions>
          <ns3:TrackPointExtension>
            <ns3:hr>120</ns3:hr>
            <ns3:cad>0</ns3:cad>
          </ns3:TrackPointExtension>
        </extensions>
      </trkpt>
      <trkpt lat="44.6774930320680141448974609375" lon="6.80064766667783260345458984375">
        <ele>1848.5999755859375</ele>
        <time>2026-08-31T05:47:51.000Z</time>
        <extensions>
          <ns3:TrackPointExtension>
            <ns3:hr>120</ns3:hr>
            <ns3:cad>0</ns3:cad>
          </ns3:TrackPointExtension>
        </extensions>
      </trkpt>
      <trkpt lat="44.6774930320680141448974609375" lon="6.80064766667783260345458984375">
        <ele>1848.5999755859375</ele>
        <time>2026-08-31T05:47:52.000Z</time>
        <extensions>
          <ns3:TrackPointExtension>
            <ns3:hr>120</ns3:hr>
            <ns3:cad>60</ns3:cad>
          </ns3:TrackPointExtension>
        </extensions>
      </trkpt>
      <trkpt lat="44.67749764211475849151611328125" lon="6.80065269581973552703857421875">
        <ele>1848.5999755859375</ele>
        <time>2026-08-31T05:47:53.000Z</time>
        <extensions>
          <ns3:TrackPointExtension>
            <ns3:hr>120</ns3:hr>
            <ns3:cad>60</ns3:cad>
          </ns3:TrackPointExtension>
        </extensions>
      </trkpt>
      <trkpt lat="44.67750468291342258453369140625" lon="6.8006537854671478271484375">
        <ele>1848.5999755859375</ele>
        <time>2026-08-31T05:47:54.000Z</time>
        <extensions>
          <ns3:TrackPointExtension>
            <ns3:hr>120</ns3:hr>
            <ns3:cad>0</ns3:cad>
          </ns3:TrackPointExtension>
        </extensions>
      </trkpt>
      <trkpt lat="44.677504934370517730712890625" lon="6.8006542883813381195068359375">
        <ele>1848.5999755859375</ele>
        <time>2026-08-31T05:47:55.000Z</time>
        <extensions>
          <ns3:TrackPointExtension>
            <ns3:hr>119</ns3:hr>
            <ns3:cad>0</ns3:cad>
          </ns3:TrackPointExtension>
        </extensions>
      </trkpt>
      <trkpt lat="44.67750719748437404632568359375" lon="6.8006537854671478271484375">
        <ele>1848.5999755859375</ele>
        <time>2026-08-31T05:47:56.000Z</time>
        <extensions>
          <ns3:TrackPointExtension>
            <ns3:hr>118</ns3:hr>
            <ns3:cad>0</ns3:cad>
          </ns3:TrackPointExtension>
        </extensions>
      </trkpt>
      <trkpt lat="44.677512310445308685302734375" lon="6.8006495945155620574951171875">
        <ele>1848.5999755859375</ele>
        <time>2026-08-31T05:47:57.000Z</time>
        <extensions>
          <ns3:TrackPointExtension>
            <ns3:hr>117</ns3:hr>
            <ns3:cad>0</ns3:cad>
          </ns3:TrackPointExtension>
        </extensions>
      </trkpt>
      <trkpt lat="44.677512645721435546875" lon="6.80064230225980281829833984375">
        <ele>1848.4000244140625</ele>
        <time>2026-08-31T05:47:58.000Z</time>
        <extensions>
          <ns3:TrackPointExtension>
            <ns3:hr>115</ns3:hr>
            <ns3:cad>0</ns3:cad>
          </ns3:TrackPointExtension>
        </extensions>
      </trkpt>
      <trkpt lat="44.67751155607402324676513671875" lon="6.80062889121472835540771484375">
        <ele>1848.4000244140625</ele>
        <time>2026-08-31T05:47:59.000Z</time>
        <extensions>
          <ns3:TrackPointExtension>
            <ns3:hr>113</ns3:hr>
            <ns3:cad>0</ns3:cad>
          </ns3:TrackPointExtension>
        </extensions>
      </trkpt>
      <trkpt lat="44.6775104664266109466552734375" lon="6.8006174080073833465576171875">
        <ele>1848.4000244140625</ele>
        <time>2026-08-31T05:48:00.000Z</time>
        <extensions>
          <ns3:TrackPointExtension>
            <ns3:hr>113</ns3:hr>
            <ns3:cad>0</ns3:cad>
          </ns3:TrackPointExtension>
        </extensions>
      </trkpt>
      <trkpt lat="44.67750669457018375396728515625" lon="6.800601147115230560302734375">
        <ele>1848.199951171875</ele>
        <time>2026-08-31T05:48:01.000Z</time>
        <extensions>
          <ns3:TrackPointExtension>
            <ns3:hr>112</ns3:hr>
            <ns3:cad>0</ns3:cad>
          </ns3:TrackPointExtension>
        </extensions>
      </trkpt>
      <trkpt lat="44.67750350944697856903076171875" lon="6.80058178491890430450439453125">
        <ele>1848.199951171875</ele>
        <time>2026-08-31T05:48:02.000Z</time>
        <extensions>
          <ns3:TrackPointExtension>
            <ns3:hr>112</ns3:hr>
            <ns3:cad>0</ns3:cad>
          </ns3:TrackPointExtension>
        </extensions>
      </trkpt>
      <trkpt lat="44.6774970553815364837646484375" lon="6.80056334473192691802978515625">
        <ele>1848</ele>
        <time>2026-08-31T05:48:03.000Z</time>
        <extensions>
          <ns3:TrackPointExtension>
            <ns3:hr>112</ns3:hr>
            <ns3:cad>0</ns3:cad>
          </ns3:TrackPointExtension>
        </extensions>
      </trkpt>
      <trkpt lat="44.67748724855482578277587890625" lon="6.80055043660104274749755859375">
        <ele>1847.800048828125</ele>
        <time>2026-08-31T05:48:04.000Z</time>
        <extensions>
          <ns3:TrackPointExtension>
            <ns3:hr>112</ns3:hr>
            <ns3:cad>63</ns3:cad>
          </ns3:TrackPointExtension>
        </extensions>
      </trkpt>
      <trkpt lat="44.67747844755649566650390625" lon="6.80053652264177799224853515625">
        <ele>1847.4000244140625</ele>
        <time>2026-08-31T05:48:05.000Z</time>
        <extensions>
          <ns3:TrackPointExtension>
            <ns3:hr>112</ns3:hr>
            <ns3:cad>65</ns3:cad>
          </ns3:TrackPointExtension>
        </extensions>
      </trkpt>
      <trkpt lat="44.67747014947235584259033203125" lon="6.8005218543112277984619140625">
        <ele>1847</ele>
        <time>2026-08-31T05:48:06.000Z</time>
        <extensions>
          <ns3:TrackPointExtension>
            <ns3:hr>111</ns3:hr>
            <ns3:cad>65</ns3:cad>
          </ns3:TrackPointExtension>
        </extensions>
      </trkpt>
      <trkpt lat="44.67746679671108722686767578125" lon="6.80050936527550220489501953125">
        <ele>1846.5999755859375</ele>
        <time>2026-08-31T05:48:07.000Z</time>
        <extensions>
          <ns3:TrackPointExtension>
            <ns3:hr>111</ns3:hr>
            <ns3:cad>64</ns3:cad>
          </ns3:TrackPointExtension>
        </extensions>
      </trkpt>
      <trkpt lat="44.67746545560657978057861328125" lon="6.800503246486186981201171875">
        <ele>1846.199951171875</ele>
        <time>2026-08-31T05:48:08.000Z</time>
        <extensions>
          <ns3:TrackPointExtension>
            <ns3:hr>111</ns3:hr>
            <ns3:cad>63</ns3:cad>
          </ns3:TrackPointExtension>
        </extensions>
      </trkpt>
      <trkpt lat="44.6774645335972309112548828125" lon="6.8004970438778400421142578125">
        <ele>1845.800048828125</ele>
        <time>2026-08-31T05:48:09.000Z</time>
        <extensions>
          <ns3:TrackPointExtension>
            <ns3:hr>111</ns3:hr>
            <ns3:cad>0</ns3:cad>
          </ns3:TrackPointExtension>
        </extensions>
      </trkpt>
      <trkpt lat="44.67745875008404254913330078125" lon="6.80049260146915912628173828125">
        <ele>1845.5999755859375</ele>
        <time>2026-08-31T05:48:10.000Z</time>
        <extensions>
          <ns3:TrackPointExtension>
            <ns3:hr>112</ns3:hr>
            <ns3:cad>0</ns3:cad>
          </ns3:TrackPointExtension>
        </extensions>
      </trkpt>
      <trkpt lat="44.67745120637118816375732421875" lon="6.8004923500120639801025390625">
        <ele>1845.4000244140625</ele>
        <time>2026-08-31T05:48:11.000Z</time>
        <extensions>
          <ns3:TrackPointExtension>
            <ns3:hr>112</ns3:hr>
            <ns3:cad>0</ns3:cad>
          </ns3:TrackPointExtension>
        </extensions>
      </trkpt>
      <trkpt lat="44.67744148336350917816162109375" lon="6.80050366558134555816650390625">
        <ele>1845.4000244140625</ele>
        <time>2026-08-31T05:48:12.000Z</time>
        <extensions>
          <ns3:TrackPointExtension>
            <ns3:hr>113</ns3:hr>
            <ns3:cad>0</ns3:cad>
          </ns3:TrackPointExtension>
        </extensions>
      </trkpt>
      <trkpt lat="44.6774308383464813232421875" lon="6.800515986979007720947265625">
        <ele>1845.199951171875</ele>
        <time>2026-08-31T05:48:13.000Z</time>
        <extensions>
          <ns3:TrackPointExtension>
            <ns3:hr>113</ns3:hr>
            <ns3:cad>0</ns3:cad>
          </ns3:TrackPointExtension>
        </extensions>
      </trkpt>
      <trkpt lat="44.67741985805332660675048828125" lon="6.8005299009382724761962890625">
        <ele>1845.4000244140625</ele>
        <time>2026-08-31T05:48:14.000Z</time>
        <extensions>
          <ns3:TrackPointExtension>
            <ns3:hr>113</ns3:hr>
            <ns3:cad>0</ns3:cad>
          </ns3:TrackPointExtension>
        </extensions>
      </trkpt>
      <trkpt lat="44.67740795575082302093505859375" lon="6.80054741911590099334716796875">
        <ele>1845.4000244140625</ele>
        <time>2026-08-31T05:48:15.000Z</time>
        <extensions>
          <ns3:TrackPointExtension>
            <ns3:hr>113</ns3:hr>
            <ns3:cad>0</ns3:cad>
          </ns3:TrackPointExtension>
        </extensions>
      </trkpt>
      <trkpt lat="44.677398316562175750732421875" lon="6.80056368000805377960205078125">
        <ele>1845.4000244140625</ele>
        <time>2026-08-31T05:48:16.000Z</time>
        <extensions>
          <ns3:TrackPointExtension>
            <ns3:hr>113</ns3:hr>
            <ns3:cad>61</ns3:cad>
          </ns3:TrackPointExtension>
        </extensions>
      </trkpt>
      <trkpt lat="44.67739135958254337310791015625" lon="6.800582706928253173828125">
        <ele>1845.4000244140625</ele>
        <time>2026-08-31T05:48:17.000Z</time>
        <extensions>
          <ns3:TrackPointExtension>
            <ns3:hr>114</ns3:hr>
            <ns3:cad>62</ns3:cad>
          </ns3:TrackPointExtension>
        </extensions>
      </trkpt>
      <trkpt lat="44.677384234964847564697265625" lon="6.800601482391357421875">
        <ele>1845.4000244140625</ele>
        <time>2026-08-31T05:48:18.000Z</time>
        <extensions>
          <ns3:TrackPointExtension>
            <ns3:hr>114</ns3:hr>
            <ns3:cad>63</ns3:cad>
          </ns3:TrackPointExtension>
        </extensions>
      </trkpt>
      <trkpt lat="44.677375517785549163818359375" lon="6.8006180785596370697021484375">
        <ele>1845.5999755859375</ele>
        <time>2026-08-31T05:48:19.000Z</time>
        <extensions>
          <ns3:TrackPointExtension>
            <ns3:hr>114</ns3:hr>
            <ns3:cad>63</ns3:cad>
          </ns3:TrackPointExtension>
        </extensions>
      </trkpt>
      <trkpt lat="44.67736872844398021697998046875" lon="6.8006335012614727020263671875">
        <ele>1845.5999755859375</ele>
        <time>2026-08-31T05:48:20.000Z</time>
        <extensions>
          <ns3:TrackPointExtension>
            <ns3:hr>115</ns3:hr>
            <ns3:cad>64</ns3:cad>
          </ns3:TrackPointExtension>
        </extensions>
      </trkpt>
      <trkpt lat="44.6773595921695232391357421875" lon="6.8006495945155620574951171875">
        <ele>1845.5999755859375</ele>
        <time>2026-08-31T05:48:21.000Z</time>
        <extensions>
          <ns3:TrackPointExtension>
            <ns3:hr>115</ns3:hr>
            <ns3:cad>64</ns3:cad>
          </ns3:TrackPointExtension>
        </extensions>
      </trkpt>
      <trkpt lat="44.6773515455424785614013671875" lon="6.8006643466651439666748046875">
        <ele>1845.5999755859375</ele>
        <time>2026-08-31T05:48:22.000Z</time>
        <extensions>
          <ns3:TrackPointExtension>
            <ns3:hr>116</ns3:hr>
            <ns3:cad>65</ns3:cad>
          </ns3:TrackPointExtension>
        </extensions>
      </trkpt>
      <trkpt lat="44.67734391801059246063232421875" lon="6.80068354122340679168701171875">
        <ele>1845.4000244140625</ele>
        <time>2026-08-31T05:48:23.000Z</time>
        <extensions>
          <ns3:TrackPointExtension>
            <ns3:hr>116</ns3:hr>
            <ns3:cad>65</ns3:cad>
          </ns3:TrackPointExtension>
        </extensions>
      </trkpt>
      <trkpt lat="44.677335284650325775146484375" lon="6.8007018975913524627685546875">
        <ele>1845.4000244140625</ele>
        <time>2026-08-31T05:48:24.000Z</time>
        <extensions>
          <ns3:TrackPointExtension>
            <ns3:hr>116</ns3:hr>
            <ns3:cad>65</ns3:cad>
          </ns3:TrackPointExtension>
        </extensions>
      </trkpt>
      <trkpt lat="44.67732950113713741302490234375" lon="6.8007181584835052490234375">
        <ele>1845.199951171875</ele>
        <time>2026-08-31T05:48:25.000Z</time>
        <extensions>
          <ns3:TrackPointExtension>
            <ns3:hr>116</ns3:hr>
            <ns3:cad>65</ns3:cad>
          </ns3:TrackPointExtension>
        </extensions>
      </trkpt>
      <trkpt lat="44.67732313089072704315185546875" lon="6.80073617957532405853271484375">
        <ele>1845.199951171875</ele>
        <time>2026-08-31T05:48:26.000Z</time>
        <extensions>
          <ns3:TrackPointExtension>
            <ns3:hr>116</ns3:hr>
            <ns3:cad>65</ns3:cad>
          </ns3:TrackPointExtension>
        </extensions>
      </trkpt>
      <trkpt lat="44.67731525190174579620361328125" lon="6.8007535301148891448974609375">
        <ele>1845.199951171875</ele>
        <time>2026-08-31T05:48:27.000Z</time>
        <extensions>
          <ns3:TrackPointExtension>
            <ns3:hr>116</ns3:hr>
            <ns3:cad>65</ns3:cad>
          </ns3:TrackPointExtension>
        </extensions>
      </trkpt>
      <trkpt lat="44.67730837874114513397216796875" lon="6.8007719703018665313720703125">
        <ele>1845.199951171875</ele>
        <time>2026-08-31T05:48:28.000Z</time>
        <extensions>
          <ns3:TrackPointExtension>
            <ns3:hr>115</ns3:hr>
            <ns3:cad>66</ns3:cad>
          </ns3:TrackPointExtension>
        </extensions>
      </trkpt>
      <trkpt lat="44.677304439246654510498046875" lon="6.80078529752790927886962890625">
        <ele>1845.4000244140625</ele>
        <time>2026-08-31T05:48:29.000Z</time>
        <extensions>
          <ns3:TrackPointExtension>
            <ns3:hr>115</ns3:hr>
            <ns3:cad>66</ns3:cad>
          </ns3:TrackPointExtension>
        </extensions>
      </trkpt>
      <trkpt lat="44.6772985719144344329833984375" lon="6.8008021451532840728759765625">
        <ele>1845.4000244140625</ele>
        <time>2026-08-31T05:48:30.000Z</time>
        <extensions>
          <ns3:TrackPointExtension>
            <ns3:hr>115</ns3:hr>
            <ns3:cad>65</ns3:cad>
          </ns3:TrackPointExtension>
        </extensions>
      </trkpt>
      <trkpt lat="44.67729262076318264007568359375" lon="6.80081513710319995880126953125">
        <ele>1845.5999755859375</ele>
        <time>2026-08-31T05:48:31.000Z</time>
        <extensions>
          <ns3:TrackPointExtension>
            <ns3:hr>116</ns3:hr>
            <ns3:cad>64</ns3:cad>
          </ns3:TrackPointExtension>
        </extensions>
      </trkpt>
      <trkpt lat="44.677285663783550262451171875" lon="6.80083215236663818359375">
        <ele>1845.5999755859375</ele>
        <time>2026-08-31T05:48:32.000Z</time>
        <extensions>
          <ns3:TrackPointExtension>
            <ns3:hr>115</ns3:hr>
            <ns3:cad>62</ns3:cad>
          </ns3:TrackPointExtension>
        </extensions>
      </trkpt>
      <trkpt lat="44.6772767789661884307861328125" lon="6.80085352621972560882568359375">
        <ele>1845.800048828125</ele>
        <time>2026-08-31T05:48:33.000Z</time>
        <extensions>
          <ns3:TrackPointExtension>
            <ns3:hr>116</ns3:hr>
            <ns3:cad>62</ns3:cad>
          </ns3:TrackPointExtension>
        </extensions>
      </trkpt>
      <trkpt lat="44.67726965434849262237548828125" lon="6.80086903274059295654296875">
        <ele>1845.800048828125</ele>
        <time>2026-08-31T05:48:34.000Z</time>
        <extensions>
          <ns3:TrackPointExtension>
            <ns3:hr>116</ns3:hr>
            <ns3:cad>62</ns3:cad>
          </ns3:TrackPointExtension>
        </extensions>
      </trkpt>
      <trkpt lat="44.67726127244532108306884765625" lon="6.80088621564209461212158203125">
        <ele>1846</ele>
        <time>2026-08-31T05:48:35.000Z</time>
        <extensions>
          <ns3:TrackPointExtension>
            <ns3:hr>116</ns3:hr>
            <ns3:cad>62</ns3:cad>
          </ns3:TrackPointExtension>
        </extensions>
      </trkpt>
      <trkpt lat="44.677256159484386444091796875" lon="6.80090121924877166748046875">
        <ele>1846</ele>
        <time>2026-08-31T05:48:36.000Z</time>
        <extensions>
          <ns3:TrackPointExtension>
            <ns3:hr>115</ns3:hr>
            <ns3:cad>62</ns3:cad>
          </ns3:TrackPointExtension>
        </extensions>
      </trkpt>
      <trkpt lat="44.67724978923797607421875" lon="6.80091840215027332305908203125">
        <ele>1846.199951171875</ele>
        <time>2026-08-31T05:48:37.000Z</time>
        <extensions>
          <ns3:TrackPointExtension>
            <ns3:hr>115</ns3:hr>
            <ns3:cad>62</ns3:cad>
          </ns3:TrackPointExtension>
        </extensions>
      </trkpt>
      <trkpt lat="44.677244089543819427490234375" lon="6.80093516595661640167236328125">
        <ele>1846.199951171875</ele>
        <time>2026-08-31T05:48:38.000Z</time>
        <extensions>
          <ns3:TrackPointExtension>
            <ns3:hr>115</ns3:hr>
            <ns3:cad>63</ns3:cad>
          </ns3:TrackPointExtension>
        </extensions>
      </trkpt>
      <trkpt lat="44.67723730020225048065185546875" lon="6.80095360614359378814697265625">
        <ele>1846.199951171875</ele>
        <time>2026-08-31T05:48:39.000Z</time>
        <extensions>
          <ns3:TrackPointExtension>
            <ns3:hr>115</ns3:hr>
            <ns3:cad>64</ns3:cad>
          </ns3:TrackPointExtension>
        </extensions>
      </trkpt>
      <trkpt lat="44.67722900211811065673828125" lon="6.80097456090152263641357421875">
        <ele>1846.199951171875</ele>
        <time>2026-08-31T05:48:40.000Z</time>
        <extensions>
          <ns3:TrackPointExtension>
            <ns3:hr>114</ns3:hr>
            <ns3:cad>64</ns3:cad>
          </ns3:TrackPointExtension>
        </extensions>
      </trkpt>
      <trkpt lat="44.67722070403397083282470703125" lon="6.80100155062973499298095703125">
        <ele>1846.199951171875</ele>
        <time>2026-08-31T05:48:41.000Z</time>
        <extensions>
          <ns3:TrackPointExtension>
            <ns3:hr>114</ns3:hr>
            <ns3:cad>62</ns3:cad>
          </ns3:TrackPointExtension>
        </extensions>
      </trkpt>
      <trkpt lat="44.67721416614949703216552734375" lon="6.8010297976434230804443359375">
        <ele>1846.199951171875</ele>
        <time>2026-08-31T05:48:42.000Z</time>
        <extensions>
          <ns3:TrackPointExtension>
            <ns3:hr>114</ns3:hr>
            <ns3:cad>62</ns3:cad>
          </ns3:TrackPointExtension>
        </extensions>
      </trkpt>
      <trkpt lat="44.67720880173146724700927734375" lon="6.801059134304523468017578125">
        <ele>1846.199951171875</ele>
        <time>2026-08-31T05:48:43.000Z</time>
        <extensions>
          <ns3:TrackPointExtension>
            <ns3:hr>113</ns3:hr>
            <ns3:cad>62</ns3:cad>
          </ns3:TrackPointExtension>
        </extensions>
      </trkpt>
      <trkpt lat="44.67720176093280315399169921875" lon="6.80109090171754360198974609375">
        <ele>1846.199951171875</ele>
        <time>2026-08-31T05:48:44.000Z</time>
        <extensions>
          <ns3:TrackPointExtension>
            <ns3:hr>113</ns3:hr>
            <ns3:cad>81</ns3:cad>
          </ns3:TrackPointExtension>
        </extensions>
      </trkpt>
      <trkpt lat="44.67719681560993194580078125" lon="6.80112342350184917449951171875">
        <ele>1846.199951171875</ele>
        <time>2026-08-31T05:48:45.000Z</time>
        <extensions>
          <ns3:TrackPointExtension>
            <ns3:hr>112</ns3:hr>
            <ns3:cad>82</ns3:cad>
          </ns3:TrackPointExtension>
        </extensions>
      </trkpt>
      <trkpt lat="44.677190445363521575927734375" lon="6.80115577764809131622314453125">
        <ele>1846.4000244140625</ele>
        <time>2026-08-31T05:48:46.000Z</time>
        <extensions>
          <ns3:TrackPointExtension>
            <ns3:hr>112</ns3:hr>
            <ns3:cad>81</ns3:cad>
          </ns3:TrackPointExtension>
        </extensions>
      </trkpt>
      <trkpt lat="44.67718298546969890594482421875" lon="6.80119232274591922760009765625">
        <ele>1846.5999755859375</ele>
        <time>2026-08-31T05:48:47.000Z</time>
        <extensions>
          <ns3:TrackPointExtension>
            <ns3:hr>112</ns3:hr>
            <ns3:cad>81</ns3:cad>
          </ns3:TrackPointExtension>
        </extensions>
      </trkpt>
      <trkpt lat="44.677177369594573974609375" lon="6.8012237548828125">
        <ele>1846.5999755859375</ele>
        <time>2026-08-31T05:48:48.000Z</time>
        <extensions>
          <ns3:TrackPointExtension>
            <ns3:hr>112</ns3:hr>
            <ns3:cad>81</ns3:cad>
          </ns3:TrackPointExtension>
        </extensions>
      </trkpt>
      <trkpt lat="44.67717535793781280517578125" lon="6.80125753395259380340576171875">
        <ele>1846.5999755859375</ele>
        <time>2026-08-31T05:48:49.000Z</time>
        <extensions>
          <ns3:TrackPointExtension>
            <ns3:hr>112</ns3:hr>
            <ns3:cad>82</ns3:cad>
          </ns3:TrackPointExtension>
        </extensions>
      </trkpt>
      <trkpt lat="44.67716923914849758148193359375" lon="6.801292486488819122314453125">
        <ele>1846.5999755859375</ele>
        <time>2026-08-31T05:48:50.000Z</time>
        <extensions>
          <ns3:TrackPointExtension>
            <ns3:hr>113</ns3:hr>
            <ns3:cad>82</ns3:cad>
          </ns3:TrackPointExtension>
        </extensions>
      </trkpt>
      <trkpt lat="44.67716454528272151947021484375" lon="6.8013214878737926483154296875">
        <ele>1846.5999755859375</ele>
        <time>2026-08-31T05:48:51.000Z</time>
        <extensions>
          <ns3:TrackPointExtension>
            <ns3:hr>113</ns3:hr>
            <ns3:cad>82</ns3:cad>
          </ns3:TrackPointExtension>
        </extensions>
      </trkpt>
      <trkpt lat="44.6771607734262943267822265625" lon="6.8013543449342250823974609375">
        <ele>1846.4000244140625</ele>
        <time>2026-08-31T05:48:52.000Z</time>
        <extensions>
          <ns3:TrackPointExtension>
            <ns3:hr>114</ns3:hr>
            <ns3:cad>82</ns3:cad>
          </ns3:TrackPointExtension>
        </extensions>
      </trkpt>
      <trkpt lat="44.6771604381501674652099609375" lon="6.80138980038464069366455078125">
        <ele>1846.5999755859375</ele>
        <time>2026-08-31T05:48:53.000Z</time>
        <extensions>
          <ns3:TrackPointExtension>
            <ns3:hr>115</ns3:hr>
            <ns3:cad>82</ns3:cad>
          </ns3:TrackPointExtension>
        </extensions>
      </trkpt>
      <trkpt lat="44.677161611616611480712890625" lon="6.8014146946370601654052734375">
        <ele>1846.5999755859375</ele>
        <time>2026-08-31T05:48:54.000Z</time>
        <extensions>
          <ns3:TrackPointExtension>
            <ns3:hr>116</ns3:hr>
            <ns3:cad>82</ns3:cad>
          </ns3:TrackPointExtension>
        </extensions>
      </trkpt>
      <trkpt lat="44.67715800739824771881103515625" lon="6.8014509044587612152099609375">
        <ele>1846.800048828125</ele>
        <time>2026-08-31T05:48:55.000Z</time>
        <extensions>
          <ns3:TrackPointExtension>
            <ns3:hr>117</ns3:hr>
            <ns3:cad>82</ns3:cad>
          </ns3:TrackPointExtension>
        </extensions>
      </trkpt>
      <trkpt lat="44.677155911922454833984375" lon="6.80148401297628879547119140625">
        <ele>1846.800048828125</ele>
        <time>2026-08-31T05:48:56.000Z</time>
        <extensions>
          <ns3:TrackPointExtension>
            <ns3:hr>118</ns3:hr>
            <ns3:cad>82</ns3:cad>
          </ns3:TrackPointExtension>
        </extensions>
      </trkpt>
      <trkpt lat="44.6771557442843914031982421875" lon="6.801506392657756805419921875">
        <ele>1846.800048828125</ele>
        <time>2026-08-31T05:48:57.000Z</time>
        <extensions>
          <ns3:TrackPointExtension>
            <ns3:hr>120</ns3:hr>
            <ns3:cad>82</ns3:cad>
          </ns3:TrackPointExtension>
        </extensions>
      </trkpt>
      <trkpt lat="44.67715524137020111083984375" lon="6.80154503323137760162353515625">
        <ele>1846.800048828125</ele>
        <time>2026-08-31T05:48:58.000Z</time>
        <extensions>
          <ns3:TrackPointExtension>
            <ns3:hr>121</ns3:hr>
            <ns3:cad>82</ns3:cad>
          </ns3:TrackPointExtension>
        </extensions>
      </trkpt>
      <trkpt lat="44.67714694328606128692626953125" lon="6.80157789029181003570556640625">
        <ele>1846.5999755859375</ele>
        <time>2026-08-31T05:48:59.000Z</time>
        <extensions>
          <ns3:TrackPointExtension>
            <ns3:hr>122</ns3:hr>
            <ns3:cad>81</ns3:cad>
          </ns3:TrackPointExtension>
        </extensions>
      </trkpt>
      <trkpt lat="44.6771419979631900787353515625" lon="6.80160664021968841552734375">
        <ele>1846.5999755859375</ele>
        <time>2026-08-31T05:49:00.000Z</time>
        <extensions>
          <ns3:TrackPointExtension>
            <ns3:hr>123</ns3:hr>
            <ns3:cad>81</ns3:cad>
          </ns3:TrackPointExtension>
        </extensions>
      </trkpt>
      <trkpt lat="44.67713085003197193145751953125" lon="6.80164259858429431915283203125">
        <ele>1846.4000244140625</ele>
        <time>2026-08-31T05:49:01.000Z</time>
        <extensions>
          <ns3:TrackPointExtension>
            <ns3:hr>123</ns3:hr>
            <ns3:cad>81</ns3:cad>
          </ns3:TrackPointExtension>
        </extensions>
      </trkpt>
      <trkpt lat="44.67711903154850006103515625" lon="6.8016708455979824066162109375">
        <ele>1846.4000244140625</ele>
        <time>2026-08-31T05:49:02.000Z</time>
        <extensions>
          <ns3:TrackPointExtension>
            <ns3:hr>124</ns3:hr>
            <ns3:cad>81</ns3:cad>
          </ns3:TrackPointExtension>
        </extensions>
      </trkpt>
      <trkpt lat="44.6771037764847278594970703125" lon="6.8017000146210193634033203125">
        <ele>1846.4000244140625</ele>
        <time>2026-08-31T05:49:03.000Z</time>
        <extensions>
          <ns3:TrackPointExtension>
            <ns3:hr>124</ns3:hr>
            <ns3:cad>82</ns3:cad>
          </ns3:TrackPointExtension>
        </extensions>
      </trkpt>
      <trkpt lat="44.677086174488067626953125" lon="6.80172490887343883514404296875">
        <ele>1846.199951171875</ele>
        <time>2026-08-31T05:49:04.000Z</time>
        <extensions>
          <ns3:TrackPointExtension>
            <ns3:hr>125</ns3:hr>
            <ns3:cad>83</ns3:cad>
          </ns3:TrackPointExtension>
        </extensions>
      </trkpt>
      <trkpt lat="44.67707603238523006439208984375" lon="6.80173949338495731353759765625">
        <ele>1846.4000244140625</ele>
        <time>2026-08-31T05:49:05.000Z</time>
        <extensions>
          <ns3:TrackPointExtension>
            <ns3:hr>126</ns3:hr>
            <ns3:cad>83</ns3:cad>
          </ns3:TrackPointExtension>
        </extensions>
      </trkpt>
      <trkpt lat="44.67705465853214263916015625" lon="6.80175977759063243865966796875">
        <ele>1846.5999755859375</ele>
        <time>2026-08-31T05:49:06.000Z</time>
        <extensions>
          <ns3:TrackPointExtension>
            <ns3:hr>126</ns3:hr>
            <ns3:cad>82</ns3:cad>
          </ns3:TrackPointExtension>
        </extensions>
      </trkpt>
      <trkpt lat="44.67704032547771930694580078125" lon="6.80177427828311920166015625">
        <ele>1846.5999755859375</ele>
        <time>2026-08-31T05:49:07.000Z</time>
        <extensions>
          <ns3:TrackPointExtension>
            <ns3:hr>127</ns3:hr>
            <ns3:cad>82</ns3:cad>
          </ns3:TrackPointExtension>
        </extensions>
      </trkpt>
      <trkpt lat="44.67702691443264484405517578125" lon="6.80178961716592311859130859375">
        <ele>1846.800048828125</ele>
        <time>2026-08-31T05:49:08.000Z</time>
        <extensions>
          <ns3:TrackPointExtension>
            <ns3:hr>128</ns3:hr>
            <ns3:cad>83</ns3:cad>
          </ns3:TrackPointExtension>
        </extensions>
      </trkpt>
      <trkpt lat="44.67700344510376453399658203125" lon="6.8018119968473911285400390625">
        <ele>1846.800048828125</ele>
        <time>2026-08-31T05:49:09.000Z</time>
        <extensions>
          <ns3:TrackPointExtension>
            <ns3:hr>128</ns3:hr>
            <ns3:cad>83</ns3:cad>
          </ns3:TrackPointExtension>
        </extensions>
      </trkpt>
      <trkpt lat="44.67698869295418262481689453125" lon="6.80183060467243194580078125">
        <ele>1846.5999755859375</ele>
        <time>2026-08-31T05:49:10.000Z</time>
        <extensions>
          <ns3:TrackPointExtension>
            <ns3:hr>129</ns3:hr>
            <ns3:cad>83</ns3:cad>
          </ns3:TrackPointExtension>
        </extensions>
      </trkpt>
      <trkpt lat="44.67696974985301494598388671875" lon="6.8018612824380397796630859375">
        <ele>1846.5999755859375</ele>
        <time>2026-08-31T05:49:11.000Z</time>
        <extensions>
          <ns3:TrackPointExtension>
            <ns3:hr>129</ns3:hr>
            <ns3:cad>82</ns3:cad>
          </ns3:TrackPointExtension>
        </extensions>
      </trkpt>
      <trkpt lat="44.6769534051418304443359375" lon="6.801888607442378997802734375">
        <ele>1846.800048828125</ele>
        <time>2026-08-31T05:49:12.000Z</time>
        <extensions>
          <ns3:TrackPointExtension>
            <ns3:hr>130</ns3:hr>
            <ns3:cad>82</ns3:cad>
          </ns3:TrackPointExtension>
        </extensions>
      </trkpt>
      <trkpt lat="44.67694477178156375885009765625" lon="6.8019112385809421539306640625">
        <ele>1846.800048828125</ele>
        <time>2026-08-31T05:49:13.000Z</time>
        <extensions>
          <ns3:TrackPointExtension>
            <ns3:hr>130</ns3:hr>
            <ns3:cad>82</ns3:cad>
          </ns3:TrackPointExtension>
        </extensions>
      </trkpt>
      <trkpt lat="44.6769287623465061187744140625" lon="6.801944933831691741943359375">
        <ele>1846.800048828125</ele>
        <time>2026-08-31T05:49:14.000Z</time>
        <extensions>
          <ns3:TrackPointExtension>
            <ns3:hr>131</ns3:hr>
            <ns3:cad>82</ns3:cad>
          </ns3:TrackPointExtension>
        </extensions>
      </trkpt>
      <trkpt lat="44.676920212805271148681640625" lon="6.80196949280798435211181640625">
        <ele>1846.800048828125</ele>
        <time>2026-08-31T05:49:15.000Z</time>
        <extensions>
          <ns3:TrackPointExtension>
            <ns3:hr>131</ns3:hr>
            <ns3:cad>82</ns3:cad>
          </ns3:TrackPointExtension>
        </extensions>
      </trkpt>
      <trkpt lat="44.6769176982343196868896484375" lon="6.80199581198394298553466796875">
        <ele>1846.800048828125</ele>
        <time>2026-08-31T05:49:16.000Z</time>
        <extensions>
          <ns3:TrackPointExtension>
            <ns3:hr>132</ns3:hr>
            <ns3:cad>82</ns3:cad>
          </ns3:TrackPointExtension>
        </extensions>
      </trkpt>
      <trkpt lat="44.67690822668373584747314453125" lon="6.8020285852253437042236328125">
        <ele>1846.800048828125</ele>
        <time>2026-08-31T05:49:17.000Z</time>
        <extensions>
          <ns3:TrackPointExtension>
            <ns3:hr>132</ns3:hr>
            <ns3:cad>82</ns3:cad>
          </ns3:TrackPointExtension>
        </extensions>
      </trkpt>
      <trkpt lat="44.676901437342166900634765625" lon="6.8020530603826045989990234375">
        <ele>1846.800048828125</ele>
        <time>2026-08-31T05:49:18.000Z</time>
        <extensions>
          <ns3:TrackPointExtension>
            <ns3:hr>133</ns3:hr>
            <ns3:cad>82</ns3:cad>
          </ns3:TrackPointExtension>
        </extensions>
      </trkpt>
      <trkpt lat="44.676893390715122222900390625" lon="6.802082061767578125">
        <ele>1846.800048828125</ele>
        <time>2026-08-31T05:49:19.000Z</time>
        <extensions>
          <ns3:TrackPointExtension>
            <ns3:hr>133</ns3:hr>
            <ns3:cad>82</ns3:cad>
          </ns3:TrackPointExtension>
        </extensions>
      </trkpt>
      <trkpt lat="44.6768848411738872528076171875" lon="6.80211232043802738189697265625">
        <ele>1846.800048828125</ele>
        <time>2026-08-31T05:49:20.000Z</time>
        <extensions>
          <ns3:TrackPointExtension>
            <ns3:hr>134</ns3:hr>
            <ns3:cad>82</ns3:cad>
          </ns3:TrackPointExtension>
        </extensions>
      </trkpt>
      <trkpt lat="44.67688274569809436798095703125" lon="6.80213511921465396881103515625">
        <ele>1846.800048828125</ele>
        <time>2026-08-31T05:49:21.000Z</time>
        <extensions>
          <ns3:TrackPointExtension>
            <ns3:hr>134</ns3:hr>
            <ns3:cad>82</ns3:cad>
          </ns3:TrackPointExtension>
        </extensions>
      </trkpt>
      <trkpt lat="44.67687251977622509002685546875" lon="6.80217317305505275726318359375">
        <ele>1846.800048828125</ele>
        <time>2026-08-31T05:49:22.000Z</time>
        <extensions>
          <ns3:TrackPointExtension>
            <ns3:hr>135</ns3:hr>
            <ns3:cad>82</ns3:cad>
          </ns3:TrackPointExtension>
        </extensions>
      </trkpt>
      <trkpt lat="44.6768675744533538818359375" lon="6.802202761173248291015625">
        <ele>1847</ele>
        <time>2026-08-31T05:49:23.000Z</time>
        <extensions>
          <ns3:TrackPointExtension>
            <ns3:hr>135</ns3:hr>
            <ns3:cad>82</ns3:cad>
          </ns3:TrackPointExtension>
        </extensions>
      </trkpt>
      <trkpt lat="44.67686346732079982757568359375" lon="6.8022327683866024017333984375">
        <ele>1847</ele>
        <time>2026-08-31T05:49:24.000Z</time>
        <extensions>
          <ns3:TrackPointExtension>
            <ns3:hr>135</ns3:hr>
            <ns3:cad>82</ns3:cad>
          </ns3:TrackPointExtension>
        </extensions>
      </trkpt>
      <trkpt lat="44.6768541634082794189453125" lon="6.8022669665515422821044921875">
        <ele>1847</ele>
        <time>2026-08-31T05:49:25.000Z</time>
        <extensions>
          <ns3:TrackPointExtension>
            <ns3:hr>136</ns3:hr>
            <ns3:cad>82</ns3:cad>
          </ns3:TrackPointExtension>
        </extensions>
      </trkpt>
      <trkpt lat="44.67684452421963214874267578125" lon="6.80229119025170803070068359375">
        <ele>1847</ele>
        <time>2026-08-31T05:49:26.000Z</time>
        <extensions>
          <ns3:TrackPointExtension>
            <ns3:hr>136</ns3:hr>
            <ns3:cad>82</ns3:cad>
          </ns3:TrackPointExtension>
        </extensions>
      </trkpt>
      <trkpt lat="44.67683463357388973236083984375" lon="6.80232119746506214141845703125">
        <ele>1847</ele>
        <time>2026-08-31T05:49:27.000Z</time>
        <extensions>
          <ns3:TrackPointExtension>
            <ns3:hr>136</ns3:hr>
            <ns3:cad>82</ns3:cad>
          </ns3:TrackPointExtension>
        </extensions>
      </trkpt>
      <trkpt lat="44.67682491056621074676513671875" lon="6.8023501150310039520263671875">
        <ele>1847.199951171875</ele>
        <time>2026-08-31T05:49:28.000Z</time>
        <extensions>
          <ns3:TrackPointExtension>
            <ns3:hr>136</ns3:hr>
            <ns3:cad>83</ns3:cad>
          </ns3:TrackPointExtension>
        </extensions>
      </trkpt>
      <trkpt lat="44.6768184565007686614990234375" lon="6.80237417109310626983642578125">
        <ele>1847.199951171875</ele>
        <time>2026-08-31T05:49:29.000Z</time>
        <extensions>
          <ns3:TrackPointExtension>
            <ns3:hr>137</ns3:hr>
            <ns3:cad>83</ns3:cad>
          </ns3:TrackPointExtension>
        </extensions>
      </trkpt>
      <trkpt lat="44.67680412344634532928466796875" lon="6.80241038091480731964111328125">
        <ele>1847.199951171875</ele>
        <time>2026-08-31T05:49:30.000Z</time>
        <extensions>
          <ns3:TrackPointExtension>
            <ns3:hr>137</ns3:hr>
            <ns3:cad>83</ns3:cad>
          </ns3:TrackPointExtension>
        </extensions>
      </trkpt>
      <trkpt lat="44.676790796220302581787109375" lon="6.80243519134819507598876953125">
        <ele>1847.4000244140625</ele>
        <time>2026-08-31T05:49:31.000Z</time>
        <extensions>
          <ns3:TrackPointExtension>
            <ns3:hr>137</ns3:hr>
            <ns3:cad>82</ns3:cad>
          </ns3:TrackPointExtension>
        </extensions>
      </trkpt>
      <trkpt lat="44.67678216286003589630126953125" lon="6.8024600856006145477294921875">
        <ele>1847.4000244140625</ele>
        <time>2026-08-31T05:49:32.000Z</time>
        <extensions>
          <ns3:TrackPointExtension>
            <ns3:hr>138</ns3:hr>
            <ns3:cad>82</ns3:cad>
          </ns3:TrackPointExtension>
        </extensions>
      </trkpt>
      <trkpt lat="44.67676858417689800262451171875" lon="6.80248850025236606597900390625">
        <ele>1847.4000244140625</ele>
        <time>2026-08-31T05:49:33.000Z</time>
        <extensions>
          <ns3:TrackPointExtension>
            <ns3:hr>138</ns3:hr>
            <ns3:cad>82</ns3:cad>
          </ns3:TrackPointExtension>
        </extensions>
      </trkpt>
      <trkpt lat="44.676754586398601531982421875" lon="6.80250844918191432952880859375">
        <ele>1847.4000244140625</ele>
        <time>2026-08-31T05:49:34.000Z</time>
        <extensions>
          <ns3:TrackPointExtension>
            <ns3:hr>138</ns3:hr>
            <ns3:cad>82</ns3:cad>
          </ns3:TrackPointExtension>
        </extensions>
      </trkpt>
      <trkpt lat="44.67673690058290958404541015625" lon="6.8025351874530315399169921875">
        <ele>1847.199951171875</ele>
        <time>2026-08-31T05:49:35.000Z</time>
        <extensions>
          <ns3:TrackPointExtension>
            <ns3:hr>139</ns3:hr>
            <ns3:cad>82</ns3:cad>
          </ns3:TrackPointExtension>
        </extensions>
      </trkpt>
      <trkpt lat="44.67671477235853672027587890625" lon="6.8025576509535312652587890625">
        <ele>1847.4000244140625</ele>
        <time>2026-08-31T05:49:36.000Z</time>
        <extensions>
          <ns3:TrackPointExtension>
            <ns3:hr>139</ns3:hr>
            <ns3:cad>82</ns3:cad>
          </ns3:TrackPointExtension>
        </extensions>
      </trkpt>
      <trkpt lat="44.6767027862370014190673828125" lon="6.80257759988307952880859375">
        <ele>1847.4000244140625</ele>
        <time>2026-08-31T05:49:37.000Z</time>
        <extensions>
          <ns3:TrackPointExtension>
            <ns3:hr>139</ns3:hr>
            <ns3:cad>82</ns3:cad>
          </ns3:TrackPointExtension>
        </extensions>
      </trkpt>
      <trkpt lat="44.67668057419359683990478515625" lon="6.80260333232581615447998046875">
        <ele>1847.4000244140625</ele>
        <time>2026-08-31T05:49:38.000Z</time>
        <extensions>
          <ns3:TrackPointExtension>
            <ns3:hr>140</ns3:hr>
            <ns3:cad>82</ns3:cad>
          </ns3:TrackPointExtension>
        </extensions>
      </trkpt>
      <trkpt lat="44.67666297219693660736083984375" lon="6.8026216886937618255615234375">
        <ele>1847.5999755859375</ele>
        <time>2026-08-31T05:49:39.000Z</time>
        <extensions>
          <ns3:TrackPointExtension>
            <ns3:hr>140</ns3:hr>
            <ns3:cad>81</ns3:cad>
          </ns3:TrackPointExtension>
        </extensions>
      </trkpt>
      <trkpt lat="44.676648639142513275146484375" lon="6.80264155380427837371826171875">
        <ele>1847.5999755859375</ele>
        <time>2026-08-31T05:49:40.000Z</time>
        <extensions>
          <ns3:TrackPointExtension>
            <ns3:hr>140</ns3:hr>
            <ns3:cad>81</ns3:cad>
          </ns3:TrackPointExtension>
        </extensions>
      </trkpt>
      <trkpt lat="44.67662693001329898834228515625" lon="6.80266938172280788421630859375">
        <ele>1847.5999755859375</ele>
        <time>2026-08-31T05:49:41.000Z</time>
        <extensions>
          <ns3:TrackPointExtension>
            <ns3:hr>141</ns3:hr>
            <ns3:cad>82</ns3:cad>
          </ns3:TrackPointExtension>
        </extensions>
      </trkpt>
      <trkpt lat="44.6766152791678905487060546875" lon="6.80268966592848300933837890625">
        <ele>1847.4000244140625</ele>
        <time>2026-08-31T05:49:42.000Z</time>
        <extensions>
          <ns3:TrackPointExtension>
            <ns3:hr>141</ns3:hr>
            <ns3:cad>82</ns3:cad>
          </ns3:TrackPointExtension>
        </extensions>
      </trkpt>
      <trkpt lat="44.67660178430378437042236328125" lon="6.802716739475727081298828125">
        <ele>1847.4000244140625</ele>
        <time>2026-08-31T05:49:43.000Z</time>
        <extensions>
          <ns3:TrackPointExtension>
            <ns3:hr>141</ns3:hr>
            <ns3:cad>82</ns3:cad>
          </ns3:TrackPointExtension>
        </extensions>
      </trkpt>
      <trkpt lat="44.67658585868775844573974609375" lon="6.80274565704166889190673828125">
        <ele>1847.4000244140625</ele>
        <time>2026-08-31T05:49:44.000Z</time>
        <extensions>
          <ns3:TrackPointExtension>
            <ns3:hr>142</ns3:hr>
            <ns3:cad>82</ns3:cad>
          </ns3:TrackPointExtension>
        </extensions>
      </trkpt>
      <trkpt lat="44.6765792369842529296875" lon="6.8027682043612003326416015625">
        <ele>1847.4000244140625</ele>
        <time>2026-08-31T05:49:45.000Z</time>
        <extensions>
          <ns3:TrackPointExtension>
            <ns3:hr>142</ns3:hr>
            <ns3:cad>82</ns3:cad>
          </ns3:TrackPointExtension>
        </extensions>
      </trkpt>
      <trkpt lat="44.676568508148193359375" lon="6.8028049170970916748046875">
        <ele>1847.4000244140625</ele>
        <time>2026-08-31T05:49:46.000Z</time>
        <extensions>
          <ns3:TrackPointExtension>
            <ns3:hr>142</ns3:hr>
            <ns3:cad>82</ns3:cad>
          </ns3:TrackPointExtension>
        </extensions>
      </trkpt>
      <trkpt lat="44.6765623055398464202880859375" lon="6.8028342537581920623779296875">
        <ele>1847.4000244140625</ele>
        <time>2026-08-31T05:49:47.000Z</time>
        <extensions>
          <ns3:TrackPointExtension>
            <ns3:hr>142</ns3:hr>
            <ns3:cad>82</ns3:cad>
          </ns3:TrackPointExtension>
        </extensions>
      </trkpt>
      <trkpt lat="44.676560461521148681640625" lon="6.802860237658023834228515625">
        <ele>1847.5999755859375</ele>
        <time>2026-08-31T05:49:48.000Z</time>
        <extensions>
          <ns3:TrackPointExtension>
            <ns3:hr>142</ns3:hr>
            <ns3:cad>82</ns3:cad>
          </ns3:TrackPointExtension>
        </extensions>
      </trkpt>
      <trkpt lat="44.67655534856021404266357421875" lon="6.8028966151177883148193359375">
        <ele>1847.5999755859375</ele>
        <time>2026-08-31T05:49:49.000Z</time>
        <extensions>
          <ns3:TrackPointExtension>
            <ns3:hr>143</ns3:hr>
            <ns3:cad>82</ns3:cad>
          </ns3:TrackPointExtension>
        </extensions>
      </trkpt>
      <trkpt lat="44.676551409065723419189453125" lon="6.802925281226634979248046875">
        <ele>1847.800048828125</ele>
        <time>2026-08-31T05:49:50.000Z</time>
        <extensions>
          <ns3:TrackPointExtension>
            <ns3:hr>143</ns3:hr>
            <ns3:cad>82</ns3:cad>
          </ns3:TrackPointExtension>
        </extensions>
      </trkpt>
      <trkpt lat="44.67654705047607421875" lon="6.80295201949775218963623046875">
        <ele>1847.800048828125</ele>
        <time>2026-08-31T05:49:51.000Z</time>
        <extensions>
          <ns3:TrackPointExtension>
            <ns3:hr>143</ns3:hr>
            <ns3:cad>82</ns3:cad>
          </ns3:TrackPointExtension>
        </extensions>
      </trkpt>
      <trkpt lat="44.6765448711812496185302734375" lon="6.802986972033977508544921875">
        <ele>1847.800048828125</ele>
        <time>2026-08-31T05:49:52.000Z</time>
        <extensions>
          <ns3:TrackPointExtension>
            <ns3:hr>143</ns3:hr>
            <ns3:cad>82</ns3:cad>
          </ns3:TrackPointExtension>
        </extensions>
      </trkpt>
      <trkpt lat="44.67654227279126644134521484375" lon="6.80301270447671413421630859375">
        <ele>1847.800048828125</ele>
        <time>2026-08-31T05:49:53.000Z</time>
        <extensions>
          <ns3:TrackPointExtension>
            <ns3:hr>143</ns3:hr>
            <ns3:cad>82</ns3:cad>
          </ns3:TrackPointExtension>
        </extensions>
      </trkpt>
      <trkpt lat="44.67653791420161724090576171875" lon="6.80304304696619510650634765625">
        <ele>1847.800048828125</ele>
        <time>2026-08-31T05:49:54.000Z</time>
        <extensions>
          <ns3:TrackPointExtension>
            <ns3:hr>143</ns3:hr>
            <ns3:cad>83</ns3:cad>
          </ns3:TrackPointExtension>
        </extensions>
      </trkpt>
      <trkpt lat="44.67653824947774410247802734375" lon="6.80307154543697834014892578125">
        <ele>1847.800048828125</ele>
        <time>2026-08-31T05:49:55.000Z</time>
        <extensions>
          <ns3:TrackPointExtension>
            <ns3:hr>143</ns3:hr>
            <ns3:cad>83</ns3:cad>
          </ns3:TrackPointExtension>
        </extensions>
      </trkpt>
      <trkpt lat="44.676540009677410125732421875" lon="6.80309870280325412750244140625">
        <ele>1847.800048828125</ele>
        <time>2026-08-31T05:49:56.000Z</time>
        <extensions>
          <ns3:TrackPointExtension>
            <ns3:hr>144</ns3:hr>
            <ns3:cad>82</ns3:cad>
          </ns3:TrackPointExtension>
        </extensions>
      </trkpt>
      <trkpt lat="44.6765361540019512176513671875" lon="6.803136505186557769775390625">
        <ele>1848</ele>
        <time>2026-08-31T05:49:57.000Z</time>
        <extensions>
          <ns3:TrackPointExtension>
            <ns3:hr>144</ns3:hr>
            <ns3:cad>82</ns3:cad>
          </ns3:TrackPointExtension>
        </extensions>
      </trkpt>
      <trkpt lat="44.676535986363887786865234375" lon="6.8031665123999118804931640625">
        <ele>1848</ele>
        <time>2026-08-31T05:49:58.000Z</time>
        <extensions>
          <ns3:TrackPointExtension>
            <ns3:hr>144</ns3:hr>
            <ns3:cad>82</ns3:cad>
          </ns3:TrackPointExtension>
        </extensions>
      </trkpt>
      <trkpt lat="44.6765358187258243560791015625" lon="6.8031946755945682525634765625">
        <ele>1848</ele>
        <time>2026-08-31T05:49:59.000Z</time>
        <extensions>
          <ns3:TrackPointExtension>
            <ns3:hr>144</ns3:hr>
            <ns3:cad>82</ns3:cad>
          </ns3:TrackPointExtension>
        </extensions>
      </trkpt>
      <trkpt lat="44.67653389088809490203857421875" lon="6.80323197506368160247802734375">
        <ele>1848</ele>
        <time>2026-08-31T05:50:00.000Z</time>
        <extensions>
          <ns3:TrackPointExtension>
            <ns3:hr>144</ns3:hr>
            <ns3:cad>82</ns3:cad>
          </ns3:TrackPointExtension>
        </extensions>
      </trkpt>
      <trkpt lat="44.67653162777423858642578125" lon="6.80326181463897228240966796875">
        <ele>1848</ele>
        <time>2026-08-31T05:50:01.000Z</time>
        <extensions>
          <ns3:TrackPointExtension>
            <ns3:hr>144</ns3:hr>
            <ns3:cad>81</ns3:cad>
          </ns3:TrackPointExtension>
        </extensions>
      </trkpt>
      <trkpt lat="44.67653003521263599395751953125" lon="6.80329383350908756256103515625">
        <ele>1848</ele>
        <time>2026-08-31T05:50:02.000Z</time>
        <extensions>
          <ns3:TrackPointExtension>
            <ns3:hr>145</ns3:hr>
            <ns3:cad>81</ns3:cad>
          </ns3:TrackPointExtension>
        </extensions>
      </trkpt>
      <trkpt lat="44.676528275012969970703125" lon="6.8033274449408054351806640625">
        <ele>1848</ele>
        <time>2026-08-31T05:50:03.000Z</time>
        <extensions>
          <ns3:TrackPointExtension>
            <ns3:hr>145</ns3:hr>
            <ns3:cad>82</ns3:cad>
          </ns3:TrackPointExtension>
        </extensions>
      </trkpt>
      <trkpt lat="44.67652819119393825531005859375" lon="6.8033552728593349456787109375">
        <ele>1848</ele>
        <time>2026-08-31T05:50:04.000Z</time>
        <extensions>
          <ns3:TrackPointExtension>
            <ns3:hr>145</ns3:hr>
            <ns3:cad>82</ns3:cad>
          </ns3:TrackPointExtension>
        </extensions>
      </trkpt>
      <trkpt lat="44.6765260957181453704833984375" lon="6.803387962281703948974609375">
        <ele>1848.199951171875</ele>
        <time>2026-08-31T05:50:05.000Z</time>
        <extensions>
          <ns3:TrackPointExtension>
            <ns3:hr>145</ns3:hr>
            <ns3:cad>82</ns3:cad>
          </ns3:TrackPointExtension>
        </extensions>
      </trkpt>
      <trkpt lat="44.6765200607478618621826171875" lon="6.803419478237628936767578125">
        <ele>1848.199951171875</ele>
        <time>2026-08-31T05:50:06.000Z</time>
        <extensions>
          <ns3:TrackPointExtension>
            <ns3:hr>145</ns3:hr>
            <ns3:cad>82</ns3:cad>
          </ns3:TrackPointExtension>
        </extensions>
      </trkpt>
      <trkpt lat="44.676519222557544708251953125" lon="6.80344973690807819366455078125">
        <ele>1848.199951171875</ele>
        <time>2026-08-31T05:50:07.000Z</time>
        <extensions>
          <ns3:TrackPointExtension>
            <ns3:hr>146</ns3:hr>
            <ns3:cad>81</ns3:cad>
          </ns3:TrackPointExtension>
        </extensions>
      </trkpt>
      <trkpt lat="44.67651327140629291534423828125" lon="6.80348728783428668975830078125">
        <ele>1848.199951171875</ele>
        <time>2026-08-31T05:50:08.000Z</time>
        <extensions>
          <ns3:TrackPointExtension>
            <ns3:hr>146</ns3:hr>
            <ns3:cad>81</ns3:cad>
          </ns3:TrackPointExtension>
        </extensions>
      </trkpt>
      <trkpt lat="44.67650572769343852996826171875" lon="6.8035229109227657318115234375">
        <ele>1848.199951171875</ele>
        <time>2026-08-31T05:50:09.000Z</time>
        <extensions>
          <ns3:TrackPointExtension>
            <ns3:hr>146</ns3:hr>
            <ns3:cad>81</ns3:cad>
          </ns3:TrackPointExtension>
        </extensions>
      </trkpt>
      <trkpt lat="44.6765012852847576141357421875" lon="6.8035520799458026885986328125">
        <ele>1848</ele>
        <time>2026-08-31T05:50:10.000Z</time>
        <extensions>
          <ns3:TrackPointExtension>
            <ns3:hr>147</ns3:hr>
            <ns3:cad>81</ns3:cad>
          </ns3:TrackPointExtension>
        </extensions>
      </trkpt>
      <trkpt lat="44.67649583704769611358642578125" lon="6.8035862781107425689697265625">
        <ele>1848</ele>
        <time>2026-08-31T05:50:11.000Z</time>
        <extensions>
          <ns3:TrackPointExtension>
            <ns3:hr>147</ns3:hr>
            <ns3:cad>81</ns3:cad>
          </ns3:TrackPointExtension>
        </extensions>
      </trkpt>
      <trkpt lat="44.67649566940963268280029296875" lon="6.8036167882382869720458984375">
        <ele>1848</ele>
        <time>2026-08-31T05:50:12.000Z</time>
        <extensions>
          <ns3:TrackPointExtension>
            <ns3:hr>147</ns3:hr>
            <ns3:cad>81</ns3:cad>
          </ns3:TrackPointExtension>
        </extensions>
      </trkpt>
      <trkpt lat="44.67649198137223720550537109375" lon="6.80364889092743396759033203125">
        <ele>1848</ele>
        <time>2026-08-31T05:50:13.000Z</time>
        <extensions>
          <ns3:TrackPointExtension>
            <ns3:hr>147</ns3:hr>
            <ns3:cad>81</ns3:cad>
          </ns3:TrackPointExtension>
        </extensions>
      </trkpt>
      <trkpt lat="44.676483012735843658447265625" lon="6.80368241854012012481689453125">
        <ele>1848.199951171875</ele>
        <time>2026-08-31T05:50:14.000Z</time>
        <extensions>
          <ns3:TrackPointExtension>
            <ns3:hr>147</ns3:hr>
            <ns3:cad>82</ns3:cad>
          </ns3:TrackPointExtension>
        </extensions>
      </trkpt>
      <trkpt lat="44.6764784865081310272216796875" lon="6.80370655842125415802001953125">
        <ele>1848.199951171875</ele>
        <time>2026-08-31T05:50:15.000Z</time>
        <extensions>
          <ns3:TrackPointExtension>
            <ns3:hr>147</ns3:hr>
            <ns3:cad>82</ns3:cad>
          </ns3:TrackPointExtension>
        </extensions>
      </trkpt>
      <trkpt lat="44.676467590034008026123046875" lon="6.80373941548168659210205078125">
        <ele>1848.4000244140625</ele>
        <time>2026-08-31T05:50:16.000Z</time>
        <extensions>
          <ns3:TrackPointExtension>
            <ns3:hr>147</ns3:hr>
            <ns3:cad>81</ns3:cad>
          </ns3:TrackPointExtension>
        </extensions>
      </trkpt>
      <trkpt lat="44.67645593918859958648681640625" lon="6.80376824922859668731689453125">
        <ele>1848.4000244140625</ele>
        <time>2026-08-31T05:50:17.000Z</time>
        <extensions>
          <ns3:TrackPointExtension>
            <ns3:hr>148</ns3:hr>
            <ns3:cad>80</ns3:cad>
          </ns3:TrackPointExtension>
        </extensions>
      </trkpt>
      <trkpt lat="44.6764526702463626861572265625" lon="6.80379373021423816680908203125">
        <ele>1848.4000244140625</ele>
        <time>2026-08-31T05:50:18.000Z</time>
        <extensions>
          <ns3:TrackPointExtension>
            <ns3:hr>148</ns3:hr>
            <ns3:cad>80</ns3:cad>
          </ns3:TrackPointExtension>
        </extensions>
      </trkpt>
      <trkpt lat="44.67644445598125457763671875" lon="6.80383153259754180908203125">
        <ele>1848.4000244140625</ele>
        <time>2026-08-31T05:50:19.000Z</time>
        <extensions>
          <ns3:TrackPointExtension>
            <ns3:hr>148</ns3:hr>
            <ns3:cad>81</ns3:cad>
          </ns3:TrackPointExtension>
        </extensions>
      </trkpt>
      <trkpt lat="44.67642995528876781463623046875" lon="6.80386112071573734283447265625">
        <ele>1848.4000244140625</ele>
        <time>2026-08-31T05:50:20.000Z</time>
        <extensions>
          <ns3:TrackPointExtension>
            <ns3:hr>148</ns3:hr>
            <ns3:cad>82</ns3:cad>
          </ns3:TrackPointExtension>
        </extensions>
      </trkpt>
      <trkpt lat="44.67642291449010372161865234375" lon="6.803888194262981414794921875">
        <ele>1848.4000244140625</ele>
        <time>2026-08-31T05:50:21.000Z</time>
        <extensions>
          <ns3:TrackPointExtension>
            <ns3:hr>149</ns3:hr>
            <ns3:cad>82</ns3:cad>
          </ns3:TrackPointExtension>
        </extensions>
      </trkpt>
      <trkpt lat="44.6764094196259975433349609375" lon="6.80392599664628505706787109375">
        <ele>1848.4000244140625</ele>
        <time>2026-08-31T05:50:22.000Z</time>
        <extensions>
          <ns3:TrackPointExtension>
            <ns3:hr>149</ns3:hr>
            <ns3:cad>82</ns3:cad>
          </ns3:TrackPointExtension>
        </extensions>
      </trkpt>
      <trkpt lat="44.67640313319861888885498046875" lon="6.8039477057754993438720703125">
        <ele>1848.4000244140625</ele>
        <time>2026-08-31T05:50:23.000Z</time>
        <extensions>
          <ns3:TrackPointExtension>
            <ns3:hr>149</ns3:hr>
            <ns3:cad>81</ns3:cad>
          </ns3:TrackPointExtension>
        </extensions>
      </trkpt>
      <trkpt lat="44.676391147077083587646484375" lon="6.80397637188434600830078125">
        <ele>1848.4000244140625</ele>
        <time>2026-08-31T05:50:24.000Z</time>
        <extensions>
          <ns3:TrackPointExtension>
            <ns3:hr>150</ns3:hr>
            <ns3:cad>81</ns3:cad>
          </ns3:TrackPointExtension>
        </extensions>
      </trkpt>
      <trkpt lat="44.67637664638459682464599609375" lon="6.80400445125997066497802734375">
        <ele>1848.5999755859375</ele>
        <time>2026-08-31T05:50:25.000Z</time>
        <extensions>
          <ns3:TrackPointExtension>
            <ns3:hr>150</ns3:hr>
            <ns3:cad>81</ns3:cad>
          </ns3:TrackPointExtension>
        </extensions>
      </trkpt>
      <trkpt lat="44.6763668395578861236572265625" lon="6.8040204606950283050537109375">
        <ele>1848.5999755859375</ele>
        <time>2026-08-31T05:50:26.000Z</time>
        <extensions>
          <ns3:TrackPointExtension>
            <ns3:hr>150</ns3:hr>
            <ns3:cad>81</ns3:cad>
          </ns3:TrackPointExtension>
        </extensions>
      </trkpt>
      <trkpt lat="44.67635619454085826873779296875" lon="6.8040360510349273681640625">
        <ele>1848.5999755859375</ele>
        <time>2026-08-31T05:50:27.000Z</time>
        <extensions>
          <ns3:TrackPointExtension>
            <ns3:hr>150</ns3:hr>
            <ns3:cad>81</ns3:cad>
          </ns3:TrackPointExtension>
        </extensions>
      </trkpt>
      <trkpt lat="44.6763447113335132598876953125" lon="6.804052479565143585205078125">
        <ele>1848.800048828125</ele>
        <time>2026-08-31T05:50:28.000Z</time>
        <extensions>
          <ns3:TrackPointExtension>
            <ns3:hr>150</ns3:hr>
            <ns3:cad>81</ns3:cad>
          </ns3:TrackPointExtension>
        </extensions>
      </trkpt>
      <trkpt lat="44.67633716762065887451171875" lon="6.8040610291063785552978515625">
        <ele>1848.800048828125</ele>
        <time>2026-08-31T05:50:29.000Z</time>
        <extensions>
          <ns3:TrackPointExtension>
            <ns3:hr>150</ns3:hr>
            <ns3:cad>81</ns3:cad>
          </ns3:TrackPointExtension>
        </extensions>
      </trkpt>
      <trkpt lat="44.676324762403964996337890625" lon="6.8040734343230724334716796875">
        <ele>1849</ele>
        <time>2026-08-31T05:50:30.000Z</time>
        <extensions>
          <ns3:TrackPointExtension>
            <ns3:hr>150</ns3:hr>
            <ns3:cad>81</ns3:cad>
          </ns3:TrackPointExtension>
        </extensions>
      </trkpt>
      <trkpt lat="44.6763142012059688568115234375" lon="6.804085671901702880859375">
        <ele>1849.199951171875</ele>
        <time>2026-08-31T05:50:31.000Z</time>
        <extensions>
          <ns3:TrackPointExtension>
            <ns3:hr>151</ns3:hr>
            <ns3:cad>81</ns3:cad>
          </ns3:TrackPointExtension>
        </extensions>
      </trkpt>
      <trkpt lat="44.67629961669445037841796875" lon="6.80410084314644336700439453125">
        <ele>1849.199951171875</ele>
        <time>2026-08-31T05:50:32.000Z</time>
        <extensions>
          <ns3:TrackPointExtension>
            <ns3:hr>150</ns3:hr>
            <ns3:cad>64</ns3:cad>
          </ns3:TrackPointExtension>
        </extensions>
      </trkpt>
      <trkpt lat="44.67629081569612026214599609375" lon="6.8041150085628032684326171875">
        <ele>1849.4000244140625</ele>
        <time>2026-08-31T05:50:33.000Z</time>
        <extensions>
          <ns3:TrackPointExtension>
            <ns3:hr>150</ns3:hr>
            <ns3:cad>64</ns3:cad>
          </ns3:TrackPointExtension>
        </extensions>
      </trkpt>
      <trkpt lat="44.67628142796456813812255859375" lon="6.8041331134736537933349609375">
        <ele>1849.4000244140625</ele>
        <time>2026-08-31T05:50:34.000Z</time>
        <extensions>
          <ns3:TrackPointExtension>
            <ns3:hr>151</ns3:hr>
            <ns3:cad>62</ns3:cad>
          </ns3:TrackPointExtension>
        </extensions>
      </trkpt>
      <trkpt lat="44.6762722916901111602783203125" lon="6.8041475303471088409423828125">
        <ele>1849.4000244140625</ele>
        <time>2026-08-31T05:50:35.000Z</time>
        <extensions>
          <ns3:TrackPointExtension>
            <ns3:hr>151</ns3:hr>
            <ns3:cad>62</ns3:cad>
          </ns3:TrackPointExtension>
        </extensions>
      </trkpt>
      <trkpt lat="44.67626315541565418243408203125" lon="6.8041579239070415496826171875">
        <ele>1849.4000244140625</ele>
        <time>2026-08-31T05:50:36.000Z</time>
        <extensions>
          <ns3:TrackPointExtension>
            <ns3:hr>150</ns3:hr>
            <ns3:cad>62</ns3:cad>
          </ns3:TrackPointExtension>
        </extensions>
      </trkpt>
      <trkpt lat="44.67625477351248264312744140625" lon="6.80416421033442020416259765625">
        <ele>1849.5999755859375</ele>
        <time>2026-08-31T05:50:37.000Z</time>
        <extensions>
          <ns3:TrackPointExtension>
            <ns3:hr>150</ns3:hr>
            <ns3:cad>62</ns3:cad>
          </ns3:TrackPointExtension>
        </extensions>
      </trkpt>
      <trkpt lat="44.67624270357191562652587890625" lon="6.80417217314243316650390625">
        <ele>1849.5999755859375</ele>
        <time>2026-08-31T05:50:38.000Z</time>
        <extensions>
          <ns3:TrackPointExtension>
            <ns3:hr>149</ns3:hr>
            <ns3:cad>62</ns3:cad>
          </ns3:TrackPointExtension>
        </extensions>
      </trkpt>
      <trkpt lat="44.676230885088443756103515625" lon="6.80417913012206554412841796875">
        <ele>1849.800048828125</ele>
        <time>2026-08-31T05:50:39.000Z</time>
        <extensions>
          <ns3:TrackPointExtension>
            <ns3:hr>148</ns3:hr>
            <ns3:cad>62</ns3:cad>
          </ns3:TrackPointExtension>
        </extensions>
      </trkpt>
      <trkpt lat="44.67621915042400360107421875" lon="6.80418617092072963714599609375">
        <ele>1849.800048828125</ele>
        <time>2026-08-31T05:50:40.000Z</time>
        <extensions>
          <ns3:TrackPointExtension>
            <ns3:hr>148</ns3:hr>
            <ns3:cad>62</ns3:cad>
          </ns3:TrackPointExtension>
        </extensions>
      </trkpt>
      <trkpt lat="44.6762062422931194305419921875" lon="6.80418902076780796051025390625">
        <ele>1849.800048828125</ele>
        <time>2026-08-31T05:50:41.000Z</time>
        <extensions>
          <ns3:TrackPointExtension>
            <ns3:hr>148</ns3:hr>
            <ns3:cad>62</ns3:cad>
          </ns3:TrackPointExtension>
        </extensions>
      </trkpt>
      <trkpt lat="44.67619308270514011383056640625" lon="6.80419304408133029937744140625">
        <ele>1849.800048828125</ele>
        <time>2026-08-31T05:50:42.000Z</time>
        <extensions>
          <ns3:TrackPointExtension>
            <ns3:hr>147</ns3:hr>
            <ns3:cad>62</ns3:cad>
          </ns3:TrackPointExtension>
        </extensions>
      </trkpt>
      <trkpt lat="44.6761780790984630584716796875" lon="6.8041954748332500457763671875">
        <ele>1849.800048828125</ele>
        <time>2026-08-31T05:50:43.000Z</time>
        <extensions>
          <ns3:TrackPointExtension>
            <ns3:hr>147</ns3:hr>
            <ns3:cad>62</ns3:cad>
          </ns3:TrackPointExtension>
        </extensions>
      </trkpt>
      <trkpt lat="44.67616491951048374176025390625" lon="6.8041978217661380767822265625">
        <ele>1849.800048828125</ele>
        <time>2026-08-31T05:50:44.000Z</time>
        <extensions>
          <ns3:TrackPointExtension>
            <ns3:hr>147</ns3:hr>
            <ns3:cad>62</ns3:cad>
          </ns3:TrackPointExtension>
        </extensions>
      </trkpt>
      <trkpt lat="44.67615234665572643280029296875" lon="6.80420167744159698486328125">
        <ele>1849.800048828125</ele>
        <time>2026-08-31T05:50:45.000Z</time>
        <extensions>
          <ns3:TrackPointExtension>
            <ns3:hr>147</ns3:hr>
            <ns3:cad>63</ns3:cad>
          </ns3:TrackPointExtension>
        </extensions>
      </trkpt>
      <trkpt lat="44.67613642103970050811767578125" lon="6.80420528165996074676513671875">
        <ele>1849.800048828125</ele>
        <time>2026-08-31T05:50:46.000Z</time>
        <extensions>
          <ns3:TrackPointExtension>
            <ns3:hr>147</ns3:hr>
            <ns3:cad>63</ns3:cad>
          </ns3:TrackPointExtension>
        </extensions>
      </trkpt>
      <trkpt lat="44.6761207468807697296142578125" lon="6.8042075447738170623779296875">
        <ele>1849.800048828125</ele>
        <time>2026-08-31T05:50:47.000Z</time>
        <extensions>
          <ns3:TrackPointExtension>
            <ns3:hr>147</ns3:hr>
            <ns3:cad>63</ns3:cad>
          </ns3:TrackPointExtension>
        </extensions>
      </trkpt>
      <trkpt lat="44.6761071681976318359375" lon="6.80421114899218082427978515625">
        <ele>1849.800048828125</ele>
        <time>2026-08-31T05:50:48.000Z</time>
        <extensions>
          <ns3:TrackPointExtension>
            <ns3:hr>146</ns3:hr>
            <ns3:cad>63</ns3:cad>
          </ns3:TrackPointExtension>
        </extensions>
      </trkpt>
      <trkpt lat="44.6760924160480499267578125" lon="6.8042135797441005706787109375">
        <ele>1850</ele>
        <time>2026-08-31T05:50:49.000Z</time>
        <extensions>
          <ns3:TrackPointExtension>
            <ns3:hr>147</ns3:hr>
            <ns3:cad>62</ns3:cad>
          </ns3:TrackPointExtension>
        </extensions>
      </trkpt>
      <trkpt lat="44.6760788373649120330810546875" lon="6.80421584285795688629150390625">
        <ele>1850</ele>
        <time>2026-08-31T05:50:50.000Z</time>
        <extensions>
          <ns3:TrackPointExtension>
            <ns3:hr>147</ns3:hr>
            <ns3:cad>62</ns3:cad>
          </ns3:TrackPointExtension>
        </extensions>
      </trkpt>
      <trkpt lat="44.676062576472759246826171875" lon="6.80421852506697177886962890625">
        <ele>1850.199951171875</ele>
        <time>2026-08-31T05:50:51.000Z</time>
        <extensions>
          <ns3:TrackPointExtension>
            <ns3:hr>147</ns3:hr>
            <ns3:cad>62</ns3:cad>
          </ns3:TrackPointExtension>
        </extensions>
      </trkpt>
      <trkpt lat="44.67604790814220905303955078125" lon="6.80422506295144557952880859375">
        <ele>1850.199951171875</ele>
        <time>2026-08-31T05:50:52.000Z</time>
        <extensions>
          <ns3:TrackPointExtension>
            <ns3:hr>147</ns3:hr>
            <ns3:cad>62</ns3:cad>
          </ns3:TrackPointExtension>
        </extensions>
      </trkpt>
      <trkpt lat="44.676034748554229736328125" lon="6.8042303435504436492919921875">
        <ele>1850.4000244140625</ele>
        <time>2026-08-31T05:50:53.000Z</time>
        <extensions>
          <ns3:TrackPointExtension>
            <ns3:hr>147</ns3:hr>
            <ns3:cad>61</ns3:cad>
          </ns3:TrackPointExtension>
        </extensions>
      </trkpt>
      <trkpt lat="44.676019661128520965576171875" lon="6.80423361249268054962158203125">
        <ele>1850.4000244140625</ele>
        <time>2026-08-31T05:50:54.000Z</time>
        <extensions>
          <ns3:TrackPointExtension>
            <ns3:hr>147</ns3:hr>
            <ns3:cad>61</ns3:cad>
          </ns3:TrackPointExtension>
        </extensions>
      </trkpt>
      <trkpt lat="44.67600583098828792572021484375" lon="6.80423210375010967254638671875">
        <ele>1850.5999755859375</ele>
        <time>2026-08-31T05:50:55.000Z</time>
        <extensions>
          <ns3:TrackPointExtension>
            <ns3:hr>146</ns3:hr>
            <ns3:cad>61</ns3:cad>
          </ns3:TrackPointExtension>
        </extensions>
      </trkpt>
      <trkpt lat="44.67599392868578433990478515625" lon="6.8042273260653018951416015625">
        <ele>1850.5999755859375</ele>
        <time>2026-08-31T05:50:56.000Z</time>
        <extensions>
          <ns3:TrackPointExtension>
            <ns3:hr>147</ns3:hr>
            <ns3:cad>60</ns3:cad>
          </ns3:TrackPointExtension>
        </extensions>
      </trkpt>
      <trkpt lat="44.67598085291683673858642578125" lon="6.8042236380279064178466796875">
        <ele>1850.5999755859375</ele>
        <time>2026-08-31T05:50:57.000Z</time>
        <extensions>
          <ns3:TrackPointExtension>
            <ns3:hr>147</ns3:hr>
            <ns3:cad>59</ns3:cad>
          </ns3:TrackPointExtension>
        </extensions>
      </trkpt>
      <trkpt lat="44.67596744187176227569580078125" lon="6.80422581732273101806640625">
        <ele>1850.5999755859375</ele>
        <time>2026-08-31T05:50:58.000Z</time>
        <extensions>
          <ns3:TrackPointExtension>
            <ns3:hr>146</ns3:hr>
            <ns3:cad>59</ns3:cad>
          </ns3:TrackPointExtension>
        </extensions>
      </trkpt>
      <trkpt lat="44.6759541146457195281982421875" lon="6.80422808043658733367919921875">
        <ele>1850.5999755859375</ele>
        <time>2026-08-31T05:50:59.000Z</time>
        <extensions>
          <ns3:TrackPointExtension>
            <ns3:hr>146</ns3:hr>
            <ns3:cad>60</ns3:cad>
          </ns3:TrackPointExtension>
        </extensions>
      </trkpt>
      <trkpt lat="44.67594087123870849609375" lon="6.80423042736947536468505859375">
        <ele>1850.5999755859375</ele>
        <time>2026-08-31T05:51:00.000Z</time>
        <extensions>
          <ns3:TrackPointExtension>
            <ns3:hr>146</ns3:hr>
            <ns3:cad>60</ns3:cad>
          </ns3:TrackPointExtension>
        </extensions>
      </trkpt>
      <trkpt lat="44.67592922039330005645751953125" lon="6.8042340315878391265869140625">
        <ele>1850.5999755859375</ele>
        <time>2026-08-31T05:51:01.000Z</time>
        <extensions>
          <ns3:TrackPointExtension>
            <ns3:hr>146</ns3:hr>
            <ns3:cad>60</ns3:cad>
          </ns3:TrackPointExtension>
        </extensions>
      </trkpt>
      <trkpt lat="44.6759153902530670166015625" lon="6.8042393960058689117431640625">
        <ele>1850.5999755859375</ele>
        <time>2026-08-31T05:51:02.000Z</time>
        <extensions>
          <ns3:TrackPointExtension>
            <ns3:hr>146</ns3:hr>
            <ns3:cad>60</ns3:cad>
          </ns3:TrackPointExtension>
        </extensions>
      </trkpt>
      <trkpt lat="44.67590223066508769989013671875" lon="6.80424534715712070465087890625">
        <ele>1850.800048828125</ele>
        <time>2026-08-31T05:51:03.000Z</time>
        <extensions>
          <ns3:TrackPointExtension>
            <ns3:hr>146</ns3:hr>
            <ns3:cad>60</ns3:cad>
          </ns3:TrackPointExtension>
        </extensions>
      </trkpt>
      <trkpt lat="44.67588764615356922149658203125" lon="6.80425222031772136688232421875">
        <ele>1850.800048828125</ele>
        <time>2026-08-31T05:51:04.000Z</time>
        <extensions>
          <ns3:TrackPointExtension>
            <ns3:hr>146</ns3:hr>
            <ns3:cad>60</ns3:cad>
          </ns3:TrackPointExtension>
        </extensions>
      </trkpt>
      <trkpt lat="44.67587356455624103546142578125" lon="6.80425993166863918304443359375">
        <ele>1850.800048828125</ele>
        <time>2026-08-31T05:51:05.000Z</time>
        <extensions>
          <ns3:TrackPointExtension>
            <ns3:hr>145</ns3:hr>
            <ns3:cad>60</ns3:cad>
          </ns3:TrackPointExtension>
        </extensions>
      </trkpt>
      <trkpt lat="44.6758617460727691650390625" lon="6.80426864884793758392333984375">
        <ele>1850.800048828125</ele>
        <time>2026-08-31T05:51:06.000Z</time>
        <extensions>
          <ns3:TrackPointExtension>
            <ns3:hr>145</ns3:hr>
            <ns3:cad>62</ns3:cad>
          </ns3:TrackPointExtension>
        </extensions>
      </trkpt>
      <trkpt lat="44.67585160396993160247802734375" lon="6.804279796779155731201171875">
        <ele>1850.800048828125</ele>
        <time>2026-08-31T05:51:07.000Z</time>
        <extensions>
          <ns3:TrackPointExtension>
            <ns3:hr>145</ns3:hr>
            <ns3:cad>62</ns3:cad>
          </ns3:TrackPointExtension>
        </extensions>
      </trkpt>
      <trkpt lat="44.67584305442869663238525390625" lon="6.80429094471037387847900390625">
        <ele>1850.800048828125</ele>
        <time>2026-08-31T05:51:08.000Z</time>
        <extensions>
          <ns3:TrackPointExtension>
            <ns3:hr>145</ns3:hr>
            <ns3:cad>61</ns3:cad>
          </ns3:TrackPointExtension>
        </extensions>
      </trkpt>
      <trkpt lat="44.67583291232585906982421875" lon="6.8043020926415920257568359375">
        <ele>1850.800048828125</ele>
        <time>2026-08-31T05:51:09.000Z</time>
        <extensions>
          <ns3:TrackPointExtension>
            <ns3:hr>144</ns3:hr>
            <ns3:cad>61</ns3:cad>
          </ns3:TrackPointExtension>
        </extensions>
      </trkpt>
      <trkpt lat="44.6758241951465606689453125" lon="6.8043128214776515960693359375">
        <ele>1850.800048828125</ele>
        <time>2026-08-31T05:51:10.000Z</time>
        <extensions>
          <ns3:TrackPointExtension>
            <ns3:hr>145</ns3:hr>
            <ns3:cad>61</ns3:cad>
          </ns3:TrackPointExtension>
        </extensions>
      </trkpt>
      <trkpt lat="44.6758174896240234375" lon="6.804327405989170074462890625">
        <ele>1850.800048828125</ele>
        <time>2026-08-31T05:51:11.000Z</time>
        <extensions>
          <ns3:TrackPointExtension>
            <ns3:hr>145</ns3:hr>
            <ns3:cad>61</ns3:cad>
          </ns3:TrackPointExtension>
        </extensions>
      </trkpt>
      <trkpt lat="44.67581019736826419830322265625" lon="6.8043409846723079681396484375">
        <ele>1851</ele>
        <time>2026-08-31T05:51:12.000Z</time>
        <extensions>
          <ns3:TrackPointExtension>
            <ns3:hr>145</ns3:hr>
            <ns3:cad>61</ns3:cad>
          </ns3:TrackPointExtension>
        </extensions>
      </trkpt>
      <trkpt lat="44.6758008934557437896728515625" lon="6.8043550662696361541748046875">
        <ele>1851</ele>
        <time>2026-08-31T05:51:13.000Z</time>
        <extensions>
          <ns3:TrackPointExtension>
            <ns3:hr>144</ns3:hr>
            <ns3:cad>61</ns3:cad>
          </ns3:TrackPointExtension>
        </extensions>
      </trkpt>
      <trkpt lat="44.67579226009547710418701171875" lon="6.80436805821955204010009765625">
        <ele>1851</ele>
        <time>2026-08-31T05:51:14.000Z</time>
        <extensions>
          <ns3:TrackPointExtension>
            <ns3:hr>144</ns3:hr>
            <ns3:cad>61</ns3:cad>
          </ns3:TrackPointExtension>
        </extensions>
      </trkpt>
      <trkpt lat="44.67578421346843242645263671875" lon="6.8043812178075313568115234375">
        <ele>1851</ele>
        <time>2026-08-31T05:51:15.000Z</time>
        <extensions>
          <ns3:TrackPointExtension>
            <ns3:hr>144</ns3:hr>
            <ns3:cad>61</ns3:cad>
          </ns3:TrackPointExtension>
        </extensions>
      </trkpt>
      <trkpt lat="44.67577566392719745635986328125" lon="6.8043981492519378662109375">
        <ele>1851</ele>
        <time>2026-08-31T05:51:16.000Z</time>
        <extensions>
          <ns3:TrackPointExtension>
            <ns3:hr>144</ns3:hr>
            <ns3:cad>61</ns3:cad>
          </ns3:TrackPointExtension>
        </extensions>
      </trkpt>
      <trkpt lat="44.67576778493821620941162109375" lon="6.80441382341086864471435546875">
        <ele>1851</ele>
        <time>2026-08-31T05:51:17.000Z</time>
        <extensions>
          <ns3:TrackPointExtension>
            <ns3:hr>144</ns3:hr>
            <ns3:cad>61</ns3:cad>
          </ns3:TrackPointExtension>
        </extensions>
      </trkpt>
      <trkpt lat="44.6757606603205204010009765625" lon="6.8044281564652919769287109375">
        <ele>1851</ele>
        <time>2026-08-31T05:51:18.000Z</time>
        <extensions>
          <ns3:TrackPointExtension>
            <ns3:hr>144</ns3:hr>
            <ns3:cad>61</ns3:cad>
          </ns3:TrackPointExtension>
        </extensions>
      </trkpt>
      <trkpt lat="44.67575772665441036224365234375" lon="6.80443947203457355499267578125">
        <ele>1851</ele>
        <time>2026-08-31T05:51:19.000Z</time>
        <extensions>
          <ns3:TrackPointExtension>
            <ns3:hr>143</ns3:hr>
            <ns3:cad>61</ns3:cad>
          </ns3:TrackPointExtension>
        </extensions>
      </trkpt>
      <trkpt lat="44.67575789429247379302978515625" lon="6.80444584228098392486572265625">
        <ele>1851.199951171875</ele>
        <time>2026-08-31T05:51:20.000Z</time>
        <extensions>
          <ns3:TrackPointExtension>
            <ns3:hr>143</ns3:hr>
            <ns3:cad>61</ns3:cad>
          </ns3:TrackPointExtension>
        </extensions>
      </trkpt>
      <trkpt lat="44.67575856484472751617431640625" lon="6.80444709956645965576171875">
        <ele>1851.199951171875</ele>
        <time>2026-08-31T05:51:21.000Z</time>
        <extensions>
          <ns3:TrackPointExtension>
            <ns3:hr>143</ns3:hr>
            <ns3:cad>58</ns3:cad>
          </ns3:TrackPointExtension>
        </extensions>
      </trkpt>
      <trkpt lat="44.67576225288212299346923828125" lon="6.80444785393774509429931640625">
        <ele>1851.4000244140625</ele>
        <time>2026-08-31T05:51:22.000Z</time>
        <extensions>
          <ns3:TrackPointExtension>
            <ns3:hr>143</ns3:hr>
            <ns3:cad>0</ns3:cad>
          </ns3:TrackPointExtension>
        </extensions>
      </trkpt>
      <trkpt lat="44.67576493509113788604736328125" lon="6.8044459261000156402587890625">
        <ele>1851.4000244140625</ele>
        <time>2026-08-31T05:51:23.000Z</time>
        <extensions>
          <ns3:TrackPointExtension>
            <ns3:hr>143</ns3:hr>
            <ns3:cad>0</ns3:cad>
          </ns3:TrackPointExtension>
        </extensions>
      </trkpt>
      <trkpt lat="44.67576694674789905548095703125" lon="6.80444433353841304779052734375">
        <ele>1851.4000244140625</ele>
        <time>2026-08-31T05:51:24.000Z</time>
        <extensions>
          <ns3:TrackPointExtension>
            <ns3:hr>142</ns3:hr>
            <ns3:cad>52</ns3:cad>
          </ns3:TrackPointExtension>
        </extensions>
      </trkpt>
      <trkpt lat="44.67576778493821620941162109375" lon="6.80444777011871337890625">
        <ele>1851.4000244140625</ele>
        <time>2026-08-31T05:51:25.000Z</time>
        <extensions>
          <ns3:TrackPointExtension>
            <ns3:hr>141</ns3:hr>
            <ns3:cad>52</ns3:cad>
          </ns3:TrackPointExtension>
        </extensions>
      </trkpt>
      <trkpt lat="44.6757677011191844940185546875" lon="6.80445254780352115631103515625">
        <ele>1851.4000244140625</ele>
        <time>2026-08-31T05:51:26.000Z</time>
        <extensions>
          <ns3:TrackPointExtension>
            <ns3:hr>141</ns3:hr>
            <ns3:cad>0</ns3:cad>
          </ns3:TrackPointExtension>
        </extensions>
      </trkpt>
      <trkpt lat="44.6757640130817890167236328125" lon="6.80446897633373737335205078125">
        <ele>1851.4000244140625</ele>
        <time>2026-08-31T05:51:27.000Z</time>
        <extensions>
          <ns3:TrackPointExtension>
            <ns3:hr>140</ns3:hr>
            <ns3:cad>0</ns3:cad>
          </ns3:TrackPointExtension>
        </extensions>
      </trkpt>
      <trkpt lat="44.67576024122536182403564453125" lon="6.8044797889888286590576171875">
        <ele>1851.5999755859375</ele>
        <time>2026-08-31T05:51:28.000Z</time>
        <extensions>
          <ns3:TrackPointExtension>
            <ns3:hr>140</ns3:hr>
            <ns3:cad>0</ns3:cad>
          </ns3:TrackPointExtension>
        </extensions>
      </trkpt>
      <trkpt lat="44.6757552959024906158447265625" lon="6.804501749575138092041015625">
        <ele>1851.5999755859375</ele>
        <time>2026-08-31T05:51:29.000Z</time>
        <extensions>
          <ns3:TrackPointExtension>
            <ns3:hr>139</ns3:hr>
            <ns3:cad>58</ns3:cad>
          </ns3:TrackPointExtension>
        </extensions>
      </trkpt>
      <trkpt lat="44.67575152404606342315673828125" lon="6.80451390333473682403564453125">
        <ele>1851.800048828125</ele>
        <time>2026-08-31T05:51:30.000Z</time>
        <extensions>
          <ns3:TrackPointExtension>
            <ns3:hr>139</ns3:hr>
            <ns3:cad>58</ns3:cad>
          </ns3:TrackPointExtension>
        </extensions>
      </trkpt>
      <trkpt lat="44.675746746361255645751953125" lon="6.80452815257012844085693359375">
        <ele>1852</ele>
        <time>2026-08-31T05:51:31.000Z</time>
        <extensions>
          <ns3:TrackPointExtension>
            <ns3:hr>138</ns3:hr>
            <ns3:cad>0</ns3:cad>
          </ns3:TrackPointExtension>
        </extensions>
      </trkpt>
      <trkpt lat="44.67574465088546276092529296875" lon="6.80454273708164691925048828125">
        <ele>1852.199951171875</ele>
        <time>2026-08-31T05:51:32.000Z</time>
        <extensions>
          <ns3:TrackPointExtension>
            <ns3:hr>138</ns3:hr>
            <ns3:cad>0</ns3:cad>
          </ns3:TrackPointExtension>
        </extensions>
      </trkpt>
      <trkpt lat="44.67574230395257472991943359375" lon="6.80455815978348255157470703125">
        <ele>1852.4000244140625</ele>
        <time>2026-08-31T05:51:33.000Z</time>
        <extensions>
          <ns3:TrackPointExtension>
            <ns3:hr>138</ns3:hr>
            <ns3:cad>0</ns3:cad>
          </ns3:TrackPointExtension>
        </extensions>
      </trkpt>
      <trkpt lat="44.675740711390972137451171875" lon="6.80457022972404956817626953125">
        <ele>1852.5999755859375</ele>
        <time>2026-08-31T05:51:34.000Z</time>
        <extensions>
          <ns3:TrackPointExtension>
            <ns3:hr>137</ns3:hr>
            <ns3:cad>0</ns3:cad>
          </ns3:TrackPointExtension>
        </extensions>
      </trkpt>
      <trkpt lat="44.6757383644580841064453125" lon="6.80458582006394863128662109375">
        <ele>1852.5999755859375</ele>
        <time>2026-08-31T05:51:35.000Z</time>
        <extensions>
          <ns3:TrackPointExtension>
            <ns3:hr>137</ns3:hr>
            <ns3:cad>0</ns3:cad>
          </ns3:TrackPointExtension>
        </extensions>
      </trkpt>
      <trkpt lat="44.67573727481067180633544921875" lon="6.8045991472899913787841796875">
        <ele>1852.800048828125</ele>
        <time>2026-08-31T05:51:36.000Z</time>
        <extensions>
          <ns3:TrackPointExtension>
            <ns3:hr>136</ns3:hr>
            <ns3:cad>50</ns3:cad>
          </ns3:TrackPointExtension>
        </extensions>
      </trkpt>
      <trkpt lat="44.67573559843003749847412109375" lon="6.80461683310568332672119140625">
        <ele>1853</ele>
        <time>2026-08-31T05:51:37.000Z</time>
        <extensions>
          <ns3:TrackPointExtension>
            <ns3:hr>136</ns3:hr>
            <ns3:cad>50</ns3:cad>
          </ns3:TrackPointExtension>
        </extensions>
      </trkpt>
      <trkpt lat="44.6757356822490692138671875" lon="6.80463124997913837432861328125">
        <ele>1853.199951171875</ele>
        <time>2026-08-31T05:51:38.000Z</time>
        <extensions>
          <ns3:TrackPointExtension>
            <ns3:hr>136</ns3:hr>
            <ns3:cad>50</ns3:cad>
          </ns3:TrackPointExtension>
        </extensions>
      </trkpt>
      <trkpt lat="44.67573677189648151397705078125" lon="6.80464583449065685272216796875">
        <ele>1853.199951171875</ele>
        <time>2026-08-31T05:51:39.000Z</time>
        <extensions>
          <ns3:TrackPointExtension>
            <ns3:hr>136</ns3:hr>
            <ns3:cad>50</ns3:cad>
          </ns3:TrackPointExtension>
        </extensions>
      </trkpt>
      <trkpt lat="44.675739705562591552734375" lon="6.80465823970735073089599609375">
        <ele>1853.4000244140625</ele>
        <time>2026-08-31T05:51:40.000Z</time>
        <extensions>
          <ns3:TrackPointExtension>
            <ns3:hr>137</ns3:hr>
            <ns3:cad>50</ns3:cad>
          </ns3:TrackPointExtension>
        </extensions>
      </trkpt>
      <trkpt lat="44.675746075809001922607421875" lon="6.8046722374856472015380859375">
        <ele>1853.5999755859375</ele>
        <time>2026-08-31T05:51:41.000Z</time>
        <extensions>
          <ns3:TrackPointExtension>
            <ns3:hr>138</ns3:hr>
            <ns3:cad>50</ns3:cad>
          </ns3:TrackPointExtension>
        </extensions>
      </trkpt>
      <trkpt lat="44.675752110779285430908203125" lon="6.80468455888330936431884765625">
        <ele>1853.800048828125</ele>
        <time>2026-08-31T05:51:42.000Z</time>
        <extensions>
          <ns3:TrackPointExtension>
            <ns3:hr>138</ns3:hr>
            <ns3:cad>50</ns3:cad>
          </ns3:TrackPointExtension>
        </extensions>
      </trkpt>
      <trkpt lat="44.6757552959024906158447265625" lon="6.80469847284257411956787109375">
        <ele>1853.800048828125</ele>
        <time>2026-08-31T05:51:43.000Z</time>
        <extensions>
          <ns3:TrackPointExtension>
            <ns3:hr>138</ns3:hr>
            <ns3:cad>0</ns3:cad>
          </ns3:TrackPointExtension>
        </extensions>
      </trkpt>
      <trkpt lat="44.6757576428353786468505859375" lon="6.80472294799983501434326171875">
        <ele>1854</ele>
        <time>2026-08-31T05:51:44.000Z</time>
        <extensions>
          <ns3:TrackPointExtension>
            <ns3:hr>139</ns3:hr>
            <ns3:cad>0</ns3:cad>
          </ns3:TrackPointExtension>
        </extensions>
      </trkpt>
      <trkpt lat="44.675760157406330108642578125" lon="6.80473686195909976959228515625">
        <ele>1854.199951171875</ele>
        <time>2026-08-31T05:51:45.000Z</time>
        <extensions>
          <ns3:TrackPointExtension>
            <ns3:hr>139</ns3:hr>
            <ns3:cad>0</ns3:cad>
          </ns3:TrackPointExtension>
        </extensions>
      </trkpt>
      <trkpt lat="44.6757638454437255859375" lon="6.80475044064223766326904296875">
        <ele>1854.4000244140625</ele>
        <time>2026-08-31T05:51:46.000Z</time>
        <extensions>
          <ns3:TrackPointExtension>
            <ns3:hr>139</ns3:hr>
            <ns3:cad>0</ns3:cad>
          </ns3:TrackPointExtension>
        </extensions>
      </trkpt>
      <trkpt lat="44.67576845549046993255615234375" lon="6.80475966073572635650634765625">
        <ele>1854.4000244140625</ele>
        <time>2026-08-31T05:51:47.000Z</time>
        <extensions>
          <ns3:TrackPointExtension>
            <ns3:hr>138</ns3:hr>
            <ns3:cad>0</ns3:cad>
          </ns3:TrackPointExtension>
        </extensions>
      </trkpt>
      <trkpt lat="44.6757740713655948638916015625" lon="6.80477223359048366546630859375">
        <ele>1854.5999755859375</ele>
        <time>2026-08-31T05:51:48.000Z</time>
        <extensions>
          <ns3:TrackPointExtension>
            <ns3:hr>139</ns3:hr>
            <ns3:cad>0</ns3:cad>
          </ns3:TrackPointExtension>
        </extensions>
      </trkpt>
      <trkpt lat="44.6757797710597515106201171875" lon="6.804780028760433197021484375">
        <ele>1854.800048828125</ele>
        <time>2026-08-31T05:51:49.000Z</time>
        <extensions>
          <ns3:TrackPointExtension>
            <ns3:hr>139</ns3:hr>
            <ns3:cad>0</ns3:cad>
          </ns3:TrackPointExtension>
        </extensions>
      </trkpt>
      <trkpt lat="44.6757851354777812957763671875" lon="6.8047865666449069976806640625">
        <ele>1854.800048828125</ele>
        <time>2026-08-31T05:51:50.000Z</time>
        <extensions>
          <ns3:TrackPointExtension>
            <ns3:hr>140</ns3:hr>
            <ns3:cad>0</ns3:cad>
          </ns3:TrackPointExtension>
        </extensions>
      </trkpt>
      <trkpt lat="44.67578974552452564239501953125" lon="6.804793439805507659912109375">
        <ele>1855</ele>
        <time>2026-08-31T05:51:51.000Z</time>
        <extensions>
          <ns3:TrackPointExtension>
            <ns3:hr>140</ns3:hr>
            <ns3:cad>0</ns3:cad>
          </ns3:TrackPointExtension>
        </extensions>
      </trkpt>
      <trkpt lat="44.67580399475991725921630859375" lon="6.8048120476305484771728515625">
        <ele>1855.199951171875</ele>
        <time>2026-08-31T05:51:52.000Z</time>
        <extensions>
          <ns3:TrackPointExtension>
            <ns3:hr>140</ns3:hr>
            <ns3:cad>0</ns3:cad>
          </ns3:TrackPointExtension>
        </extensions>
      </trkpt>
      <trkpt lat="44.67581287957727909088134765625" lon="6.804818250238895416259765625">
        <ele>1855.4000244140625</ele>
        <time>2026-08-31T05:51:53.000Z</time>
        <extensions>
          <ns3:TrackPointExtension>
            <ns3:hr>141</ns3:hr>
            <ns3:cad>0</ns3:cad>
          </ns3:TrackPointExtension>
        </extensions>
      </trkpt>
      <trkpt lat="44.67582109384238719940185546875" lon="6.8048241175711154937744140625">
        <ele>1855.5999755859375</ele>
        <time>2026-08-31T05:51:54.000Z</time>
        <extensions>
          <ns3:TrackPointExtension>
            <ns3:hr>141</ns3:hr>
            <ns3:cad>0</ns3:cad>
          </ns3:TrackPointExtension>
        </extensions>
      </trkpt>
      <trkpt lat="44.6758303977549076080322265625" lon="6.8048371933400630950927734375">
        <ele>1855.800048828125</ele>
        <time>2026-08-31T05:51:55.000Z</time>
        <extensions>
          <ns3:TrackPointExtension>
            <ns3:hr>141</ns3:hr>
            <ns3:cad>0</ns3:cad>
          </ns3:TrackPointExtension>
        </extensions>
      </trkpt>
      <trkpt lat="44.67583383433520793914794921875" lon="6.8048385344445705413818359375">
        <ele>1856</ele>
        <time>2026-08-31T05:51:56.000Z</time>
        <extensions>
          <ns3:TrackPointExtension>
            <ns3:hr>141</ns3:hr>
            <ns3:cad>0</ns3:cad>
          </ns3:TrackPointExtension>
        </extensions>
      </trkpt>
      <trkpt lat="44.67583936639130115509033203125" lon="6.80485337041318416595458984375">
        <ele>1856.199951171875</ele>
        <time>2026-08-31T05:51:57.000Z</time>
        <extensions>
          <ns3:TrackPointExtension>
            <ns3:hr>141</ns3:hr>
            <ns3:cad>0</ns3:cad>
          </ns3:TrackPointExtension>
        </extensions>
      </trkpt>
      <trkpt lat="44.67584288679063320159912109375" lon="6.8048626743257045745849609375">
        <ele>1856.4000244140625</ele>
        <time>2026-08-31T05:51:58.000Z</time>
        <extensions>
          <ns3:TrackPointExtension>
            <ns3:hr>141</ns3:hr>
            <ns3:cad>0</ns3:cad>
          </ns3:TrackPointExtension>
        </extensions>
      </trkpt>
      <trkpt lat="44.67584489844739437103271484375" lon="6.80487918667495250701904296875">
        <ele>1856.5999755859375</ele>
        <time>2026-08-31T05:51:59.000Z</time>
        <extensions>
          <ns3:TrackPointExtension>
            <ns3:hr>142</ns3:hr>
            <ns3:cad>0</ns3:cad>
          </ns3:TrackPointExtension>
        </extensions>
      </trkpt>
      <trkpt lat="44.67583869583904743194580078125" lon="6.804890669882297515869140625">
        <ele>1856.800048828125</ele>
        <time>2026-08-31T05:52:00.000Z</time>
        <extensions>
          <ns3:TrackPointExtension>
            <ns3:hr>142</ns3:hr>
            <ns3:cad>0</ns3:cad>
          </ns3:TrackPointExtension>
        </extensions>
      </trkpt>
      <trkpt lat="44.675830565392971038818359375" lon="6.80490332655608654022216796875">
        <ele>1857</ele>
        <time>2026-08-31T05:52:01.000Z</time>
        <extensions>
          <ns3:TrackPointExtension>
            <ns3:hr>142</ns3:hr>
            <ns3:cad>0</ns3:cad>
          </ns3:TrackPointExtension>
        </extensions>
      </trkpt>
      <trkpt lat="44.6758270449936389923095703125" lon="6.8049158155918121337890625">
        <ele>1857.199951171875</ele>
        <time>2026-08-31T05:52:02.000Z</time>
        <extensions>
          <ns3:TrackPointExtension>
            <ns3:hr>142</ns3:hr>
            <ns3:cad>0</ns3:cad>
          </ns3:TrackPointExtension>
        </extensions>
      </trkpt>
      <trkpt lat="44.67582461424171924591064453125" lon="6.80492545478045940399169921875">
        <ele>1857.4000244140625</ele>
        <time>2026-08-31T05:52:03.000Z</time>
        <extensions>
          <ns3:TrackPointExtension>
            <ns3:hr>142</ns3:hr>
            <ns3:cad>0</ns3:cad>
          </ns3:TrackPointExtension>
        </extensions>
      </trkpt>
      <trkpt lat="44.675823859870433807373046875" lon="6.804935596883296966552734375">
        <ele>1857.5999755859375</ele>
        <time>2026-08-31T05:52:04.000Z</time>
        <extensions>
          <ns3:TrackPointExtension>
            <ns3:hr>142</ns3:hr>
            <ns3:cad>0</ns3:cad>
          </ns3:TrackPointExtension>
        </extensions>
      </trkpt>
      <trkpt lat="44.6758282184600830078125" lon="6.80493920110166072845458984375">
        <ele>1857.800048828125</ele>
        <time>2026-08-31T05:52:05.000Z</time>
        <extensions>
          <ns3:TrackPointExtension>
            <ns3:hr>143</ns3:hr>
            <ns3:cad>0</ns3:cad>
          </ns3:TrackPointExtension>
        </extensions>
      </trkpt>
      <trkpt lat="44.67582779936492443084716796875" lon="6.80495378561317920684814453125">
        <ele>1858</ele>
        <time>2026-08-31T05:52:06.000Z</time>
        <extensions>
          <ns3:TrackPointExtension>
            <ns3:hr>143</ns3:hr>
            <ns3:cad>0</ns3:cad>
          </ns3:TrackPointExtension>
        </extensions>
      </trkpt>
      <trkpt lat="44.67582662589848041534423828125" lon="6.80495940148830413818359375">
        <ele>1858.199951171875</ele>
        <time>2026-08-31T05:52:07.000Z</time>
        <extensions>
          <ns3:TrackPointExtension>
            <ns3:hr>143</ns3:hr>
            <ns3:cad>0</ns3:cad>
          </ns3:TrackPointExtension>
        </extensions>
      </trkpt>
      <trkpt lat="44.67582260258495807647705078125" lon="6.80497457273304462432861328125">
        <ele>1858.4000244140625</ele>
        <time>2026-08-31T05:52:08.000Z</time>
        <extensions>
          <ns3:TrackPointExtension>
            <ns3:hr>143</ns3:hr>
            <ns3:cad>0</ns3:cad>
          </ns3:TrackPointExtension>
        </extensions>
      </trkpt>
      <trkpt lat="44.6758241951465606689453125" lon="6.80498429574072360992431640625">
        <ele>1858.5999755859375</ele>
        <time>2026-08-31T05:52:09.000Z</time>
        <extensions>
          <ns3:TrackPointExtension>
            <ns3:hr>143</ns3:hr>
            <ns3:cad>43</ns3:cad>
          </ns3:TrackPointExtension>
        </extensions>
      </trkpt>
      <trkpt lat="44.6758257038891315460205078125" lon="6.80499871261417865753173828125">
        <ele>1858.800048828125</ele>
        <time>2026-08-31T05:52:10.000Z</time>
        <extensions>
          <ns3:TrackPointExtension>
            <ns3:hr>143</ns3:hr>
            <ns3:cad>43</ns3:cad>
          </ns3:TrackPointExtension>
        </extensions>
      </trkpt>
      <trkpt lat="44.67583064921200275421142578125" lon="6.80500742979347705841064453125">
        <ele>1859</ele>
        <time>2026-08-31T05:52:11.000Z</time>
        <extensions>
          <ns3:TrackPointExtension>
            <ns3:hr>143</ns3:hr>
            <ns3:cad>43</ns3:cad>
          </ns3:TrackPointExtension>
        </extensions>
      </trkpt>
      <trkpt lat="44.67583333142101764678955078125" lon="6.80501866154372692108154296875">
        <ele>1859.199951171875</ele>
        <time>2026-08-31T05:52:12.000Z</time>
        <extensions>
          <ns3:TrackPointExtension>
            <ns3:hr>144</ns3:hr>
            <ns3:cad>43</ns3:cad>
          </ns3:TrackPointExtension>
        </extensions>
      </trkpt>
      <trkpt lat="44.67583567835390567779541015625" lon="6.80502754636108875274658203125">
        <ele>1859.4000244140625</ele>
        <time>2026-08-31T05:52:13.000Z</time>
        <extensions>
          <ns3:TrackPointExtension>
            <ns3:hr>144</ns3:hr>
            <ns3:cad>43</ns3:cad>
          </ns3:TrackPointExtension>
        </extensions>
      </trkpt>
      <trkpt lat="44.67583752237260341644287109375" lon="6.80503559298813343048095703125">
        <ele>1859.800048828125</ele>
        <time>2026-08-31T05:52:14.000Z</time>
        <extensions>
          <ns3:TrackPointExtension>
            <ns3:hr>144</ns3:hr>
            <ns3:cad>43</ns3:cad>
          </ns3:TrackPointExtension>
        </extensions>
      </trkpt>
      <trkpt lat="44.67584590427577495574951171875" lon="6.80505319498479366302490234375">
        <ele>1860</ele>
        <time>2026-08-31T05:52:15.000Z</time>
        <extensions>
          <ns3:TrackPointExtension>
            <ns3:hr>145</ns3:hr>
            <ns3:cad>43</ns3:cad>
          </ns3:TrackPointExtension>
        </extensions>
      </trkpt>
      <trkpt lat="44.675847999751567840576171875" lon="6.80505855940282344818115234375">
        <ele>1860.199951171875</ele>
        <time>2026-08-31T05:52:16.000Z</time>
        <extensions>
          <ns3:TrackPointExtension>
            <ns3:hr>145</ns3:hr>
            <ns3:cad>43</ns3:cad>
          </ns3:TrackPointExtension>
        </extensions>
      </trkpt>
      <trkpt lat="44.67584858648478984832763671875" lon="6.80506543256342411041259765625">
        <ele>1860.4000244140625</ele>
        <time>2026-08-31T05:52:17.000Z</time>
        <extensions>
          <ns3:TrackPointExtension>
            <ns3:hr>145</ns3:hr>
            <ns3:cad>43</ns3:cad>
          </ns3:TrackPointExtension>
        </extensions>
      </trkpt>
      <trkpt lat="44.67585227452218532562255859375" lon="6.8050738982856273651123046875">
        <ele>1860.5999755859375</ele>
        <time>2026-08-31T05:52:18.000Z</time>
        <extensions>
          <ns3:TrackPointExtension>
            <ns3:hr>146</ns3:hr>
            <ns3:cad>43</ns3:cad>
          </ns3:TrackPointExtension>
        </extensions>
      </trkpt>
      <trkpt lat="44.6758548729121685028076171875" lon="6.8050893209874629974365234375">
        <ele>1860.800048828125</ele>
        <time>2026-08-31T05:52:19.000Z</time>
        <extensions>
          <ns3:TrackPointExtension>
            <ns3:hr>146</ns3:hr>
            <ns3:cad>43</ns3:cad>
          </ns3:TrackPointExtension>
        </extensions>
      </trkpt>
      <trkpt lat="44.675855375826358795166015625" lon="6.80509812198579311370849609375">
        <ele>1861.199951171875</ele>
        <time>2026-08-31T05:52:20.000Z</time>
        <extensions>
          <ns3:TrackPointExtension>
            <ns3:hr>147</ns3:hr>
            <ns3:cad>0</ns3:cad>
          </ns3:TrackPointExtension>
        </extensions>
      </trkpt>
      <trkpt lat="44.67585143633186817169189453125" lon="6.8051062524318695068359375">
        <ele>1861.4000244140625</ele>
        <time>2026-08-31T05:52:21.000Z</time>
        <extensions>
          <ns3:TrackPointExtension>
            <ns3:hr>147</ns3:hr>
            <ns3:cad>0</ns3:cad>
          </ns3:TrackPointExtension>
        </extensions>
      </trkpt>
      <trkpt lat="44.675852693617343902587890625" lon="6.80511354468762874603271484375">
        <ele>1861.5999755859375</ele>
        <time>2026-08-31T05:52:22.000Z</time>
        <extensions>
          <ns3:TrackPointExtension>
            <ns3:hr>148</ns3:hr>
            <ns3:cad>0</ns3:cad>
          </ns3:TrackPointExtension>
        </extensions>
      </trkpt>
      <trkpt lat="44.6758585609495639801025390625" lon="6.8051218427717685699462890625">
        <ele>1861.800048828125</ele>
        <time>2026-08-31T05:52:23.000Z</time>
        <extensions>
          <ns3:TrackPointExtension>
            <ns3:hr>148</ns3:hr>
            <ns3:cad>0</ns3:cad>
          </ns3:TrackPointExtension>
        </extensions>
      </trkpt>
      <trkpt lat="44.67586266808211803436279296875" lon="6.8051285482943058013916015625">
        <ele>1862</ele>
        <time>2026-08-31T05:52:24.000Z</time>
        <extensions>
          <ns3:TrackPointExtension>
            <ns3:hr>149</ns3:hr>
            <ns3:cad>0</ns3:cad>
          </ns3:TrackPointExtension>
        </extensions>
      </trkpt>
      <trkpt lat="44.67586702667176723480224609375" lon="6.80513701401650905609130859375">
        <ele>1862.199951171875</ele>
        <time>2026-08-31T05:52:25.000Z</time>
        <extensions>
          <ns3:TrackPointExtension>
            <ns3:hr>149</ns3:hr>
            <ns3:cad>0</ns3:cad>
          </ns3:TrackPointExtension>
        </extensions>
      </trkpt>
      <trkpt lat="44.67587071470916271209716796875" lon="6.8051422946155071258544921875">
        <ele>1862.5999755859375</ele>
        <time>2026-08-31T05:52:26.000Z</time>
        <extensions>
          <ns3:TrackPointExtension>
            <ns3:hr>150</ns3:hr>
            <ns3:cad>0</ns3:cad>
          </ns3:TrackPointExtension>
        </extensions>
      </trkpt>
      <trkpt lat="44.67587591148912906646728515625" lon="6.805146150290966033935546875">
        <ele>1862.800048828125</ele>
        <time>2026-08-31T05:52:27.000Z</time>
        <extensions>
          <ns3:TrackPointExtension>
            <ns3:hr>151</ns3:hr>
            <ns3:cad>0</ns3:cad>
          </ns3:TrackPointExtension>
        </extensions>
      </trkpt>
      <trkpt lat="44.67588680796325206756591796875" lon="6.80513651110231876373291015625">
        <ele>1863</ele>
        <time>2026-08-31T05:52:28.000Z</time>
        <extensions>
          <ns3:TrackPointExtension>
            <ns3:hr>151</ns3:hr>
            <ns3:cad>0</ns3:cad>
          </ns3:TrackPointExtension>
        </extensions>
      </trkpt>
      <trkpt lat="44.675893597304821014404296875" lon="6.805134080350399017333984375">
        <ele>1863.199951171875</ele>
        <time>2026-08-31T05:52:29.000Z</time>
        <extensions>
          <ns3:TrackPointExtension>
            <ns3:hr>152</ns3:hr>
            <ns3:cad>0</ns3:cad>
          </ns3:TrackPointExtension>
        </extensions>
      </trkpt>
      <trkpt lat="44.67589594423770904541015625" lon="6.80513248778879642486572265625">
        <ele>1863.4000244140625</ele>
        <time>2026-08-31T05:52:30.000Z</time>
        <extensions>
          <ns3:TrackPointExtension>
            <ns3:hr>152</ns3:hr>
            <ns3:cad>0</ns3:cad>
          </ns3:TrackPointExtension>
        </extensions>
      </trkpt>
      <trkpt lat="44.675903655588626861572265625" lon="6.8051272071897983551025390625">
        <ele>1863.5999755859375</ele>
        <time>2026-08-31T05:52:31.000Z</time>
        <extensions>
          <ns3:TrackPointExtension>
            <ns3:hr>153</ns3:hr>
            <ns3:cad>0</ns3:cad>
          </ns3:TrackPointExtension>
        </extensions>
      </trkpt>
      <trkpt lat="44.6759115345776081085205078125" lon="6.80512527935206890106201171875">
        <ele>1863.800048828125</ele>
        <time>2026-08-31T05:52:32.000Z</time>
        <extensions>
          <ns3:TrackPointExtension>
            <ns3:hr>153</ns3:hr>
            <ns3:cad>0</ns3:cad>
          </ns3:TrackPointExtension>
        </extensions>
      </trkpt>
      <trkpt lat="44.6759142167866230010986328125" lon="6.805124692618846893310546875">
        <ele>1864</ele>
        <time>2026-08-31T05:52:33.000Z</time>
        <extensions>
          <ns3:TrackPointExtension>
            <ns3:hr>154</ns3:hr>
            <ns3:cad>0</ns3:cad>
          </ns3:TrackPointExtension>
        </extensions>
      </trkpt>
      <trkpt lat="44.6759261190891265869140625" lon="6.8051169812679290771484375">
        <ele>1864.199951171875</ele>
        <time>2026-08-31T05:52:34.000Z</time>
        <extensions>
          <ns3:TrackPointExtension>
            <ns3:hr>154</ns3:hr>
            <ns3:cad>0</ns3:cad>
          </ns3:TrackPointExtension>
        </extensions>
      </trkpt>
      <trkpt lat="44.67593391425907611846923828125" lon="6.8051142990589141845703125">
        <ele>1864.4000244140625</ele>
        <time>2026-08-31T05:52:35.000Z</time>
        <extensions>
          <ns3:TrackPointExtension>
            <ns3:hr>155</ns3:hr>
            <ns3:cad>0</ns3:cad>
          </ns3:TrackPointExtension>
        </extensions>
      </trkpt>
      <trkpt lat="44.6759430505335330963134765625" lon="6.8051131255924701690673828125">
        <ele>1864.5999755859375</ele>
        <time>2026-08-31T05:52:36.000Z</time>
        <extensions>
          <ns3:TrackPointExtension>
            <ns3:hr>155</ns3:hr>
            <ns3:cad>0</ns3:cad>
          </ns3:TrackPointExtension>
        </extensions>
      </trkpt>
      <trkpt lat="44.67595637775957584381103515625" lon="6.80511170066893100738525390625">
        <ele>1864.800048828125</ele>
        <time>2026-08-31T05:52:37.000Z</time>
        <extensions>
          <ns3:TrackPointExtension>
            <ns3:hr>155</ns3:hr>
            <ns3:cad>0</ns3:cad>
          </ns3:TrackPointExtension>
        </extensions>
      </trkpt>
      <trkpt lat="44.67596308328211307525634765625" lon="6.80511320941150188446044921875">
        <ele>1865</ele>
        <time>2026-08-31T05:52:38.000Z</time>
        <extensions>
          <ns3:TrackPointExtension>
            <ns3:hr>156</ns3:hr>
            <ns3:cad>0</ns3:cad>
          </ns3:TrackPointExtension>
        </extensions>
      </trkpt>
      <trkpt lat="44.675976075232028961181640625" lon="6.805108599364757537841796875">
        <ele>1865.199951171875</ele>
        <time>2026-08-31T05:52:39.000Z</time>
        <extensions>
          <ns3:TrackPointExtension>
            <ns3:hr>156</ns3:hr>
            <ns3:cad>0</ns3:cad>
          </ns3:TrackPointExtension>
        </extensions>
      </trkpt>
      <trkpt lat="44.675982110202312469482421875" lon="6.80510155856609344482421875">
        <ele>1865.4000244140625</ele>
        <time>2026-08-31T05:52:40.000Z</time>
        <extensions>
          <ns3:TrackPointExtension>
            <ns3:hr>156</ns3:hr>
            <ns3:cad>0</ns3:cad>
          </ns3:TrackPointExtension>
        </extensions>
      </trkpt>
      <trkpt lat="44.675992168486118316650390625" lon="6.8050920031964778900146484375">
        <ele>1865.5999755859375</ele>
        <time>2026-08-31T05:52:41.000Z</time>
        <extensions>
          <ns3:TrackPointExtension>
            <ns3:hr>156</ns3:hr>
            <ns3:cad>0</ns3:cad>
          </ns3:TrackPointExtension>
        </extensions>
      </trkpt>
      <trkpt lat="44.67599912546575069427490234375" lon="6.80508638732135295867919921875">
        <ele>1865.800048828125</ele>
        <time>2026-08-31T05:52:42.000Z</time>
        <extensions>
          <ns3:TrackPointExtension>
            <ns3:hr>157</ns3:hr>
            <ns3:cad>0</ns3:cad>
          </ns3:TrackPointExtension>
        </extensions>
      </trkpt>
      <trkpt lat="44.67601370997726917266845703125" lon="6.805079095065593719482421875">
        <ele>1866</ele>
        <time>2026-08-31T05:52:43.000Z</time>
        <extensions>
          <ns3:TrackPointExtension>
            <ns3:hr>157</ns3:hr>
            <ns3:cad>53</ns3:cad>
          </ns3:TrackPointExtension>
        </extensions>
      </trkpt>
      <trkpt lat="44.6760198287665843963623046875" lon="6.8050725571811199188232421875">
        <ele>1866.199951171875</ele>
        <time>2026-08-31T05:52:44.000Z</time>
        <extensions>
          <ns3:TrackPointExtension>
            <ns3:hr>158</ns3:hr>
            <ns3:cad>53</ns3:cad>
          </ns3:TrackPointExtension>
        </extensions>
      </trkpt>
      <trkpt lat="44.67602695338428020477294921875" lon="6.80506803095340728759765625">
        <ele>1866.4000244140625</ele>
        <time>2026-08-31T05:52:45.000Z</time>
        <extensions>
          <ns3:TrackPointExtension>
            <ns3:hr>158</ns3:hr>
            <ns3:cad>0</ns3:cad>
          </ns3:TrackPointExtension>
        </extensions>
      </trkpt>
      <trkpt lat="44.67603944242000579833984375" lon="6.80506207980215549468994140625">
        <ele>1866.5999755859375</ele>
        <time>2026-08-31T05:52:46.000Z</time>
        <extensions>
          <ns3:TrackPointExtension>
            <ns3:hr>158</ns3:hr>
            <ns3:cad>0</ns3:cad>
          </ns3:TrackPointExtension>
        </extensions>
      </trkpt>
      <trkpt lat="44.67604606412351131439208984375" lon="6.80506241507828235626220703125">
        <ele>1866.800048828125</ele>
        <time>2026-08-31T05:52:47.000Z</time>
        <extensions>
          <ns3:TrackPointExtension>
            <ns3:hr>158</ns3:hr>
            <ns3:cad>0</ns3:cad>
          </ns3:TrackPointExtension>
        </extensions>
      </trkpt>
      <trkpt lat="44.6760597266256809234619140625" lon="6.8050578050315380096435546875">
        <ele>1867</ele>
        <time>2026-08-31T05:52:48.000Z</time>
        <extensions>
          <ns3:TrackPointExtension>
            <ns3:hr>159</ns3:hr>
            <ns3:cad>0</ns3:cad>
          </ns3:TrackPointExtension>
        </extensions>
      </trkpt>
      <trkpt lat="44.6760711260139942169189453125" lon="6.80505218915641307830810546875">
        <ele>1867.199951171875</ele>
        <time>2026-08-31T05:52:49.000Z</time>
        <extensions>
          <ns3:TrackPointExtension>
            <ns3:hr>158</ns3:hr>
            <ns3:cad>0</ns3:cad>
          </ns3:TrackPointExtension>
        </extensions>
      </trkpt>
      <trkpt lat="44.6760788373649120330810546875" lon="6.80504657328128814697265625">
        <ele>1867.4000244140625</ele>
        <time>2026-08-31T05:52:50.000Z</time>
        <extensions>
          <ns3:TrackPointExtension>
            <ns3:hr>158</ns3:hr>
            <ns3:cad>0</ns3:cad>
          </ns3:TrackPointExtension>
        </extensions>
      </trkpt>
      <trkpt lat="44.67608311213552951812744140625" lon="6.80503944866359233856201171875">
        <ele>1867.5999755859375</ele>
        <time>2026-08-31T05:52:51.000Z</time>
        <extensions>
          <ns3:TrackPointExtension>
            <ns3:hr>159</ns3:hr>
            <ns3:cad>0</ns3:cad>
          </ns3:TrackPointExtension>
        </extensions>
      </trkpt>
      <trkpt lat="44.67608906328678131103515625" lon="6.80503056384623050689697265625">
        <ele>1867.800048828125</ele>
        <time>2026-08-31T05:52:52.000Z</time>
        <extensions>
          <ns3:TrackPointExtension>
            <ns3:hr>159</ns3:hr>
            <ns3:cad>0</ns3:cad>
          </ns3:TrackPointExtension>
        </extensions>
      </trkpt>
      <trkpt lat="44.67609182931482791900634765625" lon="6.805014722049236297607421875">
        <ele>1868</ele>
        <time>2026-08-31T05:52:53.000Z</time>
        <extensions>
          <ns3:TrackPointExtension>
            <ns3:hr>159</ns3:hr>
            <ns3:cad>0</ns3:cad>
          </ns3:TrackPointExtension>
        </extensions>
      </trkpt>
      <trkpt lat="44.67609710991382598876953125" lon="6.8050175718963146209716796875">
        <ele>1868</ele>
        <time>2026-08-31T05:52:54.000Z</time>
        <extensions>
          <ns3:TrackPointExtension>
            <ns3:hr>159</ns3:hr>
            <ns3:cad>0</ns3:cad>
          </ns3:TrackPointExtension>
        </extensions>
      </trkpt>
      <trkpt lat="44.67610591091215610504150390625" lon="6.80501170456409454345703125">
        <ele>1868.199951171875</ele>
        <time>2026-08-31T05:52:55.000Z</time>
        <extensions>
          <ns3:TrackPointExtension>
            <ns3:hr>160</ns3:hr>
            <ns3:cad>0</ns3:cad>
          </ns3:TrackPointExtension>
        </extensions>
      </trkpt>
      <trkpt lat="44.67611060477793216705322265625" lon="6.805008687078952789306640625">
        <ele>1868.4000244140625</ele>
        <time>2026-08-31T05:52:56.000Z</time>
        <extensions>
          <ns3:TrackPointExtension>
            <ns3:hr>161</ns3:hr>
            <ns3:cad>0</ns3:cad>
          </ns3:TrackPointExtension>
        </extensions>
      </trkpt>
      <trkpt lat="44.67611789703369140625" lon="6.8050034902989864349365234375">
        <ele>1868.5999755859375</ele>
        <time>2026-08-31T05:52:57.000Z</time>
        <extensions>
          <ns3:TrackPointExtension>
            <ns3:hr>161</ns3:hr>
            <ns3:cad>0</ns3:cad>
          </ns3:TrackPointExtension>
        </extensions>
      </trkpt>
      <trkpt lat="44.67612300999462604522705078125" lon="6.8050014786422252655029296875">
        <ele>1868.800048828125</ele>
        <time>2026-08-31T05:52:58.000Z</time>
        <extensions>
          <ns3:TrackPointExtension>
            <ns3:hr>162</ns3:hr>
            <ns3:cad>0</ns3:cad>
          </ns3:TrackPointExtension>
        </extensions>
      </trkpt>
      <trkpt lat="44.6761371754109859466552734375" lon="6.80500089190900325775146484375">
        <ele>1869</ele>
        <time>2026-08-31T05:52:59.000Z</time>
        <extensions>
          <ns3:TrackPointExtension>
            <ns3:hr>166</ns3:hr>
            <ns3:cad>0</ns3:cad>
          </ns3:TrackPointExtension>
        </extensions>
      </trkpt>
      <trkpt lat="44.67614530585706233978271484375" lon="6.8050028197467327117919921875">
        <ele>1869.199951171875</ele>
        <time>2026-08-31T05:53:00.000Z</time>
        <extensions>
          <ns3:TrackPointExtension>
            <ns3:hr>167</ns3:hr>
            <ns3:cad>0</ns3:cad>
          </ns3:TrackPointExtension>
        </extensions>
      </trkpt>
      <trkpt lat="44.67615318484604358673095703125" lon="6.8050068430602550506591796875">
        <ele>1869.4000244140625</ele>
        <time>2026-08-31T05:53:01.000Z</time>
        <extensions>
          <ns3:TrackPointExtension>
            <ns3:hr>167</ns3:hr>
            <ns3:cad>0</ns3:cad>
          </ns3:TrackPointExtension>
        </extensions>
      </trkpt>
      <trkpt lat="44.6761643327772617340087890625" lon="6.8050122074782848358154296875">
        <ele>1869.5999755859375</ele>
        <time>2026-08-31T05:53:02.000Z</time>
        <extensions>
          <ns3:TrackPointExtension>
            <ns3:hr>167</ns3:hr>
            <ns3:cad>0</ns3:cad>
          </ns3:TrackPointExtension>
        </extensions>
      </trkpt>
      <trkpt lat="44.67617447488009929656982421875" lon="6.80501916445791721343994140625">
        <ele>1869.800048828125</ele>
        <time>2026-08-31T05:53:03.000Z</time>
        <extensions>
          <ns3:TrackPointExtension>
            <ns3:hr>167</ns3:hr>
            <ns3:cad>0</ns3:cad>
          </ns3:TrackPointExtension>
        </extensions>
      </trkpt>
      <trkpt lat="44.6761864610016345977783203125" lon="6.80502779781818389892578125">
        <ele>1870</ele>
        <time>2026-08-31T05:53:04.000Z</time>
        <extensions>
          <ns3:TrackPointExtension>
            <ns3:hr>168</ns3:hr>
            <ns3:cad>0</ns3:cad>
          </ns3:TrackPointExtension>
        </extensions>
      </trkpt>
      <trkpt lat="44.6761945076286792755126953125" lon="6.80503106676042079925537109375">
        <ele>1870.199951171875</ele>
        <time>2026-08-31T05:53:05.000Z</time>
        <extensions>
          <ns3:TrackPointExtension>
            <ns3:hr>168</ns3:hr>
            <ns3:cad>0</ns3:cad>
          </ns3:TrackPointExtension>
        </extensions>
      </trkpt>
      <trkpt lat="44.676196686923503875732421875" lon="6.80503425188362598419189453125">
        <ele>1870.4000244140625</ele>
        <time>2026-08-31T05:53:06.000Z</time>
        <extensions>
          <ns3:TrackPointExtension>
            <ns3:hr>168</ns3:hr>
            <ns3:cad>0</ns3:cad>
          </ns3:TrackPointExtension>
        </extensions>
      </trkpt>
      <trkpt lat="44.6762082539498805999755859375" lon="6.8050418794155120849609375">
        <ele>1870.4000244140625</ele>
        <time>2026-08-31T05:53:07.000Z</time>
        <extensions>
          <ns3:TrackPointExtension>
            <ns3:hr>167</ns3:hr>
            <ns3:cad>51</ns3:cad>
          </ns3:TrackPointExtension>
        </extensions>
      </trkpt>
      <trkpt lat="44.6762157976627349853515625" lon="6.8050443939864635467529296875">
        <ele>1870.5999755859375</ele>
        <time>2026-08-31T05:53:08.000Z</time>
        <extensions>
          <ns3:TrackPointExtension>
            <ns3:hr>167</ns3:hr>
            <ns3:cad>51</ns3:cad>
          </ns3:TrackPointExtension>
        </extensions>
      </trkpt>
      <trkpt lat="44.67622426338493824005126953125" lon="6.80504816584289073944091796875">
        <ele>1870.800048828125</ele>
        <time>2026-08-31T05:53:09.000Z</time>
        <extensions>
          <ns3:TrackPointExtension>
            <ns3:hr>167</ns3:hr>
            <ns3:cad>51</ns3:cad>
          </ns3:TrackPointExtension>
        </extensions>
      </trkpt>
      <trkpt lat="44.67623281292617321014404296875" lon="6.805050931870937347412109375">
        <ele>1871</ele>
        <time>2026-08-31T05:53:10.000Z</time>
        <extensions>
          <ns3:TrackPointExtension>
            <ns3:hr>168</ns3:hr>
            <ns3:cad>51</ns3:cad>
          </ns3:TrackPointExtension>
        </extensions>
      </trkpt>
      <trkpt lat="44.6762384288012981414794921875" lon="6.80505084805190563201904296875">
        <ele>1871.199951171875</ele>
        <time>2026-08-31T05:53:11.000Z</time>
        <extensions>
          <ns3:TrackPointExtension>
            <ns3:hr>167</ns3:hr>
            <ns3:cad>51</ns3:cad>
          </ns3:TrackPointExtension>
        </extensions>
      </trkpt>
      <trkpt lat="44.67624722979962825775146484375" lon="6.80505193769931793212890625">
        <ele>1871.4000244140625</ele>
        <time>2026-08-31T05:53:12.000Z</time>
        <extensions>
          <ns3:TrackPointExtension>
            <ns3:hr>167</ns3:hr>
            <ns3:cad>51</ns3:cad>
          </ns3:TrackPointExtension>
        </extensions>
      </trkpt>
      <trkpt lat="44.67625577934086322784423828125" lon="6.80505353026092052459716796875">
        <ele>1871.5999755859375</ele>
        <time>2026-08-31T05:53:13.000Z</time>
        <extensions>
          <ns3:TrackPointExtension>
            <ns3:hr>167</ns3:hr>
            <ns3:cad>51</ns3:cad>
          </ns3:TrackPointExtension>
        </extensions>
      </trkpt>
      <trkpt lat="44.6762667596340179443359375" lon="6.80505621246993541717529296875">
        <ele>1871.800048828125</ele>
        <time>2026-08-31T05:53:14.000Z</time>
        <extensions>
          <ns3:TrackPointExtension>
            <ns3:hr>167</ns3:hr>
            <ns3:cad>0</ns3:cad>
          </ns3:TrackPointExtension>
        </extensions>
      </trkpt>
      <trkpt lat="44.67627086676657199859619140625" lon="6.80506157688796520233154296875">
        <ele>1872</ele>
        <time>2026-08-31T05:53:15.000Z</time>
        <extensions>
          <ns3:TrackPointExtension>
            <ns3:hr>167</ns3:hr>
            <ns3:cad>0</ns3:cad>
          </ns3:TrackPointExtension>
        </extensions>
      </trkpt>
      <trkpt lat="44.67627639882266521453857421875" lon="6.80507364682853221893310546875">
        <ele>1872.199951171875</ele>
        <time>2026-08-31T05:53:16.000Z</time>
        <extensions>
          <ns3:TrackPointExtension>
            <ns3:hr>167</ns3:hr>
            <ns3:cad>0</ns3:cad>
          </ns3:TrackPointExtension>
        </extensions>
      </trkpt>
      <trkpt lat="44.6762801706790924072265625" lon="6.80508638732135295867919921875">
        <ele>1872.4000244140625</ele>
        <time>2026-08-31T05:53:17.000Z</time>
        <extensions>
          <ns3:TrackPointExtension>
            <ns3:hr>167</ns3:hr>
            <ns3:cad>0</ns3:cad>
          </ns3:TrackPointExtension>
        </extensions>
      </trkpt>
      <trkpt lat="44.6762774884700775146484375" lon="6.80510130710899829864501953125">
        <ele>1872.5999755859375</ele>
        <time>2026-08-31T05:53:18.000Z</time>
        <extensions>
          <ns3:TrackPointExtension>
            <ns3:hr>166</ns3:hr>
            <ns3:cad>0</ns3:cad>
          </ns3:TrackPointExtension>
        </extensions>
      </trkpt>
      <trkpt lat="44.6762746386229991912841796875" lon="6.805113963782787322998046875">
        <ele>1872.800048828125</ele>
        <time>2026-08-31T05:53:19.000Z</time>
        <extensions>
          <ns3:TrackPointExtension>
            <ns3:hr>167</ns3:hr>
            <ns3:cad>0</ns3:cad>
          </ns3:TrackPointExtension>
        </extensions>
      </trkpt>
      <trkpt lat="44.67626566998660564422607421875" lon="6.80512578226625919342041015625">
        <ele>1873</ele>
        <time>2026-08-31T05:53:20.000Z</time>
        <extensions>
          <ns3:TrackPointExtension>
            <ns3:hr>166</ns3:hr>
            <ns3:cad>0</ns3:cad>
          </ns3:TrackPointExtension>
        </extensions>
      </trkpt>
      <trkpt lat="44.676261730492115020751953125" lon="6.805140115320682525634765625">
        <ele>1873.199951171875</ele>
        <time>2026-08-31T05:53:21.000Z</time>
        <extensions>
          <ns3:TrackPointExtension>
            <ns3:hr>165</ns3:hr>
            <ns3:cad>0</ns3:cad>
          </ns3:TrackPointExtension>
        </extensions>
      </trkpt>
      <trkpt lat="44.67625712044537067413330078125" lon="6.80514958687126636505126953125">
        <ele>1873.4000244140625</ele>
        <time>2026-08-31T05:53:22.000Z</time>
        <extensions>
          <ns3:TrackPointExtension>
            <ns3:hr>165</ns3:hr>
            <ns3:cad>0</ns3:cad>
          </ns3:TrackPointExtension>
        </extensions>
      </trkpt>
      <trkpt lat="44.67625192366540431976318359375" lon="6.805163584649562835693359375">
        <ele>1873.5999755859375</ele>
        <time>2026-08-31T05:53:23.000Z</time>
        <extensions>
          <ns3:TrackPointExtension>
            <ns3:hr>165</ns3:hr>
            <ns3:cad>0</ns3:cad>
          </ns3:TrackPointExtension>
        </extensions>
      </trkpt>
      <trkpt lat="44.67624756507575511932373046875" lon="6.8051733076572418212890625">
        <ele>1873.5999755859375</ele>
        <time>2026-08-31T05:53:24.000Z</time>
        <extensions>
          <ns3:TrackPointExtension>
            <ns3:hr>165</ns3:hr>
            <ns3:cad>0</ns3:cad>
          </ns3:TrackPointExtension>
        </extensions>
      </trkpt>
      <trkpt lat="44.67624664306640625" lon="6.80518629960715770721435546875">
        <ele>1873.800048828125</ele>
        <time>2026-08-31T05:53:25.000Z</time>
        <extensions>
          <ns3:TrackPointExtension>
            <ns3:hr>165</ns3:hr>
            <ns3:cad>0</ns3:cad>
          </ns3:TrackPointExtension>
        </extensions>
      </trkpt>
      <trkpt lat="44.67624639160931110382080078125" lon="6.80519518442451953887939453125">
        <ele>1874</ele>
        <time>2026-08-31T05:53:26.000Z</time>
        <extensions>
          <ns3:TrackPointExtension>
            <ns3:hr>164</ns3:hr>
            <ns3:cad>0</ns3:cad>
          </ns3:TrackPointExtension>
        </extensions>
      </trkpt>
      <trkpt lat="44.676239602267742156982421875" lon="6.8052066676318645477294921875">
        <ele>1874.199951171875</ele>
        <time>2026-08-31T05:53:27.000Z</time>
        <extensions>
          <ns3:TrackPointExtension>
            <ns3:hr>164</ns3:hr>
            <ns3:cad>0</ns3:cad>
          </ns3:TrackPointExtension>
        </extensions>
      </trkpt>
      <trkpt lat="44.67623390257358551025390625" lon="6.80521882139146327972412109375">
        <ele>1874.4000244140625</ele>
        <time>2026-08-31T05:53:28.000Z</time>
        <extensions>
          <ns3:TrackPointExtension>
            <ns3:hr>164</ns3:hr>
            <ns3:cad>0</ns3:cad>
          </ns3:TrackPointExtension>
        </extensions>
      </trkpt>
      <trkpt lat="44.67622987926006317138671875" lon="6.805224604904651641845703125">
        <ele>1874.5999755859375</ele>
        <time>2026-08-31T05:53:29.000Z</time>
        <extensions>
          <ns3:TrackPointExtension>
            <ns3:hr>164</ns3:hr>
            <ns3:cad>0</ns3:cad>
          </ns3:TrackPointExtension>
        </extensions>
      </trkpt>
      <trkpt lat="44.67622577212750911712646484375" lon="6.8052368424832820892333984375">
        <ele>1874.800048828125</ele>
        <time>2026-08-31T05:53:30.000Z</time>
        <extensions>
          <ns3:TrackPointExtension>
            <ns3:hr>164</ns3:hr>
            <ns3:cad>0</ns3:cad>
          </ns3:TrackPointExtension>
        </extensions>
      </trkpt>
      <trkpt lat="44.676220826804637908935546875" lon="6.805248074233531951904296875">
        <ele>1874.800048828125</ele>
        <time>2026-08-31T05:53:31.000Z</time>
        <extensions>
          <ns3:TrackPointExtension>
            <ns3:hr>164</ns3:hr>
            <ns3:cad>49</ns3:cad>
          </ns3:TrackPointExtension>
        </extensions>
      </trkpt>
      <trkpt lat="44.67621185816824436187744140625" lon="6.805262155830860137939453125">
        <ele>1875</ele>
        <time>2026-08-31T05:53:32.000Z</time>
        <extensions>
          <ns3:TrackPointExtension>
            <ns3:hr>163</ns3:hr>
            <ns3:cad>49</ns3:cad>
          </ns3:TrackPointExtension>
        </extensions>
      </trkpt>
      <trkpt lat="44.67620842158794403076171875" lon="6.80527112446725368499755859375">
        <ele>1875.199951171875</ele>
        <time>2026-08-31T05:53:33.000Z</time>
        <extensions>
          <ns3:TrackPointExtension>
            <ns3:hr>163</ns3:hr>
            <ns3:cad>49</ns3:cad>
          </ns3:TrackPointExtension>
        </extensions>
      </trkpt>
      <trkpt lat="44.67620314098894596099853515625" lon="6.80527833290398120880126953125">
        <ele>1875.4000244140625</ele>
        <time>2026-08-31T05:53:34.000Z</time>
        <extensions>
          <ns3:TrackPointExtension>
            <ns3:hr>162</ns3:hr>
            <ns3:cad>49</ns3:cad>
          </ns3:TrackPointExtension>
        </extensions>
      </trkpt>
      <trkpt lat="44.6761981956660747528076171875" lon="6.8052935041487216949462890625">
        <ele>1875.5999755859375</ele>
        <time>2026-08-31T05:53:35.000Z</time>
        <extensions>
          <ns3:TrackPointExtension>
            <ns3:hr>161</ns3:hr>
            <ns3:cad>0</ns3:cad>
          </ns3:TrackPointExtension>
        </extensions>
      </trkpt>
      <trkpt lat="44.67619442380964756011962890625" lon="6.805303059518337249755859375">
        <ele>1876</ele>
        <time>2026-08-31T05:53:36.000Z</time>
        <extensions>
          <ns3:TrackPointExtension>
            <ns3:hr>160</ns3:hr>
            <ns3:cad>0</ns3:cad>
          </ns3:TrackPointExtension>
        </extensions>
      </trkpt>
      <trkpt lat="44.676189981400966644287109375" lon="6.80531722493469715118408203125">
        <ele>1876</ele>
        <time>2026-08-31T05:53:37.000Z</time>
        <extensions>
          <ns3:TrackPointExtension>
            <ns3:hr>160</ns3:hr>
            <ns3:cad>0</ns3:cad>
          </ns3:TrackPointExtension>
        </extensions>
      </trkpt>
      <trkpt lat="44.67618537135422229766845703125" lon="6.80533013306558132171630859375">
        <ele>1876.199951171875</ele>
        <time>2026-08-31T05:53:38.000Z</time>
        <extensions>
          <ns3:TrackPointExtension>
            <ns3:hr>159</ns3:hr>
            <ns3:cad>0</ns3:cad>
          </ns3:TrackPointExtension>
        </extensions>
      </trkpt>
      <trkpt lat="44.67617849819362163543701171875" lon="6.80534002371132373809814453125">
        <ele>1876.4000244140625</ele>
        <time>2026-08-31T05:53:39.000Z</time>
        <extensions>
          <ns3:TrackPointExtension>
            <ns3:hr>158</ns3:hr>
            <ns3:cad>0</ns3:cad>
          </ns3:TrackPointExtension>
        </extensions>
      </trkpt>
      <trkpt lat="44.67617413960397243499755859375" lon="6.80535377003252506256103515625">
        <ele>1876.4000244140625</ele>
        <time>2026-08-31T05:53:40.000Z</time>
        <extensions>
          <ns3:TrackPointExtension>
            <ns3:hr>158</ns3:hr>
            <ns3:cad>0</ns3:cad>
          </ns3:TrackPointExtension>
        </extensions>
      </trkpt>
      <trkpt lat="44.67616961337625980377197265625" lon="6.80536441504955291748046875">
        <ele>1876.800048828125</ele>
        <time>2026-08-31T05:53:41.000Z</time>
        <extensions>
          <ns3:TrackPointExtension>
            <ns3:hr>157</ns3:hr>
            <ns3:cad>0</ns3:cad>
          </ns3:TrackPointExtension>
        </extensions>
      </trkpt>
      <trkpt lat="44.676164500415325164794921875" lon="6.8053773231804370880126953125">
        <ele>1876.800048828125</ele>
        <time>2026-08-31T05:53:42.000Z</time>
        <extensions>
          <ns3:TrackPointExtension>
            <ns3:hr>157</ns3:hr>
            <ns3:cad>0</ns3:cad>
          </ns3:TrackPointExtension>
        </extensions>
      </trkpt>
      <trkpt lat="44.676155783236026763916015625" lon="6.80538176558911800384521484375">
        <ele>1877</ele>
        <time>2026-08-31T05:53:43.000Z</time>
        <extensions>
          <ns3:TrackPointExtension>
            <ns3:hr>157</ns3:hr>
            <ns3:cad>0</ns3:cad>
          </ns3:TrackPointExtension>
        </extensions>
      </trkpt>
      <trkpt lat="44.67615016736090183258056640625" lon="6.8053940869867801666259765625">
        <ele>1877.199951171875</ele>
        <time>2026-08-31T05:53:44.000Z</time>
        <extensions>
          <ns3:TrackPointExtension>
            <ns3:hr>157</ns3:hr>
            <ns3:cad>0</ns3:cad>
          </ns3:TrackPointExtension>
        </extensions>
      </trkpt>
      <trkpt lat="44.67614471912384033203125" lon="6.805402971804141998291015625">
        <ele>1877.4000244140625</ele>
        <time>2026-08-31T05:53:45.000Z</time>
        <extensions>
          <ns3:TrackPointExtension>
            <ns3:hr>157</ns3:hr>
            <ns3:cad>0</ns3:cad>
          </ns3:TrackPointExtension>
        </extensions>
      </trkpt>
      <trkpt lat="44.6761368401348590850830078125" lon="6.8054168857634067535400390625">
        <ele>1877.5999755859375</ele>
        <time>2026-08-31T05:53:46.000Z</time>
        <extensions>
          <ns3:TrackPointExtension>
            <ns3:hr>156</ns3:hr>
            <ns3:cad>0</ns3:cad>
          </ns3:TrackPointExtension>
        </extensions>
      </trkpt>
      <trkpt lat="44.67613273300230503082275390625" lon="6.8054276145994663238525390625">
        <ele>1877.800048828125</ele>
        <time>2026-08-31T05:53:47.000Z</time>
        <extensions>
          <ns3:TrackPointExtension>
            <ns3:hr>157</ns3:hr>
            <ns3:cad>0</ns3:cad>
          </ns3:TrackPointExtension>
        </extensions>
      </trkpt>
      <trkpt lat="44.67613172717392444610595703125" lon="6.80543758906424045562744140625">
        <ele>1878</ele>
        <time>2026-08-31T05:53:48.000Z</time>
        <extensions>
          <ns3:TrackPointExtension>
            <ns3:hr>157</ns3:hr>
            <ns3:cad>0</ns3:cad>
          </ns3:TrackPointExtension>
        </extensions>
      </trkpt>
      <trkpt lat="44.67612552456557750701904296875" lon="6.80545100010931491851806640625">
        <ele>1878.199951171875</ele>
        <time>2026-08-31T05:53:49.000Z</time>
        <extensions>
          <ns3:TrackPointExtension>
            <ns3:hr>157</ns3:hr>
            <ns3:cad>0</ns3:cad>
          </ns3:TrackPointExtension>
        </extensions>
      </trkpt>
      <trkpt lat="44.67612326145172119140625" lon="6.80545703507959842681884765625">
        <ele>1878.4000244140625</ele>
        <time>2026-08-31T05:53:50.000Z</time>
        <extensions>
          <ns3:TrackPointExtension>
            <ns3:hr>158</ns3:hr>
            <ns3:cad>0</ns3:cad>
          </ns3:TrackPointExtension>
        </extensions>
      </trkpt>
      <trkpt lat="44.67611680738627910614013671875" lon="6.80547145195305347442626953125">
        <ele>1878.5999755859375</ele>
        <time>2026-08-31T05:53:51.000Z</time>
        <extensions>
          <ns3:TrackPointExtension>
            <ns3:hr>159</ns3:hr>
            <ns3:cad>0</ns3:cad>
          </ns3:TrackPointExtension>
        </extensions>
      </trkpt>
      <trkpt lat="44.6761113591492176055908203125" lon="6.80547882802784442901611328125">
        <ele>1878.800048828125</ele>
        <time>2026-08-31T05:53:52.000Z</time>
        <extensions>
          <ns3:TrackPointExtension>
            <ns3:hr>159</ns3:hr>
            <ns3:cad>51</ns3:cad>
          </ns3:TrackPointExtension>
        </extensions>
      </trkpt>
      <trkpt lat="44.67610423453152179718017578125" lon="6.805501542985439300537109375">
        <ele>1879</ele>
        <time>2026-08-31T05:53:53.000Z</time>
        <extensions>
          <ns3:TrackPointExtension>
            <ns3:hr>159</ns3:hr>
            <ns3:cad>51</ns3:cad>
          </ns3:TrackPointExtension>
        </extensions>
      </trkpt>
      <trkpt lat="44.67609845101833343505859375" lon="6.80551730096340179443359375">
        <ele>1879.199951171875</ele>
        <time>2026-08-31T05:53:54.000Z</time>
        <extensions>
          <ns3:TrackPointExtension>
            <ns3:hr>159</ns3:hr>
            <ns3:cad>51</ns3:cad>
          </ns3:TrackPointExtension>
        </extensions>
      </trkpt>
      <trkpt lat="44.6760925836861133575439453125" lon="6.80552928708493709564208984375">
        <ele>1879.4000244140625</ele>
        <time>2026-08-31T05:53:55.000Z</time>
        <extensions>
          <ns3:TrackPointExtension>
            <ns3:hr>159</ns3:hr>
            <ns3:cad>51</ns3:cad>
          </ns3:TrackPointExtension>
        </extensions>
      </trkpt>
      <trkpt lat="44.67608881182968616485595703125" lon="6.8055412732064723968505859375">
        <ele>1879.5999755859375</ele>
        <time>2026-08-31T05:53:56.000Z</time>
        <extensions>
          <ns3:TrackPointExtension>
            <ns3:hr>159</ns3:hr>
            <ns3:cad>51</ns3:cad>
          </ns3:TrackPointExtension>
        </extensions>
      </trkpt>
      <trkpt lat="44.67608772218227386474609375" lon="6.80554923601448535919189453125">
        <ele>1879.800048828125</ele>
        <time>2026-08-31T05:53:57.000Z</time>
        <extensions>
          <ns3:TrackPointExtension>
            <ns3:hr>160</ns3:hr>
            <ns3:cad>51</ns3:cad>
          </ns3:TrackPointExtension>
        </extensions>
      </trkpt>
      <trkpt lat="44.67608596198260784149169921875" lon="6.80556080304086208343505859375">
        <ele>1880</ele>
        <time>2026-08-31T05:53:58.000Z</time>
        <extensions>
          <ns3:TrackPointExtension>
            <ns3:hr>162</ns3:hr>
            <ns3:cad>51</ns3:cad>
          </ns3:TrackPointExtension>
        </extensions>
      </trkpt>
      <trkpt lat="44.67608369886875152587890625" lon="6.80557287298142910003662109375">
        <ele>1880.199951171875</ele>
        <time>2026-08-31T05:53:59.000Z</time>
        <extensions>
          <ns3:TrackPointExtension>
            <ns3:hr>163</ns3:hr>
            <ns3:cad>51</ns3:cad>
          </ns3:TrackPointExtension>
        </extensions>
      </trkpt>
      <trkpt lat="44.6760815195739269256591796875" lon="6.80558762513101100921630859375">
        <ele>1880.4000244140625</ele>
        <time>2026-08-31T05:54:00.000Z</time>
        <extensions>
          <ns3:TrackPointExtension>
            <ns3:hr>164</ns3:hr>
            <ns3:cad>78</ns3:cad>
          </ns3:TrackPointExtension>
        </extensions>
      </trkpt>
      <trkpt lat="44.6760734729468822479248046875" lon="6.80559449829161167144775390625">
        <ele>1880.5999755859375</ele>
        <time>2026-08-31T05:54:01.000Z</time>
        <extensions>
          <ns3:TrackPointExtension>
            <ns3:hr>164</ns3:hr>
            <ns3:cad>78</ns3:cad>
          </ns3:TrackPointExtension>
        </extensions>
      </trkpt>
      <trkpt lat="44.676062576472759246826171875" lon="6.805598437786102294921875">
        <ele>1880.800048828125</ele>
        <time>2026-08-31T05:54:02.000Z</time>
        <extensions>
          <ns3:TrackPointExtension>
            <ns3:hr>163</ns3:hr>
            <ns3:cad>78</ns3:cad>
          </ns3:TrackPointExtension>
        </extensions>
      </trkpt>
      <trkpt lat="44.6760560385882854461669921875" lon="6.80560388602316379547119140625">
        <ele>1881</ele>
        <time>2026-08-31T05:54:03.000Z</time>
        <extensions>
          <ns3:TrackPointExtension>
            <ns3:hr>163</ns3:hr>
            <ns3:cad>78</ns3:cad>
          </ns3:TrackPointExtension>
        </extensions>
      </trkpt>
      <trkpt lat="44.67605209909379482269287109375" lon="6.8056086637079715728759765625">
        <ele>1881.199951171875</ele>
        <time>2026-08-31T05:54:04.000Z</time>
        <extensions>
          <ns3:TrackPointExtension>
            <ns3:hr>159</ns3:hr>
            <ns3:cad>78</ns3:cad>
          </ns3:TrackPointExtension>
        </extensions>
      </trkpt>
      <trkpt lat="44.67604723758995532989501953125" lon="6.805622577667236328125">
        <ele>1881.4000244140625</ele>
        <time>2026-08-31T05:54:05.000Z</time>
        <extensions>
          <ns3:TrackPointExtension>
            <ns3:hr>158</ns3:hr>
            <ns3:cad>78</ns3:cad>
          </ns3:TrackPointExtension>
        </extensions>
      </trkpt>
      <trkpt lat="44.67604237608611583709716796875" lon="6.80563322268426418304443359375">
        <ele>1881.5999755859375</ele>
        <time>2026-08-31T05:54:06.000Z</time>
        <extensions>
          <ns3:TrackPointExtension>
            <ns3:hr>157</ns3:hr>
            <ns3:cad>78</ns3:cad>
          </ns3:TrackPointExtension>
        </extensions>
      </trkpt>
      <trkpt lat="44.6760360896587371826171875" lon="6.8056458793580532073974609375">
        <ele>1881.800048828125</ele>
        <time>2026-08-31T05:54:07.000Z</time>
        <extensions>
          <ns3:TrackPointExtension>
            <ns3:hr>157</ns3:hr>
            <ns3:cad>78</ns3:cad>
          </ns3:TrackPointExtension>
        </extensions>
      </trkpt>
      <trkpt lat="44.6760355867445468902587890625" lon="6.80565987713634967803955078125">
        <ele>1882</ele>
        <time>2026-08-31T05:54:08.000Z</time>
        <extensions>
          <ns3:TrackPointExtension>
            <ns3:hr>157</ns3:hr>
            <ns3:cad>0</ns3:cad>
          </ns3:TrackPointExtension>
        </extensions>
      </trkpt>
      <trkpt lat="44.6760365925729274749755859375" lon="6.80566054768860340118408203125">
        <ele>1882.199951171875</ele>
        <time>2026-08-31T05:54:09.000Z</time>
        <extensions>
          <ns3:TrackPointExtension>
            <ns3:hr>158</ns3:hr>
            <ns3:cad>0</ns3:cad>
          </ns3:TrackPointExtension>
        </extensions>
      </trkpt>
      <trkpt lat="44.67603684403002262115478515625" lon="6.80567177943885326385498046875">
        <ele>1882.4000244140625</ele>
        <time>2026-08-31T05:54:10.000Z</time>
        <extensions>
          <ns3:TrackPointExtension>
            <ns3:hr>158</ns3:hr>
            <ns3:cad>0</ns3:cad>
          </ns3:TrackPointExtension>
        </extensions>
      </trkpt>
      <trkpt lat="44.67603835277259349822998046875" lon="6.805675216019153594970703125">
        <ele>1882.5999755859375</ele>
        <time>2026-08-31T05:54:11.000Z</time>
        <extensions>
          <ns3:TrackPointExtension>
            <ns3:hr>158</ns3:hr>
            <ns3:cad>0</ns3:cad>
          </ns3:TrackPointExtension>
        </extensions>
      </trkpt>
      <trkpt lat="44.67604438774287700653076171875" lon="6.8056936562061309814453125">
        <ele>1882.800048828125</ele>
        <time>2026-08-31T05:54:12.000Z</time>
        <extensions>
          <ns3:TrackPointExtension>
            <ns3:hr>158</ns3:hr>
            <ns3:cad>0</ns3:cad>
          </ns3:TrackPointExtension>
        </extensions>
      </trkpt>
      <trkpt lat="44.6760466508567333221435546875" lon="6.80570212192833423614501953125">
        <ele>1883</ele>
        <time>2026-08-31T05:54:13.000Z</time>
        <extensions>
          <ns3:TrackPointExtension>
            <ns3:hr>157</ns3:hr>
            <ns3:cad>0</ns3:cad>
          </ns3:TrackPointExtension>
        </extensions>
      </trkpt>
      <trkpt lat="44.67604924924671649932861328125" lon="6.8057109229266643524169921875">
        <ele>1883.199951171875</ele>
        <time>2026-08-31T05:54:14.000Z</time>
        <extensions>
          <ns3:TrackPointExtension>
            <ns3:hr>157</ns3:hr>
            <ns3:cad>0</ns3:cad>
          </ns3:TrackPointExtension>
        </extensions>
      </trkpt>
      <trkpt lat="44.6760530211031436920166015625" lon="6.80572207085788249969482421875">
        <ele>1883.5999755859375</ele>
        <time>2026-08-31T05:54:15.000Z</time>
        <extensions>
          <ns3:TrackPointExtension>
            <ns3:hr>157</ns3:hr>
            <ns3:cad>0</ns3:cad>
          </ns3:TrackPointExtension>
        </extensions>
      </trkpt>
      <trkpt lat="44.6760548651218414306640625" lon="6.80573313497006893157958984375">
        <ele>1883.800048828125</ele>
        <time>2026-08-31T05:54:16.000Z</time>
        <extensions>
          <ns3:TrackPointExtension>
            <ns3:hr>158</ns3:hr>
            <ns3:cad>0</ns3:cad>
          </ns3:TrackPointExtension>
        </extensions>
      </trkpt>
      <trkpt lat="44.67606014572083950042724609375" lon="6.8057410977780818939208984375">
        <ele>1884</ele>
        <time>2026-08-31T05:54:17.000Z</time>
        <extensions>
          <ns3:TrackPointExtension>
            <ns3:hr>158</ns3:hr>
            <ns3:cad>0</ns3:cad>
          </ns3:TrackPointExtension>
        </extensions>
      </trkpt>
      <trkpt lat="44.6760580502450466156005859375" lon="6.80574704892933368682861328125">
        <ele>1884</ele>
        <time>2026-08-31T05:54:18.000Z</time>
        <extensions>
          <ns3:TrackPointExtension>
            <ns3:hr>158</ns3:hr>
            <ns3:cad>0</ns3:cad>
          </ns3:TrackPointExtension>
        </extensions>
      </trkpt>
      <trkpt lat="44.6760580502450466156005859375" lon="6.8057474680244922637939453125">
        <ele>1884.199951171875</ele>
        <time>2026-08-31T05:54:19.000Z</time>
        <extensions>
          <ns3:TrackPointExtension>
            <ns3:hr>158</ns3:hr>
            <ns3:cad>0</ns3:cad>
          </ns3:TrackPointExtension>
        </extensions>
      </trkpt>
      <trkpt lat="44.67605394311249256134033203125" lon="6.80576532147824764251708984375">
        <ele>1884.4000244140625</ele>
        <time>2026-08-31T05:54:20.000Z</time>
        <extensions>
          <ns3:TrackPointExtension>
            <ns3:hr>158</ns3:hr>
            <ns3:cad>0</ns3:cad>
          </ns3:TrackPointExtension>
        </extensions>
      </trkpt>
      <trkpt lat="44.67605461366474628448486328125" lon="6.805779822170734405517578125">
        <ele>1884.5999755859375</ele>
        <time>2026-08-31T05:54:21.000Z</time>
        <extensions>
          <ns3:TrackPointExtension>
            <ns3:hr>159</ns3:hr>
            <ns3:cad>0</ns3:cad>
          </ns3:TrackPointExtension>
        </extensions>
      </trkpt>
      <trkpt lat="44.67605377547442913055419921875" lon="6.80579264648258686065673828125">
        <ele>1884.800048828125</ele>
        <time>2026-08-31T05:54:22.000Z</time>
        <extensions>
          <ns3:TrackPointExtension>
            <ns3:hr>160</ns3:hr>
            <ns3:cad>0</ns3:cad>
          </ns3:TrackPointExtension>
        </extensions>
      </trkpt>
      <trkpt lat="44.67605285346508026123046875" lon="6.8058088235557079315185546875">
        <ele>1885.199951171875</ele>
        <time>2026-08-31T05:54:23.000Z</time>
        <extensions>
          <ns3:TrackPointExtension>
            <ns3:hr>160</ns3:hr>
            <ns3:cad>0</ns3:cad>
          </ns3:TrackPointExtension>
        </extensions>
      </trkpt>
      <trkpt lat="44.6760530211031436920166015625" lon="6.80581913329660892486572265625">
        <ele>1885.199951171875</ele>
        <time>2026-08-31T05:54:24.000Z</time>
        <extensions>
          <ns3:TrackPointExtension>
            <ns3:hr>160</ns3:hr>
            <ns3:cad>0</ns3:cad>
          </ns3:TrackPointExtension>
        </extensions>
      </trkpt>
      <trkpt lat="44.67604807578027248382568359375" lon="6.80583422072231769561767578125">
        <ele>1885.4000244140625</ele>
        <time>2026-08-31T05:54:25.000Z</time>
        <extensions>
          <ns3:TrackPointExtension>
            <ns3:hr>161</ns3:hr>
            <ns3:cad>0</ns3:cad>
          </ns3:TrackPointExtension>
        </extensions>
      </trkpt>
      <trkpt lat="44.67604304663836956024169921875" lon="6.80584193207323551177978515625">
        <ele>1885.5999755859375</ele>
        <time>2026-08-31T05:54:26.000Z</time>
        <extensions>
          <ns3:TrackPointExtension>
            <ns3:hr>161</ns3:hr>
            <ns3:cad>0</ns3:cad>
          </ns3:TrackPointExtension>
        </extensions>
      </trkpt>
      <trkpt lat="44.67603365890681743621826171875" lon="6.80585618130862712860107421875">
        <ele>1885.800048828125</ele>
        <time>2026-08-31T05:54:27.000Z</time>
        <extensions>
          <ns3:TrackPointExtension>
            <ns3:hr>161</ns3:hr>
            <ns3:cad>47</ns3:cad>
          </ns3:TrackPointExtension>
        </extensions>
      </trkpt>
      <trkpt lat="44.67602930031716823577880859375" lon="6.80585903115570545196533203125">
        <ele>1885.800048828125</ele>
        <time>2026-08-31T05:54:28.000Z</time>
        <extensions>
          <ns3:TrackPointExtension>
            <ns3:hr>162</ns3:hr>
            <ns3:cad>47</ns3:cad>
          </ns3:TrackPointExtension>
        </extensions>
      </trkpt>
      <trkpt lat="44.67602175660431385040283203125" lon="6.80586121045053005218505859375">
        <ele>1886</ele>
        <time>2026-08-31T05:54:29.000Z</time>
        <extensions>
          <ns3:TrackPointExtension>
            <ns3:hr>162</ns3:hr>
            <ns3:cad>47</ns3:cad>
          </ns3:TrackPointExtension>
        </extensions>
      </trkpt>
      <trkpt lat="44.67601186595857143402099609375" lon="6.80586322210729122161865234375">
        <ele>1886.199951171875</ele>
        <time>2026-08-31T05:54:30.000Z</time>
        <extensions>
          <ns3:TrackPointExtension>
            <ns3:hr>162</ns3:hr>
            <ns3:cad>47</ns3:cad>
          </ns3:TrackPointExtension>
        </extensions>
      </trkpt>
      <trkpt lat="44.6760037355124950408935546875" lon="6.80586372502148151397705078125">
        <ele>1886.4000244140625</ele>
        <time>2026-08-31T05:54:31.000Z</time>
        <extensions>
          <ns3:TrackPointExtension>
            <ns3:hr>163</ns3:hr>
            <ns3:cad>47</ns3:cad>
          </ns3:TrackPointExtension>
        </extensions>
      </trkpt>
      <trkpt lat="44.67599392868578433990478515625" lon="6.80586590431630611419677734375">
        <ele>1886.4000244140625</ele>
        <time>2026-08-31T05:54:32.000Z</time>
        <extensions>
          <ns3:TrackPointExtension>
            <ns3:hr>163</ns3:hr>
            <ns3:cad>47</ns3:cad>
          </ns3:TrackPointExtension>
        </extensions>
      </trkpt>
      <trkpt lat="44.675984792411327362060546875" lon="6.80586657486855983734130859375">
        <ele>1886.5999755859375</ele>
        <time>2026-08-31T05:54:33.000Z</time>
        <extensions>
          <ns3:TrackPointExtension>
            <ns3:hr>163</ns3:hr>
            <ns3:cad>0</ns3:cad>
          </ns3:TrackPointExtension>
        </extensions>
      </trkpt>
      <trkpt lat="44.67597498558461666107177734375" lon="6.80586741305887699127197265625">
        <ele>1886.5999755859375</ele>
        <time>2026-08-31T05:54:34.000Z</time>
        <extensions>
          <ns3:TrackPointExtension>
            <ns3:hr>164</ns3:hr>
            <ns3:cad>0</ns3:cad>
          </ns3:TrackPointExtension>
        </extensions>
      </trkpt>
      <trkpt lat="44.675968699157238006591796875" lon="6.80587043054401874542236328125">
        <ele>1886.800048828125</ele>
        <time>2026-08-31T05:54:35.000Z</time>
        <extensions>
          <ns3:TrackPointExtension>
            <ns3:hr>164</ns3:hr>
            <ns3:cad>0</ns3:cad>
          </ns3:TrackPointExtension>
        </extensions>
      </trkpt>
      <trkpt lat="44.675959981977939605712890625" lon="6.805875040590763092041015625">
        <ele>1887</ele>
        <time>2026-08-31T05:54:36.000Z</time>
        <extensions>
          <ns3:TrackPointExtension>
            <ns3:hr>165</ns3:hr>
            <ns3:cad>52</ns3:cad>
          </ns3:TrackPointExtension>
        </extensions>
      </trkpt>
      <trkpt lat="44.67595336027443408966064453125" lon="6.80588132701814174652099609375">
        <ele>1887.199951171875</ele>
        <time>2026-08-31T05:54:37.000Z</time>
        <extensions>
          <ns3:TrackPointExtension>
            <ns3:hr>165</ns3:hr>
            <ns3:cad>52</ns3:cad>
          </ns3:TrackPointExtension>
        </extensions>
      </trkpt>
      <trkpt lat="44.67594824731349945068359375" lon="6.80589004419744014739990234375">
        <ele>1887.4000244140625</ele>
        <time>2026-08-31T05:54:38.000Z</time>
        <extensions>
          <ns3:TrackPointExtension>
            <ns3:hr>165</ns3:hr>
            <ns3:cad>0</ns3:cad>
          </ns3:TrackPointExtension>
        </extensions>
      </trkpt>
      <trkpt lat="44.6759423799812793731689453125" lon="6.80590328760445117950439453125">
        <ele>1887.5999755859375</ele>
        <time>2026-08-31T05:54:39.000Z</time>
        <extensions>
          <ns3:TrackPointExtension>
            <ns3:hr>164</ns3:hr>
            <ns3:cad>0</ns3:cad>
          </ns3:TrackPointExtension>
        </extensions>
      </trkpt>
      <trkpt lat="44.67593575827777385711669921875" lon="6.80591963231563568115234375">
        <ele>1887.800048828125</ele>
        <time>2026-08-31T05:54:40.000Z</time>
        <extensions>
          <ns3:TrackPointExtension>
            <ns3:hr>165</ns3:hr>
            <ns3:cad>0</ns3:cad>
          </ns3:TrackPointExtension>
        </extensions>
      </trkpt>
      <trkpt lat="44.6759316511452198028564453125" lon="6.80593706667423248291015625">
        <ele>1887.800048828125</ele>
        <time>2026-08-31T05:54:41.000Z</time>
        <extensions>
          <ns3:TrackPointExtension>
            <ns3:hr>165</ns3:hr>
            <ns3:cad>0</ns3:cad>
          </ns3:TrackPointExtension>
        </extensions>
      </trkpt>
      <trkpt lat="44.67592787928879261016845703125" lon="6.80595374666154384613037109375">
        <ele>1888</ele>
        <time>2026-08-31T05:54:42.000Z</time>
        <extensions>
          <ns3:TrackPointExtension>
            <ns3:hr>164</ns3:hr>
            <ns3:cad>0</ns3:cad>
          </ns3:TrackPointExtension>
        </extensions>
      </trkpt>
      <trkpt lat="44.67592737637460231781005859375" lon="6.80597017519176006317138671875">
        <ele>1888.199951171875</ele>
        <time>2026-08-31T05:54:43.000Z</time>
        <extensions>
          <ns3:TrackPointExtension>
            <ns3:hr>165</ns3:hr>
            <ns3:cad>0</ns3:cad>
          </ns3:TrackPointExtension>
        </extensions>
      </trkpt>
      <trkpt lat="44.67592469416558742523193359375" lon="6.80598241277039051055908203125">
        <ele>1888.199951171875</ele>
        <time>2026-08-31T05:54:44.000Z</time>
        <extensions>
          <ns3:TrackPointExtension>
            <ns3:hr>165</ns3:hr>
            <ns3:cad>0</ns3:cad>
          </ns3:TrackPointExtension>
        </extensions>
      </trkpt>
      <trkpt lat="44.675921089947223663330078125" lon="6.805994398891925811767578125">
        <ele>1888.4000244140625</ele>
        <time>2026-08-31T05:54:45.000Z</time>
        <extensions>
          <ns3:TrackPointExtension>
            <ns3:hr>164</ns3:hr>
            <ns3:cad>0</ns3:cad>
          </ns3:TrackPointExtension>
        </extensions>
      </trkpt>
      <trkpt lat="44.675917737185955047607421875" lon="6.80600688792765140533447265625">
        <ele>1888.4000244140625</ele>
        <time>2026-08-31T05:54:46.000Z</time>
        <extensions>
          <ns3:TrackPointExtension>
            <ns3:hr>164</ns3:hr>
            <ns3:cad>53</ns3:cad>
          </ns3:TrackPointExtension>
        </extensions>
      </trkpt>
      <trkpt lat="44.67591715045273303985595703125" lon="6.80601594038307666778564453125">
        <ele>1888.5999755859375</ele>
        <time>2026-08-31T05:54:47.000Z</time>
        <extensions>
          <ns3:TrackPointExtension>
            <ns3:hr>164</ns3:hr>
            <ns3:cad>53</ns3:cad>
          </ns3:TrackPointExtension>
        </extensions>
      </trkpt>
      <trkpt lat="44.6759165637195110321044921875" lon="6.80602532811462879180908203125">
        <ele>1888.800048828125</ele>
        <time>2026-08-31T05:54:48.000Z</time>
        <extensions>
          <ns3:TrackPointExtension>
            <ns3:hr>164</ns3:hr>
            <ns3:cad>53</ns3:cad>
          </ns3:TrackPointExtension>
        </extensions>
      </trkpt>
      <trkpt lat="44.67591597698628902435302734375" lon="6.80603488348424434661865234375">
        <ele>1889</ele>
        <time>2026-08-31T05:54:49.000Z</time>
        <extensions>
          <ns3:TrackPointExtension>
            <ns3:hr>165</ns3:hr>
            <ns3:cad>0</ns3:cad>
          </ns3:TrackPointExtension>
        </extensions>
      </trkpt>
      <trkpt lat="44.6759162284433841705322265625" lon="6.80604628287255764007568359375">
        <ele>1889.199951171875</ele>
        <time>2026-08-31T05:54:50.000Z</time>
        <extensions>
          <ns3:TrackPointExtension>
            <ns3:hr>163</ns3:hr>
            <ns3:cad>0</ns3:cad>
          </ns3:TrackPointExtension>
        </extensions>
      </trkpt>
      <trkpt lat="44.6759145520627498626708984375" lon="6.8060636334121227264404296875">
        <ele>1889.199951171875</ele>
        <time>2026-08-31T05:54:51.000Z</time>
        <extensions>
          <ns3:TrackPointExtension>
            <ns3:hr>163</ns3:hr>
            <ns3:cad>0</ns3:cad>
          </ns3:TrackPointExtension>
        </extensions>
      </trkpt>
      <trkpt lat="44.67591329477727413177490234375" lon="6.80607276968657970428466796875">
        <ele>1889.4000244140625</ele>
        <time>2026-08-31T05:54:52.000Z</time>
        <extensions>
          <ns3:TrackPointExtension>
            <ns3:hr>162</ns3:hr>
            <ns3:cad>0</ns3:cad>
          </ns3:TrackPointExtension>
        </extensions>
      </trkpt>
      <trkpt lat="44.67591245658695697784423828125" lon="6.8060879409313201904296875">
        <ele>1889.5999755859375</ele>
        <time>2026-08-31T05:54:53.000Z</time>
        <extensions>
          <ns3:TrackPointExtension>
            <ns3:hr>161</ns3:hr>
            <ns3:cad>0</ns3:cad>
          </ns3:TrackPointExtension>
        </extensions>
      </trkpt>
      <trkpt lat="44.67591245658695697784423828125" lon="6.80610177107155323028564453125">
        <ele>1889.5999755859375</ele>
        <time>2026-08-31T05:54:54.000Z</time>
        <extensions>
          <ns3:TrackPointExtension>
            <ns3:hr>161</ns3:hr>
            <ns3:cad>0</ns3:cad>
          </ns3:TrackPointExtension>
        </extensions>
      </trkpt>
      <trkpt lat="44.6759098581969738006591796875" lon="6.80611819960176944732666015625">
        <ele>1889.800048828125</ele>
        <time>2026-08-31T05:54:55.000Z</time>
        <extensions>
          <ns3:TrackPointExtension>
            <ns3:hr>160</ns3:hr>
            <ns3:cad>0</ns3:cad>
          </ns3:TrackPointExtension>
        </extensions>
      </trkpt>
      <trkpt lat="44.675907678902149200439453125" lon="6.80613596923649311065673828125">
        <ele>1890</ele>
        <time>2026-08-31T05:54:56.000Z</time>
        <extensions>
          <ns3:TrackPointExtension>
            <ns3:hr>159</ns3:hr>
            <ns3:cad>0</ns3:cad>
          </ns3:TrackPointExtension>
        </extensions>
      </trkpt>
      <trkpt lat="44.67590440995991230010986328125" lon="6.8061511404812335968017578125">
        <ele>1890</ele>
        <time>2026-08-31T05:54:57.000Z</time>
        <extensions>
          <ns3:TrackPointExtension>
            <ns3:hr>158</ns3:hr>
            <ns3:cad>0</ns3:cad>
          </ns3:TrackPointExtension>
        </extensions>
      </trkpt>
      <trkpt lat="44.67590625397861003875732421875" lon="6.8061675690114498138427734375">
        <ele>1890.199951171875</ele>
        <time>2026-08-31T05:54:58.000Z</time>
        <extensions>
          <ns3:TrackPointExtension>
            <ns3:hr>156</ns3:hr>
            <ns3:cad>0</ns3:cad>
          </ns3:TrackPointExtension>
        </extensions>
      </trkpt>
      <trkpt lat="44.67590373940765857696533203125" lon="6.80618894286453723907470703125">
        <ele>1890.199951171875</ele>
        <time>2026-08-31T05:54:59.000Z</time>
        <extensions>
          <ns3:TrackPointExtension>
            <ns3:hr>155</ns3:hr>
            <ns3:cad>0</ns3:cad>
          </ns3:TrackPointExtension>
        </extensions>
      </trkpt>
      <trkpt lat="44.6759008057415485382080078125" lon="6.80620101280510425567626953125">
        <ele>1890.199951171875</ele>
        <time>2026-08-31T05:55:00.000Z</time>
        <extensions>
          <ns3:TrackPointExtension>
            <ns3:hr>154</ns3:hr>
            <ns3:cad>0</ns3:cad>
          </ns3:TrackPointExtension>
        </extensions>
      </trkpt>
      <trkpt lat="44.67588714323937892913818359375" lon="6.80621207691729068756103515625">
        <ele>1890.4000244140625</ele>
        <time>2026-08-31T05:55:01.000Z</time>
        <extensions>
          <ns3:TrackPointExtension>
            <ns3:hr>154</ns3:hr>
            <ns3:cad>0</ns3:cad>
          </ns3:TrackPointExtension>
        </extensions>
      </trkpt>
      <trkpt lat="44.67587943188846111297607421875" lon="6.8062247335910797119140625">
        <ele>1890.4000244140625</ele>
        <time>2026-08-31T05:55:02.000Z</time>
        <extensions>
          <ns3:TrackPointExtension>
            <ns3:hr>154</ns3:hr>
            <ns3:cad>0</ns3:cad>
          </ns3:TrackPointExtension>
        </extensions>
      </trkpt>
      <trkpt lat="44.67586786486208438873291015625" lon="6.80624225176870822906494140625">
        <ele>1890.4000244140625</ele>
        <time>2026-08-31T05:55:03.000Z</time>
        <extensions>
          <ns3:TrackPointExtension>
            <ns3:hr>154</ns3:hr>
            <ns3:cad>0</ns3:cad>
          </ns3:TrackPointExtension>
        </extensions>
      </trkpt>
      <trkpt lat="44.6758612431585788726806640625" lon="6.80625448934733867645263671875">
        <ele>1890.4000244140625</ele>
        <time>2026-08-31T05:55:04.000Z</time>
        <extensions>
          <ns3:TrackPointExtension>
            <ns3:hr>154</ns3:hr>
            <ns3:cad>0</ns3:cad>
          </ns3:TrackPointExtension>
        </extensions>
      </trkpt>
      <trkpt lat="44.675850011408329010009765625" lon="6.8062735162675380706787109375">
        <ele>1890.4000244140625</ele>
        <time>2026-08-31T05:55:05.000Z</time>
        <extensions>
          <ns3:TrackPointExtension>
            <ns3:hr>154</ns3:hr>
            <ns3:cad>0</ns3:cad>
          </ns3:TrackPointExtension>
        </extensions>
      </trkpt>
      <trkpt lat="44.67584255151450634002685546875" lon="6.80628709495067596435546875">
        <ele>1890.4000244140625</ele>
        <time>2026-08-31T05:55:06.000Z</time>
        <extensions>
          <ns3:TrackPointExtension>
            <ns3:hr>155</ns3:hr>
            <ns3:cad>0</ns3:cad>
          </ns3:TrackPointExtension>
        </extensions>
      </trkpt>
      <trkpt lat="44.6758354268968105316162109375" lon="6.80630008690059185028076171875">
        <ele>1890.4000244140625</ele>
        <time>2026-08-31T05:55:07.000Z</time>
        <extensions>
          <ns3:TrackPointExtension>
            <ns3:hr>158</ns3:hr>
            <ns3:cad>15</ns3:cad>
          </ns3:TrackPointExtension>
        </extensions>
      </trkpt>
      <trkpt lat="44.67583048157393932342529296875" lon="6.80631659924983978271484375">
        <ele>1890.4000244140625</ele>
        <time>2026-08-31T05:55:08.000Z</time>
        <extensions>
          <ns3:TrackPointExtension>
            <ns3:hr>158</ns3:hr>
            <ns3:cad>15</ns3:cad>
          </ns3:TrackPointExtension>
        </extensions>
      </trkpt>
      <trkpt lat="44.6758257038891315460205078125" lon="6.806335709989070892333984375">
        <ele>1890.4000244140625</ele>
        <time>2026-08-31T05:55:09.000Z</time>
        <extensions>
          <ns3:TrackPointExtension>
            <ns3:hr>158</ns3:hr>
            <ns3:cad>15</ns3:cad>
          </ns3:TrackPointExtension>
        </extensions>
      </trkpt>
      <trkpt lat="44.6758216805756092071533203125" lon="6.806349791586399078369140625">
        <ele>1890.4000244140625</ele>
        <time>2026-08-31T05:55:10.000Z</time>
        <extensions>
          <ns3:TrackPointExtension>
            <ns3:hr>158</ns3:hr>
            <ns3:cad>15</ns3:cad>
          </ns3:TrackPointExtension>
        </extensions>
      </trkpt>
      <trkpt lat="44.67581388540565967559814453125" lon="6.80636622011661529541015625">
        <ele>1890.5999755859375</ele>
        <time>2026-08-31T05:55:11.000Z</time>
        <extensions>
          <ns3:TrackPointExtension>
            <ns3:hr>158</ns3:hr>
            <ns3:cad>0</ns3:cad>
          </ns3:TrackPointExtension>
        </extensions>
      </trkpt>
      <trkpt lat="44.67581103555858135223388671875" lon="6.80638021789491176605224609375">
        <ele>1890.5999755859375</ele>
        <time>2026-08-31T05:55:12.000Z</time>
        <extensions>
          <ns3:TrackPointExtension>
            <ns3:hr>158</ns3:hr>
            <ns3:cad>0</ns3:cad>
          </ns3:TrackPointExtension>
        </extensions>
      </trkpt>
      <trkpt lat="44.6758035756647586822509765625" lon="6.80639614351093769073486328125">
        <ele>1890.800048828125</ele>
        <time>2026-08-31T05:55:13.000Z</time>
        <extensions>
          <ns3:TrackPointExtension>
            <ns3:hr>158</ns3:hr>
            <ns3:cad>0</ns3:cad>
          </ns3:TrackPointExtension>
        </extensions>
      </trkpt>
      <trkpt lat="44.6757985465228557586669921875" lon="6.80640553124248981475830078125">
        <ele>1890.800048828125</ele>
        <time>2026-08-31T05:55:14.000Z</time>
        <extensions>
          <ns3:TrackPointExtension>
            <ns3:hr>158</ns3:hr>
            <ns3:cad>0</ns3:cad>
          </ns3:TrackPointExtension>
        </extensions>
      </trkpt>
      <trkpt lat="44.67579393647611141204833984375" lon="6.806426905095577239990234375">
        <ele>1890.800048828125</ele>
        <time>2026-08-31T05:55:15.000Z</time>
        <extensions>
          <ns3:TrackPointExtension>
            <ns3:hr>158</ns3:hr>
            <ns3:cad>0</ns3:cad>
          </ns3:TrackPointExtension>
        </extensions>
      </trkpt>
      <trkpt lat="44.6757915057241916656494140625" lon="6.8064408190548419952392578125">
        <ele>1891</ele>
        <time>2026-08-31T05:55:16.000Z</time>
        <extensions>
          <ns3:TrackPointExtension>
            <ns3:hr>157</ns3:hr>
            <ns3:cad>0</ns3:cad>
          </ns3:TrackPointExtension>
        </extensions>
      </trkpt>
      <trkpt lat="44.67578689567744731903076171875" lon="6.80645741522312164306640625">
        <ele>1891</ele>
        <time>2026-08-31T05:55:17.000Z</time>
        <extensions>
          <ns3:TrackPointExtension>
            <ns3:hr>157</ns3:hr>
            <ns3:cad>0</ns3:cad>
          </ns3:TrackPointExtension>
        </extensions>
      </trkpt>
      <trkpt lat="44.67578304000198841094970703125" lon="6.80647208355367183685302734375">
        <ele>1891.199951171875</ele>
        <time>2026-08-31T05:55:18.000Z</time>
        <extensions>
          <ns3:TrackPointExtension>
            <ns3:hr>157</ns3:hr>
            <ns3:cad>0</ns3:cad>
          </ns3:TrackPointExtension>
        </extensions>
      </trkpt>
      <trkpt lat="44.67577583156526088714599609375" lon="6.80648423731327056884765625">
        <ele>1891.4000244140625</ele>
        <time>2026-08-31T05:55:19.000Z</time>
        <extensions>
          <ns3:TrackPointExtension>
            <ns3:hr>157</ns3:hr>
            <ns3:cad>0</ns3:cad>
          </ns3:TrackPointExtension>
        </extensions>
      </trkpt>
      <trkpt lat="44.67576996423304080963134765625" lon="6.80650007911026477813720703125">
        <ele>1891.4000244140625</ele>
        <time>2026-08-31T05:55:20.000Z</time>
        <extensions>
          <ns3:TrackPointExtension>
            <ns3:hr>156</ns3:hr>
            <ns3:cad>0</ns3:cad>
          </ns3:TrackPointExtension>
        </extensions>
      </trkpt>
      <trkpt lat="44.67576317489147186279296875" lon="6.806512065231800079345703125">
        <ele>1891.5999755859375</ele>
        <time>2026-08-31T05:55:21.000Z</time>
        <extensions>
          <ns3:TrackPointExtension>
            <ns3:hr>156</ns3:hr>
            <ns3:cad>0</ns3:cad>
          </ns3:TrackPointExtension>
        </extensions>
      </trkpt>
      <trkpt lat="44.67575646936893463134765625" lon="6.8065236322581768035888671875">
        <ele>1891.5999755859375</ele>
        <time>2026-08-31T05:55:22.000Z</time>
        <extensions>
          <ns3:TrackPointExtension>
            <ns3:hr>156</ns3:hr>
            <ns3:cad>0</ns3:cad>
          </ns3:TrackPointExtension>
        </extensions>
      </trkpt>
      <trkpt lat="44.6757522784173488616943359375" lon="6.806533522903919219970703125">
        <ele>1891.800048828125</ele>
        <time>2026-08-31T05:55:23.000Z</time>
        <extensions>
          <ns3:TrackPointExtension>
            <ns3:hr>155</ns3:hr>
            <ns3:cad>0</ns3:cad>
          </ns3:TrackPointExtension>
        </extensions>
      </trkpt>
      <trkpt lat="44.6757445670664310455322265625" lon="6.80654936470091342926025390625">
        <ele>1891.800048828125</ele>
        <time>2026-08-31T05:55:24.000Z</time>
        <extensions>
          <ns3:TrackPointExtension>
            <ns3:hr>155</ns3:hr>
            <ns3:cad>0</ns3:cad>
          </ns3:TrackPointExtension>
        </extensions>
      </trkpt>
      <trkpt lat="44.67574364505708217620849609375" lon="6.80656445212662220001220703125">
        <ele>1892</ele>
        <time>2026-08-31T05:55:25.000Z</time>
        <extensions>
          <ns3:TrackPointExtension>
            <ns3:hr>155</ns3:hr>
            <ns3:cad>0</ns3:cad>
          </ns3:TrackPointExtension>
        </extensions>
      </trkpt>
      <trkpt lat="44.67574012465775012969970703125" lon="6.806583143770694732666015625">
        <ele>1892.199951171875</ele>
        <time>2026-08-31T05:55:26.000Z</time>
        <extensions>
          <ns3:TrackPointExtension>
            <ns3:hr>154</ns3:hr>
            <ns3:cad>0</ns3:cad>
          </ns3:TrackPointExtension>
        </extensions>
      </trkpt>
      <trkpt lat="44.67573308385908603668212890625" lon="6.8065923638641834259033203125">
        <ele>1892.199951171875</ele>
        <time>2026-08-31T05:55:27.000Z</time>
        <extensions>
          <ns3:TrackPointExtension>
            <ns3:hr>154</ns3:hr>
            <ns3:cad>0</ns3:cad>
          </ns3:TrackPointExtension>
        </extensions>
      </trkpt>
      <trkpt lat="44.675727970898151397705078125" lon="6.80661072023212909698486328125">
        <ele>1892.4000244140625</ele>
        <time>2026-08-31T05:55:28.000Z</time>
        <extensions>
          <ns3:TrackPointExtension>
            <ns3:hr>154</ns3:hr>
            <ns3:cad>0</ns3:cad>
          </ns3:TrackPointExtension>
        </extensions>
      </trkpt>
      <trkpt lat="44.67572319321334362030029296875" lon="6.80661926977336406707763671875">
        <ele>1892.5999755859375</ele>
        <time>2026-08-31T05:55:29.000Z</time>
        <extensions>
          <ns3:TrackPointExtension>
            <ns3:hr>154</ns3:hr>
            <ns3:cad>0</ns3:cad>
          </ns3:TrackPointExtension>
        </extensions>
      </trkpt>
      <trkpt lat="44.67571548186242580413818359375" lon="6.806640140712261199951171875">
        <ele>1892.800048828125</ele>
        <time>2026-08-31T05:55:30.000Z</time>
        <extensions>
          <ns3:TrackPointExtension>
            <ns3:hr>153</ns3:hr>
            <ns3:cad>0</ns3:cad>
          </ns3:TrackPointExtension>
        </extensions>
      </trkpt>
      <trkpt lat="44.67571011744439601898193359375" lon="6.8066496960818767547607421875">
        <ele>1893</ele>
        <time>2026-08-31T05:55:31.000Z</time>
        <extensions>
          <ns3:TrackPointExtension>
            <ns3:hr>154</ns3:hr>
            <ns3:cad>0</ns3:cad>
          </ns3:TrackPointExtension>
        </extensions>
      </trkpt>
      <trkpt lat="44.67570257373154163360595703125" lon="6.806671656668186187744140625">
        <ele>1893.199951171875</ele>
        <time>2026-08-31T05:55:32.000Z</time>
        <extensions>
          <ns3:TrackPointExtension>
            <ns3:hr>153</ns3:hr>
            <ns3:cad>0</ns3:cad>
          </ns3:TrackPointExtension>
        </extensions>
      </trkpt>
      <trkpt lat="44.67569704167544841766357421875" lon="6.80668272078037261962890625">
        <ele>1893.199951171875</ele>
        <time>2026-08-31T05:55:33.000Z</time>
        <extensions>
          <ns3:TrackPointExtension>
            <ns3:hr>153</ns3:hr>
            <ns3:cad>0</ns3:cad>
          </ns3:TrackPointExtension>
        </extensions>
      </trkpt>
      <trkpt lat="44.6756868995726108551025390625" lon="6.806694455444812774658203125">
        <ele>1893.4000244140625</ele>
        <time>2026-08-31T05:55:34.000Z</time>
        <extensions>
          <ns3:TrackPointExtension>
            <ns3:hr>154</ns3:hr>
            <ns3:cad>0</ns3:cad>
          </ns3:TrackPointExtension>
        </extensions>
      </trkpt>
      <trkpt lat="44.6756766736507415771484375" lon="6.8067080341279506683349609375">
        <ele>1893.4000244140625</ele>
        <time>2026-08-31T05:55:35.000Z</time>
        <extensions>
          <ns3:TrackPointExtension>
            <ns3:hr>154</ns3:hr>
            <ns3:cad>0</ns3:cad>
          </ns3:TrackPointExtension>
        </extensions>
      </trkpt>
      <trkpt lat="44.6756694652140140533447265625" lon="6.8067157454788684844970703125">
        <ele>1893.5999755859375</ele>
        <time>2026-08-31T05:55:36.000Z</time>
        <extensions>
          <ns3:TrackPointExtension>
            <ns3:hr>154</ns3:hr>
            <ns3:cad>0</ns3:cad>
          </ns3:TrackPointExtension>
        </extensions>
      </trkpt>
      <trkpt lat="44.6756614185869693756103515625" lon="6.8067335151135921478271484375">
        <ele>1893.800048828125</ele>
        <time>2026-08-31T05:55:37.000Z</time>
        <extensions>
          <ns3:TrackPointExtension>
            <ns3:hr>154</ns3:hr>
            <ns3:cad>0</ns3:cad>
          </ns3:TrackPointExtension>
        </extensions>
      </trkpt>
      <trkpt lat="44.67565932311117649078369140625" lon="6.806740052998065948486328125">
        <ele>1894</ele>
        <time>2026-08-31T05:55:38.000Z</time>
        <extensions>
          <ns3:TrackPointExtension>
            <ns3:hr>153</ns3:hr>
            <ns3:cad>0</ns3:cad>
          </ns3:TrackPointExtension>
        </extensions>
      </trkpt>
      <trkpt lat="44.6756496839225292205810546875" lon="6.80675916373729705810546875">
        <ele>1894.199951171875</ele>
        <time>2026-08-31T05:55:39.000Z</time>
        <extensions>
          <ns3:TrackPointExtension>
            <ns3:hr>153</ns3:hr>
            <ns3:cad>0</ns3:cad>
          </ns3:TrackPointExtension>
        </extensions>
      </trkpt>
      <trkpt lat="44.675646163523197174072265625" lon="6.80676989257335662841796875">
        <ele>1894.199951171875</ele>
        <time>2026-08-31T05:55:40.000Z</time>
        <extensions>
          <ns3:TrackPointExtension>
            <ns3:hr>154</ns3:hr>
            <ns3:cad>0</ns3:cad>
          </ns3:TrackPointExtension>
        </extensions>
      </trkpt>
      <trkpt lat="44.67564138583838939666748046875" lon="6.806781627237796783447265625">
        <ele>1894.4000244140625</ele>
        <time>2026-08-31T05:55:41.000Z</time>
        <extensions>
          <ns3:TrackPointExtension>
            <ns3:hr>153</ns3:hr>
            <ns3:cad>0</ns3:cad>
          </ns3:TrackPointExtension>
        </extensions>
      </trkpt>
      <trkpt lat="44.67563551850616931915283203125" lon="6.80679126642644405364990234375">
        <ele>1894.5999755859375</ele>
        <time>2026-08-31T05:55:42.000Z</time>
        <extensions>
          <ns3:TrackPointExtension>
            <ns3:hr>153</ns3:hr>
            <ns3:cad>0</ns3:cad>
          </ns3:TrackPointExtension>
        </extensions>
      </trkpt>
      <trkpt lat="44.6756312437355518341064453125" lon="6.80681121535599231719970703125">
        <ele>1894.800048828125</ele>
        <time>2026-08-31T05:55:43.000Z</time>
        <extensions>
          <ns3:TrackPointExtension>
            <ns3:hr>153</ns3:hr>
            <ns3:cad>0</ns3:cad>
          </ns3:TrackPointExtension>
        </extensions>
      </trkpt>
      <trkpt lat="44.67562663368880748748779296875" lon="6.806822530925273895263671875">
        <ele>1895</ele>
        <time>2026-08-31T05:55:44.000Z</time>
        <extensions>
          <ns3:TrackPointExtension>
            <ns3:hr>153</ns3:hr>
            <ns3:cad>0</ns3:cad>
          </ns3:TrackPointExtension>
        </extensions>
      </trkpt>
      <trkpt lat="44.67561271972954273223876953125" lon="6.80683636106550693511962890625">
        <ele>1895.199951171875</ele>
        <time>2026-08-31T05:55:45.000Z</time>
        <extensions>
          <ns3:TrackPointExtension>
            <ns3:hr>153</ns3:hr>
            <ns3:cad>0</ns3:cad>
          </ns3:TrackPointExtension>
        </extensions>
      </trkpt>
      <trkpt lat="44.67560492455959320068359375" lon="6.80684675462543964385986328125">
        <ele>1895.4000244140625</ele>
        <time>2026-08-31T05:55:46.000Z</time>
        <extensions>
          <ns3:TrackPointExtension>
            <ns3:hr>153</ns3:hr>
            <ns3:cad>0</ns3:cad>
          </ns3:TrackPointExtension>
        </extensions>
      </trkpt>
      <trkpt lat="44.675593860447406768798828125" lon="6.8068538792431354522705078125">
        <ele>1895.5999755859375</ele>
        <time>2026-08-31T05:55:47.000Z</time>
        <extensions>
          <ns3:TrackPointExtension>
            <ns3:hr>152</ns3:hr>
            <ns3:cad>0</ns3:cad>
          </ns3:TrackPointExtension>
        </extensions>
      </trkpt>
      <trkpt lat="44.67558623291552066802978515625" lon="6.8068562261760234832763671875">
        <ele>1895.800048828125</ele>
        <time>2026-08-31T05:55:48.000Z</time>
        <extensions>
          <ns3:TrackPointExtension>
            <ns3:hr>152</ns3:hr>
            <ns3:cad>0</ns3:cad>
          </ns3:TrackPointExtension>
        </extensions>
      </trkpt>
      <trkpt lat="44.67558539472520351409912109375" lon="6.8068568967282772064208984375">
        <ele>1896</ele>
        <time>2026-08-31T05:55:49.000Z</time>
        <extensions>
          <ns3:TrackPointExtension>
            <ns3:hr>152</ns3:hr>
            <ns3:cad>0</ns3:cad>
          </ns3:TrackPointExtension>
        </extensions>
      </trkpt>
      <trkpt lat="44.6755725704133510589599609375" lon="6.8068577349185943603515625">
        <ele>1896.199951171875</ele>
        <time>2026-08-31T05:55:50.000Z</time>
        <extensions>
          <ns3:TrackPointExtension>
            <ns3:hr>152</ns3:hr>
            <ns3:cad>55</ns3:cad>
          </ns3:TrackPointExtension>
        </extensions>
      </trkpt>
      <trkpt lat="44.67556544579565525054931640625" lon="6.8068582378327846527099609375">
        <ele>1896.4000244140625</ele>
        <time>2026-08-31T05:55:51.000Z</time>
        <extensions>
          <ns3:TrackPointExtension>
            <ns3:hr>151</ns3:hr>
            <ns3:cad>55</ns3:cad>
          </ns3:TrackPointExtension>
        </extensions>
      </trkpt>
      <trkpt lat="44.67555421404540538787841796875" lon="6.8068612553179264068603515625">
        <ele>1896.5999755859375</ele>
        <time>2026-08-31T05:55:52.000Z</time>
        <extensions>
          <ns3:TrackPointExtension>
            <ns3:hr>151</ns3:hr>
            <ns3:cad>55</ns3:cad>
          </ns3:TrackPointExtension>
        </extensions>
      </trkpt>
      <trkpt lat="44.67554566450417041778564453125" lon="6.80686485953629016876220703125">
        <ele>1896.800048828125</ele>
        <time>2026-08-31T05:55:53.000Z</time>
        <extensions>
          <ns3:TrackPointExtension>
            <ns3:hr>151</ns3:hr>
            <ns3:cad>55</ns3:cad>
          </ns3:TrackPointExtension>
        </extensions>
      </trkpt>
      <trkpt lat="44.67553359456360340118408203125" lon="6.80687022395431995391845703125">
        <ele>1897.199951171875</ele>
        <time>2026-08-31T05:55:54.000Z</time>
        <extensions>
          <ns3:TrackPointExtension>
            <ns3:hr>150</ns3:hr>
            <ns3:cad>0</ns3:cad>
          </ns3:TrackPointExtension>
        </extensions>
      </trkpt>
      <trkpt lat="44.67552219517529010772705078125" lon="6.80687625892460346221923828125">
        <ele>1897.4000244140625</ele>
        <time>2026-08-31T05:55:55.000Z</time>
        <extensions>
          <ns3:TrackPointExtension>
            <ns3:hr>150</ns3:hr>
            <ns3:cad>0</ns3:cad>
          </ns3:TrackPointExtension>
        </extensions>
      </trkpt>
      <trkpt lat="44.6755142323672771453857421875" lon="6.806880868971347808837890625">
        <ele>1897.5999755859375</ele>
        <time>2026-08-31T05:55:56.000Z</time>
        <extensions>
          <ns3:TrackPointExtension>
            <ns3:hr>150</ns3:hr>
            <ns3:cad>0</ns3:cad>
          </ns3:TrackPointExtension>
        </extensions>
      </trkpt>
      <trkpt lat="44.67550442554056644439697265625" lon="6.80688866414129734039306640625">
        <ele>1897.800048828125</ele>
        <time>2026-08-31T05:55:57.000Z</time>
        <extensions>
          <ns3:TrackPointExtension>
            <ns3:hr>150</ns3:hr>
            <ns3:cad>0</ns3:cad>
          </ns3:TrackPointExtension>
        </extensions>
      </trkpt>
      <trkpt lat="44.67549855820834636688232421875" lon="6.80689604021608829498291015625">
        <ele>1898</ele>
        <time>2026-08-31T05:55:58.000Z</time>
        <extensions>
          <ns3:TrackPointExtension>
            <ns3:hr>150</ns3:hr>
            <ns3:cad>0</ns3:cad>
          </ns3:TrackPointExtension>
        </extensions>
      </trkpt>
      <trkpt lat="44.67548933811485767364501953125" lon="6.806905008852481842041015625">
        <ele>1898.199951171875</ele>
        <time>2026-08-31T05:55:59.000Z</time>
        <extensions>
          <ns3:TrackPointExtension>
            <ns3:hr>150</ns3:hr>
            <ns3:cad>0</ns3:cad>
          </ns3:TrackPointExtension>
        </extensions>
      </trkpt>
      <trkpt lat="44.67548330314457416534423828125" lon="6.806912384927272796630859375">
        <ele>1898.4000244140625</ele>
        <time>2026-08-31T05:56:00.000Z</time>
        <extensions>
          <ns3:TrackPointExtension>
            <ns3:hr>150</ns3:hr>
            <ns3:cad>0</ns3:cad>
          </ns3:TrackPointExtension>
        </extensions>
      </trkpt>
      <trkpt lat="44.6754756756126880645751953125" lon="6.8069232814013957977294921875">
        <ele>1898.5999755859375</ele>
        <time>2026-08-31T05:56:01.000Z</time>
        <extensions>
          <ns3:TrackPointExtension>
            <ns3:hr>150</ns3:hr>
            <ns3:cad>0</ns3:cad>
          </ns3:TrackPointExtension>
        </extensions>
      </trkpt>
      <trkpt lat="44.67547089792788028717041015625" lon="6.80692906491458415985107421875">
        <ele>1898.800048828125</ele>
        <time>2026-08-31T05:56:02.000Z</time>
        <extensions>
          <ns3:TrackPointExtension>
            <ns3:hr>150</ns3:hr>
            <ns3:cad>0</ns3:cad>
          </ns3:TrackPointExtension>
        </extensions>
      </trkpt>
      <trkpt lat="44.6754776872694492340087890625" lon="6.80696326307952404022216796875">
        <ele>1899.199951171875</ele>
        <time>2026-08-31T05:56:03.000Z</time>
        <extensions>
          <ns3:TrackPointExtension>
            <ns3:hr>151</ns3:hr>
            <ns3:cad>0</ns3:cad>
          </ns3:TrackPointExtension>
        </extensions>
      </trkpt>
      <trkpt lat="44.67547349631786346435546875" lon="6.806969381868839263916015625">
        <ele>1899.4000244140625</ele>
        <time>2026-08-31T05:56:04.000Z</time>
        <extensions>
          <ns3:TrackPointExtension>
            <ns3:hr>151</ns3:hr>
            <ns3:cad>41</ns3:cad>
          </ns3:TrackPointExtension>
        </extensions>
      </trkpt>
      <trkpt lat="44.67547081410884857177734375" lon="6.8069836311042308807373046875">
        <ele>1899.5999755859375</ele>
        <time>2026-08-31T05:56:05.000Z</time>
        <extensions>
          <ns3:TrackPointExtension>
            <ns3:hr>151</ns3:hr>
            <ns3:cad>41</ns3:cad>
          </ns3:TrackPointExtension>
        </extensions>
      </trkpt>
      <trkpt lat="44.6754696406424045562744140625" lon="6.806993521749973297119140625">
        <ele>1899.800048828125</ele>
        <time>2026-08-31T05:56:06.000Z</time>
        <extensions>
          <ns3:TrackPointExtension>
            <ns3:hr>151</ns3:hr>
            <ns3:cad>41</ns3:cad>
          </ns3:TrackPointExtension>
        </extensions>
      </trkpt>
      <trkpt lat="44.67546871863305568695068359375" lon="6.80699645541608333587646484375">
        <ele>1900.199951171875</ele>
        <time>2026-08-31T05:56:07.000Z</time>
        <extensions>
          <ns3:TrackPointExtension>
            <ns3:hr>152</ns3:hr>
            <ns3:cad>41</ns3:cad>
          </ns3:TrackPointExtension>
        </extensions>
      </trkpt>
      <trkpt lat="44.67546544969081878662109375" lon="6.80700860917568206787109375">
        <ele>1900.4000244140625</ele>
        <time>2026-08-31T05:56:08.000Z</time>
        <extensions>
          <ns3:TrackPointExtension>
            <ns3:hr>152</ns3:hr>
            <ns3:cad>41</ns3:cad>
          </ns3:TrackPointExtension>
        </extensions>
      </trkpt>
      <trkpt lat="44.67546167783439159393310546875" lon="6.8070141412317752838134765625">
        <ele>1900.5999755859375</ele>
        <time>2026-08-31T05:56:09.000Z</time>
        <extensions>
          <ns3:TrackPointExtension>
            <ns3:hr>152</ns3:hr>
            <ns3:cad>0</ns3:cad>
          </ns3:TrackPointExtension>
        </extensions>
      </trkpt>
      <trkpt lat="44.6754540503025054931640625" lon="6.80702193640172481536865234375">
        <ele>1900.5999755859375</ele>
        <time>2026-08-31T05:56:10.000Z</time>
        <extensions>
          <ns3:TrackPointExtension>
            <ns3:hr>153</ns3:hr>
            <ns3:cad>0</ns3:cad>
          </ns3:TrackPointExtension>
        </extensions>
      </trkpt>
      <trkpt lat="44.675448350608348846435546875" lon="6.80703082121908664703369140625">
        <ele>1900.800048828125</ele>
        <time>2026-08-31T05:56:11.000Z</time>
        <extensions>
          <ns3:TrackPointExtension>
            <ns3:hr>153</ns3:hr>
            <ns3:cad>0</ns3:cad>
          </ns3:TrackPointExtension>
        </extensions>
      </trkpt>
      <trkpt lat="44.67544130980968475341796875" lon="6.8070520274341106414794921875">
        <ele>1901</ele>
        <time>2026-08-31T05:56:12.000Z</time>
        <extensions>
          <ns3:TrackPointExtension>
            <ns3:hr>153</ns3:hr>
            <ns3:cad>0</ns3:cad>
          </ns3:TrackPointExtension>
        </extensions>
      </trkpt>
      <trkpt lat="44.6754352748394012451171875" lon="6.8070630915462970733642578125">
        <ele>1901</ele>
        <time>2026-08-31T05:56:13.000Z</time>
        <extensions>
          <ns3:TrackPointExtension>
            <ns3:hr>153</ns3:hr>
            <ns3:cad>0</ns3:cad>
          </ns3:TrackPointExtension>
        </extensions>
      </trkpt>
      <trkpt lat="44.67542655766010284423828125" lon="6.80707608349621295928955078125">
        <ele>1901.199951171875</ele>
        <time>2026-08-31T05:56:14.000Z</time>
        <extensions>
          <ns3:TrackPointExtension>
            <ns3:hr>153</ns3:hr>
            <ns3:cad>0</ns3:cad>
          </ns3:TrackPointExtension>
        </extensions>
      </trkpt>
      <trkpt lat="44.6754196844995021820068359375" lon="6.807088740170001983642578125">
        <ele>1901.199951171875</ele>
        <time>2026-08-31T05:56:15.000Z</time>
        <extensions>
          <ns3:TrackPointExtension>
            <ns3:hr>153</ns3:hr>
            <ns3:cad>0</ns3:cad>
          </ns3:TrackPointExtension>
        </extensions>
      </trkpt>
      <trkpt lat="44.67541339807212352752685546875" lon="6.80709921754896640777587890625">
        <ele>1901.4000244140625</ele>
        <time>2026-08-31T05:56:16.000Z</time>
        <extensions>
          <ns3:TrackPointExtension>
            <ns3:hr>153</ns3:hr>
            <ns3:cad>0</ns3:cad>
          </ns3:TrackPointExtension>
        </extensions>
      </trkpt>
      <trkpt lat="44.67539898119866847991943359375" lon="6.807107515633106231689453125">
        <ele>1901.5999755859375</ele>
        <time>2026-08-31T05:56:17.000Z</time>
        <extensions>
          <ns3:TrackPointExtension>
            <ns3:hr>153</ns3:hr>
            <ns3:cad>0</ns3:cad>
          </ns3:TrackPointExtension>
        </extensions>
      </trkpt>
      <trkpt lat="44.6753938682377338409423828125" lon="6.80711179040372371673583984375">
        <ele>1901.800048828125</ele>
        <time>2026-08-31T05:56:18.000Z</time>
        <extensions>
          <ns3:TrackPointExtension>
            <ns3:hr>154</ns3:hr>
            <ns3:cad>0</ns3:cad>
          </ns3:TrackPointExtension>
        </extensions>
      </trkpt>
      <trkpt lat="44.67538272030651569366455078125" lon="6.80712000466883182525634765625">
        <ele>1902</ele>
        <time>2026-08-31T05:56:19.000Z</time>
        <extensions>
          <ns3:TrackPointExtension>
            <ns3:hr>154</ns3:hr>
            <ns3:cad>0</ns3:cad>
          </ns3:TrackPointExtension>
        </extensions>
      </trkpt>
      <trkpt lat="44.675374925136566162109375" lon="6.80712134577333927154541015625">
        <ele>1902</ele>
        <time>2026-08-31T05:56:20.000Z</time>
        <extensions>
          <ns3:TrackPointExtension>
            <ns3:hr>154</ns3:hr>
            <ns3:cad>0</ns3:cad>
          </ns3:TrackPointExtension>
        </extensions>
      </trkpt>
      <trkpt lat="44.67536218464374542236328125" lon="6.80712796747684478759765625">
        <ele>1902</ele>
        <time>2026-08-31T05:56:21.000Z</time>
        <extensions>
          <ns3:TrackPointExtension>
            <ns3:hr>154</ns3:hr>
            <ns3:cad>0</ns3:cad>
          </ns3:TrackPointExtension>
        </extensions>
      </trkpt>
      <trkpt lat="44.675355143845081329345703125" lon="6.807132996618747711181640625">
        <ele>1902.199951171875</ele>
        <time>2026-08-31T05:56:22.000Z</time>
        <extensions>
          <ns3:TrackPointExtension>
            <ns3:hr>155</ns3:hr>
            <ns3:cad>0</ns3:cad>
          </ns3:TrackPointExtension>
        </extensions>
      </trkpt>
      <trkpt lat="44.67534064315259456634521484375" lon="6.80713961832225322723388671875">
        <ele>1902.199951171875</ele>
        <time>2026-08-31T05:56:23.000Z</time>
        <extensions>
          <ns3:TrackPointExtension>
            <ns3:hr>155</ns3:hr>
            <ns3:cad>0</ns3:cad>
          </ns3:TrackPointExtension>
        </extensions>
      </trkpt>
      <trkpt lat="44.67532874085009098052978515625" lon="6.807150430977344512939453125">
        <ele>1902.199951171875</ele>
        <time>2026-08-31T05:56:24.000Z</time>
        <extensions>
          <ns3:TrackPointExtension>
            <ns3:hr>155</ns3:hr>
            <ns3:cad>0</ns3:cad>
          </ns3:TrackPointExtension>
        </extensions>
      </trkpt>
      <trkpt lat="44.67531667090952396392822265625" lon="6.80715755559504032135009765625">
        <ele>1902.4000244140625</ele>
        <time>2026-08-31T05:56:25.000Z</time>
        <extensions>
          <ns3:TrackPointExtension>
            <ns3:hr>155</ns3:hr>
            <ns3:cad>0</ns3:cad>
          </ns3:TrackPointExtension>
        </extensions>
      </trkpt>
      <trkpt lat="44.67530451714992523193359375" lon="6.80716761387884616851806640625">
        <ele>1902.4000244140625</ele>
        <time>2026-08-31T05:56:26.000Z</time>
        <extensions>
          <ns3:TrackPointExtension>
            <ns3:hr>155</ns3:hr>
            <ns3:cad>0</ns3:cad>
          </ns3:TrackPointExtension>
        </extensions>
      </trkpt>
      <trkpt lat="44.6752949617803096771240234375" lon="6.8071760796010494232177734375">
        <ele>1902.4000244140625</ele>
        <time>2026-08-31T05:56:27.000Z</time>
        <extensions>
          <ns3:TrackPointExtension>
            <ns3:hr>155</ns3:hr>
            <ns3:cad>55</ns3:cad>
          </ns3:TrackPointExtension>
        </extensions>
      </trkpt>
      <trkpt lat="44.67528599314391613006591796875" lon="6.807185970246791839599609375">
        <ele>1902.4000244140625</ele>
        <time>2026-08-31T05:56:28.000Z</time>
        <extensions>
          <ns3:TrackPointExtension>
            <ns3:hr>154</ns3:hr>
            <ns3:cad>55</ns3:cad>
          </ns3:TrackPointExtension>
        </extensions>
      </trkpt>
      <trkpt lat="44.67527627013623714447021484375" lon="6.80719711817800998687744140625">
        <ele>1902.4000244140625</ele>
        <time>2026-08-31T05:56:29.000Z</time>
        <extensions>
          <ns3:TrackPointExtension>
            <ns3:hr>154</ns3:hr>
            <ns3:cad>57</ns3:cad>
          </ns3:TrackPointExtension>
        </extensions>
      </trkpt>
      <trkpt lat="44.675265289843082427978515625" lon="6.80720985867083072662353515625">
        <ele>1902.4000244140625</ele>
        <time>2026-08-31T05:56:30.000Z</time>
        <extensions>
          <ns3:TrackPointExtension>
            <ns3:hr>154</ns3:hr>
            <ns3:cad>57</ns3:cad>
          </ns3:TrackPointExtension>
        </extensions>
      </trkpt>
      <trkpt lat="44.6752555668354034423828125" lon="6.80722243152558803558349609375">
        <ele>1902.5999755859375</ele>
        <time>2026-08-31T05:56:31.000Z</time>
        <extensions>
          <ns3:TrackPointExtension>
            <ns3:hr>154</ns3:hr>
            <ns3:cad>58</ns3:cad>
          </ns3:TrackPointExtension>
        </extensions>
      </trkpt>
      <trkpt lat="44.6752475202083587646484375" lon="6.80723181925714015960693359375">
        <ele>1902.800048828125</ele>
        <time>2026-08-31T05:56:32.000Z</time>
        <extensions>
          <ns3:TrackPointExtension>
            <ns3:hr>154</ns3:hr>
            <ns3:cad>59</ns3:cad>
          </ns3:TrackPointExtension>
        </extensions>
      </trkpt>
      <trkpt lat="44.67523838393390178680419921875" lon="6.80724355392158031463623046875">
        <ele>1902.800048828125</ele>
        <time>2026-08-31T05:56:33.000Z</time>
        <extensions>
          <ns3:TrackPointExtension>
            <ns3:hr>154</ns3:hr>
            <ns3:cad>59</ns3:cad>
          </ns3:TrackPointExtension>
        </extensions>
      </trkpt>
      <trkpt lat="44.675230085849761962890625" lon="6.80725478567183017730712890625">
        <ele>1902.800048828125</ele>
        <time>2026-08-31T05:56:34.000Z</time>
        <extensions>
          <ns3:TrackPointExtension>
            <ns3:hr>153</ns3:hr>
            <ns3:cad>58</ns3:cad>
          </ns3:TrackPointExtension>
        </extensions>
      </trkpt>
      <trkpt lat="44.6752232126891613006591796875" lon="6.8072655983269214630126953125">
        <ele>1903</ele>
        <time>2026-08-31T05:56:35.000Z</time>
        <extensions>
          <ns3:TrackPointExtension>
            <ns3:hr>153</ns3:hr>
            <ns3:cad>58</ns3:cad>
          </ns3:TrackPointExtension>
        </extensions>
      </trkpt>
      <trkpt lat="44.6752168424427509307861328125" lon="6.8072783388197422027587890625">
        <ele>1903.199951171875</ele>
        <time>2026-08-31T05:56:36.000Z</time>
        <extensions>
          <ns3:TrackPointExtension>
            <ns3:hr>152</ns3:hr>
            <ns3:cad>58</ns3:cad>
          </ns3:TrackPointExtension>
        </extensions>
      </trkpt>
      <trkpt lat="44.6752131544053554534912109375" lon="6.80728764273226261138916015625">
        <ele>1903.4000244140625</ele>
        <time>2026-08-31T05:56:37.000Z</time>
        <extensions>
          <ns3:TrackPointExtension>
            <ns3:hr>151</ns3:hr>
            <ns3:cad>57</ns3:cad>
          </ns3:TrackPointExtension>
        </extensions>
      </trkpt>
      <trkpt lat="44.67520837672054767608642578125" lon="6.807299293577671051025390625">
        <ele>1903.800048828125</ele>
        <time>2026-08-31T05:56:38.000Z</time>
        <extensions>
          <ns3:TrackPointExtension>
            <ns3:hr>149</ns3:hr>
            <ns3:cad>57</ns3:cad>
          </ns3:TrackPointExtension>
        </extensions>
      </trkpt>
      <trkpt lat="44.67520393431186676025390625" lon="6.807312704622745513916015625">
        <ele>1904</ele>
        <time>2026-08-31T05:56:39.000Z</time>
        <extensions>
          <ns3:TrackPointExtension>
            <ns3:hr>148</ns3:hr>
            <ns3:cad>57</ns3:cad>
          </ns3:TrackPointExtension>
        </extensions>
      </trkpt>
      <trkpt lat="44.675197899341583251953125" lon="6.80732653476297855377197265625">
        <ele>1904.4000244140625</ele>
        <time>2026-08-31T05:56:40.000Z</time>
        <extensions>
          <ns3:TrackPointExtension>
            <ns3:hr>148</ns3:hr>
            <ns3:cad>57</ns3:cad>
          </ns3:TrackPointExtension>
        </extensions>
      </trkpt>
      <trkpt lat="44.6751943789422512054443359375" lon="6.807340197265148162841796875">
        <ele>1904.4000244140625</ele>
        <time>2026-08-31T05:56:41.000Z</time>
        <extensions>
          <ns3:TrackPointExtension>
            <ns3:hr>149</ns3:hr>
            <ns3:cad>56</ns3:cad>
          </ns3:TrackPointExtension>
        </extensions>
      </trkpt>
      <trkpt lat="44.6751920320093631744384765625" lon="6.80735235102474689483642578125">
        <ele>1904.5999755859375</ele>
        <time>2026-08-31T05:56:42.000Z</time>
        <extensions>
          <ns3:TrackPointExtension>
            <ns3:hr>150</ns3:hr>
            <ns3:cad>55</ns3:cad>
          </ns3:TrackPointExtension>
        </extensions>
      </trkpt>
      <trkpt lat="44.67519111000001430511474609375" lon="6.807366348803043365478515625">
        <ele>1904.5999755859375</ele>
        <time>2026-08-31T05:56:43.000Z</time>
        <extensions>
          <ns3:TrackPointExtension>
            <ns3:hr>150</ns3:hr>
            <ns3:cad>55</ns3:cad>
          </ns3:TrackPointExtension>
        </extensions>
      </trkpt>
      <trkpt lat="44.67519412748515605926513671875" lon="6.80737950839102268218994140625">
        <ele>1904.800048828125</ele>
        <time>2026-08-31T05:56:44.000Z</time>
        <extensions>
          <ns3:TrackPointExtension>
            <ns3:hr>150</ns3:hr>
            <ns3:cad>55</ns3:cad>
          </ns3:TrackPointExtension>
        </extensions>
      </trkpt>
      <trkpt lat="44.6751970611512660980224609375" lon="6.80739107541739940643310546875">
        <ele>1904.800048828125</ele>
        <time>2026-08-31T05:56:45.000Z</time>
        <extensions>
          <ns3:TrackPointExtension>
            <ns3:hr>150</ns3:hr>
            <ns3:cad>54</ns3:cad>
          </ns3:TrackPointExtension>
        </extensions>
      </trkpt>
      <trkpt lat="44.6751992404460906982421875" lon="6.80740289390087127685546875">
        <ele>1904.800048828125</ele>
        <time>2026-08-31T05:56:46.000Z</time>
        <extensions>
          <ns3:TrackPointExtension>
            <ns3:hr>150</ns3:hr>
            <ns3:cad>54</ns3:cad>
          </ns3:TrackPointExtension>
        </extensions>
      </trkpt>
      <trkpt lat="44.67520183883607387542724609375" lon="6.8074101023375988006591796875">
        <ele>1904.800048828125</ele>
        <time>2026-08-31T05:56:47.000Z</time>
        <extensions>
          <ns3:TrackPointExtension>
            <ns3:hr>149</ns3:hr>
            <ns3:cad>53</ns3:cad>
          </ns3:TrackPointExtension>
        </extensions>
      </trkpt>
      <trkpt lat="44.67520183883607387542724609375" lon="6.8074117787182331085205078125">
        <ele>1904.800048828125</ele>
        <time>2026-08-31T05:56:48.000Z</time>
        <extensions>
          <ns3:TrackPointExtension>
            <ns3:hr>150</ns3:hr>
            <ns3:cad>52</ns3:cad>
          </ns3:TrackPointExtension>
        </extensions>
      </trkpt>
      <trkpt lat="44.6752030961215496063232421875" lon="6.8074156343936920166015625">
        <ele>1905</ele>
        <time>2026-08-31T05:56:49.000Z</time>
        <extensions>
          <ns3:TrackPointExtension>
            <ns3:hr>149</ns3:hr>
            <ns3:cad>51</ns3:cad>
          </ns3:TrackPointExtension>
        </extensions>
      </trkpt>
      <trkpt lat="44.67520602978765964508056640625" lon="6.80741370655596256256103515625">
        <ele>1905</ele>
        <time>2026-08-31T05:56:50.000Z</time>
        <extensions>
          <ns3:TrackPointExtension>
            <ns3:hr>149</ns3:hr>
            <ns3:cad>0</ns3:cad>
          </ns3:TrackPointExtension>
        </extensions>
      </trkpt>
      <trkpt lat="44.6752098016440868377685546875" lon="6.80741898715496063232421875">
        <ele>1905.199951171875</ele>
        <time>2026-08-31T05:56:51.000Z</time>
        <extensions>
          <ns3:TrackPointExtension>
            <ns3:hr>149</ns3:hr>
            <ns3:cad>0</ns3:cad>
          </ns3:TrackPointExtension>
        </extensions>
      </trkpt>
      <trkpt lat="44.67521332204341888427734375" lon="6.8074282072484493255615234375">
        <ele>1905.199951171875</ele>
        <time>2026-08-31T05:56:52.000Z</time>
        <extensions>
          <ns3:TrackPointExtension>
            <ns3:hr>149</ns3:hr>
            <ns3:cad>0</ns3:cad>
          </ns3:TrackPointExtension>
        </extensions>
      </trkpt>
      <trkpt lat="44.675217010080814361572265625" lon="6.80743952281773090362548828125">
        <ele>1905.199951171875</ele>
        <time>2026-08-31T05:56:53.000Z</time>
        <extensions>
          <ns3:TrackPointExtension>
            <ns3:hr>148</ns3:hr>
            <ns3:cad>0</ns3:cad>
          </ns3:TrackPointExtension>
        </extensions>
      </trkpt>
      <trkpt lat="44.6752206981182098388671875" lon="6.80745108984410762786865234375">
        <ele>1905.4000244140625</ele>
        <time>2026-08-31T05:56:54.000Z</time>
        <extensions>
          <ns3:TrackPointExtension>
            <ns3:hr>148</ns3:hr>
            <ns3:cad>0</ns3:cad>
          </ns3:TrackPointExtension>
        </extensions>
      </trkpt>
      <trkpt lat="44.67522312887012958526611328125" lon="6.8074640817940235137939453125">
        <ele>1905.5999755859375</ele>
        <time>2026-08-31T05:56:55.000Z</time>
        <extensions>
          <ns3:TrackPointExtension>
            <ns3:hr>148</ns3:hr>
            <ns3:cad>0</ns3:cad>
          </ns3:TrackPointExtension>
        </extensions>
      </trkpt>
      <trkpt lat="44.6752225421369075775146484375" lon="6.8074805103242397308349609375">
        <ele>1905.800048828125</ele>
        <time>2026-08-31T05:56:56.000Z</time>
        <extensions>
          <ns3:TrackPointExtension>
            <ns3:hr>148</ns3:hr>
            <ns3:cad>50</ns3:cad>
          </ns3:TrackPointExtension>
        </extensions>
      </trkpt>
      <trkpt lat="44.6752206981182098388671875" lon="6.80749819613993167877197265625">
        <ele>1906</ele>
        <time>2026-08-31T05:56:57.000Z</time>
        <extensions>
          <ns3:TrackPointExtension>
            <ns3:hr>148</ns3:hr>
            <ns3:cad>52</ns3:cad>
          </ns3:TrackPointExtension>
        </extensions>
      </trkpt>
      <trkpt lat="44.67521944083273410797119140625" lon="6.80751554667949676513671875">
        <ele>1906.199951171875</ele>
        <time>2026-08-31T05:56:58.000Z</time>
        <extensions>
          <ns3:TrackPointExtension>
            <ns3:hr>148</ns3:hr>
            <ns3:cad>53</ns3:cad>
          </ns3:TrackPointExtension>
        </extensions>
      </trkpt>
      <trkpt lat="44.67521759681403636932373046875" lon="6.80753155611455440521240234375">
        <ele>1906.4000244140625</ele>
        <time>2026-08-31T05:56:59.000Z</time>
        <extensions>
          <ns3:TrackPointExtension>
            <ns3:hr>148</ns3:hr>
            <ns3:cad>53</ns3:cad>
          </ns3:TrackPointExtension>
        </extensions>
      </trkpt>
      <trkpt lat="44.6752155013382434844970703125" lon="6.80754714645445346832275390625">
        <ele>1906.4000244140625</ele>
        <time>2026-08-31T05:57:00.000Z</time>
        <extensions>
          <ns3:TrackPointExtension>
            <ns3:hr>147</ns3:hr>
            <ns3:cad>53</ns3:cad>
          </ns3:TrackPointExtension>
        </extensions>
      </trkpt>
      <trkpt lat="44.675212316215038299560546875" lon="6.80756323970854282379150390625">
        <ele>1906.4000244140625</ele>
        <time>2026-08-31T05:57:01.000Z</time>
        <extensions>
          <ns3:TrackPointExtension>
            <ns3:hr>148</ns3:hr>
            <ns3:cad>53</ns3:cad>
          </ns3:TrackPointExtension>
        </extensions>
      </trkpt>
      <trkpt lat="44.675208963453769683837890625" lon="6.8075780756771564483642578125">
        <ele>1906.4000244140625</ele>
        <time>2026-08-31T05:57:02.000Z</time>
        <extensions>
          <ns3:TrackPointExtension>
            <ns3:hr>148</ns3:hr>
            <ns3:cad>55</ns3:cad>
          </ns3:TrackPointExtension>
        </extensions>
      </trkpt>
      <trkpt lat="44.67520602978765964508056640625" lon="6.80759198963642120361328125">
        <ele>1906.4000244140625</ele>
        <time>2026-08-31T05:57:03.000Z</time>
        <extensions>
          <ns3:TrackPointExtension>
            <ns3:hr>147</ns3:hr>
            <ns3:cad>55</ns3:cad>
          </ns3:TrackPointExtension>
        </extensions>
      </trkpt>
      <trkpt lat="44.67520284466445446014404296875" lon="6.80760414339601993560791015625">
        <ele>1906.4000244140625</ele>
        <time>2026-08-31T05:57:04.000Z</time>
        <extensions>
          <ns3:TrackPointExtension>
            <ns3:hr>148</ns3:hr>
            <ns3:cad>56</ns3:cad>
          </ns3:TrackPointExtension>
        </extensions>
      </trkpt>
      <trkpt lat="44.675197899341583251953125" lon="6.80761956609785556793212890625">
        <ele>1906.5999755859375</ele>
        <time>2026-08-31T05:57:05.000Z</time>
        <extensions>
          <ns3:TrackPointExtension>
            <ns3:hr>148</ns3:hr>
            <ns3:cad>56</ns3:cad>
          </ns3:TrackPointExtension>
        </extensions>
      </trkpt>
      <trkpt lat="44.67519261874258518218994140625" lon="6.8076337315142154693603515625">
        <ele>1906.5999755859375</ele>
        <time>2026-08-31T05:57:06.000Z</time>
        <extensions>
          <ns3:TrackPointExtension>
            <ns3:hr>148</ns3:hr>
            <ns3:cad>56</ns3:cad>
          </ns3:TrackPointExtension>
        </extensions>
      </trkpt>
      <trkpt lat="44.675186835229396820068359375" lon="6.80764806456863880157470703125">
        <ele>1906.800048828125</ele>
        <time>2026-08-31T05:57:07.000Z</time>
        <extensions>
          <ns3:TrackPointExtension>
            <ns3:hr>148</ns3:hr>
            <ns3:cad>55</ns3:cad>
          </ns3:TrackPointExtension>
        </extensions>
      </trkpt>
      <trkpt lat="44.67518121935427188873291015625" lon="6.80766172707080841064453125">
        <ele>1906.800048828125</ele>
        <time>2026-08-31T05:57:08.000Z</time>
        <extensions>
          <ns3:TrackPointExtension>
            <ns3:hr>148</ns3:hr>
            <ns3:cad>55</ns3:cad>
          </ns3:TrackPointExtension>
        </extensions>
      </trkpt>
      <trkpt lat="44.6751751005649566650390625" lon="6.807674467563629150390625">
        <ele>1906.800048828125</ele>
        <time>2026-08-31T05:57:09.000Z</time>
        <extensions>
          <ns3:TrackPointExtension>
            <ns3:hr>148</ns3:hr>
            <ns3:cad>55</ns3:cad>
          </ns3:TrackPointExtension>
        </extensions>
      </trkpt>
      <trkpt lat="44.6751682274043560028076171875" lon="6.80768913589417934417724609375">
        <ele>1907</ele>
        <time>2026-08-31T05:57:10.000Z</time>
        <extensions>
          <ns3:TrackPointExtension>
            <ns3:hr>148</ns3:hr>
            <ns3:cad>55</ns3:cad>
          </ns3:TrackPointExtension>
        </extensions>
      </trkpt>
      <trkpt lat="44.67516177333891391754150390625" lon="6.8076997809112071990966796875">
        <ele>1907</ele>
        <time>2026-08-31T05:57:11.000Z</time>
        <extensions>
          <ns3:TrackPointExtension>
            <ns3:hr>148</ns3:hr>
            <ns3:cad>55</ns3:cad>
          </ns3:TrackPointExtension>
        </extensions>
      </trkpt>
      <trkpt lat="44.67515456490218639373779296875" lon="6.80771394632756710052490234375">
        <ele>1907.199951171875</ele>
        <time>2026-08-31T05:57:12.000Z</time>
        <extensions>
          <ns3:TrackPointExtension>
            <ns3:hr>148</ns3:hr>
            <ns3:cad>57</ns3:cad>
          </ns3:TrackPointExtension>
        </extensions>
      </trkpt>
      <trkpt lat="44.6751487813889980316162109375" lon="6.80772970430552959442138671875">
        <ele>1907.4000244140625</ele>
        <time>2026-08-31T05:57:13.000Z</time>
        <extensions>
          <ns3:TrackPointExtension>
            <ns3:hr>148</ns3:hr>
            <ns3:cad>57</ns3:cad>
          </ns3:TrackPointExtension>
        </extensions>
      </trkpt>
      <trkpt lat="44.67514283023774623870849609375" lon="6.807745881378650665283203125">
        <ele>1907.5999755859375</ele>
        <time>2026-08-31T05:57:14.000Z</time>
        <extensions>
          <ns3:TrackPointExtension>
            <ns3:hr>148</ns3:hr>
            <ns3:cad>57</ns3:cad>
          </ns3:TrackPointExtension>
        </extensions>
      </trkpt>
      <trkpt lat="44.6751387231051921844482421875" lon="6.80775753222405910491943359375">
        <ele>1907.800048828125</ele>
        <time>2026-08-31T05:57:15.000Z</time>
        <extensions>
          <ns3:TrackPointExtension>
            <ns3:hr>149</ns3:hr>
            <ns3:cad>0</ns3:cad>
          </ns3:TrackPointExtension>
        </extensions>
      </trkpt>
      <trkpt lat="44.67513293959200382232666015625" lon="6.80777261964976787567138671875">
        <ele>1908</ele>
        <time>2026-08-31T05:57:16.000Z</time>
        <extensions>
          <ns3:TrackPointExtension>
            <ns3:hr>151</ns3:hr>
            <ns3:cad>0</ns3:cad>
          </ns3:TrackPointExtension>
        </extensions>
      </trkpt>
      <trkpt lat="44.67512807808816432952880859375" lon="6.8077884614467620849609375">
        <ele>1908.199951171875</ele>
        <time>2026-08-31T05:57:17.000Z</time>
        <extensions>
          <ns3:TrackPointExtension>
            <ns3:hr>152</ns3:hr>
            <ns3:cad>0</ns3:cad>
          </ns3:TrackPointExtension>
        </extensions>
      </trkpt>
      <trkpt lat="44.67512405477464199066162109375" lon="6.80780312977731227874755859375">
        <ele>1908.4000244140625</ele>
        <time>2026-08-31T05:57:18.000Z</time>
        <extensions>
          <ns3:TrackPointExtension>
            <ns3:hr>152</ns3:hr>
            <ns3:cad>0</ns3:cad>
          </ns3:TrackPointExtension>
        </extensions>
      </trkpt>
      <trkpt lat="44.675119109451770782470703125" lon="6.80782106705009937286376953125">
        <ele>1908.4000244140625</ele>
        <time>2026-08-31T05:57:19.000Z</time>
        <extensions>
          <ns3:TrackPointExtension>
            <ns3:hr>152</ns3:hr>
            <ns3:cad>0</ns3:cad>
          </ns3:TrackPointExtension>
        </extensions>
      </trkpt>
      <trkpt lat="44.67511684633791446685791015625" lon="6.8078312091529369354248046875">
        <ele>1908.5999755859375</ele>
        <time>2026-08-31T05:57:20.000Z</time>
        <extensions>
          <ns3:TrackPointExtension>
            <ns3:hr>152</ns3:hr>
            <ns3:cad>0</ns3:cad>
          </ns3:TrackPointExtension>
        </extensions>
      </trkpt>
      <trkpt lat="44.6751139126718044281005859375" lon="6.80784688331186771392822265625">
        <ele>1908.800048828125</ele>
        <time>2026-08-31T05:57:21.000Z</time>
        <extensions>
          <ns3:TrackPointExtension>
            <ns3:hr>151</ns3:hr>
            <ns3:cad>0</ns3:cad>
          </ns3:TrackPointExtension>
        </extensions>
      </trkpt>
      <trkpt lat="44.67511282302439212799072265625" lon="6.8078590370714664459228515625">
        <ele>1909</ele>
        <time>2026-08-31T05:57:22.000Z</time>
        <extensions>
          <ns3:TrackPointExtension>
            <ns3:hr>151</ns3:hr>
            <ns3:cad>0</ns3:cad>
          </ns3:TrackPointExtension>
        </extensions>
      </trkpt>
      <trkpt lat="44.6751108951866626739501953125" lon="6.807873956859111785888671875">
        <ele>1909.199951171875</ele>
        <time>2026-08-31T05:57:23.000Z</time>
        <extensions>
          <ns3:TrackPointExtension>
            <ns3:hr>151</ns3:hr>
            <ns3:cad>0</ns3:cad>
          </ns3:TrackPointExtension>
        </extensions>
      </trkpt>
      <trkpt lat="44.6751155890524387359619140625" lon="6.8078903853893280029296875">
        <ele>1909.4000244140625</ele>
        <time>2026-08-31T05:57:24.000Z</time>
        <extensions>
          <ns3:TrackPointExtension>
            <ns3:hr>152</ns3:hr>
            <ns3:cad>0</ns3:cad>
          </ns3:TrackPointExtension>
        </extensions>
      </trkpt>
      <trkpt lat="44.6751160919666290283203125" lon="6.80790714919567108154296875">
        <ele>1909.5999755859375</ele>
        <time>2026-08-31T05:57:25.000Z</time>
        <extensions>
          <ns3:TrackPointExtension>
            <ns3:hr>151</ns3:hr>
            <ns3:cad>0</ns3:cad>
          </ns3:TrackPointExtension>
        </extensions>
      </trkpt>
      <trkpt lat="44.67511684633791446685791015625" lon="6.80792014114558696746826171875">
        <ele>1909.800048828125</ele>
        <time>2026-08-31T05:57:26.000Z</time>
        <extensions>
          <ns3:TrackPointExtension>
            <ns3:hr>151</ns3:hr>
            <ns3:cad>0</ns3:cad>
          </ns3:TrackPointExtension>
        </extensions>
      </trkpt>
      <trkpt lat="44.67512254603207111358642578125" lon="6.8079413473606109619140625">
        <ele>1910</ele>
        <time>2026-08-31T05:57:27.000Z</time>
        <extensions>
          <ns3:TrackPointExtension>
            <ns3:hr>151</ns3:hr>
            <ns3:cad>0</ns3:cad>
          </ns3:TrackPointExtension>
        </extensions>
      </trkpt>
      <trkpt lat="44.67512304894626140594482421875" lon="6.80795735679566860198974609375">
        <ele>1910</ele>
        <time>2026-08-31T05:57:28.000Z</time>
        <extensions>
          <ns3:TrackPointExtension>
            <ns3:hr>152</ns3:hr>
            <ns3:cad>0</ns3:cad>
          </ns3:TrackPointExtension>
        </extensions>
      </trkpt>
      <trkpt lat="44.67512321658432483673095703125" lon="6.8079834245145320892333984375">
        <ele>1910.199951171875</ele>
        <time>2026-08-31T05:57:29.000Z</time>
        <extensions>
          <ns3:TrackPointExtension>
            <ns3:hr>151</ns3:hr>
            <ns3:cad>0</ns3:cad>
          </ns3:TrackPointExtension>
        </extensions>
      </trkpt>
      <trkpt lat="44.67512388713657855987548828125" lon="6.8080008588731288909912109375">
        <ele>1910.199951171875</ele>
        <time>2026-08-31T05:57:30.000Z</time>
        <extensions>
          <ns3:TrackPointExtension>
            <ns3:hr>151</ns3:hr>
            <ns3:cad>0</ns3:cad>
          </ns3:TrackPointExtension>
        </extensions>
      </trkpt>
      <trkpt lat="44.675124473869800567626953125" lon="6.808020807802677154541015625">
        <ele>1910.199951171875</ele>
        <time>2026-08-31T05:57:31.000Z</time>
        <extensions>
          <ns3:TrackPointExtension>
            <ns3:hr>151</ns3:hr>
            <ns3:cad>0</ns3:cad>
          </ns3:TrackPointExtension>
        </extensions>
      </trkpt>
      <trkpt lat="44.67512288130819797515869140625" lon="6.808040253818035125732421875">
        <ele>1910</ele>
        <time>2026-08-31T05:57:32.000Z</time>
        <extensions>
          <ns3:TrackPointExtension>
            <ns3:hr>151</ns3:hr>
            <ns3:cad>0</ns3:cad>
          </ns3:TrackPointExtension>
        </extensions>
      </trkpt>
      <trkpt lat="44.675121121108531951904296875" lon="6.80806271731853485107421875">
        <ele>1909.800048828125</ele>
        <time>2026-08-31T05:57:33.000Z</time>
        <extensions>
          <ns3:TrackPointExtension>
            <ns3:hr>151</ns3:hr>
            <ns3:cad>0</ns3:cad>
          </ns3:TrackPointExtension>
        </extensions>
      </trkpt>
      <trkpt lat="44.67512212693691253662109375" lon="6.8080833368003368377685546875">
        <ele>1909.800048828125</ele>
        <time>2026-08-31T05:57:34.000Z</time>
        <extensions>
          <ns3:TrackPointExtension>
            <ns3:hr>151</ns3:hr>
            <ns3:cad>0</ns3:cad>
          </ns3:TrackPointExtension>
        </extensions>
      </trkpt>
      <trkpt lat="44.6751209534704685211181640625" lon="6.8081041239202022552490234375">
        <ele>1909.800048828125</ele>
        <time>2026-08-31T05:57:35.000Z</time>
        <extensions>
          <ns3:TrackPointExtension>
            <ns3:hr>151</ns3:hr>
            <ns3:cad>0</ns3:cad>
          </ns3:TrackPointExtension>
        </extensions>
      </trkpt>
      <trkpt lat="44.675120450556278228759765625" lon="6.80812281556427478790283203125">
        <ele>1909.5999755859375</ele>
        <time>2026-08-31T05:57:36.000Z</time>
        <extensions>
          <ns3:TrackPointExtension>
            <ns3:hr>150</ns3:hr>
            <ns3:cad>0</ns3:cad>
          </ns3:TrackPointExtension>
        </extensions>
      </trkpt>
      <trkpt lat="44.67511751689016819000244140625" lon="6.80814393796026706695556640625">
        <ele>1909.5999755859375</ele>
        <time>2026-08-31T05:57:37.000Z</time>
        <extensions>
          <ns3:TrackPointExtension>
            <ns3:hr>151</ns3:hr>
            <ns3:cad>0</ns3:cad>
          </ns3:TrackPointExtension>
        </extensions>
      </trkpt>
      <trkpt lat="44.675116427242755889892578125" lon="6.80815919302403926849365234375">
        <ele>1909.5999755859375</ele>
        <time>2026-08-31T05:57:38.000Z</time>
        <extensions>
          <ns3:TrackPointExtension>
            <ns3:hr>151</ns3:hr>
            <ns3:cad>0</ns3:cad>
          </ns3:TrackPointExtension>
        </extensions>
      </trkpt>
      <trkpt lat="44.67511399649083614349365234375" lon="6.80817662738263607025146484375">
        <ele>1909.5999755859375</ele>
        <time>2026-08-31T05:57:39.000Z</time>
        <extensions>
          <ns3:TrackPointExtension>
            <ns3:hr>150</ns3:hr>
            <ns3:cad>0</ns3:cad>
          </ns3:TrackPointExtension>
        </extensions>
      </trkpt>
      <trkpt lat="44.67511584050953388214111328125" lon="6.80819489993155002593994140625">
        <ele>1909.5999755859375</ele>
        <time>2026-08-31T05:57:40.000Z</time>
        <extensions>
          <ns3:TrackPointExtension>
            <ns3:hr>151</ns3:hr>
            <ns3:cad>15</ns3:cad>
          </ns3:TrackPointExtension>
        </extensions>
      </trkpt>
      <trkpt lat="44.67511282302439212799072265625" lon="6.80821183137595653533935546875">
        <ele>1909.800048828125</ele>
        <time>2026-08-31T05:57:41.000Z</time>
        <extensions>
          <ns3:TrackPointExtension>
            <ns3:hr>151</ns3:hr>
            <ns3:cad>15</ns3:cad>
          </ns3:TrackPointExtension>
        </extensions>
      </trkpt>
      <trkpt lat="44.675113074481487274169921875" lon="6.80822825990617275238037109375">
        <ele>1910</ele>
        <time>2026-08-31T05:57:42.000Z</time>
        <extensions>
          <ns3:TrackPointExtension>
            <ns3:hr>150</ns3:hr>
            <ns3:cad>15</ns3:cad>
          </ns3:TrackPointExtension>
        </extensions>
      </trkpt>
      <trkpt lat="44.67511248774826526641845703125" lon="6.808246113359928131103515625">
        <ele>1910.199951171875</ele>
        <time>2026-08-31T05:57:43.000Z</time>
        <extensions>
          <ns3:TrackPointExtension>
            <ns3:hr>151</ns3:hr>
            <ns3:cad>15</ns3:cad>
          </ns3:TrackPointExtension>
        </extensions>
      </trkpt>
      <trkpt lat="44.675113745033740997314453125" lon="6.8082617036998271942138671875">
        <ele>1910.199951171875</ele>
        <time>2026-08-31T05:57:44.000Z</time>
        <extensions>
          <ns3:TrackPointExtension>
            <ns3:hr>150</ns3:hr>
            <ns3:cad>0</ns3:cad>
          </ns3:TrackPointExtension>
        </extensions>
      </trkpt>
      <trkpt lat="44.6751119010150432586669921875" lon="6.80827955715358257293701171875">
        <ele>1910.4000244140625</ele>
        <time>2026-08-31T05:57:45.000Z</time>
        <extensions>
          <ns3:TrackPointExtension>
            <ns3:hr>150</ns3:hr>
            <ns3:cad>0</ns3:cad>
          </ns3:TrackPointExtension>
        </extensions>
      </trkpt>
      <trkpt lat="44.6751107275485992431640625" lon="6.8082979135215282440185546875">
        <ele>1910.4000244140625</ele>
        <time>2026-08-31T05:57:46.000Z</time>
        <extensions>
          <ns3:TrackPointExtension>
            <ns3:hr>150</ns3:hr>
            <ns3:cad>0</ns3:cad>
          </ns3:TrackPointExtension>
        </extensions>
      </trkpt>
      <trkpt lat="44.67510980553925037384033203125" lon="6.80831677280366420745849609375">
        <ele>1910.5999755859375</ele>
        <time>2026-08-31T05:57:47.000Z</time>
        <extensions>
          <ns3:TrackPointExtension>
            <ns3:hr>150</ns3:hr>
            <ns3:cad>0</ns3:cad>
          </ns3:TrackPointExtension>
        </extensions>
      </trkpt>
      <trkpt lat="44.6751080453395843505859375" lon="6.80833588354289531707763671875">
        <ele>1910.5999755859375</ele>
        <time>2026-08-31T05:57:48.000Z</time>
        <extensions>
          <ns3:TrackPointExtension>
            <ns3:hr>150</ns3:hr>
            <ns3:cad>0</ns3:cad>
          </ns3:TrackPointExtension>
        </extensions>
      </trkpt>
      <trkpt lat="44.67511014081537723541259765625" lon="6.808353401720523834228515625">
        <ele>1910.4000244140625</ele>
        <time>2026-08-31T05:57:49.000Z</time>
        <extensions>
          <ns3:TrackPointExtension>
            <ns3:hr>149</ns3:hr>
            <ns3:cad>0</ns3:cad>
          </ns3:TrackPointExtension>
        </extensions>
      </trkpt>
      <trkpt lat="44.67510779388248920440673828125" lon="6.8083676509559154510498046875">
        <ele>1910.199951171875</ele>
        <time>2026-08-31T05:57:50.000Z</time>
        <extensions>
          <ns3:TrackPointExtension>
            <ns3:hr>149</ns3:hr>
            <ns3:cad>0</ns3:cad>
          </ns3:TrackPointExtension>
        </extensions>
      </trkpt>
      <trkpt lat="44.67510402202606201171875" lon="6.80838634259998798370361328125">
        <ele>1910.199951171875</ele>
        <time>2026-08-31T05:57:51.000Z</time>
        <extensions>
          <ns3:TrackPointExtension>
            <ns3:hr>148</ns3:hr>
            <ns3:cad>0</ns3:cad>
          </ns3:TrackPointExtension>
        </extensions>
      </trkpt>
      <trkpt lat="44.67509572394192218780517578125" lon="6.80840310640633106231689453125">
        <ele>1910.199951171875</ele>
        <time>2026-08-31T05:57:52.000Z</time>
        <extensions>
          <ns3:TrackPointExtension>
            <ns3:hr>148</ns3:hr>
            <ns3:cad>60</ns3:cad>
          </ns3:TrackPointExtension>
        </extensions>
      </trkpt>
      <trkpt lat="44.67509262263774871826171875" lon="6.8084233067929744720458984375">
        <ele>1910.199951171875</ele>
        <time>2026-08-31T05:57:53.000Z</time>
        <extensions>
          <ns3:TrackPointExtension>
            <ns3:hr>148</ns3:hr>
            <ns3:cad>60</ns3:cad>
          </ns3:TrackPointExtension>
        </extensions>
      </trkpt>
      <trkpt lat="44.67508792877197265625" lon="6.8084474466741085052490234375">
        <ele>1910.4000244140625</ele>
        <time>2026-08-31T05:57:54.000Z</time>
        <extensions>
          <ns3:TrackPointExtension>
            <ns3:hr>147</ns3:hr>
            <ns3:cad>60</ns3:cad>
          </ns3:TrackPointExtension>
        </extensions>
      </trkpt>
      <trkpt lat="44.67508315108716487884521484375" lon="6.808476112782955169677734375">
        <ele>1910.4000244140625</ele>
        <time>2026-08-31T05:57:55.000Z</time>
        <extensions>
          <ns3:TrackPointExtension>
            <ns3:hr>147</ns3:hr>
            <ns3:cad>60</ns3:cad>
          </ns3:TrackPointExtension>
        </extensions>
      </trkpt>
      <trkpt lat="44.675079882144927978515625" lon="6.80850435979664325714111328125">
        <ele>1910.199951171875</ele>
        <time>2026-08-31T05:57:56.000Z</time>
        <extensions>
          <ns3:TrackPointExtension>
            <ns3:hr>147</ns3:hr>
            <ns3:cad>60</ns3:cad>
          </ns3:TrackPointExtension>
        </extensions>
      </trkpt>
      <trkpt lat="44.6750770322978496551513671875" lon="6.808537803590297698974609375">
        <ele>1909.5999755859375</ele>
        <time>2026-08-31T05:57:57.000Z</time>
        <extensions>
          <ns3:TrackPointExtension>
            <ns3:hr>146</ns3:hr>
            <ns3:cad>68</ns3:cad>
          </ns3:TrackPointExtension>
        </extensions>
      </trkpt>
      <trkpt lat="44.6750766970217227935791015625" lon="6.808571331202983856201171875">
        <ele>1909.199951171875</ele>
        <time>2026-08-31T05:57:58.000Z</time>
        <extensions>
          <ns3:TrackPointExtension>
            <ns3:hr>146</ns3:hr>
            <ns3:cad>81</ns3:cad>
          </ns3:TrackPointExtension>
        </extensions>
      </trkpt>
      <trkpt lat="44.675078876316547393798828125" lon="6.80860561318695545196533203125">
        <ele>1908.800048828125</ele>
        <time>2026-08-31T05:57:59.000Z</time>
        <extensions>
          <ns3:TrackPointExtension>
            <ns3:hr>146</ns3:hr>
            <ns3:cad>81</ns3:cad>
          </ns3:TrackPointExtension>
        </extensions>
      </trkpt>
      <trkpt lat="44.67507795430719852447509765625" lon="6.80863729678094387054443359375">
        <ele>1908.4000244140625</ele>
        <time>2026-08-31T05:58:00.000Z</time>
        <extensions>
          <ns3:TrackPointExtension>
            <ns3:hr>145</ns3:hr>
            <ns3:cad>81</ns3:cad>
          </ns3:TrackPointExtension>
        </extensions>
      </trkpt>
      <trkpt lat="44.67507728375494480133056640625" lon="6.80866596288979053497314453125">
        <ele>1908.199951171875</ele>
        <time>2026-08-31T05:58:01.000Z</time>
        <extensions>
          <ns3:TrackPointExtension>
            <ns3:hr>145</ns3:hr>
            <ns3:cad>81</ns3:cad>
          </ns3:TrackPointExtension>
        </extensions>
      </trkpt>
      <trkpt lat="44.675079546868801116943359375" lon="6.80870502255856990814208984375">
        <ele>1908</ele>
        <time>2026-08-31T05:58:02.000Z</time>
        <extensions>
          <ns3:TrackPointExtension>
            <ns3:hr>145</ns3:hr>
            <ns3:cad>82</ns3:cad>
          </ns3:TrackPointExtension>
        </extensions>
      </trkpt>
      <trkpt lat="44.675079882144927978515625" lon="6.80874341167509555816650390625">
        <ele>1907.800048828125</ele>
        <time>2026-08-31T05:58:03.000Z</time>
        <extensions>
          <ns3:TrackPointExtension>
            <ns3:hr>144</ns3:hr>
            <ns3:cad>82</ns3:cad>
          </ns3:TrackPointExtension>
        </extensions>
      </trkpt>
      <trkpt lat="44.67508516274392604827880859375" lon="6.80877811275422573089599609375">
        <ele>1907.5999755859375</ele>
        <time>2026-08-31T05:58:04.000Z</time>
        <extensions>
          <ns3:TrackPointExtension>
            <ns3:hr>144</ns3:hr>
            <ns3:cad>82</ns3:cad>
          </ns3:TrackPointExtension>
        </extensions>
      </trkpt>
      <trkpt lat="44.67508834786713123321533203125" lon="6.80881641805171966552734375">
        <ele>1907.4000244140625</ele>
        <time>2026-08-31T05:58:05.000Z</time>
        <extensions>
          <ns3:TrackPointExtension>
            <ns3:hr>144</ns3:hr>
            <ns3:cad>82</ns3:cad>
          </ns3:TrackPointExtension>
        </extensions>
      </trkpt>
      <trkpt lat="44.67508516274392604827880859375" lon="6.80884449742734432220458984375">
        <ele>1907.199951171875</ele>
        <time>2026-08-31T05:58:06.000Z</time>
        <extensions>
          <ns3:TrackPointExtension>
            <ns3:hr>144</ns3:hr>
            <ns3:cad>82</ns3:cad>
          </ns3:TrackPointExtension>
        </extensions>
      </trkpt>
      <trkpt lat="44.675085246562957763671875" lon="6.80887266062200069427490234375">
        <ele>1907.199951171875</ele>
        <time>2026-08-31T05:58:07.000Z</time>
        <extensions>
          <ns3:TrackPointExtension>
            <ns3:hr>144</ns3:hr>
            <ns3:cad>82</ns3:cad>
          </ns3:TrackPointExtension>
        </extensions>
      </trkpt>
      <trkpt lat="44.67508516274392604827880859375" lon="6.808903925120830535888671875">
        <ele>1907</ele>
        <time>2026-08-31T05:58:08.000Z</time>
        <extensions>
          <ns3:TrackPointExtension>
            <ns3:hr>144</ns3:hr>
            <ns3:cad>82</ns3:cad>
          </ns3:TrackPointExtension>
        </extensions>
      </trkpt>
      <trkpt lat="44.6750800497829914093017578125" lon="6.808930747210979461669921875">
        <ele>1907</ele>
        <time>2026-08-31T05:58:09.000Z</time>
        <extensions>
          <ns3:TrackPointExtension>
            <ns3:hr>144</ns3:hr>
            <ns3:cad>82</ns3:cad>
          </ns3:TrackPointExtension>
        </extensions>
      </trkpt>
      <trkpt lat="44.67506982386112213134765625" lon="6.80896553210914134979248046875">
        <ele>1907.199951171875</ele>
        <time>2026-08-31T05:58:10.000Z</time>
        <extensions>
          <ns3:TrackPointExtension>
            <ns3:hr>144</ns3:hr>
            <ns3:cad>82</ns3:cad>
          </ns3:TrackPointExtension>
        </extensions>
      </trkpt>
      <trkpt lat="44.67506336979568004608154296875" lon="6.8089969642460346221923828125">
        <ele>1907.199951171875</ele>
        <time>2026-08-31T05:58:11.000Z</time>
        <extensions>
          <ns3:TrackPointExtension>
            <ns3:hr>143</ns3:hr>
            <ns3:cad>81</ns3:cad>
          </ns3:TrackPointExtension>
        </extensions>
      </trkpt>
      <trkpt lat="44.6750646270811557769775390625" lon="6.809018589556217193603515625">
        <ele>1907.199951171875</ele>
        <time>2026-08-31T05:58:12.000Z</time>
        <extensions>
          <ns3:TrackPointExtension>
            <ns3:hr>143</ns3:hr>
            <ns3:cad>81</ns3:cad>
          </ns3:TrackPointExtension>
        </extensions>
      </trkpt>
      <trkpt lat="44.67506135813891887664794921875" lon="6.80905186571180820465087890625">
        <ele>1907.4000244140625</ele>
        <time>2026-08-31T05:58:13.000Z</time>
        <extensions>
          <ns3:TrackPointExtension>
            <ns3:hr>143</ns3:hr>
            <ns3:cad>81</ns3:cad>
          </ns3:TrackPointExtension>
        </extensions>
      </trkpt>
      <trkpt lat="44.67505968175828456878662109375" lon="6.80908137001097202301025390625">
        <ele>1907.4000244140625</ele>
        <time>2026-08-31T05:58:14.000Z</time>
        <extensions>
          <ns3:TrackPointExtension>
            <ns3:hr>143</ns3:hr>
            <ns3:cad>81</ns3:cad>
          </ns3:TrackPointExtension>
        </extensions>
      </trkpt>
      <trkpt lat="44.6750599332153797149658203125" lon="6.80910467170178890228271484375">
        <ele>1907.5999755859375</ele>
        <time>2026-08-31T05:58:15.000Z</time>
        <extensions>
          <ns3:TrackPointExtension>
            <ns3:hr>142</ns3:hr>
            <ns3:cad>81</ns3:cad>
          </ns3:TrackPointExtension>
        </extensions>
      </trkpt>
      <trkpt lat="44.67505507171154022216796875" lon="6.8091322481632232666015625">
        <ele>1907.800048828125</ele>
        <time>2026-08-31T05:58:16.000Z</time>
        <extensions>
          <ns3:TrackPointExtension>
            <ns3:hr>142</ns3:hr>
            <ns3:cad>81</ns3:cad>
          </ns3:TrackPointExtension>
        </extensions>
      </trkpt>
      <trkpt lat="44.67505314387381076812744140625" lon="6.80916032753884792327880859375">
        <ele>1908</ele>
        <time>2026-08-31T05:58:17.000Z</time>
        <extensions>
          <ns3:TrackPointExtension>
            <ns3:hr>142</ns3:hr>
            <ns3:cad>80</ns3:cad>
          </ns3:TrackPointExtension>
        </extensions>
      </trkpt>
      <trkpt lat="44.6750555746257305145263671875" lon="6.8091830424964427947998046875">
        <ele>1908</ele>
        <time>2026-08-31T05:58:18.000Z</time>
        <extensions>
          <ns3:TrackPointExtension>
            <ns3:hr>142</ns3:hr>
            <ns3:cad>80</ns3:cad>
          </ns3:TrackPointExtension>
        </extensions>
      </trkpt>
      <trkpt lat="44.67505364678800106048583984375" lon="6.809215731918811798095703125">
        <ele>1908.199951171875</ele>
        <time>2026-08-31T05:58:19.000Z</time>
        <extensions>
          <ns3:TrackPointExtension>
            <ns3:hr>142</ns3:hr>
            <ns3:cad>80</ns3:cad>
          </ns3:TrackPointExtension>
        </extensions>
      </trkpt>
      <trkpt lat="44.6750528924167156219482421875" lon="6.8092443980276584625244140625">
        <ele>1908.199951171875</ele>
        <time>2026-08-31T05:58:20.000Z</time>
        <extensions>
          <ns3:TrackPointExtension>
            <ns3:hr>142</ns3:hr>
            <ns3:cad>79</ns3:cad>
          </ns3:TrackPointExtension>
        </extensions>
      </trkpt>
      <trkpt lat="44.67505431734025478363037109375" lon="6.80926811881363391876220703125">
        <ele>1908.199951171875</ele>
        <time>2026-08-31T05:58:21.000Z</time>
        <extensions>
          <ns3:TrackPointExtension>
            <ns3:hr>142</ns3:hr>
            <ns3:cad>79</ns3:cad>
          </ns3:TrackPointExtension>
        </extensions>
      </trkpt>
      <trkpt lat="44.67505364678800106048583984375" lon="6.8093039095401763916015625">
        <ele>1908.199951171875</ele>
        <time>2026-08-31T05:58:22.000Z</time>
        <extensions>
          <ns3:TrackPointExtension>
            <ns3:hr>142</ns3:hr>
            <ns3:cad>79</ns3:cad>
          </ns3:TrackPointExtension>
        </extensions>
      </trkpt>
      <trkpt lat="44.6750525571405887603759765625" lon="6.80933810770511627197265625">
        <ele>1908.199951171875</ele>
        <time>2026-08-31T05:58:23.000Z</time>
        <extensions>
          <ns3:TrackPointExtension>
            <ns3:hr>142</ns3:hr>
            <ns3:cad>79</ns3:cad>
          </ns3:TrackPointExtension>
        </extensions>
      </trkpt>
      <trkpt lat="44.67505297623574733734130859375" lon="6.8093634210526943206787109375">
        <ele>1908</ele>
        <time>2026-08-31T05:58:24.000Z</time>
        <extensions>
          <ns3:TrackPointExtension>
            <ns3:hr>142</ns3:hr>
            <ns3:cad>80</ns3:cad>
          </ns3:TrackPointExtension>
        </extensions>
      </trkpt>
      <trkpt lat="44.67504694126546382904052734375" lon="6.80938580073416233062744140625">
        <ele>1908</ele>
        <time>2026-08-31T05:58:25.000Z</time>
        <extensions>
          <ns3:TrackPointExtension>
            <ns3:hr>141</ns3:hr>
            <ns3:cad>80</ns3:cad>
          </ns3:TrackPointExtension>
        </extensions>
      </trkpt>
      <trkpt lat="44.6750461868941783905029296875" lon="6.80941522121429443359375">
        <ele>1908</ele>
        <time>2026-08-31T05:58:26.000Z</time>
        <extensions>
          <ns3:TrackPointExtension>
            <ns3:hr>142</ns3:hr>
            <ns3:cad>81</ns3:cad>
          </ns3:TrackPointExtension>
        </extensions>
      </trkpt>
      <trkpt lat="44.6750448457896709442138671875" lon="6.80944765917956829071044921875">
        <ele>1907.800048828125</ele>
        <time>2026-08-31T05:58:27.000Z</time>
        <extensions>
          <ns3:TrackPointExtension>
            <ns3:hr>142</ns3:hr>
            <ns3:cad>81</ns3:cad>
          </ns3:TrackPointExtension>
        </extensions>
      </trkpt>
      <trkpt lat="44.67504442669451236724853515625" lon="6.809475235641002655029296875">
        <ele>1907.800048828125</ele>
        <time>2026-08-31T05:58:28.000Z</time>
        <extensions>
          <ns3:TrackPointExtension>
            <ns3:hr>141</ns3:hr>
            <ns3:cad>80</ns3:cad>
          </ns3:TrackPointExtension>
        </extensions>
      </trkpt>
      <trkpt lat="44.6750478632748126983642578125" lon="6.80951203219592571258544921875">
        <ele>1907.5999755859375</ele>
        <time>2026-08-31T05:58:29.000Z</time>
        <extensions>
          <ns3:TrackPointExtension>
            <ns3:hr>141</ns3:hr>
            <ns3:cad>80</ns3:cad>
          </ns3:TrackPointExtension>
        </extensions>
      </trkpt>
      <trkpt lat="44.67504962347447872161865234375" lon="6.809548325836658477783203125">
        <ele>1907.199951171875</ele>
        <time>2026-08-31T05:58:30.000Z</time>
        <extensions>
          <ns3:TrackPointExtension>
            <ns3:hr>141</ns3:hr>
            <ns3:cad>80</ns3:cad>
          </ns3:TrackPointExtension>
        </extensions>
      </trkpt>
      <trkpt lat="44.675054736435413360595703125" lon="6.8095800094306468963623046875">
        <ele>1907</ele>
        <time>2026-08-31T05:58:31.000Z</time>
        <extensions>
          <ns3:TrackPointExtension>
            <ns3:hr>141</ns3:hr>
            <ns3:cad>80</ns3:cad>
          </ns3:TrackPointExtension>
        </extensions>
      </trkpt>
      <trkpt lat="44.67505750246345996856689453125" lon="6.8096229247748851776123046875">
        <ele>1906.800048828125</ele>
        <time>2026-08-31T05:58:32.000Z</time>
        <extensions>
          <ns3:TrackPointExtension>
            <ns3:hr>142</ns3:hr>
            <ns3:cad>80</ns3:cad>
          </ns3:TrackPointExtension>
        </extensions>
      </trkpt>
      <trkpt lat="44.67505431734025478363037109375" lon="6.8096587993204593658447265625">
        <ele>1906.5999755859375</ele>
        <time>2026-08-31T05:58:33.000Z</time>
        <extensions>
          <ns3:TrackPointExtension>
            <ns3:hr>142</ns3:hr>
            <ns3:cad>81</ns3:cad>
          </ns3:TrackPointExtension>
        </extensions>
      </trkpt>
      <trkpt lat="44.67506253160536289215087890625" lon="6.80969559587538242340087890625">
        <ele>1906.199951171875</ele>
        <time>2026-08-31T05:58:34.000Z</time>
        <extensions>
          <ns3:TrackPointExtension>
            <ns3:hr>142</ns3:hr>
            <ns3:cad>81</ns3:cad>
          </ns3:TrackPointExtension>
        </extensions>
      </trkpt>
      <trkpt lat="44.67507309280335903167724609375" lon="6.809732727706432342529296875">
        <ele>1906</ele>
        <time>2026-08-31T05:58:35.000Z</time>
        <extensions>
          <ns3:TrackPointExtension>
            <ns3:hr>143</ns3:hr>
            <ns3:cad>81</ns3:cad>
          </ns3:TrackPointExtension>
        </extensions>
      </trkpt>
      <trkpt lat="44.6750777028501033782958984375" lon="6.8097583763301372528076171875">
        <ele>1906</ele>
        <time>2026-08-31T05:58:36.000Z</time>
        <extensions>
          <ns3:TrackPointExtension>
            <ns3:hr>143</ns3:hr>
            <ns3:cad>82</ns3:cad>
          </ns3:TrackPointExtension>
        </extensions>
      </trkpt>
      <trkpt lat="44.675073511898517608642578125" lon="6.80979408323764801025390625">
        <ele>1905.800048828125</ele>
        <time>2026-08-31T05:58:37.000Z</time>
        <extensions>
          <ns3:TrackPointExtension>
            <ns3:hr>143</ns3:hr>
            <ns3:cad>82</ns3:cad>
          </ns3:TrackPointExtension>
        </extensions>
      </trkpt>
      <trkpt lat="44.6750758588314056396484375" lon="6.80983004160225391387939453125">
        <ele>1905.800048828125</ele>
        <time>2026-08-31T05:58:38.000Z</time>
        <extensions>
          <ns3:TrackPointExtension>
            <ns3:hr>144</ns3:hr>
            <ns3:cad>83</ns3:cad>
          </ns3:TrackPointExtension>
        </extensions>
      </trkpt>
      <trkpt lat="44.67507745139300823211669921875" lon="6.8098552711308002471923828125">
        <ele>1906</ele>
        <time>2026-08-31T05:58:39.000Z</time>
        <extensions>
          <ns3:TrackPointExtension>
            <ns3:hr>144</ns3:hr>
            <ns3:cad>83</ns3:cad>
          </ns3:TrackPointExtension>
        </extensions>
      </trkpt>
      <trkpt lat="44.6750696562230587005615234375" lon="6.8098904751241207122802734375">
        <ele>1906</ele>
        <time>2026-08-31T05:58:40.000Z</time>
        <extensions>
          <ns3:TrackPointExtension>
            <ns3:hr>144</ns3:hr>
            <ns3:cad>82</ns3:cad>
          </ns3:TrackPointExtension>
        </extensions>
      </trkpt>
      <trkpt lat="44.67506638728082180023193359375" lon="6.8099196441471576690673828125">
        <ele>1906</ele>
        <time>2026-08-31T05:58:41.000Z</time>
        <extensions>
          <ns3:TrackPointExtension>
            <ns3:hr>144</ns3:hr>
            <ns3:cad>82</ns3:cad>
          </ns3:TrackPointExtension>
        </extensions>
      </trkpt>
      <trkpt lat="44.67506580054759979248046875" lon="6.809945963323116302490234375">
        <ele>1906.199951171875</ele>
        <time>2026-08-31T05:58:42.000Z</time>
        <extensions>
          <ns3:TrackPointExtension>
            <ns3:hr>145</ns3:hr>
            <ns3:cad>81</ns3:cad>
          </ns3:TrackPointExtension>
        </extensions>
      </trkpt>
      <trkpt lat="44.67505951412022113800048828125" lon="6.80997303687036037445068359375">
        <ele>1906.199951171875</ele>
        <time>2026-08-31T05:58:43.000Z</time>
        <extensions>
          <ns3:TrackPointExtension>
            <ns3:hr>145</ns3:hr>
            <ns3:cad>81</ns3:cad>
          </ns3:TrackPointExtension>
        </extensions>
      </trkpt>
      <trkpt lat="44.67505901120603084564208984375" lon="6.809990219771862030029296875">
        <ele>1906.199951171875</ele>
        <time>2026-08-31T05:58:44.000Z</time>
        <extensions>
          <ns3:TrackPointExtension>
            <ns3:hr>145</ns3:hr>
            <ns3:cad>81</ns3:cad>
          </ns3:TrackPointExtension>
        </extensions>
      </trkpt>
      <trkpt lat="44.67505934648215770721435546875" lon="6.8100064806640148162841796875">
        <ele>1906.199951171875</ele>
        <time>2026-08-31T05:58:45.000Z</time>
        <extensions>
          <ns3:TrackPointExtension>
            <ns3:hr>144</ns3:hr>
            <ns3:cad>80</ns3:cad>
          </ns3:TrackPointExtension>
        </extensions>
      </trkpt>
      <trkpt lat="44.6750555746257305145263671875" lon="6.8100235797464847564697265625">
        <ele>1906.4000244140625</ele>
        <time>2026-08-31T05:58:46.000Z</time>
        <extensions>
          <ns3:TrackPointExtension>
            <ns3:hr>145</ns3:hr>
            <ns3:cad>80</ns3:cad>
          </ns3:TrackPointExtension>
        </extensions>
      </trkpt>
      <trkpt lat="44.67505213804543018341064453125" lon="6.81004059500992298126220703125">
        <ele>1906.4000244140625</ele>
        <time>2026-08-31T05:58:47.000Z</time>
        <extensions>
          <ns3:TrackPointExtension>
            <ns3:hr>145</ns3:hr>
            <ns3:cad>80</ns3:cad>
          </ns3:TrackPointExtension>
        </extensions>
      </trkpt>
      <trkpt lat="44.6750502102077007293701171875" lon="6.81005693972110748291015625">
        <ele>1906.4000244140625</ele>
        <time>2026-08-31T05:58:48.000Z</time>
        <extensions>
          <ns3:TrackPointExtension>
            <ns3:hr>145</ns3:hr>
            <ns3:cad>80</ns3:cad>
          </ns3:TrackPointExtension>
        </extensions>
      </trkpt>
      <trkpt lat="44.67504610307514667510986328125" lon="6.81007445789873600006103515625">
        <ele>1906.5999755859375</ele>
        <time>2026-08-31T05:58:49.000Z</time>
        <extensions>
          <ns3:TrackPointExtension>
            <ns3:hr>144</ns3:hr>
            <ns3:cad>80</ns3:cad>
          </ns3:TrackPointExtension>
        </extensions>
      </trkpt>
      <trkpt lat="44.67504224739968776702880859375" lon="6.8100966699421405792236328125">
        <ele>1906.5999755859375</ele>
        <time>2026-08-31T05:58:50.000Z</time>
        <extensions>
          <ns3:TrackPointExtension>
            <ns3:hr>145</ns3:hr>
            <ns3:cad>61</ns3:cad>
          </ns3:TrackPointExtension>
        </extensions>
      </trkpt>
      <trkpt lat="44.6750408224761486053466796875" lon="6.81011385284364223480224609375">
        <ele>1906.800048828125</ele>
        <time>2026-08-31T05:58:51.000Z</time>
        <extensions>
          <ns3:TrackPointExtension>
            <ns3:hr>145</ns3:hr>
            <ns3:cad>59</ns3:cad>
          </ns3:TrackPointExtension>
        </extensions>
      </trkpt>
      <trkpt lat="44.6750383079051971435546875" lon="6.8101322092115879058837890625">
        <ele>1906.800048828125</ele>
        <time>2026-08-31T05:58:52.000Z</time>
        <extensions>
          <ns3:TrackPointExtension>
            <ns3:hr>145</ns3:hr>
            <ns3:cad>59</ns3:cad>
          </ns3:TrackPointExtension>
        </extensions>
      </trkpt>
      <trkpt lat="44.67503738589584827423095703125" lon="6.81014453060925006866455078125">
        <ele>1907</ele>
        <time>2026-08-31T05:58:53.000Z</time>
        <extensions>
          <ns3:TrackPointExtension>
            <ns3:hr>144</ns3:hr>
            <ns3:cad>59</ns3:cad>
          </ns3:TrackPointExtension>
        </extensions>
      </trkpt>
      <trkpt lat="44.67503336258232593536376953125" lon="6.81016347371041774749755859375">
        <ele>1907.199951171875</ele>
        <time>2026-08-31T05:58:54.000Z</time>
        <extensions>
          <ns3:TrackPointExtension>
            <ns3:hr>144</ns3:hr>
            <ns3:cad>59</ns3:cad>
          </ns3:TrackPointExtension>
        </extensions>
      </trkpt>
      <trkpt lat="44.675029926002025604248046875" lon="6.810179315507411956787109375">
        <ele>1907.4000244140625</ele>
        <time>2026-08-31T05:58:55.000Z</time>
        <extensions>
          <ns3:TrackPointExtension>
            <ns3:hr>144</ns3:hr>
            <ns3:cad>59</ns3:cad>
          </ns3:TrackPointExtension>
        </extensions>
      </trkpt>
      <trkpt lat="44.67502732761204242706298828125" lon="6.81019582785665988922119140625">
        <ele>1907.4000244140625</ele>
        <time>2026-08-31T05:58:56.000Z</time>
        <extensions>
          <ns3:TrackPointExtension>
            <ns3:hr>143</ns3:hr>
            <ns3:cad>59</ns3:cad>
          </ns3:TrackPointExtension>
        </extensions>
      </trkpt>
      <trkpt lat="44.67502514831721782684326171875" lon="6.8102130107581615447998046875">
        <ele>1907.5999755859375</ele>
        <time>2026-08-31T05:58:57.000Z</time>
        <extensions>
          <ns3:TrackPointExtension>
            <ns3:hr>142</ns3:hr>
            <ns3:cad>59</ns3:cad>
          </ns3:TrackPointExtension>
        </extensions>
      </trkpt>
      <trkpt lat="44.675023220479488372802734375" lon="6.81022851727902889251708984375">
        <ele>1907.5999755859375</ele>
        <time>2026-08-31T05:58:58.000Z</time>
        <extensions>
          <ns3:TrackPointExtension>
            <ns3:hr>141</ns3:hr>
            <ns3:cad>59</ns3:cad>
          </ns3:TrackPointExtension>
        </extensions>
      </trkpt>
      <trkpt lat="44.67502112500369548797607421875" lon="6.81024259887635707855224609375">
        <ele>1907.5999755859375</ele>
        <time>2026-08-31T05:58:59.000Z</time>
        <extensions>
          <ns3:TrackPointExtension>
            <ns3:hr>141</ns3:hr>
            <ns3:cad>59</ns3:cad>
          </ns3:TrackPointExtension>
        </extensions>
      </trkpt>
      <trkpt lat="44.67502146027982234954833984375" lon="6.81025936268270015716552734375">
        <ele>1907.800048828125</ele>
        <time>2026-08-31T05:59:00.000Z</time>
        <extensions>
          <ns3:TrackPointExtension>
            <ns3:hr>140</ns3:hr>
            <ns3:cad>59</ns3:cad>
          </ns3:TrackPointExtension>
        </extensions>
      </trkpt>
      <trkpt lat="44.67501995153725147247314453125" lon="6.810274533927440643310546875">
        <ele>1907.800048828125</ele>
        <time>2026-08-31T05:59:01.000Z</time>
        <extensions>
          <ns3:TrackPointExtension>
            <ns3:hr>140</ns3:hr>
            <ns3:cad>59</ns3:cad>
          </ns3:TrackPointExtension>
        </extensions>
      </trkpt>
      <trkpt lat="44.6750195324420928955078125" lon="6.81029557250440120697021484375">
        <ele>1907.800048828125</ele>
        <time>2026-08-31T05:59:02.000Z</time>
        <extensions>
          <ns3:TrackPointExtension>
            <ns3:hr>140</ns3:hr>
            <ns3:cad>59</ns3:cad>
          </ns3:TrackPointExtension>
        </extensions>
      </trkpt>
      <trkpt lat="44.67502162791788578033447265625" lon="6.81030730716884136199951171875">
        <ele>1908</ele>
        <time>2026-08-31T05:59:03.000Z</time>
        <extensions>
          <ns3:TrackPointExtension>
            <ns3:hr>139</ns3:hr>
            <ns3:cad>59</ns3:cad>
          </ns3:TrackPointExtension>
        </extensions>
      </trkpt>
      <trkpt lat="44.67502263374626636505126953125" lon="6.8103258311748504638671875">
        <ele>1908.199951171875</ele>
        <time>2026-08-31T05:59:04.000Z</time>
        <extensions>
          <ns3:TrackPointExtension>
            <ns3:hr>139</ns3:hr>
            <ns3:cad>59</ns3:cad>
          </ns3:TrackPointExtension>
        </extensions>
      </trkpt>
      <trkpt lat="44.67502154409885406494140625" lon="6.8103424273431301116943359375">
        <ele>1908.4000244140625</ele>
        <time>2026-08-31T05:59:05.000Z</time>
        <extensions>
          <ns3:TrackPointExtension>
            <ns3:hr>139</ns3:hr>
            <ns3:cad>59</ns3:cad>
          </ns3:TrackPointExtension>
        </extensions>
      </trkpt>
      <trkpt lat="44.6750195324420928955078125" lon="6.81036782450973987579345703125">
        <ele>1908.5999755859375</ele>
        <time>2026-08-31T05:59:06.000Z</time>
        <extensions>
          <ns3:TrackPointExtension>
            <ns3:hr>139</ns3:hr>
            <ns3:cad>59</ns3:cad>
          </ns3:TrackPointExtension>
        </extensions>
      </trkpt>
      <trkpt lat="44.675015509128570556640625" lon="6.81037855334579944610595703125">
        <ele>1908.800048828125</ele>
        <time>2026-08-31T05:59:07.000Z</time>
        <extensions>
          <ns3:TrackPointExtension>
            <ns3:hr>139</ns3:hr>
            <ns3:cad>57</ns3:cad>
          </ns3:TrackPointExtension>
        </extensions>
      </trkpt>
      <trkpt lat="44.67501341365277767181396484375" lon="6.81039984337985515594482421875">
        <ele>1909</ele>
        <time>2026-08-31T05:59:08.000Z</time>
        <extensions>
          <ns3:TrackPointExtension>
            <ns3:hr>139</ns3:hr>
            <ns3:cad>57</ns3:cad>
          </ns3:TrackPointExtension>
        </extensions>
      </trkpt>
      <trkpt lat="44.6750114858150482177734375" lon="6.81042037904262542724609375">
        <ele>1909.199951171875</ele>
        <time>2026-08-31T05:59:09.000Z</time>
        <extensions>
          <ns3:TrackPointExtension>
            <ns3:hr>140</ns3:hr>
            <ns3:cad>57</ns3:cad>
          </ns3:TrackPointExtension>
        </extensions>
      </trkpt>
      <trkpt lat="44.6750089712440967559814453125" lon="6.81043538264930248260498046875">
        <ele>1909.4000244140625</ele>
        <time>2026-08-31T05:59:10.000Z</time>
        <extensions>
          <ns3:TrackPointExtension>
            <ns3:hr>140</ns3:hr>
            <ns3:cad>57</ns3:cad>
          </ns3:TrackPointExtension>
        </extensions>
      </trkpt>
      <trkpt lat="44.6750072948634624481201171875" lon="6.81044946424663066864013671875">
        <ele>1909.5999755859375</ele>
        <time>2026-08-31T05:59:11.000Z</time>
        <extensions>
          <ns3:TrackPointExtension>
            <ns3:hr>140</ns3:hr>
            <ns3:cad>57</ns3:cad>
          </ns3:TrackPointExtension>
        </extensions>
      </trkpt>
      <trkpt lat="44.6750046126544475555419921875" lon="6.81046522222459316253662109375">
        <ele>1909.800048828125</ele>
        <time>2026-08-31T05:59:12.000Z</time>
        <extensions>
          <ns3:TrackPointExtension>
            <ns3:hr>141</ns3:hr>
            <ns3:cad>57</ns3:cad>
          </ns3:TrackPointExtension>
        </extensions>
      </trkpt>
      <trkpt lat="44.6750059537589550018310546875" lon="6.8104788847267627716064453125">
        <ele>1910</ele>
        <time>2026-08-31T05:59:13.000Z</time>
        <extensions>
          <ns3:TrackPointExtension>
            <ns3:hr>141</ns3:hr>
            <ns3:cad>57</ns3:cad>
          </ns3:TrackPointExtension>
        </extensions>
      </trkpt>
      <trkpt lat="44.67500620521605014801025390625" lon="6.81049321778118610382080078125">
        <ele>1910.199951171875</ele>
        <time>2026-08-31T05:59:14.000Z</time>
        <extensions>
          <ns3:TrackPointExtension>
            <ns3:hr>141</ns3:hr>
            <ns3:cad>0</ns3:cad>
          </ns3:TrackPointExtension>
        </extensions>
      </trkpt>
      <trkpt lat="44.67500754632055759429931640625" lon="6.8105067126452922821044921875">
        <ele>1910.4000244140625</ele>
        <time>2026-08-31T05:59:15.000Z</time>
        <extensions>
          <ns3:TrackPointExtension>
            <ns3:hr>142</ns3:hr>
            <ns3:cad>0</ns3:cad>
          </ns3:TrackPointExtension>
        </extensions>
      </trkpt>
      <trkpt lat="44.67501215636730194091796875" lon="6.81051886640489101409912109375">
        <ele>1910.5999755859375</ele>
        <time>2026-08-31T05:59:16.000Z</time>
        <extensions>
          <ns3:TrackPointExtension>
            <ns3:hr>142</ns3:hr>
            <ns3:cad>0</ns3:cad>
          </ns3:TrackPointExtension>
        </extensions>
      </trkpt>
      <trkpt lat="44.6750166825950145721435546875" lon="6.8105321936309337615966796875">
        <ele>1910.800048828125</ele>
        <time>2026-08-31T05:59:17.000Z</time>
        <extensions>
          <ns3:TrackPointExtension>
            <ns3:hr>143</ns3:hr>
            <ns3:cad>0</ns3:cad>
          </ns3:TrackPointExtension>
        </extensions>
      </trkpt>
      <trkpt lat="44.67502095736563205718994140625" lon="6.81054552085697650909423828125">
        <ele>1911.199951171875</ele>
        <time>2026-08-31T05:59:18.000Z</time>
        <extensions>
          <ns3:TrackPointExtension>
            <ns3:hr>143</ns3:hr>
            <ns3:cad>0</ns3:cad>
          </ns3:TrackPointExtension>
        </extensions>
      </trkpt>
      <trkpt lat="44.675028584897518157958984375" lon="6.8105590157210826873779296875">
        <ele>1911.4000244140625</ele>
        <time>2026-08-31T05:59:19.000Z</time>
        <extensions>
          <ns3:TrackPointExtension>
            <ns3:hr>143</ns3:hr>
            <ns3:cad>0</ns3:cad>
          </ns3:TrackPointExtension>
        </extensions>
      </trkpt>
      <trkpt lat="44.675033278763294219970703125" lon="6.810569576919078826904296875">
        <ele>1911.5999755859375</ele>
        <time>2026-08-31T05:59:20.000Z</time>
        <extensions>
          <ns3:TrackPointExtension>
            <ns3:hr>144</ns3:hr>
            <ns3:cad>0</ns3:cad>
          </ns3:TrackPointExtension>
        </extensions>
      </trkpt>
      <trkpt lat="44.6750401519238948822021484375" lon="6.810583658516407012939453125">
        <ele>1911.5999755859375</ele>
        <time>2026-08-31T05:59:21.000Z</time>
        <extensions>
          <ns3:TrackPointExtension>
            <ns3:hr>144</ns3:hr>
            <ns3:cad>0</ns3:cad>
          </ns3:TrackPointExtension>
        </extensions>
      </trkpt>
      <trkpt lat="44.6750461868941783905029296875" lon="6.81060218252241611480712890625">
        <ele>1911.800048828125</ele>
        <time>2026-08-31T05:59:22.000Z</time>
        <extensions>
          <ns3:TrackPointExtension>
            <ns3:hr>144</ns3:hr>
            <ns3:cad>0</ns3:cad>
          </ns3:TrackPointExtension>
        </extensions>
      </trkpt>
      <trkpt lat="44.6750468574464321136474609375" lon="6.81061944924294948577880859375">
        <ele>1912</ele>
        <time>2026-08-31T05:59:23.000Z</time>
        <extensions>
          <ns3:TrackPointExtension>
            <ns3:hr>144</ns3:hr>
            <ns3:cad>0</ns3:cad>
          </ns3:TrackPointExtension>
        </extensions>
      </trkpt>
      <trkpt lat="44.675037302076816558837890625" lon="6.810632608830928802490234375">
        <ele>1912</ele>
        <time>2026-08-31T05:59:24.000Z</time>
        <extensions>
          <ns3:TrackPointExtension>
            <ns3:hr>144</ns3:hr>
            <ns3:cad>0</ns3:cad>
          </ns3:TrackPointExtension>
        </extensions>
      </trkpt>
      <trkpt lat="44.675033278763294219970703125" lon="6.81064325384795665740966796875">
        <ele>1912</ele>
        <time>2026-08-31T05:59:25.000Z</time>
        <extensions>
          <ns3:TrackPointExtension>
            <ns3:hr>143</ns3:hr>
            <ns3:cad>0</ns3:cad>
          </ns3:TrackPointExtension>
        </extensions>
      </trkpt>
      <trkpt lat="44.67502648942172527313232421875" lon="6.8106592632830142974853515625">
        <ele>1912</ele>
        <time>2026-08-31T05:59:26.000Z</time>
        <extensions>
          <ns3:TrackPointExtension>
            <ns3:hr>144</ns3:hr>
            <ns3:cad>0</ns3:cad>
          </ns3:TrackPointExtension>
        </extensions>
      </trkpt>
      <trkpt lat="44.675018526613712310791015625" lon="6.810672841966152191162109375">
        <ele>1912</ele>
        <time>2026-08-31T05:59:27.000Z</time>
        <extensions>
          <ns3:TrackPointExtension>
            <ns3:hr>145</ns3:hr>
            <ns3:cad>0</ns3:cad>
          </ns3:TrackPointExtension>
        </extensions>
      </trkpt>
      <trkpt lat="44.67501224018633365631103515625" lon="6.81067761965095996856689453125">
        <ele>1912</ele>
        <time>2026-08-31T05:59:28.000Z</time>
        <extensions>
          <ns3:TrackPointExtension>
            <ns3:hr>146</ns3:hr>
            <ns3:cad>0</ns3:cad>
          </ns3:TrackPointExtension>
        </extensions>
      </trkpt>
      <trkpt lat="44.6750005893409252166748046875" lon="6.8106825649738311767578125">
        <ele>1912.199951171875</ele>
        <time>2026-08-31T05:59:29.000Z</time>
        <extensions>
          <ns3:TrackPointExtension>
            <ns3:hr>149</ns3:hr>
            <ns3:cad>0</ns3:cad>
          </ns3:TrackPointExtension>
        </extensions>
      </trkpt>
      <trkpt lat="44.67498508282005786895751953125" lon="6.81068147532641887664794921875">
        <ele>1912.4000244140625</ele>
        <time>2026-08-31T05:59:30.000Z</time>
        <extensions>
          <ns3:TrackPointExtension>
            <ns3:hr>150</ns3:hr>
            <ns3:cad>0</ns3:cad>
          </ns3:TrackPointExtension>
        </extensions>
      </trkpt>
      <trkpt lat="44.67497183941304683685302734375" lon="6.810685582458972930908203125">
        <ele>1912.5999755859375</ele>
        <time>2026-08-31T05:59:31.000Z</time>
        <extensions>
          <ns3:TrackPointExtension>
            <ns3:hr>150</ns3:hr>
            <ns3:cad>0</ns3:cad>
          </ns3:TrackPointExtension>
        </extensions>
      </trkpt>
      <trkpt lat="44.674964211881160736083984375" lon="6.8106837384402751922607421875">
        <ele>1912.800048828125</ele>
        <time>2026-08-31T05:59:32.000Z</time>
        <extensions>
          <ns3:TrackPointExtension>
            <ns3:hr>150</ns3:hr>
            <ns3:cad>0</ns3:cad>
          </ns3:TrackPointExtension>
        </extensions>
      </trkpt>
      <trkpt lat="44.67494904063642024993896484375" lon="6.8106837384402751922607421875">
        <ele>1913</ele>
        <time>2026-08-31T05:59:33.000Z</time>
        <extensions>
          <ns3:TrackPointExtension>
            <ns3:hr>150</ns3:hr>
            <ns3:cad>0</ns3:cad>
          </ns3:TrackPointExtension>
        </extensions>
      </trkpt>
      <trkpt lat="44.67493646778166294097900390625" lon="6.810683906078338623046875">
        <ele>1913</ele>
        <time>2026-08-31T05:59:34.000Z</time>
        <extensions>
          <ns3:TrackPointExtension>
            <ns3:hr>151</ns3:hr>
            <ns3:cad>0</ns3:cad>
          </ns3:TrackPointExtension>
        </extensions>
      </trkpt>
      <trkpt lat="44.6749211288988590240478515625" lon="6.8106860853731632232666015625">
        <ele>1913.199951171875</ele>
        <time>2026-08-31T05:59:35.000Z</time>
        <extensions>
          <ns3:TrackPointExtension>
            <ns3:hr>151</ns3:hr>
            <ns3:cad>0</ns3:cad>
          </ns3:TrackPointExtension>
        </extensions>
      </trkpt>
      <trkpt lat="44.67490796931087970733642578125" lon="6.81068885140120983123779296875">
        <ele>1913.199951171875</ele>
        <time>2026-08-31T05:59:36.000Z</time>
        <extensions>
          <ns3:TrackPointExtension>
            <ns3:hr>151</ns3:hr>
            <ns3:cad>0</ns3:cad>
          </ns3:TrackPointExtension>
        </extensions>
      </trkpt>
      <trkpt lat="44.67489690519869327545166015625" lon="6.8107001669704914093017578125">
        <ele>1913.4000244140625</ele>
        <time>2026-08-31T05:59:37.000Z</time>
        <extensions>
          <ns3:TrackPointExtension>
            <ns3:hr>151</ns3:hr>
            <ns3:cad>0</ns3:cad>
          </ns3:TrackPointExtension>
        </extensions>
      </trkpt>
      <trkpt lat="44.6748859249055385589599609375" lon="6.81070863269269466400146484375">
        <ele>1913.4000244140625</ele>
        <time>2026-08-31T05:59:38.000Z</time>
        <extensions>
          <ns3:TrackPointExtension>
            <ns3:hr>151</ns3:hr>
            <ns3:cad>0</ns3:cad>
          </ns3:TrackPointExtension>
        </extensions>
      </trkpt>
      <trkpt lat="44.674873687326908111572265625" lon="6.81072472594678401947021484375">
        <ele>1913.4000244140625</ele>
        <time>2026-08-31T05:59:39.000Z</time>
        <extensions>
          <ns3:TrackPointExtension>
            <ns3:hr>151</ns3:hr>
            <ns3:cad>0</ns3:cad>
          </ns3:TrackPointExtension>
        </extensions>
      </trkpt>
      <trkpt lat="44.67486823908984661102294921875" lon="6.81073143146932125091552734375">
        <ele>1913.5999755859375</ele>
        <time>2026-08-31T05:59:40.000Z</time>
        <extensions>
          <ns3:TrackPointExtension>
            <ns3:hr>151</ns3:hr>
            <ns3:cad>0</ns3:cad>
          </ns3:TrackPointExtension>
        </extensions>
      </trkpt>
      <trkpt lat="44.6748604439198970794677734375" lon="6.810748614370822906494140625">
        <ele>1913.5999755859375</ele>
        <time>2026-08-31T05:59:41.000Z</time>
        <extensions>
          <ns3:TrackPointExtension>
            <ns3:hr>152</ns3:hr>
            <ns3:cad>0</ns3:cad>
          </ns3:TrackPointExtension>
        </extensions>
      </trkpt>
      <trkpt lat="44.6748559176921844482421875" lon="6.8107601813971996307373046875">
        <ele>1913.800048828125</ele>
        <time>2026-08-31T05:59:42.000Z</time>
        <extensions>
          <ns3:TrackPointExtension>
            <ns3:hr>152</ns3:hr>
            <ns3:cad>0</ns3:cad>
          </ns3:TrackPointExtension>
        </extensions>
      </trkpt>
      <trkpt lat="44.67484259046614170074462890625" lon="6.81078406982123851776123046875">
        <ele>1914</ele>
        <time>2026-08-31T05:59:43.000Z</time>
        <extensions>
          <ns3:TrackPointExtension>
            <ns3:hr>152</ns3:hr>
            <ns3:cad>0</ns3:cad>
          </ns3:TrackPointExtension>
        </extensions>
      </trkpt>
      <trkpt lat="44.67483957298099994659423828125" lon="6.81079613976180553436279296875">
        <ele>1914</ele>
        <time>2026-08-31T05:59:44.000Z</time>
        <extensions>
          <ns3:TrackPointExtension>
            <ns3:hr>152</ns3:hr>
            <ns3:cad>0</ns3:cad>
          </ns3:TrackPointExtension>
        </extensions>
      </trkpt>
      <trkpt lat="44.67482750304043292999267578125" lon="6.81080284528434276580810546875">
        <ele>1914.199951171875</ele>
        <time>2026-08-31T05:59:45.000Z</time>
        <extensions>
          <ns3:TrackPointExtension>
            <ns3:hr>152</ns3:hr>
            <ns3:cad>0</ns3:cad>
          </ns3:TrackPointExtension>
        </extensions>
      </trkpt>
      <trkpt lat="44.67482415027916431427001953125" lon="6.81081826798617839813232421875">
        <ele>1914.4000244140625</ele>
        <time>2026-08-31T05:59:46.000Z</time>
        <extensions>
          <ns3:TrackPointExtension>
            <ns3:hr>152</ns3:hr>
            <ns3:cad>0</ns3:cad>
          </ns3:TrackPointExtension>
        </extensions>
      </trkpt>
      <trkpt lat="44.67481828294694423675537109375" lon="6.81082329712808132171630859375">
        <ele>1914.5999755859375</ele>
        <time>2026-08-31T05:59:47.000Z</time>
        <extensions>
          <ns3:TrackPointExtension>
            <ns3:hr>152</ns3:hr>
            <ns3:cad>0</ns3:cad>
          </ns3:TrackPointExtension>
        </extensions>
      </trkpt>
      <trkpt lat="44.67481073923408985137939453125" lon="6.81083905510604381561279296875">
        <ele>1914.800048828125</ele>
        <time>2026-08-31T05:59:48.000Z</time>
        <extensions>
          <ns3:TrackPointExtension>
            <ns3:hr>152</ns3:hr>
            <ns3:cad>0</ns3:cad>
          </ns3:TrackPointExtension>
        </extensions>
      </trkpt>
      <trkpt lat="44.6748047880828380584716796875" lon="6.81084777228534221649169921875">
        <ele>1915</ele>
        <time>2026-08-31T05:59:49.000Z</time>
        <extensions>
          <ns3:TrackPointExtension>
            <ns3:hr>151</ns3:hr>
            <ns3:cad>0</ns3:cad>
          </ns3:TrackPointExtension>
        </extensions>
      </trkpt>
      <trkpt lat="44.674798585474491119384765625" lon="6.81086721830070018768310546875">
        <ele>1915</ele>
        <time>2026-08-31T05:59:50.000Z</time>
        <extensions>
          <ns3:TrackPointExtension>
            <ns3:hr>151</ns3:hr>
            <ns3:cad>0</ns3:cad>
          </ns3:TrackPointExtension>
        </extensions>
      </trkpt>
      <trkpt lat="44.67479581944644451141357421875" lon="6.8108761869370937347412109375">
        <ele>1915.199951171875</ele>
        <time>2026-08-31T05:59:51.000Z</time>
        <extensions>
          <ns3:TrackPointExtension>
            <ns3:hr>151</ns3:hr>
            <ns3:cad>0</ns3:cad>
          </ns3:TrackPointExtension>
        </extensions>
      </trkpt>
      <trkpt lat="44.67479095794260501861572265625" lon="6.81089638732373714447021484375">
        <ele>1915.4000244140625</ele>
        <time>2026-08-31T05:59:52.000Z</time>
        <extensions>
          <ns3:TrackPointExtension>
            <ns3:hr>151</ns3:hr>
            <ns3:cad>0</ns3:cad>
          </ns3:TrackPointExtension>
        </extensions>
      </trkpt>
      <trkpt lat="44.6747873537242412567138671875" lon="6.81091650389134883880615234375">
        <ele>1915.4000244140625</ele>
        <time>2026-08-31T05:59:53.000Z</time>
        <extensions>
          <ns3:TrackPointExtension>
            <ns3:hr>152</ns3:hr>
            <ns3:cad>0</ns3:cad>
          </ns3:TrackPointExtension>
        </extensions>
      </trkpt>
      <trkpt lat="44.67478291131556034088134765625" lon="6.81093536317348480224609375">
        <ele>1915.5999755859375</ele>
        <time>2026-08-31T05:59:54.000Z</time>
        <extensions>
          <ns3:TrackPointExtension>
            <ns3:hr>152</ns3:hr>
            <ns3:cad>0</ns3:cad>
          </ns3:TrackPointExtension>
        </extensions>
      </trkpt>
      <trkpt lat="44.674779139459133148193359375" lon="6.81094885803759098052978515625">
        <ele>1915.5999755859375</ele>
        <time>2026-08-31T05:59:55.000Z</time>
        <extensions>
          <ns3:TrackPointExtension>
            <ns3:hr>152</ns3:hr>
            <ns3:cad>0</ns3:cad>
          </ns3:TrackPointExtension>
        </extensions>
      </trkpt>
      <trkpt lat="44.6747746132314205169677734375" lon="6.81096486747264862060546875">
        <ele>1915.5999755859375</ele>
        <time>2026-08-31T05:59:56.000Z</time>
        <extensions>
          <ns3:TrackPointExtension>
            <ns3:hr>153</ns3:hr>
            <ns3:cad>0</ns3:cad>
          </ns3:TrackPointExtension>
        </extensions>
      </trkpt>
      <trkpt lat="44.6747736074030399322509765625" lon="6.81097936816513538360595703125">
        <ele>1915.5999755859375</ele>
        <time>2026-08-31T05:59:57.000Z</time>
        <extensions>
          <ns3:TrackPointExtension>
            <ns3:hr>153</ns3:hr>
            <ns3:cad>0</ns3:cad>
          </ns3:TrackPointExtension>
        </extensions>
      </trkpt>
      <trkpt lat="44.67477033846080303192138671875" lon="6.81099831126630306243896484375">
        <ele>1915.800048828125</ele>
        <time>2026-08-31T05:59:58.000Z</time>
        <extensions>
          <ns3:TrackPointExtension>
            <ns3:hr>153</ns3:hr>
            <ns3:cad>0</ns3:cad>
          </ns3:TrackPointExtension>
        </extensions>
      </trkpt>
      <trkpt lat="44.67476698569953441619873046875" lon="6.81101457215845584869384765625">
        <ele>1915.800048828125</ele>
        <time>2026-08-31T05:59:59.000Z</time>
        <extensions>
          <ns3:TrackPointExtension>
            <ns3:hr>154</ns3:hr>
            <ns3:cad>0</ns3:cad>
          </ns3:TrackPointExtension>
        </extensions>
      </trkpt>
      <trkpt lat="44.67476631514728069305419921875" lon="6.811036951839923858642578125">
        <ele>1915.800048828125</ele>
        <time>2026-08-31T06:00:00.000Z</time>
        <extensions>
          <ns3:TrackPointExtension>
            <ns3:hr>154</ns3:hr>
            <ns3:cad>0</ns3:cad>
          </ns3:TrackPointExtension>
        </extensions>
      </trkpt>
      <trkpt lat="44.674763381481170654296875" lon="6.81104935705661773681640625">
        <ele>1915.800048828125</ele>
        <time>2026-08-31T06:00:01.000Z</time>
        <extensions>
          <ns3:TrackPointExtension>
            <ns3:hr>154</ns3:hr>
            <ns3:cad>0</ns3:cad>
          </ns3:TrackPointExtension>
        </extensions>
      </trkpt>
      <trkpt lat="44.67476313002407550811767578125" lon="6.81107140146195888519287109375">
        <ele>1915.800048828125</ele>
        <time>2026-08-31T06:00:02.000Z</time>
        <extensions>
          <ns3:TrackPointExtension>
            <ns3:hr>154</ns3:hr>
            <ns3:cad>0</ns3:cad>
          </ns3:TrackPointExtension>
        </extensions>
      </trkpt>
      <trkpt lat="44.67476178891956806182861328125" lon="6.81108824908733367919921875">
        <ele>1916</ele>
        <time>2026-08-31T06:00:03.000Z</time>
        <extensions>
          <ns3:TrackPointExtension>
            <ns3:hr>154</ns3:hr>
            <ns3:cad>0</ns3:cad>
          </ns3:TrackPointExtension>
        </extensions>
      </trkpt>
      <trkpt lat="44.67475608922541141510009765625" lon="6.81110878475010395050048828125">
        <ele>1916</ele>
        <time>2026-08-31T06:00:04.000Z</time>
        <extensions>
          <ns3:TrackPointExtension>
            <ns3:hr>153</ns3:hr>
            <ns3:cad>0</ns3:cad>
          </ns3:TrackPointExtension>
        </extensions>
      </trkpt>
      <trkpt lat="44.674753658473491668701171875" lon="6.81112336926162242889404296875">
        <ele>1916.199951171875</ele>
        <time>2026-08-31T06:00:05.000Z</time>
        <extensions>
          <ns3:TrackPointExtension>
            <ns3:hr>153</ns3:hr>
            <ns3:cad>0</ns3:cad>
          </ns3:TrackPointExtension>
        </extensions>
      </trkpt>
      <trkpt lat="44.67475055716931819915771484375" lon="6.8111464194953441619873046875">
        <ele>1916.4000244140625</ele>
        <time>2026-08-31T06:00:06.000Z</time>
        <extensions>
          <ns3:TrackPointExtension>
            <ns3:hr>153</ns3:hr>
            <ns3:cad>0</ns3:cad>
          </ns3:TrackPointExtension>
        </extensions>
      </trkpt>
      <trkpt lat="44.674748294055461883544921875" lon="6.81115840561687946319580078125">
        <ele>1916.4000244140625</ele>
        <time>2026-08-31T06:00:07.000Z</time>
        <extensions>
          <ns3:TrackPointExtension>
            <ns3:hr>153</ns3:hr>
            <ns3:cad>0</ns3:cad>
          </ns3:TrackPointExtension>
        </extensions>
      </trkpt>
      <trkpt lat="44.67474603094160556793212890625" lon="6.81117868982255458831787109375">
        <ele>1916.4000244140625</ele>
        <time>2026-08-31T06:00:08.000Z</time>
        <extensions>
          <ns3:TrackPointExtension>
            <ns3:hr>153</ns3:hr>
            <ns3:cad>0</ns3:cad>
          </ns3:TrackPointExtension>
        </extensions>
      </trkpt>
      <trkpt lat="44.67474603094160556793212890625" lon="6.81119411252439022064208984375">
        <ele>1916.5999755859375</ele>
        <time>2026-08-31T06:00:09.000Z</time>
        <extensions>
          <ns3:TrackPointExtension>
            <ns3:hr>153</ns3:hr>
            <ns3:cad>0</ns3:cad>
          </ns3:TrackPointExtension>
        </extensions>
      </trkpt>
      <trkpt lat="44.674746952950954437255859375" lon="6.81121791712939739227294921875">
        <ele>1916.5999755859375</ele>
        <time>2026-08-31T06:00:10.000Z</time>
        <extensions>
          <ns3:TrackPointExtension>
            <ns3:hr>153</ns3:hr>
            <ns3:cad>0</ns3:cad>
          </ns3:TrackPointExtension>
        </extensions>
      </trkpt>
      <trkpt lat="44.6747464500367641448974609375" lon="6.81123183108866214752197265625">
        <ele>1916.5999755859375</ele>
        <time>2026-08-31T06:00:11.000Z</time>
        <extensions>
          <ns3:TrackPointExtension>
            <ns3:hr>152</ns3:hr>
            <ns3:cad>0</ns3:cad>
          </ns3:TrackPointExtension>
        </extensions>
      </trkpt>
      <trkpt lat="44.67474536038935184478759765625" lon="6.81125580333173274993896484375">
        <ele>1916.800048828125</ele>
        <time>2026-08-31T06:00:12.000Z</time>
        <extensions>
          <ns3:TrackPointExtension>
            <ns3:hr>153</ns3:hr>
            <ns3:cad>0</ns3:cad>
          </ns3:TrackPointExtension>
        </extensions>
      </trkpt>
      <trkpt lat="44.67474100179970264434814453125" lon="6.8112684600055217742919921875">
        <ele>1917</ele>
        <time>2026-08-31T06:00:13.000Z</time>
        <extensions>
          <ns3:TrackPointExtension>
            <ns3:hr>152</ns3:hr>
            <ns3:cad>0</ns3:cad>
          </ns3:TrackPointExtension>
        </extensions>
      </trkpt>
      <trkpt lat="44.67473681084811687469482421875" lon="6.81128748692572116851806640625">
        <ele>1917</ele>
        <time>2026-08-31T06:00:14.000Z</time>
        <extensions>
          <ns3:TrackPointExtension>
            <ns3:hr>153</ns3:hr>
            <ns3:cad>0</ns3:cad>
          </ns3:TrackPointExtension>
        </extensions>
      </trkpt>
      <trkpt lat="44.67473463155329227447509765625" lon="6.81130358017981052398681640625">
        <ele>1917</ele>
        <time>2026-08-31T06:00:15.000Z</time>
        <extensions>
          <ns3:TrackPointExtension>
            <ns3:hr>152</ns3:hr>
            <ns3:cad>0</ns3:cad>
          </ns3:TrackPointExtension>
        </extensions>
      </trkpt>
      <trkpt lat="44.67472926713526248931884765625" lon="6.8113231100142002105712890625">
        <ele>1917.199951171875</ele>
        <time>2026-08-31T06:00:16.000Z</time>
        <extensions>
          <ns3:TrackPointExtension>
            <ns3:hr>152</ns3:hr>
            <ns3:cad>0</ns3:cad>
          </ns3:TrackPointExtension>
        </extensions>
      </trkpt>
      <trkpt lat="44.67472876422107219696044921875" lon="6.81133861653506755828857421875">
        <ele>1917.199951171875</ele>
        <time>2026-08-31T06:00:17.000Z</time>
        <extensions>
          <ns3:TrackPointExtension>
            <ns3:hr>152</ns3:hr>
            <ns3:cad>0</ns3:cad>
          </ns3:TrackPointExtension>
        </extensions>
      </trkpt>
      <trkpt lat="44.67472071759402751922607421875" lon="6.811357475817203521728515625">
        <ele>1917.4000244140625</ele>
        <time>2026-08-31T06:00:18.000Z</time>
        <extensions>
          <ns3:TrackPointExtension>
            <ns3:hr>152</ns3:hr>
            <ns3:cad>0</ns3:cad>
          </ns3:TrackPointExtension>
        </extensions>
      </trkpt>
      <trkpt lat="44.6747172810137271881103515625" lon="6.8113734014332294464111328125">
        <ele>1917.5999755859375</ele>
        <time>2026-08-31T06:00:19.000Z</time>
        <extensions>
          <ns3:TrackPointExtension>
            <ns3:hr>152</ns3:hr>
            <ns3:cad>0</ns3:cad>
          </ns3:TrackPointExtension>
        </extensions>
      </trkpt>
      <trkpt lat="44.674708731472492218017578125" lon="6.811389662325382232666015625">
        <ele>1917.5999755859375</ele>
        <time>2026-08-31T06:00:20.000Z</time>
        <extensions>
          <ns3:TrackPointExtension>
            <ns3:hr>151</ns3:hr>
            <ns3:cad>0</ns3:cad>
          </ns3:TrackPointExtension>
        </extensions>
      </trkpt>
      <trkpt lat="44.6747055463492870330810546875" lon="6.81140064261853694915771484375">
        <ele>1917.800048828125</ele>
        <time>2026-08-31T06:00:21.000Z</time>
        <extensions>
          <ns3:TrackPointExtension>
            <ns3:hr>152</ns3:hr>
            <ns3:cad>0</ns3:cad>
          </ns3:TrackPointExtension>
        </extensions>
      </trkpt>
      <trkpt lat="44.6746978349983692169189453125" lon="6.81141950190067291259765625">
        <ele>1918</ele>
        <time>2026-08-31T06:00:22.000Z</time>
        <extensions>
          <ns3:TrackPointExtension>
            <ns3:hr>151</ns3:hr>
            <ns3:cad>0</ns3:cad>
          </ns3:TrackPointExtension>
        </extensions>
      </trkpt>
      <trkpt lat="44.6746928058564662933349609375" lon="6.81143182329833507537841796875">
        <ele>1918.199951171875</ele>
        <time>2026-08-31T06:00:23.000Z</time>
        <extensions>
          <ns3:TrackPointExtension>
            <ns3:hr>151</ns3:hr>
            <ns3:cad>0</ns3:cad>
          </ns3:TrackPointExtension>
        </extensions>
      </trkpt>
      <trkpt lat="44.674682915210723876953125" lon="6.81145948357880115509033203125">
        <ele>1918.4000244140625</ele>
        <time>2026-08-31T06:00:24.000Z</time>
        <extensions>
          <ns3:TrackPointExtension>
            <ns3:hr>151</ns3:hr>
            <ns3:cad>0</ns3:cad>
          </ns3:TrackPointExtension>
        </extensions>
      </trkpt>
      <trkpt lat="44.67467763461172580718994140625" lon="6.81147339753806591033935546875">
        <ele>1918.5999755859375</ele>
        <time>2026-08-31T06:00:25.000Z</time>
        <extensions>
          <ns3:TrackPointExtension>
            <ns3:hr>151</ns3:hr>
            <ns3:cad>0</ns3:cad>
          </ns3:TrackPointExtension>
        </extensions>
      </trkpt>
      <trkpt lat="44.674667157232761383056640625" lon="6.8114830367267131805419921875">
        <ele>1918.800048828125</ele>
        <time>2026-08-31T06:00:26.000Z</time>
        <extensions>
          <ns3:TrackPointExtension>
            <ns3:hr>150</ns3:hr>
            <ns3:cad>0</ns3:cad>
          </ns3:TrackPointExtension>
        </extensions>
      </trkpt>
      <trkpt lat="44.67465877532958984375" lon="6.81149720214307308197021484375">
        <ele>1919</ele>
        <time>2026-08-31T06:00:27.000Z</time>
        <extensions>
          <ns3:TrackPointExtension>
            <ns3:hr>151</ns3:hr>
            <ns3:cad>0</ns3:cad>
          </ns3:TrackPointExtension>
        </extensions>
      </trkpt>
      <trkpt lat="44.67465081252157688140869140625" lon="6.8115061707794666290283203125">
        <ele>1919.4000244140625</ele>
        <time>2026-08-31T06:00:28.000Z</time>
        <extensions>
          <ns3:TrackPointExtension>
            <ns3:hr>150</ns3:hr>
            <ns3:cad>0</ns3:cad>
          </ns3:TrackPointExtension>
        </extensions>
      </trkpt>
      <trkpt lat="44.67463773675262928009033203125" lon="6.811523102223873138427734375">
        <ele>1919.5999755859375</ele>
        <time>2026-08-31T06:00:29.000Z</time>
        <extensions>
          <ns3:TrackPointExtension>
            <ns3:hr>150</ns3:hr>
            <ns3:cad>0</ns3:cad>
          </ns3:TrackPointExtension>
        </extensions>
      </trkpt>
      <trkpt lat="44.67464058659970760345458984375" lon="6.8115293048322200775146484375">
        <ele>1919.800048828125</ele>
        <time>2026-08-31T06:00:30.000Z</time>
        <extensions>
          <ns3:TrackPointExtension>
            <ns3:hr>150</ns3:hr>
            <ns3:cad>0</ns3:cad>
          </ns3:TrackPointExtension>
        </extensions>
      </trkpt>
      <trkpt lat="44.67464025132358074188232421875" lon="6.8115293048322200775146484375">
        <ele>1920</ele>
        <time>2026-08-31T06:00:31.000Z</time>
        <extensions>
          <ns3:TrackPointExtension>
            <ns3:hr>150</ns3:hr>
            <ns3:cad>0</ns3:cad>
          </ns3:TrackPointExtension>
        </extensions>
      </trkpt>
      <trkpt lat="44.67463673092424869537353515625" lon="6.811535172164440155029296875">
        <ele>1920.199951171875</ele>
        <time>2026-08-31T06:00:32.000Z</time>
        <extensions>
          <ns3:TrackPointExtension>
            <ns3:hr>149</ns3:hr>
            <ns3:cad>0</ns3:cad>
          </ns3:TrackPointExtension>
        </extensions>
      </trkpt>
      <trkpt lat="44.67462449334561824798583984375" lon="6.8115474097430706024169921875">
        <ele>1920.4000244140625</ele>
        <time>2026-08-31T06:00:33.000Z</time>
        <extensions>
          <ns3:TrackPointExtension>
            <ns3:hr>149</ns3:hr>
            <ns3:cad>0</ns3:cad>
          </ns3:TrackPointExtension>
        </extensions>
      </trkpt>
      <trkpt lat="44.674618542194366455078125" lon="6.81155839003622531890869140625">
        <ele>1920.5999755859375</ele>
        <time>2026-08-31T06:00:34.000Z</time>
        <extensions>
          <ns3:TrackPointExtension>
            <ns3:hr>149</ns3:hr>
            <ns3:cad>0</ns3:cad>
          </ns3:TrackPointExtension>
        </extensions>
      </trkpt>
      <trkpt lat="44.6746079809963703155517578125" lon="6.81157775223255157470703125">
        <ele>1920.800048828125</ele>
        <time>2026-08-31T06:00:35.000Z</time>
        <extensions>
          <ns3:TrackPointExtension>
            <ns3:hr>149</ns3:hr>
            <ns3:cad>0</ns3:cad>
          </ns3:TrackPointExtension>
        </extensions>
      </trkpt>
      <trkpt lat="44.67460018582642078399658203125" lon="6.8115883134305477142333984375">
        <ele>1921</ele>
        <time>2026-08-31T06:00:36.000Z</time>
        <extensions>
          <ns3:TrackPointExtension>
            <ns3:hr>150</ns3:hr>
            <ns3:cad>0</ns3:cad>
          </ns3:TrackPointExtension>
        </extensions>
      </trkpt>
      <trkpt lat="44.67459046281874179840087890625" lon="6.8116010539233684539794921875">
        <ele>1921.199951171875</ele>
        <time>2026-08-31T06:00:37.000Z</time>
        <extensions>
          <ns3:TrackPointExtension>
            <ns3:hr>149</ns3:hr>
            <ns3:cad>0</ns3:cad>
          </ns3:TrackPointExtension>
        </extensions>
      </trkpt>
      <trkpt lat="44.6745838411152362823486328125" lon="6.811608262360095977783203125">
        <ele>1921.4000244140625</ele>
        <time>2026-08-31T06:00:38.000Z</time>
        <extensions>
          <ns3:TrackPointExtension>
            <ns3:hr>149</ns3:hr>
            <ns3:cad>0</ns3:cad>
          </ns3:TrackPointExtension>
        </extensions>
      </trkpt>
      <trkpt lat="44.67457763850688934326171875" lon="6.8116282112896442413330078125">
        <ele>1921.5999755859375</ele>
        <time>2026-08-31T06:00:39.000Z</time>
        <extensions>
          <ns3:TrackPointExtension>
            <ns3:hr>150</ns3:hr>
            <ns3:cad>0</ns3:cad>
          </ns3:TrackPointExtension>
        </extensions>
      </trkpt>
      <trkpt lat="44.6745747886598110198974609375" lon="6.81163399480283260345458984375">
        <ele>1921.5999755859375</ele>
        <time>2026-08-31T06:00:40.000Z</time>
        <extensions>
          <ns3:TrackPointExtension>
            <ns3:hr>150</ns3:hr>
            <ns3:cad>0</ns3:cad>
          </ns3:TrackPointExtension>
        </extensions>
      </trkpt>
      <trkpt lat="44.6745687536895275115966796875" lon="6.8116508424282073974609375">
        <ele>1921.800048828125</ele>
        <time>2026-08-31T06:00:41.000Z</time>
        <extensions>
          <ns3:TrackPointExtension>
            <ns3:hr>150</ns3:hr>
            <ns3:cad>0</ns3:cad>
          </ns3:TrackPointExtension>
        </extensions>
      </trkpt>
      <trkpt lat="44.67456699348986148834228515625" lon="6.811667270958423614501953125">
        <ele>1922</ele>
        <time>2026-08-31T06:00:42.000Z</time>
        <extensions>
          <ns3:TrackPointExtension>
            <ns3:hr>150</ns3:hr>
            <ns3:cad>0</ns3:cad>
          </ns3:TrackPointExtension>
        </extensions>
      </trkpt>
      <trkpt lat="44.67456313781440258026123046875" lon="6.81169065646827220916748046875">
        <ele>1922</ele>
        <time>2026-08-31T06:00:43.000Z</time>
        <extensions>
          <ns3:TrackPointExtension>
            <ns3:hr>150</ns3:hr>
            <ns3:cad>0</ns3:cad>
          </ns3:TrackPointExtension>
        </extensions>
      </trkpt>
      <trkpt lat="44.6745573543012142181396484375" lon="6.81170188821852207183837890625">
        <ele>1922.199951171875</ele>
        <time>2026-08-31T06:00:44.000Z</time>
        <extensions>
          <ns3:TrackPointExtension>
            <ns3:hr>150</ns3:hr>
            <ns3:cad>0</ns3:cad>
          </ns3:TrackPointExtension>
        </extensions>
      </trkpt>
      <trkpt lat="44.674549810588359832763671875" lon="6.811719574034214019775390625">
        <ele>1922.4000244140625</ele>
        <time>2026-08-31T06:00:45.000Z</time>
        <extensions>
          <ns3:TrackPointExtension>
            <ns3:hr>150</ns3:hr>
            <ns3:cad>0</ns3:cad>
          </ns3:TrackPointExtension>
        </extensions>
      </trkpt>
      <trkpt lat="44.6745466254651546478271484375" lon="6.81173273362219333648681640625">
        <ele>1922.4000244140625</ele>
        <time>2026-08-31T06:00:46.000Z</time>
        <extensions>
          <ns3:TrackPointExtension>
            <ns3:hr>150</ns3:hr>
            <ns3:cad>0</ns3:cad>
          </ns3:TrackPointExtension>
        </extensions>
      </trkpt>
      <trkpt lat="44.67453782446682453155517578125" lon="6.81175083853304386138916015625">
        <ele>1922.5999755859375</ele>
        <time>2026-08-31T06:00:47.000Z</time>
        <extensions>
          <ns3:TrackPointExtension>
            <ns3:hr>149</ns3:hr>
            <ns3:cad>0</ns3:cad>
          </ns3:TrackPointExtension>
        </extensions>
      </trkpt>
      <trkpt lat="44.67453614808619022369384765625" lon="6.81176860816776752471923828125">
        <ele>1922.800048828125</ele>
        <time>2026-08-31T06:00:48.000Z</time>
        <extensions>
          <ns3:TrackPointExtension>
            <ns3:hr>148</ns3:hr>
            <ns3:cad>0</ns3:cad>
          </ns3:TrackPointExtension>
        </extensions>
      </trkpt>
      <trkpt lat="44.67453145422041416168212890625" lon="6.81178067810833454132080078125">
        <ele>1923</ele>
        <time>2026-08-31T06:00:49.000Z</time>
        <extensions>
          <ns3:TrackPointExtension>
            <ns3:hr>147</ns3:hr>
            <ns3:cad>0</ns3:cad>
          </ns3:TrackPointExtension>
        </extensions>
      </trkpt>
      <trkpt lat="44.674526341259479522705078125" lon="6.81179844774305820465087890625">
        <ele>1923.199951171875</ele>
        <time>2026-08-31T06:00:50.000Z</time>
        <extensions>
          <ns3:TrackPointExtension>
            <ns3:hr>146</ns3:hr>
            <ns3:cad>0</ns3:cad>
          </ns3:TrackPointExtension>
        </extensions>
      </trkpt>
      <trkpt lat="44.6745251677930355072021484375" lon="6.8118062429130077362060546875">
        <ele>1923.4000244140625</ele>
        <time>2026-08-31T06:00:51.000Z</time>
        <extensions>
          <ns3:TrackPointExtension>
            <ns3:hr>144</ns3:hr>
            <ns3:cad>0</ns3:cad>
          </ns3:TrackPointExtension>
        </extensions>
      </trkpt>
      <trkpt lat="44.6745228208601474761962890625" lon="6.81182728148996829986572265625">
        <ele>1923.5999755859375</ele>
        <time>2026-08-31T06:00:52.000Z</time>
        <extensions>
          <ns3:TrackPointExtension>
            <ns3:hr>144</ns3:hr>
            <ns3:cad>0</ns3:cad>
          </ns3:TrackPointExtension>
        </extensions>
      </trkpt>
      <trkpt lat="44.6745231561362743377685546875" lon="6.81183524429798126220703125">
        <ele>1923.800048828125</ele>
        <time>2026-08-31T06:00:53.000Z</time>
        <extensions>
          <ns3:TrackPointExtension>
            <ns3:hr>143</ns3:hr>
            <ns3:cad>0</ns3:cad>
          </ns3:TrackPointExtension>
        </extensions>
      </trkpt>
      <trkpt lat="44.67452055774629116058349609375" lon="6.81185628287494182586669921875">
        <ele>1924</ele>
        <time>2026-08-31T06:00:54.000Z</time>
        <extensions>
          <ns3:TrackPointExtension>
            <ns3:hr>143</ns3:hr>
            <ns3:cad>0</ns3:cad>
          </ns3:TrackPointExtension>
        </extensions>
      </trkpt>
      <trkpt lat="44.67451997101306915283203125" lon="6.8118689395487308502197265625">
        <ele>1924.199951171875</ele>
        <time>2026-08-31T06:00:55.000Z</time>
        <extensions>
          <ns3:TrackPointExtension>
            <ns3:hr>143</ns3:hr>
            <ns3:cad>0</ns3:cad>
          </ns3:TrackPointExtension>
        </extensions>
      </trkpt>
      <trkpt lat="44.67451728880405426025390625" lon="6.81188511662185192108154296875">
        <ele>1924.4000244140625</ele>
        <time>2026-08-31T06:00:56.000Z</time>
        <extensions>
          <ns3:TrackPointExtension>
            <ns3:hr>143</ns3:hr>
            <ns3:cad>0</ns3:cad>
          </ns3:TrackPointExtension>
        </extensions>
      </trkpt>
      <trkpt lat="44.674512930214405059814453125" lon="6.8118944205343723297119140625">
        <ele>1924.5999755859375</ele>
        <time>2026-08-31T06:00:57.000Z</time>
        <extensions>
          <ns3:TrackPointExtension>
            <ns3:hr>142</ns3:hr>
            <ns3:cad>0</ns3:cad>
          </ns3:TrackPointExtension>
        </extensions>
      </trkpt>
      <trkpt lat="44.6745130978524684906005859375" lon="6.81191294454038143157958984375">
        <ele>1924.800048828125</ele>
        <time>2026-08-31T06:00:58.000Z</time>
        <extensions>
          <ns3:TrackPointExtension>
            <ns3:hr>142</ns3:hr>
            <ns3:cad>0</ns3:cad>
          </ns3:TrackPointExtension>
        </extensions>
      </trkpt>
      <trkpt lat="44.67451301403343677520751953125" lon="6.8119239248335361480712890625">
        <ele>1925</ele>
        <time>2026-08-31T06:00:59.000Z</time>
        <extensions>
          <ns3:TrackPointExtension>
            <ns3:hr>142</ns3:hr>
            <ns3:cad>0</ns3:cad>
          </ns3:TrackPointExtension>
        </extensions>
      </trkpt>
      <trkpt lat="44.6745187975466251373291015625" lon="6.81194110773503780364990234375">
        <ele>1925.199951171875</ele>
        <time>2026-08-31T06:01:00.000Z</time>
        <extensions>
          <ns3:TrackPointExtension>
            <ns3:hr>142</ns3:hr>
            <ns3:cad>0</ns3:cad>
          </ns3:TrackPointExtension>
        </extensions>
      </trkpt>
      <trkpt lat="44.67452265322208404541015625" lon="6.81195468641817569732666015625">
        <ele>1925.4000244140625</ele>
        <time>2026-08-31T06:01:01.000Z</time>
        <extensions>
          <ns3:TrackPointExtension>
            <ns3:hr>142</ns3:hr>
            <ns3:cad>0</ns3:cad>
          </ns3:TrackPointExtension>
        </extensions>
      </trkpt>
      <trkpt lat="44.67452608980238437652587890625" lon="6.8119701929390430450439453125">
        <ele>1925.5999755859375</ele>
        <time>2026-08-31T06:01:02.000Z</time>
        <extensions>
          <ns3:TrackPointExtension>
            <ns3:hr>143</ns3:hr>
            <ns3:cad>77</ns3:cad>
          </ns3:TrackPointExtension>
        </extensions>
      </trkpt>
      <trkpt lat="44.674530364573001861572265625" lon="6.811991147696971893310546875">
        <ele>1925.800048828125</ele>
        <time>2026-08-31T06:01:03.000Z</time>
        <extensions>
          <ns3:TrackPointExtension>
            <ns3:hr>142</ns3:hr>
            <ns3:cad>77</ns3:cad>
          </ns3:TrackPointExtension>
        </extensions>
      </trkpt>
      <trkpt lat="44.67453430406749248504638671875" lon="6.81200967170298099517822265625">
        <ele>1926</ele>
        <time>2026-08-31T06:01:04.000Z</time>
        <extensions>
          <ns3:TrackPointExtension>
            <ns3:hr>142</ns3:hr>
            <ns3:cad>77</ns3:cad>
          </ns3:TrackPointExtension>
        </extensions>
      </trkpt>
      <trkpt lat="44.67453832738101482391357421875" lon="6.8120290338993072509765625">
        <ele>1926.199951171875</ele>
        <time>2026-08-31T06:01:05.000Z</time>
        <extensions>
          <ns3:TrackPointExtension>
            <ns3:hr>142</ns3:hr>
            <ns3:cad>0</ns3:cad>
          </ns3:TrackPointExtension>
        </extensions>
      </trkpt>
      <trkpt lat="44.67453933320939540863037109375" lon="6.81204202584922313690185546875">
        <ele>1926.199951171875</ele>
        <time>2026-08-31T06:01:06.000Z</time>
        <extensions>
          <ns3:TrackPointExtension>
            <ns3:hr>143</ns3:hr>
            <ns3:cad>0</ns3:cad>
          </ns3:TrackPointExtension>
        </extensions>
      </trkpt>
      <trkpt lat="44.6745402552187442779541015625" lon="6.81206348352134227752685546875">
        <ele>1926.4000244140625</ele>
        <time>2026-08-31T06:01:07.000Z</time>
        <extensions>
          <ns3:TrackPointExtension>
            <ns3:hr>143</ns3:hr>
            <ns3:cad>0</ns3:cad>
          </ns3:TrackPointExtension>
        </extensions>
      </trkpt>
      <trkpt lat="44.67454008758068084716796875" lon="6.81207655929028987884521484375">
        <ele>1926.5999755859375</ele>
        <time>2026-08-31T06:01:08.000Z</time>
        <extensions>
          <ns3:TrackPointExtension>
            <ns3:hr>143</ns3:hr>
            <ns3:cad>0</ns3:cad>
          </ns3:TrackPointExtension>
        </extensions>
      </trkpt>
      <trkpt lat="44.6745412610471248626708984375" lon="6.81209298782050609588623046875">
        <ele>1927</ele>
        <time>2026-08-31T06:01:09.000Z</time>
        <extensions>
          <ns3:TrackPointExtension>
            <ns3:hr>143</ns3:hr>
            <ns3:cad>0</ns3:cad>
          </ns3:TrackPointExtension>
        </extensions>
      </trkpt>
      <trkpt lat="44.6745412610471248626708984375" lon="6.81210354901850223541259765625">
        <ele>1927.199951171875</ele>
        <time>2026-08-31T06:01:10.000Z</time>
        <extensions>
          <ns3:TrackPointExtension>
            <ns3:hr>144</ns3:hr>
            <ns3:cad>0</ns3:cad>
          </ns3:TrackPointExtension>
        </extensions>
      </trkpt>
      <trkpt lat="44.6745422668755054473876953125" lon="6.8121207319200038909912109375">
        <ele>1927.4000244140625</ele>
        <time>2026-08-31T06:01:11.000Z</time>
        <extensions>
          <ns3:TrackPointExtension>
            <ns3:hr>144</ns3:hr>
            <ns3:cad>0</ns3:cad>
          </ns3:TrackPointExtension>
        </extensions>
      </trkpt>
      <trkpt lat="44.67454369179904460906982421875" lon="6.81213590316474437713623046875">
        <ele>1927.5999755859375</ele>
        <time>2026-08-31T06:01:12.000Z</time>
        <extensions>
          <ns3:TrackPointExtension>
            <ns3:hr>145</ns3:hr>
            <ns3:cad>0</ns3:cad>
          </ns3:TrackPointExtension>
        </extensions>
      </trkpt>
      <trkpt lat="44.6745429374277591705322265625" lon="6.81215601973235607147216796875">
        <ele>1928</ele>
        <time>2026-08-31T06:01:13.000Z</time>
        <extensions>
          <ns3:TrackPointExtension>
            <ns3:hr>145</ns3:hr>
            <ns3:cad>0</ns3:cad>
          </ns3:TrackPointExtension>
        </extensions>
      </trkpt>
      <trkpt lat="44.6745426021516323089599609375" lon="6.81216943077743053436279296875">
        <ele>1928.199951171875</ele>
        <time>2026-08-31T06:01:14.000Z</time>
        <extensions>
          <ns3:TrackPointExtension>
            <ns3:hr>145</ns3:hr>
            <ns3:cad>0</ns3:cad>
          </ns3:TrackPointExtension>
        </extensions>
      </trkpt>
      <trkpt lat="44.6745446138083934783935546875" lon="6.8121924810111522674560546875">
        <ele>1928.5999755859375</ele>
        <time>2026-08-31T06:01:15.000Z</time>
        <extensions>
          <ns3:TrackPointExtension>
            <ns3:hr>146</ns3:hr>
            <ns3:cad>0</ns3:cad>
          </ns3:TrackPointExtension>
        </extensions>
      </trkpt>
      <trkpt lat="44.67454679310321807861328125" lon="6.81220983155071735382080078125">
        <ele>1928.800048828125</ele>
        <time>2026-08-31T06:01:16.000Z</time>
        <extensions>
          <ns3:TrackPointExtension>
            <ns3:hr>146</ns3:hr>
            <ns3:cad>0</ns3:cad>
          </ns3:TrackPointExtension>
        </extensions>
      </trkpt>
      <trkpt lat="44.6745449490845203399658203125" lon="6.8122286908328533172607421875">
        <ele>1929</ele>
        <time>2026-08-31T06:01:17.000Z</time>
        <extensions>
          <ns3:TrackPointExtension>
            <ns3:hr>146</ns3:hr>
            <ns3:cad>0</ns3:cad>
          </ns3:TrackPointExtension>
        </extensions>
      </trkpt>
      <trkpt lat="44.67453899793326854705810546875" lon="6.81224352680146694183349609375">
        <ele>1929</ele>
        <time>2026-08-31T06:01:18.000Z</time>
        <extensions>
          <ns3:TrackPointExtension>
            <ns3:hr>146</ns3:hr>
            <ns3:cad>0</ns3:cad>
          </ns3:TrackPointExtension>
        </extensions>
      </trkpt>
      <trkpt lat="44.674524329602718353271484375" lon="6.81225760839879512786865234375">
        <ele>1929.199951171875</ele>
        <time>2026-08-31T06:01:19.000Z</time>
        <extensions>
          <ns3:TrackPointExtension>
            <ns3:hr>146</ns3:hr>
            <ns3:cad>0</ns3:cad>
          </ns3:TrackPointExtension>
        </extensions>
      </trkpt>
      <trkpt lat="44.67451737262308597564697265625" lon="6.81226666085422039031982421875">
        <ele>1929.199951171875</ele>
        <time>2026-08-31T06:01:20.000Z</time>
        <extensions>
          <ns3:TrackPointExtension>
            <ns3:hr>147</ns3:hr>
            <ns3:cad>0</ns3:cad>
          </ns3:TrackPointExtension>
        </extensions>
      </trkpt>
      <trkpt lat="44.6745117567479610443115234375" lon="6.8122731149196624755859375">
        <ele>1929.4000244140625</ele>
        <time>2026-08-31T06:01:21.000Z</time>
        <extensions>
          <ns3:TrackPointExtension>
            <ns3:hr>147</ns3:hr>
            <ns3:cad>0</ns3:cad>
          </ns3:TrackPointExtension>
        </extensions>
      </trkpt>
      <trkpt lat="44.67449557967483997344970703125" lon="6.812272109091281890869140625">
        <ele>1929.4000244140625</ele>
        <time>2026-08-31T06:01:22.000Z</time>
        <extensions>
          <ns3:TrackPointExtension>
            <ns3:hr>147</ns3:hr>
            <ns3:cad>0</ns3:cad>
          </ns3:TrackPointExtension>
        </extensions>
      </trkpt>
      <trkpt lat="44.67448602430522441864013671875" lon="6.8122695945203304290771484375">
        <ele>1929.4000244140625</ele>
        <time>2026-08-31T06:01:23.000Z</time>
        <extensions>
          <ns3:TrackPointExtension>
            <ns3:hr>147</ns3:hr>
            <ns3:cad>0</ns3:cad>
          </ns3:TrackPointExtension>
        </extensions>
      </trkpt>
      <trkpt lat="44.67447143979370594024658203125" lon="6.81226280517876148223876953125">
        <ele>1929.5999755859375</ele>
        <time>2026-08-31T06:01:24.000Z</time>
        <extensions>
          <ns3:TrackPointExtension>
            <ns3:hr>147</ns3:hr>
            <ns3:cad>0</ns3:cad>
          </ns3:TrackPointExtension>
        </extensions>
      </trkpt>
      <trkpt lat="44.6744607947766780853271484375" lon="6.8122516572475433349609375">
        <ele>1929.5999755859375</ele>
        <time>2026-08-31T06:01:25.000Z</time>
        <extensions>
          <ns3:TrackPointExtension>
            <ns3:hr>147</ns3:hr>
            <ns3:cad>0</ns3:cad>
          </ns3:TrackPointExtension>
        </extensions>
      </trkpt>
      <trkpt lat="44.67444813810288906097412109375" lon="6.81224553845822811126708984375">
        <ele>1929.5999755859375</ele>
        <time>2026-08-31T06:01:26.000Z</time>
        <extensions>
          <ns3:TrackPointExtension>
            <ns3:hr>148</ns3:hr>
            <ns3:cad>0</ns3:cad>
          </ns3:TrackPointExtension>
        </extensions>
      </trkpt>
      <trkpt lat="44.67443858273327350616455078125" lon="6.81224151514470577239990234375">
        <ele>1929.5999755859375</ele>
        <time>2026-08-31T06:01:27.000Z</time>
        <extensions>
          <ns3:TrackPointExtension>
            <ns3:hr>148</ns3:hr>
            <ns3:cad>0</ns3:cad>
          </ns3:TrackPointExtension>
        </extensions>
      </trkpt>
      <trkpt lat="44.67442248947918415069580078125" lon="6.812248639762401580810546875">
        <ele>1929.800048828125</ele>
        <time>2026-08-31T06:01:28.000Z</time>
        <extensions>
          <ns3:TrackPointExtension>
            <ns3:hr>148</ns3:hr>
            <ns3:cad>0</ns3:cad>
          </ns3:TrackPointExtension>
        </extensions>
      </trkpt>
      <trkpt lat="44.67441000044345855712890625" lon="6.8122535012662410736083984375">
        <ele>1930</ele>
        <time>2026-08-31T06:01:29.000Z</time>
        <extensions>
          <ns3:TrackPointExtension>
            <ns3:hr>147</ns3:hr>
            <ns3:cad>0</ns3:cad>
          </ns3:TrackPointExtension>
        </extensions>
      </trkpt>
      <trkpt lat="44.67439365573227405548095703125" lon="6.81226297281682491302490234375">
        <ele>1930</ele>
        <time>2026-08-31T06:01:30.000Z</time>
        <extensions>
          <ns3:TrackPointExtension>
            <ns3:hr>147</ns3:hr>
            <ns3:cad>0</ns3:cad>
          </ns3:TrackPointExtension>
        </extensions>
      </trkpt>
      <trkpt lat="44.67438527382910251617431640625" lon="6.8122635595500469207763671875">
        <ele>1930</ele>
        <time>2026-08-31T06:01:31.000Z</time>
        <extensions>
          <ns3:TrackPointExtension>
            <ns3:hr>147</ns3:hr>
            <ns3:cad>0</ns3:cad>
          </ns3:TrackPointExtension>
        </extensions>
      </trkpt>
      <trkpt lat="44.674364738166332244873046875" lon="6.8122712709009647369384765625">
        <ele>1930</ele>
        <time>2026-08-31T06:01:32.000Z</time>
        <extensions>
          <ns3:TrackPointExtension>
            <ns3:hr>147</ns3:hr>
            <ns3:cad>0</ns3:cad>
          </ns3:TrackPointExtension>
        </extensions>
      </trkpt>
      <trkpt lat="44.6743525005877017974853515625" lon="6.81227621622383594512939453125">
        <ele>1930</ele>
        <time>2026-08-31T06:01:33.000Z</time>
        <extensions>
          <ns3:TrackPointExtension>
            <ns3:hr>147</ns3:hr>
            <ns3:cad>0</ns3:cad>
          </ns3:TrackPointExtension>
        </extensions>
      </trkpt>
      <trkpt lat="44.674340598285198211669921875" lon="6.8122863583266735076904296875">
        <ele>1930</ele>
        <time>2026-08-31T06:01:34.000Z</time>
        <extensions>
          <ns3:TrackPointExtension>
            <ns3:hr>147</ns3:hr>
            <ns3:cad>0</ns3:cad>
          </ns3:TrackPointExtension>
        </extensions>
      </trkpt>
      <trkpt lat="44.6743297018110752105712890625" lon="6.8122897110879421234130859375">
        <ele>1930</ele>
        <time>2026-08-31T06:01:35.000Z</time>
        <extensions>
          <ns3:TrackPointExtension>
            <ns3:hr>147</ns3:hr>
            <ns3:cad>0</ns3:cad>
          </ns3:TrackPointExtension>
        </extensions>
      </trkpt>
      <trkpt lat="44.6743179671466350555419921875" lon="6.8122910521924495697021484375">
        <ele>1930</ele>
        <time>2026-08-31T06:01:36.000Z</time>
        <extensions>
          <ns3:TrackPointExtension>
            <ns3:hr>148</ns3:hr>
            <ns3:cad>0</ns3:cad>
          </ns3:TrackPointExtension>
        </extensions>
      </trkpt>
      <trkpt lat="44.674306400120258331298828125" lon="6.81229390203952789306640625">
        <ele>1930.199951171875</ele>
        <time>2026-08-31T06:01:37.000Z</time>
        <extensions>
          <ns3:TrackPointExtension>
            <ns3:hr>148</ns3:hr>
            <ns3:cad>0</ns3:cad>
          </ns3:TrackPointExtension>
        </extensions>
      </trkpt>
      <trkpt lat="44.67429575510323047637939453125" lon="6.812294907867908477783203125">
        <ele>1930.4000244140625</ele>
        <time>2026-08-31T06:01:38.000Z</time>
        <extensions>
          <ns3:TrackPointExtension>
            <ns3:hr>147</ns3:hr>
            <ns3:cad>0</ns3:cad>
          </ns3:TrackPointExtension>
        </extensions>
      </trkpt>
      <trkpt lat="44.674282930791378021240234375" lon="6.81229951791465282440185546875">
        <ele>1930.5999755859375</ele>
        <time>2026-08-31T06:01:39.000Z</time>
        <extensions>
          <ns3:TrackPointExtension>
            <ns3:hr>147</ns3:hr>
            <ns3:cad>0</ns3:cad>
          </ns3:TrackPointExtension>
        </extensions>
      </trkpt>
      <trkpt lat="44.67427144758403301239013671875" lon="6.8122967518866062164306640625">
        <ele>1930.800048828125</ele>
        <time>2026-08-31T06:01:40.000Z</time>
        <extensions>
          <ns3:TrackPointExtension>
            <ns3:hr>147</ns3:hr>
            <ns3:cad>0</ns3:cad>
          </ns3:TrackPointExtension>
        </extensions>
      </trkpt>
      <trkpt lat="44.6742549352347850799560546875" lon="6.81229834444820880889892578125">
        <ele>1930.800048828125</ele>
        <time>2026-08-31T06:01:41.000Z</time>
        <extensions>
          <ns3:TrackPointExtension>
            <ns3:hr>147</ns3:hr>
            <ns3:cad>0</ns3:cad>
          </ns3:TrackPointExtension>
        </extensions>
      </trkpt>
      <trkpt lat="44.674248397350311279296875" lon="6.8122990988194942474365234375">
        <ele>1931</ele>
        <time>2026-08-31T06:01:42.000Z</time>
        <extensions>
          <ns3:TrackPointExtension>
            <ns3:hr>148</ns3:hr>
            <ns3:cad>0</ns3:cad>
          </ns3:TrackPointExtension>
        </extensions>
      </trkpt>
      <trkpt lat="44.674235321581363677978515625" lon="6.81230731308460235595703125">
        <ele>1931.199951171875</ele>
        <time>2026-08-31T06:01:43.000Z</time>
        <extensions>
          <ns3:TrackPointExtension>
            <ns3:hr>147</ns3:hr>
            <ns3:cad>55</ns3:cad>
          </ns3:TrackPointExtension>
        </extensions>
      </trkpt>
      <trkpt lat="44.67422492802143096923828125" lon="6.812306307256221771240234375">
        <ele>1931.4000244140625</ele>
        <time>2026-08-31T06:01:44.000Z</time>
        <extensions>
          <ns3:TrackPointExtension>
            <ns3:hr>147</ns3:hr>
            <ns3:cad>55</ns3:cad>
          </ns3:TrackPointExtension>
        </extensions>
      </trkpt>
      <trkpt lat="44.67421461828052997589111328125" lon="6.81230789981782436370849609375">
        <ele>1931.5999755859375</ele>
        <time>2026-08-31T06:01:45.000Z</time>
        <extensions>
          <ns3:TrackPointExtension>
            <ns3:hr>146</ns3:hr>
            <ns3:cad>55</ns3:cad>
          </ns3:TrackPointExtension>
        </extensions>
      </trkpt>
      <trkpt lat="44.6742029674351215362548828125" lon="6.81230999529361724853515625">
        <ele>1931.5999755859375</ele>
        <time>2026-08-31T06:01:46.000Z</time>
        <extensions>
          <ns3:TrackPointExtension>
            <ns3:hr>146</ns3:hr>
            <ns3:cad>55</ns3:cad>
          </ns3:TrackPointExtension>
        </extensions>
      </trkpt>
      <trkpt lat="44.6741882152855396270751953125" lon="6.81231410242617130279541015625">
        <ele>1931.800048828125</ele>
        <time>2026-08-31T06:01:47.000Z</time>
        <extensions>
          <ns3:TrackPointExtension>
            <ns3:hr>145</ns3:hr>
            <ns3:cad>55</ns3:cad>
          </ns3:TrackPointExtension>
        </extensions>
      </trkpt>
      <trkpt lat="44.67417337931692600250244140625" lon="6.81231577880680561065673828125">
        <ele>1931.800048828125</ele>
        <time>2026-08-31T06:01:48.000Z</time>
        <extensions>
          <ns3:TrackPointExtension>
            <ns3:hr>145</ns3:hr>
            <ns3:cad>0</ns3:cad>
          </ns3:TrackPointExtension>
        </extensions>
      </trkpt>
      <trkpt lat="44.674158878624439239501953125" lon="6.81232097558677196502685546875">
        <ele>1932</ele>
        <time>2026-08-31T06:01:49.000Z</time>
        <extensions>
          <ns3:TrackPointExtension>
            <ns3:hr>145</ns3:hr>
            <ns3:cad>0</ns3:cad>
          </ns3:TrackPointExtension>
        </extensions>
      </trkpt>
      <trkpt lat="44.6741459704935550689697265625" lon="6.8123249150812625885009765625">
        <ele>1932</ele>
        <time>2026-08-31T06:01:50.000Z</time>
        <extensions>
          <ns3:TrackPointExtension>
            <ns3:hr>145</ns3:hr>
            <ns3:cad>0</ns3:cad>
          </ns3:TrackPointExtension>
        </extensions>
      </trkpt>
      <trkpt lat="44.67413616366684436798095703125" lon="6.812325417995452880859375">
        <ele>1932</ele>
        <time>2026-08-31T06:01:51.000Z</time>
        <extensions>
          <ns3:TrackPointExtension>
            <ns3:hr>146</ns3:hr>
            <ns3:cad>0</ns3:cad>
          </ns3:TrackPointExtension>
        </extensions>
      </trkpt>
      <trkpt lat="44.6741255186498165130615234375" lon="6.8123255856335163116455078125">
        <ele>1932</ele>
        <time>2026-08-31T06:01:52.000Z</time>
        <extensions>
          <ns3:TrackPointExtension>
            <ns3:hr>147</ns3:hr>
            <ns3:cad>0</ns3:cad>
          </ns3:TrackPointExtension>
        </extensions>
      </trkpt>
      <trkpt lat="44.67411135323345661163330078125" lon="6.81232432834804058074951171875">
        <ele>1932.199951171875</ele>
        <time>2026-08-31T06:01:53.000Z</time>
        <extensions>
          <ns3:TrackPointExtension>
            <ns3:hr>148</ns3:hr>
            <ns3:cad>0</ns3:cad>
          </ns3:TrackPointExtension>
        </extensions>
      </trkpt>
      <trkpt lat="44.6740997023880481719970703125" lon="6.81232273578643798828125">
        <ele>1932.4000244140625</ele>
        <time>2026-08-31T06:01:54.000Z</time>
        <extensions>
          <ns3:TrackPointExtension>
            <ns3:hr>148</ns3:hr>
            <ns3:cad>0</ns3:cad>
          </ns3:TrackPointExtension>
        </extensions>
      </trkpt>
      <trkpt lat="44.67408922500908374786376953125" lon="6.81231938302516937255859375">
        <ele>1932.5999755859375</ele>
        <time>2026-08-31T06:01:55.000Z</time>
        <extensions>
          <ns3:TrackPointExtension>
            <ns3:hr>148</ns3:hr>
            <ns3:cad>0</ns3:cad>
          </ns3:TrackPointExtension>
        </extensions>
      </trkpt>
      <trkpt lat="44.67408084310591220855712890625" lon="6.81231929920613765716552734375">
        <ele>1932.800048828125</ele>
        <time>2026-08-31T06:01:56.000Z</time>
        <extensions>
          <ns3:TrackPointExtension>
            <ns3:hr>149</ns3:hr>
            <ns3:cad>0</ns3:cad>
          </ns3:TrackPointExtension>
        </extensions>
      </trkpt>
      <trkpt lat="44.67406894080340862274169921875" lon="6.812346875667572021484375">
        <ele>1933</ele>
        <time>2026-08-31T06:01:57.000Z</time>
        <extensions>
          <ns3:TrackPointExtension>
            <ns3:hr>149</ns3:hr>
            <ns3:cad>0</ns3:cad>
          </ns3:TrackPointExtension>
        </extensions>
      </trkpt>
      <trkpt lat="44.67406072653830051422119140625" lon="6.8123410083353519439697265625">
        <ele>1933.199951171875</ele>
        <time>2026-08-31T06:01:58.000Z</time>
        <extensions>
          <ns3:TrackPointExtension>
            <ns3:hr>149</ns3:hr>
            <ns3:cad>0</ns3:cad>
          </ns3:TrackPointExtension>
        </extensions>
      </trkpt>
      <trkpt lat="44.6740403585135936737060546875" lon="6.8123467080295085906982421875">
        <ele>1933.4000244140625</ele>
        <time>2026-08-31T06:01:59.000Z</time>
        <extensions>
          <ns3:TrackPointExtension>
            <ns3:hr>149</ns3:hr>
            <ns3:cad>0</ns3:cad>
          </ns3:TrackPointExtension>
        </extensions>
      </trkpt>
      <trkpt lat="44.6740313060581684112548828125" lon="6.812349222600460052490234375">
        <ele>1933.5999755859375</ele>
        <time>2026-08-31T06:02:00.000Z</time>
        <extensions>
          <ns3:TrackPointExtension>
            <ns3:hr>149</ns3:hr>
            <ns3:cad>0</ns3:cad>
          </ns3:TrackPointExtension>
        </extensions>
      </trkpt>
      <trkpt lat="44.67401579953730106353759765625" lon="6.8123503960669040679931640625">
        <ele>1933.800048828125</ele>
        <time>2026-08-31T06:02:01.000Z</time>
        <extensions>
          <ns3:TrackPointExtension>
            <ns3:hr>149</ns3:hr>
            <ns3:cad>0</ns3:cad>
          </ns3:TrackPointExtension>
        </extensions>
      </trkpt>
      <trkpt lat="44.67400657944381237030029296875" lon="6.81235098280012607574462890625">
        <ele>1933.800048828125</ele>
        <time>2026-08-31T06:02:02.000Z</time>
        <extensions>
          <ns3:TrackPointExtension>
            <ns3:hr>149</ns3:hr>
            <ns3:cad>0</ns3:cad>
          </ns3:TrackPointExtension>
        </extensions>
      </trkpt>
      <trkpt lat="44.67399735935032367706298828125" lon="6.81234352290630340576171875">
        <ele>1934</ele>
        <time>2026-08-31T06:02:03.000Z</time>
        <extensions>
          <ns3:TrackPointExtension>
            <ns3:hr>149</ns3:hr>
            <ns3:cad>0</ns3:cad>
          </ns3:TrackPointExtension>
        </extensions>
      </trkpt>
      <trkpt lat="44.6739803440868854522705078125" lon="6.8123366497457027435302734375">
        <ele>1934</ele>
        <time>2026-08-31T06:02:04.000Z</time>
        <extensions>
          <ns3:TrackPointExtension>
            <ns3:hr>149</ns3:hr>
            <ns3:cad>0</ns3:cad>
          </ns3:TrackPointExtension>
        </extensions>
      </trkpt>
      <trkpt lat="44.67397238127887248992919921875" lon="6.81233547627925872802734375">
        <ele>1934.199951171875</ele>
        <time>2026-08-31T06:02:05.000Z</time>
        <extensions>
          <ns3:TrackPointExtension>
            <ns3:hr>148</ns3:hr>
            <ns3:cad>0</ns3:cad>
          </ns3:TrackPointExtension>
        </extensions>
      </trkpt>
      <trkpt lat="44.673959724605083465576171875" lon="6.81233237497508525848388671875">
        <ele>1934.199951171875</ele>
        <time>2026-08-31T06:02:06.000Z</time>
        <extensions>
          <ns3:TrackPointExtension>
            <ns3:hr>148</ns3:hr>
            <ns3:cad>0</ns3:cad>
          </ns3:TrackPointExtension>
        </extensions>
      </trkpt>
      <trkpt lat="44.67395243234932422637939453125" lon="6.81233271025121212005615234375">
        <ele>1934.4000244140625</ele>
        <time>2026-08-31T06:02:07.000Z</time>
        <extensions>
          <ns3:TrackPointExtension>
            <ns3:hr>148</ns3:hr>
            <ns3:cad>0</ns3:cad>
          </ns3:TrackPointExtension>
        </extensions>
      </trkpt>
      <trkpt lat="44.6739367581903934478759765625" lon="6.81233036331832408905029296875">
        <ele>1934.5999755859375</ele>
        <time>2026-08-31T06:02:08.000Z</time>
        <extensions>
          <ns3:TrackPointExtension>
            <ns3:hr>148</ns3:hr>
            <ns3:cad>0</ns3:cad>
          </ns3:TrackPointExtension>
        </extensions>
      </trkpt>
      <trkpt lat="44.6739303879439830780029296875" lon="6.81232986040413379669189453125">
        <ele>1934.800048828125</ele>
        <time>2026-08-31T06:02:09.000Z</time>
        <extensions>
          <ns3:TrackPointExtension>
            <ns3:hr>148</ns3:hr>
            <ns3:cad>0</ns3:cad>
          </ns3:TrackPointExtension>
        </extensions>
      </trkpt>
      <trkpt lat="44.67391571961343288421630859375" lon="6.81232751347124576568603515625">
        <ele>1935</ele>
        <time>2026-08-31T06:02:10.000Z</time>
        <extensions>
          <ns3:TrackPointExtension>
            <ns3:hr>148</ns3:hr>
            <ns3:cad>0</ns3:cad>
          </ns3:TrackPointExtension>
        </extensions>
      </trkpt>
      <trkpt lat="44.67390717007219791412353515625" lon="6.8123240768909454345703125">
        <ele>1935</ele>
        <time>2026-08-31T06:02:11.000Z</time>
        <extensions>
          <ns3:TrackPointExtension>
            <ns3:hr>149</ns3:hr>
            <ns3:cad>0</ns3:cad>
          </ns3:TrackPointExtension>
        </extensions>
      </trkpt>
      <trkpt lat="44.67389166355133056640625" lon="6.81231846101582050323486328125">
        <ele>1935.199951171875</ele>
        <time>2026-08-31T06:02:12.000Z</time>
        <extensions>
          <ns3:TrackPointExtension>
            <ns3:hr>148</ns3:hr>
            <ns3:cad>0</ns3:cad>
          </ns3:TrackPointExtension>
        </extensions>
      </trkpt>
      <trkpt lat="44.67387833632528781890869140625" lon="6.81231644935905933380126953125">
        <ele>1935.4000244140625</ele>
        <time>2026-08-31T06:02:13.000Z</time>
        <extensions>
          <ns3:TrackPointExtension>
            <ns3:hr>148</ns3:hr>
            <ns3:cad>0</ns3:cad>
          </ns3:TrackPointExtension>
        </extensions>
      </trkpt>
      <trkpt lat="44.67386291362345218658447265625" lon="6.81231913156807422637939453125">
        <ele>1935.4000244140625</ele>
        <time>2026-08-31T06:02:14.000Z</time>
        <extensions>
          <ns3:TrackPointExtension>
            <ns3:hr>148</ns3:hr>
            <ns3:cad>0</ns3:cad>
          </ns3:TrackPointExtension>
        </extensions>
      </trkpt>
      <trkpt lat="44.67385017313063144683837890625" lon="6.81232315488159656524658203125">
        <ele>1935.5999755859375</ele>
        <time>2026-08-31T06:02:15.000Z</time>
        <extensions>
          <ns3:TrackPointExtension>
            <ns3:hr>148</ns3:hr>
            <ns3:cad>0</ns3:cad>
          </ns3:TrackPointExtension>
        </extensions>
      </trkpt>
      <trkpt lat="44.673836342990398406982421875" lon="6.81233321316540241241455078125">
        <ele>1935.800048828125</ele>
        <time>2026-08-31T06:02:16.000Z</time>
        <extensions>
          <ns3:TrackPointExtension>
            <ns3:hr>147</ns3:hr>
            <ns3:cad>0</ns3:cad>
          </ns3:TrackPointExtension>
        </extensions>
      </trkpt>
      <trkpt lat="44.673825614154338836669921875" lon="6.81233254261314868927001953125">
        <ele>1935.800048828125</ele>
        <time>2026-08-31T06:02:17.000Z</time>
        <extensions>
          <ns3:TrackPointExtension>
            <ns3:hr>147</ns3:hr>
            <ns3:cad>0</ns3:cad>
          </ns3:TrackPointExtension>
        </extensions>
      </trkpt>
      <trkpt lat="44.67380382120609283447265625" lon="6.81233547627925872802734375">
        <ele>1936</ele>
        <time>2026-08-31T06:02:18.000Z</time>
        <extensions>
          <ns3:TrackPointExtension>
            <ns3:hr>146</ns3:hr>
            <ns3:cad>0</ns3:cad>
          </ns3:TrackPointExtension>
        </extensions>
      </trkpt>
      <trkpt lat="44.67379200272262096405029296875" lon="6.81233505718410015106201171875">
        <ele>1936.199951171875</ele>
        <time>2026-08-31T06:02:19.000Z</time>
        <extensions>
          <ns3:TrackPointExtension>
            <ns3:hr>146</ns3:hr>
            <ns3:cad>0</ns3:cad>
          </ns3:TrackPointExtension>
        </extensions>
      </trkpt>
      <trkpt lat="44.67378093861043453216552734375" lon="6.8123359791934490203857421875">
        <ele>1936.4000244140625</ele>
        <time>2026-08-31T06:02:20.000Z</time>
        <extensions>
          <ns3:TrackPointExtension>
            <ns3:hr>146</ns3:hr>
            <ns3:cad>0</ns3:cad>
          </ns3:TrackPointExtension>
        </extensions>
      </trkpt>
      <trkpt lat="44.6737691201269626617431640625" lon="6.81233354844152927398681640625">
        <ele>1936.4000244140625</ele>
        <time>2026-08-31T06:02:21.000Z</time>
        <extensions>
          <ns3:TrackPointExtension>
            <ns3:hr>146</ns3:hr>
            <ns3:cad>0</ns3:cad>
          </ns3:TrackPointExtension>
        </extensions>
      </trkpt>
      <trkpt lat="44.67375411652028560638427734375" lon="6.81231879629194736480712890625">
        <ele>1936.5999755859375</ele>
        <time>2026-08-31T06:02:22.000Z</time>
        <extensions>
          <ns3:TrackPointExtension>
            <ns3:hr>146</ns3:hr>
            <ns3:cad>0</ns3:cad>
          </ns3:TrackPointExtension>
        </extensions>
      </trkpt>
      <trkpt lat="44.67374925501644611358642578125" lon="6.81231359951198101043701171875">
        <ele>1936.800048828125</ele>
        <time>2026-08-31T06:02:23.000Z</time>
        <extensions>
          <ns3:TrackPointExtension>
            <ns3:hr>146</ns3:hr>
            <ns3:cad>0</ns3:cad>
          </ns3:TrackPointExtension>
        </extensions>
      </trkpt>
      <trkpt lat="44.673738777637481689453125" lon="6.81231091730296611785888671875">
        <ele>1937</ele>
        <time>2026-08-31T06:02:24.000Z</time>
        <extensions>
          <ns3:TrackPointExtension>
            <ns3:hr>147</ns3:hr>
            <ns3:cad>0</ns3:cad>
          </ns3:TrackPointExtension>
        </extensions>
      </trkpt>
      <trkpt lat="44.67373265884816646575927734375" lon="6.8123081512749195098876953125">
        <ele>1937.199951171875</ele>
        <time>2026-08-31T06:02:25.000Z</time>
        <extensions>
          <ns3:TrackPointExtension>
            <ns3:hr>146</ns3:hr>
            <ns3:cad>0</ns3:cad>
          </ns3:TrackPointExtension>
        </extensions>
      </trkpt>
      <trkpt lat="44.67371606267988681793212890625" lon="6.81230194866657257080078125">
        <ele>1937.4000244140625</ele>
        <time>2026-08-31T06:02:26.000Z</time>
        <extensions>
          <ns3:TrackPointExtension>
            <ns3:hr>146</ns3:hr>
            <ns3:cad>0</ns3:cad>
          </ns3:TrackPointExtension>
        </extensions>
      </trkpt>
      <trkpt lat="44.67370717786252498626708984375" lon="6.81230127811431884765625">
        <ele>1937.5999755859375</ele>
        <time>2026-08-31T06:02:27.000Z</time>
        <extensions>
          <ns3:TrackPointExtension>
            <ns3:hr>147</ns3:hr>
            <ns3:cad>0</ns3:cad>
          </ns3:TrackPointExtension>
        </extensions>
      </trkpt>
      <trkpt lat="44.6736970357596874237060546875" lon="6.81230169720947742462158203125">
        <ele>1938</ele>
        <time>2026-08-31T06:02:28.000Z</time>
        <extensions>
          <ns3:TrackPointExtension>
            <ns3:hr>146</ns3:hr>
            <ns3:cad>0</ns3:cad>
          </ns3:TrackPointExtension>
        </extensions>
      </trkpt>
      <trkpt lat="44.67368907295167446136474609375" lon="6.81229792535305023193359375">
        <ele>1938</ele>
        <time>2026-08-31T06:02:29.000Z</time>
        <extensions>
          <ns3:TrackPointExtension>
            <ns3:hr>147</ns3:hr>
            <ns3:cad>0</ns3:cad>
          </ns3:TrackPointExtension>
        </extensions>
      </trkpt>
      <trkpt lat="44.6736749075353145599365234375" lon="6.81229549460113048553466796875">
        <ele>1938.4000244140625</ele>
        <time>2026-08-31T06:02:30.000Z</time>
        <extensions>
          <ns3:TrackPointExtension>
            <ns3:hr>147</ns3:hr>
            <ns3:cad>0</ns3:cad>
          </ns3:TrackPointExtension>
        </extensions>
      </trkpt>
      <trkpt lat="44.673664011061191558837890625" lon="6.81229499168694019317626953125">
        <ele>1938.5999755859375</ele>
        <time>2026-08-31T06:02:31.000Z</time>
        <extensions>
          <ns3:TrackPointExtension>
            <ns3:hr>147</ns3:hr>
            <ns3:cad>0</ns3:cad>
          </ns3:TrackPointExtension>
        </extensions>
      </trkpt>
      <trkpt lat="44.673651941120624542236328125" lon="6.8122920580208301544189453125">
        <ele>1938.800048828125</ele>
        <time>2026-08-31T06:02:32.000Z</time>
        <extensions>
          <ns3:TrackPointExtension>
            <ns3:hr>147</ns3:hr>
            <ns3:cad>0</ns3:cad>
          </ns3:TrackPointExtension>
        </extensions>
      </trkpt>
      <trkpt lat="44.67364422976970672607421875" lon="6.81229013018310070037841796875">
        <ele>1939</ele>
        <time>2026-08-31T06:02:33.000Z</time>
        <extensions>
          <ns3:TrackPointExtension>
            <ns3:hr>146</ns3:hr>
            <ns3:cad>0</ns3:cad>
          </ns3:TrackPointExtension>
        </extensions>
      </trkpt>
      <trkpt lat="44.67363660223782062530517578125" lon="6.812281496822834014892578125">
        <ele>1939.199951171875</ele>
        <time>2026-08-31T06:02:34.000Z</time>
        <extensions>
          <ns3:TrackPointExtension>
            <ns3:hr>147</ns3:hr>
            <ns3:cad>0</ns3:cad>
          </ns3:TrackPointExtension>
        </extensions>
      </trkpt>
      <trkpt lat="44.67362302355468273162841796875" lon="6.8122732825577259063720703125">
        <ele>1939.4000244140625</ele>
        <time>2026-08-31T06:02:35.000Z</time>
        <extensions>
          <ns3:TrackPointExtension>
            <ns3:hr>147</ns3:hr>
            <ns3:cad>0</ns3:cad>
          </ns3:TrackPointExtension>
        </extensions>
      </trkpt>
      <trkpt lat="44.67361547984182834625244140625" lon="6.81227185763418674468994140625">
        <ele>1939.5999755859375</ele>
        <time>2026-08-31T06:02:36.000Z</time>
        <extensions>
          <ns3:TrackPointExtension>
            <ns3:hr>147</ns3:hr>
            <ns3:cad>0</ns3:cad>
          </ns3:TrackPointExtension>
        </extensions>
      </trkpt>
      <trkpt lat="44.67360491864383220672607421875" lon="6.81226666085422039031982421875">
        <ele>1939.800048828125</ele>
        <time>2026-08-31T06:02:37.000Z</time>
        <extensions>
          <ns3:TrackPointExtension>
            <ns3:hr>148</ns3:hr>
            <ns3:cad>0</ns3:cad>
          </ns3:TrackPointExtension>
        </extensions>
      </trkpt>
      <trkpt lat="44.67359888367354869842529296875" lon="6.81225626729428768157958984375">
        <ele>1939.800048828125</ele>
        <time>2026-08-31T06:02:38.000Z</time>
        <extensions>
          <ns3:TrackPointExtension>
            <ns3:hr>148</ns3:hr>
            <ns3:cad>0</ns3:cad>
          </ns3:TrackPointExtension>
        </extensions>
      </trkpt>
      <trkpt lat="44.67359184287488460540771484375" lon="6.81224570609629154205322265625">
        <ele>1940</ele>
        <time>2026-08-31T06:02:39.000Z</time>
        <extensions>
          <ns3:TrackPointExtension>
            <ns3:hr>148</ns3:hr>
            <ns3:cad>0</ns3:cad>
          </ns3:TrackPointExtension>
        </extensions>
      </trkpt>
      <trkpt lat="44.6735853888094425201416015625" lon="6.81224050931632518768310546875">
        <ele>1940.199951171875</ele>
        <time>2026-08-31T06:02:40.000Z</time>
        <extensions>
          <ns3:TrackPointExtension>
            <ns3:hr>148</ns3:hr>
            <ns3:cad>0</ns3:cad>
          </ns3:TrackPointExtension>
        </extensions>
      </trkpt>
      <trkpt lat="44.6735739894211292266845703125" lon="6.8122394196689128875732421875">
        <ele>1940.4000244140625</ele>
        <time>2026-08-31T06:02:41.000Z</time>
        <extensions>
          <ns3:TrackPointExtension>
            <ns3:hr>148</ns3:hr>
            <ns3:cad>0</ns3:cad>
          </ns3:TrackPointExtension>
        </extensions>
      </trkpt>
      <trkpt lat="44.67356552369892597198486328125" lon="6.8122397549450397491455078125">
        <ele>1940.4000244140625</ele>
        <time>2026-08-31T06:02:42.000Z</time>
        <extensions>
          <ns3:TrackPointExtension>
            <ns3:hr>148</ns3:hr>
            <ns3:cad>0</ns3:cad>
          </ns3:TrackPointExtension>
        </extensions>
      </trkpt>
      <trkpt lat="44.67355479486286640167236328125" lon="6.8122397549450397491455078125">
        <ele>1940.5999755859375</ele>
        <time>2026-08-31T06:02:43.000Z</time>
        <extensions>
          <ns3:TrackPointExtension>
            <ns3:hr>148</ns3:hr>
            <ns3:cad>0</ns3:cad>
          </ns3:TrackPointExtension>
        </extensions>
      </trkpt>
      <trkpt lat="44.67354440130293369293212890625" lon="6.81223967112600803375244140625">
        <ele>1940.800048828125</ele>
        <time>2026-08-31T06:02:44.000Z</time>
        <extensions>
          <ns3:TrackPointExtension>
            <ns3:hr>147</ns3:hr>
            <ns3:cad>0</ns3:cad>
          </ns3:TrackPointExtension>
        </extensions>
      </trkpt>
      <trkpt lat="44.67353635467588901519775390625" lon="6.81223179213702678680419921875">
        <ele>1941</ele>
        <time>2026-08-31T06:02:45.000Z</time>
        <extensions>
          <ns3:TrackPointExtension>
            <ns3:hr>147</ns3:hr>
            <ns3:cad>0</ns3:cad>
          </ns3:TrackPointExtension>
        </extensions>
      </trkpt>
      <trkpt lat="44.6735347621142864227294921875" lon="6.8122293613851070404052734375">
        <ele>1941</ele>
        <time>2026-08-31T06:02:46.000Z</time>
        <extensions>
          <ns3:TrackPointExtension>
            <ns3:hr>147</ns3:hr>
            <ns3:cad>0</ns3:cad>
          </ns3:TrackPointExtension>
        </extensions>
      </trkpt>
      <trkpt lat="44.67353048734366893768310546875" lon="6.81223087012767791748046875">
        <ele>1941.199951171875</ele>
        <time>2026-08-31T06:02:47.000Z</time>
        <extensions>
          <ns3:TrackPointExtension>
            <ns3:hr>146</ns3:hr>
            <ns3:cad>0</ns3:cad>
          </ns3:TrackPointExtension>
        </extensions>
      </trkpt>
      <trkpt lat="44.67352495528757572174072265625" lon="6.81223061867058277130126953125">
        <ele>1941.199951171875</ele>
        <time>2026-08-31T06:02:48.000Z</time>
        <extensions>
          <ns3:TrackPointExtension>
            <ns3:hr>146</ns3:hr>
            <ns3:cad>0</ns3:cad>
          </ns3:TrackPointExtension>
        </extensions>
      </trkpt>
      <trkpt lat="44.67351959086954593658447265625" lon="6.81222994811832904815673828125">
        <ele>1941.199951171875</ele>
        <time>2026-08-31T06:02:49.000Z</time>
        <extensions>
          <ns3:TrackPointExtension>
            <ns3:hr>146</ns3:hr>
            <ns3:cad>0</ns3:cad>
          </ns3:TrackPointExtension>
        </extensions>
      </trkpt>
      <trkpt lat="44.673513807356357574462890625" lon="6.81223087012767791748046875">
        <ele>1941.199951171875</ele>
        <time>2026-08-31T06:02:50.000Z</time>
        <extensions>
          <ns3:TrackPointExtension>
            <ns3:hr>147</ns3:hr>
            <ns3:cad>0</ns3:cad>
          </ns3:TrackPointExtension>
        </extensions>
      </trkpt>
      <trkpt lat="44.67350986786186695098876953125" lon="6.81223128922283649444580078125">
        <ele>1941.199951171875</ele>
        <time>2026-08-31T06:02:51.000Z</time>
        <extensions>
          <ns3:TrackPointExtension>
            <ns3:hr>146</ns3:hr>
            <ns3:cad>0</ns3:cad>
          </ns3:TrackPointExtension>
        </extensions>
      </trkpt>
      <trkpt lat="44.67350685037672519683837890625" lon="6.81223128922283649444580078125">
        <ele>1941.199951171875</ele>
        <time>2026-08-31T06:02:52.000Z</time>
        <extensions>
          <ns3:TrackPointExtension>
            <ns3:hr>146</ns3:hr>
            <ns3:cad>0</ns3:cad>
          </ns3:TrackPointExtension>
        </extensions>
      </trkpt>
      <trkpt lat="44.6735052578151226043701171875" lon="6.81223162449896335601806640625">
        <ele>1941.199951171875</ele>
        <time>2026-08-31T06:02:53.000Z</time>
        <extensions>
          <ns3:TrackPointExtension>
            <ns3:hr>146</ns3:hr>
            <ns3:cad>0</ns3:cad>
          </ns3:TrackPointExtension>
        </extensions>
      </trkpt>
      <trkpt lat="44.673503078520298004150390625" lon="6.81222726590931415557861328125">
        <ele>1941.199951171875</ele>
        <time>2026-08-31T06:02:54.000Z</time>
        <extensions>
          <ns3:TrackPointExtension>
            <ns3:hr>147</ns3:hr>
            <ns3:cad>0</ns3:cad>
          </ns3:TrackPointExtension>
        </extensions>
      </trkpt>
      <trkpt lat="44.673502743244171142578125" lon="6.81222676299512386322021484375">
        <ele>1941.199951171875</ele>
        <time>2026-08-31T06:02:55.000Z</time>
        <extensions>
          <ns3:TrackPointExtension>
            <ns3:hr>148</ns3:hr>
            <ns3:cad>0</ns3:cad>
          </ns3:TrackPointExtension>
        </extensions>
      </trkpt>
      <trkpt lat="44.67350048013031482696533203125" lon="6.81222307495772838592529296875">
        <ele>1941.199951171875</ele>
        <time>2026-08-31T06:02:56.000Z</time>
        <extensions>
          <ns3:TrackPointExtension>
            <ns3:hr>149</ns3:hr>
            <ns3:cad>0</ns3:cad>
          </ns3:TrackPointExtension>
        </extensions>
      </trkpt>
      <trkpt lat="44.67350131832063198089599609375" lon="6.81222307495772838592529296875">
        <ele>1941.199951171875</ele>
        <time>2026-08-31T06:02:57.000Z</time>
        <extensions>
          <ns3:TrackPointExtension>
            <ns3:hr>150</ns3:hr>
            <ns3:cad>0</ns3:cad>
          </ns3:TrackPointExtension>
        </extensions>
      </trkpt>
      <trkpt lat="44.67349980957806110382080078125" lon="6.81222491897642612457275390625">
        <ele>1941.199951171875</ele>
        <time>2026-08-31T06:02:58.000Z</time>
        <extensions>
          <ns3:TrackPointExtension>
            <ns3:hr>150</ns3:hr>
            <ns3:cad>0</ns3:cad>
          </ns3:TrackPointExtension>
        </extensions>
      </trkpt>
      <trkpt lat="44.67349830083549022674560546875" lon="6.81222458370029926300048828125">
        <ele>1941.199951171875</ele>
        <time>2026-08-31T06:02:59.000Z</time>
        <extensions>
          <ns3:TrackPointExtension>
            <ns3:hr>149</ns3:hr>
            <ns3:cad>0</ns3:cad>
          </ns3:TrackPointExtension>
        </extensions>
      </trkpt>
      <trkpt lat="44.67349947430193424224853515625" lon="6.812226511538028717041015625">
        <ele>1941.4000244140625</ele>
        <time>2026-08-31T06:03:00.000Z</time>
        <extensions>
          <ns3:TrackPointExtension>
            <ns3:hr>149</ns3:hr>
            <ns3:cad>0</ns3:cad>
          </ns3:TrackPointExtension>
        </extensions>
      </trkpt>
      <trkpt lat="44.67349947430193424224853515625" lon="6.81222818791866302490234375">
        <ele>1941.199951171875</ele>
        <time>2026-08-31T06:03:01.000Z</time>
        <extensions>
          <ns3:TrackPointExtension>
            <ns3:hr>149</ns3:hr>
            <ns3:cad>0</ns3:cad>
          </ns3:TrackPointExtension>
        </extensions>
      </trkpt>
      <trkpt lat="44.67349695973098278045654296875" lon="6.8122337199747562408447265625">
        <ele>1941.199951171875</ele>
        <time>2026-08-31T06:03:02.000Z</time>
        <extensions>
          <ns3:TrackPointExtension>
            <ns3:hr>150</ns3:hr>
            <ns3:cad>0</ns3:cad>
          </ns3:TrackPointExtension>
        </extensions>
      </trkpt>
      <trkpt lat="44.673493690788745880126953125" lon="6.81223128922283649444580078125">
        <ele>1941.199951171875</ele>
        <time>2026-08-31T06:03:03.000Z</time>
        <extensions>
          <ns3:TrackPointExtension>
            <ns3:hr>150</ns3:hr>
            <ns3:cad>0</ns3:cad>
          </ns3:TrackPointExtension>
        </extensions>
      </trkpt>
      <trkpt lat="44.6734874881803989410400390625" lon="6.81223112158477306365966796875">
        <ele>1941.199951171875</ele>
        <time>2026-08-31T06:03:04.000Z</time>
        <extensions>
          <ns3:TrackPointExtension>
            <ns3:hr>151</ns3:hr>
            <ns3:cad>0</ns3:cad>
          </ns3:TrackPointExtension>
        </extensions>
      </trkpt>
      <trkpt lat="44.6734851412475109100341796875" lon="6.812235228717327117919921875">
        <ele>1941.4000244140625</ele>
        <time>2026-08-31T06:03:05.000Z</time>
        <extensions>
          <ns3:TrackPointExtension>
            <ns3:hr>151</ns3:hr>
            <ns3:cad>0</ns3:cad>
          </ns3:TrackPointExtension>
        </extensions>
      </trkpt>
      <trkpt lat="44.67347600497305393218994140625" lon="6.81223397143185138702392578125">
        <ele>1941.4000244140625</ele>
        <time>2026-08-31T06:03:06.000Z</time>
        <extensions>
          <ns3:TrackPointExtension>
            <ns3:hr>151</ns3:hr>
            <ns3:cad>0</ns3:cad>
          </ns3:TrackPointExtension>
        </extensions>
      </trkpt>
      <trkpt lat="44.6734673716127872467041015625" lon="6.812232546508312225341796875">
        <ele>1941.5999755859375</ele>
        <time>2026-08-31T06:03:07.000Z</time>
        <extensions>
          <ns3:TrackPointExtension>
            <ns3:hr>151</ns3:hr>
            <ns3:cad>0</ns3:cad>
          </ns3:TrackPointExtension>
        </extensions>
      </trkpt>
      <trkpt lat="44.6734636835753917694091796875" lon="6.81223682127892971038818359375">
        <ele>1941.800048828125</ele>
        <time>2026-08-31T06:03:08.000Z</time>
        <extensions>
          <ns3:TrackPointExtension>
            <ns3:hr>150</ns3:hr>
            <ns3:cad>0</ns3:cad>
          </ns3:TrackPointExtension>
        </extensions>
      </trkpt>
      <trkpt lat="44.67345421202480792999267578125" lon="6.81223732419312000274658203125">
        <ele>1942</ele>
        <time>2026-08-31T06:03:09.000Z</time>
        <extensions>
          <ns3:TrackPointExtension>
            <ns3:hr>151</ns3:hr>
            <ns3:cad>0</ns3:cad>
          </ns3:TrackPointExtension>
        </extensions>
      </trkpt>
      <trkpt lat="44.673449434340000152587890625" lon="6.8122370727360248565673828125">
        <ele>1942.199951171875</ele>
        <time>2026-08-31T06:03:10.000Z</time>
        <extensions>
          <ns3:TrackPointExtension>
            <ns3:hr>151</ns3:hr>
            <ns3:cad>0</ns3:cad>
          </ns3:TrackPointExtension>
        </extensions>
      </trkpt>
      <trkpt lat="44.67344080097973346710205078125" lon="6.81223648600280284881591796875">
        <ele>1942.4000244140625</ele>
        <time>2026-08-31T06:03:11.000Z</time>
        <extensions>
          <ns3:TrackPointExtension>
            <ns3:hr>150</ns3:hr>
            <ns3:cad>0</ns3:cad>
          </ns3:TrackPointExtension>
        </extensions>
      </trkpt>
      <trkpt lat="44.67343308962881565093994140625" lon="6.81224503554403781890869140625">
        <ele>1942.4000244140625</ele>
        <time>2026-08-31T06:03:12.000Z</time>
        <extensions>
          <ns3:TrackPointExtension>
            <ns3:hr>151</ns3:hr>
            <ns3:cad>51</ns3:cad>
          </ns3:TrackPointExtension>
        </extensions>
      </trkpt>
      <trkpt lat="44.67342705465853214263916015625" lon="6.81224386207759380340576171875">
        <ele>1942.5999755859375</ele>
        <time>2026-08-31T06:03:13.000Z</time>
        <extensions>
          <ns3:TrackPointExtension>
            <ns3:hr>152</ns3:hr>
            <ns3:cad>51</ns3:cad>
          </ns3:TrackPointExtension>
        </extensions>
      </trkpt>
      <trkpt lat="44.67341900803148746490478515625" lon="6.812244951725006103515625">
        <ele>1942.800048828125</ele>
        <time>2026-08-31T06:03:14.000Z</time>
        <extensions>
          <ns3:TrackPointExtension>
            <ns3:hr>151</ns3:hr>
            <ns3:cad>51</ns3:cad>
          </ns3:TrackPointExtension>
        </extensions>
      </trkpt>
      <trkpt lat="44.6734100393950939178466796875" lon="6.8122484721243381500244140625">
        <ele>1943</ele>
        <time>2026-08-31T06:03:15.000Z</time>
        <extensions>
          <ns3:TrackPointExtension>
            <ns3:hr>152</ns3:hr>
            <ns3:cad>51</ns3:cad>
          </ns3:TrackPointExtension>
        </extensions>
      </trkpt>
      <trkpt lat="44.673400819301605224609375" lon="6.81225274689495563507080078125">
        <ele>1943.199951171875</ele>
        <time>2026-08-31T06:03:16.000Z</time>
        <extensions>
          <ns3:TrackPointExtension>
            <ns3:hr>152</ns3:hr>
            <ns3:cad>51</ns3:cad>
          </ns3:TrackPointExtension>
        </extensions>
      </trkpt>
      <trkpt lat="44.67339453287422657012939453125" lon="6.81225794367492198944091796875">
        <ele>1943.199951171875</ele>
        <time>2026-08-31T06:03:17.000Z</time>
        <extensions>
          <ns3:TrackPointExtension>
            <ns3:hr>152</ns3:hr>
            <ns3:cad>51</ns3:cad>
          </ns3:TrackPointExtension>
        </extensions>
      </trkpt>
      <trkpt lat="44.6733855642378330230712890625" lon="6.81226280517876148223876953125">
        <ele>1943.4000244140625</ele>
        <time>2026-08-31T06:03:18.000Z</time>
        <extensions>
          <ns3:TrackPointExtension>
            <ns3:hr>152</ns3:hr>
            <ns3:cad>51</ns3:cad>
          </ns3:TrackPointExtension>
        </extensions>
      </trkpt>
      <trkpt lat="44.6733828820288181304931640625" lon="6.81226867251098155975341796875">
        <ele>1943.5999755859375</ele>
        <time>2026-08-31T06:03:19.000Z</time>
        <extensions>
          <ns3:TrackPointExtension>
            <ns3:hr>152</ns3:hr>
            <ns3:cad>51</ns3:cad>
          </ns3:TrackPointExtension>
        </extensions>
      </trkpt>
      <trkpt lat="44.67337374575436115264892578125" lon="6.812275461852550506591796875">
        <ele>1943.800048828125</ele>
        <time>2026-08-31T06:03:20.000Z</time>
        <extensions>
          <ns3:TrackPointExtension>
            <ns3:hr>152</ns3:hr>
            <ns3:cad>51</ns3:cad>
          </ns3:TrackPointExtension>
        </extensions>
      </trkpt>
      <trkpt lat="44.6733691357076168060302734375" lon="6.8122816644608974456787109375">
        <ele>1944</ele>
        <time>2026-08-31T06:03:21.000Z</time>
        <extensions>
          <ns3:TrackPointExtension>
            <ns3:hr>152</ns3:hr>
            <ns3:cad>51</ns3:cad>
          </ns3:TrackPointExtension>
        </extensions>
      </trkpt>
      <trkpt lat="44.67335899360477924346923828125" lon="6.81229599751532077789306640625">
        <ele>1944.199951171875</ele>
        <time>2026-08-31T06:03:22.000Z</time>
        <extensions>
          <ns3:TrackPointExtension>
            <ns3:hr>153</ns3:hr>
            <ns3:cad>51</ns3:cad>
          </ns3:TrackPointExtension>
        </extensions>
      </trkpt>
      <trkpt lat="44.6733527071774005889892578125" lon="6.8123047985136508941650390625">
        <ele>1944.4000244140625</ele>
        <time>2026-08-31T06:03:23.000Z</time>
        <extensions>
          <ns3:TrackPointExtension>
            <ns3:hr>153</ns3:hr>
            <ns3:cad>0</ns3:cad>
          </ns3:TrackPointExtension>
        </extensions>
      </trkpt>
      <trkpt lat="44.67334792949259281158447265625" lon="6.81231292895972728729248046875">
        <ele>1944.5999755859375</ele>
        <time>2026-08-31T06:03:24.000Z</time>
        <extensions>
          <ns3:TrackPointExtension>
            <ns3:hr>154</ns3:hr>
            <ns3:cad>0</ns3:cad>
          </ns3:TrackPointExtension>
        </extensions>
      </trkpt>
      <trkpt lat="44.6733396314084529876708984375" lon="6.812321059405803680419921875">
        <ele>1944.800048828125</ele>
        <time>2026-08-31T06:03:25.000Z</time>
        <extensions>
          <ns3:TrackPointExtension>
            <ns3:hr>154</ns3:hr>
            <ns3:cad>0</ns3:cad>
          </ns3:TrackPointExtension>
        </extensions>
      </trkpt>
      <trkpt lat="44.6733325906097888946533203125" lon="6.81232751347124576568603515625">
        <ele>1945</ele>
        <time>2026-08-31T06:03:26.000Z</time>
        <extensions>
          <ns3:TrackPointExtension>
            <ns3:hr>154</ns3:hr>
            <ns3:cad>0</ns3:cad>
          </ns3:TrackPointExtension>
        </extensions>
      </trkpt>
      <trkpt lat="44.67332303524017333984375" lon="6.81233824230730533599853515625">
        <ele>1945.4000244140625</ele>
        <time>2026-08-31T06:03:27.000Z</time>
        <extensions>
          <ns3:TrackPointExtension>
            <ns3:hr>154</ns3:hr>
            <ns3:cad>0</ns3:cad>
          </ns3:TrackPointExtension>
        </extensions>
      </trkpt>
      <trkpt lat="44.67331473715603351593017578125" lon="6.812348552048206329345703125">
        <ele>1945.5999755859375</ele>
        <time>2026-08-31T06:03:28.000Z</time>
        <extensions>
          <ns3:TrackPointExtension>
            <ns3:hr>155</ns3:hr>
            <ns3:cad>0</ns3:cad>
          </ns3:TrackPointExtension>
        </extensions>
      </trkpt>
      <trkpt lat="44.6733074449002742767333984375" lon="6.81236070580780506134033203125">
        <ele>1945.800048828125</ele>
        <time>2026-08-31T06:03:29.000Z</time>
        <extensions>
          <ns3:TrackPointExtension>
            <ns3:hr>155</ns3:hr>
            <ns3:cad>0</ns3:cad>
          </ns3:TrackPointExtension>
        </extensions>
      </trkpt>
      <trkpt lat="44.673301912844181060791015625" lon="6.81237109936773777008056640625">
        <ele>1946</ele>
        <time>2026-08-31T06:03:30.000Z</time>
        <extensions>
          <ns3:TrackPointExtension>
            <ns3:hr>155</ns3:hr>
            <ns3:cad>0</ns3:cad>
          </ns3:TrackPointExtension>
        </extensions>
      </trkpt>
      <trkpt lat="44.6732960455119609832763671875" lon="6.81238048709928989410400390625">
        <ele>1946.199951171875</ele>
        <time>2026-08-31T06:03:31.000Z</time>
        <extensions>
          <ns3:TrackPointExtension>
            <ns3:hr>155</ns3:hr>
            <ns3:cad>0</ns3:cad>
          </ns3:TrackPointExtension>
        </extensions>
      </trkpt>
      <trkpt lat="44.67329084873199462890625" lon="6.81239758618175983428955078125">
        <ele>1946.4000244140625</ele>
        <time>2026-08-31T06:03:32.000Z</time>
        <extensions>
          <ns3:TrackPointExtension>
            <ns3:hr>156</ns3:hr>
            <ns3:cad>0</ns3:cad>
          </ns3:TrackPointExtension>
        </extensions>
      </trkpt>
      <trkpt lat="44.67328120954334735870361328125" lon="6.81241183541715145111083984375">
        <ele>1946.4000244140625</ele>
        <time>2026-08-31T06:03:33.000Z</time>
        <extensions>
          <ns3:TrackPointExtension>
            <ns3:hr>156</ns3:hr>
            <ns3:cad>0</ns3:cad>
          </ns3:TrackPointExtension>
        </extensions>
      </trkpt>
      <trkpt lat="44.6732762642204761505126953125" lon="6.812421642243862152099609375">
        <ele>1946.5999755859375</ele>
        <time>2026-08-31T06:03:34.000Z</time>
        <extensions>
          <ns3:TrackPointExtension>
            <ns3:hr>156</ns3:hr>
            <ns3:cad>0</ns3:cad>
          </ns3:TrackPointExtension>
        </extensions>
      </trkpt>
      <trkpt lat="44.673267044126987457275390625" lon="6.81244368664920330047607421875">
        <ele>1946.5999755859375</ele>
        <time>2026-08-31T06:03:35.000Z</time>
        <extensions>
          <ns3:TrackPointExtension>
            <ns3:hr>156</ns3:hr>
            <ns3:cad>0</ns3:cad>
          </ns3:TrackPointExtension>
        </extensions>
      </trkpt>
      <trkpt lat="44.67326142825186252593994140625" lon="6.81245776824653148651123046875">
        <ele>1946.800048828125</ele>
        <time>2026-08-31T06:03:36.000Z</time>
        <extensions>
          <ns3:TrackPointExtension>
            <ns3:hr>156</ns3:hr>
            <ns3:cad>0</ns3:cad>
          </ns3:TrackPointExtension>
        </extensions>
      </trkpt>
      <trkpt lat="44.6732561476528644561767578125" lon="6.812473945319652557373046875">
        <ele>1947</ele>
        <time>2026-08-31T06:03:37.000Z</time>
        <extensions>
          <ns3:TrackPointExtension>
            <ns3:hr>157</ns3:hr>
            <ns3:cad>0</ns3:cad>
          </ns3:TrackPointExtension>
        </extensions>
      </trkpt>
      <trkpt lat="44.67325120232999324798583984375" lon="6.81249213404953479766845703125">
        <ele>1947.199951171875</ele>
        <time>2026-08-31T06:03:38.000Z</time>
        <extensions>
          <ns3:TrackPointExtension>
            <ns3:hr>157</ns3:hr>
            <ns3:cad>0</ns3:cad>
          </ns3:TrackPointExtension>
        </extensions>
      </trkpt>
      <trkpt lat="44.67324382625520229339599609375" lon="6.81250336579978466033935546875">
        <ele>1947.199951171875</ele>
        <time>2026-08-31T06:03:39.000Z</time>
        <extensions>
          <ns3:TrackPointExtension>
            <ns3:hr>157</ns3:hr>
            <ns3:cad>0</ns3:cad>
          </ns3:TrackPointExtension>
        </extensions>
      </trkpt>
      <trkpt lat="44.67323494143784046173095703125" lon="6.81251862086355686187744140625">
        <ele>1947.199951171875</ele>
        <time>2026-08-31T06:03:40.000Z</time>
        <extensions>
          <ns3:TrackPointExtension>
            <ns3:hr>157</ns3:hr>
            <ns3:cad>0</ns3:cad>
          </ns3:TrackPointExtension>
        </extensions>
      </trkpt>
      <trkpt lat="44.6732289902865886688232421875" lon="6.81253337301313877105712890625">
        <ele>1947.4000244140625</ele>
        <time>2026-08-31T06:03:41.000Z</time>
        <extensions>
          <ns3:TrackPointExtension>
            <ns3:hr>158</ns3:hr>
            <ns3:cad>0</ns3:cad>
          </ns3:TrackPointExtension>
        </extensions>
      </trkpt>
      <trkpt lat="44.6732179261744022369384765625" lon="6.8125539086759090423583984375">
        <ele>1947.4000244140625</ele>
        <time>2026-08-31T06:03:42.000Z</time>
        <extensions>
          <ns3:TrackPointExtension>
            <ns3:hr>158</ns3:hr>
            <ns3:cad>45</ns3:cad>
          </ns3:TrackPointExtension>
        </extensions>
      </trkpt>
      <trkpt lat="44.6732102148234844207763671875" lon="6.81256572715938091278076171875">
        <ele>1947.4000244140625</ele>
        <time>2026-08-31T06:03:43.000Z</time>
        <extensions>
          <ns3:TrackPointExtension>
            <ns3:hr>159</ns3:hr>
            <ns3:cad>45</ns3:cad>
          </ns3:TrackPointExtension>
        </extensions>
      </trkpt>
      <trkpt lat="44.6731971390545368194580078125" lon="6.812579892575740814208984375">
        <ele>1947.4000244140625</ele>
        <time>2026-08-31T06:03:44.000Z</time>
        <extensions>
          <ns3:TrackPointExtension>
            <ns3:hr>159</ns3:hr>
            <ns3:cad>45</ns3:cad>
          </ns3:TrackPointExtension>
        </extensions>
      </trkpt>
      <trkpt lat="44.67318959534168243408203125" lon="6.81259137578308582305908203125">
        <ele>1947.4000244140625</ele>
        <time>2026-08-31T06:03:45.000Z</time>
        <extensions>
          <ns3:TrackPointExtension>
            <ns3:hr>160</ns3:hr>
            <ns3:cad>0</ns3:cad>
          </ns3:TrackPointExtension>
        </extensions>
      </trkpt>
      <trkpt lat="44.673179872334003448486328125" lon="6.81260503828525543212890625">
        <ele>1947.5999755859375</ele>
        <time>2026-08-31T06:03:46.000Z</time>
        <extensions>
          <ns3:TrackPointExtension>
            <ns3:hr>160</ns3:hr>
            <ns3:cad>0</ns3:cad>
          </ns3:TrackPointExtension>
        </extensions>
      </trkpt>
      <trkpt lat="44.67317081987857818603515625" lon="6.81261970661580562591552734375">
        <ele>1947.5999755859375</ele>
        <time>2026-08-31T06:03:47.000Z</time>
        <extensions>
          <ns3:TrackPointExtension>
            <ns3:hr>160</ns3:hr>
            <ns3:cad>0</ns3:cad>
          </ns3:TrackPointExtension>
        </extensions>
      </trkpt>
      <trkpt lat="44.67315799556672573089599609375" lon="6.81262942962348461151123046875">
        <ele>1947.5999755859375</ele>
        <time>2026-08-31T06:03:48.000Z</time>
        <extensions>
          <ns3:TrackPointExtension>
            <ns3:hr>159</ns3:hr>
            <ns3:cad>0</ns3:cad>
          </ns3:TrackPointExtension>
        </extensions>
      </trkpt>
      <trkpt lat="44.67314676381647586822509765625" lon="6.81264284066855907440185546875">
        <ele>1947.5999755859375</ele>
        <time>2026-08-31T06:03:49.000Z</time>
        <extensions>
          <ns3:TrackPointExtension>
            <ns3:hr>159</ns3:hr>
            <ns3:cad>0</ns3:cad>
          </ns3:TrackPointExtension>
        </extensions>
      </trkpt>
      <trkpt lat="44.6731354482471942901611328125" lon="6.8126558326184749603271484375">
        <ele>1947.800048828125</ele>
        <time>2026-08-31T06:03:50.000Z</time>
        <extensions>
          <ns3:TrackPointExtension>
            <ns3:hr>159</ns3:hr>
            <ns3:cad>0</ns3:cad>
          </ns3:TrackPointExtension>
        </extensions>
      </trkpt>
      <trkpt lat="44.67312564142048358917236328125" lon="6.81266614235937595367431640625">
        <ele>1947.800048828125</ele>
        <time>2026-08-31T06:03:51.000Z</time>
        <extensions>
          <ns3:TrackPointExtension>
            <ns3:hr>159</ns3:hr>
            <ns3:cad>0</ns3:cad>
          </ns3:TrackPointExtension>
        </extensions>
      </trkpt>
      <trkpt lat="44.67311675660312175750732421875" lon="6.81267418898642063140869140625">
        <ele>1947.800048828125</ele>
        <time>2026-08-31T06:03:52.000Z</time>
        <extensions>
          <ns3:TrackPointExtension>
            <ns3:hr>159</ns3:hr>
            <ns3:cad>0</ns3:cad>
          </ns3:TrackPointExtension>
        </extensions>
      </trkpt>
      <trkpt lat="44.67310418374836444854736328125" lon="6.81268424727022647857666015625">
        <ele>1948</ele>
        <time>2026-08-31T06:03:53.000Z</time>
        <extensions>
          <ns3:TrackPointExtension>
            <ns3:hr>159</ns3:hr>
            <ns3:cad>0</ns3:cad>
          </ns3:TrackPointExtension>
        </extensions>
      </trkpt>
      <trkpt lat="44.67309412546455860137939453125" lon="6.812687851488590240478515625">
        <ele>1948</ele>
        <time>2026-08-31T06:03:54.000Z</time>
        <extensions>
          <ns3:TrackPointExtension>
            <ns3:hr>159</ns3:hr>
            <ns3:cad>0</ns3:cad>
          </ns3:TrackPointExtension>
        </extensions>
      </trkpt>
      <trkpt lat="44.6730838157236576080322265625" lon="6.8126970715820789337158203125">
        <ele>1948.199951171875</ele>
        <time>2026-08-31T06:03:55.000Z</time>
        <extensions>
          <ns3:TrackPointExtension>
            <ns3:hr>159</ns3:hr>
            <ns3:cad>0</ns3:cad>
          </ns3:TrackPointExtension>
        </extensions>
      </trkpt>
      <trkpt lat="44.67307786457240581512451171875" lon="6.81269648484885692596435546875">
        <ele>1948.199951171875</ele>
        <time>2026-08-31T06:03:56.000Z</time>
        <extensions>
          <ns3:TrackPointExtension>
            <ns3:hr>158</ns3:hr>
            <ns3:cad>0</ns3:cad>
          </ns3:TrackPointExtension>
        </extensions>
      </trkpt>
      <trkpt lat="44.6730680577456951141357421875" lon="6.81269816122949123382568359375">
        <ele>1948.4000244140625</ele>
        <time>2026-08-31T06:03:57.000Z</time>
        <extensions>
          <ns3:TrackPointExtension>
            <ns3:hr>158</ns3:hr>
            <ns3:cad>0</ns3:cad>
          </ns3:TrackPointExtension>
        </extensions>
      </trkpt>
      <trkpt lat="44.67306160368025302886962890625" lon="6.81270117871463298797607421875">
        <ele>1948.5999755859375</ele>
        <time>2026-08-31T06:03:58.000Z</time>
        <extensions>
          <ns3:TrackPointExtension>
            <ns3:hr>157</ns3:hr>
            <ns3:cad>0</ns3:cad>
          </ns3:TrackPointExtension>
        </extensions>
      </trkpt>
      <trkpt lat="44.67305087484419345855712890625" lon="6.81270201690495014190673828125">
        <ele>1948.5999755859375</ele>
        <time>2026-08-31T06:03:59.000Z</time>
        <extensions>
          <ns3:TrackPointExtension>
            <ns3:hr>157</ns3:hr>
            <ns3:cad>0</ns3:cad>
          </ns3:TrackPointExtension>
        </extensions>
      </trkpt>
      <trkpt lat="44.67304148711264133453369140625" lon="6.81270352564752101898193359375">
        <ele>1948.800048828125</ele>
        <time>2026-08-31T06:04:00.000Z</time>
        <extensions>
          <ns3:TrackPointExtension>
            <ns3:hr>157</ns3:hr>
            <ns3:cad>0</ns3:cad>
          </ns3:TrackPointExtension>
        </extensions>
      </trkpt>
      <trkpt lat="44.673030339181423187255859375" lon="6.81270268745720386505126953125">
        <ele>1949</ele>
        <time>2026-08-31T06:04:01.000Z</time>
        <extensions>
          <ns3:TrackPointExtension>
            <ns3:hr>157</ns3:hr>
            <ns3:cad>0</ns3:cad>
          </ns3:TrackPointExtension>
        </extensions>
      </trkpt>
      <trkpt lat="44.67301801778376102447509765625" lon="6.81270503439009189605712890625">
        <ele>1949.199951171875</ele>
        <time>2026-08-31T06:04:02.000Z</time>
        <extensions>
          <ns3:TrackPointExtension>
            <ns3:hr>158</ns3:hr>
            <ns3:cad>0</ns3:cad>
          </ns3:TrackPointExtension>
        </extensions>
      </trkpt>
      <trkpt lat="44.6730036847293376922607421875" lon="6.81270620785653591156005859375">
        <ele>1949.199951171875</ele>
        <time>2026-08-31T06:04:03.000Z</time>
        <extensions>
          <ns3:TrackPointExtension>
            <ns3:hr>159</ns3:hr>
            <ns3:cad>0</ns3:cad>
          </ns3:TrackPointExtension>
        </extensions>
      </trkpt>
      <trkpt lat="44.67299379408359527587890625" lon="6.812706626951694488525390625">
        <ele>1949.4000244140625</ele>
        <time>2026-08-31T06:04:04.000Z</time>
        <extensions>
          <ns3:TrackPointExtension>
            <ns3:hr>160</ns3:hr>
            <ns3:cad>0</ns3:cad>
          </ns3:TrackPointExtension>
        </extensions>
      </trkpt>
      <trkpt lat="44.672980718314647674560546875" lon="6.812714003026485443115234375">
        <ele>1949.5999755859375</ele>
        <time>2026-08-31T06:04:05.000Z</time>
        <extensions>
          <ns3:TrackPointExtension>
            <ns3:hr>160</ns3:hr>
            <ns3:cad>0</ns3:cad>
          </ns3:TrackPointExtension>
        </extensions>
      </trkpt>
      <trkpt lat="44.67296638526022434234619140625" lon="6.8127181939780712127685546875">
        <ele>1949.800048828125</ele>
        <time>2026-08-31T06:04:06.000Z</time>
        <extensions>
          <ns3:TrackPointExtension>
            <ns3:hr>161</ns3:hr>
            <ns3:cad>0</ns3:cad>
          </ns3:TrackPointExtension>
        </extensions>
      </trkpt>
      <trkpt lat="44.6729547344148159027099609375" lon="6.8127245642244815826416015625">
        <ele>1950</ele>
        <time>2026-08-31T06:04:07.000Z</time>
        <extensions>
          <ns3:TrackPointExtension>
            <ns3:hr>160</ns3:hr>
            <ns3:cad>0</ns3:cad>
          </ns3:TrackPointExtension>
        </extensions>
      </trkpt>
      <trkpt lat="44.67294551432132720947265625" lon="6.8127269111573696136474609375">
        <ele>1950.199951171875</ele>
        <time>2026-08-31T06:04:08.000Z</time>
        <extensions>
          <ns3:TrackPointExtension>
            <ns3:hr>160</ns3:hr>
            <ns3:cad>0</ns3:cad>
          </ns3:TrackPointExtension>
        </extensions>
      </trkpt>
      <trkpt lat="44.67293755151331424713134765625" lon="6.812737472355365753173828125">
        <ele>1950.4000244140625</ele>
        <time>2026-08-31T06:04:09.000Z</time>
        <extensions>
          <ns3:TrackPointExtension>
            <ns3:hr>160</ns3:hr>
            <ns3:cad>0</ns3:cad>
          </ns3:TrackPointExtension>
        </extensions>
      </trkpt>
      <trkpt lat="44.67292648740112781524658203125" lon="6.8127357959747314453125">
        <ele>1950.5999755859375</ele>
        <time>2026-08-31T06:04:10.000Z</time>
        <extensions>
          <ns3:TrackPointExtension>
            <ns3:hr>159</ns3:hr>
            <ns3:cad>0</ns3:cad>
          </ns3:TrackPointExtension>
        </extensions>
      </trkpt>
      <trkpt lat="44.67291827313601970672607421875" lon="6.81274183094501495361328125">
        <ele>1950.800048828125</ele>
        <time>2026-08-31T06:04:11.000Z</time>
        <extensions>
          <ns3:TrackPointExtension>
            <ns3:hr>159</ns3:hr>
            <ns3:cad>55</ns3:cad>
          </ns3:TrackPointExtension>
        </extensions>
      </trkpt>
      <trkpt lat="44.67290972359478473663330078125" lon="6.81275834329426288604736328125">
        <ele>1951.199951171875</ele>
        <time>2026-08-31T06:04:12.000Z</time>
        <extensions>
          <ns3:TrackPointExtension>
            <ns3:hr>159</ns3:hr>
            <ns3:cad>55</ns3:cad>
          </ns3:TrackPointExtension>
        </extensions>
      </trkpt>
      <trkpt lat="44.67290259897708892822265625" lon="6.812768317759037017822265625">
        <ele>1951.4000244140625</ele>
        <time>2026-08-31T06:04:13.000Z</time>
        <extensions>
          <ns3:TrackPointExtension>
            <ns3:hr>159</ns3:hr>
            <ns3:cad>55</ns3:cad>
          </ns3:TrackPointExtension>
        </extensions>
      </trkpt>
      <trkpt lat="44.67289513908326625823974609375" lon="6.81277778930962085723876953125">
        <ele>1951.5999755859375</ele>
        <time>2026-08-31T06:04:14.000Z</time>
        <extensions>
          <ns3:TrackPointExtension>
            <ns3:hr>159</ns3:hr>
            <ns3:cad>55</ns3:cad>
          </ns3:TrackPointExtension>
        </extensions>
      </trkpt>
      <trkpt lat="44.67288709245622158050537109375" lon="6.81278608739376068115234375">
        <ele>1951.800048828125</ele>
        <time>2026-08-31T06:04:15.000Z</time>
        <extensions>
          <ns3:TrackPointExtension>
            <ns3:hr>159</ns3:hr>
            <ns3:cad>55</ns3:cad>
          </ns3:TrackPointExtension>
        </extensions>
      </trkpt>
      <trkpt lat="44.67288105748593807220458984375" lon="6.81279120035469532012939453125">
        <ele>1952</ele>
        <time>2026-08-31T06:04:16.000Z</time>
        <extensions>
          <ns3:TrackPointExtension>
            <ns3:hr>158</ns3:hr>
            <ns3:cad>55</ns3:cad>
          </ns3:TrackPointExtension>
        </extensions>
      </trkpt>
      <trkpt lat="44.67287301085889339447021484375" lon="6.81279891170561313629150390625">
        <ele>1952.199951171875</ele>
        <time>2026-08-31T06:04:17.000Z</time>
        <extensions>
          <ns3:TrackPointExtension>
            <ns3:hr>158</ns3:hr>
            <ns3:cad>55</ns3:cad>
          </ns3:TrackPointExtension>
        </extensions>
      </trkpt>
      <trkpt lat="44.67286747880280017852783203125" lon="6.8128046952188014984130859375">
        <ele>1952.4000244140625</ele>
        <time>2026-08-31T06:04:18.000Z</time>
        <extensions>
          <ns3:TrackPointExtension>
            <ns3:hr>158</ns3:hr>
            <ns3:cad>0</ns3:cad>
          </ns3:TrackPointExtension>
        </extensions>
      </trkpt>
      <trkpt lat="44.67285926453769207000732421875" lon="6.81281425058841705322265625">
        <ele>1952.4000244140625</ele>
        <time>2026-08-31T06:04:19.000Z</time>
        <extensions>
          <ns3:TrackPointExtension>
            <ns3:hr>159</ns3:hr>
            <ns3:cad>0</ns3:cad>
          </ns3:TrackPointExtension>
        </extensions>
      </trkpt>
      <trkpt lat="44.67285339720547199249267578125" lon="6.8128197826445102691650390625">
        <ele>1952.5999755859375</ele>
        <time>2026-08-31T06:04:20.000Z</time>
        <extensions>
          <ns3:TrackPointExtension>
            <ns3:hr>158</ns3:hr>
            <ns3:cad>0</ns3:cad>
          </ns3:TrackPointExtension>
        </extensions>
      </trkpt>
      <trkpt lat="44.67284367419779300689697265625" lon="6.81282699108123779296875">
        <ele>1953</ele>
        <time>2026-08-31T06:04:21.000Z</time>
        <extensions>
          <ns3:TrackPointExtension>
            <ns3:hr>158</ns3:hr>
            <ns3:cad>0</ns3:cad>
          </ns3:TrackPointExtension>
        </extensions>
      </trkpt>
      <trkpt lat="44.6728377230465412139892578125" lon="6.8128331936895847320556640625">
        <ele>1953.199951171875</ele>
        <time>2026-08-31T06:04:22.000Z</time>
        <extensions>
          <ns3:TrackPointExtension>
            <ns3:hr>158</ns3:hr>
            <ns3:cad>47</ns3:cad>
          </ns3:TrackPointExtension>
        </extensions>
      </trkpt>
      <trkpt lat="44.6728281676769256591796875" lon="6.8128432519733905792236328125">
        <ele>1953.4000244140625</ele>
        <time>2026-08-31T06:04:23.000Z</time>
        <extensions>
          <ns3:TrackPointExtension>
            <ns3:hr>158</ns3:hr>
            <ns3:cad>47</ns3:cad>
          </ns3:TrackPointExtension>
        </extensions>
      </trkpt>
      <trkpt lat="44.67281886376440525054931640625" lon="6.81285238824784755706787109375">
        <ele>1953.5999755859375</ele>
        <time>2026-08-31T06:04:24.000Z</time>
        <extensions>
          <ns3:TrackPointExtension>
            <ns3:hr>157</ns3:hr>
            <ns3:cad>0</ns3:cad>
          </ns3:TrackPointExtension>
        </extensions>
      </trkpt>
      <trkpt lat="44.67280872166156768798828125" lon="6.812861524522304534912109375">
        <ele>1953.800048828125</ele>
        <time>2026-08-31T06:04:25.000Z</time>
        <extensions>
          <ns3:TrackPointExtension>
            <ns3:hr>157</ns3:hr>
            <ns3:cad>0</ns3:cad>
          </ns3:TrackPointExtension>
        </extensions>
      </trkpt>
      <trkpt lat="44.67280042357742786407470703125" lon="6.8128680624067783355712890625">
        <ele>1953.800048828125</ele>
        <time>2026-08-31T06:04:26.000Z</time>
        <extensions>
          <ns3:TrackPointExtension>
            <ns3:hr>157</ns3:hr>
            <ns3:cad>0</ns3:cad>
          </ns3:TrackPointExtension>
        </extensions>
      </trkpt>
      <trkpt lat="44.67279137112200260162353515625" lon="6.81288071908056735992431640625">
        <ele>1954</ele>
        <time>2026-08-31T06:04:27.000Z</time>
        <extensions>
          <ns3:TrackPointExtension>
            <ns3:hr>157</ns3:hr>
            <ns3:cad>0</ns3:cad>
          </ns3:TrackPointExtension>
        </extensions>
      </trkpt>
      <trkpt lat="44.6727787144482135772705078125" lon="6.812884993851184844970703125">
        <ele>1954.199951171875</ele>
        <time>2026-08-31T06:04:28.000Z</time>
        <extensions>
          <ns3:TrackPointExtension>
            <ns3:hr>157</ns3:hr>
            <ns3:cad>0</ns3:cad>
          </ns3:TrackPointExtension>
        </extensions>
      </trkpt>
      <trkpt lat="44.6727659739553928375244140625" lon="6.81289731524884700775146484375">
        <ele>1954.4000244140625</ele>
        <time>2026-08-31T06:04:29.000Z</time>
        <extensions>
          <ns3:TrackPointExtension>
            <ns3:hr>158</ns3:hr>
            <ns3:cad>0</ns3:cad>
          </ns3:TrackPointExtension>
        </extensions>
      </trkpt>
      <trkpt lat="44.67275700531899929046630859375" lon="6.81290854699909687042236328125">
        <ele>1954.5999755859375</ele>
        <time>2026-08-31T06:04:30.000Z</time>
        <extensions>
          <ns3:TrackPointExtension>
            <ns3:hr>157</ns3:hr>
            <ns3:cad>0</ns3:cad>
          </ns3:TrackPointExtension>
        </extensions>
      </trkpt>
      <trkpt lat="44.672748707234859466552734375" lon="6.81291122920811176300048828125">
        <ele>1954.800048828125</ele>
        <time>2026-08-31T06:04:31.000Z</time>
        <extensions>
          <ns3:TrackPointExtension>
            <ns3:hr>157</ns3:hr>
            <ns3:cad>0</ns3:cad>
          </ns3:TrackPointExtension>
        </extensions>
      </trkpt>
      <trkpt lat="44.67273755930364131927490234375" lon="6.81292288005352020263671875">
        <ele>1955</ele>
        <time>2026-08-31T06:04:32.000Z</time>
        <extensions>
          <ns3:TrackPointExtension>
            <ns3:hr>157</ns3:hr>
            <ns3:cad>0</ns3:cad>
          </ns3:TrackPointExtension>
        </extensions>
      </trkpt>
      <trkpt lat="44.672737307846546173095703125" lon="6.81293117813766002655029296875">
        <ele>1955.199951171875</ele>
        <time>2026-08-31T06:04:33.000Z</time>
        <extensions>
          <ns3:TrackPointExtension>
            <ns3:hr>157</ns3:hr>
            <ns3:cad>0</ns3:cad>
          </ns3:TrackPointExtension>
        </extensions>
      </trkpt>
      <trkpt lat="44.67273772694170475006103515625" lon="6.81293235160410404205322265625">
        <ele>1955.4000244140625</ele>
        <time>2026-08-31T06:04:34.000Z</time>
        <extensions>
          <ns3:TrackPointExtension>
            <ns3:hr>157</ns3:hr>
            <ns3:cad>0</ns3:cad>
          </ns3:TrackPointExtension>
        </extensions>
      </trkpt>
      <trkpt lat="44.672730602324008941650390625" lon="6.8129436671733856201171875">
        <ele>1955.5999755859375</ele>
        <time>2026-08-31T06:04:35.000Z</time>
        <extensions>
          <ns3:TrackPointExtension>
            <ns3:hr>157</ns3:hr>
            <ns3:cad>0</ns3:cad>
          </ns3:TrackPointExtension>
        </extensions>
      </trkpt>
      <trkpt lat="44.67272364534437656402587890625" lon="6.8129503726959228515625">
        <ele>1955.800048828125</ele>
        <time>2026-08-31T06:04:36.000Z</time>
        <extensions>
          <ns3:TrackPointExtension>
            <ns3:hr>158</ns3:hr>
            <ns3:cad>0</ns3:cad>
          </ns3:TrackPointExtension>
        </extensions>
      </trkpt>
      <trkpt lat="44.6727109886705875396728515625" lon="6.81296043097972869873046875">
        <ele>1956</ele>
        <time>2026-08-31T06:04:37.000Z</time>
        <extensions>
          <ns3:TrackPointExtension>
            <ns3:hr>157</ns3:hr>
            <ns3:cad>0</ns3:cad>
          </ns3:TrackPointExtension>
        </extensions>
      </trkpt>
      <trkpt lat="44.6727026067674160003662109375" lon="6.81296604685485363006591796875">
        <ele>1956.199951171875</ele>
        <time>2026-08-31T06:04:38.000Z</time>
        <extensions>
          <ns3:TrackPointExtension>
            <ns3:hr>157</ns3:hr>
            <ns3:cad>0</ns3:cad>
          </ns3:TrackPointExtension>
        </extensions>
      </trkpt>
      <trkpt lat="44.6726915426552295684814453125" lon="6.81297258473932743072509765625">
        <ele>1956.4000244140625</ele>
        <time>2026-08-31T06:04:39.000Z</time>
        <extensions>
          <ns3:TrackPointExtension>
            <ns3:hr>157</ns3:hr>
            <ns3:cad>0</ns3:cad>
          </ns3:TrackPointExtension>
        </extensions>
      </trkpt>
      <trkpt lat="44.6726845018565654754638671875" lon="6.8129797093570232391357421875">
        <ele>1956.5999755859375</ele>
        <time>2026-08-31T06:04:40.000Z</time>
        <extensions>
          <ns3:TrackPointExtension>
            <ns3:hr>157</ns3:hr>
            <ns3:cad>0</ns3:cad>
          </ns3:TrackPointExtension>
        </extensions>
      </trkpt>
      <trkpt lat="44.6726739406585693359375" lon="6.8129958026111125946044921875">
        <ele>1956.800048828125</ele>
        <time>2026-08-31T06:04:41.000Z</time>
        <extensions>
          <ns3:TrackPointExtension>
            <ns3:hr>158</ns3:hr>
            <ns3:cad>0</ns3:cad>
          </ns3:TrackPointExtension>
        </extensions>
      </trkpt>
      <trkpt lat="44.67267058789730072021484375" lon="6.8130021728575229644775390625">
        <ele>1957</ele>
        <time>2026-08-31T06:04:42.000Z</time>
        <extensions>
          <ns3:TrackPointExtension>
            <ns3:hr>157</ns3:hr>
            <ns3:cad>0</ns3:cad>
          </ns3:TrackPointExtension>
        </extensions>
      </trkpt>
      <trkpt lat="44.6726603619754314422607421875" lon="6.81300695054233074188232421875">
        <ele>1957.199951171875</ele>
        <time>2026-08-31T06:04:43.000Z</time>
        <extensions>
          <ns3:TrackPointExtension>
            <ns3:hr>157</ns3:hr>
            <ns3:cad>0</ns3:cad>
          </ns3:TrackPointExtension>
        </extensions>
      </trkpt>
      <trkpt lat="44.6726496331393718719482421875" lon="6.813012063503265380859375">
        <ele>1957.4000244140625</ele>
        <time>2026-08-31T06:04:44.000Z</time>
        <extensions>
          <ns3:TrackPointExtension>
            <ns3:hr>157</ns3:hr>
            <ns3:cad>0</ns3:cad>
          </ns3:TrackPointExtension>
        </extensions>
      </trkpt>
      <trkpt lat="44.67264066450297832489013671875" lon="6.8130169250071048736572265625">
        <ele>1957.5999755859375</ele>
        <time>2026-08-31T06:04:45.000Z</time>
        <extensions>
          <ns3:TrackPointExtension>
            <ns3:hr>157</ns3:hr>
            <ns3:cad>0</ns3:cad>
          </ns3:TrackPointExtension>
        </extensions>
      </trkpt>
      <trkpt lat="44.67263177968561649322509765625" lon="6.813022457063198089599609375">
        <ele>1958</ele>
        <time>2026-08-31T06:04:46.000Z</time>
        <extensions>
          <ns3:TrackPointExtension>
            <ns3:hr>157</ns3:hr>
            <ns3:cad>0</ns3:cad>
          </ns3:TrackPointExtension>
        </extensions>
      </trkpt>
      <trkpt lat="44.67262323014438152313232421875" lon="6.81303276680409908294677734375">
        <ele>1958</ele>
        <time>2026-08-31T06:04:47.000Z</time>
        <extensions>
          <ns3:TrackPointExtension>
            <ns3:hr>157</ns3:hr>
            <ns3:cad>0</ns3:cad>
          </ns3:TrackPointExtension>
        </extensions>
      </trkpt>
      <trkpt lat="44.6726161055266857147216796875" lon="6.8130373768508434295654296875">
        <ele>1958.199951171875</ele>
        <time>2026-08-31T06:04:48.000Z</time>
        <extensions>
          <ns3:TrackPointExtension>
            <ns3:hr>157</ns3:hr>
            <ns3:cad>0</ns3:cad>
          </ns3:TrackPointExtension>
        </extensions>
      </trkpt>
      <trkpt lat="44.67260478995740413665771484375" lon="6.81304684840142726898193359375">
        <ele>1958.4000244140625</ele>
        <time>2026-08-31T06:04:49.000Z</time>
        <extensions>
          <ns3:TrackPointExtension>
            <ns3:hr>157</ns3:hr>
            <ns3:cad>0</ns3:cad>
          </ns3:TrackPointExtension>
        </extensions>
      </trkpt>
      <trkpt lat="44.67259607277810573577880859375" lon="6.8130548112094402313232421875">
        <ele>1958.5999755859375</ele>
        <time>2026-08-31T06:04:50.000Z</time>
        <extensions>
          <ns3:TrackPointExtension>
            <ns3:hr>157</ns3:hr>
            <ns3:cad>0</ns3:cad>
          </ns3:TrackPointExtension>
        </extensions>
      </trkpt>
      <trkpt lat="44.6725882776081562042236328125" lon="6.81306235492229461669921875">
        <ele>1958.800048828125</ele>
        <time>2026-08-31T06:04:51.000Z</time>
        <extensions>
          <ns3:TrackPointExtension>
            <ns3:hr>157</ns3:hr>
            <ns3:cad>0</ns3:cad>
          </ns3:TrackPointExtension>
        </extensions>
      </trkpt>
      <trkpt lat="44.67258333228528499603271484375" lon="6.81306637823581695556640625">
        <ele>1959</ele>
        <time>2026-08-31T06:04:52.000Z</time>
        <extensions>
          <ns3:TrackPointExtension>
            <ns3:hr>157</ns3:hr>
            <ns3:cad>0</ns3:cad>
          </ns3:TrackPointExtension>
        </extensions>
      </trkpt>
      <trkpt lat="44.6725758723914623260498046875" lon="6.813078112900257110595703125">
        <ele>1959.199951171875</ele>
        <time>2026-08-31T06:04:53.000Z</time>
        <extensions>
          <ns3:TrackPointExtension>
            <ns3:hr>157</ns3:hr>
            <ns3:cad>0</ns3:cad>
          </ns3:TrackPointExtension>
        </extensions>
      </trkpt>
      <trkpt lat="44.67256941832602024078369140625" lon="6.81308205239474773406982421875">
        <ele>1959.4000244140625</ele>
        <time>2026-08-31T06:04:54.000Z</time>
        <extensions>
          <ns3:TrackPointExtension>
            <ns3:hr>157</ns3:hr>
            <ns3:cad>0</ns3:cad>
          </ns3:TrackPointExtension>
        </extensions>
      </trkpt>
      <trkpt lat="44.67256824485957622528076171875" lon="6.81309898383915424346923828125">
        <ele>1959.5999755859375</ele>
        <time>2026-08-31T06:04:55.000Z</time>
        <extensions>
          <ns3:TrackPointExtension>
            <ns3:hr>158</ns3:hr>
            <ns3:cad>0</ns3:cad>
          </ns3:TrackPointExtension>
        </extensions>
      </trkpt>
      <trkpt lat="44.6725626289844512939453125" lon="6.81310837157070636749267578125">
        <ele>1959.800048828125</ele>
        <time>2026-08-31T06:04:56.000Z</time>
        <extensions>
          <ns3:TrackPointExtension>
            <ns3:hr>158</ns3:hr>
            <ns3:cad>0</ns3:cad>
          </ns3:TrackPointExtension>
        </extensions>
      </trkpt>
      <trkpt lat="44.6725554205477237701416015625" lon="6.8131138198077678680419921875">
        <ele>1960</ele>
        <time>2026-08-31T06:04:57.000Z</time>
        <extensions>
          <ns3:TrackPointExtension>
            <ns3:hr>158</ns3:hr>
            <ns3:cad>0</ns3:cad>
          </ns3:TrackPointExtension>
        </extensions>
      </trkpt>
      <trkpt lat="44.672548212110996246337890625" lon="6.81312664411962032318115234375">
        <ele>1960.199951171875</ele>
        <time>2026-08-31T06:04:58.000Z</time>
        <extensions>
          <ns3:TrackPointExtension>
            <ns3:hr>158</ns3:hr>
            <ns3:cad>0</ns3:cad>
          </ns3:TrackPointExtension>
        </extensions>
      </trkpt>
      <trkpt lat="44.67254477553069591522216796875" lon="6.81312748230993747711181640625">
        <ele>1960.4000244140625</ele>
        <time>2026-08-31T06:04:59.000Z</time>
        <extensions>
          <ns3:TrackPointExtension>
            <ns3:hr>158</ns3:hr>
            <ns3:cad>0</ns3:cad>
          </ns3:TrackPointExtension>
        </extensions>
      </trkpt>
      <trkpt lat="44.67253589071333408355712890625" lon="6.8131396360695362091064453125">
        <ele>1960.800048828125</ele>
        <time>2026-08-31T06:05:00.000Z</time>
        <extensions>
          <ns3:TrackPointExtension>
            <ns3:hr>159</ns3:hr>
            <ns3:cad>0</ns3:cad>
          </ns3:TrackPointExtension>
        </extensions>
      </trkpt>
      <trkpt lat="44.67252935282886028289794921875" lon="6.813145838677883148193359375">
        <ele>1961</ele>
        <time>2026-08-31T06:05:01.000Z</time>
        <extensions>
          <ns3:TrackPointExtension>
            <ns3:hr>159</ns3:hr>
            <ns3:cad>0</ns3:cad>
          </ns3:TrackPointExtension>
        </extensions>
      </trkpt>
      <trkpt lat="44.67252734117209911346435546875" lon="6.8131590820848941802978515625">
        <ele>1961.199951171875</ele>
        <time>2026-08-31T06:05:02.000Z</time>
        <extensions>
          <ns3:TrackPointExtension>
            <ns3:hr>159</ns3:hr>
            <ns3:cad>0</ns3:cad>
          </ns3:TrackPointExtension>
        </extensions>
      </trkpt>
      <trkpt lat="44.6725259162485599517822265625" lon="6.81316696107387542724609375">
        <ele>1961.4000244140625</ele>
        <time>2026-08-31T06:05:03.000Z</time>
        <extensions>
          <ns3:TrackPointExtension>
            <ns3:hr>159</ns3:hr>
            <ns3:cad>0</ns3:cad>
          </ns3:TrackPointExtension>
        </extensions>
      </trkpt>
      <trkpt lat="44.67252432368695735931396484375" lon="6.813183389604091644287109375">
        <ele>1961.5999755859375</ele>
        <time>2026-08-31T06:05:04.000Z</time>
        <extensions>
          <ns3:TrackPointExtension>
            <ns3:hr>160</ns3:hr>
            <ns3:cad>0</ns3:cad>
          </ns3:TrackPointExtension>
        </extensions>
      </trkpt>
      <trkpt lat="44.67252180911600589752197265625" lon="6.813191436231136322021484375">
        <ele>1961.800048828125</ele>
        <time>2026-08-31T06:05:05.000Z</time>
        <extensions>
          <ns3:TrackPointExtension>
            <ns3:hr>160</ns3:hr>
            <ns3:cad>0</ns3:cad>
          </ns3:TrackPointExtension>
        </extensions>
      </trkpt>
      <trkpt lat="44.67251862399280071258544921875" lon="6.8132016621530055999755859375">
        <ele>1962</ele>
        <time>2026-08-31T06:05:06.000Z</time>
        <extensions>
          <ns3:TrackPointExtension>
            <ns3:hr>161</ns3:hr>
            <ns3:cad>0</ns3:cad>
          </ns3:TrackPointExtension>
        </extensions>
      </trkpt>
      <trkpt lat="44.67251594178378582000732421875" lon="6.81321700103580951690673828125">
        <ele>1962</ele>
        <time>2026-08-31T06:05:07.000Z</time>
        <extensions>
          <ns3:TrackPointExtension>
            <ns3:hr>161</ns3:hr>
            <ns3:cad>0</ns3:cad>
          </ns3:TrackPointExtension>
        </extensions>
      </trkpt>
      <trkpt lat="44.67251141555607318878173828125" lon="6.81322169490158557891845703125">
        <ele>1962.199951171875</ele>
        <time>2026-08-31T06:05:08.000Z</time>
        <extensions>
          <ns3:TrackPointExtension>
            <ns3:hr>161</ns3:hr>
            <ns3:cad>0</ns3:cad>
          </ns3:TrackPointExtension>
        </extensions>
      </trkpt>
      <trkpt lat="44.67250471003353595733642578125" lon="6.813235022127628326416015625">
        <ele>1962.4000244140625</ele>
        <time>2026-08-31T06:05:09.000Z</time>
        <extensions>
          <ns3:TrackPointExtension>
            <ns3:hr>162</ns3:hr>
            <ns3:cad>0</ns3:cad>
          </ns3:TrackPointExtension>
        </extensions>
      </trkpt>
      <trkpt lat="44.67249984852969646453857421875" lon="6.8132413923740386962890625">
        <ele>1962.5999755859375</ele>
        <time>2026-08-31T06:05:10.000Z</time>
        <extensions>
          <ns3:TrackPointExtension>
            <ns3:hr>164</ns3:hr>
            <ns3:cad>0</ns3:cad>
          </ns3:TrackPointExtension>
        </extensions>
      </trkpt>
      <trkpt lat="44.672497920691967010498046875" lon="6.8132519535720348358154296875">
        <ele>1962.800048828125</ele>
        <time>2026-08-31T06:05:11.000Z</time>
        <extensions>
          <ns3:TrackPointExtension>
            <ns3:hr>164</ns3:hr>
            <ns3:cad>0</ns3:cad>
          </ns3:TrackPointExtension>
        </extensions>
      </trkpt>
      <trkpt lat="44.67249532230198383331298828125" lon="6.8132563121616840362548828125">
        <ele>1963</ele>
        <time>2026-08-31T06:05:12.000Z</time>
        <extensions>
          <ns3:TrackPointExtension>
            <ns3:hr>164</ns3:hr>
            <ns3:cad>0</ns3:cad>
          </ns3:TrackPointExtension>
        </extensions>
      </trkpt>
      <trkpt lat="44.67249532230198383331298828125" lon="6.8132563121616840362548828125">
        <ele>1963.199951171875</ele>
        <time>2026-08-31T06:05:13.000Z</time>
        <extensions>
          <ns3:TrackPointExtension>
            <ns3:hr>164</ns3:hr>
            <ns3:cad>0</ns3:cad>
          </ns3:TrackPointExtension>
        </extensions>
      </trkpt>
      <trkpt lat="44.67249532230198383331298828125" lon="6.8132563121616840362548828125">
        <ele>1963.4000244140625</ele>
        <time>2026-08-31T06:05:14.000Z</time>
        <extensions>
          <ns3:TrackPointExtension>
            <ns3:hr>165</ns3:hr>
            <ns3:cad>0</ns3:cad>
          </ns3:TrackPointExtension>
        </extensions>
      </trkpt>
      <trkpt lat="44.67249532230198383331298828125" lon="6.8132563121616840362548828125">
        <ele>1963.4000244140625</ele>
        <time>2026-08-31T06:05:15.000Z</time>
        <extensions>
          <ns3:TrackPointExtension>
            <ns3:hr>165</ns3:hr>
            <ns3:cad>0</ns3:cad>
          </ns3:TrackPointExtension>
        </extensions>
      </trkpt>
      <trkpt lat="44.67249532230198383331298828125" lon="6.8132563121616840362548828125">
        <ele>1963.4000244140625</ele>
        <time>2026-08-31T06:05:16.000Z</time>
        <extensions>
          <ns3:TrackPointExtension>
            <ns3:hr>165</ns3:hr>
            <ns3:cad>0</ns3:cad>
          </ns3:TrackPointExtension>
        </extensions>
      </trkpt>
      <trkpt lat="44.67249532230198383331298828125" lon="6.8132563121616840362548828125">
        <ele>1963.4000244140625</ele>
        <time>2026-08-31T06:05:17.000Z</time>
        <extensions>
          <ns3:TrackPointExtension>
            <ns3:hr>165</ns3:hr>
            <ns3:cad>0</ns3:cad>
          </ns3:TrackPointExtension>
        </extensions>
      </trkpt>
      <trkpt lat="44.67249532230198383331298828125" lon="6.8132563121616840362548828125">
        <ele>1963.4000244140625</ele>
        <time>2026-08-31T06:05:18.000Z</time>
        <extensions>
          <ns3:TrackPointExtension>
            <ns3:hr>166</ns3:hr>
            <ns3:cad>0</ns3:cad>
          </ns3:TrackPointExtension>
        </extensions>
      </trkpt>
      <trkpt lat="44.67249532230198383331298828125" lon="6.8132563121616840362548828125">
        <ele>1963.4000244140625</ele>
        <time>2026-08-31T06:05:19.000Z</time>
        <extensions>
          <ns3:TrackPointExtension>
            <ns3:hr>166</ns3:hr>
            <ns3:cad>0</ns3:cad>
          </ns3:TrackPointExtension>
        </extensions>
      </trkpt>
      <trkpt lat="44.67249481938779354095458984375" lon="6.81325681507587432861328125">
        <ele>1963.4000244140625</ele>
        <time>2026-08-31T06:05:20.000Z</time>
        <extensions>
          <ns3:TrackPointExtension>
            <ns3:hr>166</ns3:hr>
            <ns3:cad>0</ns3:cad>
          </ns3:TrackPointExtension>
        </extensions>
      </trkpt>
      <trkpt lat="44.67249062843620777130126953125" lon="6.81327533908188343048095703125">
        <ele>1963.4000244140625</ele>
        <time>2026-08-31T06:05:21.000Z</time>
        <extensions>
          <ns3:TrackPointExtension>
            <ns3:hr>166</ns3:hr>
            <ns3:cad>0</ns3:cad>
          </ns3:TrackPointExtension>
        </extensions>
      </trkpt>
      <trkpt lat="44.67248895205557346343994140625" lon="6.8132841400802135467529296875">
        <ele>1963.4000244140625</ele>
        <time>2026-08-31T06:05:22.000Z</time>
        <extensions>
          <ns3:TrackPointExtension>
            <ns3:hr>165</ns3:hr>
            <ns3:cad>0</ns3:cad>
          </ns3:TrackPointExtension>
        </extensions>
      </trkpt>
      <trkpt lat="44.6724866889417171478271484375" lon="6.813301406800746917724609375">
        <ele>1963.5999755859375</ele>
        <time>2026-08-31T06:05:23.000Z</time>
        <extensions>
          <ns3:TrackPointExtension>
            <ns3:hr>165</ns3:hr>
            <ns3:cad>0</ns3:cad>
          </ns3:TrackPointExtension>
        </extensions>
      </trkpt>
      <trkpt lat="44.6724793128669261932373046875" lon="6.81330970488488674163818359375">
        <ele>1963.800048828125</ele>
        <time>2026-08-31T06:05:24.000Z</time>
        <extensions>
          <ns3:TrackPointExtension>
            <ns3:hr>165</ns3:hr>
            <ns3:cad>0</ns3:cad>
          </ns3:TrackPointExtension>
        </extensions>
      </trkpt>
      <trkpt lat="44.67247419990599155426025390625" lon="6.813324205577373504638671875">
        <ele>1964.199951171875</ele>
        <time>2026-08-31T06:05:25.000Z</time>
        <extensions>
          <ns3:TrackPointExtension>
            <ns3:hr>164</ns3:hr>
            <ns3:cad>0</ns3:cad>
          </ns3:TrackPointExtension>
        </extensions>
      </trkpt>
      <trkpt lat="44.67247168533504009246826171875" lon="6.8133352696895599365234375">
        <ele>1964.4000244140625</ele>
        <time>2026-08-31T06:05:26.000Z</time>
        <extensions>
          <ns3:TrackPointExtension>
            <ns3:hr>164</ns3:hr>
            <ns3:cad>0</ns3:cad>
          </ns3:TrackPointExtension>
        </extensions>
      </trkpt>
      <trkpt lat="44.67246866784989833831787109375" lon="6.813350021839141845703125">
        <ele>1964.5999755859375</ele>
        <time>2026-08-31T06:05:27.000Z</time>
        <extensions>
          <ns3:TrackPointExtension>
            <ns3:hr>164</ns3:hr>
            <ns3:cad>0</ns3:cad>
          </ns3:TrackPointExtension>
        </extensions>
      </trkpt>
      <trkpt lat="44.672465063631534576416015625" lon="6.813363097608089447021484375">
        <ele>1964.5999755859375</ele>
        <time>2026-08-31T06:05:28.000Z</time>
        <extensions>
          <ns3:TrackPointExtension>
            <ns3:hr>164</ns3:hr>
            <ns3:cad>0</ns3:cad>
          </ns3:TrackPointExtension>
        </extensions>
      </trkpt>
      <trkpt lat="44.67246229760348796844482421875" lon="6.8133770115673542022705078125">
        <ele>1964.800048828125</ele>
        <time>2026-08-31T06:05:29.000Z</time>
        <extensions>
          <ns3:TrackPointExtension>
            <ns3:hr>163</ns3:hr>
            <ns3:cad>0</ns3:cad>
          </ns3:TrackPointExtension>
        </extensions>
      </trkpt>
      <trkpt lat="44.6724561788141727447509765625" lon="6.8133920989930629730224609375">
        <ele>1964.800048828125</ele>
        <time>2026-08-31T06:05:30.000Z</time>
        <extensions>
          <ns3:TrackPointExtension>
            <ns3:hr>163</ns3:hr>
            <ns3:cad>0</ns3:cad>
          </ns3:TrackPointExtension>
        </extensions>
      </trkpt>
      <trkpt lat="44.67245441861450672149658203125" lon="6.81340626440942287445068359375">
        <ele>1965</ele>
        <time>2026-08-31T06:05:31.000Z</time>
        <extensions>
          <ns3:TrackPointExtension>
            <ns3:hr>162</ns3:hr>
            <ns3:cad>0</ns3:cad>
          </ns3:TrackPointExtension>
        </extensions>
      </trkpt>
      <trkpt lat="44.67244922183454036712646484375" lon="6.813413389027118682861328125">
        <ele>1965.199951171875</ele>
        <time>2026-08-31T06:05:32.000Z</time>
        <extensions>
          <ns3:TrackPointExtension>
            <ns3:hr>162</ns3:hr>
            <ns3:cad>0</ns3:cad>
          </ns3:TrackPointExtension>
        </extensions>
      </trkpt>
      <trkpt lat="44.672440253198146820068359375" lon="6.813427470624446868896484375">
        <ele>1965.4000244140625</ele>
        <time>2026-08-31T06:05:33.000Z</time>
        <extensions>
          <ns3:TrackPointExtension>
            <ns3:hr>163</ns3:hr>
            <ns3:cad>0</ns3:cad>
          </ns3:TrackPointExtension>
        </extensions>
      </trkpt>
      <trkpt lat="44.6724370680749416351318359375" lon="6.81343308649957180023193359375">
        <ele>1965.4000244140625</ele>
        <time>2026-08-31T06:05:34.000Z</time>
        <extensions>
          <ns3:TrackPointExtension>
            <ns3:hr>163</ns3:hr>
            <ns3:cad>53</ns3:cad>
          </ns3:TrackPointExtension>
        </extensions>
      </trkpt>
      <trkpt lat="44.67243455350399017333984375" lon="6.8134454078972339630126953125">
        <ele>1965.5999755859375</ele>
        <time>2026-08-31T06:05:35.000Z</time>
        <extensions>
          <ns3:TrackPointExtension>
            <ns3:hr>163</ns3:hr>
            <ns3:cad>53</ns3:cad>
          </ns3:TrackPointExtension>
        </extensions>
      </trkpt>
      <trkpt lat="44.67243254184722900390625" lon="6.81345806457102298736572265625">
        <ele>1965.800048828125</ele>
        <time>2026-08-31T06:05:36.000Z</time>
        <extensions>
          <ns3:TrackPointExtension>
            <ns3:hr>164</ns3:hr>
            <ns3:cad>53</ns3:cad>
          </ns3:TrackPointExtension>
        </extensions>
      </trkpt>
      <trkpt lat="44.67243229039013385772705078125" lon="6.81346845813095569610595703125">
        <ele>1966</ele>
        <time>2026-08-31T06:05:37.000Z</time>
        <extensions>
          <ns3:TrackPointExtension>
            <ns3:hr>165</ns3:hr>
            <ns3:cad>53</ns3:cad>
          </ns3:TrackPointExtension>
        </extensions>
      </trkpt>
      <trkpt lat="44.672436900436878204345703125" lon="6.81347348727285861968994140625">
        <ele>1966</ele>
        <time>2026-08-31T06:05:38.000Z</time>
        <extensions>
          <ns3:TrackPointExtension>
            <ns3:hr>165</ns3:hr>
            <ns3:cad>53</ns3:cad>
          </ns3:TrackPointExtension>
        </extensions>
      </trkpt>
      <trkpt lat="44.6724441088736057281494140625" lon="6.81347315199673175811767578125">
        <ele>1966.199951171875</ele>
        <time>2026-08-31T06:05:39.000Z</time>
        <extensions>
          <ns3:TrackPointExtension>
            <ns3:hr>164</ns3:hr>
            <ns3:cad>53</ns3:cad>
          </ns3:TrackPointExtension>
        </extensions>
      </trkpt>
      <trkpt lat="44.672448970377445220947265625" lon="6.81346477009356021881103515625">
        <ele>1966.4000244140625</ele>
        <time>2026-08-31T06:05:40.000Z</time>
        <extensions>
          <ns3:TrackPointExtension>
            <ns3:hr>164</ns3:hr>
            <ns3:cad>53</ns3:cad>
          </ns3:TrackPointExtension>
        </extensions>
      </trkpt>
      <trkpt lat="44.67245207168161869049072265625" lon="6.81345571763813495635986328125">
        <ele>1966.4000244140625</ele>
        <time>2026-08-31T06:05:41.000Z</time>
        <extensions>
          <ns3:TrackPointExtension>
            <ns3:hr>164</ns3:hr>
            <ns3:cad>0</ns3:cad>
          </ns3:TrackPointExtension>
        </extensions>
      </trkpt>
      <trkpt lat="44.67246229760348796844482421875" lon="6.8134474195539951324462890625">
        <ele>1966.5999755859375</ele>
        <time>2026-08-31T06:05:42.000Z</time>
        <extensions>
          <ns3:TrackPointExtension>
            <ns3:hr>165</ns3:hr>
            <ns3:cad>0</ns3:cad>
          </ns3:TrackPointExtension>
        </extensions>
      </trkpt>
      <trkpt lat="44.672473110258579254150390625" lon="6.8134413845837116241455078125">
        <ele>1966.800048828125</ele>
        <time>2026-08-31T06:05:43.000Z</time>
        <extensions>
          <ns3:TrackPointExtension>
            <ns3:hr>165</ns3:hr>
            <ns3:cad>0</ns3:cad>
          </ns3:TrackPointExtension>
        </extensions>
      </trkpt>
      <trkpt lat="44.6724848449230194091796875" lon="6.81344029493629932403564453125">
        <ele>1967</ele>
        <time>2026-08-31T06:05:44.000Z</time>
        <extensions>
          <ns3:TrackPointExtension>
            <ns3:hr>165</ns3:hr>
            <ns3:cad>0</ns3:cad>
          </ns3:TrackPointExtension>
        </extensions>
      </trkpt>
      <trkpt lat="44.67249414883553981781005859375" lon="6.81344230659306049346923828125">
        <ele>1967.199951171875</ele>
        <time>2026-08-31T06:05:45.000Z</time>
        <extensions>
          <ns3:TrackPointExtension>
            <ns3:hr>165</ns3:hr>
            <ns3:cad>0</ns3:cad>
          </ns3:TrackPointExtension>
        </extensions>
      </trkpt>
      <trkpt lat="44.6724984236061573028564453125" lon="6.8134571425616741180419921875">
        <ele>1967.4000244140625</ele>
        <time>2026-08-31T06:05:46.000Z</time>
        <extensions>
          <ns3:TrackPointExtension>
            <ns3:hr>165</ns3:hr>
            <ns3:cad>0</ns3:cad>
          </ns3:TrackPointExtension>
        </extensions>
      </trkpt>
      <trkpt lat="44.67249800451099872589111328125" lon="6.8134692125022411346435546875">
        <ele>1967.5999755859375</ele>
        <time>2026-08-31T06:05:47.000Z</time>
        <extensions>
          <ns3:TrackPointExtension>
            <ns3:hr>166</ns3:hr>
            <ns3:cad>0</ns3:cad>
          </ns3:TrackPointExtension>
        </extensions>
      </trkpt>
      <trkpt lat="44.6724970825016498565673828125" lon="6.81348019279539585113525390625">
        <ele>1967.5999755859375</ele>
        <time>2026-08-31T06:05:48.000Z</time>
        <extensions>
          <ns3:TrackPointExtension>
            <ns3:hr>166</ns3:hr>
            <ns3:cad>0</ns3:cad>
          </ns3:TrackPointExtension>
        </extensions>
      </trkpt>
      <trkpt lat="44.6724950708448886871337890625" lon="6.81349595077335834503173828125">
        <ele>1967.800048828125</ele>
        <time>2026-08-31T06:05:49.000Z</time>
        <extensions>
          <ns3:TrackPointExtension>
            <ns3:hr>166</ns3:hr>
            <ns3:cad>0</ns3:cad>
          </ns3:TrackPointExtension>
        </extensions>
      </trkpt>
      <trkpt lat="44.67249364592134952545166015625" lon="6.81350584141910076141357421875">
        <ele>1968</ele>
        <time>2026-08-31T06:05:50.000Z</time>
        <extensions>
          <ns3:TrackPointExtension>
            <ns3:hr>166</ns3:hr>
            <ns3:cad>0</ns3:cad>
          </ns3:TrackPointExtension>
        </extensions>
      </trkpt>
      <trkpt lat="44.6724900417029857635498046875" lon="6.81352101266384124755859375">
        <ele>1968.199951171875</ele>
        <time>2026-08-31T06:05:51.000Z</time>
        <extensions>
          <ns3:TrackPointExtension>
            <ns3:hr>166</ns3:hr>
            <ns3:cad>0</ns3:cad>
          </ns3:TrackPointExtension>
        </extensions>
      </trkpt>
      <trkpt lat="44.67249087989330291748046875" lon="6.81352998130023479461669921875">
        <ele>1968.4000244140625</ele>
        <time>2026-08-31T06:05:52.000Z</time>
        <extensions>
          <ns3:TrackPointExtension>
            <ns3:hr>167</ns3:hr>
            <ns3:cad>0</ns3:cad>
          </ns3:TrackPointExtension>
        </extensions>
      </trkpt>
      <trkpt lat="44.672493226826190948486328125" lon="6.81354674510657787322998046875">
        <ele>1968.5999755859375</ele>
        <time>2026-08-31T06:05:53.000Z</time>
        <extensions>
          <ns3:TrackPointExtension>
            <ns3:hr>167</ns3:hr>
            <ns3:cad>0</ns3:cad>
          </ns3:TrackPointExtension>
        </extensions>
      </trkpt>
      <trkpt lat="44.67249699868261814117431640625" lon="6.81355680339038372039794921875">
        <ele>1968.800048828125</ele>
        <time>2026-08-31T06:05:54.000Z</time>
        <extensions>
          <ns3:TrackPointExtension>
            <ns3:hr>166</ns3:hr>
            <ns3:cad>0</ns3:cad>
          </ns3:TrackPointExtension>
        </extensions>
      </trkpt>
      <trkpt lat="44.67250160872936248779296875" lon="6.8135726451873779296875">
        <ele>1969</ele>
        <time>2026-08-31T06:05:55.000Z</time>
        <extensions>
          <ns3:TrackPointExtension>
            <ns3:hr>166</ns3:hr>
            <ns3:cad>0</ns3:cad>
          </ns3:TrackPointExtension>
        </extensions>
      </trkpt>
      <trkpt lat="44.672504961490631103515625" lon="6.8135835416615009307861328125">
        <ele>1969.199951171875</ele>
        <time>2026-08-31T06:05:56.000Z</time>
        <extensions>
          <ns3:TrackPointExtension>
            <ns3:hr>165</ns3:hr>
            <ns3:cad>0</ns3:cad>
          </ns3:TrackPointExtension>
        </extensions>
      </trkpt>
      <trkpt lat="44.67250504530966281890869140625" lon="6.81358882226049900054931640625">
        <ele>1969.4000244140625</ele>
        <time>2026-08-31T06:05:57.000Z</time>
        <extensions>
          <ns3:TrackPointExtension>
            <ns3:hr>163</ns3:hr>
            <ns3:cad>0</ns3:cad>
          </ns3:TrackPointExtension>
        </extensions>
      </trkpt>
      <trkpt lat="44.6725094877183437347412109375" lon="6.81359938345849514007568359375">
        <ele>1969.5999755859375</ele>
        <time>2026-08-31T06:05:58.000Z</time>
        <extensions>
          <ns3:TrackPointExtension>
            <ns3:hr>161</ns3:hr>
            <ns3:cad>0</ns3:cad>
          </ns3:TrackPointExtension>
        </extensions>
      </trkpt>
      <trkpt lat="44.672510325908660888671875" lon="6.8136063404381275177001953125">
        <ele>1969.5999755859375</ele>
        <time>2026-08-31T06:05:59.000Z</time>
        <extensions>
          <ns3:TrackPointExtension>
            <ns3:hr>161</ns3:hr>
            <ns3:cad>0</ns3:cad>
          </ns3:TrackPointExtension>
        </extensions>
      </trkpt>
      <trkpt lat="44.67251409776508808135986328125" lon="6.81362285278737545013427734375">
        <ele>1969.800048828125</ele>
        <time>2026-08-31T06:06:00.000Z</time>
        <extensions>
          <ns3:TrackPointExtension>
            <ns3:hr>161</ns3:hr>
            <ns3:cad>0</ns3:cad>
          </ns3:TrackPointExtension>
        </extensions>
      </trkpt>
      <trkpt lat="44.67252063564956188201904296875" lon="6.8136345036327838897705078125">
        <ele>1970.199951171875</ele>
        <time>2026-08-31T06:06:01.000Z</time>
        <extensions>
          <ns3:TrackPointExtension>
            <ns3:hr>160</ns3:hr>
            <ns3:cad>0</ns3:cad>
          </ns3:TrackPointExtension>
        </extensions>
      </trkpt>
      <trkpt lat="44.672524742782115936279296875" lon="6.81363944895565509796142578125">
        <ele>1970.4000244140625</ele>
        <time>2026-08-31T06:06:02.000Z</time>
        <extensions>
          <ns3:TrackPointExtension>
            <ns3:hr>160</ns3:hr>
            <ns3:cad>0</ns3:cad>
          </ns3:TrackPointExtension>
        </extensions>
      </trkpt>
      <trkpt lat="44.67253136448562145233154296875" lon="6.81365487165749073028564453125">
        <ele>1970.5999755859375</ele>
        <time>2026-08-31T06:06:03.000Z</time>
        <extensions>
          <ns3:TrackPointExtension>
            <ns3:hr>160</ns3:hr>
            <ns3:cad>0</ns3:cad>
          </ns3:TrackPointExtension>
        </extensions>
      </trkpt>
      <trkpt lat="44.6725322864949703216552734375" lon="6.81366308592259883880615234375">
        <ele>1970.800048828125</ele>
        <time>2026-08-31T06:06:04.000Z</time>
        <extensions>
          <ns3:TrackPointExtension>
            <ns3:hr>160</ns3:hr>
            <ns3:cad>0</ns3:cad>
          </ns3:TrackPointExtension>
        </extensions>
      </trkpt>
      <trkpt lat="44.672535471618175506591796875" lon="6.813680939376354217529296875">
        <ele>1971</ele>
        <time>2026-08-31T06:06:05.000Z</time>
        <extensions>
          <ns3:TrackPointExtension>
            <ns3:hr>161</ns3:hr>
            <ns3:cad>0</ns3:cad>
          </ns3:TrackPointExtension>
        </extensions>
      </trkpt>
      <trkpt lat="44.67253379523754119873046875" lon="6.813692338764667510986328125">
        <ele>1971.199951171875</ele>
        <time>2026-08-31T06:06:06.000Z</time>
        <extensions>
          <ns3:TrackPointExtension>
            <ns3:hr>161</ns3:hr>
            <ns3:cad>0</ns3:cad>
          </ns3:TrackPointExtension>
        </extensions>
      </trkpt>
      <trkpt lat="44.67253538779914379119873046875" lon="6.81370600126683712005615234375">
        <ele>1971.4000244140625</ele>
        <time>2026-08-31T06:06:07.000Z</time>
        <extensions>
          <ns3:TrackPointExtension>
            <ns3:hr>160</ns3:hr>
            <ns3:cad>0</ns3:cad>
          </ns3:TrackPointExtension>
        </extensions>
      </trkpt>
      <trkpt lat="44.67254058457911014556884765625" lon="6.81371773593127727508544921875">
        <ele>1971.800048828125</ele>
        <time>2026-08-31T06:06:08.000Z</time>
        <extensions>
          <ns3:TrackPointExtension>
            <ns3:hr>160</ns3:hr>
            <ns3:cad>0</ns3:cad>
          </ns3:TrackPointExtension>
        </extensions>
      </trkpt>
      <trkpt lat="44.6725411713123321533203125" lon="6.81372494436800479888916015625">
        <ele>1972</ele>
        <time>2026-08-31T06:06:09.000Z</time>
        <extensions>
          <ns3:TrackPointExtension>
            <ns3:hr>160</ns3:hr>
            <ns3:cad>0</ns3:cad>
          </ns3:TrackPointExtension>
        </extensions>
      </trkpt>
      <trkpt lat="44.67254611663520336151123046875" lon="6.81374053470790386199951171875">
        <ele>1972.199951171875</ele>
        <time>2026-08-31T06:06:10.000Z</time>
        <extensions>
          <ns3:TrackPointExtension>
            <ns3:hr>161</ns3:hr>
            <ns3:cad>0</ns3:cad>
          </ns3:TrackPointExtension>
        </extensions>
      </trkpt>
      <trkpt lat="44.67254645191133022308349609375" lon="6.81374925188720226287841796875">
        <ele>1972.199951171875</ele>
        <time>2026-08-31T06:06:11.000Z</time>
        <extensions>
          <ns3:TrackPointExtension>
            <ns3:hr>161</ns3:hr>
            <ns3:cad>0</ns3:cad>
          </ns3:TrackPointExtension>
        </extensions>
      </trkpt>
      <trkpt lat="44.67254846356809139251708984375" lon="6.81376718915998935699462890625">
        <ele>1972.4000244140625</ele>
        <time>2026-08-31T06:06:12.000Z</time>
        <extensions>
          <ns3:TrackPointExtension>
            <ns3:hr>161</ns3:hr>
            <ns3:cad>0</ns3:cad>
          </ns3:TrackPointExtension>
        </extensions>
      </trkpt>
      <trkpt lat="44.6725487150251865386962890625" lon="6.813773810863494873046875">
        <ele>1972.5999755859375</ele>
        <time>2026-08-31T06:06:13.000Z</time>
        <extensions>
          <ns3:TrackPointExtension>
            <ns3:hr>161</ns3:hr>
            <ns3:cad>0</ns3:cad>
          </ns3:TrackPointExtension>
        </extensions>
      </trkpt>
      <trkpt lat="44.67255081050097942352294921875" lon="6.8137766607105731964111328125">
        <ele>1972.800048828125</ele>
        <time>2026-08-31T06:06:14.000Z</time>
        <extensions>
          <ns3:TrackPointExtension>
            <ns3:hr>161</ns3:hr>
            <ns3:cad>0</ns3:cad>
          </ns3:TrackPointExtension>
        </extensions>
      </trkpt>
      <trkpt lat="44.67255391180515289306640625" lon="6.8137843720614910125732421875">
        <ele>1973</ele>
        <time>2026-08-31T06:06:15.000Z</time>
        <extensions>
          <ns3:TrackPointExtension>
            <ns3:hr>161</ns3:hr>
            <ns3:cad>0</ns3:cad>
          </ns3:TrackPointExtension>
        </extensions>
      </trkpt>
      <trkpt lat="44.6725617907941341400146484375" lon="6.81380289606750011444091796875">
        <ele>1973.4000244140625</ele>
        <time>2026-08-31T06:06:16.000Z</time>
        <extensions>
          <ns3:TrackPointExtension>
            <ns3:hr>161</ns3:hr>
            <ns3:cad>0</ns3:cad>
          </ns3:TrackPointExtension>
        </extensions>
      </trkpt>
      <trkpt lat="44.67256338335573673248291015625" lon="6.81381127797067165374755859375">
        <ele>1973.5999755859375</ele>
        <time>2026-08-31T06:06:17.000Z</time>
        <extensions>
          <ns3:TrackPointExtension>
            <ns3:hr>161</ns3:hr>
            <ns3:cad>0</ns3:cad>
          </ns3:TrackPointExtension>
        </extensions>
      </trkpt>
      <trkpt lat="44.67256153933703899383544921875" lon="6.813818402588367462158203125">
        <ele>1973.800048828125</ele>
        <time>2026-08-31T06:06:18.000Z</time>
        <extensions>
          <ns3:TrackPointExtension>
            <ns3:hr>161</ns3:hr>
            <ns3:cad>0</ns3:cad>
          </ns3:TrackPointExtension>
        </extensions>
      </trkpt>
      <trkpt lat="44.67256195843219757080078125" lon="6.813829801976680755615234375">
        <ele>1974</ele>
        <time>2026-08-31T06:06:19.000Z</time>
        <extensions>
          <ns3:TrackPointExtension>
            <ns3:hr>162</ns3:hr>
            <ns3:cad>0</ns3:cad>
          </ns3:TrackPointExtension>
        </extensions>
      </trkpt>
      <trkpt lat="44.67256271280348300933837890625" lon="6.81383759714663028717041015625">
        <ele>1974.199951171875</ele>
        <time>2026-08-31T06:06:20.000Z</time>
        <extensions>
          <ns3:TrackPointExtension>
            <ns3:hr>164</ns3:hr>
            <ns3:cad>0</ns3:cad>
          </ns3:TrackPointExtension>
        </extensions>
      </trkpt>
      <trkpt lat="44.6725695021450519561767578125" lon="6.81384966708719730377197265625">
        <ele>1974.5999755859375</ele>
        <time>2026-08-31T06:06:21.000Z</time>
        <extensions>
          <ns3:TrackPointExtension>
            <ns3:hr>164</ns3:hr>
            <ns3:cad>0</ns3:cad>
          </ns3:TrackPointExtension>
        </extensions>
      </trkpt>
      <trkpt lat="44.67257075943052768707275390625" lon="6.8138591386377811431884765625">
        <ele>1974.800048828125</ele>
        <time>2026-08-31T06:06:22.000Z</time>
        <extensions>
          <ns3:TrackPointExtension>
            <ns3:hr>164</ns3:hr>
            <ns3:cad>0</ns3:cad>
          </ns3:TrackPointExtension>
        </extensions>
      </trkpt>
      <trkpt lat="44.6725758723914623260498046875" lon="6.8138762377202510833740234375">
        <ele>1975</ele>
        <time>2026-08-31T06:06:23.000Z</time>
        <extensions>
          <ns3:TrackPointExtension>
            <ns3:hr>165</ns3:hr>
            <ns3:cad>0</ns3:cad>
          </ns3:TrackPointExtension>
        </extensions>
      </trkpt>
      <trkpt lat="44.67258031480014324188232421875" lon="6.81388847529888153076171875">
        <ele>1975.199951171875</ele>
        <time>2026-08-31T06:06:24.000Z</time>
        <extensions>
          <ns3:TrackPointExtension>
            <ns3:hr>164</ns3:hr>
            <ns3:cad>0</ns3:cad>
          </ns3:TrackPointExtension>
        </extensions>
      </trkpt>
      <trkpt lat="44.6725829131901264190673828125" lon="6.813902556896209716796875">
        <ele>1975.4000244140625</ele>
        <time>2026-08-31T06:06:25.000Z</time>
        <extensions>
          <ns3:TrackPointExtension>
            <ns3:hr>164</ns3:hr>
            <ns3:cad>0</ns3:cad>
          </ns3:TrackPointExtension>
        </extensions>
      </trkpt>
      <trkpt lat="44.67258601449429988861083984375" lon="6.8139173090457916259765625">
        <ele>1975.5999755859375</ele>
        <time>2026-08-31T06:06:26.000Z</time>
        <extensions>
          <ns3:TrackPointExtension>
            <ns3:hr>164</ns3:hr>
            <ns3:cad>0</ns3:cad>
          </ns3:TrackPointExtension>
        </extensions>
      </trkpt>
      <trkpt lat="44.67258685268461704254150390625" lon="6.81392594240605831146240234375">
        <ele>1975.5999755859375</ele>
        <time>2026-08-31T06:06:27.000Z</time>
        <extensions>
          <ns3:TrackPointExtension>
            <ns3:hr>164</ns3:hr>
            <ns3:cad>0</ns3:cad>
          </ns3:TrackPointExtension>
        </extensions>
      </trkpt>
      <trkpt lat="44.6725882776081562042236328125" lon="6.81393616832792758941650390625">
        <ele>1975.800048828125</ele>
        <time>2026-08-31T06:06:28.000Z</time>
        <extensions>
          <ns3:TrackPointExtension>
            <ns3:hr>164</ns3:hr>
            <ns3:cad>0</ns3:cad>
          </ns3:TrackPointExtension>
        </extensions>
      </trkpt>
      <trkpt lat="44.6725906245410442352294921875" lon="6.81394890882074832916259765625">
        <ele>1976</ele>
        <time>2026-08-31T06:06:29.000Z</time>
        <extensions>
          <ns3:TrackPointExtension>
            <ns3:hr>164</ns3:hr>
            <ns3:cad>0</ns3:cad>
          </ns3:TrackPointExtension>
        </extensions>
      </trkpt>
      <trkpt lat="44.67258970253169536590576171875" lon="6.81396097876131534576416015625">
        <ele>1976.199951171875</ele>
        <time>2026-08-31T06:06:30.000Z</time>
        <extensions>
          <ns3:TrackPointExtension>
            <ns3:hr>163</ns3:hr>
            <ns3:cad>0</ns3:cad>
          </ns3:TrackPointExtension>
        </extensions>
      </trkpt>
      <trkpt lat="44.67259758152067661285400390625" lon="6.8139761500060558319091796875">
        <ele>1976.4000244140625</ele>
        <time>2026-08-31T06:06:31.000Z</time>
        <extensions>
          <ns3:TrackPointExtension>
            <ns3:hr>164</ns3:hr>
            <ns3:cad>0</ns3:cad>
          </ns3:TrackPointExtension>
        </extensions>
      </trkpt>
      <trkpt lat="44.67260085046291351318359375" lon="6.81398830376565456390380859375">
        <ele>1976.5999755859375</ele>
        <time>2026-08-31T06:06:32.000Z</time>
        <extensions>
          <ns3:TrackPointExtension>
            <ns3:hr>165</ns3:hr>
            <ns3:cad>45</ns3:cad>
          </ns3:TrackPointExtension>
        </extensions>
      </trkpt>
      <trkpt lat="44.6726087294518947601318359375" lon="6.814006827771663665771484375">
        <ele>1977</ele>
        <time>2026-08-31T06:06:33.000Z</time>
        <extensions>
          <ns3:TrackPointExtension>
            <ns3:hr>165</ns3:hr>
            <ns3:cad>45</ns3:cad>
          </ns3:TrackPointExtension>
        </extensions>
      </trkpt>
      <trkpt lat="44.67261401005089282989501953125" lon="6.81402015499770641326904296875">
        <ele>1977.199951171875</ele>
        <time>2026-08-31T06:06:34.000Z</time>
        <extensions>
          <ns3:TrackPointExtension>
            <ns3:hr>165</ns3:hr>
            <ns3:cad>45</ns3:cad>
          </ns3:TrackPointExtension>
        </extensions>
      </trkpt>
      <trkpt lat="44.67261803336441516876220703125" lon="6.81403063237667083740234375">
        <ele>1977.4000244140625</ele>
        <time>2026-08-31T06:06:35.000Z</time>
        <extensions>
          <ns3:TrackPointExtension>
            <ns3:hr>166</ns3:hr>
            <ns3:cad>45</ns3:cad>
          </ns3:TrackPointExtension>
        </extensions>
      </trkpt>
      <trkpt lat="44.672621302306652069091796875" lon="6.814040355384349822998046875">
        <ele>1977.5999755859375</ele>
        <time>2026-08-31T06:06:36.000Z</time>
        <extensions>
          <ns3:TrackPointExtension>
            <ns3:hr>167</ns3:hr>
            <ns3:cad>45</ns3:cad>
          </ns3:TrackPointExtension>
        </extensions>
      </trkpt>
      <trkpt lat="44.67262323014438152313232421875" lon="6.81404395960271358489990234375">
        <ele>1977.800048828125</ele>
        <time>2026-08-31T06:06:37.000Z</time>
        <extensions>
          <ns3:TrackPointExtension>
            <ns3:hr>169</ns3:hr>
            <ns3:cad>45</ns3:cad>
          </ns3:TrackPointExtension>
        </extensions>
      </trkpt>
      <trkpt lat="44.6726231463253498077392578125" lon="6.8140599690377712249755859375">
        <ele>1978</ele>
        <time>2026-08-31T06:06:38.000Z</time>
        <extensions>
          <ns3:TrackPointExtension>
            <ns3:hr>169</ns3:hr>
            <ns3:cad>45</ns3:cad>
          </ns3:TrackPointExtension>
        </extensions>
      </trkpt>
      <trkpt lat="44.6726285107433795928955078125" lon="6.81407229043543338775634765625">
        <ele>1978.199951171875</ele>
        <time>2026-08-31T06:06:39.000Z</time>
        <extensions>
          <ns3:TrackPointExtension>
            <ns3:hr>169</ns3:hr>
            <ns3:cad>45</ns3:cad>
          </ns3:TrackPointExtension>
        </extensions>
      </trkpt>
      <trkpt lat="44.67263571918010711669921875" lon="6.81408754549920558929443359375">
        <ele>1978.199951171875</ele>
        <time>2026-08-31T06:06:40.000Z</time>
        <extensions>
          <ns3:TrackPointExtension>
            <ns3:hr>170</ns3:hr>
            <ns3:cad>45</ns3:cad>
          </ns3:TrackPointExtension>
        </extensions>
      </trkpt>
      <trkpt lat="44.67263848520815372467041015625" lon="6.81409995071589946746826171875">
        <ele>1978.4000244140625</ele>
        <time>2026-08-31T06:06:41.000Z</time>
        <extensions>
          <ns3:TrackPointExtension>
            <ns3:hr>170</ns3:hr>
            <ns3:cad>45</ns3:cad>
          </ns3:TrackPointExtension>
        </extensions>
      </trkpt>
      <trkpt lat="44.67264108359813690185546875" lon="6.81411302648484706878662109375">
        <ele>1978.5999755859375</ele>
        <time>2026-08-31T06:06:42.000Z</time>
        <extensions>
          <ns3:TrackPointExtension>
            <ns3:hr>170</ns3:hr>
            <ns3:cad>45</ns3:cad>
          </ns3:TrackPointExtension>
        </extensions>
      </trkpt>
      <trkpt lat="44.672641418874263763427734375" lon="6.81412207894027233123779296875">
        <ele>1978.5999755859375</ele>
        <time>2026-08-31T06:06:43.000Z</time>
        <extensions>
          <ns3:TrackPointExtension>
            <ns3:hr>171</ns3:hr>
            <ns3:cad>0</ns3:cad>
          </ns3:TrackPointExtension>
        </extensions>
      </trkpt>
      <trkpt lat="44.67264602892100811004638671875" lon="6.8141377530992031097412109375">
        <ele>1978.800048828125</ele>
        <time>2026-08-31T06:06:44.000Z</time>
        <extensions>
          <ns3:TrackPointExtension>
            <ns3:hr>170</ns3:hr>
            <ns3:cad>0</ns3:cad>
          </ns3:TrackPointExtension>
        </extensions>
      </trkpt>
      <trkpt lat="44.67264653183519840240478515625" lon="6.814148314297199249267578125">
        <ele>1979</ele>
        <time>2026-08-31T06:06:45.000Z</time>
        <extensions>
          <ns3:TrackPointExtension>
            <ns3:hr>170</ns3:hr>
            <ns3:cad>0</ns3:cad>
          </ns3:TrackPointExtension>
        </extensions>
      </trkpt>
      <trkpt lat="44.67265105806291103363037109375" lon="6.814165413379669189453125">
        <ele>1979.199951171875</ele>
        <time>2026-08-31T06:06:46.000Z</time>
        <extensions>
          <ns3:TrackPointExtension>
            <ns3:hr>171</ns3:hr>
            <ns3:cad>0</ns3:cad>
          </ns3:TrackPointExtension>
        </extensions>
      </trkpt>
      <trkpt lat="44.67265189625322818756103515625" lon="6.8141766451299190521240234375">
        <ele>1979.4000244140625</ele>
        <time>2026-08-31T06:06:47.000Z</time>
        <extensions>
          <ns3:TrackPointExtension>
            <ns3:hr>170</ns3:hr>
            <ns3:cad>0</ns3:cad>
          </ns3:TrackPointExtension>
        </extensions>
      </trkpt>
      <trkpt lat="44.67265407554805278778076171875" lon="6.81418863125145435333251953125">
        <ele>1979.4000244140625</ele>
        <time>2026-08-31T06:06:48.000Z</time>
        <extensions>
          <ns3:TrackPointExtension>
            <ns3:hr>170</ns3:hr>
            <ns3:cad>0</ns3:cad>
          </ns3:TrackPointExtension>
        </extensions>
      </trkpt>
      <trkpt lat="44.67265709303319454193115234375" lon="6.81420019827783107757568359375">
        <ele>1979.5999755859375</ele>
        <time>2026-08-31T06:06:49.000Z</time>
        <extensions>
          <ns3:TrackPointExtension>
            <ns3:hr>170</ns3:hr>
            <ns3:cad>0</ns3:cad>
          </ns3:TrackPointExtension>
        </extensions>
      </trkpt>
      <trkpt lat="44.67266027815639972686767578125" lon="6.81421327404677867889404296875">
        <ele>1979.800048828125</ele>
        <time>2026-08-31T06:06:50.000Z</time>
        <extensions>
          <ns3:TrackPointExtension>
            <ns3:hr>170</ns3:hr>
            <ns3:cad>0</ns3:cad>
          </ns3:TrackPointExtension>
        </extensions>
      </trkpt>
      <trkpt lat="44.672661535441875457763671875" lon="6.8142302893102169036865234375">
        <ele>1980</ele>
        <time>2026-08-31T06:06:51.000Z</time>
        <extensions>
          <ns3:TrackPointExtension>
            <ns3:hr>169</ns3:hr>
            <ns3:cad>0</ns3:cad>
          </ns3:TrackPointExtension>
        </extensions>
      </trkpt>
      <trkpt lat="44.6726663969457149505615234375" lon="6.81424512527883052825927734375">
        <ele>1980.199951171875</ele>
        <time>2026-08-31T06:06:52.000Z</time>
        <extensions>
          <ns3:TrackPointExtension>
            <ns3:hr>169</ns3:hr>
            <ns3:cad>0</ns3:cad>
          </ns3:TrackPointExtension>
        </extensions>
      </trkpt>
      <trkpt lat="44.67266815714538097381591796875" lon="6.81426054798066616058349609375">
        <ele>1980.4000244140625</ele>
        <time>2026-08-31T06:06:53.000Z</time>
        <extensions>
          <ns3:TrackPointExtension>
            <ns3:hr>169</ns3:hr>
            <ns3:cad>0</ns3:cad>
          </ns3:TrackPointExtension>
        </extensions>
      </trkpt>
      <trkpt lat="44.6726699173450469970703125" lon="6.81427798233926296234130859375">
        <ele>1980.5999755859375</ele>
        <time>2026-08-31T06:06:54.000Z</time>
        <extensions>
          <ns3:TrackPointExtension>
            <ns3:hr>168</ns3:hr>
            <ns3:cad>0</ns3:cad>
          </ns3:TrackPointExtension>
        </extensions>
      </trkpt>
      <trkpt lat="44.6726690791547298431396484375" lon="6.81429139338433742523193359375">
        <ele>1980.5999755859375</ele>
        <time>2026-08-31T06:06:55.000Z</time>
        <extensions>
          <ns3:TrackPointExtension>
            <ns3:hr>167</ns3:hr>
            <ns3:cad>0</ns3:cad>
          </ns3:TrackPointExtension>
        </extensions>
      </trkpt>
      <trkpt lat="44.6726710908114910125732421875" lon="6.8143063969910144805908203125">
        <ele>1980.5999755859375</ele>
        <time>2026-08-31T06:06:56.000Z</time>
        <extensions>
          <ns3:TrackPointExtension>
            <ns3:hr>167</ns3:hr>
            <ns3:cad>0</ns3:cad>
          </ns3:TrackPointExtension>
        </extensions>
      </trkpt>
      <trkpt lat="44.67267167754471302032470703125" lon="6.8143218196928501129150390625">
        <ele>1980.800048828125</ele>
        <time>2026-08-31T06:06:57.000Z</time>
        <extensions>
          <ns3:TrackPointExtension>
            <ns3:hr>166</ns3:hr>
            <ns3:cad>0</ns3:cad>
          </ns3:TrackPointExtension>
        </extensions>
      </trkpt>
      <trkpt lat="44.6726751141250133514404296875" lon="6.8143365718424320220947265625">
        <ele>1981</ele>
        <time>2026-08-31T06:06:58.000Z</time>
        <extensions>
          <ns3:TrackPointExtension>
            <ns3:hr>166</ns3:hr>
            <ns3:cad>0</ns3:cad>
          </ns3:TrackPointExtension>
        </extensions>
      </trkpt>
      <trkpt lat="44.6726788021624088287353515625" lon="6.81435207836329936981201171875">
        <ele>1981.199951171875</ele>
        <time>2026-08-31T06:06:59.000Z</time>
        <extensions>
          <ns3:TrackPointExtension>
            <ns3:hr>166</ns3:hr>
            <ns3:cad>0</ns3:cad>
          </ns3:TrackPointExtension>
        </extensions>
      </trkpt>
      <trkpt lat="44.6726818196475505828857421875" lon="6.81435559876263141632080078125">
        <ele>1981.4000244140625</ele>
        <time>2026-08-31T06:07:00.000Z</time>
        <extensions>
          <ns3:TrackPointExtension>
            <ns3:hr>166</ns3:hr>
            <ns3:cad>0</ns3:cad>
          </ns3:TrackPointExtension>
        </extensions>
      </trkpt>
      <trkpt lat="44.67269078828394412994384765625" lon="6.8143711052834987640380859375">
        <ele>1981.5999755859375</ele>
        <time>2026-08-31T06:07:01.000Z</time>
        <extensions>
          <ns3:TrackPointExtension>
            <ns3:hr>166</ns3:hr>
            <ns3:cad>0</ns3:cad>
          </ns3:TrackPointExtension>
        </extensions>
      </trkpt>
      <trkpt lat="44.672693721950054168701171875" lon="6.81437437422573566436767578125">
        <ele>1981.800048828125</ele>
        <time>2026-08-31T06:07:02.000Z</time>
        <extensions>
          <ns3:TrackPointExtension>
            <ns3:hr>165</ns3:hr>
            <ns3:cad>0</ns3:cad>
          </ns3:TrackPointExtension>
        </extensions>
      </trkpt>
      <trkpt lat="44.67270009219646453857421875" lon="6.8143871985375881195068359375">
        <ele>1981.800048828125</ele>
        <time>2026-08-31T06:07:03.000Z</time>
        <extensions>
          <ns3:TrackPointExtension>
            <ns3:hr>165</ns3:hr>
            <ns3:cad>0</ns3:cad>
          </ns3:TrackPointExtension>
        </extensions>
      </trkpt>
      <trkpt lat="44.67270285822451114654541015625" lon="6.81439599953591823577880859375">
        <ele>1982</ele>
        <time>2026-08-31T06:07:04.000Z</time>
        <extensions>
          <ns3:TrackPointExtension>
            <ns3:hr>165</ns3:hr>
            <ns3:cad>0</ns3:cad>
          </ns3:TrackPointExtension>
        </extensions>
      </trkpt>
      <trkpt lat="44.67270889319479465484619140625" lon="6.8144197203218936920166015625">
        <ele>1982.199951171875</ele>
        <time>2026-08-31T06:07:05.000Z</time>
        <extensions>
          <ns3:TrackPointExtension>
            <ns3:hr>165</ns3:hr>
            <ns3:cad>0</ns3:cad>
          </ns3:TrackPointExtension>
        </extensions>
      </trkpt>
      <trkpt lat="44.67271425761282444000244140625" lon="6.81443438865244388580322265625">
        <ele>1982.4000244140625</ele>
        <time>2026-08-31T06:07:06.000Z</time>
        <extensions>
          <ns3:TrackPointExtension>
            <ns3:hr>165</ns3:hr>
            <ns3:cad>0</ns3:cad>
          </ns3:TrackPointExtension>
        </extensions>
      </trkpt>
      <trkpt lat="44.67271425761282444000244140625" lon="6.814442016184329986572265625">
        <ele>1982.5999755859375</ele>
        <time>2026-08-31T06:07:07.000Z</time>
        <extensions>
          <ns3:TrackPointExtension>
            <ns3:hr>165</ns3:hr>
            <ns3:cad>0</ns3:cad>
          </ns3:TrackPointExtension>
        </extensions>
      </trkpt>
      <trkpt lat="44.6727200411260128021240234375" lon="6.814455427229404449462890625">
        <ele>1982.800048828125</ele>
        <time>2026-08-31T06:07:08.000Z</time>
        <extensions>
          <ns3:TrackPointExtension>
            <ns3:hr>165</ns3:hr>
            <ns3:cad>0</ns3:cad>
          </ns3:TrackPointExtension>
        </extensions>
      </trkpt>
      <trkpt lat="44.67271777801215648651123046875" lon="6.8144617974758148193359375">
        <ele>1982.800048828125</ele>
        <time>2026-08-31T06:07:09.000Z</time>
        <extensions>
          <ns3:TrackPointExtension>
            <ns3:hr>164</ns3:hr>
            <ns3:cad>0</ns3:cad>
          </ns3:TrackPointExtension>
        </extensions>
      </trkpt>
      <trkpt lat="44.67272029258310794830322265625" lon="6.81447948329150676727294921875">
        <ele>1983</ele>
        <time>2026-08-31T06:07:10.000Z</time>
        <extensions>
          <ns3:TrackPointExtension>
            <ns3:hr>164</ns3:hr>
            <ns3:cad>0</ns3:cad>
          </ns3:TrackPointExtension>
        </extensions>
      </trkpt>
      <trkpt lat="44.6727230586111545562744140625" lon="6.814490295946598052978515625">
        <ele>1983</ele>
        <time>2026-08-31T06:07:11.000Z</time>
        <extensions>
          <ns3:TrackPointExtension>
            <ns3:hr>164</ns3:hr>
            <ns3:cad>0</ns3:cad>
          </ns3:TrackPointExtension>
        </extensions>
      </trkpt>
      <trkpt lat="44.6727275848388671875" lon="6.81450597010552883148193359375">
        <ele>1983.199951171875</ele>
        <time>2026-08-31T06:07:12.000Z</time>
        <extensions>
          <ns3:TrackPointExtension>
            <ns3:hr>164</ns3:hr>
            <ns3:cad>0</ns3:cad>
          </ns3:TrackPointExtension>
        </extensions>
      </trkpt>
      <trkpt lat="44.67273185960948467254638671875" lon="6.814520470798015594482421875">
        <ele>1983.4000244140625</ele>
        <time>2026-08-31T06:07:13.000Z</time>
        <extensions>
          <ns3:TrackPointExtension>
            <ns3:hr>164</ns3:hr>
            <ns3:cad>0</ns3:cad>
          </ns3:TrackPointExtension>
        </extensions>
      </trkpt>
      <trkpt lat="44.6727394871413707733154296875" lon="6.814531199634075164794921875">
        <ele>1983.4000244140625</ele>
        <time>2026-08-31T06:07:14.000Z</time>
        <extensions>
          <ns3:TrackPointExtension>
            <ns3:hr>163</ns3:hr>
            <ns3:cad>0</ns3:cad>
          </ns3:TrackPointExtension>
        </extensions>
      </trkpt>
      <trkpt lat="44.67274694703519344329833984375" lon="6.814542599022388458251953125">
        <ele>1983.5999755859375</ele>
        <time>2026-08-31T06:07:15.000Z</time>
        <extensions>
          <ns3:TrackPointExtension>
            <ns3:hr>164</ns3:hr>
            <ns3:cad>0</ns3:cad>
          </ns3:TrackPointExtension>
        </extensions>
      </trkpt>
      <trkpt lat="44.6727532334625720977783203125" lon="6.81455039419233798980712890625">
        <ele>1983.5999755859375</ele>
        <time>2026-08-31T06:07:16.000Z</time>
        <extensions>
          <ns3:TrackPointExtension>
            <ns3:hr>163</ns3:hr>
            <ns3:cad>0</ns3:cad>
          </ns3:TrackPointExtension>
        </extensions>
      </trkpt>
      <trkpt lat="44.67276052571833133697509765625" lon="6.81455927900969982147216796875">
        <ele>1983.800048828125</ele>
        <time>2026-08-31T06:07:17.000Z</time>
        <extensions>
          <ns3:TrackPointExtension>
            <ns3:hr>163</ns3:hr>
            <ns3:cad>77</ns3:cad>
          </ns3:TrackPointExtension>
        </extensions>
      </trkpt>
      <trkpt lat="44.67276471666991710662841796875" lon="6.81456305086612701416015625">
        <ele>1983.800048828125</ele>
        <time>2026-08-31T06:07:18.000Z</time>
        <extensions>
          <ns3:TrackPointExtension>
            <ns3:hr>163</ns3:hr>
            <ns3:cad>77</ns3:cad>
          </ns3:TrackPointExtension>
        </extensions>
      </trkpt>
      <trkpt lat="44.6727683208882808685302734375" lon="6.81456766091287136077880859375">
        <ele>1984</ele>
        <time>2026-08-31T06:07:19.000Z</time>
        <extensions>
          <ns3:TrackPointExtension>
            <ns3:hr>163</ns3:hr>
            <ns3:cad>0</ns3:cad>
          </ns3:TrackPointExtension>
        </extensions>
      </trkpt>
      <trkpt lat="44.67276848852634429931640625" lon="6.81456883437931537628173828125">
        <ele>1984</ele>
        <time>2026-08-31T06:07:20.000Z</time>
        <extensions>
          <ns3:TrackPointExtension>
            <ns3:hr>163</ns3:hr>
            <ns3:cad>0</ns3:cad>
          </ns3:TrackPointExtension>
        </extensions>
      </trkpt>
      <trkpt lat="44.6727673150599002838134765625" lon="6.81456631980836391448974609375">
        <ele>1984.199951171875</ele>
        <time>2026-08-31T06:07:21.000Z</time>
        <extensions>
          <ns3:TrackPointExtension>
            <ns3:hr>163</ns3:hr>
            <ns3:cad>0</ns3:cad>
          </ns3:TrackPointExtension>
        </extensions>
      </trkpt>
      <trkpt lat="44.67276672832667827606201171875" lon="6.8145672418177127838134765625">
        <ele>1984.199951171875</ele>
        <time>2026-08-31T06:07:22.000Z</time>
        <extensions>
          <ns3:TrackPointExtension>
            <ns3:hr>163</ns3:hr>
            <ns3:cad>0</ns3:cad>
          </ns3:TrackPointExtension>
        </extensions>
      </trkpt>
      <trkpt lat="44.672766812145709991455078125" lon="6.81457151658833026885986328125">
        <ele>1984.199951171875</ele>
        <time>2026-08-31T06:07:23.000Z</time>
        <extensions>
          <ns3:TrackPointExtension>
            <ns3:hr>163</ns3:hr>
            <ns3:cad>0</ns3:cad>
          </ns3:TrackPointExtension>
        </extensions>
      </trkpt>
      <trkpt lat="44.67276572249829769134521484375" lon="6.81457168422639369964599609375">
        <ele>1984</ele>
        <time>2026-08-31T06:07:24.000Z</time>
        <extensions>
          <ns3:TrackPointExtension>
            <ns3:hr>164</ns3:hr>
            <ns3:cad>0</ns3:cad>
          </ns3:TrackPointExtension>
        </extensions>
      </trkpt>
      <trkpt lat="44.6727622859179973602294921875" lon="6.81456573307514190673828125">
        <ele>1984</ele>
        <time>2026-08-31T06:07:25.000Z</time>
        <extensions>
          <ns3:TrackPointExtension>
            <ns3:hr>164</ns3:hr>
            <ns3:cad>0</ns3:cad>
          </ns3:TrackPointExtension>
        </extensions>
      </trkpt>
      <trkpt lat="44.6727622859179973602294921875" lon="6.8145588599145412445068359375">
        <ele>1984</ele>
        <time>2026-08-31T06:07:26.000Z</time>
        <extensions>
          <ns3:TrackPointExtension>
            <ns3:hr>164</ns3:hr>
            <ns3:cad>0</ns3:cad>
          </ns3:TrackPointExtension>
        </extensions>
      </trkpt>
      <trkpt lat="44.67276605777442455291748046875" lon="6.8145477958023548126220703125">
        <ele>1984</ele>
        <time>2026-08-31T06:07:27.000Z</time>
        <extensions>
          <ns3:TrackPointExtension>
            <ns3:hr>164</ns3:hr>
            <ns3:cad>0</ns3:cad>
          </ns3:TrackPointExtension>
        </extensions>
      </trkpt>
      <trkpt lat="44.6727830730378627777099609375" lon="6.814546287059783935546875">
        <ele>1984</ele>
        <time>2026-08-31T06:07:28.000Z</time>
        <extensions>
          <ns3:TrackPointExtension>
            <ns3:hr>164</ns3:hr>
            <ns3:cad>0</ns3:cad>
          </ns3:TrackPointExtension>
        </extensions>
      </trkpt>
      <trkpt lat="44.6727934665977954864501953125" lon="6.8145417608320713043212890625">
        <ele>1984</ele>
        <time>2026-08-31T06:07:29.000Z</time>
        <extensions>
          <ns3:TrackPointExtension>
            <ns3:hr>163</ns3:hr>
            <ns3:cad>0</ns3:cad>
          </ns3:TrackPointExtension>
        </extensions>
      </trkpt>
      <trkpt lat="44.67280478216707706451416015625" lon="6.81454519741237163543701171875">
        <ele>1984</ele>
        <time>2026-08-31T06:07:30.000Z</time>
        <extensions>
          <ns3:TrackPointExtension>
            <ns3:hr>163</ns3:hr>
            <ns3:cad>0</ns3:cad>
          </ns3:TrackPointExtension>
        </extensions>
      </trkpt>
      <trkpt lat="44.67281467281281948089599609375" lon="6.81454704143106937408447265625">
        <ele>1984.199951171875</ele>
        <time>2026-08-31T06:07:31.000Z</time>
        <extensions>
          <ns3:TrackPointExtension>
            <ns3:hr>163</ns3:hr>
            <ns3:cad>0</ns3:cad>
          </ns3:TrackPointExtension>
        </extensions>
      </trkpt>
      <trkpt lat="44.67282875441014766693115234375" lon="6.81455207057297229766845703125">
        <ele>1984.199951171875</ele>
        <time>2026-08-31T06:07:32.000Z</time>
        <extensions>
          <ns3:TrackPointExtension>
            <ns3:hr>163</ns3:hr>
            <ns3:cad>0</ns3:cad>
          </ns3:TrackPointExtension>
        </extensions>
      </trkpt>
      <trkpt lat="44.67283881269395351409912109375" lon="6.81455207057297229766845703125">
        <ele>1984.199951171875</ele>
        <time>2026-08-31T06:07:33.000Z</time>
        <extensions>
          <ns3:TrackPointExtension>
            <ns3:hr>164</ns3:hr>
            <ns3:cad>0</ns3:cad>
          </ns3:TrackPointExtension>
        </extensions>
      </trkpt>
      <trkpt lat="44.67285322956740856170654296875" lon="6.81455357931554317474365234375">
        <ele>1984.199951171875</ele>
        <time>2026-08-31T06:07:34.000Z</time>
        <extensions>
          <ns3:TrackPointExtension>
            <ns3:hr>164</ns3:hr>
            <ns3:cad>0</ns3:cad>
          </ns3:TrackPointExtension>
        </extensions>
      </trkpt>
      <trkpt lat="44.6728615276515483856201171875" lon="6.81455307640135288238525390625">
        <ele>1984.4000244140625</ele>
        <time>2026-08-31T06:07:35.000Z</time>
        <extensions>
          <ns3:TrackPointExtension>
            <ns3:hr>163</ns3:hr>
            <ns3:cad>0</ns3:cad>
          </ns3:TrackPointExtension>
        </extensions>
      </trkpt>
      <trkpt lat="44.67287267558276653289794921875" lon="6.8145583570003509521484375">
        <ele>1984.4000244140625</ele>
        <time>2026-08-31T06:07:36.000Z</time>
        <extensions>
          <ns3:TrackPointExtension>
            <ns3:hr>163</ns3:hr>
            <ns3:cad>0</ns3:cad>
          </ns3:TrackPointExtension>
        </extensions>
      </trkpt>
      <trkpt lat="44.67288290150463581085205078125" lon="6.8145612068474292755126953125">
        <ele>1984.5999755859375</ele>
        <time>2026-08-31T06:07:37.000Z</time>
        <extensions>
          <ns3:TrackPointExtension>
            <ns3:hr>162</ns3:hr>
            <ns3:cad>56</ns3:cad>
          </ns3:TrackPointExtension>
        </extensions>
      </trkpt>
      <trkpt lat="44.6728940494358539581298828125" lon="6.81456665508449077606201171875">
        <ele>1984.800048828125</ele>
        <time>2026-08-31T06:07:38.000Z</time>
        <extensions>
          <ns3:TrackPointExtension>
            <ns3:hr>162</ns3:hr>
            <ns3:cad>56</ns3:cad>
          </ns3:TrackPointExtension>
        </extensions>
      </trkpt>
      <trkpt lat="44.67290452681481838226318359375" lon="6.81457134895026683807373046875">
        <ele>1984.800048828125</ele>
        <time>2026-08-31T06:07:39.000Z</time>
        <extensions>
          <ns3:TrackPointExtension>
            <ns3:hr>162</ns3:hr>
            <ns3:cad>56</ns3:cad>
          </ns3:TrackPointExtension>
        </extensions>
      </trkpt>
      <trkpt lat="44.67291559092700481414794921875" lon="6.81457302533090114593505859375">
        <ele>1985</ele>
        <time>2026-08-31T06:07:40.000Z</time>
        <extensions>
          <ns3:TrackPointExtension>
            <ns3:hr>162</ns3:hr>
            <ns3:cad>55</ns3:cad>
          </ns3:TrackPointExtension>
        </extensions>
      </trkpt>
      <trkpt lat="44.67292631976306438446044921875" lon="6.81457403115928173065185546875">
        <ele>1985</ele>
        <time>2026-08-31T06:07:41.000Z</time>
        <extensions>
          <ns3:TrackPointExtension>
            <ns3:hr>162</ns3:hr>
            <ns3:cad>55</ns3:cad>
          </ns3:TrackPointExtension>
        </extensions>
      </trkpt>
      <trkpt lat="44.67293553985655307769775390625" lon="6.81457579135894775390625">
        <ele>1985.199951171875</ele>
        <time>2026-08-31T06:07:42.000Z</time>
        <extensions>
          <ns3:TrackPointExtension>
            <ns3:hr>163</ns3:hr>
            <ns3:cad>55</ns3:cad>
          </ns3:TrackPointExtension>
        </extensions>
      </trkpt>
      <trkpt lat="44.67294559814035892486572265625" lon="6.8145779706537723541259765625">
        <ele>1985.4000244140625</ele>
        <time>2026-08-31T06:07:43.000Z</time>
        <extensions>
          <ns3:TrackPointExtension>
            <ns3:hr>163</ns3:hr>
            <ns3:cad>55</ns3:cad>
          </ns3:TrackPointExtension>
        </extensions>
      </trkpt>
      <trkpt lat="44.6729557402431964874267578125" lon="6.814581491053104400634765625">
        <ele>1985.5999755859375</ele>
        <time>2026-08-31T06:07:44.000Z</time>
        <extensions>
          <ns3:TrackPointExtension>
            <ns3:hr>163</ns3:hr>
            <ns3:cad>55</ns3:cad>
          </ns3:TrackPointExtension>
        </extensions>
      </trkpt>
      <trkpt lat="44.67296739108860492706298828125" lon="6.8145846761763095855712890625">
        <ele>1985.800048828125</ele>
        <time>2026-08-31T06:07:45.000Z</time>
        <extensions>
          <ns3:TrackPointExtension>
            <ns3:hr>163</ns3:hr>
            <ns3:cad>55</ns3:cad>
          </ns3:TrackPointExtension>
        </extensions>
      </trkpt>
      <trkpt lat="44.6729782037436962127685546875" lon="6.81458626873791217803955078125">
        <ele>1986</ele>
        <time>2026-08-31T06:07:46.000Z</time>
        <extensions>
          <ns3:TrackPointExtension>
            <ns3:hr>163</ns3:hr>
            <ns3:cad>55</ns3:cad>
          </ns3:TrackPointExtension>
        </extensions>
      </trkpt>
      <trkpt lat="44.67299119569361209869384765625" lon="6.8145890347659587860107421875">
        <ele>1986.199951171875</ele>
        <time>2026-08-31T06:07:47.000Z</time>
        <extensions>
          <ns3:TrackPointExtension>
            <ns3:hr>163</ns3:hr>
            <ns3:cad>55</ns3:cad>
          </ns3:TrackPointExtension>
        </extensions>
      </trkpt>
      <trkpt lat="44.672998487949371337890625" lon="6.8145927228033542633056640625">
        <ele>1986.4000244140625</ele>
        <time>2026-08-31T06:07:48.000Z</time>
        <extensions>
          <ns3:TrackPointExtension>
            <ns3:hr>162</ns3:hr>
            <ns3:cad>55</ns3:cad>
          </ns3:TrackPointExtension>
        </extensions>
      </trkpt>
      <trkpt lat="44.67300586402416229248046875" lon="6.814592219889163970947265625">
        <ele>1986.5999755859375</ele>
        <time>2026-08-31T06:07:49.000Z</time>
        <extensions>
          <ns3:TrackPointExtension>
            <ns3:hr>162</ns3:hr>
            <ns3:cad>0</ns3:cad>
          </ns3:TrackPointExtension>
        </extensions>
      </trkpt>
      <trkpt lat="44.67300745658576488494873046875" lon="6.81459297426044940948486328125">
        <ele>1986.800048828125</ele>
        <time>2026-08-31T06:07:50.000Z</time>
        <extensions>
          <ns3:TrackPointExtension>
            <ns3:hr>161</ns3:hr>
            <ns3:cad>0</ns3:cad>
          </ns3:TrackPointExtension>
        </extensions>
      </trkpt>
      <trkpt lat="44.6730107255280017852783203125" lon="6.81459498591721057891845703125">
        <ele>1986.800048828125</ele>
        <time>2026-08-31T06:07:51.000Z</time>
        <extensions>
          <ns3:TrackPointExtension>
            <ns3:hr>160</ns3:hr>
            <ns3:cad>0</ns3:cad>
          </ns3:TrackPointExtension>
        </extensions>
      </trkpt>
      <trkpt lat="44.67301189899444580078125" lon="6.81459632702171802520751953125">
        <ele>1986.800048828125</ele>
        <time>2026-08-31T06:07:52.000Z</time>
        <extensions>
          <ns3:TrackPointExtension>
            <ns3:hr>160</ns3:hr>
            <ns3:cad>0</ns3:cad>
          </ns3:TrackPointExtension>
        </extensions>
      </trkpt>
      <trkpt lat="44.67301047407090663909912109375" lon="6.814596913754940032958984375">
        <ele>1987</ele>
        <time>2026-08-31T06:07:53.000Z</time>
        <extensions>
          <ns3:TrackPointExtension>
            <ns3:hr>159</ns3:hr>
            <ns3:cad>0</ns3:cad>
          </ns3:TrackPointExtension>
        </extensions>
      </trkpt>
      <trkpt lat="44.67300997115671634674072265625" lon="6.8145930580794811248779296875">
        <ele>1987</ele>
        <time>2026-08-31T06:07:54.000Z</time>
        <extensions>
          <ns3:TrackPointExtension>
            <ns3:hr>159</ns3:hr>
            <ns3:cad>0</ns3:cad>
          </ns3:TrackPointExtension>
        </extensions>
      </trkpt>
      <trkpt lat="44.6730140782892704010009765625" lon="6.81459230370819568634033203125">
        <ele>1986.800048828125</ele>
        <time>2026-08-31T06:07:55.000Z</time>
        <extensions>
          <ns3:TrackPointExtension>
            <ns3:hr>159</ns3:hr>
            <ns3:cad>0</ns3:cad>
          </ns3:TrackPointExtension>
        </extensions>
      </trkpt>
      <trkpt lat="44.6730212867259979248046875" lon="6.81459196843206882476806640625">
        <ele>1986.800048828125</ele>
        <time>2026-08-31T06:07:56.000Z</time>
        <extensions>
          <ns3:TrackPointExtension>
            <ns3:hr>158</ns3:hr>
            <ns3:cad>0</ns3:cad>
          </ns3:TrackPointExtension>
        </extensions>
      </trkpt>
      <trkpt lat="44.6730298362672328948974609375" lon="6.81459330953657627105712890625">
        <ele>1986.800048828125</ele>
        <time>2026-08-31T06:07:57.000Z</time>
        <extensions>
          <ns3:TrackPointExtension>
            <ns3:hr>156</ns3:hr>
            <ns3:cad>0</ns3:cad>
          </ns3:TrackPointExtension>
        </extensions>
      </trkpt>
      <trkpt lat="44.6730375476181507110595703125" lon="6.81459850631654262542724609375">
        <ele>1987</ele>
        <time>2026-08-31T06:07:58.000Z</time>
        <extensions>
          <ns3:TrackPointExtension>
            <ns3:hr>156</ns3:hr>
            <ns3:cad>0</ns3:cad>
          </ns3:TrackPointExtension>
        </extensions>
      </trkpt>
      <trkpt lat="44.67304743826389312744140625" lon="6.8146084807813167572021484375">
        <ele>1987.199951171875</ele>
        <time>2026-08-31T06:07:59.000Z</time>
        <extensions>
          <ns3:TrackPointExtension>
            <ns3:hr>156</ns3:hr>
            <ns3:cad>52</ns3:cad>
          </ns3:TrackPointExtension>
        </extensions>
      </trkpt>
      <trkpt lat="44.67305808328092098236083984375" lon="6.814608983695507049560546875">
        <ele>1987.4000244140625</ele>
        <time>2026-08-31T06:08:00.000Z</time>
        <extensions>
          <ns3:TrackPointExtension>
            <ns3:hr>155</ns3:hr>
            <ns3:cad>52</ns3:cad>
          </ns3:TrackPointExtension>
        </extensions>
      </trkpt>
      <trkpt lat="44.67306864447891712188720703125" lon="6.81461174972355365753173828125">
        <ele>1987.5999755859375</ele>
        <time>2026-08-31T06:08:01.000Z</time>
        <extensions>
          <ns3:TrackPointExtension>
            <ns3:hr>155</ns3:hr>
            <ns3:cad>0</ns3:cad>
          </ns3:TrackPointExtension>
        </extensions>
      </trkpt>
      <trkpt lat="44.67307719402015209197998046875" lon="6.814614348113536834716796875">
        <ele>1987.800048828125</ele>
        <time>2026-08-31T06:08:02.000Z</time>
        <extensions>
          <ns3:TrackPointExtension>
            <ns3:hr>155</ns3:hr>
            <ns3:cad>0</ns3:cad>
          </ns3:TrackPointExtension>
        </extensions>
      </trkpt>
      <trkpt lat="44.67308993451297283172607421875" lon="6.81461761705577373504638671875">
        <ele>1988</ele>
        <time>2026-08-31T06:08:03.000Z</time>
        <extensions>
          <ns3:TrackPointExtension>
            <ns3:hr>155</ns3:hr>
            <ns3:cad>0</ns3:cad>
          </ns3:TrackPointExtension>
        </extensions>
      </trkpt>
      <trkpt lat="44.67309764586389064788818359375" lon="6.81462013162672519683837890625">
        <ele>1988.199951171875</ele>
        <time>2026-08-31T06:08:04.000Z</time>
        <extensions>
          <ns3:TrackPointExtension>
            <ns3:hr>155</ns3:hr>
            <ns3:cad>0</ns3:cad>
          </ns3:TrackPointExtension>
        </extensions>
      </trkpt>
      <trkpt lat="44.673109464347362518310546875" lon="6.81462348438799381256103515625">
        <ele>1988.4000244140625</ele>
        <time>2026-08-31T06:08:05.000Z</time>
        <extensions>
          <ns3:TrackPointExtension>
            <ns3:hr>154</ns3:hr>
            <ns3:cad>0</ns3:cad>
          </ns3:TrackPointExtension>
        </extensions>
      </trkpt>
      <trkpt lat="44.67311851680278778076171875" lon="6.814625076949596405029296875">
        <ele>1988.5999755859375</ele>
        <time>2026-08-31T06:08:06.000Z</time>
        <extensions>
          <ns3:TrackPointExtension>
            <ns3:hr>154</ns3:hr>
            <ns3:cad>0</ns3:cad>
          </ns3:TrackPointExtension>
        </extensions>
      </trkpt>
      <trkpt lat="44.67312832362949848175048828125" lon="6.81463144719600677490234375">
        <ele>1988.800048828125</ele>
        <time>2026-08-31T06:08:07.000Z</time>
        <extensions>
          <ns3:TrackPointExtension>
            <ns3:hr>154</ns3:hr>
            <ns3:cad>0</ns3:cad>
          </ns3:TrackPointExtension>
        </extensions>
      </trkpt>
      <trkpt lat="44.6731371246278285980224609375" lon="6.81463949382305145263671875">
        <ele>1989</ele>
        <time>2026-08-31T06:08:08.000Z</time>
        <extensions>
          <ns3:TrackPointExtension>
            <ns3:hr>153</ns3:hr>
            <ns3:cad>0</ns3:cad>
          </ns3:TrackPointExtension>
        </extensions>
      </trkpt>
      <trkpt lat="44.67314810492098331451416015625" lon="6.81464510969817638397216796875">
        <ele>1989.199951171875</ele>
        <time>2026-08-31T06:08:09.000Z</time>
        <extensions>
          <ns3:TrackPointExtension>
            <ns3:hr>153</ns3:hr>
            <ns3:cad>0</ns3:cad>
          </ns3:TrackPointExtension>
        </extensions>
      </trkpt>
      <trkpt lat="44.6731599234044551849365234375" lon="6.81465164758265018463134765625">
        <ele>1989.4000244140625</ele>
        <time>2026-08-31T06:08:10.000Z</time>
        <extensions>
          <ns3:TrackPointExtension>
            <ns3:hr>153</ns3:hr>
            <ns3:cad>0</ns3:cad>
          </ns3:TrackPointExtension>
        </extensions>
      </trkpt>
      <trkpt lat="44.67316537164151668548583984375" lon="6.8146601133048534393310546875">
        <ele>1989.5999755859375</ele>
        <time>2026-08-31T06:08:11.000Z</time>
        <extensions>
          <ns3:TrackPointExtension>
            <ns3:hr>153</ns3:hr>
            <ns3:cad>0</ns3:cad>
          </ns3:TrackPointExtension>
        </extensions>
      </trkpt>
      <trkpt lat="44.6731750108301639556884765625" lon="6.814664304256439208984375">
        <ele>1989.800048828125</ele>
        <time>2026-08-31T06:08:12.000Z</time>
        <extensions>
          <ns3:TrackPointExtension>
            <ns3:hr>154</ns3:hr>
            <ns3:cad>0</ns3:cad>
          </ns3:TrackPointExtension>
        </extensions>
      </trkpt>
      <trkpt lat="44.6731783635914325714111328125" lon="6.81466824375092983245849609375">
        <ele>1990</ele>
        <time>2026-08-31T06:08:13.000Z</time>
        <extensions>
          <ns3:TrackPointExtension>
            <ns3:hr>154</ns3:hr>
            <ns3:cad>0</ns3:cad>
          </ns3:TrackPointExtension>
        </extensions>
      </trkpt>
      <trkpt lat="44.67319202609360218048095703125" lon="6.81468031369149684906005859375">
        <ele>1990.199951171875</ele>
        <time>2026-08-31T06:08:14.000Z</time>
        <extensions>
          <ns3:TrackPointExtension>
            <ns3:hr>155</ns3:hr>
            <ns3:cad>0</ns3:cad>
          </ns3:TrackPointExtension>
        </extensions>
      </trkpt>
      <trkpt lat="44.67319361865520477294921875" lon="6.8146886117756366729736328125">
        <ele>1990.4000244140625</ele>
        <time>2026-08-31T06:08:15.000Z</time>
        <extensions>
          <ns3:TrackPointExtension>
            <ns3:hr>155</ns3:hr>
            <ns3:cad>0</ns3:cad>
          </ns3:TrackPointExtension>
        </extensions>
      </trkpt>
      <trkpt lat="44.67320225201547145843505859375" lon="6.81469305418431758880615234375">
        <ele>1990.5999755859375</ele>
        <time>2026-08-31T06:08:16.000Z</time>
        <extensions>
          <ns3:TrackPointExtension>
            <ns3:hr>156</ns3:hr>
            <ns3:cad>0</ns3:cad>
          </ns3:TrackPointExtension>
        </extensions>
      </trkpt>
      <trkpt lat="44.6732102148234844207763671875" lon="6.8146969936788082122802734375">
        <ele>1990.800048828125</ele>
        <time>2026-08-31T06:08:17.000Z</time>
        <extensions>
          <ns3:TrackPointExtension>
            <ns3:hr>156</ns3:hr>
            <ns3:cad>0</ns3:cad>
          </ns3:TrackPointExtension>
        </extensions>
      </trkpt>
      <trkpt lat="44.67322044074535369873046875" lon="6.81469850242137908935546875">
        <ele>1991</ele>
        <time>2026-08-31T06:08:18.000Z</time>
        <extensions>
          <ns3:TrackPointExtension>
            <ns3:hr>157</ns3:hr>
            <ns3:cad>0</ns3:cad>
          </ns3:TrackPointExtension>
        </extensions>
      </trkpt>
      <trkpt lat="44.67322924174368381500244140625" lon="6.814692802727222442626953125">
        <ele>1991.199951171875</ele>
        <time>2026-08-31T06:08:19.000Z</time>
        <extensions>
          <ns3:TrackPointExtension>
            <ns3:hr>157</ns3:hr>
            <ns3:cad>0</ns3:cad>
          </ns3:TrackPointExtension>
        </extensions>
      </trkpt>
      <trkpt lat="44.673239886760711669921875" lon="6.8146912939846515655517578125">
        <ele>1991.4000244140625</ele>
        <time>2026-08-31T06:08:20.000Z</time>
        <extensions>
          <ns3:TrackPointExtension>
            <ns3:hr>157</ns3:hr>
            <ns3:cad>47</ns3:cad>
          </ns3:TrackPointExtension>
        </extensions>
      </trkpt>
      <trkpt lat="44.67324860394001007080078125" lon="6.81469070725142955780029296875">
        <ele>1991.4000244140625</ele>
        <time>2026-08-31T06:08:21.000Z</time>
        <extensions>
          <ns3:TrackPointExtension>
            <ns3:hr>157</ns3:hr>
            <ns3:cad>47</ns3:cad>
          </ns3:TrackPointExtension>
        </extensions>
      </trkpt>
      <trkpt lat="44.67325606383383274078369140625" lon="6.81470344774425029754638671875">
        <ele>1991.5999755859375</ele>
        <time>2026-08-31T06:08:22.000Z</time>
        <extensions>
          <ns3:TrackPointExtension>
            <ns3:hr>157</ns3:hr>
            <ns3:cad>47</ns3:cad>
          </ns3:TrackPointExtension>
        </extensions>
      </trkpt>
      <trkpt lat="44.67326092533767223358154296875" lon="6.81471602059900760650634765625">
        <ele>1991.800048828125</ele>
        <time>2026-08-31T06:08:23.000Z</time>
        <extensions>
          <ns3:TrackPointExtension>
            <ns3:hr>157</ns3:hr>
            <ns3:cad>47</ns3:cad>
          </ns3:TrackPointExtension>
        </extensions>
      </trkpt>
      <trkpt lat="44.67326293699443340301513671875" lon="6.814728677272796630859375">
        <ele>1992</ele>
        <time>2026-08-31T06:08:24.000Z</time>
        <extensions>
          <ns3:TrackPointExtension>
            <ns3:hr>156</ns3:hr>
            <ns3:cad>47</ns3:cad>
          </ns3:TrackPointExtension>
        </extensions>
      </trkpt>
      <trkpt lat="44.6732652001082897186279296875" lon="6.81474468670785427093505859375">
        <ele>1992.199951171875</ele>
        <time>2026-08-31T06:08:25.000Z</time>
        <extensions>
          <ns3:TrackPointExtension>
            <ns3:hr>156</ns3:hr>
            <ns3:cad>47</ns3:cad>
          </ns3:TrackPointExtension>
        </extensions>
      </trkpt>
      <trkpt lat="44.6732685528695583343505859375" lon="6.8147623725235462188720703125">
        <ele>1992.4000244140625</ele>
        <time>2026-08-31T06:08:26.000Z</time>
        <extensions>
          <ns3:TrackPointExtension>
            <ns3:hr>155</ns3:hr>
            <ns3:cad>47</ns3:cad>
          </ns3:TrackPointExtension>
        </extensions>
      </trkpt>
      <trkpt lat="44.67327333055436611175537109375" lon="6.81476748548448085784912109375">
        <ele>1992.800048828125</ele>
        <time>2026-08-31T06:08:27.000Z</time>
        <extensions>
          <ns3:TrackPointExtension>
            <ns3:hr>154</ns3:hr>
            <ns3:cad>47</ns3:cad>
          </ns3:TrackPointExtension>
        </extensions>
      </trkpt>
      <trkpt lat="44.67328037135303020477294921875" lon="6.81478223763406276702880859375">
        <ele>1993</ele>
        <time>2026-08-31T06:08:28.000Z</time>
        <extensions>
          <ns3:TrackPointExtension>
            <ns3:hr>153</ns3:hr>
            <ns3:cad>47</ns3:cad>
          </ns3:TrackPointExtension>
        </extensions>
      </trkpt>
      <trkpt lat="44.67328405939042568206787109375" lon="6.81479095481336116790771484375">
        <ele>1993.199951171875</ele>
        <time>2026-08-31T06:08:29.000Z</time>
        <extensions>
          <ns3:TrackPointExtension>
            <ns3:hr>153</ns3:hr>
            <ns3:cad>0</ns3:cad>
          </ns3:TrackPointExtension>
        </extensions>
      </trkpt>
      <trkpt lat="44.673289172351360321044921875" lon="6.814803443849086761474609375">
        <ele>1993.4000244140625</ele>
        <time>2026-08-31T06:08:30.000Z</time>
        <extensions>
          <ns3:TrackPointExtension>
            <ns3:hr>153</ns3:hr>
            <ns3:cad>0</ns3:cad>
          </ns3:TrackPointExtension>
        </extensions>
      </trkpt>
      <trkpt lat="44.6732953749597072601318359375" lon="6.8148123286664485931396484375">
        <ele>1993.5999755859375</ele>
        <time>2026-08-31T06:08:31.000Z</time>
        <extensions>
          <ns3:TrackPointExtension>
            <ns3:hr>154</ns3:hr>
            <ns3:cad>0</ns3:cad>
          </ns3:TrackPointExtension>
        </extensions>
      </trkpt>
      <trkpt lat="44.673305936157703399658203125" lon="6.8148274160921573638916015625">
        <ele>1993.800048828125</ele>
        <time>2026-08-31T06:08:32.000Z</time>
        <extensions>
          <ns3:TrackPointExtension>
            <ns3:hr>153</ns3:hr>
            <ns3:cad>0</ns3:cad>
          </ns3:TrackPointExtension>
        </extensions>
      </trkpt>
      <trkpt lat="44.67331406660377979278564453125" lon="6.81484091095626354217529296875">
        <ele>1994</ele>
        <time>2026-08-31T06:08:33.000Z</time>
        <extensions>
          <ns3:TrackPointExtension>
            <ns3:hr>153</ns3:hr>
            <ns3:cad>52</ns3:cad>
          </ns3:TrackPointExtension>
        </extensions>
      </trkpt>
      <trkpt lat="44.6733195148408412933349609375" lon="6.814849041402339935302734375">
        <ele>1994.199951171875</ele>
        <time>2026-08-31T06:08:34.000Z</time>
        <extensions>
          <ns3:TrackPointExtension>
            <ns3:hr>153</ns3:hr>
            <ns3:cad>52</ns3:cad>
          </ns3:TrackPointExtension>
        </extensions>
      </trkpt>
      <trkpt lat="44.67332563363015651702880859375" lon="6.81486354209482669830322265625">
        <ele>1994.4000244140625</ele>
        <time>2026-08-31T06:08:35.000Z</time>
        <extensions>
          <ns3:TrackPointExtension>
            <ns3:hr>153</ns3:hr>
            <ns3:cad>52</ns3:cad>
          </ns3:TrackPointExtension>
        </extensions>
      </trkpt>
      <trkpt lat="44.67332907021045684814453125" lon="6.8148748576641082763671875">
        <ele>1994.5999755859375</ele>
        <time>2026-08-31T06:08:36.000Z</time>
        <extensions>
          <ns3:TrackPointExtension>
            <ns3:hr>154</ns3:hr>
            <ns3:cad>53</ns3:cad>
          </ns3:TrackPointExtension>
        </extensions>
      </trkpt>
      <trkpt lat="44.6733324229717254638671875" lon="6.81489036418497562408447265625">
        <ele>1994.800048828125</ele>
        <time>2026-08-31T06:08:37.000Z</time>
        <extensions>
          <ns3:TrackPointExtension>
            <ns3:hr>154</ns3:hr>
            <ns3:cad>53</ns3:cad>
          </ns3:TrackPointExtension>
        </extensions>
      </trkpt>
      <trkpt lat="44.6733351051807403564453125" lon="6.81490293703973293304443359375">
        <ele>1995</ele>
        <time>2026-08-31T06:08:38.000Z</time>
        <extensions>
          <ns3:TrackPointExtension>
            <ns3:hr>154</ns3:hr>
            <ns3:cad>53</ns3:cad>
          </ns3:TrackPointExtension>
        </extensions>
      </trkpt>
      <trkpt lat="44.6733366139233112335205078125" lon="6.8149155937135219573974609375">
        <ele>1995.199951171875</ele>
        <time>2026-08-31T06:08:39.000Z</time>
        <extensions>
          <ns3:TrackPointExtension>
            <ns3:hr>154</ns3:hr>
            <ns3:cad>53</ns3:cad>
          </ns3:TrackPointExtension>
        </extensions>
      </trkpt>
      <trkpt lat="44.67333904467523097991943359375" lon="6.8149285018444061279296875">
        <ele>1995.4000244140625</ele>
        <time>2026-08-31T06:08:40.000Z</time>
        <extensions>
          <ns3:TrackPointExtension>
            <ns3:hr>155</ns3:hr>
            <ns3:cad>53</ns3:cad>
          </ns3:TrackPointExtension>
        </extensions>
      </trkpt>
      <trkpt lat="44.6733403019607067108154296875" lon="6.81493679992854595184326171875">
        <ele>1995.800048828125</ele>
        <time>2026-08-31T06:08:41.000Z</time>
        <extensions>
          <ns3:TrackPointExtension>
            <ns3:hr>155</ns3:hr>
            <ns3:cad>0</ns3:cad>
          </ns3:TrackPointExtension>
        </extensions>
      </trkpt>
      <trkpt lat="44.67334306798875331878662109375" lon="6.8149494566023349761962890625">
        <ele>1996</ele>
        <time>2026-08-31T06:08:42.000Z</time>
        <extensions>
          <ns3:TrackPointExtension>
            <ns3:hr>155</ns3:hr>
            <ns3:cad>0</ns3:cad>
          </ns3:TrackPointExtension>
        </extensions>
      </trkpt>
      <trkpt lat="44.673343487083911895751953125" lon="6.81495842523872852325439453125">
        <ele>1996.199951171875</ele>
        <time>2026-08-31T06:08:43.000Z</time>
        <extensions>
          <ns3:TrackPointExtension>
            <ns3:hr>156</ns3:hr>
            <ns3:cad>0</ns3:cad>
          </ns3:TrackPointExtension>
        </extensions>
      </trkpt>
      <trkpt lat="44.673344828188419342041015625" lon="6.81497049517929553985595703125">
        <ele>1996.4000244140625</ele>
        <time>2026-08-31T06:08:44.000Z</time>
        <extensions>
          <ns3:TrackPointExtension>
            <ns3:hr>156</ns3:hr>
            <ns3:cad>0</ns3:cad>
          </ns3:TrackPointExtension>
        </extensions>
      </trkpt>
      <trkpt lat="44.673346839845180511474609375" lon="6.81498239748179912567138671875">
        <ele>1996.5999755859375</ele>
        <time>2026-08-31T06:08:45.000Z</time>
        <extensions>
          <ns3:TrackPointExtension>
            <ns3:hr>157</ns3:hr>
            <ns3:cad>0</ns3:cad>
          </ns3:TrackPointExtension>
        </extensions>
      </trkpt>
      <trkpt lat="44.6733500249683856964111328125" lon="6.8149927072227001190185546875">
        <ele>1996.800048828125</ele>
        <time>2026-08-31T06:08:46.000Z</time>
        <extensions>
          <ns3:TrackPointExtension>
            <ns3:hr>157</ns3:hr>
            <ns3:cad>0</ns3:cad>
          </ns3:TrackPointExtension>
        </extensions>
      </trkpt>
      <trkpt lat="44.6733547188341617584228515625" lon="6.81500184349715709686279296875">
        <ele>1997</ele>
        <time>2026-08-31T06:08:47.000Z</time>
        <extensions>
          <ns3:TrackPointExtension>
            <ns3:hr>157</ns3:hr>
            <ns3:cad>0</ns3:cad>
          </ns3:TrackPointExtension>
        </extensions>
      </trkpt>
      <trkpt lat="44.673358239233493804931640625" lon="6.81500737555325031280517578125">
        <ele>1997.199951171875</ele>
        <time>2026-08-31T06:08:48.000Z</time>
        <extensions>
          <ns3:TrackPointExtension>
            <ns3:hr>157</ns3:hr>
            <ns3:cad>0</ns3:cad>
          </ns3:TrackPointExtension>
        </extensions>
      </trkpt>
      <trkpt lat="44.673364944756031036376953125" lon="6.8150118179619312286376953125">
        <ele>1997.4000244140625</ele>
        <time>2026-08-31T06:08:49.000Z</time>
        <extensions>
          <ns3:TrackPointExtension>
            <ns3:hr>158</ns3:hr>
            <ns3:cad>76</ns3:cad>
          </ns3:TrackPointExtension>
        </extensions>
      </trkpt>
      <trkpt lat="44.673369638621807098388671875" lon="6.815009973943233489990234375">
        <ele>1997.5999755859375</ele>
        <time>2026-08-31T06:08:50.000Z</time>
        <extensions>
          <ns3:TrackPointExtension>
            <ns3:hr>158</ns3:hr>
            <ns3:cad>76</ns3:cad>
          </ns3:TrackPointExtension>
        </extensions>
      </trkpt>
      <trkpt lat="44.67337424866855144500732421875" lon="6.815003938972949981689453125">
        <ele>1997.800048828125</ele>
        <time>2026-08-31T06:08:51.000Z</time>
        <extensions>
          <ns3:TrackPointExtension>
            <ns3:hr>158</ns3:hr>
            <ns3:cad>76</ns3:cad>
          </ns3:TrackPointExtension>
        </extensions>
      </trkpt>
      <trkpt lat="44.6733815409243106842041015625" lon="6.81500268168747425079345703125">
        <ele>1997.800048828125</ele>
        <time>2026-08-31T06:08:52.000Z</time>
        <extensions>
          <ns3:TrackPointExtension>
            <ns3:hr>158</ns3:hr>
            <ns3:cad>0</ns3:cad>
          </ns3:TrackPointExtension>
        </extensions>
      </trkpt>
      <trkpt lat="44.6733865700662136077880859375" lon="6.81499731726944446563720703125">
        <ele>1998</ele>
        <time>2026-08-31T06:08:53.000Z</time>
        <extensions>
          <ns3:TrackPointExtension>
            <ns3:hr>159</ns3:hr>
            <ns3:cad>0</ns3:cad>
          </ns3:TrackPointExtension>
        </extensions>
      </trkpt>
      <trkpt lat="44.673395790159702301025390625" lon="6.8149957247078418731689453125">
        <ele>1998.199951171875</ele>
        <time>2026-08-31T06:08:54.000Z</time>
        <extensions>
          <ns3:TrackPointExtension>
            <ns3:hr>159</ns3:hr>
            <ns3:cad>0</ns3:cad>
          </ns3:TrackPointExtension>
        </extensions>
      </trkpt>
      <trkpt lat="44.67340190894901752471923828125" lon="6.81499329395592212677001953125">
        <ele>1998.5999755859375</ele>
        <time>2026-08-31T06:08:55.000Z</time>
        <extensions>
          <ns3:TrackPointExtension>
            <ns3:hr>159</ns3:hr>
            <ns3:cad>0</ns3:cad>
          </ns3:TrackPointExtension>
        </extensions>
      </trkpt>
      <trkpt lat="44.6734107099473476409912109375" lon="6.8149955570697784423828125">
        <ele>1998.800048828125</ele>
        <time>2026-08-31T06:08:56.000Z</time>
        <extensions>
          <ns3:TrackPointExtension>
            <ns3:hr>159</ns3:hr>
            <ns3:cad>0</ns3:cad>
          </ns3:TrackPointExtension>
        </extensions>
      </trkpt>
      <trkpt lat="44.67341515235602855682373046875" lon="6.814998574554920196533203125">
        <ele>1999</ele>
        <time>2026-08-31T06:08:57.000Z</time>
        <extensions>
          <ns3:TrackPointExtension>
            <ns3:hr>159</ns3:hr>
            <ns3:cad>0</ns3:cad>
          </ns3:TrackPointExtension>
        </extensions>
      </trkpt>
      <trkpt lat="44.6734244562685489654541015625" lon="6.815007962286472320556640625">
        <ele>1999.199951171875</ele>
        <time>2026-08-31T06:08:58.000Z</time>
        <extensions>
          <ns3:TrackPointExtension>
            <ns3:hr>159</ns3:hr>
            <ns3:cad>0</ns3:cad>
          </ns3:TrackPointExtension>
        </extensions>
      </trkpt>
      <trkpt lat="44.67342688702046871185302734375" lon="6.81501944549381732940673828125">
        <ele>1999.4000244140625</ele>
        <time>2026-08-31T06:08:59.000Z</time>
        <extensions>
          <ns3:TrackPointExtension>
            <ns3:hr>160</ns3:hr>
            <ns3:cad>49</ns3:cad>
          </ns3:TrackPointExtension>
        </extensions>
      </trkpt>
      <trkpt lat="44.6734331734478473663330078125" lon="6.815028749406337738037109375">
        <ele>1999.5999755859375</ele>
        <time>2026-08-31T06:09:00.000Z</time>
        <extensions>
          <ns3:TrackPointExtension>
            <ns3:hr>160</ns3:hr>
            <ns3:cad>49</ns3:cad>
          </ns3:TrackPointExtension>
        </extensions>
      </trkpt>
      <trkpt lat="44.67344105243682861328125" lon="6.8150409869849681854248046875">
        <ele>1999.800048828125</ele>
        <time>2026-08-31T06:09:01.000Z</time>
        <extensions>
          <ns3:TrackPointExtension>
            <ns3:hr>160</ns3:hr>
            <ns3:cad>49</ns3:cad>
          </ns3:TrackPointExtension>
        </extensions>
      </trkpt>
      <trkpt lat="44.67344515956938266754150390625" lon="6.81504609994590282440185546875">
        <ele>2000</ele>
        <time>2026-08-31T06:09:02.000Z</time>
        <extensions>
          <ns3:TrackPointExtension>
            <ns3:hr>160</ns3:hr>
            <ns3:cad>49</ns3:cad>
          </ns3:TrackPointExtension>
        </extensions>
      </trkpt>
      <trkpt lat="44.6734512783586978912353515625" lon="6.81505121290683746337890625">
        <ele>2000.199951171875</ele>
        <time>2026-08-31T06:09:03.000Z</time>
        <extensions>
          <ns3:TrackPointExtension>
            <ns3:hr>159</ns3:hr>
            <ns3:cad>0</ns3:cad>
          </ns3:TrackPointExtension>
        </extensions>
      </trkpt>
      <trkpt lat="44.67345857061445713043212890625" lon="6.81505121290683746337890625">
        <ele>2000.4000244140625</ele>
        <time>2026-08-31T06:09:04.000Z</time>
        <extensions>
          <ns3:TrackPointExtension>
            <ns3:hr>160</ns3:hr>
            <ns3:cad>0</ns3:cad>
          </ns3:TrackPointExtension>
        </extensions>
      </trkpt>
      <trkpt lat="44.6734656952321529388427734375" lon="6.815048865973949432373046875">
        <ele>2000.5999755859375</ele>
        <time>2026-08-31T06:09:05.000Z</time>
        <extensions>
          <ns3:TrackPointExtension>
            <ns3:hr>159</ns3:hr>
            <ns3:cad>0</ns3:cad>
          </ns3:TrackPointExtension>
        </extensions>
      </trkpt>
      <trkpt lat="44.6734734065830707550048828125" lon="6.81504827924072742462158203125">
        <ele>2000.800048828125</ele>
        <time>2026-08-31T06:09:06.000Z</time>
        <extensions>
          <ns3:TrackPointExtension>
            <ns3:hr>159</ns3:hr>
            <ns3:cad>0</ns3:cad>
          </ns3:TrackPointExtension>
        </extensions>
      </trkpt>
      <trkpt lat="44.6734824590384960174560546875" lon="6.81504450738430023193359375">
        <ele>2001</ele>
        <time>2026-08-31T06:09:07.000Z</time>
        <extensions>
          <ns3:TrackPointExtension>
            <ns3:hr>159</ns3:hr>
            <ns3:cad>0</ns3:cad>
          </ns3:TrackPointExtension>
        </extensions>
      </trkpt>
      <trkpt lat="44.6734918467700481414794921875" lon="6.81503738276660442352294921875">
        <ele>2001.199951171875</ele>
        <time>2026-08-31T06:09:08.000Z</time>
        <extensions>
          <ns3:TrackPointExtension>
            <ns3:hr>159</ns3:hr>
            <ns3:cad>0</ns3:cad>
          </ns3:TrackPointExtension>
        </extensions>
      </trkpt>
      <trkpt lat="44.67350131832063198089599609375" lon="6.81503386236727237701416015625">
        <ele>2001.4000244140625</ele>
        <time>2026-08-31T06:09:09.000Z</time>
        <extensions>
          <ns3:TrackPointExtension>
            <ns3:hr>159</ns3:hr>
            <ns3:cad>49</ns3:cad>
          </ns3:TrackPointExtension>
        </extensions>
      </trkpt>
      <trkpt lat="44.67351187951862812042236328125" lon="6.81502900086343288421630859375">
        <ele>2001.5999755859375</ele>
        <time>2026-08-31T06:09:10.000Z</time>
        <extensions>
          <ns3:TrackPointExtension>
            <ns3:hr>159</ns3:hr>
            <ns3:cad>49</ns3:cad>
          </ns3:TrackPointExtension>
        </extensions>
      </trkpt>
      <trkpt lat="44.673517830669879913330078125" lon="6.815024055540561676025390625">
        <ele>2001.800048828125</ele>
        <time>2026-08-31T06:09:11.000Z</time>
        <extensions>
          <ns3:TrackPointExtension>
            <ns3:hr>159</ns3:hr>
            <ns3:cad>65</ns3:cad>
          </ns3:TrackPointExtension>
        </extensions>
      </trkpt>
      <trkpt lat="44.673529230058193206787109375" lon="6.8150242231786251068115234375">
        <ele>2002</ele>
        <time>2026-08-31T06:09:12.000Z</time>
        <extensions>
          <ns3:TrackPointExtension>
            <ns3:hr>160</ns3:hr>
            <ns3:cad>65</ns3:cad>
          </ns3:TrackPointExtension>
        </extensions>
      </trkpt>
      <trkpt lat="44.673537947237491607666015625" lon="6.81502598337829113006591796875">
        <ele>2002.199951171875</ele>
        <time>2026-08-31T06:09:13.000Z</time>
        <extensions>
          <ns3:TrackPointExtension>
            <ns3:hr>161</ns3:hr>
            <ns3:cad>65</ns3:cad>
          </ns3:TrackPointExtension>
        </extensions>
      </trkpt>
      <trkpt lat="44.67354993335902690887451171875" lon="6.81502732448279857635498046875">
        <ele>2002.4000244140625</ele>
        <time>2026-08-31T06:09:14.000Z</time>
        <extensions>
          <ns3:TrackPointExtension>
            <ns3:hr>162</ns3:hr>
            <ns3:cad>65</ns3:cad>
          </ns3:TrackPointExtension>
        </extensions>
      </trkpt>
      <trkpt lat="44.6735599078238010406494140625" lon="6.81502933613955974578857421875">
        <ele>2002.5999755859375</ele>
        <time>2026-08-31T06:09:15.000Z</time>
        <extensions>
          <ns3:TrackPointExtension>
            <ns3:hr>163</ns3:hr>
            <ns3:cad>65</ns3:cad>
          </ns3:TrackPointExtension>
        </extensions>
      </trkpt>
      <trkpt lat="44.67356652952730655670166015625" lon="6.81503486819565296173095703125">
        <ele>2002.800048828125</ele>
        <time>2026-08-31T06:09:16.000Z</time>
        <extensions>
          <ns3:TrackPointExtension>
            <ns3:hr>163</ns3:hr>
            <ns3:cad>65</ns3:cad>
          </ns3:TrackPointExtension>
        </extensions>
      </trkpt>
      <trkpt lat="44.67356870882213115692138671875" lon="6.81504207663238048553466796875">
        <ele>2002.800048828125</ele>
        <time>2026-08-31T06:09:17.000Z</time>
        <extensions>
          <ns3:TrackPointExtension>
            <ns3:hr>164</ns3:hr>
            <ns3:cad>47</ns3:cad>
          </ns3:TrackPointExtension>
        </extensions>
      </trkpt>
      <trkpt lat="44.67357004992663860321044921875" lon="6.815050542354583740234375">
        <ele>2003</ele>
        <time>2026-08-31T06:09:18.000Z</time>
        <extensions>
          <ns3:TrackPointExtension>
            <ns3:hr>164</ns3:hr>
            <ns3:cad>47</ns3:cad>
          </ns3:TrackPointExtension>
        </extensions>
      </trkpt>
      <trkpt lat="44.673572480678558349609375" lon="6.81506462395191192626953125">
        <ele>2003.199951171875</ele>
        <time>2026-08-31T06:09:19.000Z</time>
        <extensions>
          <ns3:TrackPointExtension>
            <ns3:hr>164</ns3:hr>
            <ns3:cad>47</ns3:cad>
          </ns3:TrackPointExtension>
        </extensions>
      </trkpt>
      <trkpt lat="44.673570804297924041748046875" lon="6.81507744826376438140869140625">
        <ele>2003.4000244140625</ele>
        <time>2026-08-31T06:09:20.000Z</time>
        <extensions>
          <ns3:TrackPointExtension>
            <ns3:hr>164</ns3:hr>
            <ns3:cad>47</ns3:cad>
          </ns3:TrackPointExtension>
        </extensions>
      </trkpt>
      <trkpt lat="44.6735686250030994415283203125" lon="6.81509270332753658294677734375">
        <ele>2003.5999755859375</ele>
        <time>2026-08-31T06:09:21.000Z</time>
        <extensions>
          <ns3:TrackPointExtension>
            <ns3:hr>164</ns3:hr>
            <ns3:cad>47</ns3:cad>
          </ns3:TrackPointExtension>
        </extensions>
      </trkpt>
      <trkpt lat="44.673567116260528564453125" lon="6.8151030130684375762939453125">
        <ele>2003.800048828125</ele>
        <time>2026-08-31T06:09:22.000Z</time>
        <extensions>
          <ns3:TrackPointExtension>
            <ns3:hr>163</ns3:hr>
            <ns3:cad>50</ns3:cad>
          </ns3:TrackPointExtension>
        </extensions>
      </trkpt>
      <trkpt lat="44.67356778681278228759765625" lon="6.8151117302477359771728515625">
        <ele>2004</ele>
        <time>2026-08-31T06:09:23.000Z</time>
        <extensions>
          <ns3:TrackPointExtension>
            <ns3:hr>162</ns3:hr>
            <ns3:cad>50</ns3:cad>
          </ns3:TrackPointExtension>
        </extensions>
      </trkpt>
      <trkpt lat="44.67357256449759006500244140625" lon="6.815115921199321746826171875">
        <ele>2004.199951171875</ele>
        <time>2026-08-31T06:09:24.000Z</time>
        <extensions>
          <ns3:TrackPointExtension>
            <ns3:hr>161</ns3:hr>
            <ns3:cad>52</ns3:cad>
          </ns3:TrackPointExtension>
        </extensions>
      </trkpt>
      <trkpt lat="44.67357474379241466522216796875" lon="6.81511952541768550872802734375">
        <ele>2004.4000244140625</ele>
        <time>2026-08-31T06:09:25.000Z</time>
        <extensions>
          <ns3:TrackPointExtension>
            <ns3:hr>158</ns3:hr>
            <ns3:cad>52</ns3:cad>
          </ns3:TrackPointExtension>
        </extensions>
      </trkpt>
      <trkpt lat="44.67358245514333248138427734375" lon="6.815119944512844085693359375">
        <ele>2004.5999755859375</ele>
        <time>2026-08-31T06:09:26.000Z</time>
        <extensions>
          <ns3:TrackPointExtension>
            <ns3:hr>157</ns3:hr>
            <ns3:cad>0</ns3:cad>
          </ns3:TrackPointExtension>
        </extensions>
      </trkpt>
      <trkpt lat="44.67358849011361598968505859375" lon="6.815115921199321746826171875">
        <ele>2004.800048828125</ele>
        <time>2026-08-31T06:09:27.000Z</time>
        <extensions>
          <ns3:TrackPointExtension>
            <ns3:hr>156</ns3:hr>
            <ns3:cad>0</ns3:cad>
          </ns3:TrackPointExtension>
        </extensions>
      </trkpt>
      <trkpt lat="44.6735991351306438446044921875" lon="6.81510896421968936920166015625">
        <ele>2005</ele>
        <time>2026-08-31T06:09:28.000Z</time>
        <extensions>
          <ns3:TrackPointExtension>
            <ns3:hr>155</ns3:hr>
            <ns3:cad>0</ns3:cad>
          </ns3:TrackPointExtension>
        </extensions>
      </trkpt>
      <trkpt lat="44.67360978014767169952392578125" lon="6.8151046894490718841552734375">
        <ele>2005</ele>
        <time>2026-08-31T06:09:29.000Z</time>
        <extensions>
          <ns3:TrackPointExtension>
            <ns3:hr>154</ns3:hr>
            <ns3:cad>0</ns3:cad>
          </ns3:TrackPointExtension>
        </extensions>
      </trkpt>
      <trkpt lat="44.6736192516982555389404296875" lon="6.81509890593588352203369140625">
        <ele>2005.199951171875</ele>
        <time>2026-08-31T06:09:30.000Z</time>
        <extensions>
          <ns3:TrackPointExtension>
            <ns3:hr>154</ns3:hr>
            <ns3:cad>0</ns3:cad>
          </ns3:TrackPointExtension>
        </extensions>
      </trkpt>
      <trkpt lat="44.673625789582729339599609375" lon="6.815091781318187713623046875">
        <ele>2005.4000244140625</ele>
        <time>2026-08-31T06:09:31.000Z</time>
        <extensions>
          <ns3:TrackPointExtension>
            <ns3:hr>153</ns3:hr>
            <ns3:cad>0</ns3:cad>
          </ns3:TrackPointExtension>
        </extensions>
      </trkpt>
      <trkpt lat="44.67362822033464908599853515625" lon="6.81508901529014110565185546875">
        <ele>2005.800048828125</ele>
        <time>2026-08-31T06:09:32.000Z</time>
        <extensions>
          <ns3:TrackPointExtension>
            <ns3:hr>153</ns3:hr>
            <ns3:cad>40</ns3:cad>
          </ns3:TrackPointExtension>
        </extensions>
      </trkpt>
      <trkpt lat="44.67363559640944004058837890625" lon="6.81508298031985759735107421875">
        <ele>2006</ele>
        <time>2026-08-31T06:09:33.000Z</time>
        <extensions>
          <ns3:TrackPointExtension>
            <ns3:hr>153</ns3:hr>
            <ns3:cad>40</ns3:cad>
          </ns3:TrackPointExtension>
        </extensions>
      </trkpt>
      <trkpt lat="44.67363861389458179473876953125" lon="6.81507878936827182769775390625">
        <ele>2006.199951171875</ele>
        <time>2026-08-31T06:09:34.000Z</time>
        <extensions>
          <ns3:TrackPointExtension>
            <ns3:hr>153</ns3:hr>
            <ns3:cad>40</ns3:cad>
          </ns3:TrackPointExtension>
        </extensions>
      </trkpt>
      <trkpt lat="44.67364800162613391876220703125" lon="6.81507560424506664276123046875">
        <ele>2006.199951171875</ele>
        <time>2026-08-31T06:09:35.000Z</time>
        <extensions>
          <ns3:TrackPointExtension>
            <ns3:hr>153</ns3:hr>
            <ns3:cad>40</ns3:cad>
          </ns3:TrackPointExtension>
        </extensions>
      </trkpt>
      <trkpt lat="44.67365437187254428863525390625" lon="6.81507644243538379669189453125">
        <ele>2006.4000244140625</ele>
        <time>2026-08-31T06:09:36.000Z</time>
        <extensions>
          <ns3:TrackPointExtension>
            <ns3:hr>153</ns3:hr>
            <ns3:cad>0</ns3:cad>
          </ns3:TrackPointExtension>
        </extensions>
      </trkpt>
      <trkpt lat="44.67366023920476436614990234375" lon="6.81508281268179416656494140625">
        <ele>2006.5999755859375</ele>
        <time>2026-08-31T06:09:37.000Z</time>
        <extensions>
          <ns3:TrackPointExtension>
            <ns3:hr>153</ns3:hr>
            <ns3:cad>0</ns3:cad>
          </ns3:TrackPointExtension>
        </extensions>
      </trkpt>
      <trkpt lat="44.673664681613445281982421875" lon="6.81509337387979030609130859375">
        <ele>2006.800048828125</ele>
        <time>2026-08-31T06:09:38.000Z</time>
        <extensions>
          <ns3:TrackPointExtension>
            <ns3:hr>154</ns3:hr>
            <ns3:cad>0</ns3:cad>
          </ns3:TrackPointExtension>
        </extensions>
      </trkpt>
      <trkpt lat="44.67366778291761875152587890625" lon="6.815103180706501007080078125">
        <ele>2007</ele>
        <time>2026-08-31T06:09:39.000Z</time>
        <extensions>
          <ns3:TrackPointExtension>
            <ns3:hr>154</ns3:hr>
            <ns3:cad>0</ns3:cad>
          </ns3:TrackPointExtension>
        </extensions>
      </trkpt>
      <trkpt lat="44.6736655198037624359130859375" lon="6.8151157535612583160400390625">
        <ele>2007.199951171875</ele>
        <time>2026-08-31T06:09:40.000Z</time>
        <extensions>
          <ns3:TrackPointExtension>
            <ns3:hr>154</ns3:hr>
            <ns3:cad>0</ns3:cad>
          </ns3:TrackPointExtension>
        </extensions>
      </trkpt>
      <trkpt lat="44.6736638434231281280517578125" lon="6.81512690149247646331787109375">
        <ele>2007.4000244140625</ele>
        <time>2026-08-31T06:09:41.000Z</time>
        <extensions>
          <ns3:TrackPointExtension>
            <ns3:hr>155</ns3:hr>
            <ns3:cad>52</ns3:cad>
          </ns3:TrackPointExtension>
        </extensions>
      </trkpt>
      <trkpt lat="44.6736614964902400970458984375" lon="6.815143413841724395751953125">
        <ele>2007.5999755859375</ele>
        <time>2026-08-31T06:09:42.000Z</time>
        <extensions>
          <ns3:TrackPointExtension>
            <ns3:hr>157</ns3:hr>
            <ns3:cad>52</ns3:cad>
          </ns3:TrackPointExtension>
        </extensions>
      </trkpt>
      <trkpt lat="44.6736601553857326507568359375" lon="6.81515707634389400482177734375">
        <ele>2007.5999755859375</ele>
        <time>2026-08-31T06:09:43.000Z</time>
        <extensions>
          <ns3:TrackPointExtension>
            <ns3:hr>163</ns3:hr>
            <ns3:cad>52</ns3:cad>
          </ns3:TrackPointExtension>
        </extensions>
      </trkpt>
      <trkpt lat="44.67365805990993976593017578125" lon="6.81516780517995357513427734375">
        <ele>2007.800048828125</ele>
        <time>2026-08-31T06:09:44.000Z</time>
        <extensions>
          <ns3:TrackPointExtension>
            <ns3:hr>166</ns3:hr>
            <ns3:cad>52</ns3:cad>
          </ns3:TrackPointExtension>
        </extensions>
      </trkpt>
      <trkpt lat="44.67366023920476436614990234375" lon="6.815180294215679168701171875">
        <ele>2008</ele>
        <time>2026-08-31T06:09:45.000Z</time>
        <extensions>
          <ns3:TrackPointExtension>
            <ns3:hr>167</ns3:hr>
            <ns3:cad>52</ns3:cad>
          </ns3:TrackPointExtension>
        </extensions>
      </trkpt>
      <trkpt lat="44.6736614964902400970458984375" lon="6.815186999738216400146484375">
        <ele>2008.199951171875</ele>
        <time>2026-08-31T06:09:46.000Z</time>
        <extensions>
          <ns3:TrackPointExtension>
            <ns3:hr>169</ns3:hr>
            <ns3:cad>52</ns3:cad>
          </ns3:TrackPointExtension>
        </extensions>
      </trkpt>
      <trkpt lat="44.673664011061191558837890625" lon="6.815203092992305755615234375">
        <ele>2008.4000244140625</ele>
        <time>2026-08-31T06:09:47.000Z</time>
        <extensions>
          <ns3:TrackPointExtension>
            <ns3:hr>169</ns3:hr>
            <ns3:cad>52</ns3:cad>
          </ns3:TrackPointExtension>
        </extensions>
      </trkpt>
      <trkpt lat="44.673666022717952728271484375" lon="6.81521323509514331817626953125">
        <ele>2008.5999755859375</ele>
        <time>2026-08-31T06:09:48.000Z</time>
        <extensions>
          <ns3:TrackPointExtension>
            <ns3:hr>169</ns3:hr>
            <ns3:cad>52</ns3:cad>
          </ns3:TrackPointExtension>
        </extensions>
      </trkpt>
      <trkpt lat="44.67366862110793590545654296875" lon="6.8152227066457271575927734375">
        <ele>2008.800048828125</ele>
        <time>2026-08-31T06:09:49.000Z</time>
        <extensions>
          <ns3:TrackPointExtension>
            <ns3:hr>169</ns3:hr>
            <ns3:cad>52</ns3:cad>
          </ns3:TrackPointExtension>
        </extensions>
      </trkpt>
      <trkpt lat="44.6736730635166168212890625" lon="6.81522815488278865814208984375">
        <ele>2009</ele>
        <time>2026-08-31T06:09:50.000Z</time>
        <extensions>
          <ns3:TrackPointExtension>
            <ns3:hr>169</ns3:hr>
            <ns3:cad>52</ns3:cad>
          </ns3:TrackPointExtension>
        </extensions>
      </trkpt>
      <trkpt lat="44.6736775897443294525146484375" lon="6.81523100472986698150634765625">
        <ele>2009.199951171875</ele>
        <time>2026-08-31T06:09:51.000Z</time>
        <extensions>
          <ns3:TrackPointExtension>
            <ns3:hr>169</ns3:hr>
            <ns3:cad>52</ns3:cad>
          </ns3:TrackPointExtension>
        </extensions>
      </trkpt>
      <trkpt lat="44.67368169687688350677490234375" lon="6.8152260594069957733154296875">
        <ele>2009.4000244140625</ele>
        <time>2026-08-31T06:09:52.000Z</time>
        <extensions>
          <ns3:TrackPointExtension>
            <ns3:hr>168</ns3:hr>
            <ns3:cad>52</ns3:cad>
          </ns3:TrackPointExtension>
        </extensions>
      </trkpt>
      <trkpt lat="44.67368454672396183013916015625" lon="6.81522279046475887298583984375">
        <ele>2009.5999755859375</ele>
        <time>2026-08-31T06:09:53.000Z</time>
        <extensions>
          <ns3:TrackPointExtension>
            <ns3:hr>168</ns3:hr>
            <ns3:cad>52</ns3:cad>
          </ns3:TrackPointExtension>
        </extensions>
      </trkpt>
      <trkpt lat="44.67368907295167446136474609375" lon="6.8152156658470630645751953125">
        <ele>2009.800048828125</ele>
        <time>2026-08-31T06:09:54.000Z</time>
        <extensions>
          <ns3:TrackPointExtension>
            <ns3:hr>168</ns3:hr>
            <ns3:cad>52</ns3:cad>
          </ns3:TrackPointExtension>
        </extensions>
      </trkpt>
      <trkpt lat="44.67369276098906993865966796875" lon="6.81521189399063587188720703125">
        <ele>2010</ele>
        <time>2026-08-31T06:09:55.000Z</time>
        <extensions>
          <ns3:TrackPointExtension>
            <ns3:hr>168</ns3:hr>
            <ns3:cad>52</ns3:cad>
          </ns3:TrackPointExtension>
        </extensions>
      </trkpt>
      <trkpt lat="44.67370265163481235504150390625" lon="6.815207786858081817626953125">
        <ele>2010.199951171875</ele>
        <time>2026-08-31T06:09:56.000Z</time>
        <extensions>
          <ns3:TrackPointExtension>
            <ns3:hr>168</ns3:hr>
            <ns3:cad>52</ns3:cad>
          </ns3:TrackPointExtension>
        </extensions>
      </trkpt>
      <trkpt lat="44.6737131290137767791748046875" lon="6.81520652957260608673095703125">
        <ele>2010.4000244140625</ele>
        <time>2026-08-31T06:09:57.000Z</time>
        <extensions>
          <ns3:TrackPointExtension>
            <ns3:hr>168</ns3:hr>
            <ns3:cad>52</ns3:cad>
          </ns3:TrackPointExtension>
        </extensions>
      </trkpt>
      <trkpt lat="44.6737248636782169342041015625" lon="6.8152123130857944488525390625">
        <ele>2010.5999755859375</ele>
        <time>2026-08-31T06:09:58.000Z</time>
        <extensions>
          <ns3:TrackPointExtension>
            <ns3:hr>167</ns3:hr>
            <ns3:cad>52</ns3:cad>
          </ns3:TrackPointExtension>
        </extensions>
      </trkpt>
      <trkpt lat="44.67373265884816646575927734375" lon="6.81521826423704624176025390625">
        <ele>2010.800048828125</ele>
        <time>2026-08-31T06:09:59.000Z</time>
        <extensions>
          <ns3:TrackPointExtension>
            <ns3:hr>167</ns3:hr>
            <ns3:cad>52</ns3:cad>
          </ns3:TrackPointExtension>
        </extensions>
      </trkpt>
      <trkpt lat="44.6737359277904033660888671875" lon="6.81522714905440807342529296875">
        <ele>2010.800048828125</ele>
        <time>2026-08-31T06:10:00.000Z</time>
        <extensions>
          <ns3:TrackPointExtension>
            <ns3:hr>167</ns3:hr>
            <ns3:cad>52</ns3:cad>
          </ns3:TrackPointExtension>
        </extensions>
      </trkpt>
      <trkpt lat="44.673736430704593658447265625" lon="6.815235614776611328125">
        <ele>2011</ele>
        <time>2026-08-31T06:10:01.000Z</time>
        <extensions>
          <ns3:TrackPointExtension>
            <ns3:hr>167</ns3:hr>
            <ns3:cad>52</ns3:cad>
          </ns3:TrackPointExtension>
        </extensions>
      </trkpt>
      <trkpt lat="44.6737365983426570892333984375" lon="6.8152463436126708984375">
        <ele>2011.199951171875</ele>
        <time>2026-08-31T06:10:02.000Z</time>
        <extensions>
          <ns3:TrackPointExtension>
            <ns3:hr>167</ns3:hr>
            <ns3:cad>52</ns3:cad>
          </ns3:TrackPointExtension>
        </extensions>
      </trkpt>
      <trkpt lat="44.6737374365329742431640625" lon="6.81525950320065021514892578125">
        <ele>2011.4000244140625</ele>
        <time>2026-08-31T06:10:03.000Z</time>
        <extensions>
          <ns3:TrackPointExtension>
            <ns3:hr>166</ns3:hr>
            <ns3:cad>52</ns3:cad>
          </ns3:TrackPointExtension>
        </extensions>
      </trkpt>
      <trkpt lat="44.6737376041710376739501953125" lon="6.81527316570281982421875">
        <ele>2011.5999755859375</ele>
        <time>2026-08-31T06:10:04.000Z</time>
        <extensions>
          <ns3:TrackPointExtension>
            <ns3:hr>166</ns3:hr>
            <ns3:cad>52</ns3:cad>
          </ns3:TrackPointExtension>
        </extensions>
      </trkpt>
      <trkpt lat="44.6737374365329742431640625" lon="6.8152900971472263336181640625">
        <ele>2011.800048828125</ele>
        <time>2026-08-31T06:10:05.000Z</time>
        <extensions>
          <ns3:TrackPointExtension>
            <ns3:hr>166</ns3:hr>
            <ns3:cad>52</ns3:cad>
          </ns3:TrackPointExtension>
        </extensions>
      </trkpt>
      <trkpt lat="44.673738442361354827880859375" lon="6.8153066933155059814453125">
        <ele>2012</ele>
        <time>2026-08-31T06:10:06.000Z</time>
        <extensions>
          <ns3:TrackPointExtension>
            <ns3:hr>166</ns3:hr>
            <ns3:cad>52</ns3:cad>
          </ns3:TrackPointExtension>
        </extensions>
      </trkpt>
      <trkpt lat="44.67373852618038654327392578125" lon="6.8153192661702632904052734375">
        <ele>2012.199951171875</ele>
        <time>2026-08-31T06:10:07.000Z</time>
        <extensions>
          <ns3:TrackPointExtension>
            <ns3:hr>166</ns3:hr>
            <ns3:cad>52</ns3:cad>
          </ns3:TrackPointExtension>
        </extensions>
      </trkpt>
      <trkpt lat="44.67373810708522796630859375" lon="6.81533284485340118408203125">
        <ele>2012.199951171875</ele>
        <time>2026-08-31T06:10:08.000Z</time>
        <extensions>
          <ns3:TrackPointExtension>
            <ns3:hr>165</ns3:hr>
            <ns3:cad>0</ns3:cad>
          </ns3:TrackPointExtension>
        </extensions>
      </trkpt>
      <trkpt lat="44.67373785562813282012939453125" lon="6.81534223258495330810546875">
        <ele>2012.4000244140625</ele>
        <time>2026-08-31T06:10:09.000Z</time>
        <extensions>
          <ns3:TrackPointExtension>
            <ns3:hr>165</ns3:hr>
            <ns3:cad>0</ns3:cad>
          </ns3:TrackPointExtension>
        </extensions>
      </trkpt>
      <trkpt lat="44.673737101256847381591796875" lon="6.81535690091550350189208984375">
        <ele>2012.5999755859375</ele>
        <time>2026-08-31T06:10:10.000Z</time>
        <extensions>
          <ns3:TrackPointExtension>
            <ns3:hr>164</ns3:hr>
            <ns3:cad>0</ns3:cad>
          </ns3:TrackPointExtension>
        </extensions>
      </trkpt>
      <trkpt lat="44.67373668216168880462646484375" lon="6.8153658695518970489501953125">
        <ele>2012.800048828125</ele>
        <time>2026-08-31T06:10:11.000Z</time>
        <extensions>
          <ns3:TrackPointExtension>
            <ns3:hr>163</ns3:hr>
            <ns3:cad>0</ns3:cad>
          </ns3:TrackPointExtension>
        </extensions>
      </trkpt>
      <trkpt lat="44.673736430704593658447265625" lon="6.815380118787288665771484375">
        <ele>2013</ele>
        <time>2026-08-31T06:10:12.000Z</time>
        <extensions>
          <ns3:TrackPointExtension>
            <ns3:hr>162</ns3:hr>
            <ns3:cad>0</ns3:cad>
          </ns3:TrackPointExtension>
        </extensions>
      </trkpt>
      <trkpt lat="44.67373668216168880462646484375" lon="6.8153926916420459747314453125">
        <ele>2013.199951171875</ele>
        <time>2026-08-31T06:10:13.000Z</time>
        <extensions>
          <ns3:TrackPointExtension>
            <ns3:hr>162</ns3:hr>
            <ns3:cad>0</ns3:cad>
          </ns3:TrackPointExtension>
        </extensions>
      </trkpt>
      <trkpt lat="44.67373634688556194305419921875" lon="6.8154032528400421142578125">
        <ele>2013.4000244140625</ele>
        <time>2026-08-31T06:10:14.000Z</time>
        <extensions>
          <ns3:TrackPointExtension>
            <ns3:hr>161</ns3:hr>
            <ns3:cad>0</ns3:cad>
          </ns3:TrackPointExtension>
        </extensions>
      </trkpt>
      <trkpt lat="44.67373617924749851226806640625" lon="6.8154114671051502227783203125">
        <ele>2013.4000244140625</ele>
        <time>2026-08-31T06:10:15.000Z</time>
        <extensions>
          <ns3:TrackPointExtension>
            <ns3:hr>161</ns3:hr>
            <ns3:cad>0</ns3:cad>
          </ns3:TrackPointExtension>
        </extensions>
      </trkpt>
      <trkpt lat="44.67373634688556194305419921875" lon="6.815421022474765777587890625">
        <ele>2013.5999755859375</ele>
        <time>2026-08-31T06:10:16.000Z</time>
        <extensions>
          <ns3:TrackPointExtension>
            <ns3:hr>161</ns3:hr>
            <ns3:cad>0</ns3:cad>
          </ns3:TrackPointExtension>
        </extensions>
      </trkpt>
      <trkpt lat="44.67374355532228946685791015625" lon="6.81543753482401371002197265625">
        <ele>2013.800048828125</ele>
        <time>2026-08-31T06:10:17.000Z</time>
        <extensions>
          <ns3:TrackPointExtension>
            <ns3:hr>161</ns3:hr>
            <ns3:cad>0</ns3:cad>
          </ns3:TrackPointExtension>
        </extensions>
      </trkpt>
      <trkpt lat="44.67375109903514385223388671875" lon="6.8154496885836124420166015625">
        <ele>2014</ele>
        <time>2026-08-31T06:10:18.000Z</time>
        <extensions>
          <ns3:TrackPointExtension>
            <ns3:hr>161</ns3:hr>
            <ns3:cad>0</ns3:cad>
          </ns3:TrackPointExtension>
        </extensions>
      </trkpt>
      <trkpt lat="44.67375881038606166839599609375" lon="6.8154542148113250732421875">
        <ele>2014.199951171875</ele>
        <time>2026-08-31T06:10:19.000Z</time>
        <extensions>
          <ns3:TrackPointExtension>
            <ns3:hr>160</ns3:hr>
            <ns3:cad>0</ns3:cad>
          </ns3:TrackPointExtension>
        </extensions>
      </trkpt>
      <trkpt lat="44.67376618646085262298583984375" lon="6.815449185669422149658203125">
        <ele>2014.4000244140625</ele>
        <time>2026-08-31T06:10:20.000Z</time>
        <extensions>
          <ns3:TrackPointExtension>
            <ns3:hr>160</ns3:hr>
            <ns3:cad>0</ns3:cad>
          </ns3:TrackPointExtension>
        </extensions>
      </trkpt>
      <trkpt lat="44.67377289198338985443115234375" lon="6.8154434859752655029296875">
        <ele>2014.5999755859375</ele>
        <time>2026-08-31T06:10:21.000Z</time>
        <extensions>
          <ns3:TrackPointExtension>
            <ns3:hr>159</ns3:hr>
            <ns3:cad>0</ns3:cad>
          </ns3:TrackPointExtension>
        </extensions>
      </trkpt>
      <trkpt lat="44.67378110624849796295166015625" lon="6.815433092415332794189453125">
        <ele>2014.800048828125</ele>
        <time>2026-08-31T06:10:22.000Z</time>
        <extensions>
          <ns3:TrackPointExtension>
            <ns3:hr>158</ns3:hr>
            <ns3:cad>0</ns3:cad>
          </ns3:TrackPointExtension>
        </extensions>
      </trkpt>
      <trkpt lat="44.67378093861043453216552734375" lon="6.81542630307376384735107421875">
        <ele>2015</ele>
        <time>2026-08-31T06:10:23.000Z</time>
        <extensions>
          <ns3:TrackPointExtension>
            <ns3:hr>158</ns3:hr>
            <ns3:cad>0</ns3:cad>
          </ns3:TrackPointExtension>
        </extensions>
      </trkpt>
      <trkpt lat="44.6737838722765445709228515625" lon="6.81541264057159423828125">
        <ele>2015.199951171875</ele>
        <time>2026-08-31T06:10:24.000Z</time>
        <extensions>
          <ns3:TrackPointExtension>
            <ns3:hr>159</ns3:hr>
            <ns3:cad>0</ns3:cad>
          </ns3:TrackPointExtension>
        </extensions>
      </trkpt>
      <trkpt lat="44.67378395609557628631591796875" lon="6.8154007382690906524658203125">
        <ele>2015.4000244140625</ele>
        <time>2026-08-31T06:10:25.000Z</time>
        <extensions>
          <ns3:TrackPointExtension>
            <ns3:hr>159</ns3:hr>
            <ns3:cad>0</ns3:cad>
          </ns3:TrackPointExtension>
        </extensions>
      </trkpt>
      <trkpt lat="44.6737919189035892486572265625" lon="6.8153896741569042205810546875">
        <ele>2015.5999755859375</ele>
        <time>2026-08-31T06:10:26.000Z</time>
        <extensions>
          <ns3:TrackPointExtension>
            <ns3:hr>159</ns3:hr>
            <ns3:cad>0</ns3:cad>
          </ns3:TrackPointExtension>
        </extensions>
      </trkpt>
      <trkpt lat="44.67380055226385593414306640625" lon="6.815379448235034942626953125">
        <ele>2015.5999755859375</ele>
        <time>2026-08-31T06:10:27.000Z</time>
        <extensions>
          <ns3:TrackPointExtension>
            <ns3:hr>159</ns3:hr>
            <ns3:cad>0</ns3:cad>
          </ns3:TrackPointExtension>
        </extensions>
      </trkpt>
      <trkpt lat="44.67380759306252002716064453125" lon="6.81536578573286533355712890625">
        <ele>2015.800048828125</ele>
        <time>2026-08-31T06:10:28.000Z</time>
        <extensions>
          <ns3:TrackPointExtension>
            <ns3:hr>159</ns3:hr>
            <ns3:cad>0</ns3:cad>
          </ns3:TrackPointExtension>
        </extensions>
      </trkpt>
      <trkpt lat="44.6738160587847232818603515625" lon="6.8153561465442180633544921875">
        <ele>2015.800048828125</ele>
        <time>2026-08-31T06:10:29.000Z</time>
        <extensions>
          <ns3:TrackPointExtension>
            <ns3:hr>159</ns3:hr>
            <ns3:cad>0</ns3:cad>
          </ns3:TrackPointExtension>
        </extensions>
      </trkpt>
      <trkpt lat="44.6738277934491634368896484375" lon="6.8153434060513973236083984375">
        <ele>2015.800048828125</ele>
        <time>2026-08-31T06:10:30.000Z</time>
        <extensions>
          <ns3:TrackPointExtension>
            <ns3:hr>160</ns3:hr>
            <ns3:cad>0</ns3:cad>
          </ns3:TrackPointExtension>
        </extensions>
      </trkpt>
      <trkpt lat="44.6738358400762081146240234375" lon="6.8153363652527332305908203125">
        <ele>2016</ele>
        <time>2026-08-31T06:10:31.000Z</time>
        <extensions>
          <ns3:TrackPointExtension>
            <ns3:hr>160</ns3:hr>
            <ns3:cad>0</ns3:cad>
          </ns3:TrackPointExtension>
        </extensions>
      </trkpt>
      <trkpt lat="44.67384447343647480010986328125" lon="6.81532655842602252960205078125">
        <ele>2016</ele>
        <time>2026-08-31T06:10:32.000Z</time>
        <extensions>
          <ns3:TrackPointExtension>
            <ns3:hr>160</ns3:hr>
            <ns3:cad>0</ns3:cad>
          </ns3:TrackPointExtension>
        </extensions>
      </trkpt>
      <trkpt lat="44.6738532744348049163818359375" lon="6.81531465612351894378662109375">
        <ele>2016.199951171875</ele>
        <time>2026-08-31T06:10:33.000Z</time>
        <extensions>
          <ns3:TrackPointExtension>
            <ns3:hr>160</ns3:hr>
            <ns3:cad>0</ns3:cad>
          </ns3:TrackPointExtension>
        </extensions>
      </trkpt>
      <trkpt lat="44.67385905794799327850341796875" lon="6.815303675830364227294921875">
        <ele>2016.199951171875</ele>
        <time>2026-08-31T06:10:34.000Z</time>
        <extensions>
          <ns3:TrackPointExtension>
            <ns3:hr>160</ns3:hr>
            <ns3:cad>0</ns3:cad>
          </ns3:TrackPointExtension>
        </extensions>
      </trkpt>
      <trkpt lat="44.67386953532695770263671875" lon="6.8152887560427188873291015625">
        <ele>2016.4000244140625</ele>
        <time>2026-08-31T06:10:35.000Z</time>
        <extensions>
          <ns3:TrackPointExtension>
            <ns3:hr>160</ns3:hr>
            <ns3:cad>0</ns3:cad>
          </ns3:TrackPointExtension>
        </extensions>
      </trkpt>
      <trkpt lat="44.673872888088226318359375" lon="6.81528649292886257171630859375">
        <ele>2016.5999755859375</ele>
        <time>2026-08-31T06:10:36.000Z</time>
        <extensions>
          <ns3:TrackPointExtension>
            <ns3:hr>161</ns3:hr>
            <ns3:cad>0</ns3:cad>
          </ns3:TrackPointExtension>
        </extensions>
      </trkpt>
      <trkpt lat="44.6738874725997447967529296875" lon="6.8152716569602489471435546875">
        <ele>2016.800048828125</ele>
        <time>2026-08-31T06:10:37.000Z</time>
        <extensions>
          <ns3:TrackPointExtension>
            <ns3:hr>160</ns3:hr>
            <ns3:cad>0</ns3:cad>
          </ns3:TrackPointExtension>
        </extensions>
      </trkpt>
      <trkpt lat="44.673896692693233489990234375" lon="6.81526486761868000030517578125">
        <ele>2016.800048828125</ele>
        <time>2026-08-31T06:10:38.000Z</time>
        <extensions>
          <ns3:TrackPointExtension>
            <ns3:hr>161</ns3:hr>
            <ns3:cad>0</ns3:cad>
          </ns3:TrackPointExtension>
        </extensions>
      </trkpt>
      <trkpt lat="44.673904739320278167724609375" lon="6.8152579106390476226806640625">
        <ele>2017</ele>
        <time>2026-08-31T06:10:39.000Z</time>
        <extensions>
          <ns3:TrackPointExtension>
            <ns3:hr>160</ns3:hr>
            <ns3:cad>0</ns3:cad>
          </ns3:TrackPointExtension>
        </extensions>
      </trkpt>
      <trkpt lat="44.673910439014434814453125" lon="6.81524575687944889068603515625">
        <ele>2017.199951171875</ele>
        <time>2026-08-31T06:10:40.000Z</time>
        <extensions>
          <ns3:TrackPointExtension>
            <ns3:hr>160</ns3:hr>
            <ns3:cad>0</ns3:cad>
          </ns3:TrackPointExtension>
        </extensions>
      </trkpt>
      <trkpt lat="44.6739144623279571533203125" lon="6.81523821316659450531005859375">
        <ele>2017.4000244140625</ele>
        <time>2026-08-31T06:10:41.000Z</time>
        <extensions>
          <ns3:TrackPointExtension>
            <ns3:hr>160</ns3:hr>
            <ns3:cad>0</ns3:cad>
          </ns3:TrackPointExtension>
        </extensions>
      </trkpt>
      <trkpt lat="44.67392158694565296173095703125" lon="6.81522865779697895050048828125">
        <ele>2017.5999755859375</ele>
        <time>2026-08-31T06:10:42.000Z</time>
        <extensions>
          <ns3:TrackPointExtension>
            <ns3:hr>160</ns3:hr>
            <ns3:cad>0</ns3:cad>
          </ns3:TrackPointExtension>
        </extensions>
      </trkpt>
      <trkpt lat="44.67392426915466785430908203125" lon="6.8152181804180145263671875">
        <ele>2017.800048828125</ele>
        <time>2026-08-31T06:10:43.000Z</time>
        <extensions>
          <ns3:TrackPointExtension>
            <ns3:hr>160</ns3:hr>
            <ns3:cad>0</ns3:cad>
          </ns3:TrackPointExtension>
        </extensions>
      </trkpt>
      <trkpt lat="44.673928208649158477783203125" lon="6.8152128159999847412109375">
        <ele>2017.800048828125</ele>
        <time>2026-08-31T06:10:44.000Z</time>
        <extensions>
          <ns3:TrackPointExtension>
            <ns3:hr>160</ns3:hr>
            <ns3:cad>0</ns3:cad>
          </ns3:TrackPointExtension>
        </extensions>
      </trkpt>
      <trkpt lat="44.67392896302044391632080078125" lon="6.8152128159999847412109375">
        <ele>2018</ele>
        <time>2026-08-31T06:10:45.000Z</time>
        <extensions>
          <ns3:TrackPointExtension>
            <ns3:hr>161</ns3:hr>
            <ns3:cad>0</ns3:cad>
          </ns3:TrackPointExtension>
        </extensions>
      </trkpt>
      <trkpt lat="44.673928879201412200927734375" lon="6.8152128159999847412109375">
        <ele>2018</ele>
        <time>2026-08-31T06:10:46.000Z</time>
        <extensions>
          <ns3:TrackPointExtension>
            <ns3:hr>161</ns3:hr>
            <ns3:cad>0</ns3:cad>
          </ns3:TrackPointExtension>
        </extensions>
      </trkpt>
      <trkpt lat="44.673928879201412200927734375" lon="6.8152128159999847412109375">
        <ele>2018</ele>
        <time>2026-08-31T06:10:47.000Z</time>
        <extensions>
          <ns3:TrackPointExtension>
            <ns3:hr>161</ns3:hr>
            <ns3:cad>0</ns3:cad>
          </ns3:TrackPointExtension>
        </extensions>
      </trkpt>
      <trkpt lat="44.673928879201412200927734375" lon="6.8152128159999847412109375">
        <ele>2018.199951171875</ele>
        <time>2026-08-31T06:10:48.000Z</time>
        <extensions>
          <ns3:TrackPointExtension>
            <ns3:hr>161</ns3:hr>
            <ns3:cad>0</ns3:cad>
          </ns3:TrackPointExtension>
        </extensions>
      </trkpt>
      <trkpt lat="44.673928879201412200927734375" lon="6.8152128159999847412109375">
        <ele>2018</ele>
        <time>2026-08-31T06:10:49.000Z</time>
        <extensions>
          <ns3:TrackPointExtension>
            <ns3:hr>160</ns3:hr>
            <ns3:cad>0</ns3:cad>
          </ns3:TrackPointExtension>
        </extensions>
      </trkpt>
      <trkpt lat="44.673928879201412200927734375" lon="6.8152128159999847412109375">
        <ele>2018</ele>
        <time>2026-08-31T06:10:50.000Z</time>
        <extensions>
          <ns3:TrackPointExtension>
            <ns3:hr>160</ns3:hr>
            <ns3:cad>0</ns3:cad>
          </ns3:TrackPointExtension>
        </extensions>
      </trkpt>
      <trkpt lat="44.673928879201412200927734375" lon="6.8152128159999847412109375">
        <ele>2018</ele>
        <time>2026-08-31T06:10:51.000Z</time>
        <extensions>
          <ns3:TrackPointExtension>
            <ns3:hr>161</ns3:hr>
            <ns3:cad>0</ns3:cad>
          </ns3:TrackPointExtension>
        </extensions>
      </trkpt>
      <trkpt lat="44.673928879201412200927734375" lon="6.8152128159999847412109375">
        <ele>2018</ele>
        <time>2026-08-31T06:10:52.000Z</time>
        <extensions>
          <ns3:TrackPointExtension>
            <ns3:hr>160</ns3:hr>
            <ns3:cad>0</ns3:cad>
          </ns3:TrackPointExtension>
        </extensions>
      </trkpt>
      <trkpt lat="44.673928879201412200927734375" lon="6.8152128159999847412109375">
        <ele>2018</ele>
        <time>2026-08-31T06:10:53.000Z</time>
        <extensions>
          <ns3:TrackPointExtension>
            <ns3:hr>160</ns3:hr>
            <ns3:cad>0</ns3:cad>
          </ns3:TrackPointExtension>
        </extensions>
      </trkpt>
      <trkpt lat="44.673928879201412200927734375" lon="6.8152128159999847412109375">
        <ele>2018</ele>
        <time>2026-08-31T06:10:54.000Z</time>
        <extensions>
          <ns3:TrackPointExtension>
            <ns3:hr>161</ns3:hr>
            <ns3:cad>0</ns3:cad>
          </ns3:TrackPointExtension>
        </extensions>
      </trkpt>
      <trkpt lat="44.673928879201412200927734375" lon="6.8152128159999847412109375">
        <ele>2018.199951171875</ele>
        <time>2026-08-31T06:10:55.000Z</time>
        <extensions>
          <ns3:TrackPointExtension>
            <ns3:hr>167</ns3:hr>
            <ns3:cad>0</ns3:cad>
          </ns3:TrackPointExtension>
        </extensions>
      </trkpt>
      <trkpt lat="44.673928879201412200927734375" lon="6.8152128159999847412109375">
        <ele>2018.199951171875</ele>
        <time>2026-08-31T06:10:56.000Z</time>
        <extensions>
          <ns3:TrackPointExtension>
            <ns3:hr>175</ns3:hr>
            <ns3:cad>0</ns3:cad>
          </ns3:TrackPointExtension>
        </extensions>
      </trkpt>
      <trkpt lat="44.673928879201412200927734375" lon="6.8152128159999847412109375">
        <ele>2018.199951171875</ele>
        <time>2026-08-31T06:10:57.000Z</time>
        <extensions>
          <ns3:TrackPointExtension>
            <ns3:hr>178</ns3:hr>
            <ns3:cad>0</ns3:cad>
          </ns3:TrackPointExtension>
        </extensions>
      </trkpt>
      <trkpt lat="44.673928879201412200927734375" lon="6.8152128159999847412109375">
        <ele>2018.199951171875</ele>
        <time>2026-08-31T06:10:58.000Z</time>
        <extensions>
          <ns3:TrackPointExtension>
            <ns3:hr>177</ns3:hr>
            <ns3:cad>0</ns3:cad>
          </ns3:TrackPointExtension>
        </extensions>
      </trkpt>
      <trkpt lat="44.673928879201412200927734375" lon="6.8152128159999847412109375">
        <ele>2018.199951171875</ele>
        <time>2026-08-31T06:10:59.000Z</time>
        <extensions>
          <ns3:TrackPointExtension>
            <ns3:hr>177</ns3:hr>
            <ns3:cad>0</ns3:cad>
          </ns3:TrackPointExtension>
        </extensions>
      </trkpt>
      <trkpt lat="44.673928879201412200927734375" lon="6.8152128159999847412109375">
        <ele>2018.199951171875</ele>
        <time>2026-08-31T06:11:00.000Z</time>
        <extensions>
          <ns3:TrackPointExtension>
            <ns3:hr>177</ns3:hr>
            <ns3:cad>0</ns3:cad>
          </ns3:TrackPointExtension>
        </extensions>
      </trkpt>
      <trkpt lat="44.673928879201412200927734375" lon="6.8152128159999847412109375">
        <ele>2018.199951171875</ele>
        <time>2026-08-31T06:11:01.000Z</time>
        <extensions>
          <ns3:TrackPointExtension>
            <ns3:hr>176</ns3:hr>
            <ns3:cad>0</ns3:cad>
          </ns3:TrackPointExtension>
        </extensions>
      </trkpt>
      <trkpt lat="44.673928879201412200927734375" lon="6.8152128159999847412109375">
        <ele>2018.199951171875</ele>
        <time>2026-08-31T06:11:02.000Z</time>
        <extensions>
          <ns3:TrackPointExtension>
            <ns3:hr>176</ns3:hr>
            <ns3:cad>0</ns3:cad>
          </ns3:TrackPointExtension>
        </extensions>
      </trkpt>
      <trkpt lat="44.673928879201412200927734375" lon="6.8152128159999847412109375">
        <ele>2018.199951171875</ele>
        <time>2026-08-31T06:11:03.000Z</time>
        <extensions>
          <ns3:TrackPointExtension>
            <ns3:hr>175</ns3:hr>
            <ns3:cad>0</ns3:cad>
          </ns3:TrackPointExtension>
        </extensions>
      </trkpt>
      <trkpt lat="44.673928879201412200927734375" lon="6.8152128159999847412109375">
        <ele>2018.199951171875</ele>
        <time>2026-08-31T06:11:04.000Z</time>
        <extensions>
          <ns3:TrackPointExtension>
            <ns3:hr>175</ns3:hr>
            <ns3:cad>0</ns3:cad>
          </ns3:TrackPointExtension>
        </extensions>
      </trkpt>
      <trkpt lat="44.673928879201412200927734375" lon="6.8152128159999847412109375">
        <ele>2018.4000244140625</ele>
        <time>2026-08-31T06:11:05.000Z</time>
        <extensions>
          <ns3:TrackPointExtension>
            <ns3:hr>174</ns3:hr>
            <ns3:cad>0</ns3:cad>
          </ns3:TrackPointExtension>
        </extensions>
      </trkpt>
      <trkpt lat="44.673928879201412200927734375" lon="6.8152128159999847412109375">
        <ele>2018.4000244140625</ele>
        <time>2026-08-31T06:11:06.000Z</time>
        <extensions>
          <ns3:TrackPointExtension>
            <ns3:hr>173</ns3:hr>
            <ns3:cad>0</ns3:cad>
          </ns3:TrackPointExtension>
        </extensions>
      </trkpt>
      <trkpt lat="44.673928879201412200927734375" lon="6.8152128159999847412109375">
        <ele>2018.199951171875</ele>
        <time>2026-08-31T06:11:07.000Z</time>
        <extensions>
          <ns3:TrackPointExtension>
            <ns3:hr>172</ns3:hr>
            <ns3:cad>0</ns3:cad>
          </ns3:TrackPointExtension>
        </extensions>
      </trkpt>
      <trkpt lat="44.673928879201412200927734375" lon="6.8152128159999847412109375">
        <ele>2018.199951171875</ele>
        <time>2026-08-31T06:11:08.000Z</time>
        <extensions>
          <ns3:TrackPointExtension>
            <ns3:hr>172</ns3:hr>
            <ns3:cad>0</ns3:cad>
          </ns3:TrackPointExtension>
        </extensions>
      </trkpt>
      <trkpt lat="44.673928879201412200927734375" lon="6.8152128159999847412109375">
        <ele>2018.199951171875</ele>
        <time>2026-08-31T06:11:09.000Z</time>
        <extensions>
          <ns3:TrackPointExtension>
            <ns3:hr>171</ns3:hr>
            <ns3:cad>0</ns3:cad>
          </ns3:TrackPointExtension>
        </extensions>
      </trkpt>
      <trkpt lat="44.673928879201412200927734375" lon="6.8152128159999847412109375">
        <ele>2018.199951171875</ele>
        <time>2026-08-31T06:11:10.000Z</time>
        <extensions>
          <ns3:TrackPointExtension>
            <ns3:hr>169</ns3:hr>
            <ns3:cad>0</ns3:cad>
          </ns3:TrackPointExtension>
        </extensions>
      </trkpt>
      <trkpt lat="44.673928879201412200927734375" lon="6.8152128159999847412109375">
        <ele>2018.4000244140625</ele>
        <time>2026-08-31T06:11:11.000Z</time>
        <extensions>
          <ns3:TrackPointExtension>
            <ns3:hr>165</ns3:hr>
            <ns3:cad>0</ns3:cad>
          </ns3:TrackPointExtension>
        </extensions>
      </trkpt>
      <trkpt lat="44.673928879201412200927734375" lon="6.8152128159999847412109375">
        <ele>2018.4000244140625</ele>
        <time>2026-08-31T06:11:12.000Z</time>
        <extensions>
          <ns3:TrackPointExtension>
            <ns3:hr>153</ns3:hr>
            <ns3:cad>0</ns3:cad>
          </ns3:TrackPointExtension>
        </extensions>
      </trkpt>
      <trkpt lat="44.673928879201412200927734375" lon="6.8152128159999847412109375">
        <ele>2018.4000244140625</ele>
        <time>2026-08-31T06:11:13.000Z</time>
        <extensions>
          <ns3:TrackPointExtension>
            <ns3:hr>150</ns3:hr>
            <ns3:cad>0</ns3:cad>
          </ns3:TrackPointExtension>
        </extensions>
      </trkpt>
      <trkpt lat="44.67393181286752223968505859375" lon="6.81520812213420867919921875">
        <ele>2018.4000244140625</ele>
        <time>2026-08-31T06:11:14.000Z</time>
        <extensions>
          <ns3:TrackPointExtension>
            <ns3:hr>149</ns3:hr>
            <ns3:cad>0</ns3:cad>
          </ns3:TrackPointExtension>
        </extensions>
      </trkpt>
      <trkpt lat="44.673942960798740386962890625" lon="6.81519228033721446990966796875">
        <ele>2018.5999755859375</ele>
        <time>2026-08-31T06:11:15.000Z</time>
        <extensions>
          <ns3:TrackPointExtension>
            <ns3:hr>148</ns3:hr>
            <ns3:cad>0</ns3:cad>
          </ns3:TrackPointExtension>
        </extensions>
      </trkpt>
      <trkpt lat="44.67394924722611904144287109375" lon="6.815182305872440338134765625">
        <ele>2018.5999755859375</ele>
        <time>2026-08-31T06:11:16.000Z</time>
        <extensions>
          <ns3:TrackPointExtension>
            <ns3:hr>148</ns3:hr>
            <ns3:cad>0</ns3:cad>
          </ns3:TrackPointExtension>
        </extensions>
      </trkpt>
      <trkpt lat="44.673956371843814849853515625" lon="6.81517568416893482208251953125">
        <ele>2018.5999755859375</ele>
        <time>2026-08-31T06:11:17.000Z</time>
        <extensions>
          <ns3:TrackPointExtension>
            <ns3:hr>147</ns3:hr>
            <ns3:cad>0</ns3:cad>
          </ns3:TrackPointExtension>
        </extensions>
      </trkpt>
      <trkpt lat="44.6739627420902252197265625" lon="6.81516923010349273681640625">
        <ele>2018.800048828125</ele>
        <time>2026-08-31T06:11:18.000Z</time>
        <extensions>
          <ns3:TrackPointExtension>
            <ns3:hr>147</ns3:hr>
            <ns3:cad>0</ns3:cad>
          </ns3:TrackPointExtension>
        </extensions>
      </trkpt>
      <trkpt lat="44.67396902851760387420654296875" lon="6.81516210548579692840576171875">
        <ele>2018.800048828125</ele>
        <time>2026-08-31T06:11:19.000Z</time>
        <extensions>
          <ns3:TrackPointExtension>
            <ns3:hr>147</ns3:hr>
            <ns3:cad>41</ns3:cad>
          </ns3:TrackPointExtension>
        </extensions>
      </trkpt>
      <trkpt lat="44.67397405765950679779052734375" lon="6.81515439413487911224365234375">
        <ele>2019</ele>
        <time>2026-08-31T06:11:20.000Z</time>
        <extensions>
          <ns3:TrackPointExtension>
            <ns3:hr>147</ns3:hr>
            <ns3:cad>41</ns3:cad>
          </ns3:TrackPointExtension>
        </extensions>
      </trkpt>
      <trkpt lat="44.673979841172695159912109375" lon="6.81515087373554706573486328125">
        <ele>2019.199951171875</ele>
        <time>2026-08-31T06:11:21.000Z</time>
        <extensions>
          <ns3:TrackPointExtension>
            <ns3:hr>146</ns3:hr>
            <ns3:cad>42</ns3:cad>
          </ns3:TrackPointExtension>
        </extensions>
      </trkpt>
      <trkpt lat="44.6739850379526615142822265625" lon="6.815146096050739288330078125">
        <ele>2019.4000244140625</ele>
        <time>2026-08-31T06:11:22.000Z</time>
        <extensions>
          <ns3:TrackPointExtension>
            <ns3:hr>147</ns3:hr>
            <ns3:cad>43</ns3:cad>
          </ns3:TrackPointExtension>
        </extensions>
      </trkpt>
      <trkpt lat="44.67398981563746929168701171875" lon="6.8151402287185192108154296875">
        <ele>2019.5999755859375</ele>
        <time>2026-08-31T06:11:23.000Z</time>
        <extensions>
          <ns3:TrackPointExtension>
            <ns3:hr>147</ns3:hr>
            <ns3:cad>45</ns3:cad>
          </ns3:TrackPointExtension>
        </extensions>
      </trkpt>
      <trkpt lat="44.673995934426784515380859375" lon="6.81513427756726741790771484375">
        <ele>2019.5999755859375</ele>
        <time>2026-08-31T06:11:24.000Z</time>
        <extensions>
          <ns3:TrackPointExtension>
            <ns3:hr>147</ns3:hr>
            <ns3:cad>45</ns3:cad>
          </ns3:TrackPointExtension>
        </extensions>
      </trkpt>
      <trkpt lat="44.67400020919740200042724609375" lon="6.81512497365474700927734375">
        <ele>2019.800048828125</ele>
        <time>2026-08-31T06:11:25.000Z</time>
        <extensions>
          <ns3:TrackPointExtension>
            <ns3:hr>147</ns3:hr>
            <ns3:cad>45</ns3:cad>
          </ns3:TrackPointExtension>
        </extensions>
      </trkpt>
      <trkpt lat="44.67400498688220977783203125" lon="6.81511533446609973907470703125">
        <ele>2020</ele>
        <time>2026-08-31T06:11:26.000Z</time>
        <extensions>
          <ns3:TrackPointExtension>
            <ns3:hr>146</ns3:hr>
            <ns3:cad>44</ns3:cad>
          </ns3:TrackPointExtension>
        </extensions>
      </trkpt>
      <trkpt lat="44.6740085072815418243408203125" lon="6.81510577909648418426513671875">
        <ele>2020</ele>
        <time>2026-08-31T06:11:27.000Z</time>
        <extensions>
          <ns3:TrackPointExtension>
            <ns3:hr>146</ns3:hr>
            <ns3:cad>44</ns3:cad>
          </ns3:TrackPointExtension>
        </extensions>
      </trkpt>
      <trkpt lat="44.67401395551860332489013671875" lon="6.8150966428220272064208984375">
        <ele>2020.199951171875</ele>
        <time>2026-08-31T06:11:28.000Z</time>
        <extensions>
          <ns3:TrackPointExtension>
            <ns3:hr>145</ns3:hr>
            <ns3:cad>44</ns3:cad>
          </ns3:TrackPointExtension>
        </extensions>
      </trkpt>
      <trkpt lat="44.67401965521275997161865234375" lon="6.81508985348045825958251953125">
        <ele>2020.199951171875</ele>
        <time>2026-08-31T06:11:29.000Z</time>
        <extensions>
          <ns3:TrackPointExtension>
            <ns3:hr>143</ns3:hr>
            <ns3:cad>44</ns3:cad>
          </ns3:TrackPointExtension>
        </extensions>
      </trkpt>
      <trkpt lat="44.67402468435466289520263671875" lon="6.8150818906724452972412109375">
        <ele>2020.4000244140625</ele>
        <time>2026-08-31T06:11:30.000Z</time>
        <extensions>
          <ns3:TrackPointExtension>
            <ns3:hr>142</ns3:hr>
            <ns3:cad>44</ns3:cad>
          </ns3:TrackPointExtension>
        </extensions>
      </trkpt>
      <trkpt lat="44.6740303002297878265380859375" lon="6.81507191620767116546630859375">
        <ele>2020.4000244140625</ele>
        <time>2026-08-31T06:11:31.000Z</time>
        <extensions>
          <ns3:TrackPointExtension>
            <ns3:hr>141</ns3:hr>
            <ns3:cad>45</ns3:cad>
          </ns3:TrackPointExtension>
        </extensions>
      </trkpt>
      <trkpt lat="44.6740353293716907501220703125" lon="6.81506386958062648773193359375">
        <ele>2020.4000244140625</ele>
        <time>2026-08-31T06:11:32.000Z</time>
        <extensions>
          <ns3:TrackPointExtension>
            <ns3:hr>140</ns3:hr>
            <ns3:cad>45</ns3:cad>
          </ns3:TrackPointExtension>
        </extensions>
      </trkpt>
      <trkpt lat="44.6740433759987354278564453125" lon="6.815055571496486663818359375">
        <ele>2020.4000244140625</ele>
        <time>2026-08-31T06:11:33.000Z</time>
        <extensions>
          <ns3:TrackPointExtension>
            <ns3:hr>140</ns3:hr>
            <ns3:cad>45</ns3:cad>
          </ns3:TrackPointExtension>
        </extensions>
      </trkpt>
      <trkpt lat="44.67405150644481182098388671875" lon="6.8150470219552516937255859375">
        <ele>2020.4000244140625</ele>
        <time>2026-08-31T06:11:34.000Z</time>
        <extensions>
          <ns3:TrackPointExtension>
            <ns3:hr>140</ns3:hr>
            <ns3:cad>48</ns3:cad>
          </ns3:TrackPointExtension>
        </extensions>
      </trkpt>
      <trkpt lat="44.67405670322477817535400390625" lon="6.81504559703171253204345703125">
        <ele>2020.5999755859375</ele>
        <time>2026-08-31T06:11:35.000Z</time>
        <extensions>
          <ns3:TrackPointExtension>
            <ns3:hr>139</ns3:hr>
            <ns3:cad>48</ns3:cad>
          </ns3:TrackPointExtension>
        </extensions>
      </trkpt>
      <trkpt lat="44.6740593016147613525390625" lon="6.8150465190410614013671875">
        <ele>2020.5999755859375</ele>
        <time>2026-08-31T06:11:36.000Z</time>
        <extensions>
          <ns3:TrackPointExtension>
            <ns3:hr>138</ns3:hr>
            <ns3:cad>0</ns3:cad>
          </ns3:TrackPointExtension>
        </extensions>
      </trkpt>
      <trkpt lat="44.67406340874731540679931640625" lon="6.81504006497561931610107421875">
        <ele>2020.800048828125</ele>
        <time>2026-08-31T06:11:37.000Z</time>
        <extensions>
          <ns3:TrackPointExtension>
            <ns3:hr>138</ns3:hr>
            <ns3:cad>0</ns3:cad>
          </ns3:TrackPointExtension>
        </extensions>
      </trkpt>
      <trkpt lat="44.6740671806037425994873046875" lon="6.81503721512854099273681640625">
        <ele>2020.800048828125</ele>
        <time>2026-08-31T06:11:38.000Z</time>
        <extensions>
          <ns3:TrackPointExtension>
            <ns3:hr>137</ns3:hr>
            <ns3:cad>0</ns3:cad>
          </ns3:TrackPointExtension>
        </extensions>
      </trkpt>
      <trkpt lat="44.67406801879405975341796875" lon="6.81503436528146266937255859375">
        <ele>2020.800048828125</ele>
        <time>2026-08-31T06:11:39.000Z</time>
        <extensions>
          <ns3:TrackPointExtension>
            <ns3:hr>137</ns3:hr>
            <ns3:cad>0</ns3:cad>
          </ns3:TrackPointExtension>
        </extensions>
      </trkpt>
      <trkpt lat="44.6740681864321231842041015625" lon="6.81503436528146266937255859375">
        <ele>2020.5999755859375</ele>
        <time>2026-08-31T06:11:40.000Z</time>
        <extensions>
          <ns3:TrackPointExtension>
            <ns3:hr>136</ns3:hr>
            <ns3:cad>0</ns3:cad>
          </ns3:TrackPointExtension>
        </extensions>
      </trkpt>
      <trkpt lat="44.6740681864321231842041015625" lon="6.81503436528146266937255859375">
        <ele>2020.5999755859375</ele>
        <time>2026-08-31T06:11:41.000Z</time>
        <extensions>
          <ns3:TrackPointExtension>
            <ns3:hr>135</ns3:hr>
            <ns3:cad>0</ns3:cad>
          </ns3:TrackPointExtension>
        </extensions>
      </trkpt>
      <trkpt lat="44.67406843788921833038330078125" lon="6.81503453291952610015869140625">
        <ele>2020.5999755859375</ele>
        <time>2026-08-31T06:11:42.000Z</time>
        <extensions>
          <ns3:TrackPointExtension>
            <ns3:hr>135</ns3:hr>
            <ns3:cad>0</ns3:cad>
          </ns3:TrackPointExtension>
        </extensions>
      </trkpt>
      <trkpt lat="44.67407531104981899261474609375" lon="6.81502765975892543792724609375">
        <ele>2020.5999755859375</ele>
        <time>2026-08-31T06:11:43.000Z</time>
        <extensions>
          <ns3:TrackPointExtension>
            <ns3:hr>134</ns3:hr>
            <ns3:cad>48</ns3:cad>
          </ns3:TrackPointExtension>
        </extensions>
      </trkpt>
      <trkpt lat="44.6740805916488170623779296875" lon="6.81502397172152996063232421875">
        <ele>2020.5999755859375</ele>
        <time>2026-08-31T06:11:44.000Z</time>
        <extensions>
          <ns3:TrackPointExtension>
            <ns3:hr>134</ns3:hr>
            <ns3:cad>48</ns3:cad>
          </ns3:TrackPointExtension>
        </extensions>
      </trkpt>
      <trkpt lat="44.674082100391387939453125" lon="6.8150235526263713836669921875">
        <ele>2020.800048828125</ele>
        <time>2026-08-31T06:11:45.000Z</time>
        <extensions>
          <ns3:TrackPointExtension>
            <ns3:hr>134</ns3:hr>
            <ns3:cad>0</ns3:cad>
          </ns3:TrackPointExtension>
        </extensions>
      </trkpt>
      <trkpt lat="44.6740809269249439239501953125" lon="6.81502698920667171478271484375">
        <ele>2020.800048828125</ele>
        <time>2026-08-31T06:11:46.000Z</time>
        <extensions>
          <ns3:TrackPointExtension>
            <ns3:hr>133</ns3:hr>
            <ns3:cad>0</ns3:cad>
          </ns3:TrackPointExtension>
        </extensions>
      </trkpt>
      <trkpt lat="44.6740765683352947235107421875" lon="6.81502749212086200714111328125">
        <ele>2020.800048828125</ele>
        <time>2026-08-31T06:11:47.000Z</time>
        <extensions>
          <ns3:TrackPointExtension>
            <ns3:hr>133</ns3:hr>
            <ns3:cad>0</ns3:cad>
          </ns3:TrackPointExtension>
        </extensions>
      </trkpt>
      <trkpt lat="44.6740681864321231842041015625" lon="6.81503436528146266937255859375">
        <ele>2020.800048828125</ele>
        <time>2026-08-31T06:11:48.000Z</time>
        <extensions>
          <ns3:TrackPointExtension>
            <ns3:hr>132</ns3:hr>
            <ns3:cad>0</ns3:cad>
          </ns3:TrackPointExtension>
        </extensions>
      </trkpt>
      <trkpt lat="44.6740681864321231842041015625" lon="6.81503436528146266937255859375">
        <ele>2020.800048828125</ele>
        <time>2026-08-31T06:11:49.000Z</time>
        <extensions>
          <ns3:TrackPointExtension>
            <ns3:hr>132</ns3:hr>
            <ns3:cad>0</ns3:cad>
          </ns3:TrackPointExtension>
        </extensions>
      </trkpt>
      <trkpt lat="44.6740681864321231842041015625" lon="6.81503436528146266937255859375">
        <ele>2020.800048828125</ele>
        <time>2026-08-31T06:11:50.000Z</time>
        <extensions>
          <ns3:TrackPointExtension>
            <ns3:hr>132</ns3:hr>
            <ns3:cad>0</ns3:cad>
          </ns3:TrackPointExtension>
        </extensions>
      </trkpt>
      <trkpt lat="44.6740681864321231842041015625" lon="6.81503436528146266937255859375">
        <ele>2020.800048828125</ele>
        <time>2026-08-31T06:11:51.000Z</time>
        <extensions>
          <ns3:TrackPointExtension>
            <ns3:hr>132</ns3:hr>
            <ns3:cad>0</ns3:cad>
          </ns3:TrackPointExtension>
        </extensions>
      </trkpt>
      <trkpt lat="44.6740681864321231842041015625" lon="6.81503436528146266937255859375">
        <ele>2021</ele>
        <time>2026-08-31T06:11:52.000Z</time>
        <extensions>
          <ns3:TrackPointExtension>
            <ns3:hr>131</ns3:hr>
            <ns3:cad>0</ns3:cad>
          </ns3:TrackPointExtension>
        </extensions>
      </trkpt>
      <trkpt lat="44.67407564632594585418701171875" lon="6.815025396645069122314453125">
        <ele>2021</ele>
        <time>2026-08-31T06:11:53.000Z</time>
        <extensions>
          <ns3:TrackPointExtension>
            <ns3:hr>131</ns3:hr>
            <ns3:cad>0</ns3:cad>
          </ns3:TrackPointExtension>
        </extensions>
      </trkpt>
      <trkpt lat="44.67408352531492710113525390625" lon="6.815019361674785614013671875">
        <ele>2021</ele>
        <time>2026-08-31T06:11:54.000Z</time>
        <extensions>
          <ns3:TrackPointExtension>
            <ns3:hr>131</ns3:hr>
            <ns3:cad>0</ns3:cad>
          </ns3:TrackPointExtension>
        </extensions>
      </trkpt>
      <trkpt lat="44.67409215867519378662109375" lon="6.81501341052353382110595703125">
        <ele>2021.199951171875</ele>
        <time>2026-08-31T06:11:55.000Z</time>
        <extensions>
          <ns3:TrackPointExtension>
            <ns3:hr>131</ns3:hr>
            <ns3:cad>0</ns3:cad>
          </ns3:TrackPointExtension>
        </extensions>
      </trkpt>
      <trkpt lat="44.67410079203546047210693359375" lon="6.81500293314456939697265625">
        <ele>2021.199951171875</ele>
        <time>2026-08-31T06:11:56.000Z</time>
        <extensions>
          <ns3:TrackPointExtension>
            <ns3:hr>131</ns3:hr>
            <ns3:cad>0</ns3:cad>
          </ns3:TrackPointExtension>
        </extensions>
      </trkpt>
      <trkpt lat="44.67411168850958347320556640625" lon="6.81499379687011241912841796875">
        <ele>2021.4000244140625</ele>
        <time>2026-08-31T06:11:57.000Z</time>
        <extensions>
          <ns3:TrackPointExtension>
            <ns3:hr>132</ns3:hr>
            <ns3:cad>0</ns3:cad>
          </ns3:TrackPointExtension>
        </extensions>
      </trkpt>
      <trkpt lat="44.6741183102130889892578125" lon="6.81497921235859394073486328125">
        <ele>2021.5999755859375</ele>
        <time>2026-08-31T06:11:58.000Z</time>
        <extensions>
          <ns3:TrackPointExtension>
            <ns3:hr>132</ns3:hr>
            <ns3:cad>45</ns3:cad>
          </ns3:TrackPointExtension>
        </extensions>
      </trkpt>
      <trkpt lat="44.67412560246884822845458984375" lon="6.81496663950383663177490234375">
        <ele>2021.5999755859375</ele>
        <time>2026-08-31T06:11:59.000Z</time>
        <extensions>
          <ns3:TrackPointExtension>
            <ns3:hr>131</ns3:hr>
            <ns3:cad>45</ns3:cad>
          </ns3:TrackPointExtension>
        </extensions>
      </trkpt>
      <trkpt lat="44.674131385982036590576171875" lon="6.81495356373488903045654296875">
        <ele>2021.800048828125</ele>
        <time>2026-08-31T06:12:00.000Z</time>
        <extensions>
          <ns3:TrackPointExtension>
            <ns3:hr>131</ns3:hr>
            <ns3:cad>45</ns3:cad>
          </ns3:TrackPointExtension>
        </extensions>
      </trkpt>
      <trkpt lat="44.6741370856761932373046875" lon="6.814942918717861175537109375">
        <ele>2022</ele>
        <time>2026-08-31T06:12:01.000Z</time>
        <extensions>
          <ns3:TrackPointExtension>
            <ns3:hr>131</ns3:hr>
            <ns3:cad>45</ns3:cad>
          </ns3:TrackPointExtension>
        </extensions>
      </trkpt>
      <trkpt lat="44.67414404265582561492919921875" lon="6.81493327952921390533447265625">
        <ele>2022.199951171875</ele>
        <time>2026-08-31T06:12:02.000Z</time>
        <extensions>
          <ns3:TrackPointExtension>
            <ns3:hr>131</ns3:hr>
            <ns3:cad>45</ns3:cad>
          </ns3:TrackPointExtension>
        </extensions>
      </trkpt>
      <trkpt lat="44.67414638958871364593505859375" lon="6.81492657400667667388916015625">
        <ele>2022.199951171875</ele>
        <time>2026-08-31T06:12:03.000Z</time>
        <extensions>
          <ns3:TrackPointExtension>
            <ns3:hr>132</ns3:hr>
            <ns3:cad>45</ns3:cad>
          </ns3:TrackPointExtension>
        </extensions>
      </trkpt>
      <trkpt lat="44.67415376566350460052490234375" lon="6.814916767179965972900390625">
        <ele>2022.4000244140625</ele>
        <time>2026-08-31T06:12:04.000Z</time>
        <extensions>
          <ns3:TrackPointExtension>
            <ns3:hr>131</ns3:hr>
            <ns3:cad>47</ns3:cad>
          </ns3:TrackPointExtension>
        </extensions>
      </trkpt>
      <trkpt lat="44.67415996827185153961181640625" lon="6.814905367791652679443359375">
        <ele>2022.5999755859375</ele>
        <time>2026-08-31T06:12:05.000Z</time>
        <extensions>
          <ns3:TrackPointExtension>
            <ns3:hr>131</ns3:hr>
            <ns3:cad>49</ns3:cad>
          </ns3:TrackPointExtension>
        </extensions>
      </trkpt>
      <trkpt lat="44.67416399158537387847900390625" lon="6.81489706970751285552978515625">
        <ele>2022.800048828125</ele>
        <time>2026-08-31T06:12:06.000Z</time>
        <extensions>
          <ns3:TrackPointExtension>
            <ns3:hr>131</ns3:hr>
            <ns3:cad>49</ns3:cad>
          </ns3:TrackPointExtension>
        </extensions>
      </trkpt>
      <trkpt lat="44.67416985891759395599365234375" lon="6.81488835252821445465087890625">
        <ele>2022.800048828125</ele>
        <time>2026-08-31T06:12:07.000Z</time>
        <extensions>
          <ns3:TrackPointExtension>
            <ns3:hr>131</ns3:hr>
            <ns3:cad>49</ns3:cad>
          </ns3:TrackPointExtension>
        </extensions>
      </trkpt>
      <trkpt lat="44.67417530715465545654296875" lon="6.81487946771085262298583984375">
        <ele>2023</ele>
        <time>2026-08-31T06:12:08.000Z</time>
        <extensions>
          <ns3:TrackPointExtension>
            <ns3:hr>131</ns3:hr>
            <ns3:cad>49</ns3:cad>
          </ns3:TrackPointExtension>
        </extensions>
      </trkpt>
      <trkpt lat="44.67418067157268524169921875" lon="6.81487016379833221435546875">
        <ele>2023.199951171875</ele>
        <time>2026-08-31T06:12:09.000Z</time>
        <extensions>
          <ns3:TrackPointExtension>
            <ns3:hr>130</ns3:hr>
            <ns3:cad>49</ns3:cad>
          </ns3:TrackPointExtension>
        </extensions>
      </trkpt>
      <trkpt lat="44.67418880201876163482666015625" lon="6.8148582614958286285400390625">
        <ele>2023.4000244140625</ele>
        <time>2026-08-31T06:12:10.000Z</time>
        <extensions>
          <ns3:TrackPointExtension>
            <ns3:hr>130</ns3:hr>
            <ns3:cad>51</ns3:cad>
          </ns3:TrackPointExtension>
        </extensions>
      </trkpt>
      <trkpt lat="44.67419718392193317413330078125" lon="6.81484761647880077362060546875">
        <ele>2023.5999755859375</ele>
        <time>2026-08-31T06:12:11.000Z</time>
        <extensions>
          <ns3:TrackPointExtension>
            <ns3:hr>130</ns3:hr>
            <ns3:cad>51</ns3:cad>
          </ns3:TrackPointExtension>
        </extensions>
      </trkpt>
      <trkpt lat="44.6742022968828678131103515625" lon="6.814837642014026641845703125">
        <ele>2023.800048828125</ele>
        <time>2026-08-31T06:12:12.000Z</time>
        <extensions>
          <ns3:TrackPointExtension>
            <ns3:hr>129</ns3:hr>
            <ns3:cad>52</ns3:cad>
          </ns3:TrackPointExtension>
        </extensions>
      </trkpt>
      <trkpt lat="44.67420908622443675994873046875" lon="6.814827583730220794677734375">
        <ele>2024</ele>
        <time>2026-08-31T06:12:13.000Z</time>
        <extensions>
          <ns3:TrackPointExtension>
            <ns3:hr>129</ns3:hr>
            <ns3:cad>52</ns3:cad>
          </ns3:TrackPointExtension>
        </extensions>
      </trkpt>
      <trkpt lat="44.67421730048954486846923828125" lon="6.81481962092220783233642578125">
        <ele>2024</ele>
        <time>2026-08-31T06:12:14.000Z</time>
        <extensions>
          <ns3:TrackPointExtension>
            <ns3:hr>129</ns3:hr>
            <ns3:cad>52</ns3:cad>
          </ns3:TrackPointExtension>
        </extensions>
      </trkpt>
      <trkpt lat="44.6742234192788600921630859375" lon="6.814809143543243408203125">
        <ele>2024.199951171875</ele>
        <time>2026-08-31T06:12:15.000Z</time>
        <extensions>
          <ns3:TrackPointExtension>
            <ns3:hr>129</ns3:hr>
            <ns3:cad>51</ns3:cad>
          </ns3:TrackPointExtension>
        </extensions>
      </trkpt>
      <trkpt lat="44.6742314659059047698974609375" lon="6.81479967199265956878662109375">
        <ele>2024.199951171875</ele>
        <time>2026-08-31T06:12:16.000Z</time>
        <extensions>
          <ns3:TrackPointExtension>
            <ns3:hr>134</ns3:hr>
            <ns3:cad>51</ns3:cad>
          </ns3:TrackPointExtension>
        </extensions>
      </trkpt>
      <trkpt lat="44.67423691414296627044677734375" lon="6.81479372084140777587890625">
        <ele>2024.4000244140625</ele>
        <time>2026-08-31T06:12:17.000Z</time>
        <extensions>
          <ns3:TrackPointExtension>
            <ns3:hr>136</ns3:hr>
            <ns3:cad>48</ns3:cad>
          </ns3:TrackPointExtension>
        </extensions>
      </trkpt>
      <trkpt lat="44.67424294911324977874755859375" lon="6.8147871829569339752197265625">
        <ele>2024.5999755859375</ele>
        <time>2026-08-31T06:12:18.000Z</time>
        <extensions>
          <ns3:TrackPointExtension>
            <ns3:hr>138</ns3:hr>
            <ns3:cad>48</ns3:cad>
          </ns3:TrackPointExtension>
        </extensions>
      </trkpt>
      <trkpt lat="44.67424982227385044097900390625" lon="6.81477854959666728973388671875">
        <ele>2024.5999755859375</ele>
        <time>2026-08-31T06:12:19.000Z</time>
        <extensions>
          <ns3:TrackPointExtension>
            <ns3:hr>138</ns3:hr>
            <ns3:cad>48</ns3:cad>
          </ns3:TrackPointExtension>
        </extensions>
      </trkpt>
      <trkpt lat="44.6742556057870388031005859375" lon="6.81476748548448085784912109375">
        <ele>2024.800048828125</ele>
        <time>2026-08-31T06:12:20.000Z</time>
        <extensions>
          <ns3:TrackPointExtension>
            <ns3:hr>139</ns3:hr>
            <ns3:cad>49</ns3:cad>
          </ns3:TrackPointExtension>
        </extensions>
      </trkpt>
      <trkpt lat="44.67426071874797344207763671875" lon="6.81475675664842128753662109375">
        <ele>2025</ele>
        <time>2026-08-31T06:12:21.000Z</time>
        <extensions>
          <ns3:TrackPointExtension>
            <ns3:hr>140</ns3:hr>
            <ns3:cad>49</ns3:cad>
          </ns3:TrackPointExtension>
        </extensions>
      </trkpt>
      <trkpt lat="44.67426524497568607330322265625" lon="6.814747117459774017333984375">
        <ele>2025.199951171875</ele>
        <time>2026-08-31T06:12:22.000Z</time>
        <extensions>
          <ns3:TrackPointExtension>
            <ns3:hr>140</ns3:hr>
            <ns3:cad>48</ns3:cad>
          </ns3:TrackPointExtension>
        </extensions>
      </trkpt>
      <trkpt lat="44.67427127994596958160400390625" lon="6.8147392384707927703857421875">
        <ele>2025.199951171875</ele>
        <time>2026-08-31T06:12:23.000Z</time>
        <extensions>
          <ns3:TrackPointExtension>
            <ns3:hr>141</ns3:hr>
            <ns3:cad>47</ns3:cad>
          </ns3:TrackPointExtension>
        </extensions>
      </trkpt>
      <trkpt lat="44.6742784045636653900146484375" lon="6.81473161093890666961669921875">
        <ele>2025.4000244140625</ele>
        <time>2026-08-31T06:12:24.000Z</time>
        <extensions>
          <ns3:TrackPointExtension>
            <ns3:hr>141</ns3:hr>
            <ns3:cad>47</ns3:cad>
          </ns3:TrackPointExtension>
        </extensions>
      </trkpt>
      <trkpt lat="44.67428502626717090606689453125" lon="6.81472524069249629974365234375">
        <ele>2025.5999755859375</ele>
        <time>2026-08-31T06:12:25.000Z</time>
        <extensions>
          <ns3:TrackPointExtension>
            <ns3:hr>140</ns3:hr>
            <ns3:cad>47</ns3:cad>
          </ns3:TrackPointExtension>
        </extensions>
      </trkpt>
      <trkpt lat="44.6742904745042324066162109375" lon="6.8147201277315616607666015625">
        <ele>2025.5999755859375</ele>
        <time>2026-08-31T06:12:26.000Z</time>
        <extensions>
          <ns3:TrackPointExtension>
            <ns3:hr>139</ns3:hr>
            <ns3:cad>47</ns3:cad>
          </ns3:TrackPointExtension>
        </extensions>
      </trkpt>
      <trkpt lat="44.674298353493213653564453125" lon="6.81471199728548526763916015625">
        <ele>2025.800048828125</ele>
        <time>2026-08-31T06:12:27.000Z</time>
        <extensions>
          <ns3:TrackPointExtension>
            <ns3:hr>140</ns3:hr>
            <ns3:cad>47</ns3:cad>
          </ns3:TrackPointExtension>
        </extensions>
      </trkpt>
      <trkpt lat="44.67430363409221172332763671875" lon="6.814706213772296905517578125">
        <ele>2026</ele>
        <time>2026-08-31T06:12:28.000Z</time>
        <extensions>
          <ns3:TrackPointExtension>
            <ns3:hr>140</ns3:hr>
            <ns3:cad>47</ns3:cad>
          </ns3:TrackPointExtension>
        </extensions>
      </trkpt>
      <trkpt lat="44.6743102557957172393798828125" lon="6.81469908915460109710693359375">
        <ele>2026.199951171875</ele>
        <time>2026-08-31T06:12:29.000Z</time>
        <extensions>
          <ns3:TrackPointExtension>
            <ns3:hr>141</ns3:hr>
            <ns3:cad>47</ns3:cad>
          </ns3:TrackPointExtension>
        </extensions>
      </trkpt>
      <trkpt lat="44.67431168071925640106201171875" lon="6.8146963231265544891357421875">
        <ele>2026.199951171875</ele>
        <time>2026-08-31T06:12:30.000Z</time>
        <extensions>
          <ns3:TrackPointExtension>
            <ns3:hr>141</ns3:hr>
            <ns3:cad>46</ns3:cad>
          </ns3:TrackPointExtension>
        </extensions>
      </trkpt>
      <trkpt lat="44.67431067489087581634521484375" lon="6.81469556875526905059814453125">
        <ele>2026.4000244140625</ele>
        <time>2026-08-31T06:12:31.000Z</time>
        <extensions>
          <ns3:TrackPointExtension>
            <ns3:hr>141</ns3:hr>
            <ns3:cad>45</ns3:cad>
          </ns3:TrackPointExtension>
        </extensions>
      </trkpt>
      <trkpt lat="44.6743114292621612548828125" lon="6.81469355709850788116455078125">
        <ele>2026.4000244140625</ele>
        <time>2026-08-31T06:12:32.000Z</time>
        <extensions>
          <ns3:TrackPointExtension>
            <ns3:hr>141</ns3:hr>
            <ns3:cad>0</ns3:cad>
          </ns3:TrackPointExtension>
        </extensions>
      </trkpt>
      <trkpt lat="44.6743132732808589935302734375" lon="6.814691461622714996337890625">
        <ele>2026.4000244140625</ele>
        <time>2026-08-31T06:12:33.000Z</time>
        <extensions>
          <ns3:TrackPointExtension>
            <ns3:hr>141</ns3:hr>
            <ns3:cad>0</ns3:cad>
          </ns3:TrackPointExtension>
        </extensions>
      </trkpt>
      <trkpt lat="44.67431335709989070892333984375" lon="6.81469154544174671173095703125">
        <ele>2026.4000244140625</ele>
        <time>2026-08-31T06:12:34.000Z</time>
        <extensions>
          <ns3:TrackPointExtension>
            <ns3:hr>142</ns3:hr>
            <ns3:cad>0</ns3:cad>
          </ns3:TrackPointExtension>
        </extensions>
      </trkpt>
      <trkpt lat="44.67431335709989070892333984375" lon="6.81469154544174671173095703125">
        <ele>2026.4000244140625</ele>
        <time>2026-08-31T06:12:35.000Z</time>
        <extensions>
          <ns3:TrackPointExtension>
            <ns3:hr>140</ns3:hr>
            <ns3:cad>0</ns3:cad>
          </ns3:TrackPointExtension>
        </extensions>
      </trkpt>
      <trkpt lat="44.67431335709989070892333984375" lon="6.81469154544174671173095703125">
        <ele>2026.4000244140625</ele>
        <time>2026-08-31T06:12:36.000Z</time>
        <extensions>
          <ns3:TrackPointExtension>
            <ns3:hr>139</ns3:hr>
            <ns3:cad>0</ns3:cad>
          </ns3:TrackPointExtension>
        </extensions>
      </trkpt>
      <trkpt lat="44.67431344091892242431640625" lon="6.814691461622714996337890625">
        <ele>2026.4000244140625</ele>
        <time>2026-08-31T06:12:37.000Z</time>
        <extensions>
          <ns3:TrackPointExtension>
            <ns3:hr>138</ns3:hr>
            <ns3:cad>0</ns3:cad>
          </ns3:TrackPointExtension>
        </extensions>
      </trkpt>
      <trkpt lat="44.67431620694696903228759765625" lon="6.81469087488949298858642578125">
        <ele>2026.4000244140625</ele>
        <time>2026-08-31T06:12:38.000Z</time>
        <extensions>
          <ns3:TrackPointExtension>
            <ns3:hr>138</ns3:hr>
            <ns3:cad>0</ns3:cad>
          </ns3:TrackPointExtension>
        </extensions>
      </trkpt>
      <trkpt lat="44.67431620694696903228759765625" lon="6.81469171307981014251708984375">
        <ele>2026.5999755859375</ele>
        <time>2026-08-31T06:12:39.000Z</time>
        <extensions>
          <ns3:TrackPointExtension>
            <ns3:hr>138</ns3:hr>
            <ns3:cad>0</ns3:cad>
          </ns3:TrackPointExtension>
        </extensions>
      </trkpt>
      <trkpt lat="44.67431335709989070892333984375" lon="6.81469154544174671173095703125">
        <ele>2026.5999755859375</ele>
        <time>2026-08-31T06:12:40.000Z</time>
        <extensions>
          <ns3:TrackPointExtension>
            <ns3:hr>138</ns3:hr>
            <ns3:cad>0</ns3:cad>
          </ns3:TrackPointExtension>
        </extensions>
      </trkpt>
      <trkpt lat="44.67431335709989070892333984375" lon="6.81469154544174671173095703125">
        <ele>2026.5999755859375</ele>
        <time>2026-08-31T06:12:41.000Z</time>
        <extensions>
          <ns3:TrackPointExtension>
            <ns3:hr>138</ns3:hr>
            <ns3:cad>0</ns3:cad>
          </ns3:TrackPointExtension>
        </extensions>
      </trkpt>
      <trkpt lat="44.67431335709989070892333984375" lon="6.81469154544174671173095703125">
        <ele>2026.5999755859375</ele>
        <time>2026-08-31T06:12:42.000Z</time>
        <extensions>
          <ns3:TrackPointExtension>
            <ns3:hr>138</ns3:hr>
            <ns3:cad>0</ns3:cad>
          </ns3:TrackPointExtension>
        </extensions>
      </trkpt>
      <trkpt lat="44.6743193082511425018310546875" lon="6.8146899528801441192626953125">
        <ele>2026.5999755859375</ele>
        <time>2026-08-31T06:12:43.000Z</time>
        <extensions>
          <ns3:TrackPointExtension>
            <ns3:hr>138</ns3:hr>
            <ns3:cad>0</ns3:cad>
          </ns3:TrackPointExtension>
        </extensions>
      </trkpt>
      <trkpt lat="44.674329198896884918212890625" lon="6.81469984352588653564453125">
        <ele>2026.5999755859375</ele>
        <time>2026-08-31T06:12:44.000Z</time>
        <extensions>
          <ns3:TrackPointExtension>
            <ns3:hr>138</ns3:hr>
            <ns3:cad>0</ns3:cad>
          </ns3:TrackPointExtension>
        </extensions>
      </trkpt>
      <trkpt lat="44.674331881105899810791015625" lon="6.81471216492354869842529296875">
        <ele>2026.800048828125</ele>
        <time>2026-08-31T06:12:45.000Z</time>
        <extensions>
          <ns3:TrackPointExtension>
            <ns3:hr>138</ns3:hr>
            <ns3:cad>0</ns3:cad>
          </ns3:TrackPointExtension>
        </extensions>
      </trkpt>
      <trkpt lat="44.6743328869342803955078125" lon="6.81472825817763805389404296875">
        <ele>2026.800048828125</ele>
        <time>2026-08-31T06:12:46.000Z</time>
        <extensions>
          <ns3:TrackPointExtension>
            <ns3:hr>138</ns3:hr>
            <ns3:cad>0</ns3:cad>
          </ns3:TrackPointExtension>
        </extensions>
      </trkpt>
      <trkpt lat="44.67433414421975612640380859375" lon="6.8147435970604419708251953125">
        <ele>2027</ele>
        <time>2026-08-31T06:12:47.000Z</time>
        <extensions>
          <ns3:TrackPointExtension>
            <ns3:hr>137</ns3:hr>
            <ns3:cad>0</ns3:cad>
          </ns3:TrackPointExtension>
        </extensions>
      </trkpt>
      <trkpt lat="44.67433447949588298797607421875" lon="6.814755499362945556640625">
        <ele>2027.199951171875</ele>
        <time>2026-08-31T06:12:48.000Z</time>
        <extensions>
          <ns3:TrackPointExtension>
            <ns3:hr>137</ns3:hr>
            <ns3:cad>0</ns3:cad>
          </ns3:TrackPointExtension>
        </extensions>
      </trkpt>
      <trkpt lat="44.67433749698102474212646484375" lon="6.81476865895092487335205078125">
        <ele>2027.4000244140625</ele>
        <time>2026-08-31T06:12:49.000Z</time>
        <extensions>
          <ns3:TrackPointExtension>
            <ns3:hr>137</ns3:hr>
            <ns3:cad>0</ns3:cad>
          </ns3:TrackPointExtension>
        </extensions>
      </trkpt>
      <trkpt lat="44.67433766461908817291259765625" lon="6.8147794716060161590576171875">
        <ele>2027.5999755859375</ele>
        <time>2026-08-31T06:12:50.000Z</time>
        <extensions>
          <ns3:TrackPointExtension>
            <ns3:hr>138</ns3:hr>
            <ns3:cad>51</ns3:cad>
          </ns3:TrackPointExtension>
        </extensions>
      </trkpt>
      <trkpt lat="44.67433892190456390380859375" lon="6.8147891946136951446533203125">
        <ele>2027.800048828125</ele>
        <time>2026-08-31T06:12:51.000Z</time>
        <extensions>
          <ns3:TrackPointExtension>
            <ns3:hr>138</ns3:hr>
            <ns3:cad>52</ns3:cad>
          </ns3:TrackPointExtension>
        </extensions>
      </trkpt>
      <trkpt lat="44.67433967627584934234619140625" lon="6.81480042636394500732421875">
        <ele>2028</ele>
        <time>2026-08-31T06:12:52.000Z</time>
        <extensions>
          <ns3:TrackPointExtension>
            <ns3:hr>139</ns3:hr>
            <ns3:cad>52</ns3:cad>
          </ns3:TrackPointExtension>
        </extensions>
      </trkpt>
      <trkpt lat="44.6743400953710079193115234375" lon="6.81480989791452884674072265625">
        <ele>2028.199951171875</ele>
        <time>2026-08-31T06:12:53.000Z</time>
        <extensions>
          <ns3:TrackPointExtension>
            <ns3:hr>139</ns3:hr>
            <ns3:cad>52</ns3:cad>
          </ns3:TrackPointExtension>
        </extensions>
      </trkpt>
      <trkpt lat="44.67434051446616649627685546875" lon="6.81482180021703243255615234375">
        <ele>2028.4000244140625</ele>
        <time>2026-08-31T06:12:54.000Z</time>
        <extensions>
          <ns3:TrackPointExtension>
            <ns3:hr>139</ns3:hr>
            <ns3:cad>53</ns3:cad>
          </ns3:TrackPointExtension>
        </extensions>
      </trkpt>
      <trkpt lat="44.67434135265648365020751953125" lon="6.81483353488147258758544921875">
        <ele>2028.4000244140625</ele>
        <time>2026-08-31T06:12:55.000Z</time>
        <extensions>
          <ns3:TrackPointExtension>
            <ns3:hr>139</ns3:hr>
            <ns3:cad>53</ns3:cad>
          </ns3:TrackPointExtension>
        </extensions>
      </trkpt>
      <trkpt lat="44.6743417717516422271728515625" lon="6.81484526954591274261474609375">
        <ele>2028.5999755859375</ele>
        <time>2026-08-31T06:12:56.000Z</time>
        <extensions>
          <ns3:TrackPointExtension>
            <ns3:hr>140</ns3:hr>
            <ns3:cad>52</ns3:cad>
          </ns3:TrackPointExtension>
        </extensions>
      </trkpt>
      <trkpt lat="44.67434160411357879638671875" lon="6.81485474109649658203125">
        <ele>2028.800048828125</ele>
        <time>2026-08-31T06:12:57.000Z</time>
        <extensions>
          <ns3:TrackPointExtension>
            <ns3:hr>139</ns3:hr>
            <ns3:cad>49</ns3:cad>
          </ns3:TrackPointExtension>
        </extensions>
      </trkpt>
      <trkpt lat="44.67434118501842021942138671875" lon="6.81486421264708042144775390625">
        <ele>2029</ele>
        <time>2026-08-31T06:12:58.000Z</time>
        <extensions>
          <ns3:TrackPointExtension>
            <ns3:hr>139</ns3:hr>
            <ns3:cad>48</ns3:cad>
          </ns3:TrackPointExtension>
        </extensions>
      </trkpt>
      <trkpt lat="44.6743414364755153656005859375" lon="6.8148733489215373992919921875">
        <ele>2029.199951171875</ele>
        <time>2026-08-31T06:12:59.000Z</time>
        <extensions>
          <ns3:TrackPointExtension>
            <ns3:hr>139</ns3:hr>
            <ns3:cad>48</ns3:cad>
          </ns3:TrackPointExtension>
        </extensions>
      </trkpt>
      <trkpt lat="44.6743451245129108428955078125" lon="6.81488147936761379241943359375">
        <ele>2029.4000244140625</ele>
        <time>2026-08-31T06:13:00.000Z</time>
        <extensions>
          <ns3:TrackPointExtension>
            <ns3:hr>138</ns3:hr>
            <ns3:cad>48</ns3:cad>
          </ns3:TrackPointExtension>
        </extensions>
      </trkpt>
      <trkpt lat="44.67434789054095745086669921875" lon="6.81488650850951671600341796875">
        <ele>2029.5999755859375</ele>
        <time>2026-08-31T06:13:01.000Z</time>
        <extensions>
          <ns3:TrackPointExtension>
            <ns3:hr>138</ns3:hr>
            <ns3:cad>48</ns3:cad>
          </ns3:TrackPointExtension>
        </extensions>
      </trkpt>
      <trkpt lat="44.67434839345514774322509765625" lon="6.81489354930818080902099609375">
        <ele>2029.5999755859375</ele>
        <time>2026-08-31T06:13:02.000Z</time>
        <extensions>
          <ns3:TrackPointExtension>
            <ns3:hr>138</ns3:hr>
            <ns3:cad>48</ns3:cad>
          </ns3:TrackPointExtension>
        </extensions>
      </trkpt>
      <trkpt lat="44.674349986016750335693359375" lon="6.81490561924874782562255859375">
        <ele>2029.800048828125</ele>
        <time>2026-08-31T06:13:03.000Z</time>
        <extensions>
          <ns3:TrackPointExtension>
            <ns3:hr>138</ns3:hr>
            <ns3:cad>48</ns3:cad>
          </ns3:TrackPointExtension>
        </extensions>
      </trkpt>
      <trkpt lat="44.67434973455965518951416015625" lon="6.81491400115191936492919921875">
        <ele>2030</ele>
        <time>2026-08-31T06:13:04.000Z</time>
        <extensions>
          <ns3:TrackPointExtension>
            <ns3:hr>138</ns3:hr>
            <ns3:cad>48</ns3:cad>
          </ns3:TrackPointExtension>
        </extensions>
      </trkpt>
      <trkpt lat="44.6743511594831943511962890625" lon="6.81492087431252002716064453125">
        <ele>2030.199951171875</ele>
        <time>2026-08-31T06:13:05.000Z</time>
        <extensions>
          <ns3:TrackPointExtension>
            <ns3:hr>139</ns3:hr>
            <ns3:cad>48</ns3:cad>
          </ns3:TrackPointExtension>
        </extensions>
      </trkpt>
      <trkpt lat="44.67435224913060665130615234375" lon="6.8149216286838054656982421875">
        <ele>2030.4000244140625</ele>
        <time>2026-08-31T06:13:06.000Z</time>
        <extensions>
          <ns3:TrackPointExtension>
            <ns3:hr>140</ns3:hr>
            <ns3:cad>47</ns3:cad>
          </ns3:TrackPointExtension>
        </extensions>
      </trkpt>
      <trkpt lat="44.67435233294963836669921875" lon="6.81492188014090061187744140625">
        <ele>2030.4000244140625</ele>
        <time>2026-08-31T06:13:07.000Z</time>
        <extensions>
          <ns3:TrackPointExtension>
            <ns3:hr>140</ns3:hr>
            <ns3:cad>0</ns3:cad>
          </ns3:TrackPointExtension>
        </extensions>
      </trkpt>
      <trkpt lat="44.67435099184513092041015625" lon="6.81492188014090061187744140625">
        <ele>2030.4000244140625</ele>
        <time>2026-08-31T06:13:08.000Z</time>
        <extensions>
          <ns3:TrackPointExtension>
            <ns3:hr>140</ns3:hr>
            <ns3:cad>0</ns3:cad>
          </ns3:TrackPointExtension>
        </extensions>
      </trkpt>
      <trkpt lat="44.67434830963611602783203125" lon="6.81492087431252002716064453125">
        <ele>2030.5999755859375</ele>
        <time>2026-08-31T06:13:09.000Z</time>
        <extensions>
          <ns3:TrackPointExtension>
            <ns3:hr>140</ns3:hr>
            <ns3:cad>0</ns3:cad>
          </ns3:TrackPointExtension>
        </extensions>
      </trkpt>
      <trkpt lat="44.67434738762676715850830078125" lon="6.81492380797863006591796875">
        <ele>2030.4000244140625</ele>
        <time>2026-08-31T06:13:10.000Z</time>
        <extensions>
          <ns3:TrackPointExtension>
            <ns3:hr>140</ns3:hr>
            <ns3:cad>0</ns3:cad>
          </ns3:TrackPointExtension>
        </extensions>
      </trkpt>
      <trkpt lat="44.67434654943645000457763671875" lon="6.81492774747312068939208984375">
        <ele>2030.4000244140625</ele>
        <time>2026-08-31T06:13:11.000Z</time>
        <extensions>
          <ns3:TrackPointExtension>
            <ns3:hr>140</ns3:hr>
            <ns3:cad>0</ns3:cad>
          </ns3:TrackPointExtension>
        </extensions>
      </trkpt>
      <trkpt lat="44.67434654943645000457763671875" lon="6.8149360455572605133056640625">
        <ele>2030.4000244140625</ele>
        <time>2026-08-31T06:13:12.000Z</time>
        <extensions>
          <ns3:TrackPointExtension>
            <ns3:hr>140</ns3:hr>
            <ns3:cad>0</ns3:cad>
          </ns3:TrackPointExtension>
        </extensions>
      </trkpt>
      <trkpt lat="44.6743462979793548583984375" lon="6.8149420805275440216064453125">
        <ele>2030.5999755859375</ele>
        <time>2026-08-31T06:13:13.000Z</time>
        <extensions>
          <ns3:TrackPointExtension>
            <ns3:hr>140</ns3:hr>
            <ns3:cad>0</ns3:cad>
          </ns3:TrackPointExtension>
        </extensions>
      </trkpt>
      <trkpt lat="44.67434721998870372772216796875" lon="6.8149487860500812530517578125">
        <ele>2030.5999755859375</ele>
        <time>2026-08-31T06:13:14.000Z</time>
        <extensions>
          <ns3:TrackPointExtension>
            <ns3:hr>141</ns3:hr>
            <ns3:cad>0</ns3:cad>
          </ns3:TrackPointExtension>
        </extensions>
      </trkpt>
      <trkpt lat="44.6743489801883697509765625" lon="6.81495490483939647674560546875">
        <ele>2030.800048828125</ele>
        <time>2026-08-31T06:13:15.000Z</time>
        <extensions>
          <ns3:TrackPointExtension>
            <ns3:hr>140</ns3:hr>
            <ns3:cad>0</ns3:cad>
          </ns3:TrackPointExtension>
        </extensions>
      </trkpt>
      <trkpt lat="44.67435359023511409759521484375" lon="6.8149608559906482696533203125">
        <ele>2031</ele>
        <time>2026-08-31T06:13:16.000Z</time>
        <extensions>
          <ns3:TrackPointExtension>
            <ns3:hr>141</ns3:hr>
            <ns3:cad>0</ns3:cad>
          </ns3:TrackPointExtension>
        </extensions>
      </trkpt>
      <trkpt lat="44.674355350434780120849609375" lon="6.814964376389980316162109375">
        <ele>2031.199951171875</ele>
        <time>2026-08-31T06:13:17.000Z</time>
        <extensions>
          <ns3:TrackPointExtension>
            <ns3:hr>141</ns3:hr>
            <ns3:cad>52</ns3:cad>
          </ns3:TrackPointExtension>
        </extensions>
      </trkpt>
      <trkpt lat="44.67436130158603191375732421875" lon="6.814975105226039886474609375">
        <ele>2031.4000244140625</ele>
        <time>2026-08-31T06:13:18.000Z</time>
        <extensions>
          <ns3:TrackPointExtension>
            <ns3:hr>142</ns3:hr>
            <ns3:cad>52</ns3:cad>
          </ns3:TrackPointExtension>
        </extensions>
      </trkpt>
      <trkpt lat="44.6743659116327762603759765625" lon="6.81498256511986255645751953125">
        <ele>2031.800048828125</ele>
        <time>2026-08-31T06:13:19.000Z</time>
        <extensions>
          <ns3:TrackPointExtension>
            <ns3:hr>142</ns3:hr>
            <ns3:cad>51</ns3:cad>
          </ns3:TrackPointExtension>
        </extensions>
      </trkpt>
      <trkpt lat="44.67437018640339374542236328125" lon="6.8149917013943195343017578125">
        <ele>2032</ele>
        <time>2026-08-31T06:13:20.000Z</time>
        <extensions>
          <ns3:TrackPointExtension>
            <ns3:hr>142</ns3:hr>
            <ns3:cad>51</ns3:cad>
          </ns3:TrackPointExtension>
        </extensions>
      </trkpt>
      <trkpt lat="44.6743746288120746612548828125" lon="6.81500201113522052764892578125">
        <ele>2032.199951171875</ele>
        <time>2026-08-31T06:13:21.000Z</time>
        <extensions>
          <ns3:TrackPointExtension>
            <ns3:hr>143</ns3:hr>
            <ns3:cad>51</ns3:cad>
          </ns3:TrackPointExtension>
        </extensions>
      </trkpt>
      <trkpt lat="44.6743779815733432769775390625" lon="6.815012656152248382568359375">
        <ele>2032.4000244140625</ele>
        <time>2026-08-31T06:13:22.000Z</time>
        <extensions>
          <ns3:TrackPointExtension>
            <ns3:hr>143</ns3:hr>
            <ns3:cad>50</ns3:cad>
          </ns3:TrackPointExtension>
        </extensions>
      </trkpt>
      <trkpt lat="44.67437940649688243865966796875" lon="6.815022043883800506591796875">
        <ele>2032.4000244140625</ele>
        <time>2026-08-31T06:13:23.000Z</time>
        <extensions>
          <ns3:TrackPointExtension>
            <ns3:hr>143</ns3:hr>
            <ns3:cad>50</ns3:cad>
          </ns3:TrackPointExtension>
        </extensions>
      </trkpt>
      <trkpt lat="44.67438141815364360809326171875" lon="6.81503386236727237701416015625">
        <ele>2032.5999755859375</ele>
        <time>2026-08-31T06:13:24.000Z</time>
        <extensions>
          <ns3:TrackPointExtension>
            <ns3:hr>144</ns3:hr>
            <ns3:cad>50</ns3:cad>
          </ns3:TrackPointExtension>
        </extensions>
      </trkpt>
      <trkpt lat="44.67438225634396076202392578125" lon="6.8150419928133487701416015625">
        <ele>2032.800048828125</ele>
        <time>2026-08-31T06:13:25.000Z</time>
        <extensions>
          <ns3:TrackPointExtension>
            <ns3:hr>144</ns3:hr>
            <ns3:cad>50</ns3:cad>
          </ns3:TrackPointExtension>
        </extensions>
      </trkpt>
      <trkpt lat="44.6743843518197536468505859375" lon="6.81505280546844005584716796875">
        <ele>2033</ele>
        <time>2026-08-31T06:13:26.000Z</time>
        <extensions>
          <ns3:TrackPointExtension>
            <ns3:hr>144</ns3:hr>
            <ns3:cad>50</ns3:cad>
          </ns3:TrackPointExtension>
        </extensions>
      </trkpt>
      <trkpt lat="44.67437957413494586944580078125" lon="6.8150651268661022186279296875">
        <ele>2033.199951171875</ele>
        <time>2026-08-31T06:13:27.000Z</time>
        <extensions>
          <ns3:TrackPointExtension>
            <ns3:hr>143</ns3:hr>
            <ns3:cad>48</ns3:cad>
          </ns3:TrackPointExtension>
        </extensions>
      </trkpt>
      <trkpt lat="44.67438175342977046966552734375" lon="6.81507241912186145782470703125">
        <ele>2033.199951171875</ele>
        <time>2026-08-31T06:13:28.000Z</time>
        <extensions>
          <ns3:TrackPointExtension>
            <ns3:hr>144</ns3:hr>
            <ns3:cad>47</ns3:cad>
          </ns3:TrackPointExtension>
        </extensions>
      </trkpt>
      <trkpt lat="44.67438460327684879302978515625" lon="6.81508264504373073577880859375">
        <ele>2033.4000244140625</ele>
        <time>2026-08-31T06:13:29.000Z</time>
        <extensions>
          <ns3:TrackPointExtension>
            <ns3:hr>144</ns3:hr>
            <ns3:cad>47</ns3:cad>
          </ns3:TrackPointExtension>
        </extensions>
      </trkpt>
      <trkpt lat="44.6743887104094028472900390625" lon="6.815092451870441436767578125">
        <ele>2033.5999755859375</ele>
        <time>2026-08-31T06:13:30.000Z</time>
        <extensions>
          <ns3:TrackPointExtension>
            <ns3:hr>144</ns3:hr>
            <ns3:cad>47</ns3:cad>
          </ns3:TrackPointExtension>
        </extensions>
      </trkpt>
      <trkpt lat="44.6743937395513057708740234375" lon="6.8150999955832958221435546875">
        <ele>2033.800048828125</ele>
        <time>2026-08-31T06:13:31.000Z</time>
        <extensions>
          <ns3:TrackPointExtension>
            <ns3:hr>145</ns3:hr>
            <ns3:cad>48</ns3:cad>
          </ns3:TrackPointExtension>
        </extensions>
      </trkpt>
      <trkpt lat="44.67439633794128894805908203125" lon="6.81510594673454761505126953125">
        <ele>2034</ele>
        <time>2026-08-31T06:13:32.000Z</time>
        <extensions>
          <ns3:TrackPointExtension>
            <ns3:hr>145</ns3:hr>
            <ns3:cad>49</ns3:cad>
          </ns3:TrackPointExtension>
        </extensions>
      </trkpt>
      <trkpt lat="44.67440069653093814849853515625" lon="6.81511600501835346221923828125">
        <ele>2034.199951171875</ele>
        <time>2026-08-31T06:13:33.000Z</time>
        <extensions>
          <ns3:TrackPointExtension>
            <ns3:hr>144</ns3:hr>
            <ns3:cad>50</ns3:cad>
          </ns3:TrackPointExtension>
        </extensions>
      </trkpt>
      <trkpt lat="44.6744041331112384796142578125" lon="6.815120279788970947265625">
        <ele>2034.4000244140625</ele>
        <time>2026-08-31T06:13:34.000Z</time>
        <extensions>
          <ns3:TrackPointExtension>
            <ns3:hr>144</ns3:hr>
            <ns3:cad>50</ns3:cad>
          </ns3:TrackPointExtension>
        </extensions>
      </trkpt>
      <trkpt lat="44.67440522275865077972412109375" lon="6.81512899696826934814453125">
        <ele>2034.5999755859375</ele>
        <time>2026-08-31T06:13:35.000Z</time>
        <extensions>
          <ns3:TrackPointExtension>
            <ns3:hr>144</ns3:hr>
            <ns3:cad>50</ns3:cad>
          </ns3:TrackPointExtension>
        </extensions>
      </trkpt>
      <trkpt lat="44.674409665167331695556640625" lon="6.8151422403752803802490234375">
        <ele>2034.800048828125</ele>
        <time>2026-08-31T06:13:36.000Z</time>
        <extensions>
          <ns3:TrackPointExtension>
            <ns3:hr>144</ns3:hr>
            <ns3:cad>50</ns3:cad>
          </ns3:TrackPointExtension>
        </extensions>
      </trkpt>
      <trkpt lat="44.67441360466182231903076171875" lon="6.81515020318329334259033203125">
        <ele>2035</ele>
        <time>2026-08-31T06:13:37.000Z</time>
        <extensions>
          <ns3:TrackPointExtension>
            <ns3:hr>144</ns3:hr>
            <ns3:cad>49</ns3:cad>
          </ns3:TrackPointExtension>
        </extensions>
      </trkpt>
      <trkpt lat="44.674415029585361480712890625" lon="6.81516059674322605133056640625">
        <ele>2035.199951171875</ele>
        <time>2026-08-31T06:13:38.000Z</time>
        <extensions>
          <ns3:TrackPointExtension>
            <ns3:hr>144</ns3:hr>
            <ns3:cad>49</ns3:cad>
          </ns3:TrackPointExtension>
        </extensions>
      </trkpt>
      <trkpt lat="44.6744151972234249114990234375" lon="6.8151663802564144134521484375">
        <ele>2035.4000244140625</ele>
        <time>2026-08-31T06:13:39.000Z</time>
        <extensions>
          <ns3:TrackPointExtension>
            <ns3:hr>144</ns3:hr>
            <ns3:cad>50</ns3:cad>
          </ns3:TrackPointExtension>
        </extensions>
      </trkpt>
      <trkpt lat="44.67441846616566181182861328125" lon="6.815174929797649383544921875">
        <ele>2035.5999755859375</ele>
        <time>2026-08-31T06:13:40.000Z</time>
        <extensions>
          <ns3:TrackPointExtension>
            <ns3:hr>144</ns3:hr>
            <ns3:cad>50</ns3:cad>
          </ns3:TrackPointExtension>
        </extensions>
      </trkpt>
      <trkpt lat="44.674419723451137542724609375" lon="6.81518909521400928497314453125">
        <ele>2035.800048828125</ele>
        <time>2026-08-31T06:13:41.000Z</time>
        <extensions>
          <ns3:TrackPointExtension>
            <ns3:hr>144</ns3:hr>
            <ns3:cad>50</ns3:cad>
          </ns3:TrackPointExtension>
        </extensions>
      </trkpt>
      <trkpt lat="44.6744229085743427276611328125" lon="6.815202422440052032470703125">
        <ele>2036</ele>
        <time>2026-08-31T06:13:42.000Z</time>
        <extensions>
          <ns3:TrackPointExtension>
            <ns3:hr>144</ns3:hr>
            <ns3:cad>50</ns3:cad>
          </ns3:TrackPointExtension>
        </extensions>
      </trkpt>
      <trkpt lat="44.6744286082684993743896484375" lon="6.81521306745707988739013671875">
        <ele>2036.199951171875</ele>
        <time>2026-08-31T06:13:43.000Z</time>
        <extensions>
          <ns3:TrackPointExtension>
            <ns3:hr>145</ns3:hr>
            <ns3:cad>50</ns3:cad>
          </ns3:TrackPointExtension>
        </extensions>
      </trkpt>
      <trkpt lat="44.67443036846816539764404296875" lon="6.81522463448345661163330078125">
        <ele>2036.4000244140625</ele>
        <time>2026-08-31T06:13:44.000Z</time>
        <extensions>
          <ns3:TrackPointExtension>
            <ns3:hr>145</ns3:hr>
            <ns3:cad>50</ns3:cad>
          </ns3:TrackPointExtension>
        </extensions>
      </trkpt>
      <trkpt lat="44.67443414032459259033203125" lon="6.8152364529669284820556640625">
        <ele>2036.5999755859375</ele>
        <time>2026-08-31T06:13:45.000Z</time>
        <extensions>
          <ns3:TrackPointExtension>
            <ns3:hr>145</ns3:hr>
            <ns3:cad>51</ns3:cad>
          </ns3:TrackPointExtension>
        </extensions>
      </trkpt>
      <trkpt lat="44.674432463943958282470703125" lon="6.815240643918514251708984375">
        <ele>2036.800048828125</ele>
        <time>2026-08-31T06:13:46.000Z</time>
        <extensions>
          <ns3:TrackPointExtension>
            <ns3:hr>145</ns3:hr>
            <ns3:cad>51</ns3:cad>
          </ns3:TrackPointExtension>
        </extensions>
      </trkpt>
      <trkpt lat="44.674430452287197113037109375" lon="6.815250031650066375732421875">
        <ele>2037</ele>
        <time>2026-08-31T06:13:47.000Z</time>
        <extensions>
          <ns3:TrackPointExtension>
            <ns3:hr>145</ns3:hr>
            <ns3:cad>51</ns3:cad>
          </ns3:TrackPointExtension>
        </extensions>
      </trkpt>
      <trkpt lat="44.67443321831524372100830078125" lon="6.81525799445807933807373046875">
        <ele>2037.199951171875</ele>
        <time>2026-08-31T06:13:48.000Z</time>
        <extensions>
          <ns3:TrackPointExtension>
            <ns3:hr>145</ns3:hr>
            <ns3:cad>52</ns3:cad>
          </ns3:TrackPointExtension>
        </extensions>
      </trkpt>
      <trkpt lat="44.6744366548955440521240234375" lon="6.81526788510382175445556640625">
        <ele>2037.4000244140625</ele>
        <time>2026-08-31T06:13:49.000Z</time>
        <extensions>
          <ns3:TrackPointExtension>
            <ns3:hr>146</ns3:hr>
            <ns3:cad>52</ns3:cad>
          </ns3:TrackPointExtension>
        </extensions>
      </trkpt>
      <trkpt lat="44.67443992383778095245361328125" lon="6.8152760155498981475830078125">
        <ele>2037.5999755859375</ele>
        <time>2026-08-31T06:13:50.000Z</time>
        <extensions>
          <ns3:TrackPointExtension>
            <ns3:hr>146</ns3:hr>
            <ns3:cad>52</ns3:cad>
          </ns3:TrackPointExtension>
        </extensions>
      </trkpt>
      <trkpt lat="44.67444344423711299896240234375" lon="6.815284229815006256103515625">
        <ele>2037.800048828125</ele>
        <time>2026-08-31T06:13:51.000Z</time>
        <extensions>
          <ns3:TrackPointExtension>
            <ns3:hr>146</ns3:hr>
            <ns3:cad>51</ns3:cad>
          </ns3:TrackPointExtension>
        </extensions>
      </trkpt>
      <trkpt lat="44.67444579117000102996826171875" lon="6.81529805995523929595947265625">
        <ele>2038</ele>
        <time>2026-08-31T06:13:52.000Z</time>
        <extensions>
          <ns3:TrackPointExtension>
            <ns3:hr>147</ns3:hr>
            <ns3:cad>50</ns3:cad>
          </ns3:TrackPointExtension>
        </extensions>
      </trkpt>
      <trkpt lat="44.67444679699838161468505859375" lon="6.8153105489909648895263671875">
        <ele>2038.199951171875</ele>
        <time>2026-08-31T06:13:53.000Z</time>
        <extensions>
          <ns3:TrackPointExtension>
            <ns3:hr>147</ns3:hr>
            <ns3:cad>50</ns3:cad>
          </ns3:TrackPointExtension>
        </extensions>
      </trkpt>
      <trkpt lat="44.67444813810288906097412109375" lon="6.81531901471316814422607421875">
        <ele>2038.4000244140625</ele>
        <time>2026-08-31T06:13:54.000Z</time>
        <extensions>
          <ns3:TrackPointExtension>
            <ns3:hr>147</ns3:hr>
            <ns3:cad>51</ns3:cad>
          </ns3:TrackPointExtension>
        </extensions>
      </trkpt>
      <trkpt lat="44.6744514070451259613037109375" lon="6.81533016264438629150390625">
        <ele>2038.5999755859375</ele>
        <time>2026-08-31T06:13:55.000Z</time>
        <extensions>
          <ns3:TrackPointExtension>
            <ns3:hr>149</ns3:hr>
            <ns3:cad>52</ns3:cad>
          </ns3:TrackPointExtension>
        </extensions>
      </trkpt>
      <trkpt lat="44.67445434071123600006103515625" lon="6.815340220928192138671875">
        <ele>2038.800048828125</ele>
        <time>2026-08-31T06:13:56.000Z</time>
        <extensions>
          <ns3:TrackPointExtension>
            <ns3:hr>151</ns3:hr>
            <ns3:cad>52</ns3:cad>
          </ns3:TrackPointExtension>
        </extensions>
      </trkpt>
      <trkpt lat="44.6744577772915363311767578125" lon="6.81535069830715656280517578125">
        <ele>2039.199951171875</ele>
        <time>2026-08-31T06:13:57.000Z</time>
        <extensions>
          <ns3:TrackPointExtension>
            <ns3:hr>152</ns3:hr>
            <ns3:cad>52</ns3:cad>
          </ns3:TrackPointExtension>
        </extensions>
      </trkpt>
      <trkpt lat="44.6744618006050586700439453125" lon="6.8153591640293598175048828125">
        <ele>2039.199951171875</ele>
        <time>2026-08-31T06:13:58.000Z</time>
        <extensions>
          <ns3:TrackPointExtension>
            <ns3:hr>152</ns3:hr>
            <ns3:cad>52</ns3:cad>
          </ns3:TrackPointExtension>
        </extensions>
      </trkpt>
      <trkpt lat="44.67446632683277130126953125" lon="6.81536762975156307220458984375">
        <ele>2039.5999755859375</ele>
        <time>2026-08-31T06:13:59.000Z</time>
        <extensions>
          <ns3:TrackPointExtension>
            <ns3:hr>152</ns3:hr>
            <ns3:cad>52</ns3:cad>
          </ns3:TrackPointExtension>
        </extensions>
      </trkpt>
      <trkpt lat="44.67447261326014995574951171875" lon="6.81537710130214691162109375">
        <ele>2039.800048828125</ele>
        <time>2026-08-31T06:14:00.000Z</time>
        <extensions>
          <ns3:TrackPointExtension>
            <ns3:hr>153</ns3:hr>
            <ns3:cad>52</ns3:cad>
          </ns3:TrackPointExtension>
        </extensions>
      </trkpt>
      <trkpt lat="44.6744782291352748870849609375" lon="6.8153846450150012969970703125">
        <ele>2040</ele>
        <time>2026-08-31T06:14:01.000Z</time>
        <extensions>
          <ns3:TrackPointExtension>
            <ns3:hr>152</ns3:hr>
            <ns3:cad>52</ns3:cad>
          </ns3:TrackPointExtension>
        </extensions>
      </trkpt>
      <trkpt lat="44.67448242008686065673828125" lon="6.815388165414333343505859375">
        <ele>2040.199951171875</ele>
        <time>2026-08-31T06:14:02.000Z</time>
        <extensions>
          <ns3:TrackPointExtension>
            <ns3:hr>152</ns3:hr>
            <ns3:cad>52</ns3:cad>
          </ns3:TrackPointExtension>
        </extensions>
      </trkpt>
      <trkpt lat="44.674484767019748687744140625" lon="6.81538590230047702789306640625">
        <ele>2040.4000244140625</ele>
        <time>2026-08-31T06:14:03.000Z</time>
        <extensions>
          <ns3:TrackPointExtension>
            <ns3:hr>153</ns3:hr>
            <ns3:cad>52</ns3:cad>
          </ns3:TrackPointExtension>
        </extensions>
      </trkpt>
      <trkpt lat="44.674486108124256134033203125" lon="6.81537978351116180419921875">
        <ele>2040.5999755859375</ele>
        <time>2026-08-31T06:14:04.000Z</time>
        <extensions>
          <ns3:TrackPointExtension>
            <ns3:hr>153</ns3:hr>
            <ns3:cad>52</ns3:cad>
          </ns3:TrackPointExtension>
        </extensions>
      </trkpt>
      <trkpt lat="44.674490131437778472900390625" lon="6.81537182070314884185791015625">
        <ele>2040.5999755859375</ele>
        <time>2026-08-31T06:14:05.000Z</time>
        <extensions>
          <ns3:TrackPointExtension>
            <ns3:hr>153</ns3:hr>
            <ns3:cad>52</ns3:cad>
          </ns3:TrackPointExtension>
        </extensions>
      </trkpt>
      <trkpt lat="44.67449239455163478851318359375" lon="6.815364025533199310302734375">
        <ele>2040.800048828125</ele>
        <time>2026-08-31T06:14:06.000Z</time>
        <extensions>
          <ns3:TrackPointExtension>
            <ns3:hr>153</ns3:hr>
            <ns3:cad>52</ns3:cad>
          </ns3:TrackPointExtension>
        </extensions>
      </trkpt>
      <trkpt lat="44.6744923107326030731201171875" lon="6.8153576552867889404296875">
        <ele>2041</ele>
        <time>2026-08-31T06:14:07.000Z</time>
        <extensions>
          <ns3:TrackPointExtension>
            <ns3:hr>154</ns3:hr>
            <ns3:cad>52</ns3:cad>
          </ns3:TrackPointExtension>
        </extensions>
      </trkpt>
      <trkpt lat="44.6744939871132373809814453125" lon="6.815350949764251708984375">
        <ele>2041.199951171875</ele>
        <time>2026-08-31T06:14:08.000Z</time>
        <extensions>
          <ns3:TrackPointExtension>
            <ns3:hr>154</ns3:hr>
            <ns3:cad>50</ns3:cad>
          </ns3:TrackPointExtension>
        </extensions>
      </trkpt>
      <trkpt lat="44.674496836960315704345703125" lon="6.815344579517841339111328125">
        <ele>2041.4000244140625</ele>
        <time>2026-08-31T06:14:09.000Z</time>
        <extensions>
          <ns3:TrackPointExtension>
            <ns3:hr>154</ns3:hr>
            <ns3:cad>50</ns3:cad>
          </ns3:TrackPointExtension>
        </extensions>
      </trkpt>
      <trkpt lat="44.67450119554996490478515625" lon="6.815335862338542938232421875">
        <ele>2041.5999755859375</ele>
        <time>2026-08-31T06:14:10.000Z</time>
        <extensions>
          <ns3:TrackPointExtension>
            <ns3:hr>154</ns3:hr>
            <ns3:cad>47</ns3:cad>
          </ns3:TrackPointExtension>
        </extensions>
      </trkpt>
      <trkpt lat="44.6745057217776775360107421875" lon="6.815329156816005706787109375">
        <ele>2041.5999755859375</ele>
        <time>2026-08-31T06:14:11.000Z</time>
        <extensions>
          <ns3:TrackPointExtension>
            <ns3:hr>154</ns3:hr>
            <ns3:cad>47</ns3:cad>
          </ns3:TrackPointExtension>
        </extensions>
      </trkpt>
      <trkpt lat="44.6745127625763416290283203125" lon="6.8153246305882930755615234375">
        <ele>2041.800048828125</ele>
        <time>2026-08-31T06:14:12.000Z</time>
        <extensions>
          <ns3:TrackPointExtension>
            <ns3:hr>154</ns3:hr>
            <ns3:cad>47</ns3:cad>
          </ns3:TrackPointExtension>
        </extensions>
      </trkpt>
      <trkpt lat="44.674520306289196014404296875" lon="6.81532169692218303680419921875">
        <ele>2042</ele>
        <time>2026-08-31T06:14:13.000Z</time>
        <extensions>
          <ns3:TrackPointExtension>
            <ns3:hr>154</ns3:hr>
            <ns3:cad>49</ns3:cad>
          </ns3:TrackPointExtension>
        </extensions>
      </trkpt>
      <trkpt lat="44.6745285205543041229248046875" lon="6.81531666778028011322021484375">
        <ele>2042.199951171875</ele>
        <time>2026-08-31T06:14:14.000Z</time>
        <extensions>
          <ns3:TrackPointExtension>
            <ns3:hr>154</ns3:hr>
            <ns3:cad>49</ns3:cad>
          </ns3:TrackPointExtension>
        </extensions>
      </trkpt>
      <trkpt lat="44.67453447170555591583251953125" lon="6.81531214155256748199462890625">
        <ele>2042.4000244140625</ele>
        <time>2026-08-31T06:14:15.000Z</time>
        <extensions>
          <ns3:TrackPointExtension>
            <ns3:hr>155</ns3:hr>
            <ns3:cad>49</ns3:cad>
          </ns3:TrackPointExtension>
        </extensions>
      </trkpt>
      <trkpt lat="44.67454008758068084716796875" lon="6.8153082020580768585205078125">
        <ele>2042.5999755859375</ele>
        <time>2026-08-31T06:14:16.000Z</time>
        <extensions>
          <ns3:TrackPointExtension>
            <ns3:hr>155</ns3:hr>
            <ns3:cad>50</ns3:cad>
          </ns3:TrackPointExtension>
        </extensions>
      </trkpt>
      <trkpt lat="44.6745429374277591705322265625" lon="6.81530677713453769683837890625">
        <ele>2042.5999755859375</ele>
        <time>2026-08-31T06:14:17.000Z</time>
        <extensions>
          <ns3:TrackPointExtension>
            <ns3:hr>155</ns3:hr>
            <ns3:cad>49</ns3:cad>
          </ns3:TrackPointExtension>
        </extensions>
      </trkpt>
      <trkpt lat="44.674540422856807708740234375" lon="6.8153066933155059814453125">
        <ele>2042.800048828125</ele>
        <time>2026-08-31T06:14:18.000Z</time>
        <extensions>
          <ns3:TrackPointExtension>
            <ns3:hr>155</ns3:hr>
            <ns3:cad>0</ns3:cad>
          </ns3:TrackPointExtension>
        </extensions>
      </trkpt>
      <trkpt lat="44.6745379082858562469482421875" lon="6.81530535221099853515625">
        <ele>2042.800048828125</ele>
        <time>2026-08-31T06:14:19.000Z</time>
        <extensions>
          <ns3:TrackPointExtension>
            <ns3:hr>155</ns3:hr>
            <ns3:cad>0</ns3:cad>
          </ns3:TrackPointExtension>
        </extensions>
      </trkpt>
      <trkpt lat="44.674538411200046539306640625" lon="6.8152998201549053192138671875">
        <ele>2042.800048828125</ele>
        <time>2026-08-31T06:14:20.000Z</time>
        <extensions>
          <ns3:TrackPointExtension>
            <ns3:hr>154</ns3:hr>
            <ns3:cad>0</ns3:cad>
          </ns3:TrackPointExtension>
        </extensions>
      </trkpt>
      <trkpt lat="44.6745392493903636932373046875" lon="6.8152964673936367034912109375">
        <ele>2042.800048828125</ele>
        <time>2026-08-31T06:14:21.000Z</time>
        <extensions>
          <ns3:TrackPointExtension>
            <ns3:hr>155</ns3:hr>
            <ns3:cad>0</ns3:cad>
          </ns3:TrackPointExtension>
        </extensions>
      </trkpt>
      <trkpt lat="44.67454151250422000885009765625" lon="6.815291941165924072265625">
        <ele>2042.800048828125</ele>
        <time>2026-08-31T06:14:22.000Z</time>
        <extensions>
          <ns3:TrackPointExtension>
            <ns3:hr>155</ns3:hr>
            <ns3:cad>0</ns3:cad>
          </ns3:TrackPointExtension>
        </extensions>
      </trkpt>
      <trkpt lat="44.6745493076741695404052734375" lon="6.81528850458562374114990234375">
        <ele>2042.800048828125</ele>
        <time>2026-08-31T06:14:23.000Z</time>
        <extensions>
          <ns3:TrackPointExtension>
            <ns3:hr>155</ns3:hr>
            <ns3:cad>0</ns3:cad>
          </ns3:TrackPointExtension>
        </extensions>
      </trkpt>
      <trkpt lat="44.674557186663150787353515625" lon="6.81528397835791110992431640625">
        <ele>2042.800048828125</ele>
        <time>2026-08-31T06:14:24.000Z</time>
        <extensions>
          <ns3:TrackPointExtension>
            <ns3:hr>155</ns3:hr>
            <ns3:cad>0</ns3:cad>
          </ns3:TrackPointExtension>
        </extensions>
      </trkpt>
      <trkpt lat="44.67456288635730743408203125" lon="6.81528062559664249420166015625">
        <ele>2042.800048828125</ele>
        <time>2026-08-31T06:14:25.000Z</time>
        <extensions>
          <ns3:TrackPointExtension>
            <ns3:hr>155</ns3:hr>
            <ns3:cad>0</ns3:cad>
          </ns3:TrackPointExtension>
        </extensions>
      </trkpt>
      <trkpt lat="44.67457202263176441192626953125" lon="6.8152679689228534698486328125">
        <ele>2043</ele>
        <time>2026-08-31T06:14:26.000Z</time>
        <extensions>
          <ns3:TrackPointExtension>
            <ns3:hr>155</ns3:hr>
            <ns3:cad>0</ns3:cad>
          </ns3:TrackPointExtension>
        </extensions>
      </trkpt>
      <trkpt lat="44.6745764650404453277587890625" lon="6.8152609281241893768310546875">
        <ele>2043</ele>
        <time>2026-08-31T06:14:27.000Z</time>
        <extensions>
          <ns3:TrackPointExtension>
            <ns3:hr>156</ns3:hr>
            <ns3:cad>0</ns3:cad>
          </ns3:TrackPointExtension>
        </extensions>
      </trkpt>
      <trkpt lat="44.6745778061449527740478515625" lon="6.815254390239715576171875">
        <ele>2043.199951171875</ele>
        <time>2026-08-31T06:14:28.000Z</time>
        <extensions>
          <ns3:TrackPointExtension>
            <ns3:hr>155</ns3:hr>
            <ns3:cad>0</ns3:cad>
          </ns3:TrackPointExtension>
        </extensions>
      </trkpt>
      <trkpt lat="44.674580655992031097412109375" lon="6.8152508698403835296630859375">
        <ele>2043.199951171875</ele>
        <time>2026-08-31T06:14:29.000Z</time>
        <extensions>
          <ns3:TrackPointExtension>
            <ns3:hr>154</ns3:hr>
            <ns3:cad>0</ns3:cad>
          </ns3:TrackPointExtension>
        </extensions>
      </trkpt>
      <trkpt lat="44.674579985439777374267578125" lon="6.81525346823036670684814453125">
        <ele>2043.4000244140625</ele>
        <time>2026-08-31T06:14:30.000Z</time>
        <extensions>
          <ns3:TrackPointExtension>
            <ns3:hr>153</ns3:hr>
            <ns3:cad>0</ns3:cad>
          </ns3:TrackPointExtension>
        </extensions>
      </trkpt>
      <trkpt lat="44.6745794825255870819091796875" lon="6.81525514461100101470947265625">
        <ele>2043.4000244140625</ele>
        <time>2026-08-31T06:14:31.000Z</time>
        <extensions>
          <ns3:TrackPointExtension>
            <ns3:hr>152</ns3:hr>
            <ns3:cad>0</ns3:cad>
          </ns3:TrackPointExtension>
        </extensions>
      </trkpt>
      <trkpt lat="44.67457763850688934326171875" lon="6.81525497697293758392333984375">
        <ele>2043.5999755859375</ele>
        <time>2026-08-31T06:14:32.000Z</time>
        <extensions>
          <ns3:TrackPointExtension>
            <ns3:hr>151</ns3:hr>
            <ns3:cad>0</ns3:cad>
          </ns3:TrackPointExtension>
        </extensions>
      </trkpt>
      <trkpt lat="44.67457839287817478179931640625" lon="6.815254725515842437744140625">
        <ele>2043.4000244140625</ele>
        <time>2026-08-31T06:14:33.000Z</time>
        <extensions>
          <ns3:TrackPointExtension>
            <ns3:hr>150</ns3:hr>
            <ns3:cad>0</ns3:cad>
          </ns3:TrackPointExtension>
        </extensions>
      </trkpt>
      <trkpt lat="44.6745761297643184661865234375" lon="6.815257407724857330322265625">
        <ele>2043.4000244140625</ele>
        <time>2026-08-31T06:14:34.000Z</time>
        <extensions>
          <ns3:TrackPointExtension>
            <ns3:hr>149</ns3:hr>
            <ns3:cad>0</ns3:cad>
          </ns3:TrackPointExtension>
        </extensions>
      </trkpt>
      <trkpt lat="44.67457721941173076629638671875" lon="6.81525145657360553741455078125">
        <ele>2043.4000244140625</ele>
        <time>2026-08-31T06:14:35.000Z</time>
        <extensions>
          <ns3:TrackPointExtension>
            <ns3:hr>148</ns3:hr>
            <ns3:cad>0</ns3:cad>
          </ns3:TrackPointExtension>
        </extensions>
      </trkpt>
      <trkpt lat="44.6745811589062213897705078125" lon="6.81524391286075115203857421875">
        <ele>2043.4000244140625</ele>
        <time>2026-08-31T06:14:36.000Z</time>
        <extensions>
          <ns3:TrackPointExtension>
            <ns3:hr>148</ns3:hr>
            <ns3:cad>0</ns3:cad>
          </ns3:TrackPointExtension>
        </extensions>
      </trkpt>
      <trkpt lat="44.67458744533360004425048828125" lon="6.81523586623370647430419921875">
        <ele>2043.4000244140625</ele>
        <time>2026-08-31T06:14:37.000Z</time>
        <extensions>
          <ns3:TrackPointExtension>
            <ns3:hr>148</ns3:hr>
            <ns3:cad>0</ns3:cad>
          </ns3:TrackPointExtension>
        </extensions>
      </trkpt>
      <trkpt lat="44.67459599487483501434326171875" lon="6.81522882543504238128662109375">
        <ele>2043.5999755859375</ele>
        <time>2026-08-31T06:14:38.000Z</time>
        <extensions>
          <ns3:TrackPointExtension>
            <ns3:hr>148</ns3:hr>
            <ns3:cad>0</ns3:cad>
          </ns3:TrackPointExtension>
        </extensions>
      </trkpt>
      <trkpt lat="44.67460471205413341522216796875" lon="6.815220527350902557373046875">
        <ele>2043.800048828125</ele>
        <time>2026-08-31T06:14:39.000Z</time>
        <extensions>
          <ns3:TrackPointExtension>
            <ns3:hr>147</ns3:hr>
            <ns3:cad>0</ns3:cad>
          </ns3:TrackPointExtension>
        </extensions>
      </trkpt>
      <trkpt lat="44.67461242340505123138427734375" lon="6.8152143247425556182861328125">
        <ele>2044</ele>
        <time>2026-08-31T06:14:40.000Z</time>
        <extensions>
          <ns3:TrackPointExtension>
            <ns3:hr>147</ns3:hr>
            <ns3:cad>0</ns3:cad>
          </ns3:TrackPointExtension>
        </extensions>
      </trkpt>
      <trkpt lat="44.67462189495563507080078125" lon="6.81521172635257244110107421875">
        <ele>2044</ele>
        <time>2026-08-31T06:14:41.000Z</time>
        <extensions>
          <ns3:TrackPointExtension>
            <ns3:hr>147</ns3:hr>
            <ns3:cad>48</ns3:cad>
          </ns3:TrackPointExtension>
        </extensions>
      </trkpt>
      <trkpt lat="44.67462751083076000213623046875" lon="6.8152074515819549560546875">
        <ele>2044.199951171875</ele>
        <time>2026-08-31T06:14:42.000Z</time>
        <extensions>
          <ns3:TrackPointExtension>
            <ns3:hr>147</ns3:hr>
            <ns3:cad>49</ns3:cad>
          </ns3:TrackPointExtension>
        </extensions>
      </trkpt>
      <trkpt lat="44.67463069595396518707275390625" lon="6.81521122343838214874267578125">
        <ele>2044.4000244140625</ele>
        <time>2026-08-31T06:14:43.000Z</time>
        <extensions>
          <ns3:TrackPointExtension>
            <ns3:hr>147</ns3:hr>
            <ns3:cad>48</ns3:cad>
          </ns3:TrackPointExtension>
        </extensions>
      </trkpt>
      <trkpt lat="44.6746341325342655181884765625" lon="6.81521474383771419525146484375">
        <ele>2044.5999755859375</ele>
        <time>2026-08-31T06:14:44.000Z</time>
        <extensions>
          <ns3:TrackPointExtension>
            <ns3:hr>147</ns3:hr>
            <ns3:cad>0</ns3:cad>
          </ns3:TrackPointExtension>
        </extensions>
      </trkpt>
      <trkpt lat="44.67463572509586811065673828125" lon="6.815217845141887664794921875">
        <ele>2044.5999755859375</ele>
        <time>2026-08-31T06:14:45.000Z</time>
        <extensions>
          <ns3:TrackPointExtension>
            <ns3:hr>146</ns3:hr>
            <ns3:cad>0</ns3:cad>
          </ns3:TrackPointExtension>
        </extensions>
      </trkpt>
      <trkpt lat="44.67463790439069271087646484375" lon="6.81522153317928314208984375">
        <ele>2044.5999755859375</ele>
        <time>2026-08-31T06:14:46.000Z</time>
        <extensions>
          <ns3:TrackPointExtension>
            <ns3:hr>146</ns3:hr>
            <ns3:cad>0</ns3:cad>
          </ns3:TrackPointExtension>
        </extensions>
      </trkpt>
      <trkpt lat="44.67463907785713672637939453125" lon="6.81522279046475887298583984375">
        <ele>2044.5999755859375</ele>
        <time>2026-08-31T06:14:47.000Z</time>
        <extensions>
          <ns3:TrackPointExtension>
            <ns3:hr>146</ns3:hr>
            <ns3:cad>0</ns3:cad>
          </ns3:TrackPointExtension>
        </extensions>
      </trkpt>
      <trkpt lat="44.67464008368551731109619140625" lon="6.815221868455410003662109375">
        <ele>2044.5999755859375</ele>
        <time>2026-08-31T06:14:48.000Z</time>
        <extensions>
          <ns3:TrackPointExtension>
            <ns3:hr>146</ns3:hr>
            <ns3:cad>0</ns3:cad>
          </ns3:TrackPointExtension>
        </extensions>
      </trkpt>
      <trkpt lat="44.67464041896164417266845703125" lon="6.81522128172218799591064453125">
        <ele>2044.5999755859375</ele>
        <time>2026-08-31T06:14:49.000Z</time>
        <extensions>
          <ns3:TrackPointExtension>
            <ns3:hr>146</ns3:hr>
            <ns3:cad>0</ns3:cad>
          </ns3:TrackPointExtension>
        </extensions>
      </trkpt>
      <trkpt lat="44.67463924549520015716552734375" lon="6.815222539007663726806640625">
        <ele>2044.5999755859375</ele>
        <time>2026-08-31T06:14:50.000Z</time>
        <extensions>
          <ns3:TrackPointExtension>
            <ns3:hr>146</ns3:hr>
            <ns3:cad>0</ns3:cad>
          </ns3:TrackPointExtension>
        </extensions>
      </trkpt>
      <trkpt lat="44.6746374852955341339111328125" lon="6.81522346101701259613037109375">
        <ele>2044.5999755859375</ele>
        <time>2026-08-31T06:14:51.000Z</time>
        <extensions>
          <ns3:TrackPointExtension>
            <ns3:hr>147</ns3:hr>
            <ns3:cad>0</ns3:cad>
          </ns3:TrackPointExtension>
        </extensions>
      </trkpt>
      <trkpt lat="44.6746371500194072723388671875" lon="6.81521910242736339569091796875">
        <ele>2044.5999755859375</ele>
        <time>2026-08-31T06:14:52.000Z</time>
        <extensions>
          <ns3:TrackPointExtension>
            <ns3:hr>146</ns3:hr>
            <ns3:cad>0</ns3:cad>
          </ns3:TrackPointExtension>
        </extensions>
      </trkpt>
      <trkpt lat="44.67463773675262928009033203125" lon="6.8152186833322048187255859375">
        <ele>2044.800048828125</ele>
        <time>2026-08-31T06:14:53.000Z</time>
        <extensions>
          <ns3:TrackPointExtension>
            <ns3:hr>147</ns3:hr>
            <ns3:cad>0</ns3:cad>
          </ns3:TrackPointExtension>
        </extensions>
      </trkpt>
      <trkpt lat="44.6746351383626461029052734375" lon="6.8152166716754436492919921875">
        <ele>2044.800048828125</ele>
        <time>2026-08-31T06:14:54.000Z</time>
        <extensions>
          <ns3:TrackPointExtension>
            <ns3:hr>147</ns3:hr>
            <ns3:cad>0</ns3:cad>
          </ns3:TrackPointExtension>
        </extensions>
      </trkpt>
      <trkpt lat="44.6746348030865192413330078125" lon="6.81521809659898281097412109375">
        <ele>2044.800048828125</ele>
        <time>2026-08-31T06:14:55.000Z</time>
        <extensions>
          <ns3:TrackPointExtension>
            <ns3:hr>146</ns3:hr>
            <ns3:cad>0</ns3:cad>
          </ns3:TrackPointExtension>
        </extensions>
      </trkpt>
      <trkpt lat="44.674635641276836395263671875" lon="6.81521507911384105682373046875">
        <ele>2044.800048828125</ele>
        <time>2026-08-31T06:14:56.000Z</time>
        <extensions>
          <ns3:TrackPointExtension>
            <ns3:hr>146</ns3:hr>
            <ns3:cad>0</ns3:cad>
          </ns3:TrackPointExtension>
        </extensions>
      </trkpt>
      <trkpt lat="44.67463891021907329559326171875" lon="6.81521189399063587188720703125">
        <ele>2044.800048828125</ele>
        <time>2026-08-31T06:14:57.000Z</time>
        <extensions>
          <ns3:TrackPointExtension>
            <ns3:hr>145</ns3:hr>
            <ns3:cad>0</ns3:cad>
          </ns3:TrackPointExtension>
        </extensions>
      </trkpt>
      <trkpt lat="44.6746415086090564727783203125" lon="6.81520569138228893280029296875">
        <ele>2045</ele>
        <time>2026-08-31T06:14:58.000Z</time>
        <extensions>
          <ns3:TrackPointExtension>
            <ns3:hr>145</ns3:hr>
            <ns3:cad>0</ns3:cad>
          </ns3:TrackPointExtension>
        </extensions>
      </trkpt>
      <trkpt lat="44.67464444227516651153564453125" lon="6.815196387469768524169921875">
        <ele>2045</ele>
        <time>2026-08-31T06:14:59.000Z</time>
        <extensions>
          <ns3:TrackPointExtension>
            <ns3:hr>145</ns3:hr>
            <ns3:cad>0</ns3:cad>
          </ns3:TrackPointExtension>
        </extensions>
      </trkpt>
      <trkpt lat="44.67464980669319629669189453125" lon="6.81518591009080410003662109375">
        <ele>2045.199951171875</ele>
        <time>2026-08-31T06:15:00.000Z</time>
        <extensions>
          <ns3:TrackPointExtension>
            <ns3:hr>146</ns3:hr>
            <ns3:cad>71</ns3:cad>
          </ns3:TrackPointExtension>
        </extensions>
      </trkpt>
      <trkpt lat="44.67465852387249469757080078125" lon="6.8151806294918060302734375">
        <ele>2045.4000244140625</ele>
        <time>2026-08-31T06:15:01.000Z</time>
        <extensions>
          <ns3:TrackPointExtension>
            <ns3:hr>146</ns3:hr>
            <ns3:cad>71</ns3:cad>
          </ns3:TrackPointExtension>
        </extensions>
      </trkpt>
      <trkpt lat="44.67466707341372966766357421875" lon="6.8151710741221904754638671875">
        <ele>2045.5999755859375</ele>
        <time>2026-08-31T06:15:02.000Z</time>
        <extensions>
          <ns3:TrackPointExtension>
            <ns3:hr>146</ns3:hr>
            <ns3:cad>71</ns3:cad>
          </ns3:TrackPointExtension>
        </extensions>
      </trkpt>
      <trkpt lat="44.67467486858367919921875" lon="6.8151640333235263824462890625">
        <ele>2045.800048828125</ele>
        <time>2026-08-31T06:15:03.000Z</time>
        <extensions>
          <ns3:TrackPointExtension>
            <ns3:hr>145</ns3:hr>
            <ns3:cad>71</ns3:cad>
          </ns3:TrackPointExtension>
        </extensions>
      </trkpt>
      <trkpt lat="44.6746840886771678924560546875" lon="6.8151564896106719970703125">
        <ele>2046.199951171875</ele>
        <time>2026-08-31T06:15:04.000Z</time>
        <extensions>
          <ns3:TrackPointExtension>
            <ns3:hr>145</ns3:hr>
            <ns3:cad>71</ns3:cad>
          </ns3:TrackPointExtension>
        </extensions>
      </trkpt>
      <trkpt lat="44.67469087801873683929443359375" lon="6.81515087373554706573486328125">
        <ele>2046.4000244140625</ele>
        <time>2026-08-31T06:15:05.000Z</time>
        <extensions>
          <ns3:TrackPointExtension>
            <ns3:hr>144</ns3:hr>
            <ns3:cad>71</ns3:cad>
          </ns3:TrackPointExtension>
        </extensions>
      </trkpt>
      <trkpt lat="44.67469825409352779388427734375" lon="6.81514467112720012664794921875">
        <ele>2046.5999755859375</ele>
        <time>2026-08-31T06:15:06.000Z</time>
        <extensions>
          <ns3:TrackPointExtension>
            <ns3:hr>144</ns3:hr>
            <ns3:cad>71</ns3:cad>
          </ns3:TrackPointExtension>
        </extensions>
      </trkpt>
      <trkpt lat="44.674702025949954986572265625" lon="6.81514299474656581878662109375">
        <ele>2047</ele>
        <time>2026-08-31T06:15:07.000Z</time>
        <extensions>
          <ns3:TrackPointExtension>
            <ns3:hr>143</ns3:hr>
            <ns3:cad>71</ns3:cad>
          </ns3:TrackPointExtension>
        </extensions>
      </trkpt>
      <trkpt lat="44.67471267096698284149169921875" lon="6.815140731632709503173828125">
        <ele>2047.199951171875</ele>
        <time>2026-08-31T06:15:08.000Z</time>
        <extensions>
          <ns3:TrackPointExtension>
            <ns3:hr>142</ns3:hr>
            <ns3:cad>71</ns3:cad>
          </ns3:TrackPointExtension>
        </extensions>
      </trkpt>
      <trkpt lat="44.6747199632227420806884765625" lon="6.8151323497295379638671875">
        <ele>2047.4000244140625</ele>
        <time>2026-08-31T06:15:09.000Z</time>
        <extensions>
          <ns3:TrackPointExtension>
            <ns3:hr>142</ns3:hr>
            <ns3:cad>71</ns3:cad>
          </ns3:TrackPointExtension>
        </extensions>
      </trkpt>
      <trkpt lat="44.67473127879202365875244140625" lon="6.815118603408336639404296875">
        <ele>2047.5999755859375</ele>
        <time>2026-08-31T06:15:10.000Z</time>
        <extensions>
          <ns3:TrackPointExtension>
            <ns3:hr>142</ns3:hr>
            <ns3:cad>74</ns3:cad>
          </ns3:TrackPointExtension>
        </extensions>
      </trkpt>
      <trkpt lat="44.67474016360938549041748046875" lon="6.8151093833148479461669921875">
        <ele>2048</ele>
        <time>2026-08-31T06:15:11.000Z</time>
        <extensions>
          <ns3:TrackPointExtension>
            <ns3:hr>142</ns3:hr>
            <ns3:cad>74</ns3:cad>
          </ns3:TrackPointExtension>
        </extensions>
      </trkpt>
      <trkpt lat="44.67474795877933502197265625" lon="6.81509689427912235260009765625">
        <ele>2048.199951171875</ele>
        <time>2026-08-31T06:15:12.000Z</time>
        <extensions>
          <ns3:TrackPointExtension>
            <ns3:hr>142</ns3:hr>
            <ns3:cad>74</ns3:cad>
          </ns3:TrackPointExtension>
        </extensions>
      </trkpt>
      <trkpt lat="44.67475592158734798431396484375" lon="6.81508549489080905914306640625">
        <ele>2048.39990234375</ele>
        <time>2026-08-31T06:15:13.000Z</time>
        <extensions>
          <ns3:TrackPointExtension>
            <ns3:hr>142</ns3:hr>
            <ns3:cad>74</ns3:cad>
          </ns3:TrackPointExtension>
        </extensions>
      </trkpt>
      <trkpt lat="44.67475734651088714599609375" lon="6.8150808848440647125244140625">
        <ele>2048.800048828125</ele>
        <time>2026-08-31T06:15:14.000Z</time>
        <extensions>
          <ns3:TrackPointExtension>
            <ns3:hr>142</ns3:hr>
            <ns3:cad>74</ns3:cad>
          </ns3:TrackPointExtension>
        </extensions>
      </trkpt>
      <trkpt lat="44.6747682429850101470947265625" lon="6.8150679767131805419921875">
        <ele>2049</ele>
        <time>2026-08-31T06:15:15.000Z</time>
        <extensions>
          <ns3:TrackPointExtension>
            <ns3:hr>142</ns3:hr>
            <ns3:cad>74</ns3:cad>
          </ns3:TrackPointExtension>
        </extensions>
      </trkpt>
      <trkpt lat="44.67477503232657909393310546875" lon="6.81506386958062648773193359375">
        <ele>2049.199951171875</ele>
        <time>2026-08-31T06:15:16.000Z</time>
        <extensions>
          <ns3:TrackPointExtension>
            <ns3:hr>142</ns3:hr>
            <ns3:cad>0</ns3:cad>
          </ns3:TrackPointExtension>
        </extensions>
      </trkpt>
      <trkpt lat="44.67478257603943347930908203125" lon="6.81505565531551837921142578125">
        <ele>2049.39990234375</ele>
        <time>2026-08-31T06:15:17.000Z</time>
        <extensions>
          <ns3:TrackPointExtension>
            <ns3:hr>143</ns3:hr>
            <ns3:cad>0</ns3:cad>
          </ns3:TrackPointExtension>
        </extensions>
      </trkpt>
      <trkpt lat="44.67478877864778041839599609375" lon="6.81504844687879085540771484375">
        <ele>2049.800048828125</ele>
        <time>2026-08-31T06:15:18.000Z</time>
        <extensions>
          <ns3:TrackPointExtension>
            <ns3:hr>143</ns3:hr>
            <ns3:cad>0</ns3:cad>
          </ns3:TrackPointExtension>
        </extensions>
      </trkpt>
      <trkpt lat="44.674793221056461334228515625" lon="6.8150393106043338775634765625">
        <ele>2050</ele>
        <time>2026-08-31T06:15:19.000Z</time>
        <extensions>
          <ns3:TrackPointExtension>
            <ns3:hr>144</ns3:hr>
            <ns3:cad>0</ns3:cad>
          </ns3:TrackPointExtension>
        </extensions>
      </trkpt>
      <trkpt lat="44.6747977472841739654541015625" lon="6.8150322698056697845458984375">
        <ele>2050.199951171875</ele>
        <time>2026-08-31T06:15:20.000Z</time>
        <extensions>
          <ns3:TrackPointExtension>
            <ns3:hr>144</ns3:hr>
            <ns3:cad>0</ns3:cad>
          </ns3:TrackPointExtension>
        </extensions>
      </trkpt>
      <trkpt lat="44.6747997589409351348876953125" lon="6.81502732448279857635498046875">
        <ele>2050.39990234375</ele>
        <time>2026-08-31T06:15:21.000Z</time>
        <extensions>
          <ns3:TrackPointExtension>
            <ns3:hr>144</ns3:hr>
            <ns3:cad>0</ns3:cad>
          </ns3:TrackPointExtension>
        </extensions>
      </trkpt>
      <trkpt lat="44.6748034469783306121826171875" lon="6.81502263061702251434326171875">
        <ele>2050.60009765625</ele>
        <time>2026-08-31T06:15:22.000Z</time>
        <extensions>
          <ns3:TrackPointExtension>
            <ns3:hr>145</ns3:hr>
            <ns3:cad>0</ns3:cad>
          </ns3:TrackPointExtension>
        </extensions>
      </trkpt>
      <trkpt lat="44.6748071350157260894775390625" lon="6.81501894257962703704833984375">
        <ele>2050.800048828125</ele>
        <time>2026-08-31T06:15:23.000Z</time>
        <extensions>
          <ns3:TrackPointExtension>
            <ns3:hr>145</ns3:hr>
            <ns3:cad>0</ns3:cad>
          </ns3:TrackPointExtension>
        </extensions>
      </trkpt>
      <trkpt lat="44.67481174506247043609619140625" lon="6.81501173414289951324462890625">
        <ele>2051.199951171875</ele>
        <time>2026-08-31T06:15:24.000Z</time>
        <extensions>
          <ns3:TrackPointExtension>
            <ns3:hr>145</ns3:hr>
            <ns3:cad>0</ns3:cad>
          </ns3:TrackPointExtension>
        </extensions>
      </trkpt>
      <trkpt lat="44.674821384251117706298828125" lon="6.81499882601201534271240234375">
        <ele>2051.39990234375</ele>
        <time>2026-08-31T06:15:25.000Z</time>
        <extensions>
          <ns3:TrackPointExtension>
            <ns3:hr>146</ns3:hr>
            <ns3:cad>0</ns3:cad>
          </ns3:TrackPointExtension>
        </extensions>
      </trkpt>
      <trkpt lat="44.6748309396207332611083984375" lon="6.81498860009014606475830078125">
        <ele>2051.60009765625</ele>
        <time>2026-08-31T06:15:26.000Z</time>
        <extensions>
          <ns3:TrackPointExtension>
            <ns3:hr>146</ns3:hr>
            <ns3:cad>0</ns3:cad>
          </ns3:TrackPointExtension>
        </extensions>
      </trkpt>
      <trkpt lat="44.67483756132423877716064453125" lon="6.8149819783866405487060546875">
        <ele>2052</ele>
        <time>2026-08-31T06:15:27.000Z</time>
        <extensions>
          <ns3:TrackPointExtension>
            <ns3:hr>147</ns3:hr>
            <ns3:cad>0</ns3:cad>
          </ns3:TrackPointExtension>
        </extensions>
      </trkpt>
      <trkpt lat="44.6748389862477779388427734375" lon="6.8149735964834690093994140625">
        <ele>2052.199951171875</ele>
        <time>2026-08-31T06:15:28.000Z</time>
        <extensions>
          <ns3:TrackPointExtension>
            <ns3:hr>147</ns3:hr>
            <ns3:cad>0</ns3:cad>
          </ns3:TrackPointExtension>
        </extensions>
      </trkpt>
      <trkpt lat="44.6748436801135540008544921875" lon="6.81496731005609035491943359375">
        <ele>2052.39990234375</ele>
        <time>2026-08-31T06:15:29.000Z</time>
        <extensions>
          <ns3:TrackPointExtension>
            <ns3:hr>148</ns3:hr>
            <ns3:cad>0</ns3:cad>
          </ns3:TrackPointExtension>
        </extensions>
      </trkpt>
      <trkpt lat="44.67484678141772747039794921875" lon="6.81496270000934600830078125">
        <ele>2052.39990234375</ele>
        <time>2026-08-31T06:15:30.000Z</time>
        <extensions>
          <ns3:TrackPointExtension>
            <ns3:hr>148</ns3:hr>
            <ns3:cad>0</ns3:cad>
          </ns3:TrackPointExtension>
        </extensions>
      </trkpt>
      <trkpt lat="44.67485524713993072509765625" lon="6.81496077217161655426025390625">
        <ele>2052.60009765625</ele>
        <time>2026-08-31T06:15:31.000Z</time>
        <extensions>
          <ns3:TrackPointExtension>
            <ns3:hr>149</ns3:hr>
            <ns3:cad>48</ns3:cad>
          </ns3:TrackPointExtension>
        </extensions>
      </trkpt>
      <trkpt lat="44.674860276281833648681640625" lon="6.8149621970951557159423828125">
        <ele>2052.800048828125</ele>
        <time>2026-08-31T06:15:32.000Z</time>
        <extensions>
          <ns3:TrackPointExtension>
            <ns3:hr>149</ns3:hr>
            <ns3:cad>48</ns3:cad>
          </ns3:TrackPointExtension>
        </extensions>
      </trkpt>
      <trkpt lat="44.67487142421305179595947265625" lon="6.81496596895158290863037109375">
        <ele>2053</ele>
        <time>2026-08-31T06:15:33.000Z</time>
        <extensions>
          <ns3:TrackPointExtension>
            <ns3:hr>149</ns3:hr>
            <ns3:cad>48</ns3:cad>
          </ns3:TrackPointExtension>
        </extensions>
      </trkpt>
      <trkpt lat="44.67488315887749195098876953125" lon="6.81496982462704181671142578125">
        <ele>2053.199951171875</ele>
        <time>2026-08-31T06:15:34.000Z</time>
        <extensions>
          <ns3:TrackPointExtension>
            <ns3:hr>149</ns3:hr>
            <ns3:cad>52</ns3:cad>
          </ns3:TrackPointExtension>
        </extensions>
      </trkpt>
      <trkpt lat="44.67489254660904407501220703125" lon="6.814975440502166748046875">
        <ele>2053.39990234375</ele>
        <time>2026-08-31T06:15:35.000Z</time>
        <extensions>
          <ns3:TrackPointExtension>
            <ns3:hr>150</ns3:hr>
            <ns3:cad>52</ns3:cad>
          </ns3:TrackPointExtension>
        </extensions>
      </trkpt>
      <trkpt lat="44.67489757575094699859619140625" lon="6.81498424150049686431884765625">
        <ele>2053.60009765625</ele>
        <time>2026-08-31T06:15:36.000Z</time>
        <extensions>
          <ns3:TrackPointExtension>
            <ns3:hr>150</ns3:hr>
            <ns3:cad>52</ns3:cad>
          </ns3:TrackPointExtension>
        </extensions>
      </trkpt>
      <trkpt lat="44.67490193434059619903564453125" lon="6.81499195285141468048095703125">
        <ele>2053.800048828125</ele>
        <time>2026-08-31T06:15:37.000Z</time>
        <extensions>
          <ns3:TrackPointExtension>
            <ns3:hr>150</ns3:hr>
            <ns3:cad>52</ns3:cad>
          </ns3:TrackPointExtension>
        </extensions>
      </trkpt>
      <trkpt lat="44.6749053709208965301513671875" lon="6.8150054477155208587646484375">
        <ele>2053.800048828125</ele>
        <time>2026-08-31T06:15:38.000Z</time>
        <extensions>
          <ns3:TrackPointExtension>
            <ns3:hr>151</ns3:hr>
            <ns3:cad>0</ns3:cad>
          </ns3:TrackPointExtension>
        </extensions>
      </trkpt>
      <trkpt lat="44.6749083884060382843017578125" lon="6.8150145001709461212158203125">
        <ele>2054</ele>
        <time>2026-08-31T06:15:39.000Z</time>
        <extensions>
          <ns3:TrackPointExtension>
            <ns3:hr>151</ns3:hr>
            <ns3:cad>0</ns3:cad>
          </ns3:TrackPointExtension>
        </extensions>
      </trkpt>
      <trkpt lat="44.67490947805345058441162109375" lon="6.8150269053876399993896484375">
        <ele>2054.199951171875</ele>
        <time>2026-08-31T06:15:40.000Z</time>
        <extensions>
          <ns3:TrackPointExtension>
            <ns3:hr>151</ns3:hr>
            <ns3:cad>0</ns3:cad>
          </ns3:TrackPointExtension>
        </extensions>
      </trkpt>
      <trkpt lat="44.67490796931087970733642578125" lon="6.8150362931191921234130859375">
        <ele>2054.39990234375</ele>
        <time>2026-08-31T06:15:41.000Z</time>
        <extensions>
          <ns3:TrackPointExtension>
            <ns3:hr>151</ns3:hr>
            <ns3:cad>0</ns3:cad>
          </ns3:TrackPointExtension>
        </extensions>
      </trkpt>
      <trkpt lat="44.67490813694894313812255859375" lon="6.81504827924072742462158203125">
        <ele>2054.60009765625</ele>
        <time>2026-08-31T06:15:42.000Z</time>
        <extensions>
          <ns3:TrackPointExtension>
            <ns3:hr>152</ns3:hr>
            <ns3:cad>77</ns3:cad>
          </ns3:TrackPointExtension>
        </extensions>
      </trkpt>
      <trkpt lat="44.67490847222506999969482421875" lon="6.81506169028580188751220703125">
        <ele>2054.800048828125</ele>
        <time>2026-08-31T06:15:43.000Z</time>
        <extensions>
          <ns3:TrackPointExtension>
            <ns3:hr>151</ns3:hr>
            <ns3:cad>77</ns3:cad>
          </ns3:TrackPointExtension>
        </extensions>
      </trkpt>
      <trkpt lat="44.6749090589582920074462890625" lon="6.81507443077862262725830078125">
        <ele>2055</ele>
        <time>2026-08-31T06:15:44.000Z</time>
        <extensions>
          <ns3:TrackPointExtension>
            <ns3:hr>151</ns3:hr>
            <ns3:cad>77</ns3:cad>
          </ns3:TrackPointExtension>
        </extensions>
      </trkpt>
      <trkpt lat="44.67490964569151401519775390625" lon="6.8150859139859676361083984375">
        <ele>2055</ele>
        <time>2026-08-31T06:15:45.000Z</time>
        <extensions>
          <ns3:TrackPointExtension>
            <ns3:hr>150</ns3:hr>
            <ns3:cad>52</ns3:cad>
          </ns3:TrackPointExtension>
        </extensions>
      </trkpt>
      <trkpt lat="44.67491090297698974609375" lon="6.81509790010750293731689453125">
        <ele>2055.199951171875</ele>
        <time>2026-08-31T06:15:46.000Z</time>
        <extensions>
          <ns3:TrackPointExtension>
            <ns3:hr>149</ns3:hr>
            <ns3:cad>52</ns3:cad>
          </ns3:TrackPointExtension>
        </extensions>
      </trkpt>
      <trkpt lat="44.67491023242473602294921875" lon="6.81511097587645053863525390625">
        <ele>2055.39990234375</ele>
        <time>2026-08-31T06:15:47.000Z</time>
        <extensions>
          <ns3:TrackPointExtension>
            <ns3:hr>149</ns3:hr>
            <ns3:cad>50</ns3:cad>
          </ns3:TrackPointExtension>
        </extensions>
      </trkpt>
      <trkpt lat="44.67490880750119686126708984375" lon="6.8151224590837955474853515625">
        <ele>2055.60009765625</ele>
        <time>2026-08-31T06:15:48.000Z</time>
        <extensions>
          <ns3:TrackPointExtension>
            <ns3:hr>149</ns3:hr>
            <ns3:cad>50</ns3:cad>
          </ns3:TrackPointExtension>
        </extensions>
      </trkpt>
      <trkpt lat="44.6748993359506130218505859375" lon="6.8151403963565826416015625">
        <ele>2055.800048828125</ele>
        <time>2026-08-31T06:15:49.000Z</time>
        <extensions>
          <ns3:TrackPointExtension>
            <ns3:hr>149</ns3:hr>
            <ns3:cad>52</ns3:cad>
          </ns3:TrackPointExtension>
        </extensions>
      </trkpt>
      <trkpt lat="44.674893133342266082763671875" lon="6.81515355594456195831298828125">
        <ele>2055.800048828125</ele>
        <time>2026-08-31T06:15:50.000Z</time>
        <extensions>
          <ns3:TrackPointExtension>
            <ns3:hr>149</ns3:hr>
            <ns3:cad>52</ns3:cad>
          </ns3:TrackPointExtension>
        </extensions>
      </trkpt>
      <trkpt lat="44.67489170841872692108154296875" lon="6.81517400778830051422119140625">
        <ele>2056</ele>
        <time>2026-08-31T06:15:51.000Z</time>
        <extensions>
          <ns3:TrackPointExtension>
            <ns3:hr>149</ns3:hr>
            <ns3:cad>52</ns3:cad>
          </ns3:TrackPointExtension>
        </extensions>
      </trkpt>
      <trkpt lat="44.67489271424710750579833984375" lon="6.81519043631851673126220703125">
        <ele>2056</ele>
        <time>2026-08-31T06:15:52.000Z</time>
        <extensions>
          <ns3:TrackPointExtension>
            <ns3:hr>149</ns3:hr>
            <ns3:cad>52</ns3:cad>
          </ns3:TrackPointExtension>
        </extensions>
      </trkpt>
      <trkpt lat="44.67489422298967838287353515625" lon="6.81520854122936725616455078125">
        <ele>2056.199951171875</ele>
        <time>2026-08-31T06:15:53.000Z</time>
        <extensions>
          <ns3:TrackPointExtension>
            <ns3:hr>149</ns3:hr>
            <ns3:cad>52</ns3:cad>
          </ns3:TrackPointExtension>
        </extensions>
      </trkpt>
      <trkpt lat="44.67489690519869327545166015625" lon="6.815219856798648834228515625">
        <ele>2056.39990234375</ele>
        <time>2026-08-31T06:15:54.000Z</time>
        <extensions>
          <ns3:TrackPointExtension>
            <ns3:hr>150</ns3:hr>
            <ns3:cad>52</ns3:cad>
          </ns3:TrackPointExtension>
        </extensions>
      </trkpt>
      <trkpt lat="44.674899168312549591064453125" lon="6.81523284874856472015380859375">
        <ele>2056.60009765625</ele>
        <time>2026-08-31T06:15:55.000Z</time>
        <extensions>
          <ns3:TrackPointExtension>
            <ns3:hr>150</ns3:hr>
            <ns3:cad>52</ns3:cad>
          </ns3:TrackPointExtension>
        </extensions>
      </trkpt>
      <trkpt lat="44.67490092851221561431884765625" lon="6.81524340994656085968017578125">
        <ele>2056.800048828125</ele>
        <time>2026-08-31T06:15:56.000Z</time>
        <extensions>
          <ns3:TrackPointExtension>
            <ns3:hr>151</ns3:hr>
            <ns3:cad>52</ns3:cad>
          </ns3:TrackPointExtension>
        </extensions>
      </trkpt>
      <trkpt lat="44.67490260489284992218017578125" lon="6.81525363586843013763427734375">
        <ele>2057</ele>
        <time>2026-08-31T06:15:57.000Z</time>
        <extensions>
          <ns3:TrackPointExtension>
            <ns3:hr>151</ns3:hr>
            <ns3:cad>52</ns3:cad>
          </ns3:TrackPointExtension>
        </extensions>
      </trkpt>
      <trkpt lat="44.6749040298163890838623046875" lon="6.81526604108512401580810546875">
        <ele>2057.199951171875</ele>
        <time>2026-08-31T06:15:58.000Z</time>
        <extensions>
          <ns3:TrackPointExtension>
            <ns3:hr>151</ns3:hr>
            <ns3:cad>52</ns3:cad>
          </ns3:TrackPointExtension>
        </extensions>
      </trkpt>
      <trkpt lat="44.6749033592641353607177734375" lon="6.81527442298829555511474609375">
        <ele>2057.39990234375</ele>
        <time>2026-08-31T06:15:59.000Z</time>
        <extensions>
          <ns3:TrackPointExtension>
            <ns3:hr>151</ns3:hr>
            <ns3:cad>0</ns3:cad>
          </ns3:TrackPointExtension>
        </extensions>
      </trkpt>
      <trkpt lat="44.6749030239880084991455078125" lon="6.81528615765273571014404296875">
        <ele>2057.60009765625</ele>
        <time>2026-08-31T06:16:00.000Z</time>
        <extensions>
          <ns3:TrackPointExtension>
            <ns3:hr>152</ns3:hr>
            <ns3:cad>0</ns3:cad>
          </ns3:TrackPointExtension>
        </extensions>
      </trkpt>
      <trkpt lat="44.67490352690219879150390625" lon="6.81529738940298557281494140625">
        <ele>2057.800048828125</ele>
        <time>2026-08-31T06:16:01.000Z</time>
        <extensions>
          <ns3:TrackPointExtension>
            <ns3:hr>152</ns3:hr>
            <ns3:cad>0</ns3:cad>
          </ns3:TrackPointExtension>
        </extensions>
      </trkpt>
      <trkpt lat="44.67490620911121368408203125" lon="6.8153107166290283203125">
        <ele>2058.199951171875</ele>
        <time>2026-08-31T06:16:02.000Z</time>
        <extensions>
          <ns3:TrackPointExtension>
            <ns3:hr>152</ns3:hr>
            <ns3:cad>0</ns3:cad>
          </ns3:TrackPointExtension>
        </extensions>
      </trkpt>
      <trkpt lat="44.6749077178537845611572265625" lon="6.81532588787376880645751953125">
        <ele>2058.39990234375</ele>
        <time>2026-08-31T06:16:03.000Z</time>
        <extensions>
          <ns3:TrackPointExtension>
            <ns3:hr>152</ns3:hr>
            <ns3:cad>0</ns3:cad>
          </ns3:TrackPointExtension>
        </extensions>
      </trkpt>
      <trkpt lat="44.67490755021572113037109375" lon="6.81533695198595523834228515625">
        <ele>2058.60009765625</ele>
        <time>2026-08-31T06:16:04.000Z</time>
        <extensions>
          <ns3:TrackPointExtension>
            <ns3:hr>152</ns3:hr>
            <ns3:cad>0</ns3:cad>
          </ns3:TrackPointExtension>
        </extensions>
      </trkpt>
      <trkpt lat="44.67490729875862598419189453125" lon="6.8153494410216808319091796875">
        <ele>2058.800048828125</ele>
        <time>2026-08-31T06:16:05.000Z</time>
        <extensions>
          <ns3:TrackPointExtension>
            <ns3:hr>153</ns3:hr>
            <ns3:cad>0</ns3:cad>
          </ns3:TrackPointExtension>
        </extensions>
      </trkpt>
      <trkpt lat="44.67490620911121368408203125" lon="6.81536193005740642547607421875">
        <ele>2059</ele>
        <time>2026-08-31T06:16:06.000Z</time>
        <extensions>
          <ns3:TrackPointExtension>
            <ns3:hr>153</ns3:hr>
            <ns3:cad>0</ns3:cad>
          </ns3:TrackPointExtension>
        </extensions>
      </trkpt>
      <trkpt lat="44.67490620911121368408203125" lon="6.81537483818829059600830078125">
        <ele>2059</ele>
        <time>2026-08-31T06:16:07.000Z</time>
        <extensions>
          <ns3:TrackPointExtension>
            <ns3:hr>153</ns3:hr>
            <ns3:cad>0</ns3:cad>
          </ns3:TrackPointExtension>
        </extensions>
      </trkpt>
      <trkpt lat="44.67491366900503635406494140625" lon="6.81538271717727184295654296875">
        <ele>2059.199951171875</ele>
        <time>2026-08-31T06:16:08.000Z</time>
        <extensions>
          <ns3:TrackPointExtension>
            <ns3:hr>153</ns3:hr>
            <ns3:cad>0</ns3:cad>
          </ns3:TrackPointExtension>
        </extensions>
      </trkpt>
      <trkpt lat="44.6749202907085418701171875" lon="6.81539914570748805999755859375">
        <ele>2059.39990234375</ele>
        <time>2026-08-31T06:16:09.000Z</time>
        <extensions>
          <ns3:TrackPointExtension>
            <ns3:hr>153</ns3:hr>
            <ns3:cad>0</ns3:cad>
          </ns3:TrackPointExtension>
        </extensions>
      </trkpt>
      <trkpt lat="44.6749202907085418701171875" lon="6.8154107965528964996337890625">
        <ele>2059.39990234375</ele>
        <time>2026-08-31T06:16:10.000Z</time>
        <extensions>
          <ns3:TrackPointExtension>
            <ns3:hr>153</ns3:hr>
            <ns3:cad>0</ns3:cad>
          </ns3:TrackPointExtension>
        </extensions>
      </trkpt>
      <trkpt lat="44.674915932118892669677734375" lon="6.8154242075979709625244140625">
        <ele>2059.60009765625</ele>
        <time>2026-08-31T06:16:11.000Z</time>
        <extensions>
          <ns3:TrackPointExtension>
            <ns3:hr>153</ns3:hr>
            <ns3:cad>0</ns3:cad>
          </ns3:TrackPointExtension>
        </extensions>
      </trkpt>
      <trkpt lat="44.6749144233763217926025390625" lon="6.815440468490123748779296875">
        <ele>2059.800048828125</ele>
        <time>2026-08-31T06:16:12.000Z</time>
        <extensions>
          <ns3:TrackPointExtension>
            <ns3:hr>152</ns3:hr>
            <ns3:cad>0</ns3:cad>
          </ns3:TrackPointExtension>
        </extensions>
      </trkpt>
      <trkpt lat="44.6749100647866725921630859375" lon="6.81545027531683444976806640625">
        <ele>2060</ele>
        <time>2026-08-31T06:16:13.000Z</time>
        <extensions>
          <ns3:TrackPointExtension>
            <ns3:hr>152</ns3:hr>
            <ns3:cad>0</ns3:cad>
          </ns3:TrackPointExtension>
        </extensions>
      </trkpt>
      <trkpt lat="44.674909226596355438232421875" lon="6.81546620093286037445068359375">
        <ele>2060.199951171875</ele>
        <time>2026-08-31T06:16:14.000Z</time>
        <extensions>
          <ns3:TrackPointExtension>
            <ns3:hr>153</ns3:hr>
            <ns3:cad>54</ns3:cad>
          </ns3:TrackPointExtension>
        </extensions>
      </trkpt>
      <trkpt lat="44.674911238253116607666015625" lon="6.815474331378936767578125">
        <ele>2060.39990234375</ele>
        <time>2026-08-31T06:16:15.000Z</time>
        <extensions>
          <ns3:TrackPointExtension>
            <ns3:hr>153</ns3:hr>
            <ns3:cad>54</ns3:cad>
          </ns3:TrackPointExtension>
        </extensions>
      </trkpt>
      <trkpt lat="44.67491199262440204620361328125" lon="6.815484054386615753173828125">
        <ele>2060.60009765625</ele>
        <time>2026-08-31T06:16:16.000Z</time>
        <extensions>
          <ns3:TrackPointExtension>
            <ns3:hr>153</ns3:hr>
            <ns3:cad>54</ns3:cad>
          </ns3:TrackPointExtension>
        </extensions>
      </trkpt>
      <trkpt lat="44.67491148971021175384521484375" lon="6.8154979683458805084228515625">
        <ele>2060.800048828125</ele>
        <time>2026-08-31T06:16:17.000Z</time>
        <extensions>
          <ns3:TrackPointExtension>
            <ns3:hr>153</ns3:hr>
            <ns3:cad>54</ns3:cad>
          </ns3:TrackPointExtension>
        </extensions>
      </trkpt>
      <trkpt lat="44.6749104000627994537353515625" lon="6.81550911627709865570068359375">
        <ele>2061</ele>
        <time>2026-08-31T06:16:18.000Z</time>
        <extensions>
          <ns3:TrackPointExtension>
            <ns3:hr>153</ns3:hr>
            <ns3:cad>54</ns3:cad>
          </ns3:TrackPointExtension>
        </extensions>
      </trkpt>
      <trkpt lat="44.674908556044101715087890625" lon="6.81552470661699771881103515625">
        <ele>2061.199951171875</ele>
        <time>2026-08-31T06:16:19.000Z</time>
        <extensions>
          <ns3:TrackPointExtension>
            <ns3:hr>154</ns3:hr>
            <ns3:cad>54</ns3:cad>
          </ns3:TrackPointExtension>
        </extensions>
      </trkpt>
      <trkpt lat="44.6749067120254039764404296875" lon="6.8155388720333576202392578125">
        <ele>2061.39990234375</ele>
        <time>2026-08-31T06:16:20.000Z</time>
        <extensions>
          <ns3:TrackPointExtension>
            <ns3:hr>154</ns3:hr>
            <ns3:cad>54</ns3:cad>
          </ns3:TrackPointExtension>
        </extensions>
      </trkpt>
      <trkpt lat="44.67490495182573795318603515625" lon="6.81555136106908321380615234375">
        <ele>2061.60009765625</ele>
        <time>2026-08-31T06:16:21.000Z</time>
        <extensions>
          <ns3:TrackPointExtension>
            <ns3:hr>154</ns3:hr>
            <ns3:cad>0</ns3:cad>
          </ns3:TrackPointExtension>
        </extensions>
      </trkpt>
      <trkpt lat="44.67490394599735736846923828125" lon="6.8155646882951259613037109375">
        <ele>2061.800048828125</ele>
        <time>2026-08-31T06:16:22.000Z</time>
        <extensions>
          <ns3:TrackPointExtension>
            <ns3:hr>154</ns3:hr>
            <ns3:cad>0</ns3:cad>
          </ns3:TrackPointExtension>
        </extensions>
      </trkpt>
      <trkpt lat="44.67490092851221561431884765625" lon="6.81557684205472469329833984375">
        <ele>2062</ele>
        <time>2026-08-31T06:16:23.000Z</time>
        <extensions>
          <ns3:TrackPointExtension>
            <ns3:hr>154</ns3:hr>
            <ns3:cad>0</ns3:cad>
          </ns3:TrackPointExtension>
        </extensions>
      </trkpt>
      <trkpt lat="44.67489807866513729095458984375" lon="6.81559109129011631011962890625">
        <ele>2062.199951171875</ele>
        <time>2026-08-31T06:16:24.000Z</time>
        <extensions>
          <ns3:TrackPointExtension>
            <ns3:hr>154</ns3:hr>
            <ns3:cad>0</ns3:cad>
          </ns3:TrackPointExtension>
        </extensions>
      </trkpt>
      <trkpt lat="44.67489413917064666748046875" lon="6.81560433469712734222412109375">
        <ele>2062.39990234375</ele>
        <time>2026-08-31T06:16:25.000Z</time>
        <extensions>
          <ns3:TrackPointExtension>
            <ns3:hr>155</ns3:hr>
            <ns3:cad>0</ns3:cad>
          </ns3:TrackPointExtension>
        </extensions>
      </trkpt>
      <trkpt lat="44.6748907864093780517578125" lon="6.8156226910650730133056640625">
        <ele>2062.60009765625</ele>
        <time>2026-08-31T06:16:26.000Z</time>
        <extensions>
          <ns3:TrackPointExtension>
            <ns3:hr>155</ns3:hr>
            <ns3:cad>0</ns3:cad>
          </ns3:TrackPointExtension>
        </extensions>
      </trkpt>
      <trkpt lat="44.67488500289618968963623046875" lon="6.81563593447208404541015625">
        <ele>2062.800048828125</ele>
        <time>2026-08-31T06:16:27.000Z</time>
        <extensions>
          <ns3:TrackPointExtension>
            <ns3:hr>155</ns3:hr>
            <ns3:cad>0</ns3:cad>
          </ns3:TrackPointExtension>
        </extensions>
      </trkpt>
      <trkpt lat="44.6748802252113819122314453125" lon="6.81565110571682453155517578125">
        <ele>2063</ele>
        <time>2026-08-31T06:16:28.000Z</time>
        <extensions>
          <ns3:TrackPointExtension>
            <ns3:hr>155</ns3:hr>
            <ns3:cad>0</ns3:cad>
          </ns3:TrackPointExtension>
        </extensions>
      </trkpt>
      <trkpt lat="44.674878381192684173583984375" lon="6.81566116400063037872314453125">
        <ele>2063</ele>
        <time>2026-08-31T06:16:29.000Z</time>
        <extensions>
          <ns3:TrackPointExtension>
            <ns3:hr>155</ns3:hr>
            <ns3:cad>0</ns3:cad>
          </ns3:TrackPointExtension>
        </extensions>
      </trkpt>
      <trkpt lat="44.67486723326146602630615234375" lon="6.81567155756056308746337890625">
        <ele>2063.199951171875</ele>
        <time>2026-08-31T06:16:30.000Z</time>
        <extensions>
          <ns3:TrackPointExtension>
            <ns3:hr>154</ns3:hr>
            <ns3:cad>0</ns3:cad>
          </ns3:TrackPointExtension>
        </extensions>
      </trkpt>
      <trkpt lat="44.6748658083379268646240234375" lon="6.81569066829979419708251953125">
        <ele>2063.39990234375</ele>
        <time>2026-08-31T06:16:31.000Z</time>
        <extensions>
          <ns3:TrackPointExtension>
            <ns3:hr>154</ns3:hr>
            <ns3:cad>0</ns3:cad>
          </ns3:TrackPointExtension>
        </extensions>
      </trkpt>
      <trkpt lat="44.67486438341438770294189453125" lon="6.81569318287074565887451171875">
        <ele>2063.60009765625</ele>
        <time>2026-08-31T06:16:32.000Z</time>
        <extensions>
          <ns3:TrackPointExtension>
            <ns3:hr>154</ns3:hr>
            <ns3:cad>0</ns3:cad>
          </ns3:TrackPointExtension>
        </extensions>
      </trkpt>
      <trkpt lat="44.67486941255629062652587890625" lon="6.81569117121398448944091796875">
        <ele>2063.800048828125</ele>
        <time>2026-08-31T06:16:33.000Z</time>
        <extensions>
          <ns3:TrackPointExtension>
            <ns3:hr>154</ns3:hr>
            <ns3:cad>0</ns3:cad>
          </ns3:TrackPointExtension>
        </extensions>
      </trkpt>
      <trkpt lat="44.67487008310854434967041015625" lon="6.815689913928508758544921875">
        <ele>2064</ele>
        <time>2026-08-31T06:16:34.000Z</time>
        <extensions>
          <ns3:TrackPointExtension>
            <ns3:hr>154</ns3:hr>
            <ns3:cad>0</ns3:cad>
          </ns3:TrackPointExtension>
        </extensions>
      </trkpt>
      <trkpt lat="44.67487226240336894989013671875" lon="6.81568245403468608856201171875">
        <ele>2064.199951171875</ele>
        <time>2026-08-31T06:16:35.000Z</time>
        <extensions>
          <ns3:TrackPointExtension>
            <ns3:hr>155</ns3:hr>
            <ns3:cad>0</ns3:cad>
          </ns3:TrackPointExtension>
        </extensions>
      </trkpt>
      <trkpt lat="44.67487477697432041168212890625" lon="6.8156768381595611572265625">
        <ele>2064.39990234375</ele>
        <time>2026-08-31T06:16:36.000Z</time>
        <extensions>
          <ns3:TrackPointExtension>
            <ns3:hr>154</ns3:hr>
            <ns3:cad>0</ns3:cad>
          </ns3:TrackPointExtension>
        </extensions>
      </trkpt>
      <trkpt lat="44.67487745918333530426025390625" lon="6.815670467913150787353515625">
        <ele>2064.60009765625</ele>
        <time>2026-08-31T06:16:37.000Z</time>
        <extensions>
          <ns3:TrackPointExtension>
            <ns3:hr>154</ns3:hr>
            <ns3:cad>0</ns3:cad>
          </ns3:TrackPointExtension>
        </extensions>
      </trkpt>
      <trkpt lat="44.67488785274326801300048828125" lon="6.81565797887742519378662109375">
        <ele>2064.800048828125</ele>
        <time>2026-08-31T06:16:38.000Z</time>
        <extensions>
          <ns3:TrackPointExtension>
            <ns3:hr>154</ns3:hr>
            <ns3:cad>0</ns3:cad>
          </ns3:TrackPointExtension>
        </extensions>
      </trkpt>
      <trkpt lat="44.67489003203809261322021484375" lon="6.81565194390714168548583984375">
        <ele>2065</ele>
        <time>2026-08-31T06:16:39.000Z</time>
        <extensions>
          <ns3:TrackPointExtension>
            <ns3:hr>154</ns3:hr>
            <ns3:cad>0</ns3:cad>
          </ns3:TrackPointExtension>
        </extensions>
      </trkpt>
      <trkpt lat="44.6748996712267398834228515625" lon="6.8156414665281772613525390625">
        <ele>2065.199951171875</ele>
        <time>2026-08-31T06:16:40.000Z</time>
        <extensions>
          <ns3:TrackPointExtension>
            <ns3:hr>154</ns3:hr>
            <ns3:cad>0</ns3:cad>
          </ns3:TrackPointExtension>
        </extensions>
      </trkpt>
      <trkpt lat="44.67490696348249912261962890625" lon="6.8156354315578937530517578125">
        <ele>2065.39990234375</ele>
        <time>2026-08-31T06:16:41.000Z</time>
        <extensions>
          <ns3:TrackPointExtension>
            <ns3:hr>154</ns3:hr>
            <ns3:cad>0</ns3:cad>
          </ns3:TrackPointExtension>
        </extensions>
      </trkpt>
      <trkpt lat="44.67491425573825836181640625" lon="6.8156277202069759368896484375">
        <ele>2065.60009765625</ele>
        <time>2026-08-31T06:16:42.000Z</time>
        <extensions>
          <ns3:TrackPointExtension>
            <ns3:hr>154</ns3:hr>
            <ns3:cad>0</ns3:cad>
          </ns3:TrackPointExtension>
        </extensions>
      </trkpt>
      <trkpt lat="44.67491936869919300079345703125" lon="6.8156196735799312591552734375">
        <ele>2065.800048828125</ele>
        <time>2026-08-31T06:16:43.000Z</time>
        <extensions>
          <ns3:TrackPointExtension>
            <ns3:hr>155</ns3:hr>
            <ns3:cad>52</ns3:cad>
          </ns3:TrackPointExtension>
        </extensions>
      </trkpt>
      <trkpt lat="44.674925990402698516845703125" lon="6.81560768745839595794677734375">
        <ele>2066</ele>
        <time>2026-08-31T06:16:44.000Z</time>
        <extensions>
          <ns3:TrackPointExtension>
            <ns3:hr>154</ns3:hr>
            <ns3:cad>52</ns3:cad>
          </ns3:TrackPointExtension>
        </extensions>
      </trkpt>
      <trkpt lat="44.6749331988394260406494140625" lon="6.8155963718891143798828125">
        <ele>2066.199951171875</ele>
        <time>2026-08-31T06:16:45.000Z</time>
        <extensions>
          <ns3:TrackPointExtension>
            <ns3:hr>154</ns3:hr>
            <ns3:cad>52</ns3:cad>
          </ns3:TrackPointExtension>
        </extensions>
      </trkpt>
      <trkpt lat="44.67493965290486812591552734375" lon="6.815587989985942840576171875">
        <ele>2066.39990234375</ele>
        <time>2026-08-31T06:16:46.000Z</time>
        <extensions>
          <ns3:TrackPointExtension>
            <ns3:hr>154</ns3:hr>
            <ns3:cad>52</ns3:cad>
          </ns3:TrackPointExtension>
        </extensions>
      </trkpt>
      <trkpt lat="44.67494585551321506500244140625" lon="6.81557868607342243194580078125">
        <ele>2066.39990234375</ele>
        <time>2026-08-31T06:16:47.000Z</time>
        <extensions>
          <ns3:TrackPointExtension>
            <ns3:hr>154</ns3:hr>
            <ns3:cad>52</ns3:cad>
          </ns3:TrackPointExtension>
        </extensions>
      </trkpt>
      <trkpt lat="44.674951471388339996337890625" lon="6.81557231582701206207275390625">
        <ele>2066.60009765625</ele>
        <time>2026-08-31T06:16:48.000Z</time>
        <extensions>
          <ns3:TrackPointExtension>
            <ns3:hr>154</ns3:hr>
            <ns3:cad>51</ns3:cad>
          </ns3:TrackPointExtension>
        </extensions>
      </trkpt>
      <trkpt lat="44.6749570034444332122802734375" lon="6.8155633471906185150146484375">
        <ele>2066.800048828125</ele>
        <time>2026-08-31T06:16:49.000Z</time>
        <extensions>
          <ns3:TrackPointExtension>
            <ns3:hr>153</ns3:hr>
            <ns3:cad>51</ns3:cad>
          </ns3:TrackPointExtension>
        </extensions>
      </trkpt>
      <trkpt lat="44.67496161349117755889892578125" lon="6.815555803477764129638671875">
        <ele>2067</ele>
        <time>2026-08-31T06:16:50.000Z</time>
        <extensions>
          <ns3:TrackPointExtension>
            <ns3:hr>153</ns3:hr>
            <ns3:cad>0</ns3:cad>
          </ns3:TrackPointExtension>
        </extensions>
      </trkpt>
      <trkpt lat="44.67496815137565135955810546875" lon="6.81554482318460941314697265625">
        <ele>2067.199951171875</ele>
        <time>2026-08-31T06:16:51.000Z</time>
        <extensions>
          <ns3:TrackPointExtension>
            <ns3:hr>153</ns3:hr>
            <ns3:cad>0</ns3:cad>
          </ns3:TrackPointExtension>
        </extensions>
      </trkpt>
      <trkpt lat="44.674973599612712860107421875" lon="6.815534345805644989013671875">
        <ele>2067.199951171875</ele>
        <time>2026-08-31T06:16:52.000Z</time>
        <extensions>
          <ns3:TrackPointExtension>
            <ns3:hr>154</ns3:hr>
            <ns3:cad>0</ns3:cad>
          </ns3:TrackPointExtension>
        </extensions>
      </trkpt>
      <trkpt lat="44.6749801374971866607666015625" lon="6.81552202440798282623291015625">
        <ele>2067.60009765625</ele>
        <time>2026-08-31T06:16:53.000Z</time>
        <extensions>
          <ns3:TrackPointExtension>
            <ns3:hr>154</ns3:hr>
            <ns3:cad>0</ns3:cad>
          </ns3:TrackPointExtension>
        </extensions>
      </trkpt>
      <trkpt lat="44.67498525045812129974365234375" lon="6.81551045738160610198974609375">
        <ele>2067.60009765625</ele>
        <time>2026-08-31T06:16:54.000Z</time>
        <extensions>
          <ns3:TrackPointExtension>
            <ns3:hr>154</ns3:hr>
            <ns3:cad>0</ns3:cad>
          </ns3:TrackPointExtension>
        </extensions>
      </trkpt>
      <trkpt lat="44.67498935759067535400390625" lon="6.81549855507910251617431640625">
        <ele>2067.800048828125</ele>
        <time>2026-08-31T06:16:55.000Z</time>
        <extensions>
          <ns3:TrackPointExtension>
            <ns3:hr>155</ns3:hr>
            <ns3:cad>0</ns3:cad>
          </ns3:TrackPointExtension>
        </extensions>
      </trkpt>
      <trkpt lat="44.67499497346580028533935546875" lon="6.81549000553786754608154296875">
        <ele>2068</ele>
        <time>2026-08-31T06:16:56.000Z</time>
        <extensions>
          <ns3:TrackPointExtension>
            <ns3:hr>155</ns3:hr>
            <ns3:cad>0</ns3:cad>
          </ns3:TrackPointExtension>
        </extensions>
      </trkpt>
      <trkpt lat="44.67500209808349609375" lon="6.815478689968585968017578125">
        <ele>2068.199951171875</ele>
        <time>2026-08-31T06:16:57.000Z</time>
        <extensions>
          <ns3:TrackPointExtension>
            <ns3:hr>155</ns3:hr>
            <ns3:cad>0</ns3:cad>
          </ns3:TrackPointExtension>
        </extensions>
      </trkpt>
      <trkpt lat="44.6750113181769847869873046875" lon="6.81546502746641635894775390625">
        <ele>2068.39990234375</ele>
        <time>2026-08-31T06:16:58.000Z</time>
        <extensions>
          <ns3:TrackPointExtension>
            <ns3:hr>155</ns3:hr>
            <ns3:cad>0</ns3:cad>
          </ns3:TrackPointExtension>
        </extensions>
      </trkpt>
      <trkpt lat="44.6750233881175518035888671875" lon="6.81546988897025585174560546875">
        <ele>2068.60009765625</ele>
        <time>2026-08-31T06:16:59.000Z</time>
        <extensions>
          <ns3:TrackPointExtension>
            <ns3:hr>155</ns3:hr>
            <ns3:cad>0</ns3:cad>
          </ns3:TrackPointExtension>
        </extensions>
      </trkpt>
      <trkpt lat="44.675027914345264434814453125" lon="6.8154651112854480743408203125">
        <ele>2068.60009765625</ele>
        <time>2026-08-31T06:17:00.000Z</time>
        <extensions>
          <ns3:TrackPointExtension>
            <ns3:hr>154</ns3:hr>
            <ns3:cad>0</ns3:cad>
          </ns3:TrackPointExtension>
        </extensions>
      </trkpt>
      <trkpt lat="44.67503520660102367401123046875" lon="6.8154500238597393035888671875">
        <ele>2069</ele>
        <time>2026-08-31T06:17:01.000Z</time>
        <extensions>
          <ns3:TrackPointExtension>
            <ns3:hr>155</ns3:hr>
            <ns3:cad>0</ns3:cad>
          </ns3:TrackPointExtension>
        </extensions>
      </trkpt>
      <trkpt lat="44.67504124157130718231201171875" lon="6.8154381215572357177734375">
        <ele>2069.199951171875</ele>
        <time>2026-08-31T06:17:02.000Z</time>
        <extensions>
          <ns3:TrackPointExtension>
            <ns3:hr>154</ns3:hr>
            <ns3:cad>0</ns3:cad>
          </ns3:TrackPointExtension>
        </extensions>
      </trkpt>
      <trkpt lat="44.67505096457898616790771484375" lon="6.815422363579273223876953125">
        <ele>2069.39990234375</ele>
        <time>2026-08-31T06:17:03.000Z</time>
        <extensions>
          <ns3:TrackPointExtension>
            <ns3:hr>154</ns3:hr>
            <ns3:cad>0</ns3:cad>
          </ns3:TrackPointExtension>
        </extensions>
      </trkpt>
      <trkpt lat="44.67505917884409427642822265625" lon="6.8154141493141651153564453125">
        <ele>2069.60009765625</ele>
        <time>2026-08-31T06:17:04.000Z</time>
        <extensions>
          <ns3:TrackPointExtension>
            <ns3:hr>154</ns3:hr>
            <ns3:cad>0</ns3:cad>
          </ns3:TrackPointExtension>
        </extensions>
      </trkpt>
      <trkpt lat="44.6750666387379169464111328125" lon="6.81540124118328094482421875">
        <ele>2069.800048828125</ele>
        <time>2026-08-31T06:17:05.000Z</time>
        <extensions>
          <ns3:TrackPointExtension>
            <ns3:hr>153</ns3:hr>
            <ns3:cad>0</ns3:cad>
          </ns3:TrackPointExtension>
        </extensions>
      </trkpt>
      <trkpt lat="44.67507191933691501617431640625" lon="6.81539176963269710540771484375">
        <ele>2069.800048828125</ele>
        <time>2026-08-31T06:17:06.000Z</time>
        <extensions>
          <ns3:TrackPointExtension>
            <ns3:hr>153</ns3:hr>
            <ns3:cad>0</ns3:cad>
          </ns3:TrackPointExtension>
        </extensions>
      </trkpt>
      <trkpt lat="44.67507409863173961639404296875" lon="6.81538992561399936676025390625">
        <ele>2070</ele>
        <time>2026-08-31T06:17:07.000Z</time>
        <extensions>
          <ns3:TrackPointExtension>
            <ns3:hr>153</ns3:hr>
            <ns3:cad>0</ns3:cad>
          </ns3:TrackPointExtension>
        </extensions>
      </trkpt>
      <trkpt lat="44.675080887973308563232421875" lon="6.8153812922537326812744140625">
        <ele>2070.199951171875</ele>
        <time>2026-08-31T06:17:08.000Z</time>
        <extensions>
          <ns3:TrackPointExtension>
            <ns3:hr>153</ns3:hr>
            <ns3:cad>0</ns3:cad>
          </ns3:TrackPointExtension>
        </extensions>
      </trkpt>
      <trkpt lat="44.67508348636329174041748046875" lon="6.8153765983879566192626953125">
        <ele>2070.39990234375</ele>
        <time>2026-08-31T06:17:09.000Z</time>
        <extensions>
          <ns3:TrackPointExtension>
            <ns3:hr>153</ns3:hr>
            <ns3:cad>0</ns3:cad>
          </ns3:TrackPointExtension>
        </extensions>
      </trkpt>
      <trkpt lat="44.67509471811354160308837890625" lon="6.8153675459325313568115234375">
        <ele>2070.60009765625</ele>
        <time>2026-08-31T06:17:10.000Z</time>
        <extensions>
          <ns3:TrackPointExtension>
            <ns3:hr>153</ns3:hr>
            <ns3:cad>0</ns3:cad>
          </ns3:TrackPointExtension>
        </extensions>
      </trkpt>
      <trkpt lat="44.67510075308382511138916015625" lon="6.81536058895289897918701171875">
        <ele>2070.800048828125</ele>
        <time>2026-08-31T06:17:11.000Z</time>
        <extensions>
          <ns3:TrackPointExtension>
            <ns3:hr>154</ns3:hr>
            <ns3:cad>0</ns3:cad>
          </ns3:TrackPointExtension>
        </extensions>
      </trkpt>
      <trkpt lat="44.67510997317731380462646484375" lon="6.81534566916525363922119140625">
        <ele>2071</ele>
        <time>2026-08-31T06:17:12.000Z</time>
        <extensions>
          <ns3:TrackPointExtension>
            <ns3:hr>153</ns3:hr>
            <ns3:cad>0</ns3:cad>
          </ns3:TrackPointExtension>
        </extensions>
      </trkpt>
      <trkpt lat="44.67511718161404132843017578125" lon="6.81533678434789180755615234375">
        <ele>2071.199951171875</ele>
        <time>2026-08-31T06:17:13.000Z</time>
        <extensions>
          <ns3:TrackPointExtension>
            <ns3:hr>153</ns3:hr>
            <ns3:cad>0</ns3:cad>
          </ns3:TrackPointExtension>
        </extensions>
      </trkpt>
      <trkpt lat="44.67511885799467563629150390625" lon="6.81533309631049633026123046875">
        <ele>2071.39990234375</ele>
        <time>2026-08-31T06:17:14.000Z</time>
        <extensions>
          <ns3:TrackPointExtension>
            <ns3:hr>154</ns3:hr>
            <ns3:cad>0</ns3:cad>
          </ns3:TrackPointExtension>
        </extensions>
      </trkpt>
      <trkpt lat="44.67512623406946659088134765625" lon="6.81532119400799274444580078125">
        <ele>2071.60009765625</ele>
        <time>2026-08-31T06:17:15.000Z</time>
        <extensions>
          <ns3:TrackPointExtension>
            <ns3:hr>154</ns3:hr>
            <ns3:cad>0</ns3:cad>
          </ns3:TrackPointExtension>
        </extensions>
      </trkpt>
      <trkpt lat="44.675129167735576629638671875" lon="6.815311722457408905029296875">
        <ele>2071.800048828125</ele>
        <time>2026-08-31T06:17:16.000Z</time>
        <extensions>
          <ns3:TrackPointExtension>
            <ns3:hr>155</ns3:hr>
            <ns3:cad>0</ns3:cad>
          </ns3:TrackPointExtension>
        </extensions>
      </trkpt>
      <trkpt lat="44.67514065094292163848876953125" lon="6.81529722176492214202880859375">
        <ele>2072</ele>
        <time>2026-08-31T06:17:17.000Z</time>
        <extensions>
          <ns3:TrackPointExtension>
            <ns3:hr>156</ns3:hr>
            <ns3:cad>0</ns3:cad>
          </ns3:TrackPointExtension>
        </extensions>
      </trkpt>
      <trkpt lat="44.67514484189450740814208984375" lon="6.81528867222368717193603515625">
        <ele>2072</ele>
        <time>2026-08-31T06:17:18.000Z</time>
        <extensions>
          <ns3:TrackPointExtension>
            <ns3:hr>156</ns3:hr>
            <ns3:cad>0</ns3:cad>
          </ns3:TrackPointExtension>
        </extensions>
      </trkpt>
      <trkpt lat="44.6751524694263935089111328125" lon="6.81527308188378810882568359375">
        <ele>2072.199951171875</ele>
        <time>2026-08-31T06:17:19.000Z</time>
        <extensions>
          <ns3:TrackPointExtension>
            <ns3:hr>156</ns3:hr>
            <ns3:cad>0</ns3:cad>
          </ns3:TrackPointExtension>
        </extensions>
      </trkpt>
      <trkpt lat="44.6751601807773113250732421875" lon="6.81526243686676025390625">
        <ele>2072.39990234375</ele>
        <time>2026-08-31T06:17:20.000Z</time>
        <extensions>
          <ns3:TrackPointExtension>
            <ns3:hr>155</ns3:hr>
            <ns3:cad>0</ns3:cad>
          </ns3:TrackPointExtension>
        </extensions>
      </trkpt>
      <trkpt lat="44.6751643717288970947265625" lon="6.81525581516325473785400390625">
        <ele>2072.60009765625</ele>
        <time>2026-08-31T06:17:21.000Z</time>
        <extensions>
          <ns3:TrackPointExtension>
            <ns3:hr>156</ns3:hr>
            <ns3:cad>0</ns3:cad>
          </ns3:TrackPointExtension>
        </extensions>
      </trkpt>
      <trkpt lat="44.67517099343240261077880859375" lon="6.81524592451751232147216796875">
        <ele>2072.800048828125</ele>
        <time>2026-08-31T06:17:22.000Z</time>
        <extensions>
          <ns3:TrackPointExtension>
            <ns3:hr>156</ns3:hr>
            <ns3:cad>0</ns3:cad>
          </ns3:TrackPointExtension>
        </extensions>
      </trkpt>
      <trkpt lat="44.67517702840268611907958984375" lon="6.8152434937655925750732421875">
        <ele>2073</ele>
        <time>2026-08-31T06:17:23.000Z</time>
        <extensions>
          <ns3:TrackPointExtension>
            <ns3:hr>155</ns3:hr>
            <ns3:cad>0</ns3:cad>
          </ns3:TrackPointExtension>
        </extensions>
      </trkpt>
      <trkpt lat="44.67518624849617481231689453125" lon="6.81523854844272136688232421875">
        <ele>2073.199951171875</ele>
        <time>2026-08-31T06:17:24.000Z</time>
        <extensions>
          <ns3:TrackPointExtension>
            <ns3:hr>155</ns3:hr>
            <ns3:cad>0</ns3:cad>
          </ns3:TrackPointExtension>
        </extensions>
      </trkpt>
      <trkpt lat="44.675194211304187774658203125" lon="6.8152327649295330047607421875">
        <ele>2073.39990234375</ele>
        <time>2026-08-31T06:17:25.000Z</time>
        <extensions>
          <ns3:TrackPointExtension>
            <ns3:hr>155</ns3:hr>
            <ns3:cad>0</ns3:cad>
          </ns3:TrackPointExtension>
        </extensions>
      </trkpt>
      <trkpt lat="44.67519991099834442138671875" lon="6.81522647850215435028076171875">
        <ele>2073.60009765625</ele>
        <time>2026-08-31T06:17:26.000Z</time>
        <extensions>
          <ns3:TrackPointExtension>
            <ns3:hr>155</ns3:hr>
            <ns3:cad>0</ns3:cad>
          </ns3:TrackPointExtension>
        </extensions>
      </trkpt>
      <trkpt lat="44.67520770616829395294189453125" lon="6.81522463448345661163330078125">
        <ele>2073.800048828125</ele>
        <time>2026-08-31T06:17:27.000Z</time>
        <extensions>
          <ns3:TrackPointExtension>
            <ns3:hr>155</ns3:hr>
            <ns3:cad>0</ns3:cad>
          </ns3:TrackPointExtension>
        </extensions>
      </trkpt>
      <trkpt lat="44.67521290294826030731201171875" lon="6.81522421538829803466796875">
        <ele>2074</ele>
        <time>2026-08-31T06:17:28.000Z</time>
        <extensions>
          <ns3:TrackPointExtension>
            <ns3:hr>155</ns3:hr>
            <ns3:cad>0</ns3:cad>
          </ns3:TrackPointExtension>
        </extensions>
      </trkpt>
      <trkpt lat="44.6752215363085269927978515625" lon="6.81522027589380741119384765625">
        <ele>2074.199951171875</ele>
        <time>2026-08-31T06:17:29.000Z</time>
        <extensions>
          <ns3:TrackPointExtension>
            <ns3:hr>155</ns3:hr>
            <ns3:cad>0</ns3:cad>
          </ns3:TrackPointExtension>
        </extensions>
      </trkpt>
      <trkpt lat="44.67522799037396907806396484375" lon="6.81521373800933361053466796875">
        <ele>2074.39990234375</ele>
        <time>2026-08-31T06:17:30.000Z</time>
        <extensions>
          <ns3:TrackPointExtension>
            <ns3:hr>154</ns3:hr>
            <ns3:cad>0</ns3:cad>
          </ns3:TrackPointExtension>
        </extensions>
      </trkpt>
      <trkpt lat="44.67523838393390178680419921875" lon="6.8152106367051601409912109375">
        <ele>2074.60009765625</ele>
        <time>2026-08-31T06:17:31.000Z</time>
        <extensions>
          <ns3:TrackPointExtension>
            <ns3:hr>154</ns3:hr>
            <ns3:cad>0</ns3:cad>
          </ns3:TrackPointExtension>
        </extensions>
      </trkpt>
      <trkpt lat="44.6752470172941684722900390625" lon="6.81520409882068634033203125">
        <ele>2074.800048828125</ele>
        <time>2026-08-31T06:17:32.000Z</time>
        <extensions>
          <ns3:TrackPointExtension>
            <ns3:hr>154</ns3:hr>
            <ns3:cad>0</ns3:cad>
          </ns3:TrackPointExtension>
        </extensions>
      </trkpt>
      <trkpt lat="44.67525447718799114227294921875" lon="6.81519915349781513214111328125">
        <ele>2075</ele>
        <time>2026-08-31T06:17:33.000Z</time>
        <extensions>
          <ns3:TrackPointExtension>
            <ns3:hr>154</ns3:hr>
            <ns3:cad>0</ns3:cad>
          </ns3:TrackPointExtension>
        </extensions>
      </trkpt>
      <trkpt lat="44.675265289843082427978515625" lon="6.81519479490816593170166015625">
        <ele>2075.199951171875</ele>
        <time>2026-08-31T06:17:34.000Z</time>
        <extensions>
          <ns3:TrackPointExtension>
            <ns3:hr>154</ns3:hr>
            <ns3:cad>0</ns3:cad>
          </ns3:TrackPointExtension>
        </extensions>
      </trkpt>
      <trkpt lat="44.67526989988982677459716796875" lon="6.81519295088946819305419921875">
        <ele>2075.39990234375</ele>
        <time>2026-08-31T06:17:35.000Z</time>
        <extensions>
          <ns3:TrackPointExtension>
            <ns3:hr>154</ns3:hr>
            <ns3:cad>0</ns3:cad>
          </ns3:TrackPointExtension>
        </extensions>
      </trkpt>
      <trkpt lat="44.67527710832655429840087890625" lon="6.81518825702369213104248046875">
        <ele>2075.60009765625</ele>
        <time>2026-08-31T06:17:36.000Z</time>
        <extensions>
          <ns3:TrackPointExtension>
            <ns3:hr>154</ns3:hr>
            <ns3:cad>0</ns3:cad>
          </ns3:TrackPointExtension>
        </extensions>
      </trkpt>
      <trkpt lat="44.67527995817363262176513671875" lon="6.81518708355724811553955078125">
        <ele>2075.800048828125</ele>
        <time>2026-08-31T06:17:37.000Z</time>
        <extensions>
          <ns3:TrackPointExtension>
            <ns3:hr>153</ns3:hr>
            <ns3:cad>0</ns3:cad>
          </ns3:TrackPointExtension>
        </extensions>
      </trkpt>
      <trkpt lat="44.6752845682203769683837890625" lon="6.8151764385402202606201171875">
        <ele>2076</ele>
        <time>2026-08-31T06:17:38.000Z</time>
        <extensions>
          <ns3:TrackPointExtension>
            <ns3:hr>153</ns3:hr>
            <ns3:cad>0</ns3:cad>
          </ns3:TrackPointExtension>
        </extensions>
      </trkpt>
      <trkpt lat="44.67529152520000934600830078125" lon="6.81517048738896846771240234375">
        <ele>2076.199951171875</ele>
        <time>2026-08-31T06:17:39.000Z</time>
        <extensions>
          <ns3:TrackPointExtension>
            <ns3:hr>153</ns3:hr>
            <ns3:cad>0</ns3:cad>
          </ns3:TrackPointExtension>
        </extensions>
      </trkpt>
      <trkpt lat="44.675299488008022308349609375" lon="6.81516445241868495941162109375">
        <ele>2076.39990234375</ele>
        <time>2026-08-31T06:17:40.000Z</time>
        <extensions>
          <ns3:TrackPointExtension>
            <ns3:hr>153</ns3:hr>
            <ns3:cad>0</ns3:cad>
          </ns3:TrackPointExtension>
        </extensions>
      </trkpt>
      <trkpt lat="44.67530828900635242462158203125" lon="6.81516294367611408233642578125">
        <ele>2076.60009765625</ele>
        <time>2026-08-31T06:17:41.000Z</time>
        <extensions>
          <ns3:TrackPointExtension>
            <ns3:hr>153</ns3:hr>
            <ns3:cad>0</ns3:cad>
          </ns3:TrackPointExtension>
        </extensions>
      </trkpt>
      <trkpt lat="44.67531449161469936370849609375" lon="6.81515707634389400482177734375">
        <ele>2076.800048828125</ele>
        <time>2026-08-31T06:17:42.000Z</time>
        <extensions>
          <ns3:TrackPointExtension>
            <ns3:hr>153</ns3:hr>
            <ns3:cad>0</ns3:cad>
          </ns3:TrackPointExtension>
        </extensions>
      </trkpt>
      <trkpt lat="44.67532999813556671142578125" lon="6.8151519633829593658447265625">
        <ele>2077</ele>
        <time>2026-08-31T06:17:43.000Z</time>
        <extensions>
          <ns3:TrackPointExtension>
            <ns3:hr>153</ns3:hr>
            <ns3:cad>0</ns3:cad>
          </ns3:TrackPointExtension>
        </extensions>
      </trkpt>
      <trkpt lat="44.6753365360200405120849609375" lon="6.81514299474656581878662109375">
        <ele>2077</ele>
        <time>2026-08-31T06:17:44.000Z</time>
        <extensions>
          <ns3:TrackPointExtension>
            <ns3:hr>153</ns3:hr>
            <ns3:cad>0</ns3:cad>
          </ns3:TrackPointExtension>
        </extensions>
      </trkpt>
      <trkpt lat="44.67534718103706836700439453125" lon="6.81513830088078975677490234375">
        <ele>2077.199951171875</ele>
        <time>2026-08-31T06:17:45.000Z</time>
        <extensions>
          <ns3:TrackPointExtension>
            <ns3:hr>153</ns3:hr>
            <ns3:cad>0</ns3:cad>
          </ns3:TrackPointExtension>
        </extensions>
      </trkpt>
      <trkpt lat="44.67535438947379589080810546875" lon="6.81512975133955478668212890625">
        <ele>2077.39990234375</ele>
        <time>2026-08-31T06:17:46.000Z</time>
        <extensions>
          <ns3:TrackPointExtension>
            <ns3:hr>154</ns3:hr>
            <ns3:cad>0</ns3:cad>
          </ns3:TrackPointExtension>
        </extensions>
      </trkpt>
      <trkpt lat="44.67536478303372859954833984375" lon="6.815121956169605255126953125">
        <ele>2077.60009765625</ele>
        <time>2026-08-31T06:17:47.000Z</time>
        <extensions>
          <ns3:TrackPointExtension>
            <ns3:hr>154</ns3:hr>
            <ns3:cad>0</ns3:cad>
          </ns3:TrackPointExtension>
        </extensions>
      </trkpt>
      <trkpt lat="44.67537366785109043121337890625" lon="6.81511416099965572357177734375">
        <ele>2077.800048828125</ele>
        <time>2026-08-31T06:17:48.000Z</time>
        <extensions>
          <ns3:TrackPointExtension>
            <ns3:hr>154</ns3:hr>
            <ns3:cad>0</ns3:cad>
          </ns3:TrackPointExtension>
        </extensions>
      </trkpt>
      <trkpt lat="44.67537953518331050872802734375" lon="6.81510142050683498382568359375">
        <ele>2077.800048828125</ele>
        <time>2026-08-31T06:17:49.000Z</time>
        <extensions>
          <ns3:TrackPointExtension>
            <ns3:hr>155</ns3:hr>
            <ns3:cad>0</ns3:cad>
          </ns3:TrackPointExtension>
        </extensions>
      </trkpt>
      <trkpt lat="44.675387330353260040283203125" lon="6.815093457698822021484375">
        <ele>2078</ele>
        <time>2026-08-31T06:17:50.000Z</time>
        <extensions>
          <ns3:TrackPointExtension>
            <ns3:hr>154</ns3:hr>
            <ns3:cad>0</ns3:cad>
          </ns3:TrackPointExtension>
        </extensions>
      </trkpt>
      <trkpt lat="44.67539261095225811004638671875" lon="6.8150875903666019439697265625">
        <ele>2078.199951171875</ele>
        <time>2026-08-31T06:17:51.000Z</time>
        <extensions>
          <ns3:TrackPointExtension>
            <ns3:hr>154</ns3:hr>
            <ns3:cad>0</ns3:cad>
          </ns3:TrackPointExtension>
        </extensions>
      </trkpt>
      <trkpt lat="44.67540333978831768035888671875" lon="6.8150894343852996826171875">
        <ele>2078.39990234375</ele>
        <time>2026-08-31T06:17:52.000Z</time>
        <extensions>
          <ns3:TrackPointExtension>
            <ns3:hr>154</ns3:hr>
            <ns3:cad>0</ns3:cad>
          </ns3:TrackPointExtension>
        </extensions>
      </trkpt>
      <trkpt lat="44.67540912330150604248046875" lon="6.81508650071918964385986328125">
        <ele>2078.60009765625</ele>
        <time>2026-08-31T06:17:53.000Z</time>
        <extensions>
          <ns3:TrackPointExtension>
            <ns3:hr>154</ns3:hr>
            <ns3:cad>0</ns3:cad>
          </ns3:TrackPointExtension>
        </extensions>
      </trkpt>
      <trkpt lat="44.6754096262156963348388671875" lon="6.81508650071918964385986328125">
        <ele>2078.60009765625</ele>
        <time>2026-08-31T06:17:54.000Z</time>
        <extensions>
          <ns3:TrackPointExtension>
            <ns3:hr>153</ns3:hr>
            <ns3:cad>0</ns3:cad>
          </ns3:TrackPointExtension>
        </extensions>
      </trkpt>
      <trkpt lat="44.675414152443408966064453125" lon="6.81508851237595081329345703125">
        <ele>2078.800048828125</ele>
        <time>2026-08-31T06:17:55.000Z</time>
        <extensions>
          <ns3:TrackPointExtension>
            <ns3:hr>153</ns3:hr>
            <ns3:cad>0</ns3:cad>
          </ns3:TrackPointExtension>
        </extensions>
      </trkpt>
      <trkpt lat="44.67541515827178955078125" lon="6.81509018875658512115478515625">
        <ele>2078.800048828125</ele>
        <time>2026-08-31T06:17:56.000Z</time>
        <extensions>
          <ns3:TrackPointExtension>
            <ns3:hr>152</ns3:hr>
            <ns3:cad>0</ns3:cad>
          </ns3:TrackPointExtension>
        </extensions>
      </trkpt>
      <trkpt lat="44.6754166670143604278564453125" lon="6.81509136222302913665771484375">
        <ele>2078.800048828125</ele>
        <time>2026-08-31T06:17:57.000Z</time>
        <extensions>
          <ns3:TrackPointExtension>
            <ns3:hr>151</ns3:hr>
            <ns3:cad>0</ns3:cad>
          </ns3:TrackPointExtension>
        </extensions>
      </trkpt>
      <trkpt lat="44.6754183433949947357177734375" lon="6.815093457698822021484375">
        <ele>2078.800048828125</ele>
        <time>2026-08-31T06:17:58.000Z</time>
        <extensions>
          <ns3:TrackPointExtension>
            <ns3:hr>150</ns3:hr>
            <ns3:cad>0</ns3:cad>
          </ns3:TrackPointExtension>
        </extensions>
      </trkpt>
      <trkpt lat="44.6754156611859798431396484375" lon="6.81509815156459808349609375">
        <ele>2078.800048828125</ele>
        <time>2026-08-31T06:17:59.000Z</time>
        <extensions>
          <ns3:TrackPointExtension>
            <ns3:hr>150</ns3:hr>
            <ns3:cad>0</ns3:cad>
          </ns3:TrackPointExtension>
        </extensions>
      </trkpt>
      <trkpt lat="44.67541758902370929718017578125" lon="6.81509840302169322967529296875">
        <ele>2078.800048828125</ele>
        <time>2026-08-31T06:18:00.000Z</time>
        <extensions>
          <ns3:TrackPointExtension>
            <ns3:hr>149</ns3:hr>
            <ns3:cad>0</ns3:cad>
          </ns3:TrackPointExtension>
        </extensions>
      </trkpt>
      <trkpt lat="44.67542127706110477447509765625" lon="6.81509924121201038360595703125">
        <ele>2078.800048828125</ele>
        <time>2026-08-31T06:18:01.000Z</time>
        <extensions>
          <ns3:TrackPointExtension>
            <ns3:hr>149</ns3:hr>
            <ns3:cad>0</ns3:cad>
          </ns3:TrackPointExtension>
        </extensions>
      </trkpt>
      <trkpt lat="44.67542278580367565155029296875" lon="6.81509949266910552978515625">
        <ele>2078.800048828125</ele>
        <time>2026-08-31T06:18:02.000Z</time>
        <extensions>
          <ns3:TrackPointExtension>
            <ns3:hr>149</ns3:hr>
            <ns3:cad>0</ns3:cad>
          </ns3:TrackPointExtension>
        </extensions>
      </trkpt>
      <trkpt lat="44.675422869622707366943359375" lon="6.81510192342102527618408203125">
        <ele>2078.800048828125</ele>
        <time>2026-08-31T06:18:03.000Z</time>
        <extensions>
          <ns3:TrackPointExtension>
            <ns3:hr>149</ns3:hr>
            <ns3:cad>0</ns3:cad>
          </ns3:TrackPointExtension>
        </extensions>
      </trkpt>
      <trkpt lat="44.67542278580367565155029296875" lon="6.81510276161134243011474609375">
        <ele>2078.800048828125</ele>
        <time>2026-08-31T06:18:04.000Z</time>
        <extensions>
          <ns3:TrackPointExtension>
            <ns3:hr>149</ns3:hr>
            <ns3:cad>0</ns3:cad>
          </ns3:TrackPointExtension>
        </extensions>
      </trkpt>
      <trkpt lat="44.67542228288948535919189453125" lon="6.81510376743972301483154296875">
        <ele>2078.800048828125</ele>
        <time>2026-08-31T06:18:05.000Z</time>
        <extensions>
          <ns3:TrackPointExtension>
            <ns3:hr>149</ns3:hr>
            <ns3:cad>0</ns3:cad>
          </ns3:TrackPointExtension>
        </extensions>
      </trkpt>
      <trkpt lat="44.67542261816561222076416015625" lon="6.81510376743972301483154296875">
        <ele>2079</ele>
        <time>2026-08-31T06:18:06.000Z</time>
        <extensions>
          <ns3:TrackPointExtension>
            <ns3:hr>148</ns3:hr>
            <ns3:cad>0</ns3:cad>
          </ns3:TrackPointExtension>
        </extensions>
      </trkpt>
      <trkpt lat="44.6754243783652782440185546875" lon="6.81510594673454761505126953125">
        <ele>2079</ele>
        <time>2026-08-31T06:18:07.000Z</time>
        <extensions>
          <ns3:TrackPointExtension>
            <ns3:hr>149</ns3:hr>
            <ns3:cad>0</ns3:cad>
          </ns3:TrackPointExtension>
        </extensions>
      </trkpt>
      <trkpt lat="44.67542815022170543670654296875" lon="6.81510561145842075347900390625">
        <ele>2079</ele>
        <time>2026-08-31T06:18:08.000Z</time>
        <extensions>
          <ns3:TrackPointExtension>
            <ns3:hr>150</ns3:hr>
            <ns3:cad>0</ns3:cad>
          </ns3:TrackPointExtension>
        </extensions>
      </trkpt>
      <trkpt lat="44.67543368227779865264892578125" lon="6.81510745547711849212646484375">
        <ele>2079</ele>
        <time>2026-08-31T06:18:09.000Z</time>
        <extensions>
          <ns3:TrackPointExtension>
            <ns3:hr>151</ns3:hr>
            <ns3:cad>0</ns3:cad>
          </ns3:TrackPointExtension>
        </extensions>
      </trkpt>
      <trkpt lat="44.67543317936360836029052734375" lon="6.81510888040065765380859375">
        <ele>2079</ele>
        <time>2026-08-31T06:18:10.000Z</time>
        <extensions>
          <ns3:TrackPointExtension>
            <ns3:hr>152</ns3:hr>
            <ns3:cad>0</ns3:cad>
          </ns3:TrackPointExtension>
        </extensions>
      </trkpt>
      <trkpt lat="44.67543384991586208343505859375" lon="6.8151130713522434234619140625">
        <ele>2079</ele>
        <time>2026-08-31T06:18:11.000Z</time>
        <extensions>
          <ns3:TrackPointExtension>
            <ns3:hr>152</ns3:hr>
            <ns3:cad>0</ns3:cad>
          </ns3:TrackPointExtension>
        </extensions>
      </trkpt>
      <trkpt lat="44.67543401755392551422119140625" lon="6.815113909542560577392578125">
        <ele>2079</ele>
        <time>2026-08-31T06:18:12.000Z</time>
        <extensions>
          <ns3:TrackPointExtension>
            <ns3:hr>152</ns3:hr>
            <ns3:cad>0</ns3:cad>
          </ns3:TrackPointExtension>
        </extensions>
      </trkpt>
      <trkpt lat="44.67543317936360836029052734375" lon="6.81511634029448032379150390625">
        <ele>2079</ele>
        <time>2026-08-31T06:18:13.000Z</time>
        <extensions>
          <ns3:TrackPointExtension>
            <ns3:hr>152</ns3:hr>
            <ns3:cad>0</ns3:cad>
          </ns3:TrackPointExtension>
        </extensions>
      </trkpt>
      <trkpt lat="44.6754324249923229217529296875" lon="6.81511826813220977783203125">
        <ele>2079</ele>
        <time>2026-08-31T06:18:14.000Z</time>
        <extensions>
          <ns3:TrackPointExtension>
            <ns3:hr>151</ns3:hr>
            <ns3:cad>0</ns3:cad>
          </ns3:TrackPointExtension>
        </extensions>
      </trkpt>
      <trkpt lat="44.67543167062103748321533203125" lon="6.81512086652219295501708984375">
        <ele>2079</ele>
        <time>2026-08-31T06:18:15.000Z</time>
        <extensions>
          <ns3:TrackPointExtension>
            <ns3:hr>150</ns3:hr>
            <ns3:cad>0</ns3:cad>
          </ns3:TrackPointExtension>
        </extensions>
      </trkpt>
      <trkpt lat="44.67542815022170543670654296875" lon="6.815121285617351531982421875">
        <ele>2079</ele>
        <time>2026-08-31T06:18:16.000Z</time>
        <extensions>
          <ns3:TrackPointExtension>
            <ns3:hr>150</ns3:hr>
            <ns3:cad>0</ns3:cad>
          </ns3:TrackPointExtension>
        </extensions>
      </trkpt>
      <trkpt lat="44.6754230372607707977294921875" lon="6.81512354873120784759521484375">
        <ele>2079</ele>
        <time>2026-08-31T06:18:17.000Z</time>
        <extensions>
          <ns3:TrackPointExtension>
            <ns3:hr>150</ns3:hr>
            <ns3:cad>0</ns3:cad>
          </ns3:TrackPointExtension>
        </extensions>
      </trkpt>
      <trkpt lat="44.67542094178497791290283203125" lon="6.815122626721858978271484375">
        <ele>2079</ele>
        <time>2026-08-31T06:18:18.000Z</time>
        <extensions>
          <ns3:TrackPointExtension>
            <ns3:hr>150</ns3:hr>
            <ns3:cad>0</ns3:cad>
          </ns3:TrackPointExtension>
        </extensions>
      </trkpt>
      <trkpt lat="44.67541825957596302032470703125" lon="6.81512086652219295501708984375">
        <ele>2079</ele>
        <time>2026-08-31T06:18:19.000Z</time>
        <extensions>
          <ns3:TrackPointExtension>
            <ns3:hr>151</ns3:hr>
            <ns3:cad>0</ns3:cad>
          </ns3:TrackPointExtension>
        </extensions>
      </trkpt>
      <trkpt lat="44.67541775666177272796630859375" lon="6.8151174299418926239013671875">
        <ele>2079</ele>
        <time>2026-08-31T06:18:20.000Z</time>
        <extensions>
          <ns3:TrackPointExtension>
            <ns3:hr>151</ns3:hr>
            <ns3:cad>0</ns3:cad>
          </ns3:TrackPointExtension>
        </extensions>
      </trkpt>
      <trkpt lat="44.675414822995662689208984375" lon="6.815113238990306854248046875">
        <ele>2079</ele>
        <time>2026-08-31T06:18:21.000Z</time>
        <extensions>
          <ns3:TrackPointExtension>
            <ns3:hr>152</ns3:hr>
            <ns3:cad>0</ns3:cad>
          </ns3:TrackPointExtension>
        </extensions>
      </trkpt>
      <trkpt lat="44.6754138171672821044921875" lon="6.815113238990306854248046875">
        <ele>2079</ele>
        <time>2026-08-31T06:18:22.000Z</time>
        <extensions>
          <ns3:TrackPointExtension>
            <ns3:hr>152</ns3:hr>
            <ns3:cad>0</ns3:cad>
          </ns3:TrackPointExtension>
        </extensions>
      </trkpt>
      <trkpt lat="44.67541524209082126617431640625" lon="6.81511114351451396942138671875">
        <ele>2079</ele>
        <time>2026-08-31T06:18:23.000Z</time>
        <extensions>
          <ns3:TrackPointExtension>
            <ns3:hr>151</ns3:hr>
            <ns3:cad>0</ns3:cad>
          </ns3:TrackPointExtension>
        </extensions>
      </trkpt>
      <trkpt lat="44.67541440390050411224365234375" lon="6.81510292924940586090087890625">
        <ele>2079</ele>
        <time>2026-08-31T06:18:24.000Z</time>
        <extensions>
          <ns3:TrackPointExtension>
            <ns3:hr>150</ns3:hr>
            <ns3:cad>0</ns3:cad>
          </ns3:TrackPointExtension>
        </extensions>
      </trkpt>
      <trkpt lat="44.67541339807212352752685546875" lon="6.81510058231651782989501953125">
        <ele>2079</ele>
        <time>2026-08-31T06:18:25.000Z</time>
        <extensions>
          <ns3:TrackPointExtension>
            <ns3:hr>150</ns3:hr>
            <ns3:cad>0</ns3:cad>
          </ns3:TrackPointExtension>
        </extensions>
      </trkpt>
      <trkpt lat="44.67541339807212352752685546875" lon="6.81509706191718578338623046875">
        <ele>2079</ele>
        <time>2026-08-31T06:18:26.000Z</time>
        <extensions>
          <ns3:TrackPointExtension>
            <ns3:hr>150</ns3:hr>
            <ns3:cad>0</ns3:cad>
          </ns3:TrackPointExtension>
        </extensions>
      </trkpt>
      <trkpt lat="44.67541725374758243560791015625" lon="6.81509790010750293731689453125">
        <ele>2079</ele>
        <time>2026-08-31T06:18:27.000Z</time>
        <extensions>
          <ns3:TrackPointExtension>
            <ns3:hr>149</ns3:hr>
            <ns3:cad>0</ns3:cad>
          </ns3:TrackPointExtension>
        </extensions>
      </trkpt>
      <trkpt lat="44.6754191815853118896484375" lon="6.8150974810123443603515625">
        <ele>2079</ele>
        <time>2026-08-31T06:18:28.000Z</time>
        <extensions>
          <ns3:TrackPointExtension>
            <ns3:hr>149</ns3:hr>
            <ns3:cad>0</ns3:cad>
          </ns3:TrackPointExtension>
        </extensions>
      </trkpt>
      <trkpt lat="44.67542119324207305908203125" lon="6.81510242633521556854248046875">
        <ele>2079</ele>
        <time>2026-08-31T06:18:29.000Z</time>
        <extensions>
          <ns3:TrackPointExtension>
            <ns3:hr>149</ns3:hr>
            <ns3:cad>0</ns3:cad>
          </ns3:TrackPointExtension>
        </extensions>
      </trkpt>
      <trkpt lat="44.6754216961562633514404296875" lon="6.81510795839130878448486328125">
        <ele>2079.199951171875</ele>
        <time>2026-08-31T06:18:30.000Z</time>
        <extensions>
          <ns3:TrackPointExtension>
            <ns3:hr>148</ns3:hr>
            <ns3:cad>0</ns3:cad>
          </ns3:TrackPointExtension>
        </extensions>
      </trkpt>
      <trkpt lat="44.67542228288948535919189453125" lon="6.8151135742664337158203125">
        <ele>2079.199951171875</ele>
        <time>2026-08-31T06:18:31.000Z</time>
        <extensions>
          <ns3:TrackPointExtension>
            <ns3:hr>147</ns3:hr>
            <ns3:cad>0</ns3:cad>
          </ns3:TrackPointExtension>
        </extensions>
      </trkpt>
      <trkpt lat="44.675424210727214813232421875" lon="6.815119273960590362548828125">
        <ele>2079.39990234375</ele>
        <time>2026-08-31T06:18:32.000Z</time>
        <extensions>
          <ns3:TrackPointExtension>
            <ns3:hr>147</ns3:hr>
            <ns3:cad>0</ns3:cad>
          </ns3:TrackPointExtension>
        </extensions>
      </trkpt>
      <trkpt lat="44.675426892936229705810546875" lon="6.8151298351585865020751953125">
        <ele>2079.60009765625</ele>
        <time>2026-08-31T06:18:33.000Z</time>
        <extensions>
          <ns3:TrackPointExtension>
            <ns3:hr>147</ns3:hr>
            <ns3:cad>0</ns3:cad>
          </ns3:TrackPointExtension>
        </extensions>
      </trkpt>
      <trkpt lat="44.6754272282123565673828125" lon="6.81513863615691661834716796875">
        <ele>2079.800048828125</ele>
        <time>2026-08-31T06:18:34.000Z</time>
        <extensions>
          <ns3:TrackPointExtension>
            <ns3:hr>146</ns3:hr>
            <ns3:cad>0</ns3:cad>
          </ns3:TrackPointExtension>
        </extensions>
      </trkpt>
      <trkpt lat="44.67542865313589572906494140625" lon="6.81514014489948749542236328125">
        <ele>2080.199951171875</ele>
        <time>2026-08-31T06:18:35.000Z</time>
        <extensions>
          <ns3:TrackPointExtension>
            <ns3:hr>146</ns3:hr>
            <ns3:cad>0</ns3:cad>
          </ns3:TrackPointExtension>
        </extensions>
      </trkpt>
      <trkpt lat="44.67542664147913455963134765625" lon="6.81514752097427845001220703125">
        <ele>2080.39990234375</ele>
        <time>2026-08-31T06:18:36.000Z</time>
        <extensions>
          <ns3:TrackPointExtension>
            <ns3:hr>145</ns3:hr>
            <ns3:cad>0</ns3:cad>
          </ns3:TrackPointExtension>
        </extensions>
      </trkpt>
      <trkpt lat="44.6754300780594348907470703125" lon="6.81516252458095550537109375">
        <ele>2080.800048828125</ele>
        <time>2026-08-31T06:18:37.000Z</time>
        <extensions>
          <ns3:TrackPointExtension>
            <ns3:hr>144</ns3:hr>
            <ns3:cad>51</ns3:cad>
          </ns3:TrackPointExtension>
        </extensions>
      </trkpt>
      <trkpt lat="44.675431586802005767822265625" lon="6.815171577036380767822265625">
        <ele>2081</ele>
        <time>2026-08-31T06:18:38.000Z</time>
        <extensions>
          <ns3:TrackPointExtension>
            <ns3:hr>143</ns3:hr>
            <ns3:cad>51</ns3:cad>
          </ns3:TrackPointExtension>
        </extensions>
      </trkpt>
      <trkpt lat="44.6754325926303863525390625" lon="6.8151878379285335540771484375">
        <ele>2081.199951171875</ele>
        <time>2026-08-31T06:18:39.000Z</time>
        <extensions>
          <ns3:TrackPointExtension>
            <ns3:hr>143</ns3:hr>
            <ns3:cad>51</ns3:cad>
          </ns3:TrackPointExtension>
        </extensions>
      </trkpt>
      <trkpt lat="44.67543267644941806793212890625" lon="6.8152015842497348785400390625">
        <ele>2081.199951171875</ele>
        <time>2026-08-31T06:18:40.000Z</time>
        <extensions>
          <ns3:TrackPointExtension>
            <ns3:hr>142</ns3:hr>
            <ns3:cad>51</ns3:cad>
          </ns3:TrackPointExtension>
        </extensions>
      </trkpt>
      <trkpt lat="44.675433933734893798828125" lon="6.8152176775038242340087890625">
        <ele>2081.39990234375</ele>
        <time>2026-08-31T06:18:41.000Z</time>
        <extensions>
          <ns3:TrackPointExtension>
            <ns3:hr>141</ns3:hr>
            <ns3:cad>51</ns3:cad>
          </ns3:TrackPointExtension>
        </extensions>
      </trkpt>
      <trkpt lat="44.67543452046811580657958984375" lon="6.8152310885488986968994140625">
        <ele>2081.60009765625</ele>
        <time>2026-08-31T06:18:42.000Z</time>
        <extensions>
          <ns3:TrackPointExtension>
            <ns3:hr>141</ns3:hr>
            <ns3:cad>51</ns3:cad>
          </ns3:TrackPointExtension>
        </extensions>
      </trkpt>
      <trkpt lat="44.67543326318264007568359375" lon="6.81524659506976604461669921875">
        <ele>2081.800048828125</ele>
        <time>2026-08-31T06:18:43.000Z</time>
        <extensions>
          <ns3:TrackPointExtension>
            <ns3:hr>140</ns3:hr>
            <ns3:cad>0</ns3:cad>
          </ns3:TrackPointExtension>
        </extensions>
      </trkpt>
      <trkpt lat="44.67543133534491062164306640625" lon="6.81526335887610912322998046875">
        <ele>2082</ele>
        <time>2026-08-31T06:18:44.000Z</time>
        <extensions>
          <ns3:TrackPointExtension>
            <ns3:hr>140</ns3:hr>
            <ns3:cad>0</ns3:cad>
          </ns3:TrackPointExtension>
        </extensions>
      </trkpt>
      <trkpt lat="44.67543058097362518310546875" lon="6.815278530120849609375">
        <ele>2082.199951171875</ele>
        <time>2026-08-31T06:18:45.000Z</time>
        <extensions>
          <ns3:TrackPointExtension>
            <ns3:hr>139</ns3:hr>
            <ns3:cad>0</ns3:cad>
          </ns3:TrackPointExtension>
        </extensions>
      </trkpt>
      <trkpt lat="44.675430245697498321533203125" lon="6.81529319845139980316162109375">
        <ele>2082.39990234375</ele>
        <time>2026-08-31T06:18:46.000Z</time>
        <extensions>
          <ns3:TrackPointExtension>
            <ns3:hr>139</ns3:hr>
            <ns3:cad>0</ns3:cad>
          </ns3:TrackPointExtension>
        </extensions>
      </trkpt>
      <trkpt lat="44.67542949132621288299560546875" lon="6.8153040111064910888671875">
        <ele>2082.39990234375</ele>
        <time>2026-08-31T06:18:47.000Z</time>
        <extensions>
          <ns3:TrackPointExtension>
            <ns3:hr>139</ns3:hr>
            <ns3:cad>0</ns3:cad>
          </ns3:TrackPointExtension>
        </extensions>
      </trkpt>
      <trkpt lat="44.67543234117329120635986328125" lon="6.8153192661702632904052734375">
        <ele>2082.60009765625</ele>
        <time>2026-08-31T06:18:48.000Z</time>
        <extensions>
          <ns3:TrackPointExtension>
            <ns3:hr>140</ns3:hr>
            <ns3:cad>0</ns3:cad>
          </ns3:TrackPointExtension>
        </extensions>
      </trkpt>
      <trkpt lat="44.6754317544400691986083984375" lon="6.8153353594243526458740234375">
        <ele>2082.800048828125</ele>
        <time>2026-08-31T06:18:49.000Z</time>
        <extensions>
          <ns3:TrackPointExtension>
            <ns3:hr>141</ns3:hr>
            <ns3:cad>0</ns3:cad>
          </ns3:TrackPointExtension>
        </extensions>
      </trkpt>
      <trkpt lat="44.67543167062103748321533203125" lon="6.81535287760198116302490234375">
        <ele>2083.199951171875</ele>
        <time>2026-08-31T06:18:50.000Z</time>
        <extensions>
          <ns3:TrackPointExtension>
            <ns3:hr>141</ns3:hr>
            <ns3:cad>0</ns3:cad>
          </ns3:TrackPointExtension>
        </extensions>
      </trkpt>
      <trkpt lat="44.675431586802005767822265625" lon="6.8153672106564044952392578125">
        <ele>2083.39990234375</ele>
        <time>2026-08-31T06:18:51.000Z</time>
        <extensions>
          <ns3:TrackPointExtension>
            <ns3:hr>142</ns3:hr>
            <ns3:cad>0</ns3:cad>
          </ns3:TrackPointExtension>
        </extensions>
      </trkpt>
      <trkpt lat="44.675428904592990875244140625" lon="6.81537064723670482635498046875">
        <ele>2083.60009765625</ele>
        <time>2026-08-31T06:18:52.000Z</time>
        <extensions>
          <ns3:TrackPointExtension>
            <ns3:hr>142</ns3:hr>
            <ns3:cad>0</ns3:cad>
          </ns3:TrackPointExtension>
        </extensions>
      </trkpt>
      <trkpt lat="44.675423540174961090087890625" lon="6.81539118289947509765625">
        <ele>2083.800048828125</ele>
        <time>2026-08-31T06:18:53.000Z</time>
        <extensions>
          <ns3:TrackPointExtension>
            <ns3:hr>143</ns3:hr>
            <ns3:cad>0</ns3:cad>
          </ns3:TrackPointExtension>
        </extensions>
      </trkpt>
      <trkpt lat="44.67542177997529506683349609375" lon="6.8154014088213443756103515625">
        <ele>2084</ele>
        <time>2026-08-31T06:18:54.000Z</time>
        <extensions>
          <ns3:TrackPointExtension>
            <ns3:hr>143</ns3:hr>
            <ns3:cad>0</ns3:cad>
          </ns3:TrackPointExtension>
        </extensions>
      </trkpt>
      <trkpt lat="44.6754200197756290435791015625" lon="6.8154193460941314697265625">
        <ele>2084.199951171875</ele>
        <time>2026-08-31T06:18:55.000Z</time>
        <extensions>
          <ns3:TrackPointExtension>
            <ns3:hr>144</ns3:hr>
            <ns3:cad>0</ns3:cad>
          </ns3:TrackPointExtension>
        </extensions>
      </trkpt>
      <trkpt lat="44.67541574500501155853271484375" lon="6.81542982347309589385986328125">
        <ele>2084.39990234375</ele>
        <time>2026-08-31T06:18:56.000Z</time>
        <extensions>
          <ns3:TrackPointExtension>
            <ns3:hr>144</ns3:hr>
            <ns3:cad>0</ns3:cad>
          </ns3:TrackPointExtension>
        </extensions>
      </trkpt>
      <trkpt lat="44.675409458577632904052734375" lon="6.81544323451817035675048828125">
        <ele>2084.60009765625</ele>
        <time>2026-08-31T06:18:57.000Z</time>
        <extensions>
          <ns3:TrackPointExtension>
            <ns3:hr>145</ns3:hr>
            <ns3:cad>0</ns3:cad>
          </ns3:TrackPointExtension>
        </extensions>
      </trkpt>
      <trkpt lat="44.67540719546377658843994140625" lon="6.81545329280197620391845703125">
        <ele>2084.800048828125</ele>
        <time>2026-08-31T06:18:58.000Z</time>
        <extensions>
          <ns3:TrackPointExtension>
            <ns3:hr>145</ns3:hr>
            <ns3:cad>0</ns3:cad>
          </ns3:TrackPointExtension>
        </extensions>
      </trkpt>
      <trkpt lat="44.67540635727345943450927734375" lon="6.81545932777225971221923828125">
        <ele>2085</ele>
        <time>2026-08-31T06:18:59.000Z</time>
        <extensions>
          <ns3:TrackPointExtension>
            <ns3:hr>146</ns3:hr>
            <ns3:cad>0</ns3:cad>
          </ns3:TrackPointExtension>
        </extensions>
      </trkpt>
      <trkpt lat="44.67540434561669826507568359375" lon="6.81547123007476329803466796875">
        <ele>2085.199951171875</ele>
        <time>2026-08-31T06:19:00.000Z</time>
        <extensions>
          <ns3:TrackPointExtension>
            <ns3:hr>146</ns3:hr>
            <ns3:cad>0</ns3:cad>
          </ns3:TrackPointExtension>
        </extensions>
      </trkpt>
      <trkpt lat="44.6754022501409053802490234375" lon="6.81547793559730052947998046875">
        <ele>2085.39990234375</ele>
        <time>2026-08-31T06:19:01.000Z</time>
        <extensions>
          <ns3:TrackPointExtension>
            <ns3:hr>147</ns3:hr>
            <ns3:cad>0</ns3:cad>
          </ns3:TrackPointExtension>
        </extensions>
      </trkpt>
      <trkpt lat="44.67539881356060504913330078125" lon="6.81549587287008762359619140625">
        <ele>2085.60009765625</ele>
        <time>2026-08-31T06:19:02.000Z</time>
        <extensions>
          <ns3:TrackPointExtension>
            <ns3:hr>148</ns3:hr>
            <ns3:cad>0</ns3:cad>
          </ns3:TrackPointExtension>
        </extensions>
      </trkpt>
      <trkpt lat="44.67539839446544647216796875" lon="6.815506853163242340087890625">
        <ele>2085.60009765625</ele>
        <time>2026-08-31T06:19:03.000Z</time>
        <extensions>
          <ns3:TrackPointExtension>
            <ns3:hr>149</ns3:hr>
            <ns3:cad>0</ns3:cad>
          </ns3:TrackPointExtension>
        </extensions>
      </trkpt>
      <trkpt lat="44.67540233395993709564208984375" lon="6.815526299178600311279296875">
        <ele>2085.800048828125</ele>
        <time>2026-08-31T06:19:04.000Z</time>
        <extensions>
          <ns3:TrackPointExtension>
            <ns3:hr>149</ns3:hr>
            <ns3:cad>0</ns3:cad>
          </ns3:TrackPointExtension>
        </extensions>
      </trkpt>
      <trkpt lat="44.6754019148647785186767578125" lon="6.8155408836901187896728515625">
        <ele>2086</ele>
        <time>2026-08-31T06:19:05.000Z</time>
        <extensions>
          <ns3:TrackPointExtension>
            <ns3:hr>150</ns3:hr>
            <ns3:cad>0</ns3:cad>
          </ns3:TrackPointExtension>
        </extensions>
      </trkpt>
      <trkpt lat="44.675398729741573333740234375" lon="6.8155439011752605438232421875">
        <ele>2086.199951171875</ele>
        <time>2026-08-31T06:19:06.000Z</time>
        <extensions>
          <ns3:TrackPointExtension>
            <ns3:hr>150</ns3:hr>
            <ns3:cad>0</ns3:cad>
          </ns3:TrackPointExtension>
        </extensions>
      </trkpt>
      <trkpt lat="44.6753958798944950103759765625" lon="6.81555840186774730682373046875">
        <ele>2086.39990234375</ele>
        <time>2026-08-31T06:19:07.000Z</time>
        <extensions>
          <ns3:TrackPointExtension>
            <ns3:hr>150</ns3:hr>
            <ns3:cad>0</ns3:cad>
          </ns3:TrackPointExtension>
        </extensions>
      </trkpt>
      <trkpt lat="44.6753925271332263946533203125" lon="6.81556963361799716949462890625">
        <ele>2086.60009765625</ele>
        <time>2026-08-31T06:19:08.000Z</time>
        <extensions>
          <ns3:TrackPointExtension>
            <ns3:hr>150</ns3:hr>
            <ns3:cad>51</ns3:cad>
          </ns3:TrackPointExtension>
        </extensions>
      </trkpt>
      <trkpt lat="44.675390012562274932861328125" lon="6.8155858106911182403564453125">
        <ele>2086.800048828125</ele>
        <time>2026-08-31T06:19:09.000Z</time>
        <extensions>
          <ns3:TrackPointExtension>
            <ns3:hr>151</ns3:hr>
            <ns3:cad>51</ns3:cad>
          </ns3:TrackPointExtension>
        </extensions>
      </trkpt>
      <trkpt lat="44.67538825236260890960693359375" lon="6.815601401031017303466796875">
        <ele>2087</ele>
        <time>2026-08-31T06:19:10.000Z</time>
        <extensions>
          <ns3:TrackPointExtension>
            <ns3:hr>151</ns3:hr>
            <ns3:cad>0</ns3:cad>
          </ns3:TrackPointExtension>
        </extensions>
      </trkpt>
      <trkpt lat="44.67538389377295970916748046875" lon="6.81561975739896297454833984375">
        <ele>2087.199951171875</ele>
        <time>2026-08-31T06:19:11.000Z</time>
        <extensions>
          <ns3:TrackPointExtension>
            <ns3:hr>151</ns3:hr>
            <ns3:cad>0</ns3:cad>
          </ns3:TrackPointExtension>
        </extensions>
      </trkpt>
      <trkpt lat="44.67538037337362766265869140625" lon="6.81563450954854488372802734375">
        <ele>2087.39990234375</ele>
        <time>2026-08-31T06:19:12.000Z</time>
        <extensions>
          <ns3:TrackPointExtension>
            <ns3:hr>151</ns3:hr>
            <ns3:cad>0</ns3:cad>
          </ns3:TrackPointExtension>
        </extensions>
      </trkpt>
      <trkpt lat="44.675375260412693023681640625" lon="6.81564507074654102325439453125">
        <ele>2087.60009765625</ele>
        <time>2026-08-31T06:19:13.000Z</time>
        <extensions>
          <ns3:TrackPointExtension>
            <ns3:hr>151</ns3:hr>
            <ns3:cad>0</ns3:cad>
          </ns3:TrackPointExtension>
        </extensions>
      </trkpt>
      <trkpt lat="44.67537224292755126953125" lon="6.81565512903034687042236328125">
        <ele>2087.800048828125</ele>
        <time>2026-08-31T06:19:14.000Z</time>
        <extensions>
          <ns3:TrackPointExtension>
            <ns3:hr>151</ns3:hr>
            <ns3:cad>0</ns3:cad>
          </ns3:TrackPointExtension>
        </extensions>
      </trkpt>
      <trkpt lat="44.6753670461475849151611328125" lon="6.81566954590380191802978515625">
        <ele>2088</ele>
        <time>2026-08-31T06:19:15.000Z</time>
        <extensions>
          <ns3:TrackPointExtension>
            <ns3:hr>151</ns3:hr>
            <ns3:cad>0</ns3:cad>
          </ns3:TrackPointExtension>
        </extensions>
      </trkpt>
      <trkpt lat="44.67536327429115772247314453125" lon="6.81568413041532039642333984375">
        <ele>2088.199951171875</ele>
        <time>2026-08-31T06:19:16.000Z</time>
        <extensions>
          <ns3:TrackPointExtension>
            <ns3:hr>152</ns3:hr>
            <ns3:cad>0</ns3:cad>
          </ns3:TrackPointExtension>
        </extensions>
      </trkpt>
      <trkpt lat="44.67536084353923797607421875" lon="6.8156917579472064971923828125">
        <ele>2088.39990234375</ele>
        <time>2026-08-31T06:19:17.000Z</time>
        <extensions>
          <ns3:TrackPointExtension>
            <ns3:hr>152</ns3:hr>
            <ns3:cad>0</ns3:cad>
          </ns3:TrackPointExtension>
        </extensions>
      </trkpt>
      <trkpt lat="44.67535891570150852203369140625" lon="6.81570407934486865997314453125">
        <ele>2088.60009765625</ele>
        <time>2026-08-31T06:19:18.000Z</time>
        <extensions>
          <ns3:TrackPointExtension>
            <ns3:hr>152</ns3:hr>
            <ns3:cad>0</ns3:cad>
          </ns3:TrackPointExtension>
        </extensions>
      </trkpt>
      <trkpt lat="44.67534919269382953643798828125" lon="6.81571262888610363006591796875">
        <ele>2088.800048828125</ele>
        <time>2026-08-31T06:19:19.000Z</time>
        <extensions>
          <ns3:TrackPointExtension>
            <ns3:hr>153</ns3:hr>
            <ns3:cad>0</ns3:cad>
          </ns3:TrackPointExtension>
        </extensions>
      </trkpt>
      <trkpt lat="44.67535120435059070587158203125" lon="6.8157329969108104705810546875">
        <ele>2088.800048828125</ele>
        <time>2026-08-31T06:19:20.000Z</time>
        <extensions>
          <ns3:TrackPointExtension>
            <ns3:hr>153</ns3:hr>
            <ns3:cad>0</ns3:cad>
          </ns3:TrackPointExtension>
        </extensions>
      </trkpt>
      <trkpt lat="44.67534902505576610565185546875" lon="6.815742552280426025390625">
        <ele>2089</ele>
        <time>2026-08-31T06:19:21.000Z</time>
        <extensions>
          <ns3:TrackPointExtension>
            <ns3:hr>154</ns3:hr>
            <ns3:cad>0</ns3:cad>
          </ns3:TrackPointExtension>
        </extensions>
      </trkpt>
      <trkpt lat="44.67535254545509815216064453125" lon="6.8157604895532131195068359375">
        <ele>2089.199951171875</ele>
        <time>2026-08-31T06:19:22.000Z</time>
        <extensions>
          <ns3:TrackPointExtension>
            <ns3:hr>154</ns3:hr>
            <ns3:cad>0</ns3:cad>
          </ns3:TrackPointExtension>
        </extensions>
      </trkpt>
      <trkpt lat="44.67535170726478099822998046875" lon="6.81577448733150959014892578125">
        <ele>2089.39990234375</ele>
        <time>2026-08-31T06:19:23.000Z</time>
        <extensions>
          <ns3:TrackPointExtension>
            <ns3:hr>154</ns3:hr>
            <ns3:cad>54</ns3:cad>
          </ns3:TrackPointExtension>
        </extensions>
      </trkpt>
      <trkpt lat="44.67534986324608325958251953125" lon="6.81578907184302806854248046875">
        <ele>2089.39990234375</ele>
        <time>2026-08-31T06:19:24.000Z</time>
        <extensions>
          <ns3:TrackPointExtension>
            <ns3:hr>155</ns3:hr>
            <ns3:cad>54</ns3:cad>
          </ns3:TrackPointExtension>
        </extensions>
      </trkpt>
      <trkpt lat="44.6753482706844806671142578125" lon="6.81580197997391223907470703125">
        <ele>2089.60009765625</ele>
        <time>2026-08-31T06:19:25.000Z</time>
        <extensions>
          <ns3:TrackPointExtension>
            <ns3:hr>155</ns3:hr>
            <ns3:cad>0</ns3:cad>
          </ns3:TrackPointExtension>
        </extensions>
      </trkpt>
      <trkpt lat="44.67534600757062435150146484375" lon="6.8158151395618915557861328125">
        <ele>2089.800048828125</ele>
        <time>2026-08-31T06:19:26.000Z</time>
        <extensions>
          <ns3:TrackPointExtension>
            <ns3:hr>155</ns3:hr>
            <ns3:cad>0</ns3:cad>
          </ns3:TrackPointExtension>
        </extensions>
      </trkpt>
      <trkpt lat="44.67534483410418033599853515625" lon="6.81583316065371036529541015625">
        <ele>2090</ele>
        <time>2026-08-31T06:19:27.000Z</time>
        <extensions>
          <ns3:TrackPointExtension>
            <ns3:hr>155</ns3:hr>
            <ns3:cad>0</ns3:cad>
          </ns3:TrackPointExtension>
        </extensions>
      </trkpt>
      <trkpt lat="44.675345085561275482177734375" lon="6.81584673933684825897216796875">
        <ele>2090.199951171875</ele>
        <time>2026-08-31T06:19:28.000Z</time>
        <extensions>
          <ns3:TrackPointExtension>
            <ns3:hr>155</ns3:hr>
            <ns3:cad>0</ns3:cad>
          </ns3:TrackPointExtension>
        </extensions>
      </trkpt>
      <trkpt lat="44.67534340918064117431640625" lon="6.81585294194519519805908203125">
        <ele>2090.39990234375</ele>
        <time>2026-08-31T06:19:29.000Z</time>
        <extensions>
          <ns3:TrackPointExtension>
            <ns3:hr>155</ns3:hr>
            <ns3:cad>0</ns3:cad>
          </ns3:TrackPointExtension>
        </extensions>
      </trkpt>
      <trkpt lat="44.67534097842872142791748046875" lon="6.8158672749996185302734375">
        <ele>2090.800048828125</ele>
        <time>2026-08-31T06:19:30.000Z</time>
        <extensions>
          <ns3:TrackPointExtension>
            <ns3:hr>156</ns3:hr>
            <ns3:cad>0</ns3:cad>
          </ns3:TrackPointExtension>
        </extensions>
      </trkpt>
      <trkpt lat="44.675341732800006866455078125" lon="6.815872304141521453857421875">
        <ele>2091</ele>
        <time>2026-08-31T06:19:31.000Z</time>
        <extensions>
          <ns3:TrackPointExtension>
            <ns3:hr>156</ns3:hr>
            <ns3:cad>0</ns3:cad>
          </ns3:TrackPointExtension>
        </extensions>
      </trkpt>
      <trkpt lat="44.675341062247753143310546875" lon="6.8158868886530399322509765625">
        <ele>2091.199951171875</ele>
        <time>2026-08-31T06:19:32.000Z</time>
        <extensions>
          <ns3:TrackPointExtension>
            <ns3:hr>156</ns3:hr>
            <ns3:cad>0</ns3:cad>
          </ns3:TrackPointExtension>
        </extensions>
      </trkpt>
      <trkpt lat="44.6753398887813091278076171875" lon="6.81589535437524318695068359375">
        <ele>2091.39990234375</ele>
        <time>2026-08-31T06:19:33.000Z</time>
        <extensions>
          <ns3:TrackPointExtension>
            <ns3:hr>156</ns3:hr>
            <ns3:cad>0</ns3:cad>
          </ns3:TrackPointExtension>
        </extensions>
      </trkpt>
      <trkpt lat="44.67534081079065799713134765625" lon="6.81592452339828014373779296875">
        <ele>2091.60009765625</ele>
        <time>2026-08-31T06:19:34.000Z</time>
        <extensions>
          <ns3:TrackPointExtension>
            <ns3:hr>156</ns3:hr>
            <ns3:cad>0</ns3:cad>
          </ns3:TrackPointExtension>
        </extensions>
      </trkpt>
      <trkpt lat="44.67534399591386318206787109375" lon="6.8159370124340057373046875">
        <ele>2091.800048828125</ele>
        <time>2026-08-31T06:19:35.000Z</time>
        <extensions>
          <ns3:TrackPointExtension>
            <ns3:hr>156</ns3:hr>
            <ns3:cad>0</ns3:cad>
          </ns3:TrackPointExtension>
        </extensions>
      </trkpt>
      <trkpt lat="44.675337038934230804443359375" lon="6.815948076546192169189453125">
        <ele>2092</ele>
        <time>2026-08-31T06:19:36.000Z</time>
        <extensions>
          <ns3:TrackPointExtension>
            <ns3:hr>156</ns3:hr>
            <ns3:cad>0</ns3:cad>
          </ns3:TrackPointExtension>
        </extensions>
      </trkpt>
      <trkpt lat="44.67533561401069164276123046875" lon="6.81595981121063232421875">
        <ele>2092.199951171875</ele>
        <time>2026-08-31T06:19:37.000Z</time>
        <extensions>
          <ns3:TrackPointExtension>
            <ns3:hr>156</ns3:hr>
            <ns3:cad>0</ns3:cad>
          </ns3:TrackPointExtension>
        </extensions>
      </trkpt>
      <trkpt lat="44.6753346920013427734375" lon="6.8159636668860912322998046875">
        <ele>2092.60009765625</ele>
        <time>2026-08-31T06:19:38.000Z</time>
        <extensions>
          <ns3:TrackPointExtension>
            <ns3:hr>157</ns3:hr>
            <ns3:cad>0</ns3:cad>
          </ns3:TrackPointExtension>
        </extensions>
      </trkpt>
      <trkpt lat="44.6753333508968353271484375" lon="6.81598286144435405731201171875">
        <ele>2092.800048828125</ele>
        <time>2026-08-31T06:19:39.000Z</time>
        <extensions>
          <ns3:TrackPointExtension>
            <ns3:hr>157</ns3:hr>
            <ns3:cad>0</ns3:cad>
          </ns3:TrackPointExtension>
        </extensions>
      </trkpt>
      <trkpt lat="44.67533309943974018096923828125" lon="6.8159973621368408203125">
        <ele>2092.800048828125</ele>
        <time>2026-08-31T06:19:40.000Z</time>
        <extensions>
          <ns3:TrackPointExtension>
            <ns3:hr>157</ns3:hr>
            <ns3:cad>0</ns3:cad>
          </ns3:TrackPointExtension>
        </extensions>
      </trkpt>
      <trkpt lat="44.67533075250685214996337890625" lon="6.81601672433316707611083984375">
        <ele>2093</ele>
        <time>2026-08-31T06:19:41.000Z</time>
        <extensions>
          <ns3:TrackPointExtension>
            <ns3:hr>157</ns3:hr>
            <ns3:cad>0</ns3:cad>
          </ns3:TrackPointExtension>
        </extensions>
      </trkpt>
      <trkpt lat="44.6753253042697906494140625" lon="6.8160290457308292388916015625">
        <ele>2093.199951171875</ele>
        <time>2026-08-31T06:19:42.000Z</time>
        <extensions>
          <ns3:TrackPointExtension>
            <ns3:hr>157</ns3:hr>
            <ns3:cad>0</ns3:cad>
          </ns3:TrackPointExtension>
        </extensions>
      </trkpt>
      <trkpt lat="44.675321616232395172119140625" lon="6.8160441331565380096435546875">
        <ele>2093.39990234375</ele>
        <time>2026-08-31T06:19:43.000Z</time>
        <extensions>
          <ns3:TrackPointExtension>
            <ns3:hr>158</ns3:hr>
            <ns3:cad>0</ns3:cad>
          </ns3:TrackPointExtension>
        </extensions>
      </trkpt>
      <trkpt lat="44.67531901784241199493408203125" lon="6.816058717668056488037109375">
        <ele>2093.60009765625</ele>
        <time>2026-08-31T06:19:44.000Z</time>
        <extensions>
          <ns3:TrackPointExtension>
            <ns3:hr>157</ns3:hr>
            <ns3:cad>0</ns3:cad>
          </ns3:TrackPointExtension>
        </extensions>
      </trkpt>
      <trkpt lat="44.67531616799533367156982421875" lon="6.8160689435899257659912109375">
        <ele>2093.800048828125</ele>
        <time>2026-08-31T06:19:45.000Z</time>
        <extensions>
          <ns3:TrackPointExtension>
            <ns3:hr>157</ns3:hr>
            <ns3:cad>0</ns3:cad>
          </ns3:TrackPointExtension>
        </extensions>
      </trkpt>
      <trkpt lat="44.67531197704374790191650390625" lon="6.81608277373015880584716796875">
        <ele>2094</ele>
        <time>2026-08-31T06:19:46.000Z</time>
        <extensions>
          <ns3:TrackPointExtension>
            <ns3:hr>157</ns3:hr>
            <ns3:cad>0</ns3:cad>
          </ns3:TrackPointExtension>
        </extensions>
      </trkpt>
      <trkpt lat="44.6753083728253841400146484375" lon="6.81608964689075946807861328125">
        <ele>2094.199951171875</ele>
        <time>2026-08-31T06:19:47.000Z</time>
        <extensions>
          <ns3:TrackPointExtension>
            <ns3:hr>158</ns3:hr>
            <ns3:cad>0</ns3:cad>
          </ns3:TrackPointExtension>
        </extensions>
      </trkpt>
      <trkpt lat="44.67530527152121067047119140625" lon="6.81611160747706890106201171875">
        <ele>2094.39990234375</ele>
        <time>2026-08-31T06:19:48.000Z</time>
        <extensions>
          <ns3:TrackPointExtension>
            <ns3:hr>157</ns3:hr>
            <ns3:cad>0</ns3:cad>
          </ns3:TrackPointExtension>
        </extensions>
      </trkpt>
      <trkpt lat="44.6753025054931640625" lon="6.81612082757055759429931640625">
        <ele>2094.60009765625</ele>
        <time>2026-08-31T06:19:49.000Z</time>
        <extensions>
          <ns3:TrackPointExtension>
            <ns3:hr>157</ns3:hr>
            <ns3:cad>0</ns3:cad>
          </ns3:TrackPointExtension>
        </extensions>
      </trkpt>
      <trkpt lat="44.6752984821796417236328125" lon="6.81613884866237640380859375">
        <ele>2094.800048828125</ele>
        <time>2026-08-31T06:19:50.000Z</time>
        <extensions>
          <ns3:TrackPointExtension>
            <ns3:hr>158</ns3:hr>
            <ns3:cad>0</ns3:cad>
          </ns3:TrackPointExtension>
        </extensions>
      </trkpt>
      <trkpt lat="44.67529236339032649993896484375" lon="6.8161515891551971435546875">
        <ele>2095</ele>
        <time>2026-08-31T06:19:51.000Z</time>
        <extensions>
          <ns3:TrackPointExtension>
            <ns3:hr>157</ns3:hr>
            <ns3:cad>0</ns3:cad>
          </ns3:TrackPointExtension>
        </extensions>
      </trkpt>
      <trkpt lat="44.6752850711345672607421875" lon="6.816158294677734375">
        <ele>2095.199951171875</ele>
        <time>2026-08-31T06:19:52.000Z</time>
        <extensions>
          <ns3:TrackPointExtension>
            <ns3:hr>157</ns3:hr>
            <ns3:cad>0</ns3:cad>
          </ns3:TrackPointExtension>
        </extensions>
      </trkpt>
      <trkpt lat="44.67527761124074459075927734375" lon="6.81617363356053829193115234375">
        <ele>2095.199951171875</ele>
        <time>2026-08-31T06:19:53.000Z</time>
        <extensions>
          <ns3:TrackPointExtension>
            <ns3:hr>158</ns3:hr>
            <ns3:cad>0</ns3:cad>
          </ns3:TrackPointExtension>
        </extensions>
      </trkpt>
      <trkpt lat="44.6752735041081905364990234375" lon="6.81618033908307552337646484375">
        <ele>2095.39990234375</ele>
        <time>2026-08-31T06:19:54.000Z</time>
        <extensions>
          <ns3:TrackPointExtension>
            <ns3:hr>158</ns3:hr>
            <ns3:cad>0</ns3:cad>
          </ns3:TrackPointExtension>
        </extensions>
      </trkpt>
      <trkpt lat="44.67526889406144618988037109375" lon="6.81619810871779918670654296875">
        <ele>2095.60009765625</ele>
        <time>2026-08-31T06:19:55.000Z</time>
        <extensions>
          <ns3:TrackPointExtension>
            <ns3:hr>158</ns3:hr>
            <ns3:cad>0</ns3:cad>
          </ns3:TrackPointExtension>
        </extensions>
      </trkpt>
      <trkpt lat="44.67526252381503582000732421875" lon="6.816209256649017333984375">
        <ele>2095.800048828125</ele>
        <time>2026-08-31T06:19:56.000Z</time>
        <extensions>
          <ns3:TrackPointExtension>
            <ns3:hr>158</ns3:hr>
            <ns3:cad>0</ns3:cad>
          </ns3:TrackPointExtension>
        </extensions>
      </trkpt>
      <trkpt lat="44.67525883577764034271240234375" lon="6.81622476316988468170166015625">
        <ele>2096</ele>
        <time>2026-08-31T06:19:57.000Z</time>
        <extensions>
          <ns3:TrackPointExtension>
            <ns3:hr>158</ns3:hr>
            <ns3:cad>0</ns3:cad>
          </ns3:TrackPointExtension>
        </extensions>
      </trkpt>
      <trkpt lat="44.67525246553122997283935546875" lon="6.81624135933816432952880859375">
        <ele>2096.199951171875</ele>
        <time>2026-08-31T06:19:58.000Z</time>
        <extensions>
          <ns3:TrackPointExtension>
            <ns3:hr>158</ns3:hr>
            <ns3:cad>0</ns3:cad>
          </ns3:TrackPointExtension>
        </extensions>
      </trkpt>
      <trkpt lat="44.675247184932231903076171875" lon="6.81625259108841419219970703125">
        <ele>2096.39990234375</ele>
        <time>2026-08-31T06:19:59.000Z</time>
        <extensions>
          <ns3:TrackPointExtension>
            <ns3:hr>158</ns3:hr>
            <ns3:cad>0</ns3:cad>
          </ns3:TrackPointExtension>
        </extensions>
      </trkpt>
      <trkpt lat="44.67524525709450244903564453125" lon="6.816265247762203216552734375">
        <ele>2096.60009765625</ele>
        <time>2026-08-31T06:20:00.000Z</time>
        <extensions>
          <ns3:TrackPointExtension>
            <ns3:hr>158</ns3:hr>
            <ns3:cad>0</ns3:cad>
          </ns3:TrackPointExtension>
        </extensions>
      </trkpt>
      <trkpt lat="44.67524525709450244903564453125" lon="6.816265247762203216552734375">
        <ele>2096.800048828125</ele>
        <time>2026-08-31T06:20:01.000Z</time>
        <extensions>
          <ns3:TrackPointExtension>
            <ns3:hr>158</ns3:hr>
            <ns3:cad>0</ns3:cad>
          </ns3:TrackPointExtension>
        </extensions>
      </trkpt>
      <trkpt lat="44.67524341307580471038818359375" lon="6.8162808381021022796630859375">
        <ele>2097</ele>
        <time>2026-08-31T06:20:02.000Z</time>
        <extensions>
          <ns3:TrackPointExtension>
            <ns3:hr>158</ns3:hr>
            <ns3:cad>0</ns3:cad>
          </ns3:TrackPointExtension>
        </extensions>
      </trkpt>
      <trkpt lat="44.67524307779967784881591796875" lon="6.8162882141768932342529296875">
        <ele>2097.199951171875</ele>
        <time>2026-08-31T06:20:03.000Z</time>
        <extensions>
          <ns3:TrackPointExtension>
            <ns3:hr>159</ns3:hr>
            <ns3:cad>0</ns3:cad>
          </ns3:TrackPointExtension>
        </extensions>
      </trkpt>
      <trkpt lat="44.67524525709450244903564453125" lon="6.81630112230777740478515625">
        <ele>2097.39990234375</ele>
        <time>2026-08-31T06:20:04.000Z</time>
        <extensions>
          <ns3:TrackPointExtension>
            <ns3:hr>159</ns3:hr>
            <ns3:cad>0</ns3:cad>
          </ns3:TrackPointExtension>
        </extensions>
      </trkpt>
      <trkpt lat="44.675249867141246795654296875" lon="6.8163043074309825897216796875">
        <ele>2097.800048828125</ele>
        <time>2026-08-31T06:20:05.000Z</time>
        <extensions>
          <ns3:TrackPointExtension>
            <ns3:hr>159</ns3:hr>
            <ns3:cad>0</ns3:cad>
          </ns3:TrackPointExtension>
        </extensions>
      </trkpt>
      <trkpt lat="44.675257243216037750244140625" lon="6.81630112230777740478515625">
        <ele>2098</ele>
        <time>2026-08-31T06:20:06.000Z</time>
        <extensions>
          <ns3:TrackPointExtension>
            <ns3:hr>159</ns3:hr>
            <ns3:cad>0</ns3:cad>
          </ns3:TrackPointExtension>
        </extensions>
      </trkpt>
      <trkpt lat="44.6752617694437503814697265625" lon="6.81629198603332042694091796875">
        <ele>2098.199951171875</ele>
        <time>2026-08-31T06:20:07.000Z</time>
        <extensions>
          <ns3:TrackPointExtension>
            <ns3:hr>159</ns3:hr>
            <ns3:cad>0</ns3:cad>
          </ns3:TrackPointExtension>
        </extensions>
      </trkpt>
      <trkpt lat="44.67526470310986042022705078125" lon="6.8162895552814006805419921875">
        <ele>2098.39990234375</ele>
        <time>2026-08-31T06:20:08.000Z</time>
        <extensions>
          <ns3:TrackPointExtension>
            <ns3:hr>158</ns3:hr>
            <ns3:cad>0</ns3:cad>
          </ns3:TrackPointExtension>
        </extensions>
      </trkpt>
      <trkpt lat="44.67527191154658794403076171875" lon="6.81628360413014888763427734375">
        <ele>2098.60009765625</ele>
        <time>2026-08-31T06:20:09.000Z</time>
        <extensions>
          <ns3:TrackPointExtension>
            <ns3:hr>158</ns3:hr>
            <ns3:cad>0</ns3:cad>
          </ns3:TrackPointExtension>
        </extensions>
      </trkpt>
      <trkpt lat="44.675275348126888275146484375" lon="6.81628100574016571044921875">
        <ele>2098.800048828125</ele>
        <time>2026-08-31T06:20:10.000Z</time>
        <extensions>
          <ns3:TrackPointExtension>
            <ns3:hr>158</ns3:hr>
            <ns3:cad>0</ns3:cad>
          </ns3:TrackPointExtension>
        </extensions>
      </trkpt>
      <trkpt lat="44.67528884299099445343017578125" lon="6.81627907790243625640869140625">
        <ele>2099</ele>
        <time>2026-08-31T06:20:11.000Z</time>
        <extensions>
          <ns3:TrackPointExtension>
            <ns3:hr>158</ns3:hr>
            <ns3:cad>0</ns3:cad>
          </ns3:TrackPointExtension>
        </extensions>
      </trkpt>
      <trkpt lat="44.675293453037738800048828125" lon="6.81627505458891391754150390625">
        <ele>2099.199951171875</ele>
        <time>2026-08-31T06:20:12.000Z</time>
        <extensions>
          <ns3:TrackPointExtension>
            <ns3:hr>158</ns3:hr>
            <ns3:cad>0</ns3:cad>
          </ns3:TrackPointExtension>
        </extensions>
      </trkpt>
      <trkpt lat="44.67530728317797183990478515625" lon="6.81627321057021617889404296875">
        <ele>2099.39990234375</ele>
        <time>2026-08-31T06:20:13.000Z</time>
        <extensions>
          <ns3:TrackPointExtension>
            <ns3:hr>157</ns3:hr>
            <ns3:cad>0</ns3:cad>
          </ns3:TrackPointExtension>
        </extensions>
      </trkpt>
      <trkpt lat="44.675314910709857940673828125" lon="6.81627103127539157867431640625">
        <ele>2099.60009765625</ele>
        <time>2026-08-31T06:20:14.000Z</time>
        <extensions>
          <ns3:TrackPointExtension>
            <ns3:hr>156</ns3:hr>
            <ns3:cad>0</ns3:cad>
          </ns3:TrackPointExtension>
        </extensions>
      </trkpt>
      <trkpt lat="44.67532061040401458740234375" lon="6.81626432575285434722900390625">
        <ele>2099.800048828125</ele>
        <time>2026-08-31T06:20:15.000Z</time>
        <extensions>
          <ns3:TrackPointExtension>
            <ns3:hr>156</ns3:hr>
            <ns3:cad>0</ns3:cad>
          </ns3:TrackPointExtension>
        </extensions>
      </trkpt>
      <trkpt lat="44.67532689683139324188232421875" lon="6.81625393219292163848876953125">
        <ele>2100</ele>
        <time>2026-08-31T06:20:16.000Z</time>
        <extensions>
          <ns3:TrackPointExtension>
            <ns3:hr>156</ns3:hr>
            <ns3:cad>0</ns3:cad>
          </ns3:TrackPointExtension>
        </extensions>
      </trkpt>
      <trkpt lat="44.67532605864107608795166015625" lon="6.81625225581228733062744140625">
        <ele>2100.199951171875</ele>
        <time>2026-08-31T06:20:17.000Z</time>
        <extensions>
          <ns3:TrackPointExtension>
            <ns3:hr>156</ns3:hr>
            <ns3:cad>0</ns3:cad>
          </ns3:TrackPointExtension>
        </extensions>
      </trkpt>
      <trkpt lat="44.67533410526812076568603515625" lon="6.81624404154717922210693359375">
        <ele>2100.39990234375</ele>
        <time>2026-08-31T06:20:18.000Z</time>
        <extensions>
          <ns3:TrackPointExtension>
            <ns3:hr>155</ns3:hr>
            <ns3:cad>0</ns3:cad>
          </ns3:TrackPointExtension>
        </extensions>
      </trkpt>
      <trkpt lat="44.67533829621970653533935546875" lon="6.81623783893883228302001953125">
        <ele>2100.39990234375</ele>
        <time>2026-08-31T06:20:19.000Z</time>
        <extensions>
          <ns3:TrackPointExtension>
            <ns3:hr>155</ns3:hr>
            <ns3:cad>0</ns3:cad>
          </ns3:TrackPointExtension>
        </extensions>
      </trkpt>
      <trkpt lat="44.675350449979305267333984375" lon="6.8162268586456775665283203125">
        <ele>2100.60009765625</ele>
        <time>2026-08-31T06:20:20.000Z</time>
        <extensions>
          <ns3:TrackPointExtension>
            <ns3:hr>155</ns3:hr>
            <ns3:cad>0</ns3:cad>
          </ns3:TrackPointExtension>
        </extensions>
      </trkpt>
      <trkpt lat="44.67535807751119136810302734375" lon="6.81621856056153774261474609375">
        <ele>2100.800048828125</ele>
        <time>2026-08-31T06:20:21.000Z</time>
        <extensions>
          <ns3:TrackPointExtension>
            <ns3:hr>155</ns3:hr>
            <ns3:cad>0</ns3:cad>
          </ns3:TrackPointExtension>
        </extensions>
      </trkpt>
      <trkpt lat="44.6753677166998386383056640625" lon="6.8162052333354949951171875">
        <ele>2101</ele>
        <time>2026-08-31T06:20:22.000Z</time>
        <extensions>
          <ns3:TrackPointExtension>
            <ns3:hr>156</ns3:hr>
            <ns3:cad>0</ns3:cad>
          </ns3:TrackPointExtension>
        </extensions>
      </trkpt>
      <trkpt lat="44.6753750927746295928955078125" lon="6.8161960132420063018798828125">
        <ele>2101.199951171875</ele>
        <time>2026-08-31T06:20:23.000Z</time>
        <extensions>
          <ns3:TrackPointExtension>
            <ns3:hr>156</ns3:hr>
            <ns3:cad>0</ns3:cad>
          </ns3:TrackPointExtension>
        </extensions>
      </trkpt>
      <trkpt lat="44.675380289554595947265625" lon="6.8161904811859130859375">
        <ele>2101.199951171875</ele>
        <time>2026-08-31T06:20:24.000Z</time>
        <extensions>
          <ns3:TrackPointExtension>
            <ns3:hr>156</ns3:hr>
            <ns3:cad>0</ns3:cad>
          </ns3:TrackPointExtension>
        </extensions>
      </trkpt>
      <trkpt lat="44.675389342010021209716796875" lon="6.816182099282741546630859375">
        <ele>2101.39990234375</ele>
        <time>2026-08-31T06:20:25.000Z</time>
        <extensions>
          <ns3:TrackPointExtension>
            <ns3:hr>157</ns3:hr>
            <ns3:cad>0</ns3:cad>
          </ns3:TrackPointExtension>
        </extensions>
      </trkpt>
      <trkpt lat="44.675396382808685302734375" lon="6.816176064312458038330078125">
        <ele>2101.60009765625</ele>
        <time>2026-08-31T06:20:26.000Z</time>
        <extensions>
          <ns3:TrackPointExtension>
            <ns3:hr>157</ns3:hr>
            <ns3:cad>0</ns3:cad>
          </ns3:TrackPointExtension>
        </extensions>
      </trkpt>
      <trkpt lat="44.6754069440066814422607421875" lon="6.8161655031144618988037109375">
        <ele>2101.800048828125</ele>
        <time>2026-08-31T06:20:27.000Z</time>
        <extensions>
          <ns3:TrackPointExtension>
            <ns3:hr>158</ns3:hr>
            <ns3:cad>0</ns3:cad>
          </ns3:TrackPointExtension>
        </extensions>
      </trkpt>
      <trkpt lat="44.67541255988180637359619140625" lon="6.816157288849353790283203125">
        <ele>2102</ele>
        <time>2026-08-31T06:20:28.000Z</time>
        <extensions>
          <ns3:TrackPointExtension>
            <ns3:hr>159</ns3:hr>
            <ns3:cad>0</ns3:cad>
          </ns3:TrackPointExtension>
        </extensions>
      </trkpt>
      <trkpt lat="44.6754200197756290435791015625" lon="6.8161534331738948822021484375">
        <ele>2102.199951171875</ele>
        <time>2026-08-31T06:20:29.000Z</time>
        <extensions>
          <ns3:TrackPointExtension>
            <ns3:hr>158</ns3:hr>
            <ns3:cad>0</ns3:cad>
          </ns3:TrackPointExtension>
        </extensions>
      </trkpt>
      <trkpt lat="44.67542781494557857513427734375" lon="6.81614496745169162750244140625">
        <ele>2102.39990234375</ele>
        <time>2026-08-31T06:20:30.000Z</time>
        <extensions>
          <ns3:TrackPointExtension>
            <ns3:hr>158</ns3:hr>
            <ns3:cad>0</ns3:cad>
          </ns3:TrackPointExtension>
        </extensions>
      </trkpt>
      <trkpt lat="44.67543569393455982208251953125" lon="6.816129796206951141357421875">
        <ele>2102.39990234375</ele>
        <time>2026-08-31T06:20:31.000Z</time>
        <extensions>
          <ns3:TrackPointExtension>
            <ns3:hr>159</ns3:hr>
            <ns3:cad>0</ns3:cad>
          </ns3:TrackPointExtension>
        </extensions>
      </trkpt>
      <trkpt lat="44.67544457875192165374755859375" lon="6.81612082757055759429931640625">
        <ele>2102.60009765625</ele>
        <time>2026-08-31T06:20:32.000Z</time>
        <extensions>
          <ns3:TrackPointExtension>
            <ns3:hr>159</ns3:hr>
            <ns3:cad>0</ns3:cad>
          </ns3:TrackPointExtension>
        </extensions>
      </trkpt>
      <trkpt lat="44.67545178718864917755126953125" lon="6.81611596606671810150146484375">
        <ele>2102.800048828125</ele>
        <time>2026-08-31T06:20:33.000Z</time>
        <extensions>
          <ns3:TrackPointExtension>
            <ns3:hr>158</ns3:hr>
            <ns3:cad>0</ns3:cad>
          </ns3:TrackPointExtension>
        </extensions>
      </trkpt>
      <trkpt lat="44.6754605881869792938232421875" lon="6.816107332706451416015625">
        <ele>2102.800048828125</ele>
        <time>2026-08-31T06:20:34.000Z</time>
        <extensions>
          <ns3:TrackPointExtension>
            <ns3:hr>158</ns3:hr>
            <ns3:cad>0</ns3:cad>
          </ns3:TrackPointExtension>
        </extensions>
      </trkpt>
      <trkpt lat="44.6754669584333896636962890625" lon="6.81610238738358020782470703125">
        <ele>2103</ele>
        <time>2026-08-31T06:20:35.000Z</time>
        <extensions>
          <ns3:TrackPointExtension>
            <ns3:hr>157</ns3:hr>
            <ns3:cad>51</ns3:cad>
          </ns3:TrackPointExtension>
        </extensions>
      </trkpt>
      <trkpt lat="44.6754743345081806182861328125" lon="6.8160873837769031524658203125">
        <ele>2103</ele>
        <time>2026-08-31T06:20:36.000Z</time>
        <extensions>
          <ns3:TrackPointExtension>
            <ns3:hr>156</ns3:hr>
            <ns3:cad>51</ns3:cad>
          </ns3:TrackPointExtension>
        </extensions>
      </trkpt>
      <trkpt lat="44.67548145912587642669677734375" lon="6.8160779960453510284423828125">
        <ele>2103.199951171875</ele>
        <time>2026-08-31T06:20:37.000Z</time>
        <extensions>
          <ns3:TrackPointExtension>
            <ns3:hr>154</ns3:hr>
            <ns3:cad>51</ns3:cad>
          </ns3:TrackPointExtension>
        </extensions>
      </trkpt>
      <trkpt lat="44.67548816464841365814208984375" lon="6.81606684811413288116455078125">
        <ele>2103.39990234375</ele>
        <time>2026-08-31T06:20:38.000Z</time>
        <extensions>
          <ns3:TrackPointExtension>
            <ns3:hr>152</ns3:hr>
            <ns3:cad>51</ns3:cad>
          </ns3:TrackPointExtension>
        </extensions>
      </trkpt>
      <trkpt lat="44.6754957921802997589111328125" lon="6.816057376563549041748046875">
        <ele>2103.60009765625</ele>
        <time>2026-08-31T06:20:39.000Z</time>
        <extensions>
          <ns3:TrackPointExtension>
            <ns3:hr>152</ns3:hr>
            <ns3:cad>51</ns3:cad>
          </ns3:TrackPointExtension>
        </extensions>
      </trkpt>
      <trkpt lat="44.6755024977028369903564453125" lon="6.81604899466037750244140625">
        <ele>2103.800048828125</ele>
        <time>2026-08-31T06:20:40.000Z</time>
        <extensions>
          <ns3:TrackPointExtension>
            <ns3:hr>152</ns3:hr>
            <ns3:cad>51</ns3:cad>
          </ns3:TrackPointExtension>
        </extensions>
      </trkpt>
      <trkpt lat="44.6755085326731204986572265625" lon="6.81604187004268169403076171875">
        <ele>2104</ele>
        <time>2026-08-31T06:20:41.000Z</time>
        <extensions>
          <ns3:TrackPointExtension>
            <ns3:hr>152</ns3:hr>
            <ns3:cad>51</ns3:cad>
          </ns3:TrackPointExtension>
        </extensions>
      </trkpt>
      <trkpt lat="44.67551230452954769134521484375" lon="6.81603449396789073944091796875">
        <ele>2104.199951171875</ele>
        <time>2026-08-31T06:20:42.000Z</time>
        <extensions>
          <ns3:TrackPointExtension>
            <ns3:hr>152</ns3:hr>
            <ns3:cad>51</ns3:cad>
          </ns3:TrackPointExtension>
        </extensions>
      </trkpt>
      <trkpt lat="44.67551867477595806121826171875" lon="6.8160287104547023773193359375">
        <ele>2104.39990234375</ele>
        <time>2026-08-31T06:20:43.000Z</time>
        <extensions>
          <ns3:TrackPointExtension>
            <ns3:hr>151</ns3:hr>
            <ns3:cad>51</ns3:cad>
          </ns3:TrackPointExtension>
        </extensions>
      </trkpt>
      <trkpt lat="44.67552387155592441558837890625" lon="6.8160243518650531768798828125">
        <ele>2104.60009765625</ele>
        <time>2026-08-31T06:20:44.000Z</time>
        <extensions>
          <ns3:TrackPointExtension>
            <ns3:hr>152</ns3:hr>
            <ns3:cad>51</ns3:cad>
          </ns3:TrackPointExtension>
        </extensions>
      </trkpt>
      <trkpt lat="44.67553786933422088623046875" lon="6.81601588614284992218017578125">
        <ele>2104.800048828125</ele>
        <time>2026-08-31T06:20:45.000Z</time>
        <extensions>
          <ns3:TrackPointExtension>
            <ns3:hr>152</ns3:hr>
            <ns3:cad>51</ns3:cad>
          </ns3:TrackPointExtension>
        </extensions>
      </trkpt>
      <trkpt lat="44.6755457483232021331787109375" lon="6.816005744040012359619140625">
        <ele>2105</ele>
        <time>2026-08-31T06:20:46.000Z</time>
        <extensions>
          <ns3:TrackPointExtension>
            <ns3:hr>152</ns3:hr>
            <ns3:cad>51</ns3:cad>
          </ns3:TrackPointExtension>
        </extensions>
      </trkpt>
      <trkpt lat="44.675557650625705718994140625" lon="6.81599199771881103515625">
        <ele>2105.199951171875</ele>
        <time>2026-08-31T06:20:47.000Z</time>
        <extensions>
          <ns3:TrackPointExtension>
            <ns3:hr>153</ns3:hr>
            <ns3:cad>51</ns3:cad>
          </ns3:TrackPointExtension>
        </extensions>
      </trkpt>
      <trkpt lat="44.67556561343371868133544921875" lon="6.815978251397609710693359375">
        <ele>2105.39990234375</ele>
        <time>2026-08-31T06:20:48.000Z</time>
        <extensions>
          <ns3:TrackPointExtension>
            <ns3:hr>153</ns3:hr>
            <ns3:cad>0</ns3:cad>
          </ns3:TrackPointExtension>
        </extensions>
      </trkpt>
      <trkpt lat="44.6755742467939853668212890625" lon="6.81596458889544010162353515625">
        <ele>2105.39990234375</ele>
        <time>2026-08-31T06:20:49.000Z</time>
        <extensions>
          <ns3:TrackPointExtension>
            <ns3:hr>153</ns3:hr>
            <ns3:cad>0</ns3:cad>
          </ns3:TrackPointExtension>
        </extensions>
      </trkpt>
      <trkpt lat="44.67558304779231548309326171875" lon="6.81595377624034881591796875">
        <ele>2105.60009765625</ele>
        <time>2026-08-31T06:20:50.000Z</time>
        <extensions>
          <ns3:TrackPointExtension>
            <ns3:hr>154</ns3:hr>
            <ns3:cad>0</ns3:cad>
          </ns3:TrackPointExtension>
        </extensions>
      </trkpt>
      <trkpt lat="44.6755910106003284454345703125" lon="6.81594304740428924560546875">
        <ele>2105.800048828125</ele>
        <time>2026-08-31T06:20:51.000Z</time>
        <extensions>
          <ns3:TrackPointExtension>
            <ns3:hr>154</ns3:hr>
            <ns3:cad>0</ns3:cad>
          </ns3:TrackPointExtension>
        </extensions>
      </trkpt>
      <trkpt lat="44.67559997923672199249267578125" lon="6.81593592278659343719482421875">
        <ele>2106</ele>
        <time>2026-08-31T06:20:52.000Z</time>
        <extensions>
          <ns3:TrackPointExtension>
            <ns3:hr>154</ns3:hr>
            <ns3:cad>0</ns3:cad>
          </ns3:TrackPointExtension>
        </extensions>
      </trkpt>
      <trkpt lat="44.67560626566410064697265625" lon="6.8159291334450244903564453125">
        <ele>2106.199951171875</ele>
        <time>2026-08-31T06:20:53.000Z</time>
        <extensions>
          <ns3:TrackPointExtension>
            <ns3:hr>154</ns3:hr>
            <ns3:cad>0</ns3:cad>
          </ns3:TrackPointExtension>
        </extensions>
      </trkpt>
      <trkpt lat="44.6756158210337162017822265625" lon="6.81592150591313838958740234375">
        <ele>2106.39990234375</ele>
        <time>2026-08-31T06:20:54.000Z</time>
        <extensions>
          <ns3:TrackPointExtension>
            <ns3:hr>154</ns3:hr>
            <ns3:cad>0</ns3:cad>
          </ns3:TrackPointExtension>
        </extensions>
      </trkpt>
      <trkpt lat="44.67562411911785602569580078125" lon="6.81591681204736232757568359375">
        <ele>2106.60009765625</ele>
        <time>2026-08-31T06:20:55.000Z</time>
        <extensions>
          <ns3:TrackPointExtension>
            <ns3:hr>154</ns3:hr>
            <ns3:cad>0</ns3:cad>
          </ns3:TrackPointExtension>
        </extensions>
      </trkpt>
      <trkpt lat="44.6756322495639324188232421875" lon="6.8159110285341739654541015625">
        <ele>2106.60009765625</ele>
        <time>2026-08-31T06:20:56.000Z</time>
        <extensions>
          <ns3:TrackPointExtension>
            <ns3:hr>154</ns3:hr>
            <ns3:cad>0</ns3:cad>
          </ns3:TrackPointExtension>
        </extensions>
      </trkpt>
      <trkpt lat="44.67563887126743793487548828125" lon="6.81589602492749691009521484375">
        <ele>2106.800048828125</ele>
        <time>2026-08-31T06:20:57.000Z</time>
        <extensions>
          <ns3:TrackPointExtension>
            <ns3:hr>154</ns3:hr>
            <ns3:cad>0</ns3:cad>
          </ns3:TrackPointExtension>
        </extensions>
      </trkpt>
      <trkpt lat="44.67564473859965801239013671875" lon="6.8158825300633907318115234375">
        <ele>2107</ele>
        <time>2026-08-31T06:20:58.000Z</time>
        <extensions>
          <ns3:TrackPointExtension>
            <ns3:hr>155</ns3:hr>
            <ns3:cad>0</ns3:cad>
          </ns3:TrackPointExtension>
        </extensions>
      </trkpt>
      <trkpt lat="44.6756537072360515594482421875" lon="6.81587222032248973846435546875">
        <ele>2107.199951171875</ele>
        <time>2026-08-31T06:20:59.000Z</time>
        <extensions>
          <ns3:TrackPointExtension>
            <ns3:hr>155</ns3:hr>
            <ns3:cad>0</ns3:cad>
          </ns3:TrackPointExtension>
        </extensions>
      </trkpt>
      <trkpt lat="44.67565379105508327484130859375" lon="6.8158664368093013763427734375">
        <ele>2107.39990234375</ele>
        <time>2026-08-31T06:21:00.000Z</time>
        <extensions>
          <ns3:TrackPointExtension>
            <ns3:hr>155</ns3:hr>
            <ns3:cad>0</ns3:cad>
          </ns3:TrackPointExtension>
        </extensions>
      </trkpt>
      <trkpt lat="44.67565052211284637451171875" lon="6.81586082093417644500732421875">
        <ele>2107.60009765625</ele>
        <time>2026-08-31T06:21:01.000Z</time>
        <extensions>
          <ns3:TrackPointExtension>
            <ns3:hr>155</ns3:hr>
            <ns3:cad>0</ns3:cad>
          </ns3:TrackPointExtension>
        </extensions>
      </trkpt>
      <trkpt lat="44.67565244995057582855224609375" lon="6.8158580549061298370361328125">
        <ele>2107.60009765625</ele>
        <time>2026-08-31T06:21:02.000Z</time>
        <extensions>
          <ns3:TrackPointExtension>
            <ns3:hr>155</ns3:hr>
            <ns3:cad>0</ns3:cad>
          </ns3:TrackPointExtension>
        </extensions>
      </trkpt>
      <trkpt lat="44.6756620891392230987548828125" lon="6.81584707461297512054443359375">
        <ele>2107.60009765625</ele>
        <time>2026-08-31T06:21:03.000Z</time>
        <extensions>
          <ns3:TrackPointExtension>
            <ns3:hr>156</ns3:hr>
            <ns3:cad>0</ns3:cad>
          </ns3:TrackPointExtension>
        </extensions>
      </trkpt>
      <trkpt lat="44.6756686270236968994140625" lon="6.8158369325101375579833984375">
        <ele>2107.60009765625</ele>
        <time>2026-08-31T06:21:04.000Z</time>
        <extensions>
          <ns3:TrackPointExtension>
            <ns3:hr>155</ns3:hr>
            <ns3:cad>50</ns3:cad>
          </ns3:TrackPointExtension>
        </extensions>
      </trkpt>
      <trkpt lat="44.67567734420299530029296875" lon="6.81582746095955371856689453125">
        <ele>2107.800048828125</ele>
        <time>2026-08-31T06:21:05.000Z</time>
        <extensions>
          <ns3:TrackPointExtension>
            <ns3:hr>155</ns3:hr>
            <ns3:cad>50</ns3:cad>
          </ns3:TrackPointExtension>
        </extensions>
      </trkpt>
      <trkpt lat="44.67568396590650081634521484375" lon="6.815820001065731048583984375">
        <ele>2107.800048828125</ele>
        <time>2026-08-31T06:21:06.000Z</time>
        <extensions>
          <ns3:TrackPointExtension>
            <ns3:hr>154</ns3:hr>
            <ns3:cad>0</ns3:cad>
          </ns3:TrackPointExtension>
        </extensions>
      </trkpt>
      <trkpt lat="44.67569218017160892486572265625" lon="6.81581296026706695556640625">
        <ele>2108</ele>
        <time>2026-08-31T06:21:07.000Z</time>
        <extensions>
          <ns3:TrackPointExtension>
            <ns3:hr>153</ns3:hr>
            <ns3:cad>0</ns3:cad>
          </ns3:TrackPointExtension>
        </extensions>
      </trkpt>
      <trkpt lat="44.6756999753415584564208984375" lon="6.81580650620162487030029296875">
        <ele>2108.199951171875</ele>
        <time>2026-08-31T06:21:08.000Z</time>
        <extensions>
          <ns3:TrackPointExtension>
            <ns3:hr>152</ns3:hr>
            <ns3:cad>51</ns3:cad>
          </ns3:TrackPointExtension>
        </extensions>
      </trkpt>
      <trkpt lat="44.67570441775023937225341796875" lon="6.81580348871648311614990234375">
        <ele>2108.199951171875</ele>
        <time>2026-08-31T06:21:09.000Z</time>
        <extensions>
          <ns3:TrackPointExtension>
            <ns3:hr>152</ns3:hr>
            <ns3:cad>51</ns3:cad>
          </ns3:TrackPointExtension>
        </extensions>
      </trkpt>
      <trkpt lat="44.675706513226032257080078125" lon="6.81580197997391223907470703125">
        <ele>2108.39990234375</ele>
        <time>2026-08-31T06:21:10.000Z</time>
        <extensions>
          <ns3:TrackPointExtension>
            <ns3:hr>152</ns3:hr>
            <ns3:cad>0</ns3:cad>
          </ns3:TrackPointExtension>
        </extensions>
      </trkpt>
      <trkpt lat="44.67570944689214229583740234375" lon="6.8158002197742462158203125">
        <ele>2108.39990234375</ele>
        <time>2026-08-31T06:21:11.000Z</time>
        <extensions>
          <ns3:TrackPointExtension>
            <ns3:hr>151</ns3:hr>
            <ns3:cad>0</ns3:cad>
          </ns3:TrackPointExtension>
        </extensions>
      </trkpt>
      <trkpt lat="44.67571246437728404998779296875" lon="6.81579745374619960784912109375">
        <ele>2108.39990234375</ele>
        <time>2026-08-31T06:21:12.000Z</time>
        <extensions>
          <ns3:TrackPointExtension>
            <ns3:hr>151</ns3:hr>
            <ns3:cad>0</ns3:cad>
          </ns3:TrackPointExtension>
        </extensions>
      </trkpt>
      <trkpt lat="44.67571556568145751953125" lon="6.8157950229942798614501953125">
        <ele>2108.39990234375</ele>
        <time>2026-08-31T06:21:13.000Z</time>
        <extensions>
          <ns3:TrackPointExtension>
            <ns3:hr>151</ns3:hr>
            <ns3:cad>0</ns3:cad>
          </ns3:TrackPointExtension>
        </extensions>
      </trkpt>
      <trkpt lat="44.67572201974689960479736328125" lon="6.81578840129077434539794921875">
        <ele>2108.39990234375</ele>
        <time>2026-08-31T06:21:14.000Z</time>
        <extensions>
          <ns3:TrackPointExtension>
            <ns3:hr>152</ns3:hr>
            <ns3:cad>0</ns3:cad>
          </ns3:TrackPointExtension>
        </extensions>
      </trkpt>
      <trkpt lat="44.6757298149168491363525390625" lon="6.8157812766730785369873046875">
        <ele>2108.39990234375</ele>
        <time>2026-08-31T06:21:15.000Z</time>
        <extensions>
          <ns3:TrackPointExtension>
            <ns3:hr>152</ns3:hr>
            <ns3:cad>0</ns3:cad>
          </ns3:TrackPointExtension>
        </extensions>
      </trkpt>
      <trkpt lat="44.6757375262677669525146484375" lon="6.81577281095087528228759765625">
        <ele>2108.60009765625</ele>
        <time>2026-08-31T06:21:16.000Z</time>
        <extensions>
          <ns3:TrackPointExtension>
            <ns3:hr>152</ns3:hr>
            <ns3:cad>0</ns3:cad>
          </ns3:TrackPointExtension>
        </extensions>
      </trkpt>
      <trkpt lat="44.67574850656092166900634765625" lon="6.8157598190009593963623046875">
        <ele>2108.60009765625</ele>
        <time>2026-08-31T06:21:17.000Z</time>
        <extensions>
          <ns3:TrackPointExtension>
            <ns3:hr>153</ns3:hr>
            <ns3:cad>0</ns3:cad>
          </ns3:TrackPointExtension>
        </extensions>
      </trkpt>
      <trkpt lat="44.67575839720666408538818359375" lon="6.81574967689812183380126953125">
        <ele>2108.800048828125</ele>
        <time>2026-08-31T06:21:18.000Z</time>
        <extensions>
          <ns3:TrackPointExtension>
            <ns3:hr>153</ns3:hr>
            <ns3:cad>0</ns3:cad>
          </ns3:TrackPointExtension>
        </extensions>
      </trkpt>
      <trkpt lat="44.67576040886342525482177734375" lon="6.815752945840358734130859375">
        <ele>2109</ele>
        <time>2026-08-31T06:21:19.000Z</time>
        <extensions>
          <ns3:TrackPointExtension>
            <ns3:hr>153</ns3:hr>
            <ns3:cad>52</ns3:cad>
          </ns3:TrackPointExtension>
        </extensions>
      </trkpt>
      <trkpt lat="44.67577080242335796356201171875" lon="6.8157410435378551483154296875">
        <ele>2109.199951171875</ele>
        <time>2026-08-31T06:21:20.000Z</time>
        <extensions>
          <ns3:TrackPointExtension>
            <ns3:hr>153</ns3:hr>
            <ns3:cad>53</ns3:cad>
          </ns3:TrackPointExtension>
        </extensions>
      </trkpt>
      <trkpt lat="44.6757780946791172027587890625" lon="6.81573257781565189361572265625">
        <ele>2109.39990234375</ele>
        <time>2026-08-31T06:21:21.000Z</time>
        <extensions>
          <ns3:TrackPointExtension>
            <ns3:hr>152</ns3:hr>
            <ns3:cad>53</ns3:cad>
          </ns3:TrackPointExtension>
        </extensions>
      </trkpt>
      <trkpt lat="44.67578572221100330352783203125" lon="6.81572251953184604644775390625">
        <ele>2109.60009765625</ele>
        <time>2026-08-31T06:21:22.000Z</time>
        <extensions>
          <ns3:TrackPointExtension>
            <ns3:hr>152</ns3:hr>
            <ns3:cad>53</ns3:cad>
          </ns3:TrackPointExtension>
        </extensions>
      </trkpt>
      <trkpt lat="44.67579108662903308868408203125" lon="6.81570810265839099884033203125">
        <ele>2109.800048828125</ele>
        <time>2026-08-31T06:21:23.000Z</time>
        <extensions>
          <ns3:TrackPointExtension>
            <ns3:hr>152</ns3:hr>
            <ns3:cad>53</ns3:cad>
          </ns3:TrackPointExtension>
        </extensions>
      </trkpt>
      <trkpt lat="44.67579980380833148956298828125" lon="6.81569360196590423583984375">
        <ele>2110</ele>
        <time>2026-08-31T06:21:24.000Z</time>
        <extensions>
          <ns3:TrackPointExtension>
            <ns3:hr>152</ns3:hr>
            <ns3:cad>0</ns3:cad>
          </ns3:TrackPointExtension>
        </extensions>
      </trkpt>
      <trkpt lat="44.67580885626375675201416015625" lon="6.81568077765405178070068359375">
        <ele>2110.199951171875</ele>
        <time>2026-08-31T06:21:25.000Z</time>
        <extensions>
          <ns3:TrackPointExtension>
            <ns3:hr>152</ns3:hr>
            <ns3:cad>0</ns3:cad>
          </ns3:TrackPointExtension>
        </extensions>
      </trkpt>
      <trkpt lat="44.675815813243389129638671875" lon="6.81566937826573848724365234375">
        <ele>2110.39990234375</ele>
        <time>2026-08-31T06:21:26.000Z</time>
        <extensions>
          <ns3:TrackPointExtension>
            <ns3:hr>152</ns3:hr>
            <ns3:cad>0</ns3:cad>
          </ns3:TrackPointExtension>
        </extensions>
      </trkpt>
      <trkpt lat="44.675823859870433807373046875" lon="6.81565797887742519378662109375">
        <ele>2110.60009765625</ele>
        <time>2026-08-31T06:21:27.000Z</time>
        <extensions>
          <ns3:TrackPointExtension>
            <ns3:hr>152</ns3:hr>
            <ns3:cad>0</ns3:cad>
          </ns3:TrackPointExtension>
        </extensions>
      </trkpt>
      <trkpt lat="44.67582897283136844635009765625" lon="6.815649010241031646728515625">
        <ele>2110.800048828125</ele>
        <time>2026-08-31T06:21:28.000Z</time>
        <extensions>
          <ns3:TrackPointExtension>
            <ns3:hr>152</ns3:hr>
            <ns3:cad>0</ns3:cad>
          </ns3:TrackPointExtension>
        </extensions>
      </trkpt>
      <trkpt lat="44.67583484016358852386474609375" lon="6.8156404606997966766357421875">
        <ele>2110.800048828125</ele>
        <time>2026-08-31T06:21:29.000Z</time>
        <extensions>
          <ns3:TrackPointExtension>
            <ns3:hr>152</ns3:hr>
            <ns3:cad>0</ns3:cad>
          </ns3:TrackPointExtension>
        </extensions>
      </trkpt>
      <trkpt lat="44.6758407913148403167724609375" lon="6.8156330846250057220458984375">
        <ele>2111</ele>
        <time>2026-08-31T06:21:30.000Z</time>
        <extensions>
          <ns3:TrackPointExtension>
            <ns3:hr>151</ns3:hr>
            <ns3:cad>0</ns3:cad>
          </ns3:TrackPointExtension>
        </extensions>
      </trkpt>
      <trkpt lat="44.67584774829447269439697265625" lon="6.81562411598861217498779296875">
        <ele>2111.199951171875</ele>
        <time>2026-08-31T06:21:31.000Z</time>
        <extensions>
          <ns3:TrackPointExtension>
            <ns3:hr>151</ns3:hr>
            <ns3:cad>0</ns3:cad>
          </ns3:TrackPointExtension>
        </extensions>
      </trkpt>
      <trkpt lat="44.6758535318076610565185546875" lon="6.8156186677515506744384765625">
        <ele>2111.39990234375</ele>
        <time>2026-08-31T06:21:32.000Z</time>
        <extensions>
          <ns3:TrackPointExtension>
            <ns3:hr>151</ns3:hr>
            <ns3:cad>0</ns3:cad>
          </ns3:TrackPointExtension>
        </extensions>
      </trkpt>
      <trkpt lat="44.67585847713053226470947265625" lon="6.81561891920864582061767578125">
        <ele>2111.60009765625</ele>
        <time>2026-08-31T06:21:33.000Z</time>
        <extensions>
          <ns3:TrackPointExtension>
            <ns3:hr>151</ns3:hr>
            <ns3:cad>0</ns3:cad>
          </ns3:TrackPointExtension>
        </extensions>
      </trkpt>
      <trkpt lat="44.67586803250014781951904296875" lon="6.8156112916767597198486328125">
        <ele>2111.800048828125</ele>
        <time>2026-08-31T06:21:34.000Z</time>
        <extensions>
          <ns3:TrackPointExtension>
            <ns3:hr>152</ns3:hr>
            <ns3:cad>0</ns3:cad>
          </ns3:TrackPointExtension>
        </extensions>
      </trkpt>
      <trkpt lat="44.6758709661662578582763671875" lon="6.81560869328677654266357421875">
        <ele>2112</ele>
        <time>2026-08-31T06:21:35.000Z</time>
        <extensions>
          <ns3:TrackPointExtension>
            <ns3:hr>154</ns3:hr>
            <ns3:cad>0</ns3:cad>
          </ns3:TrackPointExtension>
        </extensions>
      </trkpt>
      <trkpt lat="44.67587649822235107421875" lon="6.81559695862233638763427734375">
        <ele>2112.199951171875</ele>
        <time>2026-08-31T06:21:36.000Z</time>
        <extensions>
          <ns3:TrackPointExtension>
            <ns3:hr>155</ns3:hr>
            <ns3:cad>0</ns3:cad>
          </ns3:TrackPointExtension>
        </extensions>
      </trkpt>
      <trkpt lat="44.675878845155239105224609375" lon="6.81559477932751178741455078125">
        <ele>2112.39990234375</ele>
        <time>2026-08-31T06:21:37.000Z</time>
        <extensions>
          <ns3:TrackPointExtension>
            <ns3:hr>155</ns3:hr>
            <ns3:cad>0</ns3:cad>
          </ns3:TrackPointExtension>
        </extensions>
      </trkpt>
      <trkpt lat="44.67588345520198345184326171875" lon="6.815587319433689117431640625">
        <ele>2112.60009765625</ele>
        <time>2026-08-31T06:21:38.000Z</time>
        <extensions>
          <ns3:TrackPointExtension>
            <ns3:hr>155</ns3:hr>
            <ns3:cad>0</ns3:cad>
          </ns3:TrackPointExtension>
        </extensions>
      </trkpt>
      <trkpt lat="44.6758837066590785980224609375" lon="6.8155888281762599945068359375">
        <ele>2112.800048828125</ele>
        <time>2026-08-31T06:21:39.000Z</time>
        <extensions>
          <ns3:TrackPointExtension>
            <ns3:hr>155</ns3:hr>
            <ns3:cad>53</ns3:cad>
          </ns3:TrackPointExtension>
        </extensions>
      </trkpt>
      <trkpt lat="44.67588923871517181396484375" lon="6.8155767582356929779052734375">
        <ele>2113</ele>
        <time>2026-08-31T06:21:40.000Z</time>
        <extensions>
          <ns3:TrackPointExtension>
            <ns3:hr>154</ns3:hr>
            <ns3:cad>53</ns3:cad>
          </ns3:TrackPointExtension>
        </extensions>
      </trkpt>
      <trkpt lat="44.6758944354951381683349609375" lon="6.8155677057802677154541015625">
        <ele>2113.199951171875</ele>
        <time>2026-08-31T06:21:41.000Z</time>
        <extensions>
          <ns3:TrackPointExtension>
            <ns3:hr>154</ns3:hr>
            <ns3:cad>54</ns3:cad>
          </ns3:TrackPointExtension>
        </extensions>
      </trkpt>
      <trkpt lat="44.6758987940847873687744140625" lon="6.81556284427642822265625">
        <ele>2113.39990234375</ele>
        <time>2026-08-31T06:21:42.000Z</time>
        <extensions>
          <ns3:TrackPointExtension>
            <ns3:hr>153</ns3:hr>
            <ns3:cad>41</ns3:cad>
          </ns3:TrackPointExtension>
        </extensions>
      </trkpt>
      <trkpt lat="44.67590491287410259246826171875" lon="6.81555454619228839874267578125">
        <ele>2113.60009765625</ele>
        <time>2026-08-31T06:21:43.000Z</time>
        <extensions>
          <ns3:TrackPointExtension>
            <ns3:hr>152</ns3:hr>
            <ns3:cad>41</ns3:cad>
          </ns3:TrackPointExtension>
        </extensions>
      </trkpt>
      <trkpt lat="44.6759098581969738006591796875" lon="6.81554717011749744415283203125">
        <ele>2113.800048828125</ele>
        <time>2026-08-31T06:21:44.000Z</time>
        <extensions>
          <ns3:TrackPointExtension>
            <ns3:hr>152</ns3:hr>
            <ns3:cad>0</ns3:cad>
          </ns3:TrackPointExtension>
        </extensions>
      </trkpt>
      <trkpt lat="44.675918407738208770751953125" lon="6.81553669273853302001953125">
        <ele>2114</ele>
        <time>2026-08-31T06:21:45.000Z</time>
        <extensions>
          <ns3:TrackPointExtension>
            <ns3:hr>152</ns3:hr>
            <ns3:cad>0</ns3:cad>
          </ns3:TrackPointExtension>
        </extensions>
      </trkpt>
      <trkpt lat="44.67592469416558742523193359375" lon="6.81552872993052005767822265625">
        <ele>2114.199951171875</ele>
        <time>2026-08-31T06:21:46.000Z</time>
        <extensions>
          <ns3:TrackPointExtension>
            <ns3:hr>152</ns3:hr>
            <ns3:cad>0</ns3:cad>
          </ns3:TrackPointExtension>
        </extensions>
      </trkpt>
      <trkpt lat="44.6759343333542346954345703125" lon="6.81551464833319187164306640625">
        <ele>2114.39990234375</ele>
        <time>2026-08-31T06:21:47.000Z</time>
        <extensions>
          <ns3:TrackPointExtension>
            <ns3:hr>153</ns3:hr>
            <ns3:cad>0</ns3:cad>
          </ns3:TrackPointExtension>
        </extensions>
      </trkpt>
      <trkpt lat="44.67594129033386707305908203125" lon="6.81550241075456142425537109375">
        <ele>2114.60009765625</ele>
        <time>2026-08-31T06:21:48.000Z</time>
        <extensions>
          <ns3:TrackPointExtension>
            <ns3:hr>153</ns3:hr>
            <ns3:cad>0</ns3:cad>
          </ns3:TrackPointExtension>
        </extensions>
      </trkpt>
      <trkpt lat="44.675952605903148651123046875" lon="6.815488748252391815185546875">
        <ele>2115</ele>
        <time>2026-08-31T06:21:49.000Z</time>
        <extensions>
          <ns3:TrackPointExtension>
            <ns3:hr>153</ns3:hr>
            <ns3:cad>0</ns3:cad>
          </ns3:TrackPointExtension>
        </extensions>
      </trkpt>
      <trkpt lat="44.675959646701812744140625" lon="6.8154805339872837066650390625">
        <ele>2115</ele>
        <time>2026-08-31T06:21:50.000Z</time>
        <extensions>
          <ns3:TrackPointExtension>
            <ns3:hr>153</ns3:hr>
            <ns3:cad>0</ns3:cad>
          </ns3:TrackPointExtension>
        </extensions>
      </trkpt>
      <trkpt lat="44.67596325092017650604248046875" lon="6.81547525338828563690185546875">
        <ele>2115.39990234375</ele>
        <time>2026-08-31T06:21:51.000Z</time>
        <extensions>
          <ns3:TrackPointExtension>
            <ns3:hr>153</ns3:hr>
            <ns3:cad>0</ns3:cad>
          </ns3:TrackPointExtension>
        </extensions>
      </trkpt>
      <trkpt lat="44.6759742312133312225341796875" lon="6.8154627643525600433349609375">
        <ele>2115.60009765625</ele>
        <time>2026-08-31T06:21:52.000Z</time>
        <extensions>
          <ns3:TrackPointExtension>
            <ns3:hr>154</ns3:hr>
            <ns3:cad>0</ns3:cad>
          </ns3:TrackPointExtension>
        </extensions>
      </trkpt>
      <trkpt lat="44.675980769097805023193359375" lon="6.81545530445873737335205078125">
        <ele>2115.800048828125</ele>
        <time>2026-08-31T06:21:53.000Z</time>
        <extensions>
          <ns3:TrackPointExtension>
            <ns3:hr>155</ns3:hr>
            <ns3:cad>0</ns3:cad>
          </ns3:TrackPointExtension>
        </extensions>
      </trkpt>
      <trkpt lat="44.6759926714003086090087890625" lon="6.815445162355899810791015625">
        <ele>2116</ele>
        <time>2026-08-31T06:21:54.000Z</time>
        <extensions>
          <ns3:TrackPointExtension>
            <ns3:hr>155</ns3:hr>
            <ns3:cad>0</ns3:cad>
          </ns3:TrackPointExtension>
        </extensions>
      </trkpt>
      <trkpt lat="44.6760003827512264251708984375" lon="6.81544147431850433349609375">
        <ele>2116.199951171875</ele>
        <time>2026-08-31T06:21:55.000Z</time>
        <extensions>
          <ns3:TrackPointExtension>
            <ns3:hr>155</ns3:hr>
            <ns3:cad>0</ns3:cad>
          </ns3:TrackPointExtension>
        </extensions>
      </trkpt>
      <trkpt lat="44.676010273396968841552734375" lon="6.81543401442468166351318359375">
        <ele>2116.39990234375</ele>
        <time>2026-08-31T06:21:56.000Z</time>
        <extensions>
          <ns3:TrackPointExtension>
            <ns3:hr>155</ns3:hr>
            <ns3:cad>0</ns3:cad>
          </ns3:TrackPointExtension>
        </extensions>
      </trkpt>
      <trkpt lat="44.67601790092885494232177734375" lon="6.81542781181633472442626953125">
        <ele>2116.60009765625</ele>
        <time>2026-08-31T06:21:57.000Z</time>
        <extensions>
          <ns3:TrackPointExtension>
            <ns3:hr>155</ns3:hr>
            <ns3:cad>0</ns3:cad>
          </ns3:TrackPointExtension>
        </extensions>
      </trkpt>
      <trkpt lat="44.6760144643485546112060546875" lon="6.8154195137321949005126953125">
        <ele>2116.800048828125</ele>
        <time>2026-08-31T06:21:58.000Z</time>
        <extensions>
          <ns3:TrackPointExtension>
            <ns3:hr>155</ns3:hr>
            <ns3:cad>0</ns3:cad>
          </ns3:TrackPointExtension>
        </extensions>
      </trkpt>
      <trkpt lat="44.6760213375091552734375" lon="6.81541037745773792266845703125">
        <ele>2117</ele>
        <time>2026-08-31T06:21:59.000Z</time>
        <extensions>
          <ns3:TrackPointExtension>
            <ns3:hr>155</ns3:hr>
            <ns3:cad>41</ns3:cad>
          </ns3:TrackPointExtension>
        </extensions>
      </trkpt>
      <trkpt lat="44.67602158896625041961669921875" lon="6.81540283374488353729248046875">
        <ele>2117.199951171875</ele>
        <time>2026-08-31T06:22:00.000Z</time>
        <extensions>
          <ns3:TrackPointExtension>
            <ns3:hr>156</ns3:hr>
            <ns3:cad>41</ns3:cad>
          </ns3:TrackPointExtension>
        </extensions>
      </trkpt>
      <trkpt lat="44.6760315634310245513916015625" lon="6.8153936974704265594482421875">
        <ele>2117.39990234375</ele>
        <time>2026-08-31T06:22:01.000Z</time>
        <extensions>
          <ns3:TrackPointExtension>
            <ns3:hr>156</ns3:hr>
            <ns3:cad>41</ns3:cad>
          </ns3:TrackPointExtension>
        </extensions>
      </trkpt>
      <trkpt lat="44.676039777696132659912109375" lon="6.8153879977762699127197265625">
        <ele>2117.60009765625</ele>
        <time>2026-08-31T06:22:02.000Z</time>
        <extensions>
          <ns3:TrackPointExtension>
            <ns3:hr>156</ns3:hr>
            <ns3:cad>41</ns3:cad>
          </ns3:TrackPointExtension>
        </extensions>
      </trkpt>
      <trkpt lat="44.67605193145573139190673828125" lon="6.81537852622568607330322265625">
        <ele>2117.800048828125</ele>
        <time>2026-08-31T06:22:03.000Z</time>
        <extensions>
          <ns3:TrackPointExtension>
            <ns3:hr>156</ns3:hr>
            <ns3:cad>41</ns3:cad>
          </ns3:TrackPointExtension>
        </extensions>
      </trkpt>
      <trkpt lat="44.67605955898761749267578125" lon="6.815370060503482818603515625">
        <ele>2118.199951171875</ele>
        <time>2026-08-31T06:22:04.000Z</time>
        <extensions>
          <ns3:TrackPointExtension>
            <ns3:hr>156</ns3:hr>
            <ns3:cad>41</ns3:cad>
          </ns3:TrackPointExtension>
        </extensions>
      </trkpt>
      <trkpt lat="44.67607171274721622467041015625" lon="6.81536125950515270233154296875">
        <ele>2118.39990234375</ele>
        <time>2026-08-31T06:22:05.000Z</time>
        <extensions>
          <ns3:TrackPointExtension>
            <ns3:hr>156</ns3:hr>
            <ns3:cad>41</ns3:cad>
          </ns3:TrackPointExtension>
        </extensions>
      </trkpt>
      <trkpt lat="44.6760798431932926177978515625" lon="6.815354637801647186279296875">
        <ele>2118.60009765625</ele>
        <time>2026-08-31T06:22:06.000Z</time>
        <extensions>
          <ns3:TrackPointExtension>
            <ns3:hr>154</ns3:hr>
            <ns3:cad>41</ns3:cad>
          </ns3:TrackPointExtension>
        </extensions>
      </trkpt>
      <trkpt lat="44.6760848723351955413818359375" lon="6.8153548054397106170654296875">
        <ele>2118.800048828125</ele>
        <time>2026-08-31T06:22:07.000Z</time>
        <extensions>
          <ns3:TrackPointExtension>
            <ns3:hr>154</ns3:hr>
            <ns3:cad>41</ns3:cad>
          </ns3:TrackPointExtension>
        </extensions>
      </trkpt>
      <trkpt lat="44.67609803192317485809326171875" lon="6.81534918956458568572998046875">
        <ele>2119</ele>
        <time>2026-08-31T06:22:08.000Z</time>
        <extensions>
          <ns3:TrackPointExtension>
            <ns3:hr>153</ns3:hr>
            <ns3:cad>41</ns3:cad>
          </ns3:TrackPointExtension>
        </extensions>
      </trkpt>
      <trkpt lat="44.67610607855021953582763671875" lon="6.81534332223236560821533203125">
        <ele>2119.199951171875</ele>
        <time>2026-08-31T06:22:09.000Z</time>
        <extensions>
          <ns3:TrackPointExtension>
            <ns3:hr>153</ns3:hr>
            <ns3:cad>41</ns3:cad>
          </ns3:TrackPointExtension>
        </extensions>
      </trkpt>
      <trkpt lat="44.676112197339534759521484375" lon="6.8153387121856212615966796875">
        <ele>2119.39990234375</ele>
        <time>2026-08-31T06:22:10.000Z</time>
        <extensions>
          <ns3:TrackPointExtension>
            <ns3:hr>153</ns3:hr>
            <ns3:cad>41</ns3:cad>
          </ns3:TrackPointExtension>
        </extensions>
      </trkpt>
      <trkpt lat="44.67611999250948429107666015625" lon="6.81533460505306720733642578125">
        <ele>2119.60009765625</ele>
        <time>2026-08-31T06:22:11.000Z</time>
        <extensions>
          <ns3:TrackPointExtension>
            <ns3:hr>153</ns3:hr>
            <ns3:cad>0</ns3:cad>
          </ns3:TrackPointExtension>
        </extensions>
      </trkpt>
      <trkpt lat="44.6761294640600681304931640625" lon="6.81532748043537139892578125">
        <ele>2119.800048828125</ele>
        <time>2026-08-31T06:22:12.000Z</time>
        <extensions>
          <ns3:TrackPointExtension>
            <ns3:hr>153</ns3:hr>
            <ns3:cad>0</ns3:cad>
          </ns3:TrackPointExtension>
        </extensions>
      </trkpt>
      <trkpt lat="44.6761378459632396697998046875" lon="6.81531784124672412872314453125">
        <ele>2120</ele>
        <time>2026-08-31T06:22:13.000Z</time>
        <extensions>
          <ns3:TrackPointExtension>
            <ns3:hr>153</ns3:hr>
            <ns3:cad>0</ns3:cad>
          </ns3:TrackPointExtension>
        </extensions>
      </trkpt>
      <trkpt lat="44.67614178545773029327392578125" lon="6.8153085373342037200927734375">
        <ele>2120.199951171875</ele>
        <time>2026-08-31T06:22:14.000Z</time>
        <extensions>
          <ns3:TrackPointExtension>
            <ns3:hr>154</ns3:hr>
            <ns3:cad>0</ns3:cad>
          </ns3:TrackPointExtension>
        </extensions>
      </trkpt>
      <trkpt lat="44.67615167610347270965576171875" lon="6.81529998779296875">
        <ele>2120.199951171875</ele>
        <time>2026-08-31T06:22:15.000Z</time>
        <extensions>
          <ns3:TrackPointExtension>
            <ns3:hr>154</ns3:hr>
            <ns3:cad>0</ns3:cad>
          </ns3:TrackPointExtension>
        </extensions>
      </trkpt>
      <trkpt lat="44.67614916153252124786376953125" lon="6.81529034860432147979736328125">
        <ele>2120.39990234375</ele>
        <time>2026-08-31T06:22:16.000Z</time>
        <extensions>
          <ns3:TrackPointExtension>
            <ns3:hr>154</ns3:hr>
            <ns3:cad>0</ns3:cad>
          </ns3:TrackPointExtension>
        </extensions>
      </trkpt>
      <trkpt lat="44.67615343630313873291015625" lon="6.81528062559664249420166015625">
        <ele>2120.60009765625</ele>
        <time>2026-08-31T06:22:17.000Z</time>
        <extensions>
          <ns3:TrackPointExtension>
            <ns3:hr>154</ns3:hr>
            <ns3:cad>0</ns3:cad>
          </ns3:TrackPointExtension>
        </extensions>
      </trkpt>
      <trkpt lat="44.67616039328277111053466796875" lon="6.81527241133153438568115234375">
        <ele>2121</ele>
        <time>2026-08-31T06:22:18.000Z</time>
        <extensions>
          <ns3:TrackPointExtension>
            <ns3:hr>154</ns3:hr>
            <ns3:cad>0</ns3:cad>
          </ns3:TrackPointExtension>
        </extensions>
      </trkpt>
      <trkpt lat="44.6761720441281795501708984375" lon="6.8152609281241893768310546875">
        <ele>2121.199951171875</ele>
        <time>2026-08-31T06:22:19.000Z</time>
        <extensions>
          <ns3:TrackPointExtension>
            <ns3:hr>154</ns3:hr>
            <ns3:cad>0</ns3:cad>
          </ns3:TrackPointExtension>
        </extensions>
      </trkpt>
      <trkpt lat="44.67617816291749477386474609375" lon="6.8152532167732715606689453125">
        <ele>2121.39990234375</ele>
        <time>2026-08-31T06:22:20.000Z</time>
        <extensions>
          <ns3:TrackPointExtension>
            <ns3:hr>154</ns3:hr>
            <ns3:cad>0</ns3:cad>
          </ns3:TrackPointExtension>
        </extensions>
      </trkpt>
      <trkpt lat="44.676184952259063720703125" lon="6.81524676270782947540283203125">
        <ele>2121.60009765625</ele>
        <time>2026-08-31T06:22:21.000Z</time>
        <extensions>
          <ns3:TrackPointExtension>
            <ns3:hr>154</ns3:hr>
            <ns3:cad>0</ns3:cad>
          </ns3:TrackPointExtension>
        </extensions>
      </trkpt>
      <trkpt lat="44.6761916577816009521484375" lon="6.81523896753787994384765625">
        <ele>2121.800048828125</ele>
        <time>2026-08-31T06:22:22.000Z</time>
        <extensions>
          <ns3:TrackPointExtension>
            <ns3:hr>155</ns3:hr>
            <ns3:cad>0</ns3:cad>
          </ns3:TrackPointExtension>
        </extensions>
      </trkpt>
      <trkpt lat="44.6761961840093135833740234375" lon="6.81523871608078479766845703125">
        <ele>2121.800048828125</ele>
        <time>2026-08-31T06:22:23.000Z</time>
        <extensions>
          <ns3:TrackPointExtension>
            <ns3:hr>155</ns3:hr>
            <ns3:cad>0</ns3:cad>
          </ns3:TrackPointExtension>
        </extensions>
      </trkpt>
      <trkpt lat="44.67620699666440486907958984375" lon="6.81523083709180355072021484375">
        <ele>2122</ele>
        <time>2026-08-31T06:22:24.000Z</time>
        <extensions>
          <ns3:TrackPointExtension>
            <ns3:hr>155</ns3:hr>
            <ns3:cad>0</ns3:cad>
          </ns3:TrackPointExtension>
        </extensions>
      </trkpt>
      <trkpt lat="44.676211774349212646484375" lon="6.81522698141634464263916015625">
        <ele>2122.199951171875</ele>
        <time>2026-08-31T06:22:25.000Z</time>
        <extensions>
          <ns3:TrackPointExtension>
            <ns3:hr>155</ns3:hr>
            <ns3:cad>0</ns3:cad>
          </ns3:TrackPointExtension>
        </extensions>
      </trkpt>
      <trkpt lat="44.67622593976557254791259765625" lon="6.815215833485126495361328125">
        <ele>2122.60009765625</ele>
        <time>2026-08-31T06:22:26.000Z</time>
        <extensions>
          <ns3:TrackPointExtension>
            <ns3:hr>155</ns3:hr>
            <ns3:cad>0</ns3:cad>
          </ns3:TrackPointExtension>
        </extensions>
      </trkpt>
      <trkpt lat="44.67623650096356868743896484375" lon="6.81520937941968441009521484375">
        <ele>2122.800048828125</ele>
        <time>2026-08-31T06:22:27.000Z</time>
        <extensions>
          <ns3:TrackPointExtension>
            <ns3:hr>155</ns3:hr>
            <ns3:cad>0</ns3:cad>
          </ns3:TrackPointExtension>
        </extensions>
      </trkpt>
      <trkpt lat="44.676242955029010772705078125" lon="6.81521306745707988739013671875">
        <ele>2123</ele>
        <time>2026-08-31T06:22:28.000Z</time>
        <extensions>
          <ns3:TrackPointExtension>
            <ns3:hr>155</ns3:hr>
            <ns3:cad>0</ns3:cad>
          </ns3:TrackPointExtension>
        </extensions>
      </trkpt>
      <trkpt lat="44.67625360004603862762451171875" lon="6.815210469067096710205078125">
        <ele>2123</ele>
        <time>2026-08-31T06:22:29.000Z</time>
        <extensions>
          <ns3:TrackPointExtension>
            <ns3:hr>154</ns3:hr>
            <ns3:cad>0</ns3:cad>
          </ns3:TrackPointExtension>
        </extensions>
      </trkpt>
      <trkpt lat="44.6762565337121486663818359375" lon="6.81520787067711353302001953125">
        <ele>2123.199951171875</ele>
        <time>2026-08-31T06:22:30.000Z</time>
        <extensions>
          <ns3:TrackPointExtension>
            <ns3:hr>154</ns3:hr>
            <ns3:cad>0</ns3:cad>
          </ns3:TrackPointExtension>
        </extensions>
      </trkpt>
      <trkpt lat="44.67626608908176422119140625" lon="6.81521348655223846435546875">
        <ele>2123.39990234375</ele>
        <time>2026-08-31T06:22:31.000Z</time>
        <extensions>
          <ns3:TrackPointExtension>
            <ns3:hr>154</ns3:hr>
            <ns3:cad>0</ns3:cad>
          </ns3:TrackPointExtension>
        </extensions>
      </trkpt>
      <trkpt lat="44.6762709505856037139892578125" lon="6.8152233771979808807373046875">
        <ele>2123.60009765625</ele>
        <time>2026-08-31T06:22:32.000Z</time>
        <extensions>
          <ns3:TrackPointExtension>
            <ns3:hr>153</ns3:hr>
            <ns3:cad>0</ns3:cad>
          </ns3:TrackPointExtension>
        </extensions>
      </trkpt>
      <trkpt lat="44.6762726269662380218505859375" lon="6.8152315914630889892578125">
        <ele>2123.800048828125</ele>
        <time>2026-08-31T06:22:33.000Z</time>
        <extensions>
          <ns3:TrackPointExtension>
            <ns3:hr>153</ns3:hr>
            <ns3:cad>0</ns3:cad>
          </ns3:TrackPointExtension>
        </extensions>
      </trkpt>
      <trkpt lat="44.67627304606139659881591796875" lon="6.81524206884205341339111328125">
        <ele>2124</ele>
        <time>2026-08-31T06:22:34.000Z</time>
        <extensions>
          <ns3:TrackPointExtension>
            <ns3:hr>154</ns3:hr>
            <ns3:cad>0</ns3:cad>
          </ns3:TrackPointExtension>
        </extensions>
      </trkpt>
      <trkpt lat="44.67626751400530338287353515625" lon="6.81524910964071750640869140625">
        <ele>2124.199951171875</ele>
        <time>2026-08-31T06:22:35.000Z</time>
        <extensions>
          <ns3:TrackPointExtension>
            <ns3:hr>154</ns3:hr>
            <ns3:cad>0</ns3:cad>
          </ns3:TrackPointExtension>
        </extensions>
      </trkpt>
      <trkpt lat="44.67626298777759075164794921875" lon="6.8152584135532379150390625">
        <ele>2124.60009765625</ele>
        <time>2026-08-31T06:22:36.000Z</time>
        <extensions>
          <ns3:TrackPointExtension>
            <ns3:hr>154</ns3:hr>
            <ns3:cad>0</ns3:cad>
          </ns3:TrackPointExtension>
        </extensions>
      </trkpt>
      <trkpt lat="44.67626365832984447479248046875" lon="6.815260760486125946044921875">
        <ele>2124.800048828125</ele>
        <time>2026-08-31T06:22:37.000Z</time>
        <extensions>
          <ns3:TrackPointExtension>
            <ns3:hr>155</ns3:hr>
            <ns3:cad>0</ns3:cad>
          </ns3:TrackPointExtension>
        </extensions>
      </trkpt>
      <trkpt lat="44.6762629039585590362548828125" lon="6.81527316570281982421875">
        <ele>2124.800048828125</ele>
        <time>2026-08-31T06:22:38.000Z</time>
        <extensions>
          <ns3:TrackPointExtension>
            <ns3:hr>155</ns3:hr>
            <ns3:cad>0</ns3:cad>
          </ns3:TrackPointExtension>
        </extensions>
      </trkpt>
      <trkpt lat="44.676265753805637359619140625" lon="6.81527693755924701690673828125">
        <ele>2125.199951171875</ele>
        <time>2026-08-31T06:22:39.000Z</time>
        <extensions>
          <ns3:TrackPointExtension>
            <ns3:hr>155</ns3:hr>
            <ns3:cad>0</ns3:cad>
          </ns3:TrackPointExtension>
        </extensions>
      </trkpt>
      <trkpt lat="44.67626583762466907501220703125" lon="6.815292276442050933837890625">
        <ele>2125.39990234375</ele>
        <time>2026-08-31T06:22:40.000Z</time>
        <extensions>
          <ns3:TrackPointExtension>
            <ns3:hr>156</ns3:hr>
            <ns3:cad>0</ns3:cad>
          </ns3:TrackPointExtension>
        </extensions>
      </trkpt>
      <trkpt lat="44.67626784928143024444580078125" lon="6.81530191563069820404052734375">
        <ele>2125.39990234375</ele>
        <time>2026-08-31T06:22:41.000Z</time>
        <extensions>
          <ns3:TrackPointExtension>
            <ns3:hr>156</ns3:hr>
            <ns3:cad>0</ns3:cad>
          </ns3:TrackPointExtension>
        </extensions>
      </trkpt>
      <trkpt lat="44.676269777119159698486328125" lon="6.81531934998929500579833984375">
        <ele>2125.800048828125</ele>
        <time>2026-08-31T06:22:42.000Z</time>
        <extensions>
          <ns3:TrackPointExtension>
            <ns3:hr>155</ns3:hr>
            <ns3:cad>0</ns3:cad>
          </ns3:TrackPointExtension>
        </extensions>
      </trkpt>
      <trkpt lat="44.676272459328174591064453125" lon="6.81533242575824260711669921875">
        <ele>2126</ele>
        <time>2026-08-31T06:22:43.000Z</time>
        <extensions>
          <ns3:TrackPointExtension>
            <ns3:hr>155</ns3:hr>
            <ns3:cad>0</ns3:cad>
          </ns3:TrackPointExtension>
        </extensions>
      </trkpt>
      <trkpt lat="44.6762696094810962677001953125" lon="6.81533745490014553070068359375">
        <ele>2126.199951171875</ele>
        <time>2026-08-31T06:22:44.000Z</time>
        <extensions>
          <ns3:TrackPointExtension>
            <ns3:hr>155</ns3:hr>
            <ns3:cad>0</ns3:cad>
          </ns3:TrackPointExtension>
        </extensions>
      </trkpt>
      <trkpt lat="44.67626818455755710601806640625" lon="6.81534625589847564697265625">
        <ele>2126.39990234375</ele>
        <time>2026-08-31T06:22:45.000Z</time>
        <extensions>
          <ns3:TrackPointExtension>
            <ns3:hr>155</ns3:hr>
            <ns3:cad>0</ns3:cad>
          </ns3:TrackPointExtension>
        </extensions>
      </trkpt>
      <trkpt lat="44.6762669272720813751220703125" lon="6.8153521232306957244873046875">
        <ele>2126.60009765625</ele>
        <time>2026-08-31T06:22:46.000Z</time>
        <extensions>
          <ns3:TrackPointExtension>
            <ns3:hr>155</ns3:hr>
            <ns3:cad>0</ns3:cad>
          </ns3:TrackPointExtension>
        </extensions>
      </trkpt>
      <trkpt lat="44.6762642450630664825439453125" lon="6.8153574876487255096435546875">
        <ele>2126.800048828125</ele>
        <time>2026-08-31T06:22:47.000Z</time>
        <extensions>
          <ns3:TrackPointExtension>
            <ns3:hr>155</ns3:hr>
            <ns3:cad>0</ns3:cad>
          </ns3:TrackPointExtension>
        </extensions>
      </trkpt>
      <trkpt lat="44.67626634053885936737060546875" lon="6.8153668753802776336669921875">
        <ele>2127</ele>
        <time>2026-08-31T06:22:48.000Z</time>
        <extensions>
          <ns3:TrackPointExtension>
            <ns3:hr>155</ns3:hr>
            <ns3:cad>0</ns3:cad>
          </ns3:TrackPointExtension>
        </extensions>
      </trkpt>
      <trkpt lat="44.6762692742049694061279296875" lon="6.8153809569776058197021484375">
        <ele>2127.199951171875</ele>
        <time>2026-08-31T06:22:49.000Z</time>
        <extensions>
          <ns3:TrackPointExtension>
            <ns3:hr>156</ns3:hr>
            <ns3:cad>0</ns3:cad>
          </ns3:TrackPointExtension>
        </extensions>
      </trkpt>
      <trkpt lat="44.67626650817692279815673828125" lon="6.81539529003202915191650390625">
        <ele>2127.39990234375</ele>
        <time>2026-08-31T06:22:50.000Z</time>
        <extensions>
          <ns3:TrackPointExtension>
            <ns3:hr>155</ns3:hr>
            <ns3:cad>0</ns3:cad>
          </ns3:TrackPointExtension>
        </extensions>
      </trkpt>
      <trkpt lat="44.67626768164336681365966796875" lon="6.81540794670581817626953125">
        <ele>2127.60009765625</ele>
        <time>2026-08-31T06:22:51.000Z</time>
        <extensions>
          <ns3:TrackPointExtension>
            <ns3:hr>156</ns3:hr>
            <ns3:cad>0</ns3:cad>
          </ns3:TrackPointExtension>
        </extensions>
      </trkpt>
      <trkpt lat="44.67626600526273250579833984375" lon="6.8154171667993068695068359375">
        <ele>2127.800048828125</ele>
        <time>2026-08-31T06:22:52.000Z</time>
        <extensions>
          <ns3:TrackPointExtension>
            <ns3:hr>158</ns3:hr>
            <ns3:cad>0</ns3:cad>
          </ns3:TrackPointExtension>
        </extensions>
      </trkpt>
      <trkpt lat="44.67626608908176422119140625" lon="6.8154322542250156402587890625">
        <ele>2128</ele>
        <time>2026-08-31T06:22:53.000Z</time>
        <extensions>
          <ns3:TrackPointExtension>
            <ns3:hr>159</ns3:hr>
            <ns3:cad>0</ns3:cad>
          </ns3:TrackPointExtension>
        </extensions>
      </trkpt>
      <trkpt lat="44.67626449652016162872314453125" lon="6.81544071994721889495849609375">
        <ele>2128.199951171875</ele>
        <time>2026-08-31T06:22:54.000Z</time>
        <extensions>
          <ns3:TrackPointExtension>
            <ns3:hr>160</ns3:hr>
            <ns3:cad>0</ns3:cad>
          </ns3:TrackPointExtension>
        </extensions>
      </trkpt>
      <trkpt lat="44.67626382596790790557861328125" lon="6.8154406361281871795654296875">
        <ele>2128.39990234375</ele>
        <time>2026-08-31T06:22:55.000Z</time>
        <extensions>
          <ns3:TrackPointExtension>
            <ns3:hr>160</ns3:hr>
            <ns3:cad>0</ns3:cad>
          </ns3:TrackPointExtension>
        </extensions>
      </trkpt>
      <trkpt lat="44.67626064084470272064208984375" lon="6.815450526773929595947265625">
        <ele>2128.60009765625</ele>
        <time>2026-08-31T06:22:56.000Z</time>
        <extensions>
          <ns3:TrackPointExtension>
            <ns3:hr>160</ns3:hr>
            <ns3:cad>0</ns3:cad>
          </ns3:TrackPointExtension>
        </extensions>
      </trkpt>
      <trkpt lat="44.676261059939861297607421875" lon="6.81547290645539760589599609375">
        <ele>2129</ele>
        <time>2026-08-31T06:22:57.000Z</time>
        <extensions>
          <ns3:TrackPointExtension>
            <ns3:hr>160</ns3:hr>
            <ns3:cad>0</ns3:cad>
          </ns3:TrackPointExtension>
        </extensions>
      </trkpt>
      <trkpt lat="44.67626097612082958221435546875" lon="6.81548967026174068450927734375">
        <ele>2129</ele>
        <time>2026-08-31T06:22:58.000Z</time>
        <extensions>
          <ns3:TrackPointExtension>
            <ns3:hr>160</ns3:hr>
            <ns3:cad>0</ns3:cad>
          </ns3:TrackPointExtension>
        </extensions>
      </trkpt>
      <trkpt lat="44.676257707178592681884765625" lon="6.81549721397459506988525390625">
        <ele>2129.39990234375</ele>
        <time>2026-08-31T06:22:59.000Z</time>
        <extensions>
          <ns3:TrackPointExtension>
            <ns3:hr>160</ns3:hr>
            <ns3:cad>0</ns3:cad>
          </ns3:TrackPointExtension>
        </extensions>
      </trkpt>
      <trkpt lat="44.67625712044537067413330078125" lon="6.81550727225840091705322265625">
        <ele>2129.39990234375</ele>
        <time>2026-08-31T06:23:00.000Z</time>
        <extensions>
          <ns3:TrackPointExtension>
            <ns3:hr>160</ns3:hr>
            <ns3:cad>0</ns3:cad>
          </ns3:TrackPointExtension>
        </extensions>
      </trkpt>
      <trkpt lat="44.6762587130069732666015625" lon="6.8155105412006378173828125">
        <ele>2129.60009765625</ele>
        <time>2026-08-31T06:23:01.000Z</time>
        <extensions>
          <ns3:TrackPointExtension>
            <ns3:hr>161</ns3:hr>
            <ns3:cad>0</ns3:cad>
          </ns3:TrackPointExtension>
        </extensions>
      </trkpt>
      <trkpt lat="44.67625929974019527435302734375" lon="6.8155207671225070953369140625">
        <ele>2129.800048828125</ele>
        <time>2026-08-31T06:23:02.000Z</time>
        <extensions>
          <ns3:TrackPointExtension>
            <ns3:hr>161</ns3:hr>
            <ns3:cad>0</ns3:cad>
          </ns3:TrackPointExtension>
        </extensions>
      </trkpt>
      <trkpt lat="44.6762572042644023895263671875" lon="6.81552202440798282623291015625">
        <ele>2130</ele>
        <time>2026-08-31T06:23:03.000Z</time>
        <extensions>
          <ns3:TrackPointExtension>
            <ns3:hr>161</ns3:hr>
            <ns3:cad>0</ns3:cad>
          </ns3:TrackPointExtension>
        </extensions>
      </trkpt>
      <trkpt lat="44.67625527642667293548583984375" lon="6.81553090922534465789794921875">
        <ele>2130.199951171875</ele>
        <time>2026-08-31T06:23:04.000Z</time>
        <extensions>
          <ns3:TrackPointExtension>
            <ns3:hr>161</ns3:hr>
            <ns3:cad>0</ns3:cad>
          </ns3:TrackPointExtension>
        </extensions>
      </trkpt>
      <trkpt lat="44.6762518398463726043701171875" lon="6.81554499082267284393310546875">
        <ele>2130.39990234375</ele>
        <time>2026-08-31T06:23:05.000Z</time>
        <extensions>
          <ns3:TrackPointExtension>
            <ns3:hr>162</ns3:hr>
            <ns3:cad>0</ns3:cad>
          </ns3:TrackPointExtension>
        </extensions>
      </trkpt>
      <trkpt lat="44.6762474812567234039306640625" lon="6.81555949151515960693359375">
        <ele>2130.60009765625</ele>
        <time>2026-08-31T06:23:06.000Z</time>
        <extensions>
          <ns3:TrackPointExtension>
            <ns3:hr>162</ns3:hr>
            <ns3:cad>0</ns3:cad>
          </ns3:TrackPointExtension>
        </extensions>
      </trkpt>
      <trkpt lat="44.67624806798994541168212890625" lon="6.8155707232654094696044921875">
        <ele>2130.800048828125</ele>
        <time>2026-08-31T06:23:07.000Z</time>
        <extensions>
          <ns3:TrackPointExtension>
            <ns3:hr>162</ns3:hr>
            <ns3:cad>0</ns3:cad>
          </ns3:TrackPointExtension>
        </extensions>
      </trkpt>
      <trkpt lat="44.6762498281896114349365234375" lon="6.81557835079729557037353515625">
        <ele>2131</ele>
        <time>2026-08-31T06:23:08.000Z</time>
        <extensions>
          <ns3:TrackPointExtension>
            <ns3:hr>162</ns3:hr>
            <ns3:cad>0</ns3:cad>
          </ns3:TrackPointExtension>
        </extensions>
      </trkpt>
      <trkpt lat="44.676256366074085235595703125" lon="6.81557566858828067779541015625">
        <ele>2131.199951171875</ele>
        <time>2026-08-31T06:23:09.000Z</time>
        <extensions>
          <ns3:TrackPointExtension>
            <ns3:hr>161</ns3:hr>
            <ns3:cad>78</ns3:cad>
          </ns3:TrackPointExtension>
        </extensions>
      </trkpt>
      <trkpt lat="44.6762568689882755279541015625" lon="6.815571226179599761962890625">
        <ele>2131.39990234375</ele>
        <time>2026-08-31T06:23:10.000Z</time>
        <extensions>
          <ns3:TrackPointExtension>
            <ns3:hr>161</ns3:hr>
            <ns3:cad>78</ns3:cad>
          </ns3:TrackPointExtension>
        </extensions>
      </trkpt>
      <trkpt lat="44.67625946737825870513916015625" lon="6.8155666999518871307373046875">
        <ele>2131.60009765625</ele>
        <time>2026-08-31T06:23:11.000Z</time>
        <extensions>
          <ns3:TrackPointExtension>
            <ns3:hr>160</ns3:hr>
            <ns3:cad>78</ns3:cad>
          </ns3:TrackPointExtension>
        </extensions>
      </trkpt>
      <trkpt lat="44.67626265250146389007568359375" lon="6.8155633471906185150146484375">
        <ele>2131.800048828125</ele>
        <time>2026-08-31T06:23:12.000Z</time>
        <extensions>
          <ns3:TrackPointExtension>
            <ns3:hr>160</ns3:hr>
            <ns3:cad>0</ns3:cad>
          </ns3:TrackPointExtension>
        </extensions>
      </trkpt>
      <trkpt lat="44.67626877129077911376953125" lon="6.8155589886009693145751953125">
        <ele>2132</ele>
        <time>2026-08-31T06:23:13.000Z</time>
        <extensions>
          <ns3:TrackPointExtension>
            <ns3:hr>160</ns3:hr>
            <ns3:cad>0</ns3:cad>
          </ns3:TrackPointExtension>
        </extensions>
      </trkpt>
      <trkpt lat="44.67627338133752346038818359375" lon="6.81555504910647869110107421875">
        <ele>2132.199951171875</ele>
        <time>2026-08-31T06:23:14.000Z</time>
        <extensions>
          <ns3:TrackPointExtension>
            <ns3:hr>160</ns3:hr>
            <ns3:cad>0</ns3:cad>
          </ns3:TrackPointExtension>
        </extensions>
      </trkpt>
      <trkpt lat="44.67628042213618755340576171875" lon="6.8155519478023052215576171875">
        <ele>2132.39990234375</ele>
        <time>2026-08-31T06:23:15.000Z</time>
        <extensions>
          <ns3:TrackPointExtension>
            <ns3:hr>159</ns3:hr>
            <ns3:cad>0</ns3:cad>
          </ns3:TrackPointExtension>
        </extensions>
      </trkpt>
      <trkpt lat="44.67628763057291507720947265625" lon="6.81554968468844890594482421875">
        <ele>2132.60009765625</ele>
        <time>2026-08-31T06:23:16.000Z</time>
        <extensions>
          <ns3:TrackPointExtension>
            <ns3:hr>159</ns3:hr>
            <ns3:cad>0</ns3:cad>
          </ns3:TrackPointExtension>
        </extensions>
      </trkpt>
      <trkpt lat="44.67629291117191314697265625" lon="6.81554834358394145965576171875">
        <ele>2132.800048828125</ele>
        <time>2026-08-31T06:23:17.000Z</time>
        <extensions>
          <ns3:TrackPointExtension>
            <ns3:hr>159</ns3:hr>
            <ns3:cad>0</ns3:cad>
          </ns3:TrackPointExtension>
        </extensions>
      </trkpt>
      <trkpt lat="44.67629902996122837066650390625" lon="6.815547086298465728759765625">
        <ele>2132.800048828125</ele>
        <time>2026-08-31T06:23:18.000Z</time>
        <extensions>
          <ns3:TrackPointExtension>
            <ns3:hr>160</ns3:hr>
            <ns3:cad>0</ns3:cad>
          </ns3:TrackPointExtension>
        </extensions>
      </trkpt>
      <trkpt lat="44.676302634179592132568359375" lon="6.815547086298465728759765625">
        <ele>2133</ele>
        <time>2026-08-31T06:23:19.000Z</time>
        <extensions>
          <ns3:TrackPointExtension>
            <ns3:hr>160</ns3:hr>
            <ns3:cad>0</ns3:cad>
          </ns3:TrackPointExtension>
        </extensions>
      </trkpt>
      <trkpt lat="44.6763016283512115478515625" lon="6.81554851122200489044189453125">
        <ele>2133.199951171875</ele>
        <time>2026-08-31T06:23:20.000Z</time>
        <extensions>
          <ns3:TrackPointExtension>
            <ns3:hr>160</ns3:hr>
            <ns3:cad>0</ns3:cad>
          </ns3:TrackPointExtension>
        </extensions>
      </trkpt>
      <trkpt lat="44.67629668302834033966064453125" lon="6.815541721880435943603515625">
        <ele>2133.39990234375</ele>
        <time>2026-08-31T06:23:21.000Z</time>
        <extensions>
          <ns3:TrackPointExtension>
            <ns3:hr>160</ns3:hr>
            <ns3:cad>0</ns3:cad>
          </ns3:TrackPointExtension>
        </extensions>
      </trkpt>
      <trkpt lat="44.67629919759929180145263671875" lon="6.815541721880435943603515625">
        <ele>2133.60009765625</ele>
        <time>2026-08-31T06:23:22.000Z</time>
        <extensions>
          <ns3:TrackPointExtension>
            <ns3:hr>160</ns3:hr>
            <ns3:cad>0</ns3:cad>
          </ns3:TrackPointExtension>
        </extensions>
      </trkpt>
      <trkpt lat="44.67630171217024326324462890625" lon="6.8155365251004695892333984375">
        <ele>2133.60009765625</ele>
        <time>2026-08-31T06:23:23.000Z</time>
        <extensions>
          <ns3:TrackPointExtension>
            <ns3:hr>160</ns3:hr>
            <ns3:cad>0</ns3:cad>
          </ns3:TrackPointExtension>
        </extensions>
      </trkpt>
      <trkpt lat="44.67630322091281414031982421875" lon="6.81553803384304046630859375">
        <ele>2133.60009765625</ele>
        <time>2026-08-31T06:23:24.000Z</time>
        <extensions>
          <ns3:TrackPointExtension>
            <ns3:hr>160</ns3:hr>
            <ns3:cad>0</ns3:cad>
          </ns3:TrackPointExtension>
        </extensions>
      </trkpt>
      <trkpt lat="44.67630858533084392547607421875" lon="6.81554113514721393585205078125">
        <ele>2133.60009765625</ele>
        <time>2026-08-31T06:23:25.000Z</time>
        <extensions>
          <ns3:TrackPointExtension>
            <ns3:hr>160</ns3:hr>
            <ns3:cad>0</ns3:cad>
          </ns3:TrackPointExtension>
        </extensions>
      </trkpt>
      <trkpt lat="44.67630959115922451019287109375" lon="6.8155454099178314208984375">
        <ele>2133.800048828125</ele>
        <time>2026-08-31T06:23:26.000Z</time>
        <extensions>
          <ns3:TrackPointExtension>
            <ns3:hr>159</ns3:hr>
            <ns3:cad>0</ns3:cad>
          </ns3:TrackPointExtension>
        </extensions>
      </trkpt>
      <trkpt lat="44.6763195656239986419677734375" lon="6.815547756850719451904296875">
        <ele>2134</ele>
        <time>2026-08-31T06:23:27.000Z</time>
        <extensions>
          <ns3:TrackPointExtension>
            <ns3:hr>157</ns3:hr>
            <ns3:cad>0</ns3:cad>
          </ns3:TrackPointExtension>
        </extensions>
      </trkpt>
      <trkpt lat="44.67632107436656951904296875" lon="6.81554683484137058258056640625">
        <ele>2134.199951171875</ele>
        <time>2026-08-31T06:23:28.000Z</time>
        <extensions>
          <ns3:TrackPointExtension>
            <ns3:hr>156</ns3:hr>
            <ns3:cad>0</ns3:cad>
          </ns3:TrackPointExtension>
        </extensions>
      </trkpt>
      <trkpt lat="44.67632886953651905059814453125" lon="6.81554733775556087493896484375">
        <ele>2134.60009765625</ele>
        <time>2026-08-31T06:23:29.000Z</time>
        <extensions>
          <ns3:TrackPointExtension>
            <ns3:hr>155</ns3:hr>
            <ns3:cad>0</ns3:cad>
          </ns3:TrackPointExtension>
        </extensions>
      </trkpt>
      <trkpt lat="44.6763339824974536895751953125" lon="6.81554784066975116729736328125">
        <ele>2134.800048828125</ele>
        <time>2026-08-31T06:23:30.000Z</time>
        <extensions>
          <ns3:TrackPointExtension>
            <ns3:hr>154</ns3:hr>
            <ns3:cad>0</ns3:cad>
          </ns3:TrackPointExtension>
        </extensions>
      </trkpt>
      <trkpt lat="44.67634194530546665191650390625" lon="6.81554717011749744415283203125">
        <ele>2135</ele>
        <time>2026-08-31T06:23:31.000Z</time>
        <extensions>
          <ns3:TrackPointExtension>
            <ns3:hr>153</ns3:hr>
            <ns3:cad>0</ns3:cad>
          </ns3:TrackPointExtension>
        </extensions>
      </trkpt>
      <trkpt lat="44.67634923756122589111328125" lon="6.81554364971816539764404296875">
        <ele>2135.199951171875</ele>
        <time>2026-08-31T06:23:32.000Z</time>
        <extensions>
          <ns3:TrackPointExtension>
            <ns3:hr>153</ns3:hr>
            <ns3:cad>0</ns3:cad>
          </ns3:TrackPointExtension>
        </extensions>
      </trkpt>
      <trkpt lat="44.67635787092149257659912109375" lon="6.81554465554654598236083984375">
        <ele>2135.39990234375</ele>
        <time>2026-08-31T06:23:33.000Z</time>
        <extensions>
          <ns3:TrackPointExtension>
            <ns3:hr>153</ns3:hr>
            <ns3:cad>0</ns3:cad>
          </ns3:TrackPointExtension>
        </extensions>
      </trkpt>
      <trkpt lat="44.67636558227241039276123046875" lon="6.8155412189662456512451171875">
        <ele>2135.60009765625</ele>
        <time>2026-08-31T06:23:34.000Z</time>
        <extensions>
          <ns3:TrackPointExtension>
            <ns3:hr>152</ns3:hr>
            <ns3:cad>0</ns3:cad>
          </ns3:TrackPointExtension>
        </extensions>
      </trkpt>
      <trkpt lat="44.67637337744235992431640625" lon="6.81554348208010196685791015625">
        <ele>2135.800048828125</ele>
        <time>2026-08-31T06:23:35.000Z</time>
        <extensions>
          <ns3:TrackPointExtension>
            <ns3:hr>152</ns3:hr>
            <ns3:cad>0</ns3:cad>
          </ns3:TrackPointExtension>
        </extensions>
      </trkpt>
      <trkpt lat="44.6763862855732440948486328125" lon="6.815544068813323974609375">
        <ele>2136</ele>
        <time>2026-08-31T06:23:36.000Z</time>
        <extensions>
          <ns3:TrackPointExtension>
            <ns3:hr>151</ns3:hr>
            <ns3:cad>0</ns3:cad>
          </ns3:TrackPointExtension>
        </extensions>
      </trkpt>
      <trkpt lat="44.67639642767608165740966796875" lon="6.81554398499429225921630859375">
        <ele>2136.199951171875</ele>
        <time>2026-08-31T06:23:37.000Z</time>
        <extensions>
          <ns3:TrackPointExtension>
            <ns3:hr>151</ns3:hr>
            <ns3:cad>0</ns3:cad>
          </ns3:TrackPointExtension>
        </extensions>
      </trkpt>
      <trkpt lat="44.67640548013150691986083984375" lon="6.815545074641704559326171875">
        <ele>2136.60009765625</ele>
        <time>2026-08-31T06:23:38.000Z</time>
        <extensions>
          <ns3:TrackPointExtension>
            <ns3:hr>151</ns3:hr>
            <ns3:cad>0</ns3:cad>
          </ns3:TrackPointExtension>
        </extensions>
      </trkpt>
      <trkpt lat="44.676417969167232513427734375" lon="6.81554884649813175201416015625">
        <ele>2136.800048828125</ele>
        <time>2026-08-31T06:23:39.000Z</time>
        <extensions>
          <ns3:TrackPointExtension>
            <ns3:hr>150</ns3:hr>
            <ns3:cad>0</ns3:cad>
          </ns3:TrackPointExtension>
        </extensions>
      </trkpt>
      <trkpt lat="44.6764258481562137603759765625" lon="6.81556628085672855377197265625">
        <ele>2137</ele>
        <time>2026-08-31T06:23:40.000Z</time>
        <extensions>
          <ns3:TrackPointExtension>
            <ns3:hr>150</ns3:hr>
            <ns3:cad>0</ns3:cad>
          </ns3:TrackPointExtension>
        </extensions>
      </trkpt>
      <trkpt lat="44.67642727307975292205810546875" lon="6.8155791051685810089111328125">
        <ele>2137</ele>
        <time>2026-08-31T06:23:41.000Z</time>
        <extensions>
          <ns3:TrackPointExtension>
            <ns3:hr>150</ns3:hr>
            <ns3:cad>0</ns3:cad>
          </ns3:TrackPointExtension>
        </extensions>
      </trkpt>
      <trkpt lat="44.6764332242310047149658203125" lon="6.81559762917459011077880859375">
        <ele>2137.39990234375</ele>
        <time>2026-08-31T06:23:42.000Z</time>
        <extensions>
          <ns3:TrackPointExtension>
            <ns3:hr>149</ns3:hr>
            <ns3:cad>0</ns3:cad>
          </ns3:TrackPointExtension>
        </extensions>
      </trkpt>
      <trkpt lat="44.6764308772981166839599609375" lon="6.81560802273452281951904296875">
        <ele>2137.60009765625</ele>
        <time>2026-08-31T06:23:43.000Z</time>
        <extensions>
          <ns3:TrackPointExtension>
            <ns3:hr>149</ns3:hr>
            <ns3:cad>0</ns3:cad>
          </ns3:TrackPointExtension>
        </extensions>
      </trkpt>
      <trkpt lat="44.676431715488433837890625" lon="6.8156200088560581207275390625">
        <ele>2137.800048828125</ele>
        <time>2026-08-31T06:23:44.000Z</time>
        <extensions>
          <ns3:TrackPointExtension>
            <ns3:hr>149</ns3:hr>
            <ns3:cad>0</ns3:cad>
          </ns3:TrackPointExtension>
        </extensions>
      </trkpt>
      <trkpt lat="44.67643263749778270721435546875" lon="6.815626211464405059814453125">
        <ele>2138</ele>
        <time>2026-08-31T06:23:45.000Z</time>
        <extensions>
          <ns3:TrackPointExtension>
            <ns3:hr>149</ns3:hr>
            <ns3:cad>0</ns3:cad>
          </ns3:TrackPointExtension>
        </extensions>
      </trkpt>
      <trkpt lat="44.676429368555545806884765625" lon="6.81563903577625751495361328125">
        <ele>2138.199951171875</ele>
        <time>2026-08-31T06:23:46.000Z</time>
        <extensions>
          <ns3:TrackPointExtension>
            <ns3:hr>149</ns3:hr>
            <ns3:cad>0</ns3:cad>
          </ns3:TrackPointExtension>
        </extensions>
      </trkpt>
      <trkpt lat="44.6764308772981166839599609375" lon="6.81564490310847759246826171875">
        <ele>2138.39990234375</ele>
        <time>2026-08-31T06:23:47.000Z</time>
        <extensions>
          <ns3:TrackPointExtension>
            <ns3:hr>148</ns3:hr>
            <ns3:cad>0</ns3:cad>
          </ns3:TrackPointExtension>
        </extensions>
      </trkpt>
      <trkpt lat="44.676433391869068145751953125" lon="6.81565814651548862457275390625">
        <ele>2138.60009765625</ele>
        <time>2026-08-31T06:23:48.000Z</time>
        <extensions>
          <ns3:TrackPointExtension>
            <ns3:hr>148</ns3:hr>
            <ns3:cad>0</ns3:cad>
          </ns3:TrackPointExtension>
        </extensions>
      </trkpt>
      <trkpt lat="44.67643213458359241485595703125" lon="6.8156669475138187408447265625">
        <ele>2138.800048828125</ele>
        <time>2026-08-31T06:23:49.000Z</time>
        <extensions>
          <ns3:TrackPointExtension>
            <ns3:hr>148</ns3:hr>
            <ns3:cad>0</ns3:cad>
          </ns3:TrackPointExtension>
        </extensions>
      </trkpt>
      <trkpt lat="44.67643112875521183013916015625" lon="6.81567440740764141082763671875">
        <ele>2139</ele>
        <time>2026-08-31T06:23:50.000Z</time>
        <extensions>
          <ns3:TrackPointExtension>
            <ns3:hr>148</ns3:hr>
            <ns3:cad>0</ns3:cad>
          </ns3:TrackPointExtension>
        </extensions>
      </trkpt>
      <trkpt lat="44.676431380212306976318359375" lon="6.81568496860563755035400390625">
        <ele>2139.199951171875</ele>
        <time>2026-08-31T06:23:51.000Z</time>
        <extensions>
          <ns3:TrackPointExtension>
            <ns3:hr>148</ns3:hr>
            <ns3:cad>0</ns3:cad>
          </ns3:TrackPointExtension>
        </extensions>
      </trkpt>
      <trkpt lat="44.67643531970679759979248046875" lon="6.81567977182567119598388671875">
        <ele>2139.39990234375</ele>
        <time>2026-08-31T06:23:52.000Z</time>
        <extensions>
          <ns3:TrackPointExtension>
            <ns3:hr>148</ns3:hr>
            <ns3:cad>0</ns3:cad>
          </ns3:TrackPointExtension>
        </extensions>
      </trkpt>
      <trkpt lat="44.6764349006116390228271484375" lon="6.81568915955722332000732421875">
        <ele>2139.60009765625</ele>
        <time>2026-08-31T06:23:53.000Z</time>
        <extensions>
          <ns3:TrackPointExtension>
            <ns3:hr>148</ns3:hr>
            <ns3:cad>0</ns3:cad>
          </ns3:TrackPointExtension>
        </extensions>
      </trkpt>
      <trkpt lat="44.67643263749778270721435546875" lon="6.81569720618426799774169921875">
        <ele>2139.800048828125</ele>
        <time>2026-08-31T06:23:54.000Z</time>
        <extensions>
          <ns3:TrackPointExtension>
            <ns3:hr>149</ns3:hr>
            <ns3:cad>0</ns3:cad>
          </ns3:TrackPointExtension>
        </extensions>
      </trkpt>
      <trkpt lat="44.67643666081130504608154296875" lon="6.81571103632450103759765625">
        <ele>2140</ele>
        <time>2026-08-31T06:23:55.000Z</time>
        <extensions>
          <ns3:TrackPointExtension>
            <ns3:hr>150</ns3:hr>
            <ns3:cad>0</ns3:cad>
          </ns3:TrackPointExtension>
        </extensions>
      </trkpt>
      <trkpt lat="44.676436074078083038330078125" lon="6.8157212622463703155517578125">
        <ele>2140.199951171875</ele>
        <time>2026-08-31T06:23:56.000Z</time>
        <extensions>
          <ns3:TrackPointExtension>
            <ns3:hr>150</ns3:hr>
            <ns3:cad>0</ns3:cad>
          </ns3:TrackPointExtension>
        </extensions>
      </trkpt>
      <trkpt lat="44.676432050764560699462890625" lon="6.8157323263585567474365234375">
        <ele>2140.39990234375</ele>
        <time>2026-08-31T06:23:57.000Z</time>
        <extensions>
          <ns3:TrackPointExtension>
            <ns3:hr>151</ns3:hr>
            <ns3:cad>0</ns3:cad>
          </ns3:TrackPointExtension>
        </extensions>
      </trkpt>
      <trkpt lat="44.67643129639327526092529296875" lon="6.81574280373752117156982421875">
        <ele>2140.60009765625</ele>
        <time>2026-08-31T06:23:58.000Z</time>
        <extensions>
          <ns3:TrackPointExtension>
            <ns3:hr>151</ns3:hr>
            <ns3:cad>79</ns3:cad>
          </ns3:TrackPointExtension>
        </extensions>
      </trkpt>
      <trkpt lat="44.6764345653355121612548828125" lon="6.815746240317821502685546875">
        <ele>2140.800048828125</ele>
        <time>2026-08-31T06:23:59.000Z</time>
        <extensions>
          <ns3:TrackPointExtension>
            <ns3:hr>152</ns3:hr>
            <ns3:cad>79</ns3:cad>
          </ns3:TrackPointExtension>
        </extensions>
      </trkpt>
      <trkpt lat="44.6764357388019561767578125" lon="6.81575738824903964996337890625">
        <ele>2141</ele>
        <time>2026-08-31T06:24:00.000Z</time>
        <extensions>
          <ns3:TrackPointExtension>
            <ns3:hr>152</ns3:hr>
            <ns3:cad>0</ns3:cad>
          </ns3:TrackPointExtension>
        </extensions>
      </trkpt>
      <trkpt lat="44.67643615789711475372314453125" lon="6.81576627306640148162841796875">
        <ele>2141.199951171875</ele>
        <time>2026-08-31T06:24:01.000Z</time>
        <extensions>
          <ns3:TrackPointExtension>
            <ns3:hr>153</ns3:hr>
            <ns3:cad>0</ns3:cad>
          </ns3:TrackPointExtension>
        </extensions>
      </trkpt>
      <trkpt lat="44.67643699608743190765380859375" lon="6.8157792650163173675537109375">
        <ele>2141.39990234375</ele>
        <time>2026-08-31T06:24:02.000Z</time>
        <extensions>
          <ns3:TrackPointExtension>
            <ns3:hr>153</ns3:hr>
            <ns3:cad>0</ns3:cad>
          </ns3:TrackPointExtension>
        </extensions>
      </trkpt>
      <trkpt lat="44.67643884010612964630126953125" lon="6.81578974239528179168701171875">
        <ele>2141.60009765625</ele>
        <time>2026-08-31T06:24:03.000Z</time>
        <extensions>
          <ns3:TrackPointExtension>
            <ns3:hr>153</ns3:hr>
            <ns3:cad>0</ns3:cad>
          </ns3:TrackPointExtension>
        </extensions>
      </trkpt>
      <trkpt lat="44.67644018121063709259033203125" lon="6.815798543393611907958984375">
        <ele>2141.800048828125</ele>
        <time>2026-08-31T06:24:04.000Z</time>
        <extensions>
          <ns3:TrackPointExtension>
            <ns3:hr>154</ns3:hr>
            <ns3:cad>0</ns3:cad>
          </ns3:TrackPointExtension>
        </extensions>
      </trkpt>
      <trkpt lat="44.676440767943859100341796875" lon="6.8158111162483692169189453125">
        <ele>2142</ele>
        <time>2026-08-31T06:24:05.000Z</time>
        <extensions>
          <ns3:TrackPointExtension>
            <ns3:hr>154</ns3:hr>
            <ns3:cad>0</ns3:cad>
          </ns3:TrackPointExtension>
        </extensions>
      </trkpt>
      <trkpt lat="44.67644101940095424652099609375" lon="6.81582360528409481048583984375">
        <ele>2142.199951171875</ele>
        <time>2026-08-31T06:24:06.000Z</time>
        <extensions>
          <ns3:TrackPointExtension>
            <ns3:hr>154</ns3:hr>
            <ns3:cad>0</ns3:cad>
          </ns3:TrackPointExtension>
        </extensions>
      </trkpt>
      <trkpt lat="44.6764412708580493927001953125" lon="6.8158379383385181427001953125">
        <ele>2142.39990234375</ele>
        <time>2026-08-31T06:24:07.000Z</time>
        <extensions>
          <ns3:TrackPointExtension>
            <ns3:hr>154</ns3:hr>
            <ns3:cad>0</ns3:cad>
          </ns3:TrackPointExtension>
        </extensions>
      </trkpt>
      <trkpt lat="44.67644168995320796966552734375" lon="6.8158484995365142822265625">
        <ele>2142.60009765625</ele>
        <time>2026-08-31T06:24:08.000Z</time>
        <extensions>
          <ns3:TrackPointExtension>
            <ns3:hr>154</ns3:hr>
            <ns3:cad>0</ns3:cad>
          </ns3:TrackPointExtension>
        </extensions>
      </trkpt>
      <trkpt lat="44.67643565498292446136474609375" lon="6.8158538639545440673828125">
        <ele>2142.800048828125</ele>
        <time>2026-08-31T06:24:09.000Z</time>
        <extensions>
          <ns3:TrackPointExtension>
            <ns3:hr>153</ns3:hr>
            <ns3:cad>76</ns3:cad>
          </ns3:TrackPointExtension>
        </extensions>
      </trkpt>
      <trkpt lat="44.676430039107799530029296875" lon="6.81586501188576221466064453125">
        <ele>2143</ele>
        <time>2026-08-31T06:24:10.000Z</time>
        <extensions>
          <ns3:TrackPointExtension>
            <ns3:hr>153</ns3:hr>
            <ns3:cad>76</ns3:cad>
          </ns3:TrackPointExtension>
        </extensions>
      </trkpt>
      <trkpt lat="44.67642509378492832183837890625" lon="6.8158754892647266387939453125">
        <ele>2143.199951171875</ele>
        <time>2026-08-31T06:24:11.000Z</time>
        <extensions>
          <ns3:TrackPointExtension>
            <ns3:hr>153</ns3:hr>
            <ns3:cad>76</ns3:cad>
          </ns3:TrackPointExtension>
        </extensions>
      </trkpt>
      <trkpt lat="44.6764221601188182830810546875" lon="6.81588663719594478607177734375">
        <ele>2143.39990234375</ele>
        <time>2026-08-31T06:24:12.000Z</time>
        <extensions>
          <ns3:TrackPointExtension>
            <ns3:hr>152</ns3:hr>
            <ns3:cad>76</ns3:cad>
          </ns3:TrackPointExtension>
        </extensions>
      </trkpt>
      <trkpt lat="44.67641972936689853668212890625" lon="6.8158889003098011016845703125">
        <ele>2143.60009765625</ele>
        <time>2026-08-31T06:24:13.000Z</time>
        <extensions>
          <ns3:TrackPointExtension>
            <ns3:hr>152</ns3:hr>
            <ns3:cad>0</ns3:cad>
          </ns3:TrackPointExtension>
        </extensions>
      </trkpt>
      <trkpt lat="44.67641629278659820556640625" lon="6.815898455679416656494140625">
        <ele>2143.800048828125</ele>
        <time>2026-08-31T06:24:14.000Z</time>
        <extensions>
          <ns3:TrackPointExtension>
            <ns3:hr>153</ns3:hr>
            <ns3:cad>0</ns3:cad>
          </ns3:TrackPointExtension>
        </extensions>
      </trkpt>
      <trkpt lat="44.676411934196949005126953125" lon="6.81590273045003414154052734375">
        <ele>2144</ele>
        <time>2026-08-31T06:24:15.000Z</time>
        <extensions>
          <ns3:TrackPointExtension>
            <ns3:hr>152</ns3:hr>
            <ns3:cad>0</ns3:cad>
          </ns3:TrackPointExtension>
        </extensions>
      </trkpt>
      <trkpt lat="44.67640933580696582794189453125" lon="6.815912537276744842529296875">
        <ele>2144.199951171875</ele>
        <time>2026-08-31T06:24:16.000Z</time>
        <extensions>
          <ns3:TrackPointExtension>
            <ns3:hr>152</ns3:hr>
            <ns3:cad>0</ns3:cad>
          </ns3:TrackPointExtension>
        </extensions>
      </trkpt>
      <trkpt lat="44.67640665359795093536376953125" lon="6.81591899134218692779541015625">
        <ele>2144.39990234375</ele>
        <time>2026-08-31T06:24:17.000Z</time>
        <extensions>
          <ns3:TrackPointExtension>
            <ns3:hr>153</ns3:hr>
            <ns3:cad>0</ns3:cad>
          </ns3:TrackPointExtension>
        </extensions>
      </trkpt>
      <trkpt lat="44.67640246264636516571044921875" lon="6.81593273766338825225830078125">
        <ele>2144.60009765625</ele>
        <time>2026-08-31T06:24:18.000Z</time>
        <extensions>
          <ns3:TrackPointExtension>
            <ns3:hr>153</ns3:hr>
            <ns3:cad>0</ns3:cad>
          </ns3:TrackPointExtension>
        </extensions>
      </trkpt>
      <trkpt lat="44.6764000318944454193115234375" lon="6.81594547815620899200439453125">
        <ele>2144.800048828125</ele>
        <time>2026-08-31T06:24:19.000Z</time>
        <extensions>
          <ns3:TrackPointExtension>
            <ns3:hr>153</ns3:hr>
            <ns3:cad>0</ns3:cad>
          </ns3:TrackPointExtension>
        </extensions>
      </trkpt>
      <trkpt lat="44.67639609239995479583740234375" lon="6.8159562908113002777099609375">
        <ele>2145</ele>
        <time>2026-08-31T06:24:20.000Z</time>
        <extensions>
          <ns3:TrackPointExtension>
            <ns3:hr>152</ns3:hr>
            <ns3:cad>0</ns3:cad>
          </ns3:TrackPointExtension>
        </extensions>
      </trkpt>
      <trkpt lat="44.676394164562225341796875" lon="6.81596676819026470184326171875">
        <ele>2145.199951171875</ele>
        <time>2026-08-31T06:24:21.000Z</time>
        <extensions>
          <ns3:TrackPointExtension>
            <ns3:hr>152</ns3:hr>
            <ns3:cad>0</ns3:cad>
          </ns3:TrackPointExtension>
        </extensions>
      </trkpt>
      <trkpt lat="44.6763939969241619110107421875" lon="6.81597162969410419464111328125">
        <ele>2145.39990234375</ele>
        <time>2026-08-31T06:24:22.000Z</time>
        <extensions>
          <ns3:TrackPointExtension>
            <ns3:hr>151</ns3:hr>
            <ns3:cad>0</ns3:cad>
          </ns3:TrackPointExtension>
        </extensions>
      </trkpt>
      <trkpt lat="44.67639642767608165740966796875" lon="6.81598856113851070404052734375">
        <ele>2145.60009765625</ele>
        <time>2026-08-31T06:24:23.000Z</time>
        <extensions>
          <ns3:TrackPointExtension>
            <ns3:hr>149</ns3:hr>
            <ns3:cad>0</ns3:cad>
          </ns3:TrackPointExtension>
        </extensions>
      </trkpt>
      <trkpt lat="44.67639743350446224212646484375" lon="6.815998367965221405029296875">
        <ele>2145.60009765625</ele>
        <time>2026-08-31T06:24:24.000Z</time>
        <extensions>
          <ns3:TrackPointExtension>
            <ns3:hr>149</ns3:hr>
            <ns3:cad>0</ns3:cad>
          </ns3:TrackPointExtension>
        </extensions>
      </trkpt>
      <trkpt lat="44.676396846771240234375" lon="6.81600767187774181365966796875">
        <ele>2145.800048828125</ele>
        <time>2026-08-31T06:24:25.000Z</time>
        <extensions>
          <ns3:TrackPointExtension>
            <ns3:hr>150</ns3:hr>
            <ns3:cad>0</ns3:cad>
          </ns3:TrackPointExtension>
        </extensions>
      </trkpt>
      <trkpt lat="44.67639458365738391876220703125" lon="6.81601186282932758331298828125">
        <ele>2146</ele>
        <time>2026-08-31T06:24:26.000Z</time>
        <extensions>
          <ns3:TrackPointExtension>
            <ns3:hr>149</ns3:hr>
            <ns3:cad>0</ns3:cad>
          </ns3:TrackPointExtension>
        </extensions>
      </trkpt>
      <trkpt lat="44.67639626003801822662353515625" lon="6.8160188198089599609375">
        <ele>2146.199951171875</ele>
        <time>2026-08-31T06:24:27.000Z</time>
        <extensions>
          <ns3:TrackPointExtension>
            <ns3:hr>149</ns3:hr>
            <ns3:cad>0</ns3:cad>
          </ns3:TrackPointExtension>
        </extensions>
      </trkpt>
      <trkpt lat="44.67639944516122341156005859375" lon="6.81603424251079559326171875">
        <ele>2146.39990234375</ele>
        <time>2026-08-31T06:24:28.000Z</time>
        <extensions>
          <ns3:TrackPointExtension>
            <ns3:hr>148</ns3:hr>
            <ns3:cad>0</ns3:cad>
          </ns3:TrackPointExtension>
        </extensions>
      </trkpt>
      <trkpt lat="44.67640011571347713470458984375" lon="6.81604639627039432525634765625">
        <ele>2146.60009765625</ele>
        <time>2026-08-31T06:24:29.000Z</time>
        <extensions>
          <ns3:TrackPointExtension>
            <ns3:hr>148</ns3:hr>
            <ns3:cad>0</ns3:cad>
          </ns3:TrackPointExtension>
        </extensions>
      </trkpt>
      <trkpt lat="44.6764003671705722808837890625" lon="6.81605611927807331085205078125">
        <ele>2146.800048828125</ele>
        <time>2026-08-31T06:24:30.000Z</time>
        <extensions>
          <ns3:TrackPointExtension>
            <ns3:hr>148</ns3:hr>
            <ns3:cad>0</ns3:cad>
          </ns3:TrackPointExtension>
        </extensions>
      </trkpt>
      <trkpt lat="44.67640162445604801177978515625" lon="6.816068105399608612060546875">
        <ele>2146.800048828125</ele>
        <time>2026-08-31T06:24:31.000Z</time>
        <extensions>
          <ns3:TrackPointExtension>
            <ns3:hr>147</ns3:hr>
            <ns3:cad>0</ns3:cad>
          </ns3:TrackPointExtension>
        </extensions>
      </trkpt>
      <trkpt lat="44.67639843933284282684326171875" lon="6.81607590056955814361572265625">
        <ele>2147</ele>
        <time>2026-08-31T06:24:32.000Z</time>
        <extensions>
          <ns3:TrackPointExtension>
            <ns3:hr>147</ns3:hr>
            <ns3:cad>18</ns3:cad>
          </ns3:TrackPointExtension>
        </extensions>
      </trkpt>
      <trkpt lat="44.676396511495113372802734375" lon="6.8160870485007762908935546875">
        <ele>2147.199951171875</ele>
        <time>2026-08-31T06:24:33.000Z</time>
        <extensions>
          <ns3:TrackPointExtension>
            <ns3:hr>147</ns3:hr>
            <ns3:cad>76</ns3:cad>
          </ns3:TrackPointExtension>
        </extensions>
      </trkpt>
      <trkpt lat="44.6763996966183185577392578125" lon="6.81609299965202808380126953125">
        <ele>2147.39990234375</ele>
        <time>2026-08-31T06:24:34.000Z</time>
        <extensions>
          <ns3:TrackPointExtension>
            <ns3:hr>147</ns3:hr>
            <ns3:cad>76</ns3:cad>
          </ns3:TrackPointExtension>
        </extensions>
      </trkpt>
      <trkpt lat="44.67640045098960399627685546875" lon="6.81610439904034137725830078125">
        <ele>2147.60009765625</ele>
        <time>2026-08-31T06:24:35.000Z</time>
        <extensions>
          <ns3:TrackPointExtension>
            <ns3:hr>146</ns3:hr>
            <ns3:cad>76</ns3:cad>
          </ns3:TrackPointExtension>
        </extensions>
      </trkpt>
      <trkpt lat="44.67640061862766742706298828125" lon="6.8161118589341640472412109375">
        <ele>2148</ele>
        <time>2026-08-31T06:24:36.000Z</time>
        <extensions>
          <ns3:TrackPointExtension>
            <ns3:hr>146</ns3:hr>
            <ns3:cad>0</ns3:cad>
          </ns3:TrackPointExtension>
        </extensions>
      </trkpt>
      <trkpt lat="44.67639961279928684234619140625" lon="6.81613071821630001068115234375">
        <ele>2148.199951171875</ele>
        <time>2026-08-31T06:24:37.000Z</time>
        <extensions>
          <ns3:TrackPointExtension>
            <ns3:hr>146</ns3:hr>
            <ns3:cad>0</ns3:cad>
          </ns3:TrackPointExtension>
        </extensions>
      </trkpt>
      <trkpt lat="44.67639877460896968841552734375" lon="6.8161408603191375732421875">
        <ele>2148.39990234375</ele>
        <time>2026-08-31T06:24:38.000Z</time>
        <extensions>
          <ns3:TrackPointExtension>
            <ns3:hr>146</ns3:hr>
            <ns3:cad>0</ns3:cad>
          </ns3:TrackPointExtension>
        </extensions>
      </trkpt>
      <trkpt lat="44.676399528980255126953125" lon="6.81615091860294342041015625">
        <ele>2148.60009765625</ele>
        <time>2026-08-31T06:24:39.000Z</time>
        <extensions>
          <ns3:TrackPointExtension>
            <ns3:hr>145</ns3:hr>
            <ns3:cad>0</ns3:cad>
          </ns3:TrackPointExtension>
        </extensions>
      </trkpt>
      <trkpt lat="44.6764000318944454193115234375" lon="6.81616474874317646026611328125">
        <ele>2148.800048828125</ele>
        <time>2026-08-31T06:24:40.000Z</time>
        <extensions>
          <ns3:TrackPointExtension>
            <ns3:hr>145</ns3:hr>
            <ns3:cad>0</ns3:cad>
          </ns3:TrackPointExtension>
        </extensions>
      </trkpt>
      <trkpt lat="44.6763981878757476806640625" lon="6.816170699894428253173828125">
        <ele>2149</ele>
        <time>2026-08-31T06:24:41.000Z</time>
        <extensions>
          <ns3:TrackPointExtension>
            <ns3:hr>145</ns3:hr>
            <ns3:cad>0</ns3:cad>
          </ns3:TrackPointExtension>
        </extensions>
      </trkpt>
      <trkpt lat="44.6763929910957813262939453125" lon="6.81618536822497844696044921875">
        <ele>2149.199951171875</ele>
        <time>2026-08-31T06:24:42.000Z</time>
        <extensions>
          <ns3:TrackPointExtension>
            <ns3:hr>145</ns3:hr>
            <ns3:cad>0</ns3:cad>
          </ns3:TrackPointExtension>
        </extensions>
      </trkpt>
      <trkpt lat="44.67639039270579814910888671875" lon="6.81619157083332538604736328125">
        <ele>2149.39990234375</ele>
        <time>2026-08-31T06:24:43.000Z</time>
        <extensions>
          <ns3:TrackPointExtension>
            <ns3:hr>146</ns3:hr>
            <ns3:cad>0</ns3:cad>
          </ns3:TrackPointExtension>
        </extensions>
      </trkpt>
      <trkpt lat="44.6763893030583858489990234375" lon="6.81620095856487751007080078125">
        <ele>2149.60009765625</ele>
        <time>2026-08-31T06:24:44.000Z</time>
        <extensions>
          <ns3:TrackPointExtension>
            <ns3:hr>147</ns3:hr>
            <ns3:cad>0</ns3:cad>
          </ns3:TrackPointExtension>
        </extensions>
      </trkpt>
      <trkpt lat="44.6763929910957813262939453125" lon="6.81621168740093708038330078125">
        <ele>2149.800048828125</ele>
        <time>2026-08-31T06:24:45.000Z</time>
        <extensions>
          <ns3:TrackPointExtension>
            <ns3:hr>147</ns3:hr>
            <ns3:cad>0</ns3:cad>
          </ns3:TrackPointExtension>
        </extensions>
      </trkpt>
      <trkpt lat="44.67639173381030559539794921875" lon="6.81622325442731380462646484375">
        <ele>2150</ele>
        <time>2026-08-31T06:24:46.000Z</time>
        <extensions>
          <ns3:TrackPointExtension>
            <ns3:hr>147</ns3:hr>
            <ns3:cad>0</ns3:cad>
          </ns3:TrackPointExtension>
        </extensions>
      </trkpt>
      <trkpt lat="44.6763939969241619110107421875" lon="6.816236078739166259765625">
        <ele>2150.199951171875</ele>
        <time>2026-08-31T06:24:47.000Z</time>
        <extensions>
          <ns3:TrackPointExtension>
            <ns3:hr>148</ns3:hr>
            <ns3:cad>0</ns3:cad>
          </ns3:TrackPointExtension>
        </extensions>
      </trkpt>
      <trkpt lat="44.67639307491481304168701171875" lon="6.8162349052727222442626953125">
        <ele>2150.39990234375</ele>
        <time>2026-08-31T06:24:48.000Z</time>
        <extensions>
          <ns3:TrackPointExtension>
            <ns3:hr>148</ns3:hr>
            <ns3:cad>0</ns3:cad>
          </ns3:TrackPointExtension>
        </extensions>
      </trkpt>
      <trkpt lat="44.676394499838352203369140625" lon="6.81624747812747955322265625">
        <ele>2150.39990234375</ele>
        <time>2026-08-31T06:24:49.000Z</time>
        <extensions>
          <ns3:TrackPointExtension>
            <ns3:hr>148</ns3:hr>
            <ns3:cad>0</ns3:cad>
          </ns3:TrackPointExtension>
        </extensions>
      </trkpt>
      <trkpt lat="44.676396511495113372802734375" lon="6.81625443510711193084716796875">
        <ele>2150.60009765625</ele>
        <time>2026-08-31T06:24:50.000Z</time>
        <extensions>
          <ns3:TrackPointExtension>
            <ns3:hr>148</ns3:hr>
            <ns3:cad>0</ns3:cad>
          </ns3:TrackPointExtension>
        </extensions>
      </trkpt>
      <trkpt lat="44.67640154063701629638671875" lon="6.81626969017088413238525390625">
        <ele>2150.800048828125</ele>
        <time>2026-08-31T06:24:51.000Z</time>
        <extensions>
          <ns3:TrackPointExtension>
            <ns3:hr>149</ns3:hr>
            <ns3:cad>0</ns3:cad>
          </ns3:TrackPointExtension>
        </extensions>
      </trkpt>
      <trkpt lat="44.676402546465396881103515625" lon="6.8162781558930873870849609375">
        <ele>2151.199951171875</ele>
        <time>2026-08-31T06:24:52.000Z</time>
        <extensions>
          <ns3:TrackPointExtension>
            <ns3:hr>149</ns3:hr>
            <ns3:cad>0</ns3:cad>
          </ns3:TrackPointExtension>
        </extensions>
      </trkpt>
      <trkpt lat="44.67640179209411144256591796875" lon="6.81629936210811138153076171875">
        <ele>2151.39990234375</ele>
        <time>2026-08-31T06:24:53.000Z</time>
        <extensions>
          <ns3:TrackPointExtension>
            <ns3:hr>150</ns3:hr>
            <ns3:cad>0</ns3:cad>
          </ns3:TrackPointExtension>
        </extensions>
      </trkpt>
      <trkpt lat="44.67640229500830173492431640625" lon="6.81631193496286869049072265625">
        <ele>2151.60009765625</ele>
        <time>2026-08-31T06:24:54.000Z</time>
        <extensions>
          <ns3:TrackPointExtension>
            <ns3:hr>150</ns3:hr>
            <ns3:cad>0</ns3:cad>
          </ns3:TrackPointExtension>
        </extensions>
      </trkpt>
      <trkpt lat="44.6764013729989528656005859375" lon="6.816318221390247344970703125">
        <ele>2151.800048828125</ele>
        <time>2026-08-31T06:24:55.000Z</time>
        <extensions>
          <ns3:TrackPointExtension>
            <ns3:hr>150</ns3:hr>
            <ns3:cad>0</ns3:cad>
          </ns3:TrackPointExtension>
        </extensions>
      </trkpt>
      <trkpt lat="44.676403217017650604248046875" lon="6.816330961883068084716796875">
        <ele>2152</ele>
        <time>2026-08-31T06:24:56.000Z</time>
        <extensions>
          <ns3:TrackPointExtension>
            <ns3:hr>151</ns3:hr>
            <ns3:cad>0</ns3:cad>
          </ns3:TrackPointExtension>
        </extensions>
      </trkpt>
      <trkpt lat="44.67640296556055545806884765625" lon="6.816339008510112762451171875">
        <ele>2152.199951171875</ele>
        <time>2026-08-31T06:24:57.000Z</time>
        <extensions>
          <ns3:TrackPointExtension>
            <ns3:hr>151</ns3:hr>
            <ns3:cad>0</ns3:cad>
          </ns3:TrackPointExtension>
        </extensions>
      </trkpt>
      <trkpt lat="44.67639827169477939605712890625" lon="6.81634311564266681671142578125">
        <ele>2152.39990234375</ele>
        <time>2026-08-31T06:24:58.000Z</time>
        <extensions>
          <ns3:TrackPointExtension>
            <ns3:hr>151</ns3:hr>
            <ns3:cad>0</ns3:cad>
          </ns3:TrackPointExtension>
        </extensions>
      </trkpt>
      <trkpt lat="44.6763955056667327880859375" lon="6.81634671986103057861328125">
        <ele>2152.60009765625</ele>
        <time>2026-08-31T06:24:59.000Z</time>
        <extensions>
          <ns3:TrackPointExtension>
            <ns3:hr>152</ns3:hr>
            <ns3:cad>0</ns3:cad>
          </ns3:TrackPointExtension>
        </extensions>
      </trkpt>
      <trkpt lat="44.67639341019093990325927734375" lon="6.81635619141161441802978515625">
        <ele>2152.800048828125</ele>
        <time>2026-08-31T06:25:00.000Z</time>
        <extensions>
          <ns3:TrackPointExtension>
            <ns3:hr>152</ns3:hr>
            <ns3:cad>0</ns3:cad>
          </ns3:TrackPointExtension>
        </extensions>
      </trkpt>
      <trkpt lat="44.676392488181591033935546875" lon="6.8163592927157878875732421875">
        <ele>2153</ele>
        <time>2026-08-31T06:25:01.000Z</time>
        <extensions>
          <ns3:TrackPointExtension>
            <ns3:hr>152</ns3:hr>
            <ns3:cad>0</ns3:cad>
          </ns3:TrackPointExtension>
        </extensions>
      </trkpt>
      <trkpt lat="44.67639206908643245697021484375" lon="6.81636759079992771148681640625">
        <ele>2153.199951171875</ele>
        <time>2026-08-31T06:25:02.000Z</time>
        <extensions>
          <ns3:TrackPointExtension>
            <ns3:hr>153</ns3:hr>
            <ns3:cad>0</ns3:cad>
          </ns3:TrackPointExtension>
        </extensions>
      </trkpt>
      <trkpt lat="44.676394499838352203369140625" lon="6.81636926718056201934814453125">
        <ele>2153.39990234375</ele>
        <time>2026-08-31T06:25:03.000Z</time>
        <extensions>
          <ns3:TrackPointExtension>
            <ns3:hr>154</ns3:hr>
            <ns3:cad>0</ns3:cad>
          </ns3:TrackPointExtension>
        </extensions>
      </trkpt>
      <trkpt lat="44.67639542184770107269287109375" lon="6.8163693509995937347412109375">
        <ele>2153.60009765625</ele>
        <time>2026-08-31T06:25:04.000Z</time>
        <extensions>
          <ns3:TrackPointExtension>
            <ns3:hr>155</ns3:hr>
            <ns3:cad>0</ns3:cad>
          </ns3:TrackPointExtension>
        </extensions>
      </trkpt>
      <trkpt lat="44.67640078626573085784912109375" lon="6.81636524386703968048095703125">
        <ele>2153.800048828125</ele>
        <time>2026-08-31T06:25:05.000Z</time>
        <extensions>
          <ns3:TrackPointExtension>
            <ns3:hr>156</ns3:hr>
            <ns3:cad>17</ns3:cad>
          </ns3:TrackPointExtension>
        </extensions>
      </trkpt>
      <trkpt lat="44.676405899226665496826171875" lon="6.81636138819158077239990234375">
        <ele>2154</ele>
        <time>2026-08-31T06:25:06.000Z</time>
        <extensions>
          <ns3:TrackPointExtension>
            <ns3:hr>157</ns3:hr>
            <ns3:cad>17</ns3:cad>
          </ns3:TrackPointExtension>
        </extensions>
      </trkpt>
      <trkpt lat="44.67640866525471210479736328125" lon="6.816359125077724456787109375">
        <ele>2154.199951171875</ele>
        <time>2026-08-31T06:25:07.000Z</time>
        <extensions>
          <ns3:TrackPointExtension>
            <ns3:hr>157</ns3:hr>
            <ns3:cad>17</ns3:cad>
          </ns3:TrackPointExtension>
        </extensions>
      </trkpt>
      <trkpt lat="44.67641335912048816680908203125" lon="6.816352419555187225341796875">
        <ele>2154.60009765625</ele>
        <time>2026-08-31T06:25:08.000Z</time>
        <extensions>
          <ns3:TrackPointExtension>
            <ns3:hr>158</ns3:hr>
            <ns3:cad>17</ns3:cad>
          </ns3:TrackPointExtension>
        </extensions>
      </trkpt>
      <trkpt lat="44.67641553841531276702880859375" lon="6.816348396241664886474609375">
        <ele>2154.800048828125</ele>
        <time>2026-08-31T06:25:09.000Z</time>
        <extensions>
          <ns3:TrackPointExtension>
            <ns3:hr>158</ns3:hr>
            <ns3:cad>0</ns3:cad>
          </ns3:TrackPointExtension>
        </extensions>
      </trkpt>
      <trkpt lat="44.6764154545962810516357421875" lon="6.816343367099761962890625">
        <ele>2155</ele>
        <time>2026-08-31T06:25:10.000Z</time>
        <extensions>
          <ns3:TrackPointExtension>
            <ns3:hr>158</ns3:hr>
            <ns3:cad>0</ns3:cad>
          </ns3:TrackPointExtension>
        </extensions>
      </trkpt>
      <trkpt lat="44.67641972936689853668212890625" lon="6.81633406318724155426025390625">
        <ele>2155.199951171875</ele>
        <time>2026-08-31T06:25:11.000Z</time>
        <extensions>
          <ns3:TrackPointExtension>
            <ns3:hr>158</ns3:hr>
            <ns3:cad>0</ns3:cad>
          </ns3:TrackPointExtension>
        </extensions>
      </trkpt>
      <trkpt lat="44.67642542906105518341064453125" lon="6.81633372791111469268798828125">
        <ele>2155.39990234375</ele>
        <time>2026-08-31T06:25:12.000Z</time>
        <extensions>
          <ns3:TrackPointExtension>
            <ns3:hr>158</ns3:hr>
            <ns3:cad>0</ns3:cad>
          </ns3:TrackPointExtension>
        </extensions>
      </trkpt>
      <trkpt lat="44.67643448151648044586181640625" lon="6.81632501073181629180908203125">
        <ele>2155.60009765625</ele>
        <time>2026-08-31T06:25:13.000Z</time>
        <extensions>
          <ns3:TrackPointExtension>
            <ns3:hr>158</ns3:hr>
            <ns3:cad>0</ns3:cad>
          </ns3:TrackPointExtension>
        </extensions>
      </trkpt>
      <trkpt lat="44.676440097391605377197265625" lon="6.81631813757121562957763671875">
        <ele>2155.800048828125</ele>
        <time>2026-08-31T06:25:14.000Z</time>
        <extensions>
          <ns3:TrackPointExtension>
            <ns3:hr>159</ns3:hr>
            <ns3:cad>50</ns3:cad>
          </ns3:TrackPointExtension>
        </extensions>
      </trkpt>
      <trkpt lat="44.67644445598125457763671875" lon="6.81631294079124927520751953125">
        <ele>2156</ele>
        <time>2026-08-31T06:25:15.000Z</time>
        <extensions>
          <ns3:TrackPointExtension>
            <ns3:hr>159</ns3:hr>
            <ns3:cad>50</ns3:cad>
          </ns3:TrackPointExtension>
        </extensions>
      </trkpt>
      <trkpt lat="44.67644873075187206268310546875" lon="6.81630648672580718994140625">
        <ele>2156.199951171875</ele>
        <time>2026-08-31T06:25:16.000Z</time>
        <extensions>
          <ns3:TrackPointExtension>
            <ns3:hr>159</ns3:hr>
            <ns3:cad>50</ns3:cad>
          </ns3:TrackPointExtension>
        </extensions>
      </trkpt>
      <trkpt lat="44.67645023949444293975830078125" lon="6.81630606763064861297607421875">
        <ele>2156.39990234375</ele>
        <time>2026-08-31T06:25:17.000Z</time>
        <extensions>
          <ns3:TrackPointExtension>
            <ns3:hr>159</ns3:hr>
            <ns3:cad>0</ns3:cad>
          </ns3:TrackPointExtension>
        </extensions>
      </trkpt>
      <trkpt lat="44.6764519996941089630126953125" lon="6.81630472652614116668701171875">
        <ele>2156.60009765625</ele>
        <time>2026-08-31T06:25:18.000Z</time>
        <extensions>
          <ns3:TrackPointExtension>
            <ns3:hr>159</ns3:hr>
            <ns3:cad>0</ns3:cad>
          </ns3:TrackPointExtension>
        </extensions>
      </trkpt>
      <trkpt lat="44.6764516644179821014404296875" lon="6.81630439125001430511474609375">
        <ele>2156.800048828125</ele>
        <time>2026-08-31T06:25:19.000Z</time>
        <extensions>
          <ns3:TrackPointExtension>
            <ns3:hr>159</ns3:hr>
            <ns3:cad>0</ns3:cad>
          </ns3:TrackPointExtension>
        </extensions>
      </trkpt>
      <trkpt lat="44.676451496779918670654296875" lon="6.8163029663264751434326171875">
        <ele>2156.800048828125</ele>
        <time>2026-08-31T06:25:20.000Z</time>
        <extensions>
          <ns3:TrackPointExtension>
            <ns3:hr>159</ns3:hr>
            <ns3:cad>0</ns3:cad>
          </ns3:TrackPointExtension>
        </extensions>
      </trkpt>
      <trkpt lat="44.67645116150379180908203125" lon="6.8163017928600311279296875">
        <ele>2156.800048828125</ele>
        <time>2026-08-31T06:25:21.000Z</time>
        <extensions>
          <ns3:TrackPointExtension>
            <ns3:hr>159</ns3:hr>
            <ns3:cad>0</ns3:cad>
          </ns3:TrackPointExtension>
        </extensions>
      </trkpt>
      <trkpt lat="44.67645275406539440155029296875" lon="6.8162992782890796661376953125">
        <ele>2157</ele>
        <time>2026-08-31T06:25:22.000Z</time>
        <extensions>
          <ns3:TrackPointExtension>
            <ns3:hr>159</ns3:hr>
            <ns3:cad>0</ns3:cad>
          </ns3:TrackPointExtension>
        </extensions>
      </trkpt>
      <trkpt lat="44.67645560391247272491455078125" lon="6.8162965960800647735595703125">
        <ele>2157</ele>
        <time>2026-08-31T06:25:23.000Z</time>
        <extensions>
          <ns3:TrackPointExtension>
            <ns3:hr>159</ns3:hr>
            <ns3:cad>0</ns3:cad>
          </ns3:TrackPointExtension>
        </extensions>
      </trkpt>
      <trkpt lat="44.676456861197948455810546875" lon="6.81629575788974761962890625">
        <ele>2157</ele>
        <time>2026-08-31T06:25:24.000Z</time>
        <extensions>
          <ns3:TrackPointExtension>
            <ns3:hr>160</ns3:hr>
            <ns3:cad>0</ns3:cad>
          </ns3:TrackPointExtension>
        </extensions>
      </trkpt>
      <trkpt lat="44.67645711265504360198974609375" lon="6.81629584170877933502197265625">
        <ele>2156.800048828125</ele>
        <time>2026-08-31T06:25:25.000Z</time>
        <extensions>
          <ns3:TrackPointExtension>
            <ns3:hr>159</ns3:hr>
            <ns3:cad>0</ns3:cad>
          </ns3:TrackPointExtension>
        </extensions>
      </trkpt>
      <trkpt lat="44.67646515928208827972412109375" lon="6.8162915669381618499755859375">
        <ele>2157</ele>
        <time>2026-08-31T06:25:26.000Z</time>
        <extensions>
          <ns3:TrackPointExtension>
            <ns3:hr>159</ns3:hr>
            <ns3:cad>0</ns3:cad>
          </ns3:TrackPointExtension>
        </extensions>
      </trkpt>
      <trkpt lat="44.67647572048008441925048828125" lon="6.81628963910043239593505859375">
        <ele>2157</ele>
        <time>2026-08-31T06:25:27.000Z</time>
        <extensions>
          <ns3:TrackPointExtension>
            <ns3:hr>160</ns3:hr>
            <ns3:cad>0</ns3:cad>
          </ns3:TrackPointExtension>
        </extensions>
      </trkpt>
      <trkpt lat="44.6764848567545413970947265625" lon="6.81629399769008159637451171875">
        <ele>2157</ele>
        <time>2026-08-31T06:25:28.000Z</time>
        <extensions>
          <ns3:TrackPointExtension>
            <ns3:hr>160</ns3:hr>
            <ns3:cad>0</ns3:cad>
          </ns3:TrackPointExtension>
        </extensions>
      </trkpt>
      <trkpt lat="44.67648913152515888214111328125" lon="6.8163056485354900360107421875">
        <ele>2157.199951171875</ele>
        <time>2026-08-31T06:25:29.000Z</time>
        <extensions>
          <ns3:TrackPointExtension>
            <ns3:hr>160</ns3:hr>
            <ns3:cad>0</ns3:cad>
          </ns3:TrackPointExtension>
        </extensions>
      </trkpt>
      <trkpt lat="44.67649005353450775146484375" lon="6.816321909427642822265625">
        <ele>2157.39990234375</ele>
        <time>2026-08-31T06:25:30.000Z</time>
        <extensions>
          <ns3:TrackPointExtension>
            <ns3:hr>160</ns3:hr>
            <ns3:cad>0</ns3:cad>
          </ns3:TrackPointExtension>
        </extensions>
      </trkpt>
      <trkpt lat="44.67648745514452457427978515625" lon="6.81632635183632373809814453125">
        <ele>2157.60009765625</ele>
        <time>2026-08-31T06:25:31.000Z</time>
        <extensions>
          <ns3:TrackPointExtension>
            <ns3:hr>159</ns3:hr>
            <ns3:cad>0</ns3:cad>
          </ns3:TrackPointExtension>
        </extensions>
      </trkpt>
      <trkpt lat="44.67648996971547603607177734375" lon="6.816345043480396270751953125">
        <ele>2157.800048828125</ele>
        <time>2026-08-31T06:25:32.000Z</time>
        <extensions>
          <ns3:TrackPointExtension>
            <ns3:hr>159</ns3:hr>
            <ns3:cad>0</ns3:cad>
          </ns3:TrackPointExtension>
        </extensions>
      </trkpt>
      <trkpt lat="44.6764918975532054901123046875" lon="6.81635820306837558746337890625">
        <ele>2158</ele>
        <time>2026-08-31T06:25:33.000Z</time>
        <extensions>
          <ns3:TrackPointExtension>
            <ns3:hr>158</ns3:hr>
            <ns3:cad>0</ns3:cad>
          </ns3:TrackPointExtension>
        </extensions>
      </trkpt>
      <trkpt lat="44.67648913152515888214111328125" lon="6.816365830600261688232421875">
        <ele>2158.199951171875</ele>
        <time>2026-08-31T06:25:34.000Z</time>
        <extensions>
          <ns3:TrackPointExtension>
            <ns3:hr>157</ns3:hr>
            <ns3:cad>0</ns3:cad>
          </ns3:TrackPointExtension>
        </extensions>
      </trkpt>
      <trkpt lat="44.6764895506203174591064453125" lon="6.81636977009475231170654296875">
        <ele>2158.39990234375</ele>
        <time>2026-08-31T06:25:35.000Z</time>
        <extensions>
          <ns3:TrackPointExtension>
            <ns3:hr>156</ns3:hr>
            <ns3:cad>0</ns3:cad>
          </ns3:TrackPointExtension>
        </extensions>
      </trkpt>
      <trkpt lat="44.6764895506203174591064453125" lon="6.81636977009475231170654296875">
        <ele>2158.39990234375</ele>
        <time>2026-08-31T06:25:36.000Z</time>
        <extensions>
          <ns3:TrackPointExtension>
            <ns3:hr>155</ns3:hr>
            <ns3:cad>0</ns3:cad>
          </ns3:TrackPointExtension>
        </extensions>
      </trkpt>
      <trkpt lat="44.6764895506203174591064453125" lon="6.81636977009475231170654296875">
        <ele>2158.60009765625</ele>
        <time>2026-08-31T06:25:37.000Z</time>
        <extensions>
          <ns3:TrackPointExtension>
            <ns3:hr>155</ns3:hr>
            <ns3:cad>0</ns3:cad>
          </ns3:TrackPointExtension>
        </extensions>
      </trkpt>
      <trkpt lat="44.6764895506203174591064453125" lon="6.81636977009475231170654296875">
        <ele>2158.60009765625</ele>
        <time>2026-08-31T06:25:38.000Z</time>
        <extensions>
          <ns3:TrackPointExtension>
            <ns3:hr>155</ns3:hr>
            <ns3:cad>0</ns3:cad>
          </ns3:TrackPointExtension>
        </extensions>
      </trkpt>
      <trkpt lat="44.6764895506203174591064453125" lon="6.81636977009475231170654296875">
        <ele>2158.60009765625</ele>
        <time>2026-08-31T06:25:39.000Z</time>
        <extensions>
          <ns3:TrackPointExtension>
            <ns3:hr>154</ns3:hr>
            <ns3:cad>0</ns3:cad>
          </ns3:TrackPointExtension>
        </extensions>
      </trkpt>
      <trkpt lat="44.6764895506203174591064453125" lon="6.81636977009475231170654296875">
        <ele>2158.39990234375</ele>
        <time>2026-08-31T06:25:40.000Z</time>
        <extensions>
          <ns3:TrackPointExtension>
            <ns3:hr>154</ns3:hr>
            <ns3:cad>0</ns3:cad>
          </ns3:TrackPointExtension>
        </extensions>
      </trkpt>
      <trkpt lat="44.6764895506203174591064453125" lon="6.81636977009475231170654296875">
        <ele>2158.60009765625</ele>
        <time>2026-08-31T06:25:41.000Z</time>
        <extensions>
          <ns3:TrackPointExtension>
            <ns3:hr>154</ns3:hr>
            <ns3:cad>0</ns3:cad>
          </ns3:TrackPointExtension>
        </extensions>
      </trkpt>
      <trkpt lat="44.67649013735353946685791015625" lon="6.81636951863765716552734375">
        <ele>2158.60009765625</ele>
        <time>2026-08-31T06:25:42.000Z</time>
        <extensions>
          <ns3:TrackPointExtension>
            <ns3:hr>153</ns3:hr>
            <ns3:cad>0</ns3:cad>
          </ns3:TrackPointExtension>
        </extensions>
      </trkpt>
      <trkpt lat="44.67649181373417377471923828125" lon="6.81636809371411800384521484375">
        <ele>2158.60009765625</ele>
        <time>2026-08-31T06:25:43.000Z</time>
        <extensions>
          <ns3:TrackPointExtension>
            <ns3:hr>152</ns3:hr>
            <ns3:cad>0</ns3:cad>
          </ns3:TrackPointExtension>
        </extensions>
      </trkpt>
      <trkpt lat="44.67649583704769611358642578125" lon="6.81637312285602092742919921875">
        <ele>2158.800048828125</ele>
        <time>2026-08-31T06:25:44.000Z</time>
        <extensions>
          <ns3:TrackPointExtension>
            <ns3:hr>152</ns3:hr>
            <ns3:cad>0</ns3:cad>
          </ns3:TrackPointExtension>
        </extensions>
      </trkpt>
      <trkpt lat="44.6764982677996158599853515625" lon="6.81638385169208049774169921875">
        <ele>2158.800048828125</ele>
        <time>2026-08-31T06:25:45.000Z</time>
        <extensions>
          <ns3:TrackPointExtension>
            <ns3:hr>152</ns3:hr>
            <ns3:cad>0</ns3:cad>
          </ns3:TrackPointExtension>
        </extensions>
      </trkpt>
      <trkpt lat="44.67650136910378932952880859375" lon="6.816394664347171783447265625">
        <ele>2159</ele>
        <time>2026-08-31T06:25:46.000Z</time>
        <extensions>
          <ns3:TrackPointExtension>
            <ns3:hr>151</ns3:hr>
            <ns3:cad>0</ns3:cad>
          </ns3:TrackPointExtension>
        </extensions>
      </trkpt>
      <trkpt lat="44.676505140960216522216796875" lon="6.8164079077541828155517578125">
        <ele>2159.39990234375</ele>
        <time>2026-08-31T06:25:47.000Z</time>
        <extensions>
          <ns3:TrackPointExtension>
            <ns3:hr>151</ns3:hr>
            <ns3:cad>0</ns3:cad>
          </ns3:TrackPointExtension>
        </extensions>
      </trkpt>
      <trkpt lat="44.67650572769343852996826171875" lon="6.8164144456386566162109375">
        <ele>2159.60009765625</ele>
        <time>2026-08-31T06:25:48.000Z</time>
        <extensions>
          <ns3:TrackPointExtension>
            <ns3:hr>151</ns3:hr>
            <ns3:cad>0</ns3:cad>
          </ns3:TrackPointExtension>
        </extensions>
      </trkpt>
      <trkpt lat="44.67650438658893108367919921875" lon="6.81642643176019191741943359375">
        <ele>2159.800048828125</ele>
        <time>2026-08-31T06:25:49.000Z</time>
        <extensions>
          <ns3:TrackPointExtension>
            <ns3:hr>151</ns3:hr>
            <ns3:cad>0</ns3:cad>
          </ns3:TrackPointExtension>
        </extensions>
      </trkpt>
      <trkpt lat="44.67650480568408966064453125" lon="6.8164337240159511566162109375">
        <ele>2160.199951171875</ele>
        <time>2026-08-31T06:25:50.000Z</time>
        <extensions>
          <ns3:TrackPointExtension>
            <ns3:hr>151</ns3:hr>
            <ns3:cad>0</ns3:cad>
          </ns3:TrackPointExtension>
        </extensions>
      </trkpt>
      <trkpt lat="44.676507823169231414794921875" lon="6.8164494819939136505126953125">
        <ele>2160.39990234375</ele>
        <time>2026-08-31T06:25:51.000Z</time>
        <extensions>
          <ns3:TrackPointExtension>
            <ns3:hr>150</ns3:hr>
            <ns3:cad>0</ns3:cad>
          </ns3:TrackPointExtension>
        </extensions>
      </trkpt>
      <trkpt lat="44.67651092447340488433837890625" lon="6.81646079756319522857666015625">
        <ele>2160.60009765625</ele>
        <time>2026-08-31T06:25:52.000Z</time>
        <extensions>
          <ns3:TrackPointExtension>
            <ns3:hr>150</ns3:hr>
            <ns3:cad>0</ns3:cad>
          </ns3:TrackPointExtension>
        </extensions>
      </trkpt>
      <trkpt lat="44.6765150316059589385986328125" lon="6.816472113132476806640625">
        <ele>2160.800048828125</ele>
        <time>2026-08-31T06:25:53.000Z</time>
        <extensions>
          <ns3:TrackPointExtension>
            <ns3:hr>150</ns3:hr>
            <ns3:cad>0</ns3:cad>
          </ns3:TrackPointExtension>
        </extensions>
      </trkpt>
      <trkpt lat="44.67651846818625926971435546875" lon="6.8164813332259654998779296875">
        <ele>2161</ele>
        <time>2026-08-31T06:25:54.000Z</time>
        <extensions>
          <ns3:TrackPointExtension>
            <ns3:hr>150</ns3:hr>
            <ns3:cad>0</ns3:cad>
          </ns3:TrackPointExtension>
        </extensions>
      </trkpt>
      <trkpt lat="44.6765188872814178466796875" lon="6.81649063713848590850830078125">
        <ele>2161</ele>
        <time>2026-08-31T06:25:55.000Z</time>
        <extensions>
          <ns3:TrackPointExtension>
            <ns3:hr>151</ns3:hr>
            <ns3:cad>0</ns3:cad>
          </ns3:TrackPointExtension>
        </extensions>
      </trkpt>
      <trkpt lat="44.6765227429568767547607421875" lon="6.81650388054549694061279296875">
        <ele>2161.199951171875</ele>
        <time>2026-08-31T06:25:56.000Z</time>
        <extensions>
          <ns3:TrackPointExtension>
            <ns3:hr>152</ns3:hr>
            <ns3:cad>0</ns3:cad>
          </ns3:TrackPointExtension>
        </extensions>
      </trkpt>
      <trkpt lat="44.67652467079460620880126953125" lon="6.8165088258683681488037109375">
        <ele>2161.60009765625</ele>
        <time>2026-08-31T06:25:57.000Z</time>
        <extensions>
          <ns3:TrackPointExtension>
            <ns3:hr>153</ns3:hr>
            <ns3:cad>0</ns3:cad>
          </ns3:TrackPointExtension>
        </extensions>
      </trkpt>
      <trkpt lat="44.6765281073749065399169921875" lon="6.81651779450476169586181640625">
        <ele>2161.800048828125</ele>
        <time>2026-08-31T06:25:58.000Z</time>
        <extensions>
          <ns3:TrackPointExtension>
            <ns3:hr>154</ns3:hr>
            <ns3:cad>0</ns3:cad>
          </ns3:TrackPointExtension>
        </extensions>
      </trkpt>
      <trkpt lat="44.67653020285069942474365234375" lon="6.816524751484394073486328125">
        <ele>2162</ele>
        <time>2026-08-31T06:25:59.000Z</time>
        <extensions>
          <ns3:TrackPointExtension>
            <ns3:hr>154</ns3:hr>
            <ns3:cad>0</ns3:cad>
          </ns3:TrackPointExtension>
        </extensions>
      </trkpt>
      <trkpt lat="44.6765368245542049407958984375" lon="6.81654277257621288299560546875">
        <ele>2162.199951171875</ele>
        <time>2026-08-31T06:26:00.000Z</time>
        <extensions>
          <ns3:TrackPointExtension>
            <ns3:hr>154</ns3:hr>
            <ns3:cad>0</ns3:cad>
          </ns3:TrackPointExtension>
        </extensions>
      </trkpt>
      <trkpt lat="44.676537327468395233154296875" lon="6.8165490590035915374755859375">
        <ele>2162.39990234375</ele>
        <time>2026-08-31T06:26:01.000Z</time>
        <extensions>
          <ns3:TrackPointExtension>
            <ns3:hr>155</ns3:hr>
            <ns3:cad>0</ns3:cad>
          </ns3:TrackPointExtension>
        </extensions>
      </trkpt>
      <trkpt lat="44.6765442006289958953857421875" lon="6.816562302410602569580078125">
        <ele>2162.60009765625</ele>
        <time>2026-08-31T06:26:02.000Z</time>
        <extensions>
          <ns3:TrackPointExtension>
            <ns3:hr>155</ns3:hr>
            <ns3:cad>0</ns3:cad>
          </ns3:TrackPointExtension>
        </extensions>
      </trkpt>
      <trkpt lat="44.6765488944947719573974609375" lon="6.81657713837921619415283203125">
        <ele>2162.800048828125</ele>
        <time>2026-08-31T06:26:03.000Z</time>
        <extensions>
          <ns3:TrackPointExtension>
            <ns3:hr>155</ns3:hr>
            <ns3:cad>0</ns3:cad>
          </ns3:TrackPointExtension>
        </extensions>
      </trkpt>
      <trkpt lat="44.67654746957123279571533203125" lon="6.816580407321453094482421875">
        <ele>2163</ele>
        <time>2026-08-31T06:26:04.000Z</time>
        <extensions>
          <ns3:TrackPointExtension>
            <ns3:hr>156</ns3:hr>
            <ns3:cad>0</ns3:cad>
          </ns3:TrackPointExtension>
        </extensions>
      </trkpt>
      <trkpt lat="44.67655065469443798065185546875" lon="6.81659105233848094940185546875">
        <ele>2163.199951171875</ele>
        <time>2026-08-31T06:26:05.000Z</time>
        <extensions>
          <ns3:TrackPointExtension>
            <ns3:hr>156</ns3:hr>
            <ns3:cad>0</ns3:cad>
          </ns3:TrackPointExtension>
        </extensions>
      </trkpt>
      <trkpt lat="44.67655174434185028076171875" lon="6.81659926660358905792236328125">
        <ele>2163.39990234375</ele>
        <time>2026-08-31T06:26:06.000Z</time>
        <extensions>
          <ns3:TrackPointExtension>
            <ns3:hr>156</ns3:hr>
            <ns3:cad>0</ns3:cad>
          </ns3:TrackPointExtension>
        </extensions>
      </trkpt>
      <trkpt lat="44.67655576765537261962890625" lon="6.8166127614676952362060546875">
        <ele>2163.60009765625</ele>
        <time>2026-08-31T06:26:07.000Z</time>
        <extensions>
          <ns3:TrackPointExtension>
            <ns3:hr>157</ns3:hr>
            <ns3:cad>0</ns3:cad>
          </ns3:TrackPointExtension>
        </extensions>
      </trkpt>
      <trkpt lat="44.6765576116740703582763671875" lon="6.81662030518054962158203125">
        <ele>2163.800048828125</ele>
        <time>2026-08-31T06:26:08.000Z</time>
        <extensions>
          <ns3:TrackPointExtension>
            <ns3:hr>157</ns3:hr>
            <ns3:cad>0</ns3:cad>
          </ns3:TrackPointExtension>
        </extensions>
      </trkpt>
      <trkpt lat="44.676558114588260650634765625" lon="6.816630698740482330322265625">
        <ele>2164</ele>
        <time>2026-08-31T06:26:09.000Z</time>
        <extensions>
          <ns3:TrackPointExtension>
            <ns3:hr>158</ns3:hr>
            <ns3:cad>0</ns3:cad>
          </ns3:TrackPointExtension>
        </extensions>
      </trkpt>
      <trkpt lat="44.676559455692768096923828125" lon="6.8166410923004150390625">
        <ele>2164.199951171875</ele>
        <time>2026-08-31T06:26:10.000Z</time>
        <extensions>
          <ns3:TrackPointExtension>
            <ns3:hr>158</ns3:hr>
            <ns3:cad>0</ns3:cad>
          </ns3:TrackPointExtension>
        </extensions>
      </trkpt>
      <trkpt lat="44.67655635438859462738037109375" lon="6.8166456185281276702880859375">
        <ele>2164.39990234375</ele>
        <time>2026-08-31T06:26:11.000Z</time>
        <extensions>
          <ns3:TrackPointExtension>
            <ns3:hr>158</ns3:hr>
            <ns3:cad>0</ns3:cad>
          </ns3:TrackPointExtension>
        </extensions>
      </trkpt>
      <trkpt lat="44.67655736021697521209716796875" lon="6.8166553415358066558837890625">
        <ele>2164.60009765625</ele>
        <time>2026-08-31T06:26:12.000Z</time>
        <extensions>
          <ns3:TrackPointExtension>
            <ns3:hr>158</ns3:hr>
            <ns3:cad>0</ns3:cad>
          </ns3:TrackPointExtension>
        </extensions>
      </trkpt>
      <trkpt lat="44.6765577793121337890625" lon="6.81666456162929534912109375">
        <ele>2164.800048828125</ele>
        <time>2026-08-31T06:26:13.000Z</time>
        <extensions>
          <ns3:TrackPointExtension>
            <ns3:hr>158</ns3:hr>
            <ns3:cad>0</ns3:cad>
          </ns3:TrackPointExtension>
        </extensions>
      </trkpt>
      <trkpt lat="44.676564149558544158935546875" lon="6.81667755357921123504638671875">
        <ele>2165.199951171875</ele>
        <time>2026-08-31T06:26:14.000Z</time>
        <extensions>
          <ns3:TrackPointExtension>
            <ns3:hr>158</ns3:hr>
            <ns3:cad>0</ns3:cad>
          </ns3:TrackPointExtension>
        </extensions>
      </trkpt>
      <trkpt lat="44.6765676699578762054443359375" lon="6.8166888691484928131103515625">
        <ele>2165.39990234375</ele>
        <time>2026-08-31T06:26:15.000Z</time>
        <extensions>
          <ns3:TrackPointExtension>
            <ns3:hr>158</ns3:hr>
            <ns3:cad>0</ns3:cad>
          </ns3:TrackPointExtension>
        </extensions>
      </trkpt>
      <trkpt lat="44.67656624503433704376220703125" lon="6.816689707338809967041015625">
        <ele>2165.60009765625</ele>
        <time>2026-08-31T06:26:16.000Z</time>
        <extensions>
          <ns3:TrackPointExtension>
            <ns3:hr>158</ns3:hr>
            <ns3:cad>0</ns3:cad>
          </ns3:TrackPointExtension>
        </extensions>
      </trkpt>
      <trkpt lat="44.6765659935772418975830078125" lon="6.816689707338809967041015625">
        <ele>2165.800048828125</ele>
        <time>2026-08-31T06:26:17.000Z</time>
        <extensions>
          <ns3:TrackPointExtension>
            <ns3:hr>159</ns3:hr>
            <ns3:cad>0</ns3:cad>
          </ns3:TrackPointExtension>
        </extensions>
      </trkpt>
      <trkpt lat="44.67656808905303478240966796875" lon="6.816693060100078582763671875">
        <ele>2166</ele>
        <time>2026-08-31T06:26:18.000Z</time>
        <extensions>
          <ns3:TrackPointExtension>
            <ns3:hr>159</ns3:hr>
            <ns3:cad>0</ns3:cad>
          </ns3:TrackPointExtension>
        </extensions>
      </trkpt>
      <trkpt lat="44.67657051980495452880859375" lon="6.81670068763196468353271484375">
        <ele>2166.39990234375</ele>
        <time>2026-08-31T06:26:19.000Z</time>
        <extensions>
          <ns3:TrackPointExtension>
            <ns3:hr>159</ns3:hr>
            <ns3:cad>0</ns3:cad>
          </ns3:TrackPointExtension>
        </extensions>
      </trkpt>
      <trkpt lat="44.67657110653817653656005859375" lon="6.816709823906421661376953125">
        <ele>2166.39990234375</ele>
        <time>2026-08-31T06:26:20.000Z</time>
        <extensions>
          <ns3:TrackPointExtension>
            <ns3:hr>160</ns3:hr>
            <ns3:cad>0</ns3:cad>
          </ns3:TrackPointExtension>
        </extensions>
      </trkpt>
      <trkpt lat="44.67657512985169887542724609375" lon="6.81672834791243076324462890625">
        <ele>2166.60009765625</ele>
        <time>2026-08-31T06:26:21.000Z</time>
        <extensions>
          <ns3:TrackPointExtension>
            <ns3:hr>160</ns3:hr>
            <ns3:cad>0</ns3:cad>
          </ns3:TrackPointExtension>
        </extensions>
      </trkpt>
      <trkpt lat="44.67657797969877719879150390625" lon="6.8167389929294586181640625">
        <ele>2167</ele>
        <time>2026-08-31T06:26:22.000Z</time>
        <extensions>
          <ns3:TrackPointExtension>
            <ns3:hr>160</ns3:hr>
            <ns3:cad>0</ns3:cad>
          </ns3:TrackPointExtension>
        </extensions>
      </trkpt>
      <trkpt lat="44.67657856643199920654296875" lon="6.8167441897094249725341796875">
        <ele>2167.199951171875</ele>
        <time>2026-08-31T06:26:23.000Z</time>
        <extensions>
          <ns3:TrackPointExtension>
            <ns3:hr>161</ns3:hr>
            <ns3:cad>0</ns3:cad>
          </ns3:TrackPointExtension>
        </extensions>
      </trkpt>
      <trkpt lat="44.676581919193267822265625" lon="6.81676447391510009765625">
        <ele>2167.39990234375</ele>
        <time>2026-08-31T06:26:24.000Z</time>
        <extensions>
          <ns3:TrackPointExtension>
            <ns3:hr>161</ns3:hr>
            <ns3:cad>0</ns3:cad>
          </ns3:TrackPointExtension>
        </extensions>
      </trkpt>
      <trkpt lat="44.6765864454209804534912109375" lon="6.81676673702895641326904296875">
        <ele>2167.60009765625</ele>
        <time>2026-08-31T06:26:25.000Z</time>
        <extensions>
          <ns3:TrackPointExtension>
            <ns3:hr>161</ns3:hr>
            <ns3:cad>0</ns3:cad>
          </ns3:TrackPointExtension>
        </extensions>
      </trkpt>
      <trkpt lat="44.67658636160194873809814453125" lon="6.8167666532099246978759765625">
        <ele>2167.800048828125</ele>
        <time>2026-08-31T06:26:26.000Z</time>
        <extensions>
          <ns3:TrackPointExtension>
            <ns3:hr>161</ns3:hr>
            <ns3:cad>0</ns3:cad>
          </ns3:TrackPointExtension>
        </extensions>
      </trkpt>
      <trkpt lat="44.6765874512493610382080078125" lon="6.816776879131793975830078125">
        <ele>2168</ele>
        <time>2026-08-31T06:26:27.000Z</time>
        <extensions>
          <ns3:TrackPointExtension>
            <ns3:hr>162</ns3:hr>
            <ns3:cad>0</ns3:cad>
          </ns3:TrackPointExtension>
        </extensions>
      </trkpt>
      <trkpt lat="44.6765934862196445465087890625" lon="6.81679573841392993927001953125">
        <ele>2168.199951171875</ele>
        <time>2026-08-31T06:26:28.000Z</time>
        <extensions>
          <ns3:TrackPointExtension>
            <ns3:hr>162</ns3:hr>
            <ns3:cad>0</ns3:cad>
          </ns3:TrackPointExtension>
        </extensions>
      </trkpt>
      <trkpt lat="44.67659608460962772369384765625" lon="6.816807053983211517333984375">
        <ele>2168.39990234375</ele>
        <time>2026-08-31T06:26:29.000Z</time>
        <extensions>
          <ns3:TrackPointExtension>
            <ns3:hr>162</ns3:hr>
            <ns3:cad>0</ns3:cad>
          </ns3:TrackPointExtension>
        </extensions>
      </trkpt>
      <trkpt lat="44.6765966713428497314453125" lon="6.81681300513446331024169921875">
        <ele>2168.800048828125</ele>
        <time>2026-08-31T06:26:30.000Z</time>
        <extensions>
          <ns3:TrackPointExtension>
            <ns3:hr>162</ns3:hr>
            <ns3:cad>0</ns3:cad>
          </ns3:TrackPointExtension>
        </extensions>
      </trkpt>
      <trkpt lat="44.67659826390445232391357421875" lon="6.816821135580539703369140625">
        <ele>2169</ele>
        <time>2026-08-31T06:26:31.000Z</time>
        <extensions>
          <ns3:TrackPointExtension>
            <ns3:hr>162</ns3:hr>
            <ns3:cad>0</ns3:cad>
          </ns3:TrackPointExtension>
        </extensions>
      </trkpt>
      <trkpt lat="44.6766005270183086395263671875" lon="6.81682440452277660369873046875">
        <ele>2169</ele>
        <time>2026-08-31T06:26:32.000Z</time>
        <extensions>
          <ns3:TrackPointExtension>
            <ns3:hr>163</ns3:hr>
            <ns3:cad>0</ns3:cad>
          </ns3:TrackPointExtension>
        </extensions>
      </trkpt>
      <trkpt lat="44.67659859918057918548583984375" lon="6.81683580391108989715576171875">
        <ele>2169.199951171875</ele>
        <time>2026-08-31T06:26:33.000Z</time>
        <extensions>
          <ns3:TrackPointExtension>
            <ns3:hr>163</ns3:hr>
            <ns3:cad>0</ns3:cad>
          </ns3:TrackPointExtension>
        </extensions>
      </trkpt>
      <trkpt lat="44.67659826390445232391357421875" lon="6.81684552691876888275146484375">
        <ele>2169.39990234375</ele>
        <time>2026-08-31T06:26:34.000Z</time>
        <extensions>
          <ns3:TrackPointExtension>
            <ns3:hr>163</ns3:hr>
            <ns3:cad>0</ns3:cad>
          </ns3:TrackPointExtension>
        </extensions>
      </trkpt>
      <trkpt lat="44.67660228721797466278076171875" lon="6.81686379946768283843994140625">
        <ele>2169.60009765625</ele>
        <time>2026-08-31T06:26:35.000Z</time>
        <extensions>
          <ns3:TrackPointExtension>
            <ns3:hr>163</ns3:hr>
            <ns3:cad>0</ns3:cad>
          </ns3:TrackPointExtension>
        </extensions>
      </trkpt>
      <trkpt lat="44.67660429887473583221435546875" lon="6.81687369011342525482177734375">
        <ele>2169.800048828125</ele>
        <time>2026-08-31T06:26:36.000Z</time>
        <extensions>
          <ns3:TrackPointExtension>
            <ns3:hr>164</ns3:hr>
            <ns3:cad>0</ns3:cad>
          </ns3:TrackPointExtension>
        </extensions>
      </trkpt>
      <trkpt lat="44.676611758768558502197265625" lon="6.81688450276851654052734375">
        <ele>2170</ele>
        <time>2026-08-31T06:26:37.000Z</time>
        <extensions>
          <ns3:TrackPointExtension>
            <ns3:hr>164</ns3:hr>
            <ns3:cad>0</ns3:cad>
          </ns3:TrackPointExtension>
        </extensions>
      </trkpt>
      <trkpt lat="44.676617793738842010498046875" lon="6.8168970756232738494873046875">
        <ele>2170.199951171875</ele>
        <time>2026-08-31T06:26:38.000Z</time>
        <extensions>
          <ns3:TrackPointExtension>
            <ns3:hr>164</ns3:hr>
            <ns3:cad>0</ns3:cad>
          </ns3:TrackPointExtension>
        </extensions>
      </trkpt>
      <trkpt lat="44.67661720700562000274658203125" lon="6.81689883582293987274169921875">
        <ele>2170.39990234375</ele>
        <time>2026-08-31T06:26:39.000Z</time>
        <extensions>
          <ns3:TrackPointExtension>
            <ns3:hr>164</ns3:hr>
            <ns3:cad>0</ns3:cad>
          </ns3:TrackPointExtension>
        </extensions>
      </trkpt>
      <trkpt lat="44.67661737464368343353271484375" lon="6.816898919641971588134765625">
        <ele>2170.60009765625</ele>
        <time>2026-08-31T06:26:40.000Z</time>
        <extensions>
          <ns3:TrackPointExtension>
            <ns3:hr>164</ns3:hr>
            <ns3:cad>0</ns3:cad>
          </ns3:TrackPointExtension>
        </extensions>
      </trkpt>
      <trkpt lat="44.67662139795720577239990234375" lon="6.81690637953579425811767578125">
        <ele>2170.800048828125</ele>
        <time>2026-08-31T06:26:41.000Z</time>
        <extensions>
          <ns3:TrackPointExtension>
            <ns3:hr>164</ns3:hr>
            <ns3:cad>0</ns3:cad>
          </ns3:TrackPointExtension>
        </extensions>
      </trkpt>
      <trkpt lat="44.67662818729877471923828125" lon="6.81692205369472503662109375">
        <ele>2171</ele>
        <time>2026-08-31T06:26:42.000Z</time>
        <extensions>
          <ns3:TrackPointExtension>
            <ns3:hr>165</ns3:hr>
            <ns3:cad>0</ns3:cad>
          </ns3:TrackPointExtension>
        </extensions>
      </trkpt>
      <trkpt lat="44.67663246206939220428466796875" lon="6.81693521328270435333251953125">
        <ele>2171</ele>
        <time>2026-08-31T06:26:43.000Z</time>
        <extensions>
          <ns3:TrackPointExtension>
            <ns3:hr>166</ns3:hr>
            <ns3:cad>0</ns3:cad>
          </ns3:TrackPointExtension>
        </extensions>
      </trkpt>
      <trkpt lat="44.67663413845002651214599609375" lon="6.8169550783932209014892578125">
        <ele>2171.199951171875</ele>
        <time>2026-08-31T06:26:44.000Z</time>
        <extensions>
          <ns3:TrackPointExtension>
            <ns3:hr>167</ns3:hr>
            <ns3:cad>0</ns3:cad>
          </ns3:TrackPointExtension>
        </extensions>
      </trkpt>
      <trkpt lat="44.6766360662877559661865234375" lon="6.81696488521993160247802734375">
        <ele>2171.39990234375</ele>
        <time>2026-08-31T06:26:45.000Z</time>
        <extensions>
          <ns3:TrackPointExtension>
            <ns3:hr>168</ns3:hr>
            <ns3:cad>0</ns3:cad>
          </ns3:TrackPointExtension>
        </extensions>
      </trkpt>
      <trkpt lat="44.67662877403199672698974609375" lon="6.8169691599905490875244140625">
        <ele>2171.60009765625</ele>
        <time>2026-08-31T06:26:46.000Z</time>
        <extensions>
          <ns3:TrackPointExtension>
            <ns3:hr>169</ns3:hr>
            <ns3:cad>0</ns3:cad>
          </ns3:TrackPointExtension>
        </extensions>
      </trkpt>
      <trkpt lat="44.67662760056555271148681640625" lon="6.8169669806957244873046875">
        <ele>2171.800048828125</ele>
        <time>2026-08-31T06:26:47.000Z</time>
        <extensions>
          <ns3:TrackPointExtension>
            <ns3:hr>170</ns3:hr>
            <ns3:cad>0</ns3:cad>
          </ns3:TrackPointExtension>
        </extensions>
      </trkpt>
      <trkpt lat="44.67662760056555271148681640625" lon="6.8169669806957244873046875">
        <ele>2171.800048828125</ele>
        <time>2026-08-31T06:26:48.000Z</time>
        <extensions>
          <ns3:TrackPointExtension>
            <ns3:hr>170</ns3:hr>
            <ns3:cad>0</ns3:cad>
          </ns3:TrackPointExtension>
        </extensions>
      </trkpt>
      <trkpt lat="44.67662760056555271148681640625" lon="6.8169669806957244873046875">
        <ele>2171.800048828125</ele>
        <time>2026-08-31T06:26:49.000Z</time>
        <extensions>
          <ns3:TrackPointExtension>
            <ns3:hr>171</ns3:hr>
            <ns3:cad>0</ns3:cad>
          </ns3:TrackPointExtension>
        </extensions>
      </trkpt>
      <trkpt lat="44.67662760056555271148681640625" lon="6.8169669806957244873046875">
        <ele>2172</ele>
        <time>2026-08-31T06:26:50.000Z</time>
        <extensions>
          <ns3:TrackPointExtension>
            <ns3:hr>171</ns3:hr>
            <ns3:cad>0</ns3:cad>
          </ns3:TrackPointExtension>
        </extensions>
      </trkpt>
      <trkpt lat="44.67662760056555271148681640625" lon="6.8169669806957244873046875">
        <ele>2171.800048828125</ele>
        <time>2026-08-31T06:26:51.000Z</time>
        <extensions>
          <ns3:TrackPointExtension>
            <ns3:hr>171</ns3:hr>
            <ns3:cad>0</ns3:cad>
          </ns3:TrackPointExtension>
        </extensions>
      </trkpt>
      <trkpt lat="44.67662760056555271148681640625" lon="6.8169669806957244873046875">
        <ele>2171.800048828125</ele>
        <time>2026-08-31T06:26:52.000Z</time>
        <extensions>
          <ns3:TrackPointExtension>
            <ns3:hr>171</ns3:hr>
            <ns3:cad>0</ns3:cad>
          </ns3:TrackPointExtension>
        </extensions>
      </trkpt>
      <trkpt lat="44.67662760056555271148681640625" lon="6.8169669806957244873046875">
        <ele>2171.800048828125</ele>
        <time>2026-08-31T06:26:53.000Z</time>
        <extensions>
          <ns3:TrackPointExtension>
            <ns3:hr>171</ns3:hr>
            <ns3:cad>0</ns3:cad>
          </ns3:TrackPointExtension>
        </extensions>
      </trkpt>
      <trkpt lat="44.67662760056555271148681640625" lon="6.8169669806957244873046875">
        <ele>2172</ele>
        <time>2026-08-31T06:26:54.000Z</time>
        <extensions>
          <ns3:TrackPointExtension>
            <ns3:hr>171</ns3:hr>
            <ns3:cad>0</ns3:cad>
          </ns3:TrackPointExtension>
        </extensions>
      </trkpt>
      <trkpt lat="44.67662760056555271148681640625" lon="6.8169669806957244873046875">
        <ele>2172</ele>
        <time>2026-08-31T06:26:55.000Z</time>
        <extensions>
          <ns3:TrackPointExtension>
            <ns3:hr>172</ns3:hr>
            <ns3:cad>0</ns3:cad>
          </ns3:TrackPointExtension>
        </extensions>
      </trkpt>
      <trkpt lat="44.67662760056555271148681640625" lon="6.8169669806957244873046875">
        <ele>2172</ele>
        <time>2026-08-31T06:26:56.000Z</time>
        <extensions>
          <ns3:TrackPointExtension>
            <ns3:hr>171</ns3:hr>
            <ns3:cad>0</ns3:cad>
          </ns3:TrackPointExtension>
        </extensions>
      </trkpt>
      <trkpt lat="44.67662760056555271148681640625" lon="6.8169669806957244873046875">
        <ele>2172</ele>
        <time>2026-08-31T06:26:57.000Z</time>
        <extensions>
          <ns3:TrackPointExtension>
            <ns3:hr>171</ns3:hr>
            <ns3:cad>0</ns3:cad>
          </ns3:TrackPointExtension>
        </extensions>
      </trkpt>
      <trkpt lat="44.67662760056555271148681640625" lon="6.8169669806957244873046875">
        <ele>2172</ele>
        <time>2026-08-31T06:26:58.000Z</time>
        <extensions>
          <ns3:TrackPointExtension>
            <ns3:hr>171</ns3:hr>
            <ns3:cad>0</ns3:cad>
          </ns3:TrackPointExtension>
        </extensions>
      </trkpt>
      <trkpt lat="44.67662760056555271148681640625" lon="6.8169669806957244873046875">
        <ele>2172</ele>
        <time>2026-08-31T06:26:59.000Z</time>
        <extensions>
          <ns3:TrackPointExtension>
            <ns3:hr>171</ns3:hr>
            <ns3:cad>0</ns3:cad>
          </ns3:TrackPointExtension>
        </extensions>
      </trkpt>
      <trkpt lat="44.67662760056555271148681640625" lon="6.8169669806957244873046875">
        <ele>2172</ele>
        <time>2026-08-31T06:27:00.000Z</time>
        <extensions>
          <ns3:TrackPointExtension>
            <ns3:hr>170</ns3:hr>
            <ns3:cad>0</ns3:cad>
          </ns3:TrackPointExtension>
        </extensions>
      </trkpt>
      <trkpt lat="44.67662760056555271148681640625" lon="6.8169669806957244873046875">
        <ele>2172</ele>
        <time>2026-08-31T06:27:01.000Z</time>
        <extensions>
          <ns3:TrackPointExtension>
            <ns3:hr>170</ns3:hr>
            <ns3:cad>0</ns3:cad>
          </ns3:TrackPointExtension>
        </extensions>
      </trkpt>
      <trkpt lat="44.67662760056555271148681640625" lon="6.8169669806957244873046875">
        <ele>2172</ele>
        <time>2026-08-31T06:27:02.000Z</time>
        <extensions>
          <ns3:TrackPointExtension>
            <ns3:hr>170</ns3:hr>
            <ns3:cad>0</ns3:cad>
          </ns3:TrackPointExtension>
        </extensions>
      </trkpt>
      <trkpt lat="44.67662760056555271148681640625" lon="6.8169669806957244873046875">
        <ele>2172</ele>
        <time>2026-08-31T06:27:03.000Z</time>
        <extensions>
          <ns3:TrackPointExtension>
            <ns3:hr>169</ns3:hr>
            <ns3:cad>0</ns3:cad>
          </ns3:TrackPointExtension>
        </extensions>
      </trkpt>
      <trkpt lat="44.67662760056555271148681640625" lon="6.8169669806957244873046875">
        <ele>2172</ele>
        <time>2026-08-31T06:27:04.000Z</time>
        <extensions>
          <ns3:TrackPointExtension>
            <ns3:hr>168</ns3:hr>
            <ns3:cad>0</ns3:cad>
          </ns3:TrackPointExtension>
        </extensions>
      </trkpt>
      <trkpt lat="44.67662760056555271148681640625" lon="6.8169669806957244873046875">
        <ele>2172</ele>
        <time>2026-08-31T06:27:05.000Z</time>
        <extensions>
          <ns3:TrackPointExtension>
            <ns3:hr>167</ns3:hr>
            <ns3:cad>0</ns3:cad>
          </ns3:TrackPointExtension>
        </extensions>
      </trkpt>
      <trkpt lat="44.67662760056555271148681640625" lon="6.8169669806957244873046875">
        <ele>2172</ele>
        <time>2026-08-31T06:27:06.000Z</time>
        <extensions>
          <ns3:TrackPointExtension>
            <ns3:hr>166</ns3:hr>
            <ns3:cad>0</ns3:cad>
          </ns3:TrackPointExtension>
        </extensions>
      </trkpt>
      <trkpt lat="44.67662760056555271148681640625" lon="6.8169669806957244873046875">
        <ele>2172</ele>
        <time>2026-08-31T06:27:07.000Z</time>
        <extensions>
          <ns3:TrackPointExtension>
            <ns3:hr>165</ns3:hr>
            <ns3:cad>0</ns3:cad>
          </ns3:TrackPointExtension>
        </extensions>
      </trkpt>
      <trkpt lat="44.67662760056555271148681640625" lon="6.8169669806957244873046875">
        <ele>2172</ele>
        <time>2026-08-31T06:27:08.000Z</time>
        <extensions>
          <ns3:TrackPointExtension>
            <ns3:hr>164</ns3:hr>
            <ns3:cad>0</ns3:cad>
          </ns3:TrackPointExtension>
        </extensions>
      </trkpt>
      <trkpt lat="44.67662760056555271148681640625" lon="6.8169669806957244873046875">
        <ele>2172</ele>
        <time>2026-08-31T06:27:09.000Z</time>
        <extensions>
          <ns3:TrackPointExtension>
            <ns3:hr>164</ns3:hr>
            <ns3:cad>0</ns3:cad>
          </ns3:TrackPointExtension>
        </extensions>
      </trkpt>
      <trkpt lat="44.67662760056555271148681640625" lon="6.8169669806957244873046875">
        <ele>2172</ele>
        <time>2026-08-31T06:27:10.000Z</time>
        <extensions>
          <ns3:TrackPointExtension>
            <ns3:hr>163</ns3:hr>
            <ns3:cad>0</ns3:cad>
          </ns3:TrackPointExtension>
        </extensions>
      </trkpt>
      <trkpt lat="44.67662760056555271148681640625" lon="6.8169669806957244873046875">
        <ele>2172</ele>
        <time>2026-08-31T06:27:11.000Z</time>
        <extensions>
          <ns3:TrackPointExtension>
            <ns3:hr>162</ns3:hr>
            <ns3:cad>0</ns3:cad>
          </ns3:TrackPointExtension>
        </extensions>
      </trkpt>
      <trkpt lat="44.67662693001329898834228515625" lon="6.81697024963796138763427734375">
        <ele>2172</ele>
        <time>2026-08-31T06:27:12.000Z</time>
        <extensions>
          <ns3:TrackPointExtension>
            <ns3:hr>162</ns3:hr>
            <ns3:cad>0</ns3:cad>
          </ns3:TrackPointExtension>
        </extensions>
      </trkpt>
      <trkpt lat="44.67662877403199672698974609375" lon="6.81697863154113292694091796875">
        <ele>2172</ele>
        <time>2026-08-31T06:27:13.000Z</time>
        <extensions>
          <ns3:TrackPointExtension>
            <ns3:hr>162</ns3:hr>
            <ns3:cad>0</ns3:cad>
          </ns3:TrackPointExtension>
        </extensions>
      </trkpt>
      <trkpt lat="44.67663397081196308135986328125" lon="6.81699170731008052825927734375">
        <ele>2172</ele>
        <time>2026-08-31T06:27:14.000Z</time>
        <extensions>
          <ns3:TrackPointExtension>
            <ns3:hr>161</ns3:hr>
            <ns3:cad>0</ns3:cad>
          </ns3:TrackPointExtension>
        </extensions>
      </trkpt>
      <trkpt lat="44.67663489282131195068359375" lon="6.81699757464230060577392578125">
        <ele>2172.199951171875</ele>
        <time>2026-08-31T06:27:15.000Z</time>
        <extensions>
          <ns3:TrackPointExtension>
            <ns3:hr>160</ns3:hr>
            <ns3:cad>0</ns3:cad>
          </ns3:TrackPointExtension>
        </extensions>
      </trkpt>
      <trkpt lat="44.6766390837728977203369140625" lon="6.8170107342302799224853515625">
        <ele>2172.39990234375</ele>
        <time>2026-08-31T06:27:16.000Z</time>
        <extensions>
          <ns3:TrackPointExtension>
            <ns3:hr>160</ns3:hr>
            <ns3:cad>0</ns3:cad>
          </ns3:TrackPointExtension>
        </extensions>
      </trkpt>
      <trkpt lat="44.67664201743900775909423828125" lon="6.8170248158276081085205078125">
        <ele>2172.60009765625</ele>
        <time>2026-08-31T06:27:17.000Z</time>
        <extensions>
          <ns3:TrackPointExtension>
            <ns3:hr>159</ns3:hr>
            <ns3:cad>0</ns3:cad>
          </ns3:TrackPointExtension>
        </extensions>
      </trkpt>
      <trkpt lat="44.67664562165737152099609375" lon="6.81704317219555377960205078125">
        <ele>2173</ele>
        <time>2026-08-31T06:27:18.000Z</time>
        <extensions>
          <ns3:TrackPointExtension>
            <ns3:hr>159</ns3:hr>
            <ns3:cad>0</ns3:cad>
          </ns3:TrackPointExtension>
        </extensions>
      </trkpt>
      <trkpt lat="44.67665073461830615997314453125" lon="6.81705893017351627349853515625">
        <ele>2173.199951171875</ele>
        <time>2026-08-31T06:27:19.000Z</time>
        <extensions>
          <ns3:TrackPointExtension>
            <ns3:hr>158</ns3:hr>
            <ns3:cad>0</ns3:cad>
          </ns3:TrackPointExtension>
        </extensions>
      </trkpt>
      <trkpt lat="44.6766528300940990447998046875" lon="6.81706949137151241302490234375">
        <ele>2173.39990234375</ele>
        <time>2026-08-31T06:27:20.000Z</time>
        <extensions>
          <ns3:TrackPointExtension>
            <ns3:hr>157</ns3:hr>
            <ns3:cad>0</ns3:cad>
          </ns3:TrackPointExtension>
        </extensions>
      </trkpt>
      <trkpt lat="44.67665844596922397613525390625" lon="6.81708239950239658355712890625">
        <ele>2173.60009765625</ele>
        <time>2026-08-31T06:27:21.000Z</time>
        <extensions>
          <ns3:TrackPointExtension>
            <ns3:hr>157</ns3:hr>
            <ns3:cad>0</ns3:cad>
          </ns3:TrackPointExtension>
        </extensions>
      </trkpt>
      <trkpt lat="44.67666230164468288421630859375" lon="6.8170881830155849456787109375">
        <ele>2173.800048828125</ele>
        <time>2026-08-31T06:27:22.000Z</time>
        <extensions>
          <ns3:TrackPointExtension>
            <ns3:hr>156</ns3:hr>
            <ns3:cad>0</ns3:cad>
          </ns3:TrackPointExtension>
        </extensions>
      </trkpt>
      <trkpt lat="44.67666598968207836151123046875" lon="6.817099750041961669921875">
        <ele>2174</ele>
        <time>2026-08-31T06:27:23.000Z</time>
        <extensions>
          <ns3:TrackPointExtension>
            <ns3:hr>156</ns3:hr>
            <ns3:cad>0</ns3:cad>
          </ns3:TrackPointExtension>
        </extensions>
      </trkpt>
      <trkpt lat="44.67666833661496639251708984375" lon="6.8171046115458011627197265625">
        <ele>2174</ele>
        <time>2026-08-31T06:27:24.000Z</time>
        <extensions>
          <ns3:TrackPointExtension>
            <ns3:hr>155</ns3:hr>
            <ns3:cad>0</ns3:cad>
          </ns3:TrackPointExtension>
        </extensions>
      </trkpt>
      <trkpt lat="44.6766739524900913238525390625" lon="6.8171145021915435791015625">
        <ele>2174.199951171875</ele>
        <time>2026-08-31T06:27:25.000Z</time>
        <extensions>
          <ns3:TrackPointExtension>
            <ns3:hr>155</ns3:hr>
            <ns3:cad>0</ns3:cad>
          </ns3:TrackPointExtension>
        </extensions>
      </trkpt>
      <trkpt lat="44.676678478717803955078125" lon="6.81712045334279537200927734375">
        <ele>2174.39990234375</ele>
        <time>2026-08-31T06:27:26.000Z</time>
        <extensions>
          <ns3:TrackPointExtension>
            <ns3:hr>154</ns3:hr>
            <ns3:cad>0</ns3:cad>
          </ns3:TrackPointExtension>
        </extensions>
      </trkpt>
      <trkpt lat="44.67668727971613407135009765625" lon="6.81712917052209377288818359375">
        <ele>2174.60009765625</ele>
        <time>2026-08-31T06:27:27.000Z</time>
        <extensions>
          <ns3:TrackPointExtension>
            <ns3:hr>153</ns3:hr>
            <ns3:cad>0</ns3:cad>
          </ns3:TrackPointExtension>
        </extensions>
      </trkpt>
      <trkpt lat="44.67669448815286159515380859375" lon="6.8171394802629947662353515625">
        <ele>2174.800048828125</ele>
        <time>2026-08-31T06:27:28.000Z</time>
        <extensions>
          <ns3:TrackPointExtension>
            <ns3:hr>152</ns3:hr>
            <ns3:cad>0</ns3:cad>
          </ns3:TrackPointExtension>
        </extensions>
      </trkpt>
      <trkpt lat="44.67669599689543247222900390625" lon="6.8171512149274349212646484375">
        <ele>2175</ele>
        <time>2026-08-31T06:27:29.000Z</time>
        <extensions>
          <ns3:TrackPointExtension>
            <ns3:hr>152</ns3:hr>
            <ns3:cad>0</ns3:cad>
          </ns3:TrackPointExtension>
        </extensions>
      </trkpt>
      <trkpt lat="44.67669901438057422637939453125" lon="6.81716454215347766876220703125">
        <ele>2175.199951171875</ele>
        <time>2026-08-31T06:27:30.000Z</time>
        <extensions>
          <ns3:TrackPointExtension>
            <ns3:hr>151</ns3:hr>
            <ns3:cad>0</ns3:cad>
          </ns3:TrackPointExtension>
        </extensions>
      </trkpt>
      <trkpt lat="44.67670069076120853424072265625" lon="6.8171673081815242767333984375">
        <ele>2175.39990234375</ele>
        <time>2026-08-31T06:27:31.000Z</time>
        <extensions>
          <ns3:TrackPointExtension>
            <ns3:hr>150</ns3:hr>
            <ns3:cad>0</ns3:cad>
          </ns3:TrackPointExtension>
        </extensions>
      </trkpt>
      <trkpt lat="44.676701612770557403564453125" lon="6.8171743489801883697509765625">
        <ele>2175.60009765625</ele>
        <time>2026-08-31T06:27:32.000Z</time>
        <extensions>
          <ns3:TrackPointExtension>
            <ns3:hr>150</ns3:hr>
            <ns3:cad>0</ns3:cad>
          </ns3:TrackPointExtension>
        </extensions>
      </trkpt>
      <trkpt lat="44.676706306636333465576171875" lon="6.81717996485531330108642578125">
        <ele>2175.800048828125</ele>
        <time>2026-08-31T06:27:33.000Z</time>
        <extensions>
          <ns3:TrackPointExtension>
            <ns3:hr>149</ns3:hr>
            <ns3:cad>0</ns3:cad>
          </ns3:TrackPointExtension>
        </extensions>
      </trkpt>
      <trkpt lat="44.67671334743499755859375" lon="6.81719555519521236419677734375">
        <ele>2176</ele>
        <time>2026-08-31T06:27:34.000Z</time>
        <extensions>
          <ns3:TrackPointExtension>
            <ns3:hr>149</ns3:hr>
            <ns3:cad>0</ns3:cad>
          </ns3:TrackPointExtension>
        </extensions>
      </trkpt>
      <trkpt lat="44.67671862803399562835693359375" lon="6.81720980443060398101806640625">
        <ele>2176.199951171875</ele>
        <time>2026-08-31T06:27:35.000Z</time>
        <extensions>
          <ns3:TrackPointExtension>
            <ns3:hr>148</ns3:hr>
            <ns3:cad>0</ns3:cad>
          </ns3:TrackPointExtension>
        </extensions>
      </trkpt>
      <trkpt lat="44.67672114260494709014892578125" lon="6.81722304783761501312255859375">
        <ele>2176.39990234375</ele>
        <time>2026-08-31T06:27:36.000Z</time>
        <extensions>
          <ns3:TrackPointExtension>
            <ns3:hr>148</ns3:hr>
            <ns3:cad>0</ns3:cad>
          </ns3:TrackPointExtension>
        </extensions>
      </trkpt>
      <trkpt lat="44.6767252497375011444091796875" lon="6.817235536873340606689453125">
        <ele>2176.60009765625</ele>
        <time>2026-08-31T06:27:37.000Z</time>
        <extensions>
          <ns3:TrackPointExtension>
            <ns3:hr>148</ns3:hr>
            <ns3:cad>40</ns3:cad>
          </ns3:TrackPointExtension>
        </extensions>
      </trkpt>
      <trkpt lat="44.67672667466104030609130859375" lon="6.81724115274846553802490234375">
        <ele>2176.800048828125</ele>
        <time>2026-08-31T06:27:38.000Z</time>
        <extensions>
          <ns3:TrackPointExtension>
            <ns3:hr>148</ns3:hr>
            <ns3:cad>40</ns3:cad>
          </ns3:TrackPointExtension>
        </extensions>
      </trkpt>
      <trkpt lat="44.6767245791852474212646484375" lon="6.81725573725998401641845703125">
        <ele>2177</ele>
        <time>2026-08-31T06:27:39.000Z</time>
        <extensions>
          <ns3:TrackPointExtension>
            <ns3:hr>149</ns3:hr>
            <ns3:cad>40</ns3:cad>
          </ns3:TrackPointExtension>
        </extensions>
      </trkpt>
      <trkpt lat="44.6767239086329936981201171875" lon="6.817267052829265594482421875">
        <ele>2177</ele>
        <time>2026-08-31T06:27:40.000Z</time>
        <extensions>
          <ns3:TrackPointExtension>
            <ns3:hr>149</ns3:hr>
            <ns3:cad>40</ns3:cad>
          </ns3:TrackPointExtension>
        </extensions>
      </trkpt>
      <trkpt lat="44.6767227351665496826171875" lon="6.8172813020646572113037109375">
        <ele>2177.39990234375</ele>
        <time>2026-08-31T06:27:41.000Z</time>
        <extensions>
          <ns3:TrackPointExtension>
            <ns3:hr>149</ns3:hr>
            <ns3:cad>40</ns3:cad>
          </ns3:TrackPointExtension>
        </extensions>
      </trkpt>
      <trkpt lat="44.67672717757523059844970703125" lon="6.81729412637650966644287109375">
        <ele>2177.60009765625</ele>
        <time>2026-08-31T06:27:42.000Z</time>
        <extensions>
          <ns3:TrackPointExtension>
            <ns3:hr>149</ns3:hr>
            <ns3:cad>0</ns3:cad>
          </ns3:TrackPointExtension>
        </extensions>
      </trkpt>
      <trkpt lat="44.6767254173755645751953125" lon="6.8173091299831867218017578125">
        <ele>2177.800048828125</ele>
        <time>2026-08-31T06:27:43.000Z</time>
        <extensions>
          <ns3:TrackPointExtension>
            <ns3:hr>149</ns3:hr>
            <ns3:cad>0</ns3:cad>
          </ns3:TrackPointExtension>
        </extensions>
      </trkpt>
      <trkpt lat="44.676726758480072021484375" lon="6.81732530705630779266357421875">
        <ele>2177.800048828125</ele>
        <time>2026-08-31T06:27:44.000Z</time>
        <extensions>
          <ns3:TrackPointExtension>
            <ns3:hr>149</ns3:hr>
            <ns3:cad>0</ns3:cad>
          </ns3:TrackPointExtension>
        </extensions>
      </trkpt>
      <trkpt lat="44.6767265908420085906982421875" lon="6.817334778606891632080078125">
        <ele>2178</ele>
        <time>2026-08-31T06:27:45.000Z</time>
        <extensions>
          <ns3:TrackPointExtension>
            <ns3:hr>150</ns3:hr>
            <ns3:cad>0</ns3:cad>
          </ns3:TrackPointExtension>
        </extensions>
      </trkpt>
      <trkpt lat="44.6767265908420085906982421875" lon="6.8173349462449550628662109375">
        <ele>2178.199951171875</ele>
        <time>2026-08-31T06:27:46.000Z</time>
        <extensions>
          <ns3:TrackPointExtension>
            <ns3:hr>149</ns3:hr>
            <ns3:cad>0</ns3:cad>
          </ns3:TrackPointExtension>
        </extensions>
      </trkpt>
      <trkpt lat="44.67672717757523059844970703125" lon="6.81735078804194927215576171875">
        <ele>2178.39990234375</ele>
        <time>2026-08-31T06:27:47.000Z</time>
        <extensions>
          <ns3:TrackPointExtension>
            <ns3:hr>149</ns3:hr>
            <ns3:cad>0</ns3:cad>
          </ns3:TrackPointExtension>
        </extensions>
      </trkpt>
      <trkpt lat="44.67672877013683319091796875" lon="6.81736839003860950469970703125">
        <ele>2178.60009765625</ele>
        <time>2026-08-31T06:27:48.000Z</time>
        <extensions>
          <ns3:TrackPointExtension>
            <ns3:hr>149</ns3:hr>
            <ns3:cad>0</ns3:cad>
          </ns3:TrackPointExtension>
        </extensions>
      </trkpt>
      <trkpt lat="44.67673086561262607574462890625" lon="6.8173835612833499908447265625">
        <ele>2178.800048828125</ele>
        <time>2026-08-31T06:27:49.000Z</time>
        <extensions>
          <ns3:TrackPointExtension>
            <ns3:hr>149</ns3:hr>
            <ns3:cad>0</ns3:cad>
          </ns3:TrackPointExtension>
        </extensions>
      </trkpt>
      <trkpt lat="44.67673270963132381439208984375" lon="6.8174003250896930694580078125">
        <ele>2178.800048828125</ele>
        <time>2026-08-31T06:27:50.000Z</time>
        <extensions>
          <ns3:TrackPointExtension>
            <ns3:hr>149</ns3:hr>
            <ns3:cad>0</ns3:cad>
          </ns3:TrackPointExtension>
        </extensions>
      </trkpt>
      <trkpt lat="44.67673572711646556854248046875" lon="6.8174167536199092864990234375">
        <ele>2179</ele>
        <time>2026-08-31T06:27:51.000Z</time>
        <extensions>
          <ns3:TrackPointExtension>
            <ns3:hr>149</ns3:hr>
            <ns3:cad>0</ns3:cad>
          </ns3:TrackPointExtension>
        </extensions>
      </trkpt>
      <trkpt lat="44.6767373196780681610107421875" lon="6.8174281530082225799560546875">
        <ele>2179.199951171875</ele>
        <time>2026-08-31T06:27:52.000Z</time>
        <extensions>
          <ns3:TrackPointExtension>
            <ns3:hr>148</ns3:hr>
            <ns3:cad>0</ns3:cad>
          </ns3:TrackPointExtension>
        </extensions>
      </trkpt>
      <trkpt lat="44.67674075625836849212646484375" lon="6.817445419728755950927734375">
        <ele>2179.39990234375</ele>
        <time>2026-08-31T06:27:53.000Z</time>
        <extensions>
          <ns3:TrackPointExtension>
            <ns3:hr>148</ns3:hr>
            <ns3:cad>0</ns3:cad>
          </ns3:TrackPointExtension>
        </extensions>
      </trkpt>
      <trkpt lat="44.6767416782677173614501953125" lon="6.81745656765997409820556640625">
        <ele>2179.60009765625</ele>
        <time>2026-08-31T06:27:54.000Z</time>
        <extensions>
          <ns3:TrackPointExtension>
            <ns3:hr>148</ns3:hr>
            <ns3:cad>0</ns3:cad>
          </ns3:TrackPointExtension>
        </extensions>
      </trkpt>
      <trkpt lat="44.676741175353527069091796875" lon="6.81746880523860454559326171875">
        <ele>2179.60009765625</ele>
        <time>2026-08-31T06:27:55.000Z</time>
        <extensions>
          <ns3:TrackPointExtension>
            <ns3:hr>148</ns3:hr>
            <ns3:cad>51</ns3:cad>
          </ns3:TrackPointExtension>
        </extensions>
      </trkpt>
      <trkpt lat="44.67674293555319309234619140625" lon="6.81748171336948871612548828125">
        <ele>2179.800048828125</ele>
        <time>2026-08-31T06:27:56.000Z</time>
        <extensions>
          <ns3:TrackPointExtension>
            <ns3:hr>148</ns3:hr>
            <ns3:cad>51</ns3:cad>
          </ns3:TrackPointExtension>
        </extensions>
      </trkpt>
      <trkpt lat="44.67674511484801769256591796875" lon="6.81749738752841949462890625">
        <ele>2180.199951171875</ele>
        <time>2026-08-31T06:27:57.000Z</time>
        <extensions>
          <ns3:TrackPointExtension>
            <ns3:hr>148</ns3:hr>
            <ns3:cad>51</ns3:cad>
          </ns3:TrackPointExtension>
        </extensions>
      </trkpt>
      <trkpt lat="44.6767470426857471466064453125" lon="6.81750987656414508819580078125">
        <ele>2180.39990234375</ele>
        <time>2026-08-31T06:27:58.000Z</time>
        <extensions>
          <ns3:TrackPointExtension>
            <ns3:hr>148</ns3:hr>
            <ns3:cad>0</ns3:cad>
          </ns3:TrackPointExtension>
        </extensions>
      </trkpt>
      <trkpt lat="44.67674679122865200042724609375" lon="6.81751892901957035064697265625">
        <ele>2180.39990234375</ele>
        <time>2026-08-31T06:27:59.000Z</time>
        <extensions>
          <ns3:TrackPointExtension>
            <ns3:hr>148</ns3:hr>
            <ns3:cad>0</ns3:cad>
          </ns3:TrackPointExtension>
        </extensions>
      </trkpt>
      <trkpt lat="44.67674662359058856964111328125" lon="6.81752957403659820556640625">
        <ele>2180.60009765625</ele>
        <time>2026-08-31T06:28:00.000Z</time>
        <extensions>
          <ns3:TrackPointExtension>
            <ns3:hr>149</ns3:hr>
            <ns3:cad>0</ns3:cad>
          </ns3:TrackPointExtension>
        </extensions>
      </trkpt>
      <trkpt lat="44.6767467074096202850341796875" lon="6.8175356090068817138671875">
        <ele>2180.800048828125</ele>
        <time>2026-08-31T06:28:01.000Z</time>
        <extensions>
          <ns3:TrackPointExtension>
            <ns3:hr>149</ns3:hr>
            <ns3:cad>0</ns3:cad>
          </ns3:TrackPointExtension>
        </extensions>
      </trkpt>
      <trkpt lat="44.6767477132380008697509765625" lon="6.81754876859486103057861328125">
        <ele>2181</ele>
        <time>2026-08-31T06:28:02.000Z</time>
        <extensions>
          <ns3:TrackPointExtension>
            <ns3:hr>149</ns3:hr>
            <ns3:cad>0</ns3:cad>
          </ns3:TrackPointExtension>
        </extensions>
      </trkpt>
      <trkpt lat="44.67675047926604747772216796875" lon="6.81756217963993549346923828125">
        <ele>2181.199951171875</ele>
        <time>2026-08-31T06:28:03.000Z</time>
        <extensions>
          <ns3:TrackPointExtension>
            <ns3:hr>150</ns3:hr>
            <ns3:cad>0</ns3:cad>
          </ns3:TrackPointExtension>
        </extensions>
      </trkpt>
      <trkpt lat="44.676756598055362701416015625" lon="6.8175823800265789031982421875">
        <ele>2181.39990234375</ele>
        <time>2026-08-31T06:28:04.000Z</time>
        <extensions>
          <ns3:TrackPointExtension>
            <ns3:hr>150</ns3:hr>
            <ns3:cad>0</ns3:cad>
          </ns3:TrackPointExtension>
        </extensions>
      </trkpt>
      <trkpt lat="44.67676095664501190185546875" lon="6.81759570725262165069580078125">
        <ele>2181.60009765625</ele>
        <time>2026-08-31T06:28:05.000Z</time>
        <extensions>
          <ns3:TrackPointExtension>
            <ns3:hr>150</ns3:hr>
            <ns3:cad>0</ns3:cad>
          </ns3:TrackPointExtension>
        </extensions>
      </trkpt>
      <trkpt lat="44.67676355503499507904052734375" lon="6.81761138141155242919921875">
        <ele>2181.800048828125</ele>
        <time>2026-08-31T06:28:06.000Z</time>
        <extensions>
          <ns3:TrackPointExtension>
            <ns3:hr>150</ns3:hr>
            <ns3:cad>0</ns3:cad>
          </ns3:TrackPointExtension>
        </extensions>
      </trkpt>
      <trkpt lat="44.6767671592533588409423828125" lon="6.8176249600946903228759765625">
        <ele>2182</ele>
        <time>2026-08-31T06:28:07.000Z</time>
        <extensions>
          <ns3:TrackPointExtension>
            <ns3:hr>150</ns3:hr>
            <ns3:cad>0</ns3:cad>
          </ns3:TrackPointExtension>
        </extensions>
      </trkpt>
      <trkpt lat="44.6767701767385005950927734375" lon="6.81763443164527416229248046875">
        <ele>2182.199951171875</ele>
        <time>2026-08-31T06:28:08.000Z</time>
        <extensions>
          <ns3:TrackPointExtension>
            <ns3:hr>151</ns3:hr>
            <ns3:cad>0</ns3:cad>
          </ns3:TrackPointExtension>
        </extensions>
      </trkpt>
      <trkpt lat="44.67677378095686435699462890625" lon="6.81764683686196804046630859375">
        <ele>2182.39990234375</ele>
        <time>2026-08-31T06:28:09.000Z</time>
        <extensions>
          <ns3:TrackPointExtension>
            <ns3:hr>151</ns3:hr>
            <ns3:cad>0</ns3:cad>
          </ns3:TrackPointExtension>
        </extensions>
      </trkpt>
      <trkpt lat="44.67677277512848377227783203125" lon="6.81766175664961338043212890625">
        <ele>2182.39990234375</ele>
        <time>2026-08-31T06:28:10.000Z</time>
        <extensions>
          <ns3:TrackPointExtension>
            <ns3:hr>151</ns3:hr>
            <ns3:cad>0</ns3:cad>
          </ns3:TrackPointExtension>
        </extensions>
      </trkpt>
      <trkpt lat="44.6767755411565303802490234375" lon="6.817674748599529266357421875">
        <ele>2182.60009765625</ele>
        <time>2026-08-31T06:28:11.000Z</time>
        <extensions>
          <ns3:TrackPointExtension>
            <ns3:hr>151</ns3:hr>
            <ns3:cad>0</ns3:cad>
          </ns3:TrackPointExtension>
        </extensions>
      </trkpt>
      <trkpt lat="44.6767792291939258575439453125" lon="6.81768740527331829071044921875">
        <ele>2182.800048828125</ele>
        <time>2026-08-31T06:28:12.000Z</time>
        <extensions>
          <ns3:TrackPointExtension>
            <ns3:hr>150</ns3:hr>
            <ns3:cad>0</ns3:cad>
          </ns3:TrackPointExtension>
        </extensions>
      </trkpt>
      <trkpt lat="44.6767817437648773193359375" lon="6.817697547376155853271484375">
        <ele>2183</ele>
        <time>2026-08-31T06:28:13.000Z</time>
        <extensions>
          <ns3:TrackPointExtension>
            <ns3:hr>150</ns3:hr>
            <ns3:cad>51</ns3:cad>
          </ns3:TrackPointExtension>
        </extensions>
      </trkpt>
      <trkpt lat="44.67678668908774852752685546875" lon="6.81771338917315006256103515625">
        <ele>2183.199951171875</ele>
        <time>2026-08-31T06:28:14.000Z</time>
        <extensions>
          <ns3:TrackPointExtension>
            <ns3:hr>150</ns3:hr>
            <ns3:cad>51</ns3:cad>
          </ns3:TrackPointExtension>
        </extensions>
      </trkpt>
      <trkpt lat="44.676789455115795135498046875" lon="6.8177262134850025177001953125">
        <ele>2183.199951171875</ele>
        <time>2026-08-31T06:28:15.000Z</time>
        <extensions>
          <ns3:TrackPointExtension>
            <ns3:hr>150</ns3:hr>
            <ns3:cad>51</ns3:cad>
          </ns3:TrackPointExtension>
        </extensions>
      </trkpt>
      <trkpt lat="44.67679155059158802032470703125" lon="6.81774054653942584991455078125">
        <ele>2183.39990234375</ele>
        <time>2026-08-31T06:28:16.000Z</time>
        <extensions>
          <ns3:TrackPointExtension>
            <ns3:hr>150</ns3:hr>
            <ns3:cad>51</ns3:cad>
          </ns3:TrackPointExtension>
        </extensions>
      </trkpt>
      <trkpt lat="44.676793478429317474365234375" lon="6.8177520297467708587646484375">
        <ele>2183.60009765625</ele>
        <time>2026-08-31T06:28:17.000Z</time>
        <extensions>
          <ns3:TrackPointExtension>
            <ns3:hr>149</ns3:hr>
            <ns3:cad>48</ns3:cad>
          </ns3:TrackPointExtension>
        </extensions>
      </trkpt>
      <trkpt lat="44.67679674737155437469482421875" lon="6.817764602601528167724609375">
        <ele>2183.800048828125</ele>
        <time>2026-08-31T06:28:18.000Z</time>
        <extensions>
          <ns3:TrackPointExtension>
            <ns3:hr>149</ns3:hr>
            <ns3:cad>48</ns3:cad>
          </ns3:TrackPointExtension>
        </extensions>
      </trkpt>
      <trkpt lat="44.67680127359926700592041015625" lon="6.8177788518369197845458984375">
        <ele>2184</ele>
        <time>2026-08-31T06:28:19.000Z</time>
        <extensions>
          <ns3:TrackPointExtension>
            <ns3:hr>149</ns3:hr>
            <ns3:cad>0</ns3:cad>
          </ns3:TrackPointExtension>
        </extensions>
      </trkpt>
      <trkpt lat="44.67680378817021846771240234375" lon="6.81778681464493274688720703125">
        <ele>2184.39990234375</ele>
        <time>2026-08-31T06:28:20.000Z</time>
        <extensions>
          <ns3:TrackPointExtension>
            <ns3:hr>150</ns3:hr>
            <ns3:cad>0</ns3:cad>
          </ns3:TrackPointExtension>
        </extensions>
      </trkpt>
      <trkpt lat="44.67680831439793109893798828125" lon="6.817803494632244110107421875">
        <ele>2184.60009765625</ele>
        <time>2026-08-31T06:28:21.000Z</time>
        <extensions>
          <ns3:TrackPointExtension>
            <ns3:hr>149</ns3:hr>
            <ns3:cad>0</ns3:cad>
          </ns3:TrackPointExtension>
        </extensions>
      </trkpt>
      <trkpt lat="44.67681191861629486083984375" lon="6.8178140558302402496337890625">
        <ele>2184.800048828125</ele>
        <time>2026-08-31T06:28:22.000Z</time>
        <extensions>
          <ns3:TrackPointExtension>
            <ns3:hr>149</ns3:hr>
            <ns3:cad>0</ns3:cad>
          </ns3:TrackPointExtension>
        </extensions>
      </trkpt>
      <trkpt lat="44.676814265549182891845703125" lon="6.817826293408870697021484375">
        <ele>2184.800048828125</ele>
        <time>2026-08-31T06:28:23.000Z</time>
        <extensions>
          <ns3:TrackPointExtension>
            <ns3:hr>150</ns3:hr>
            <ns3:cad>51</ns3:cad>
          </ns3:TrackPointExtension>
        </extensions>
      </trkpt>
      <trkpt lat="44.6768127568066120147705078125" lon="6.8178386986255645751953125">
        <ele>2185</ele>
        <time>2026-08-31T06:28:24.000Z</time>
        <extensions>
          <ns3:TrackPointExtension>
            <ns3:hr>150</ns3:hr>
            <ns3:cad>51</ns3:cad>
          </ns3:TrackPointExtension>
        </extensions>
      </trkpt>
      <trkpt lat="44.67681267298758029937744140625" lon="6.81784615851938724517822265625">
        <ele>2185.199951171875</ele>
        <time>2026-08-31T06:28:25.000Z</time>
        <extensions>
          <ns3:TrackPointExtension>
            <ns3:hr>150</ns3:hr>
            <ns3:cad>51</ns3:cad>
          </ns3:TrackPointExtension>
        </extensions>
      </trkpt>
      <trkpt lat="44.67681418173015117645263671875" lon="6.81785286404192447662353515625">
        <ele>2185.39990234375</ele>
        <time>2026-08-31T06:28:26.000Z</time>
        <extensions>
          <ns3:TrackPointExtension>
            <ns3:hr>150</ns3:hr>
            <ns3:cad>0</ns3:cad>
          </ns3:TrackPointExtension>
        </extensions>
      </trkpt>
      <trkpt lat="44.67681602574884891510009765625" lon="6.81785940192639827728271484375">
        <ele>2185.39990234375</ele>
        <time>2026-08-31T06:28:27.000Z</time>
        <extensions>
          <ns3:TrackPointExtension>
            <ns3:hr>149</ns3:hr>
            <ns3:cad>0</ns3:cad>
          </ns3:TrackPointExtension>
        </extensions>
      </trkpt>
      <trkpt lat="44.67681954614818096160888671875" lon="6.817861832678318023681640625">
        <ele>2185.39990234375</ele>
        <time>2026-08-31T06:28:28.000Z</time>
        <extensions>
          <ns3:TrackPointExtension>
            <ns3:hr>149</ns3:hr>
            <ns3:cad>0</ns3:cad>
          </ns3:TrackPointExtension>
        </extensions>
      </trkpt>
      <trkpt lat="44.676820300519466400146484375" lon="6.81786342523992061614990234375">
        <ele>2185.39990234375</ele>
        <time>2026-08-31T06:28:29.000Z</time>
        <extensions>
          <ns3:TrackPointExtension>
            <ns3:hr>149</ns3:hr>
            <ns3:cad>0</ns3:cad>
          </ns3:TrackPointExtension>
        </extensions>
      </trkpt>
      <trkpt lat="44.67682088725268840789794921875" lon="6.81786929257214069366455078125">
        <ele>2185.39990234375</ele>
        <time>2026-08-31T06:28:30.000Z</time>
        <extensions>
          <ns3:TrackPointExtension>
            <ns3:hr>148</ns3:hr>
            <ns3:cad>0</ns3:cad>
          </ns3:TrackPointExtension>
        </extensions>
      </trkpt>
      <trkpt lat="44.676819629967212677001953125" lon="6.8178754113614559173583984375">
        <ele>2185.60009765625</ele>
        <time>2026-08-31T06:28:31.000Z</time>
        <extensions>
          <ns3:TrackPointExtension>
            <ns3:hr>148</ns3:hr>
            <ns3:cad>0</ns3:cad>
          </ns3:TrackPointExtension>
        </extensions>
      </trkpt>
      <trkpt lat="44.6768201328814029693603515625" lon="6.817885302007198333740234375">
        <ele>2185.60009765625</ele>
        <time>2026-08-31T06:28:32.000Z</time>
        <extensions>
          <ns3:TrackPointExtension>
            <ns3:hr>148</ns3:hr>
            <ns3:cad>0</ns3:cad>
          </ns3:TrackPointExtension>
        </extensions>
      </trkpt>
      <trkpt lat="44.676820971071720123291015625" lon="6.8178975395858287811279296875">
        <ele>2185.800048828125</ele>
        <time>2026-08-31T06:28:33.000Z</time>
        <extensions>
          <ns3:TrackPointExtension>
            <ns3:hr>149</ns3:hr>
            <ns3:cad>0</ns3:cad>
          </ns3:TrackPointExtension>
        </extensions>
      </trkpt>
      <trkpt lat="44.676823318004608154296875" lon="6.8179106153547763824462890625">
        <ele>2186</ele>
        <time>2026-08-31T06:28:34.000Z</time>
        <extensions>
          <ns3:TrackPointExtension>
            <ns3:hr>149</ns3:hr>
            <ns3:cad>0</ns3:cad>
          </ns3:TrackPointExtension>
        </extensions>
      </trkpt>
      <trkpt lat="44.67682088725268840789794921875" lon="6.81792042218148708343505859375">
        <ele>2186.199951171875</ele>
        <time>2026-08-31T06:28:35.000Z</time>
        <extensions>
          <ns3:TrackPointExtension>
            <ns3:hr>149</ns3:hr>
            <ns3:cad>0</ns3:cad>
          </ns3:TrackPointExtension>
        </extensions>
      </trkpt>
      <trkpt lat="44.67682155780494213104248046875" lon="6.8179371021687984466552734375">
        <ele>2186.39990234375</ele>
        <time>2026-08-31T06:28:36.000Z</time>
        <extensions>
          <ns3:TrackPointExtension>
            <ns3:hr>150</ns3:hr>
            <ns3:cad>0</ns3:cad>
          </ns3:TrackPointExtension>
        </extensions>
      </trkpt>
      <trkpt lat="44.676823653280735015869140625" lon="6.817947663366794586181640625">
        <ele>2186.60009765625</ele>
        <time>2026-08-31T06:28:37.000Z</time>
        <extensions>
          <ns3:TrackPointExtension>
            <ns3:hr>150</ns3:hr>
            <ns3:cad>0</ns3:cad>
          </ns3:TrackPointExtension>
        </extensions>
      </trkpt>
      <trkpt lat="44.6768265031278133392333984375" lon="6.81796015240252017974853515625">
        <ele>2186.800048828125</ele>
        <time>2026-08-31T06:28:38.000Z</time>
        <extensions>
          <ns3:TrackPointExtension>
            <ns3:hr>150</ns3:hr>
            <ns3:cad>0</ns3:cad>
          </ns3:TrackPointExtension>
        </extensions>
      </trkpt>
      <trkpt lat="44.67682910151779651641845703125" lon="6.817958056926727294921875">
        <ele>2187</ele>
        <time>2026-08-31T06:28:39.000Z</time>
        <extensions>
          <ns3:TrackPointExtension>
            <ns3:hr>150</ns3:hr>
            <ns3:cad>0</ns3:cad>
          </ns3:TrackPointExtension>
        </extensions>
      </trkpt>
      <trkpt lat="44.676829688251018524169921875" lon="6.81795797310769557952880859375">
        <ele>2187.199951171875</ele>
        <time>2026-08-31T06:28:40.000Z</time>
        <extensions>
          <ns3:TrackPointExtension>
            <ns3:hr>151</ns3:hr>
            <ns3:cad>0</ns3:cad>
          </ns3:TrackPointExtension>
        </extensions>
      </trkpt>
      <trkpt lat="44.67683731578290462493896484375" lon="6.8179676122963428497314453125">
        <ele>2187.39990234375</ele>
        <time>2026-08-31T06:28:41.000Z</time>
        <extensions>
          <ns3:TrackPointExtension>
            <ns3:hr>151</ns3:hr>
            <ns3:cad>0</ns3:cad>
          </ns3:TrackPointExtension>
        </extensions>
      </trkpt>
      <trkpt lat="44.676842428743839263916015625" lon="6.8179763294756412506103515625">
        <ele>2187.60009765625</ele>
        <time>2026-08-31T06:28:42.000Z</time>
        <extensions>
          <ns3:TrackPointExtension>
            <ns3:hr>151</ns3:hr>
            <ns3:cad>0</ns3:cad>
          </ns3:TrackPointExtension>
        </extensions>
      </trkpt>
      <trkpt lat="44.67684787698090076446533203125" lon="6.8179803527891635894775390625">
        <ele>2187.800048828125</ele>
        <time>2026-08-31T06:28:43.000Z</time>
        <extensions>
          <ns3:TrackPointExtension>
            <ns3:hr>151</ns3:hr>
            <ns3:cad>47</ns3:cad>
          </ns3:TrackPointExtension>
        </extensions>
      </trkpt>
      <trkpt lat="44.67685609124600887298583984375" lon="6.817993260920047760009765625">
        <ele>2188</ele>
        <time>2026-08-31T06:28:44.000Z</time>
        <extensions>
          <ns3:TrackPointExtension>
            <ns3:hr>152</ns3:hr>
            <ns3:cad>47</ns3:cad>
          </ns3:TrackPointExtension>
        </extensions>
      </trkpt>
      <trkpt lat="44.6768647246062755584716796875" lon="6.8180024810135364532470703125">
        <ele>2188.199951171875</ele>
        <time>2026-08-31T06:28:45.000Z</time>
        <extensions>
          <ns3:TrackPointExtension>
            <ns3:hr>152</ns3:hr>
            <ns3:cad>0</ns3:cad>
          </ns3:TrackPointExtension>
        </extensions>
      </trkpt>
      <trkpt lat="44.6768650598824024200439453125" lon="6.81801111437380313873291015625">
        <ele>2188.39990234375</ele>
        <time>2026-08-31T06:28:46.000Z</time>
        <extensions>
          <ns3:TrackPointExtension>
            <ns3:hr>152</ns3:hr>
            <ns3:cad>0</ns3:cad>
          </ns3:TrackPointExtension>
        </extensions>
      </trkpt>
      <trkpt lat="44.6768702566623687744140625" lon="6.81802385486662387847900390625">
        <ele>2188.800048828125</ele>
        <time>2026-08-31T06:28:47.000Z</time>
        <extensions>
          <ns3:TrackPointExtension>
            <ns3:hr>151</ns3:hr>
            <ns3:cad>0</ns3:cad>
          </ns3:TrackPointExtension>
        </extensions>
      </trkpt>
      <trkpt lat="44.67687235213816165924072265625" lon="6.818028800189495086669921875">
        <ele>2189</ele>
        <time>2026-08-31T06:28:48.000Z</time>
        <extensions>
          <ns3:TrackPointExtension>
            <ns3:hr>151</ns3:hr>
            <ns3:cad>0</ns3:cad>
          </ns3:TrackPointExtension>
        </extensions>
      </trkpt>
      <trkpt lat="44.67687469907104969024658203125" lon="6.818039529025554656982421875">
        <ele>2189.199951171875</ele>
        <time>2026-08-31T06:28:49.000Z</time>
        <extensions>
          <ns3:TrackPointExtension>
            <ns3:hr>150</ns3:hr>
            <ns3:cad>0</ns3:cad>
          </ns3:TrackPointExtension>
        </extensions>
      </trkpt>
      <trkpt lat="44.67687629163265228271484375" lon="6.81805168278515338897705078125">
        <ele>2189.39990234375</ele>
        <time>2026-08-31T06:28:50.000Z</time>
        <extensions>
          <ns3:TrackPointExtension>
            <ns3:hr>150</ns3:hr>
            <ns3:cad>0</ns3:cad>
          </ns3:TrackPointExtension>
        </extensions>
      </trkpt>
      <trkpt lat="44.67688073404133319854736328125" lon="6.818059645593166351318359375">
        <ele>2189.800048828125</ele>
        <time>2026-08-31T06:28:51.000Z</time>
        <extensions>
          <ns3:TrackPointExtension>
            <ns3:hr>149</ns3:hr>
            <ns3:cad>0</ns3:cad>
          </ns3:TrackPointExtension>
        </extensions>
      </trkpt>
      <trkpt lat="44.67688500881195068359375" lon="6.818070709705352783203125">
        <ele>2190</ele>
        <time>2026-08-31T06:28:52.000Z</time>
        <extensions>
          <ns3:TrackPointExtension>
            <ns3:hr>149</ns3:hr>
            <ns3:cad>0</ns3:cad>
          </ns3:TrackPointExtension>
        </extensions>
      </trkpt>
      <trkpt lat="44.67688676901161670684814453125" lon="6.8180755712091922760009765625">
        <ele>2190</ele>
        <time>2026-08-31T06:28:53.000Z</time>
        <extensions>
          <ns3:TrackPointExtension>
            <ns3:hr>149</ns3:hr>
            <ns3:cad>0</ns3:cad>
          </ns3:TrackPointExtension>
        </extensions>
      </trkpt>
      <trkpt lat="44.6768918819725513458251953125" lon="6.818085797131061553955078125">
        <ele>2190.199951171875</ele>
        <time>2026-08-31T06:28:54.000Z</time>
        <extensions>
          <ns3:TrackPointExtension>
            <ns3:hr>149</ns3:hr>
            <ns3:cad>0</ns3:cad>
          </ns3:TrackPointExtension>
        </extensions>
      </trkpt>
      <trkpt lat="44.676896743476390838623046875" lon="6.81809174828231334686279296875">
        <ele>2190.39990234375</ele>
        <time>2026-08-31T06:28:55.000Z</time>
        <extensions>
          <ns3:TrackPointExtension>
            <ns3:hr>149</ns3:hr>
            <ns3:cad>0</ns3:cad>
          </ns3:TrackPointExtension>
        </extensions>
      </trkpt>
      <trkpt lat="44.676910825073719024658203125" lon="6.81810222566127777099609375">
        <ele>2190.60009765625</ele>
        <time>2026-08-31T06:28:56.000Z</time>
        <extensions>
          <ns3:TrackPointExtension>
            <ns3:hr>149</ns3:hr>
            <ns3:cad>0</ns3:cad>
          </ns3:TrackPointExtension>
        </extensions>
      </trkpt>
      <trkpt lat="44.67691518366336822509765625" lon="6.81811119429767131805419921875">
        <ele>2190.800048828125</ele>
        <time>2026-08-31T06:28:57.000Z</time>
        <extensions>
          <ns3:TrackPointExtension>
            <ns3:hr>149</ns3:hr>
            <ns3:cad>0</ns3:cad>
          </ns3:TrackPointExtension>
        </extensions>
      </trkpt>
      <trkpt lat="44.67692063190042972564697265625" lon="6.81812904775142669677734375">
        <ele>2191</ele>
        <time>2026-08-31T06:28:58.000Z</time>
        <extensions>
          <ns3:TrackPointExtension>
            <ns3:hr>149</ns3:hr>
            <ns3:cad>0</ns3:cad>
          </ns3:TrackPointExtension>
        </extensions>
      </trkpt>
      <trkpt lat="44.67692381702363491058349609375" lon="6.818139441311359405517578125">
        <ele>2191.199951171875</ele>
        <time>2026-08-31T06:28:59.000Z</time>
        <extensions>
          <ns3:TrackPointExtension>
            <ns3:hr>148</ns3:hr>
            <ns3:cad>0</ns3:cad>
          </ns3:TrackPointExtension>
        </extensions>
      </trkpt>
      <trkpt lat="44.67692733742296695709228515625" lon="6.81815092451870441436767578125">
        <ele>2191.39990234375</ele>
        <time>2026-08-31T06:29:00.000Z</time>
        <extensions>
          <ns3:TrackPointExtension>
            <ns3:hr>149</ns3:hr>
            <ns3:cad>0</ns3:cad>
          </ns3:TrackPointExtension>
        </extensions>
      </trkpt>
      <trkpt lat="44.6769307740032672882080078125" lon="6.81816316209733486175537109375">
        <ele>2191.60009765625</ele>
        <time>2026-08-31T06:29:01.000Z</time>
        <extensions>
          <ns3:TrackPointExtension>
            <ns3:hr>149</ns3:hr>
            <ns3:cad>0</ns3:cad>
          </ns3:TrackPointExtension>
        </extensions>
      </trkpt>
      <trkpt lat="44.6769358031451702117919921875" lon="6.8181741423904895782470703125">
        <ele>2191.800048828125</ele>
        <time>2026-08-31T06:29:02.000Z</time>
        <extensions>
          <ns3:TrackPointExtension>
            <ns3:hr>150</ns3:hr>
            <ns3:cad>0</ns3:cad>
          </ns3:TrackPointExtension>
        </extensions>
      </trkpt>
      <trkpt lat="44.6769358031451702117919921875" lon="6.8181768245995044708251953125">
        <ele>2192</ele>
        <time>2026-08-31T06:29:03.000Z</time>
        <extensions>
          <ns3:TrackPointExtension>
            <ns3:hr>151</ns3:hr>
            <ns3:cad>0</ns3:cad>
          </ns3:TrackPointExtension>
        </extensions>
      </trkpt>
      <trkpt lat="44.6769418381154537200927734375" lon="6.81818914599716663360595703125">
        <ele>2192.199951171875</ele>
        <time>2026-08-31T06:29:04.000Z</time>
        <extensions>
          <ns3:TrackPointExtension>
            <ns3:hr>151</ns3:hr>
            <ns3:cad>0</ns3:cad>
          </ns3:TrackPointExtension>
        </extensions>
      </trkpt>
      <trkpt lat="44.67694468796253204345703125" lon="6.818197108805179595947265625">
        <ele>2192.39990234375</ele>
        <time>2026-08-31T06:29:05.000Z</time>
        <extensions>
          <ns3:TrackPointExtension>
            <ns3:hr>152</ns3:hr>
            <ns3:cad>0</ns3:cad>
          </ns3:TrackPointExtension>
        </extensions>
      </trkpt>
      <trkpt lat="44.67694695107638835906982421875" lon="6.8182103522121906280517578125">
        <ele>2192.60009765625</ele>
        <time>2026-08-31T06:29:06.000Z</time>
        <extensions>
          <ns3:TrackPointExtension>
            <ns3:hr>152</ns3:hr>
            <ns3:cad>0</ns3:cad>
          </ns3:TrackPointExtension>
        </extensions>
      </trkpt>
      <trkpt lat="44.67695097438991069793701171875" lon="6.8182200752198696136474609375">
        <ele>2192.800048828125</ele>
        <time>2026-08-31T06:29:07.000Z</time>
        <extensions>
          <ns3:TrackPointExtension>
            <ns3:hr>153</ns3:hr>
            <ns3:cad>0</ns3:cad>
          </ns3:TrackPointExtension>
        </extensions>
      </trkpt>
      <trkpt lat="44.67695600353181362152099609375" lon="6.818236000835895538330078125">
        <ele>2193</ele>
        <time>2026-08-31T06:29:08.000Z</time>
        <extensions>
          <ns3:TrackPointExtension>
            <ns3:hr>153</ns3:hr>
            <ns3:cad>0</ns3:cad>
          </ns3:TrackPointExtension>
        </extensions>
      </trkpt>
      <trkpt lat="44.67696002684533596038818359375" lon="6.81825100444257259368896484375">
        <ele>2193.39990234375</ele>
        <time>2026-08-31T06:29:09.000Z</time>
        <extensions>
          <ns3:TrackPointExtension>
            <ns3:hr>153</ns3:hr>
            <ns3:cad>0</ns3:cad>
          </ns3:TrackPointExtension>
        </extensions>
      </trkpt>
      <trkpt lat="44.67696212232112884521484375" lon="6.818253099918365478515625">
        <ele>2193.60009765625</ele>
        <time>2026-08-31T06:29:10.000Z</time>
        <extensions>
          <ns3:TrackPointExtension>
            <ns3:hr>154</ns3:hr>
            <ns3:cad>0</ns3:cad>
          </ns3:TrackPointExtension>
        </extensions>
      </trkpt>
      <trkpt lat="44.676963798701763153076171875" lon="6.8182705342769622802734375">
        <ele>2193.800048828125</ele>
        <time>2026-08-31T06:29:11.000Z</time>
        <extensions>
          <ns3:TrackPointExtension>
            <ns3:hr>153</ns3:hr>
            <ns3:cad>0</ns3:cad>
          </ns3:TrackPointExtension>
        </extensions>
      </trkpt>
      <trkpt lat="44.6769606135785579681396484375" lon="6.8182794190943241119384765625">
        <ele>2194</ele>
        <time>2026-08-31T06:29:12.000Z</time>
        <extensions>
          <ns3:TrackPointExtension>
            <ns3:hr>153</ns3:hr>
            <ns3:cad>0</ns3:cad>
          </ns3:TrackPointExtension>
        </extensions>
      </trkpt>
      <trkpt lat="44.67696170322597026824951171875" lon="6.8182992003858089447021484375">
        <ele>2194.199951171875</ele>
        <time>2026-08-31T06:29:13.000Z</time>
        <extensions>
          <ns3:TrackPointExtension>
            <ns3:hr>153</ns3:hr>
            <ns3:cad>0</ns3:cad>
          </ns3:TrackPointExtension>
        </extensions>
      </trkpt>
      <trkpt lat="44.6769636310636997222900390625" lon="6.8183122761547565460205078125">
        <ele>2194.39990234375</ele>
        <time>2026-08-31T06:29:14.000Z</time>
        <extensions>
          <ns3:TrackPointExtension>
            <ns3:hr>153</ns3:hr>
            <ns3:cad>0</ns3:cad>
          </ns3:TrackPointExtension>
        </extensions>
      </trkpt>
      <trkpt lat="44.6769659779965877532958984375" lon="6.81833264417946338653564453125">
        <ele>2194.60009765625</ele>
        <time>2026-08-31T06:29:15.000Z</time>
        <extensions>
          <ns3:TrackPointExtension>
            <ns3:hr>153</ns3:hr>
            <ns3:cad>0</ns3:cad>
          </ns3:TrackPointExtension>
        </extensions>
      </trkpt>
      <trkpt lat="44.67696857638657093048095703125" lon="6.8183501623570919036865234375">
        <ele>2194.800048828125</ele>
        <time>2026-08-31T06:29:16.000Z</time>
        <extensions>
          <ns3:TrackPointExtension>
            <ns3:hr>154</ns3:hr>
            <ns3:cad>0</ns3:cad>
          </ns3:TrackPointExtension>
        </extensions>
      </trkpt>
      <trkpt lat="44.67697142623364925384521484375" lon="6.8183592148125171661376953125">
        <ele>2195</ele>
        <time>2026-08-31T06:29:17.000Z</time>
        <extensions>
          <ns3:TrackPointExtension>
            <ns3:hr>154</ns3:hr>
            <ns3:cad>0</ns3:cad>
          </ns3:TrackPointExtension>
        </extensions>
      </trkpt>
      <trkpt lat="44.67697142623364925384521484375" lon="6.81835946626961231231689453125">
        <ele>2195</ele>
        <time>2026-08-31T06:29:18.000Z</time>
        <extensions>
          <ns3:TrackPointExtension>
            <ns3:hr>155</ns3:hr>
            <ns3:cad>0</ns3:cad>
          </ns3:TrackPointExtension>
        </extensions>
      </trkpt>
      <trkpt lat="44.67697259970009326934814453125" lon="6.81836851872503757476806640625">
        <ele>2195.199951171875</ele>
        <time>2026-08-31T06:29:19.000Z</time>
        <extensions>
          <ns3:TrackPointExtension>
            <ns3:hr>155</ns3:hr>
            <ns3:cad>0</ns3:cad>
          </ns3:TrackPointExtension>
        </extensions>
      </trkpt>
      <trkpt lat="44.6769746951758861541748046875" lon="6.81838595308363437652587890625">
        <ele>2195.39990234375</ele>
        <time>2026-08-31T06:29:20.000Z</time>
        <extensions>
          <ns3:TrackPointExtension>
            <ns3:hr>156</ns3:hr>
            <ns3:cad>0</ns3:cad>
          </ns3:TrackPointExtension>
        </extensions>
      </trkpt>
      <trkpt lat="44.6769780479371547698974609375" lon="6.81839852593839168548583984375">
        <ele>2195.60009765625</ele>
        <time>2026-08-31T06:29:21.000Z</time>
        <extensions>
          <ns3:TrackPointExtension>
            <ns3:hr>156</ns3:hr>
            <ns3:cad>0</ns3:cad>
          </ns3:TrackPointExtension>
        </extensions>
      </trkpt>
      <trkpt lat="44.67697964049875736236572265625" lon="6.81841470301151275634765625">
        <ele>2195.800048828125</ele>
        <time>2026-08-31T06:29:22.000Z</time>
        <extensions>
          <ns3:TrackPointExtension>
            <ns3:hr>157</ns3:hr>
            <ns3:cad>0</ns3:cad>
          </ns3:TrackPointExtension>
        </extensions>
      </trkpt>
      <trkpt lat="44.6769773773849010467529296875" lon="6.81842719204723834991455078125">
        <ele>2196</ele>
        <time>2026-08-31T06:29:23.000Z</time>
        <extensions>
          <ns3:TrackPointExtension>
            <ns3:hr>157</ns3:hr>
            <ns3:cad>0</ns3:cad>
          </ns3:TrackPointExtension>
        </extensions>
      </trkpt>
      <trkpt lat="44.67697461135685443878173828125" lon="6.81843641214072704315185546875">
        <ele>2196.199951171875</ele>
        <time>2026-08-31T06:29:24.000Z</time>
        <extensions>
          <ns3:TrackPointExtension>
            <ns3:hr>157</ns3:hr>
            <ns3:cad>0</ns3:cad>
          </ns3:TrackPointExtension>
        </extensions>
      </trkpt>
      <trkpt lat="44.6769720129668712615966796875" lon="6.8184477277100086212158203125">
        <ele>2196.39990234375</ele>
        <time>2026-08-31T06:29:25.000Z</time>
        <extensions>
          <ns3:TrackPointExtension>
            <ns3:hr>158</ns3:hr>
            <ns3:cad>0</ns3:cad>
          </ns3:TrackPointExtension>
        </extensions>
      </trkpt>
      <trkpt lat="44.6769713424146175384521484375" lon="6.81846574880182743072509765625">
        <ele>2196.60009765625</ele>
        <time>2026-08-31T06:29:26.000Z</time>
        <extensions>
          <ns3:TrackPointExtension>
            <ns3:hr>158</ns3:hr>
            <ns3:cad>0</ns3:cad>
          </ns3:TrackPointExtension>
        </extensions>
      </trkpt>
      <trkpt lat="44.6769700013101100921630859375" lon="6.81848083622753620147705078125">
        <ele>2196.800048828125</ele>
        <time>2026-08-31T06:29:27.000Z</time>
        <extensions>
          <ns3:TrackPointExtension>
            <ns3:hr>158</ns3:hr>
            <ns3:cad>0</ns3:cad>
          </ns3:TrackPointExtension>
        </extensions>
      </trkpt>
      <trkpt lat="44.67696991749107837677001953125" lon="6.81849760003387928009033203125">
        <ele>2197</ele>
        <time>2026-08-31T06:29:28.000Z</time>
        <extensions>
          <ns3:TrackPointExtension>
            <ns3:hr>158</ns3:hr>
            <ns3:cad>0</ns3:cad>
          </ns3:TrackPointExtension>
        </extensions>
      </trkpt>
      <trkpt lat="44.6769679896533489227294921875" lon="6.8185110948979854583740234375">
        <ele>2197.199951171875</ele>
        <time>2026-08-31T06:29:29.000Z</time>
        <extensions>
          <ns3:TrackPointExtension>
            <ns3:hr>158</ns3:hr>
            <ns3:cad>0</ns3:cad>
          </ns3:TrackPointExtension>
        </extensions>
      </trkpt>
      <trkpt lat="44.67696757055819034576416015625" lon="6.8185194768011569976806640625">
        <ele>2197.39990234375</ele>
        <time>2026-08-31T06:29:30.000Z</time>
        <extensions>
          <ns3:TrackPointExtension>
            <ns3:hr>158</ns3:hr>
            <ns3:cad>0</ns3:cad>
          </ns3:TrackPointExtension>
        </extensions>
      </trkpt>
      <trkpt lat="44.67696790583431720733642578125" lon="6.81853230111300945281982421875">
        <ele>2197.39990234375</ele>
        <time>2026-08-31T06:29:31.000Z</time>
        <extensions>
          <ns3:TrackPointExtension>
            <ns3:hr>158</ns3:hr>
            <ns3:cad>0</ns3:cad>
          </ns3:TrackPointExtension>
        </extensions>
      </trkpt>
      <trkpt lat="44.676967822015285491943359375" lon="6.81854470632970333099365234375">
        <ele>2197.60009765625</ele>
        <time>2026-08-31T06:29:32.000Z</time>
        <extensions>
          <ns3:TrackPointExtension>
            <ns3:hr>158</ns3:hr>
            <ns3:cad>0</ns3:cad>
          </ns3:TrackPointExtension>
        </extensions>
      </trkpt>
      <trkpt lat="44.67696991749107837677001953125" lon="6.81856230832636356353759765625">
        <ele>2197.800048828125</ele>
        <time>2026-08-31T06:29:33.000Z</time>
        <extensions>
          <ns3:TrackPointExtension>
            <ns3:hr>158</ns3:hr>
            <ns3:cad>0</ns3:cad>
          </ns3:TrackPointExtension>
        </extensions>
      </trkpt>
      <trkpt lat="44.67697243206202983856201171875" lon="6.8185751326382160186767578125">
        <ele>2198</ele>
        <time>2026-08-31T06:29:34.000Z</time>
        <extensions>
          <ns3:TrackPointExtension>
            <ns3:hr>158</ns3:hr>
            <ns3:cad>0</ns3:cad>
          </ns3:TrackPointExtension>
        </extensions>
      </trkpt>
      <trkpt lat="44.67697159387171268463134765625" lon="6.81857974268496036529541015625">
        <ele>2198.199951171875</ele>
        <time>2026-08-31T06:29:35.000Z</time>
        <extensions>
          <ns3:TrackPointExtension>
            <ns3:hr>158</ns3:hr>
            <ns3:cad>0</ns3:cad>
          </ns3:TrackPointExtension>
        </extensions>
      </trkpt>
      <trkpt lat="44.67697151005268096923828125" lon="6.818592064082622528076171875">
        <ele>2198.39990234375</ele>
        <time>2026-08-31T06:29:36.000Z</time>
        <extensions>
          <ns3:TrackPointExtension>
            <ns3:hr>159</ns3:hr>
            <ns3:cad>20</ns3:cad>
          </ns3:TrackPointExtension>
        </extensions>
      </trkpt>
      <trkpt lat="44.67697427608072757720947265625" lon="6.81860220618546009063720703125">
        <ele>2198.60009765625</ele>
        <time>2026-08-31T06:29:37.000Z</time>
        <extensions>
          <ns3:TrackPointExtension>
            <ns3:hr>159</ns3:hr>
            <ns3:cad>20</ns3:cad>
          </ns3:TrackPointExtension>
        </extensions>
      </trkpt>
      <trkpt lat="44.67697477899491786956787109375" lon="6.8186180479824542999267578125">
        <ele>2198.800048828125</ele>
        <time>2026-08-31T06:29:38.000Z</time>
        <extensions>
          <ns3:TrackPointExtension>
            <ns3:hr>161</ns3:hr>
            <ns3:cad>20</ns3:cad>
          </ns3:TrackPointExtension>
        </extensions>
      </trkpt>
      <trkpt lat="44.67697645537555217742919921875" lon="6.818629615008831024169921875">
        <ele>2199</ele>
        <time>2026-08-31T06:29:39.000Z</time>
        <extensions>
          <ns3:TrackPointExtension>
            <ns3:hr>162</ns3:hr>
            <ns3:cad>0</ns3:cad>
          </ns3:TrackPointExtension>
        </extensions>
      </trkpt>
      <trkpt lat="44.676977209746837615966796875" lon="6.818638332188129425048828125">
        <ele>2199.199951171875</ele>
        <time>2026-08-31T06:29:40.000Z</time>
        <extensions>
          <ns3:TrackPointExtension>
            <ns3:hr>164</ns3:hr>
            <ns3:cad>0</ns3:cad>
          </ns3:TrackPointExtension>
        </extensions>
      </trkpt>
      <trkpt lat="44.6769783832132816314697265625" lon="6.81865467689931392669677734375">
        <ele>2199.39990234375</ele>
        <time>2026-08-31T06:29:41.000Z</time>
        <extensions>
          <ns3:TrackPointExtension>
            <ns3:hr>165</ns3:hr>
            <ns3:cad>0</ns3:cad>
          </ns3:TrackPointExtension>
        </extensions>
      </trkpt>
      <trkpt lat="44.67697846703231334686279296875" lon="6.81866012513637542724609375">
        <ele>2199.60009765625</ele>
        <time>2026-08-31T06:29:42.000Z</time>
        <extensions>
          <ns3:TrackPointExtension>
            <ns3:hr>165</ns3:hr>
            <ns3:cad>0</ns3:cad>
          </ns3:TrackPointExtension>
        </extensions>
      </trkpt>
      <trkpt lat="44.67697880230844020843505859375" lon="6.81867831386625766754150390625">
        <ele>2199.800048828125</ele>
        <time>2026-08-31T06:29:43.000Z</time>
        <extensions>
          <ns3:TrackPointExtension>
            <ns3:hr>165</ns3:hr>
            <ns3:cad>0</ns3:cad>
          </ns3:TrackPointExtension>
        </extensions>
      </trkpt>
      <trkpt lat="44.67697930522263050079345703125" lon="6.81868954561650753021240234375">
        <ele>2200</ele>
        <time>2026-08-31T06:29:44.000Z</time>
        <extensions>
          <ns3:TrackPointExtension>
            <ns3:hr>165</ns3:hr>
            <ns3:cad>0</ns3:cad>
          </ns3:TrackPointExtension>
        </extensions>
      </trkpt>
      <trkpt lat="44.67697712592780590057373046875" lon="6.81870706379413604736328125">
        <ele>2200.199951171875</ele>
        <time>2026-08-31T06:29:45.000Z</time>
        <extensions>
          <ns3:TrackPointExtension>
            <ns3:hr>165</ns3:hr>
            <ns3:cad>0</ns3:cad>
          </ns3:TrackPointExtension>
        </extensions>
      </trkpt>
      <trkpt lat="44.67697679065167903900146484375" lon="6.81872039102017879486083984375">
        <ele>2200.39990234375</ele>
        <time>2026-08-31T06:29:46.000Z</time>
        <extensions>
          <ns3:TrackPointExtension>
            <ns3:hr>165</ns3:hr>
            <ns3:cad>0</ns3:cad>
          </ns3:TrackPointExtension>
        </extensions>
      </trkpt>
      <trkpt lat="44.6769746951758861541748046875" lon="6.8187291920185089111328125">
        <ele>2200.60009765625</ele>
        <time>2026-08-31T06:29:47.000Z</time>
        <extensions>
          <ns3:TrackPointExtension>
            <ns3:hr>165</ns3:hr>
            <ns3:cad>0</ns3:cad>
          </ns3:TrackPointExtension>
        </extensions>
      </trkpt>
      <trkpt lat="44.67697477899491786956787109375" lon="6.81874721311032772064208984375">
        <ele>2200.800048828125</ele>
        <time>2026-08-31T06:29:48.000Z</time>
        <extensions>
          <ns3:TrackPointExtension>
            <ns3:hr>165</ns3:hr>
            <ns3:cad>0</ns3:cad>
          </ns3:TrackPointExtension>
        </extensions>
      </trkpt>
      <trkpt lat="44.67697494663298130035400390625" lon="6.81875643320381641387939453125">
        <ele>2201</ele>
        <time>2026-08-31T06:29:49.000Z</time>
        <extensions>
          <ns3:TrackPointExtension>
            <ns3:hr>165</ns3:hr>
            <ns3:cad>0</ns3:cad>
          </ns3:TrackPointExtension>
        </extensions>
      </trkpt>
      <trkpt lat="44.67697419226169586181640625" lon="6.8187719397246837615966796875">
        <ele>2201.199951171875</ele>
        <time>2026-08-31T06:29:50.000Z</time>
        <extensions>
          <ns3:TrackPointExtension>
            <ns3:hr>166</ns3:hr>
            <ns3:cad>0</ns3:cad>
          </ns3:TrackPointExtension>
        </extensions>
      </trkpt>
      <trkpt lat="44.6769748628139495849609375" lon="6.81878711096942424774169921875">
        <ele>2201.39990234375</ele>
        <time>2026-08-31T06:29:51.000Z</time>
        <extensions>
          <ns3:TrackPointExtension>
            <ns3:hr>165</ns3:hr>
            <ns3:cad>0</ns3:cad>
          </ns3:TrackPointExtension>
        </extensions>
      </trkpt>
      <trkpt lat="44.6769746951758861541748046875" lon="6.8188027851283550262451171875">
        <ele>2201.60009765625</ele>
        <time>2026-08-31T06:29:52.000Z</time>
        <extensions>
          <ns3:TrackPointExtension>
            <ns3:hr>165</ns3:hr>
            <ns3:cad>0</ns3:cad>
          </ns3:TrackPointExtension>
        </extensions>
      </trkpt>
      <trkpt lat="44.67697553336620330810546875" lon="6.81881762109696865081787109375">
        <ele>2201.800048828125</ele>
        <time>2026-08-31T06:29:53.000Z</time>
        <extensions>
          <ns3:TrackPointExtension>
            <ns3:hr>166</ns3:hr>
            <ns3:cad>0</ns3:cad>
          </ns3:TrackPointExtension>
        </extensions>
      </trkpt>
      <trkpt lat="44.67697394080460071563720703125" lon="6.8188269250094890594482421875">
        <ele>2202</ele>
        <time>2026-08-31T06:29:54.000Z</time>
        <extensions>
          <ns3:TrackPointExtension>
            <ns3:hr>165</ns3:hr>
            <ns3:cad>0</ns3:cad>
          </ns3:TrackPointExtension>
        </extensions>
      </trkpt>
      <trkpt lat="44.67697612009942531585693359375" lon="6.81884251534938812255859375">
        <ele>2202.199951171875</ele>
        <time>2026-08-31T06:29:55.000Z</time>
        <extensions>
          <ns3:TrackPointExtension>
            <ns3:hr>165</ns3:hr>
            <ns3:cad>0</ns3:cad>
          </ns3:TrackPointExtension>
        </extensions>
      </trkpt>
      <trkpt lat="44.67697662301361560821533203125" lon="6.818847544491291046142578125">
        <ele>2202.39990234375</ele>
        <time>2026-08-31T06:29:56.000Z</time>
        <extensions>
          <ns3:TrackPointExtension>
            <ns3:hr>165</ns3:hr>
            <ns3:cad>0</ns3:cad>
          </ns3:TrackPointExtension>
        </extensions>
      </trkpt>
      <trkpt lat="44.67697729356586933135986328125" lon="6.81886455975472927093505859375">
        <ele>2202.60009765625</ele>
        <time>2026-08-31T06:29:57.000Z</time>
        <extensions>
          <ns3:TrackPointExtension>
            <ns3:hr>165</ns3:hr>
            <ns3:cad>0</ns3:cad>
          </ns3:TrackPointExtension>
        </extensions>
      </trkpt>
      <trkpt lat="44.6769773773849010467529296875" lon="6.81887260638177394866943359375">
        <ele>2202.60009765625</ele>
        <time>2026-08-31T06:29:58.000Z</time>
        <extensions>
          <ns3:TrackPointExtension>
            <ns3:hr>165</ns3:hr>
            <ns3:cad>0</ns3:cad>
          </ns3:TrackPointExtension>
        </extensions>
      </trkpt>
      <trkpt lat="44.67697612009942531585693359375" lon="6.81886942125856876373291015625">
        <ele>2202.800048828125</ele>
        <time>2026-08-31T06:29:59.000Z</time>
        <extensions>
          <ns3:TrackPointExtension>
            <ns3:hr>165</ns3:hr>
            <ns3:cad>0</ns3:cad>
          </ns3:TrackPointExtension>
        </extensions>
      </trkpt>
      <trkpt lat="44.67697612009942531585693359375" lon="6.81886942125856876373291015625">
        <ele>2202.800048828125</ele>
        <time>2026-08-31T06:30:00.000Z</time>
        <extensions>
          <ns3:TrackPointExtension>
            <ns3:hr>165</ns3:hr>
            <ns3:cad>0</ns3:cad>
          </ns3:TrackPointExtension>
        </extensions>
      </trkpt>
      <trkpt lat="44.67697612009942531585693359375" lon="6.81886942125856876373291015625">
        <ele>2203</ele>
        <time>2026-08-31T06:30:01.000Z</time>
        <extensions>
          <ns3:TrackPointExtension>
            <ns3:hr>165</ns3:hr>
            <ns3:cad>0</ns3:cad>
          </ns3:TrackPointExtension>
        </extensions>
      </trkpt>
      <trkpt lat="44.67697612009942531585693359375" lon="6.81886942125856876373291015625">
        <ele>2203.199951171875</ele>
        <time>2026-08-31T06:30:02.000Z</time>
        <extensions>
          <ns3:TrackPointExtension>
            <ns3:hr>165</ns3:hr>
            <ns3:cad>0</ns3:cad>
          </ns3:TrackPointExtension>
        </extensions>
      </trkpt>
      <trkpt lat="44.67697628773748874664306640625" lon="6.81886925362050533294677734375">
        <ele>2203.199951171875</ele>
        <time>2026-08-31T06:30:03.000Z</time>
        <extensions>
          <ns3:TrackPointExtension>
            <ns3:hr>166</ns3:hr>
            <ns3:cad>0</ns3:cad>
          </ns3:TrackPointExtension>
        </extensions>
      </trkpt>
      <trkpt lat="44.67697595246136188507080078125" lon="6.81888149119913578033447265625">
        <ele>2203.199951171875</ele>
        <time>2026-08-31T06:30:04.000Z</time>
        <extensions>
          <ns3:TrackPointExtension>
            <ns3:hr>166</ns3:hr>
            <ns3:cad>0</ns3:cad>
          </ns3:TrackPointExtension>
        </extensions>
      </trkpt>
      <trkpt lat="44.67697863467037677764892578125" lon="6.81888484396040439605712890625">
        <ele>2203.199951171875</ele>
        <time>2026-08-31T06:30:05.000Z</time>
        <extensions>
          <ns3:TrackPointExtension>
            <ns3:hr>166</ns3:hr>
            <ns3:cad>0</ns3:cad>
          </ns3:TrackPointExtension>
        </extensions>
      </trkpt>
      <trkpt lat="44.67697930522263050079345703125" lon="6.81890496052801609039306640625">
        <ele>2203.199951171875</ele>
        <time>2026-08-31T06:30:06.000Z</time>
        <extensions>
          <ns3:TrackPointExtension>
            <ns3:hr>166</ns3:hr>
            <ns3:cad>0</ns3:cad>
          </ns3:TrackPointExtension>
        </extensions>
      </trkpt>
      <trkpt lat="44.676981233060359954833984375" lon="6.8189174495637416839599609375">
        <ele>2203.39990234375</ele>
        <time>2026-08-31T06:30:07.000Z</time>
        <extensions>
          <ns3:TrackPointExtension>
            <ns3:hr>166</ns3:hr>
            <ns3:cad>0</ns3:cad>
          </ns3:TrackPointExtension>
        </extensions>
      </trkpt>
      <trkpt lat="44.67698349617421627044677734375" lon="6.8189409188926219940185546875">
        <ele>2203.60009765625</ele>
        <time>2026-08-31T06:30:08.000Z</time>
        <extensions>
          <ns3:TrackPointExtension>
            <ns3:hr>166</ns3:hr>
            <ns3:cad>0</ns3:cad>
          </ns3:TrackPointExtension>
        </extensions>
      </trkpt>
      <trkpt lat="44.67698768712580204010009765625" lon="6.81895759887993335723876953125">
        <ele>2203.800048828125</ele>
        <time>2026-08-31T06:30:09.000Z</time>
        <extensions>
          <ns3:TrackPointExtension>
            <ns3:hr>166</ns3:hr>
            <ns3:cad>0</ns3:cad>
          </ns3:TrackPointExtension>
        </extensions>
      </trkpt>
      <trkpt lat="44.676987268030643463134765625" lon="6.818967573344707489013671875">
        <ele>2204</ele>
        <time>2026-08-31T06:30:10.000Z</time>
        <extensions>
          <ns3:TrackPointExtension>
            <ns3:hr>166</ns3:hr>
            <ns3:cad>0</ns3:cad>
          </ns3:TrackPointExtension>
        </extensions>
      </trkpt>
      <trkpt lat="44.6769874356687068939208984375" lon="6.8189677409827709197998046875">
        <ele>2204.199951171875</ele>
        <time>2026-08-31T06:30:11.000Z</time>
        <extensions>
          <ns3:TrackPointExtension>
            <ns3:hr>166</ns3:hr>
            <ns3:cad>0</ns3:cad>
          </ns3:TrackPointExtension>
        </extensions>
      </trkpt>
      <trkpt lat="44.6769884414970874786376953125" lon="6.8189798109233379364013671875">
        <ele>2204.39990234375</ele>
        <time>2026-08-31T06:30:12.000Z</time>
        <extensions>
          <ns3:TrackPointExtension>
            <ns3:hr>165</ns3:hr>
            <ns3:cad>0</ns3:cad>
          </ns3:TrackPointExtension>
        </extensions>
      </trkpt>
      <trkpt lat="44.67698919586837291717529296875" lon="6.81899540126323699951171875">
        <ele>2204.60009765625</ele>
        <time>2026-08-31T06:30:13.000Z</time>
        <extensions>
          <ns3:TrackPointExtension>
            <ns3:hr>165</ns3:hr>
            <ns3:cad>0</ns3:cad>
          </ns3:TrackPointExtension>
        </extensions>
      </trkpt>
      <trkpt lat="44.67699053697288036346435546875" lon="6.8190083093941211700439453125">
        <ele>2204.800048828125</ele>
        <time>2026-08-31T06:30:14.000Z</time>
        <extensions>
          <ns3:TrackPointExtension>
            <ns3:hr>164</ns3:hr>
            <ns3:cad>0</ns3:cad>
          </ns3:TrackPointExtension>
        </extensions>
      </trkpt>
      <trkpt lat="44.67698969878256320953369140625" lon="6.8190170265734195709228515625">
        <ele>2205</ele>
        <time>2026-08-31T06:30:15.000Z</time>
        <extensions>
          <ns3:TrackPointExtension>
            <ns3:hr>164</ns3:hr>
            <ns3:cad>0</ns3:cad>
          </ns3:TrackPointExtension>
        </extensions>
      </trkpt>
      <trkpt lat="44.6769904531538486480712890625" lon="6.81903253309428691864013671875">
        <ele>2205.199951171875</ele>
        <time>2026-08-31T06:30:16.000Z</time>
        <extensions>
          <ns3:TrackPointExtension>
            <ns3:hr>164</ns3:hr>
            <ns3:cad>0</ns3:cad>
          </ns3:TrackPointExtension>
        </extensions>
      </trkpt>
      <trkpt lat="44.676991291344165802001953125" lon="6.81903605349361896514892578125">
        <ele>2205.39990234375</ele>
        <time>2026-08-31T06:30:17.000Z</time>
        <extensions>
          <ns3:TrackPointExtension>
            <ns3:hr>164</ns3:hr>
            <ns3:cad>0</ns3:cad>
          </ns3:TrackPointExtension>
        </extensions>
      </trkpt>
      <trkpt lat="44.67698969878256320953369140625" lon="6.819047033786773681640625">
        <ele>2205.60009765625</ele>
        <time>2026-08-31T06:30:18.000Z</time>
        <extensions>
          <ns3:TrackPointExtension>
            <ns3:hr>162</ns3:hr>
            <ns3:cad>0</ns3:cad>
          </ns3:TrackPointExtension>
        </extensions>
      </trkpt>
      <trkpt lat="44.67699187807738780975341796875" lon="6.819063127040863037109375">
        <ele>2205.800048828125</ele>
        <time>2026-08-31T06:30:19.000Z</time>
        <extensions>
          <ns3:TrackPointExtension>
            <ns3:hr>161</ns3:hr>
            <ns3:cad>0</ns3:cad>
          </ns3:TrackPointExtension>
        </extensions>
      </trkpt>
      <trkpt lat="44.67699439264833927154541015625" lon="6.819080896675586700439453125">
        <ele>2206</ele>
        <time>2026-08-31T06:30:20.000Z</time>
        <extensions>
          <ns3:TrackPointExtension>
            <ns3:hr>158</ns3:hr>
            <ns3:cad>0</ns3:cad>
          </ns3:TrackPointExtension>
        </extensions>
      </trkpt>
      <trkpt lat="44.676997661590576171875" lon="6.8190966546535491943359375">
        <ele>2206</ele>
        <time>2026-08-31T06:30:21.000Z</time>
        <extensions>
          <ns3:TrackPointExtension>
            <ns3:hr>156</ns3:hr>
            <ns3:cad>0</ns3:cad>
          </ns3:TrackPointExtension>
        </extensions>
      </trkpt>
      <trkpt lat="44.67699967324733734130859375" lon="6.8191102333366870880126953125">
        <ele>2206.199951171875</ele>
        <time>2026-08-31T06:30:22.000Z</time>
        <extensions>
          <ns3:TrackPointExtension>
            <ns3:hr>155</ns3:hr>
            <ns3:cad>0</ns3:cad>
          </ns3:TrackPointExtension>
        </extensions>
      </trkpt>
      <trkpt lat="44.67700260691344738006591796875" lon="6.81912758387625217437744140625">
        <ele>2206.39990234375</ele>
        <time>2026-08-31T06:30:23.000Z</time>
        <extensions>
          <ns3:TrackPointExtension>
            <ns3:hr>155</ns3:hr>
            <ns3:cad>0</ns3:cad>
          </ns3:TrackPointExtension>
        </extensions>
      </trkpt>
      <trkpt lat="44.67700327746570110321044921875" lon="6.8191315233707427978515625">
        <ele>2206.60009765625</ele>
        <time>2026-08-31T06:30:24.000Z</time>
        <extensions>
          <ns3:TrackPointExtension>
            <ns3:hr>154</ns3:hr>
            <ns3:cad>0</ns3:cad>
          </ns3:TrackPointExtension>
        </extensions>
      </trkpt>
      <trkpt lat="44.67700076289474964141845703125" lon="6.81914426386356353759765625">
        <ele>2206.800048828125</ele>
        <time>2026-08-31T06:30:25.000Z</time>
        <extensions>
          <ns3:TrackPointExtension>
            <ns3:hr>154</ns3:hr>
            <ns3:cad>0</ns3:cad>
          </ns3:TrackPointExtension>
        </extensions>
      </trkpt>
      <trkpt lat="44.677000679075717926025390625" lon="6.81915767490863800048828125">
        <ele>2206.800048828125</ele>
        <time>2026-08-31T06:30:26.000Z</time>
        <extensions>
          <ns3:TrackPointExtension>
            <ns3:hr>153</ns3:hr>
            <ns3:cad>0</ns3:cad>
          </ns3:TrackPointExtension>
        </extensions>
      </trkpt>
      <trkpt lat="44.67700126580893993377685546875" lon="6.81917645037174224853515625">
        <ele>2207.199951171875</ele>
        <time>2026-08-31T06:30:27.000Z</time>
        <extensions>
          <ns3:TrackPointExtension>
            <ns3:hr>153</ns3:hr>
            <ns3:cad>0</ns3:cad>
          </ns3:TrackPointExtension>
        </extensions>
      </trkpt>
      <trkpt lat="44.67700235545635223388671875" lon="6.81919011287391185760498046875">
        <ele>2207.39990234375</ele>
        <time>2026-08-31T06:30:28.000Z</time>
        <extensions>
          <ns3:TrackPointExtension>
            <ns3:hr>153</ns3:hr>
            <ns3:cad>0</ns3:cad>
          </ns3:TrackPointExtension>
        </extensions>
      </trkpt>
      <trkpt lat="44.67700093053281307220458984375" lon="6.819202601909637451171875">
        <ele>2207.60009765625</ele>
        <time>2026-08-31T06:30:29.000Z</time>
        <extensions>
          <ns3:TrackPointExtension>
            <ns3:hr>152</ns3:hr>
            <ns3:cad>0</ns3:cad>
          </ns3:TrackPointExtension>
        </extensions>
      </trkpt>
      <trkpt lat="44.67700126580893993377685546875" lon="6.8192173540592193603515625">
        <ele>2207.800048828125</ele>
        <time>2026-08-31T06:30:30.000Z</time>
        <extensions>
          <ns3:TrackPointExtension>
            <ns3:hr>152</ns3:hr>
            <ns3:cad>0</ns3:cad>
          </ns3:TrackPointExtension>
        </extensions>
      </trkpt>
      <trkpt lat="44.67700277455151081085205078125" lon="6.8192232213914394378662109375">
        <ele>2208</ele>
        <time>2026-08-31T06:30:31.000Z</time>
        <extensions>
          <ns3:TrackPointExtension>
            <ns3:hr>152</ns3:hr>
            <ns3:cad>0</ns3:cad>
          </ns3:TrackPointExtension>
        </extensions>
      </trkpt>
      <trkpt lat="44.6770028583705425262451171875" lon="6.81923805736005306243896484375">
        <ele>2208</ele>
        <time>2026-08-31T06:30:32.000Z</time>
        <extensions>
          <ns3:TrackPointExtension>
            <ns3:hr>151</ns3:hr>
            <ns3:cad>0</ns3:cad>
          </ns3:TrackPointExtension>
        </extensions>
      </trkpt>
      <trkpt lat="44.67700562439858913421630859375" lon="6.81925063021481037139892578125">
        <ele>2208.199951171875</ele>
        <time>2026-08-31T06:30:33.000Z</time>
        <extensions>
          <ns3:TrackPointExtension>
            <ns3:hr>151</ns3:hr>
            <ns3:cad>0</ns3:cad>
          </ns3:TrackPointExtension>
        </extensions>
      </trkpt>
      <trkpt lat="44.6770083904266357421875" lon="6.81926638819277286529541015625">
        <ele>2208.39990234375</ele>
        <time>2026-08-31T06:30:34.000Z</time>
        <extensions>
          <ns3:TrackPointExtension>
            <ns3:hr>151</ns3:hr>
            <ns3:cad>0</ns3:cad>
          </ns3:TrackPointExtension>
        </extensions>
      </trkpt>
      <trkpt lat="44.6770102344453334808349609375" lon="6.81928197853267192840576171875">
        <ele>2208.60009765625</ele>
        <time>2026-08-31T06:30:35.000Z</time>
        <extensions>
          <ns3:TrackPointExtension>
            <ns3:hr>151</ns3:hr>
            <ns3:cad>0</ns3:cad>
          </ns3:TrackPointExtension>
        </extensions>
      </trkpt>
      <trkpt lat="44.6770070493221282958984375" lon="6.8192862533032894134521484375">
        <ele>2208.800048828125</ele>
        <time>2026-08-31T06:30:36.000Z</time>
        <extensions>
          <ns3:TrackPointExtension>
            <ns3:hr>151</ns3:hr>
            <ns3:cad>0</ns3:cad>
          </ns3:TrackPointExtension>
        </extensions>
      </trkpt>
      <trkpt lat="44.677005708217620849609375" lon="6.819293797016143798828125">
        <ele>2209.199951171875</ele>
        <time>2026-08-31T06:30:37.000Z</time>
        <extensions>
          <ns3:TrackPointExtension>
            <ns3:hr>151</ns3:hr>
            <ns3:cad>0</ns3:cad>
          </ns3:TrackPointExtension>
        </extensions>
      </trkpt>
      <trkpt lat="44.6770070493221282958984375" lon="6.819306202232837677001953125">
        <ele>2209.39990234375</ele>
        <time>2026-08-31T06:30:38.000Z</time>
        <extensions>
          <ns3:TrackPointExtension>
            <ns3:hr>151</ns3:hr>
            <ns3:cad>0</ns3:cad>
          </ns3:TrackPointExtension>
        </extensions>
      </trkpt>
      <trkpt lat="44.67700864188373088836669921875" lon="6.81931793689727783203125">
        <ele>2209.60009765625</ele>
        <time>2026-08-31T06:30:39.000Z</time>
        <extensions>
          <ns3:TrackPointExtension>
            <ns3:hr>151</ns3:hr>
            <ns3:cad>0</ns3:cad>
          </ns3:TrackPointExtension>
        </extensions>
      </trkpt>
      <trkpt lat="44.677008055150508880615234375" lon="6.81932908482849597930908203125">
        <ele>2209.800048828125</ele>
        <time>2026-08-31T06:30:40.000Z</time>
        <extensions>
          <ns3:TrackPointExtension>
            <ns3:hr>151</ns3:hr>
            <ns3:cad>0</ns3:cad>
          </ns3:TrackPointExtension>
        </extensions>
      </trkpt>
      <trkpt lat="44.6770092286169528961181640625" lon="6.81933595798909664154052734375">
        <ele>2210</ele>
        <time>2026-08-31T06:30:41.000Z</time>
        <extensions>
          <ns3:TrackPointExtension>
            <ns3:hr>150</ns3:hr>
            <ns3:cad>0</ns3:cad>
          </ns3:TrackPointExtension>
        </extensions>
      </trkpt>
      <trkpt lat="44.677008055150508880615234375" lon="6.81934702210128307342529296875">
        <ele>2210.199951171875</ele>
        <time>2026-08-31T06:30:42.000Z</time>
        <extensions>
          <ns3:TrackPointExtension>
            <ns3:hr>150</ns3:hr>
            <ns3:cad>0</ns3:cad>
          </ns3:TrackPointExtension>
        </extensions>
      </trkpt>
      <trkpt lat="44.67700880952179431915283203125" lon="6.81935423053801059722900390625">
        <ele>2210.39990234375</ele>
        <time>2026-08-31T06:30:43.000Z</time>
        <extensions>
          <ns3:TrackPointExtension>
            <ns3:hr>151</ns3:hr>
            <ns3:cad>0</ns3:cad>
          </ns3:TrackPointExtension>
        </extensions>
      </trkpt>
      <trkpt lat="44.677008725702762603759765625" lon="6.81936881504952907562255859375">
        <ele>2210.800048828125</ele>
        <time>2026-08-31T06:30:44.000Z</time>
        <extensions>
          <ns3:TrackPointExtension>
            <ns3:hr>151</ns3:hr>
            <ns3:cad>0</ns3:cad>
          </ns3:TrackPointExtension>
        </extensions>
      </trkpt>
      <trkpt lat="44.677004031836986541748046875" lon="6.8193650431931018829345703125">
        <ele>2211</ele>
        <time>2026-08-31T06:30:45.000Z</time>
        <extensions>
          <ns3:TrackPointExtension>
            <ns3:hr>152</ns3:hr>
            <ns3:cad>0</ns3:cad>
          </ns3:TrackPointExtension>
        </extensions>
      </trkpt>
      <trkpt lat="44.677003361284732818603515625" lon="6.81936462409794330596923828125">
        <ele>2211.199951171875</ele>
        <time>2026-08-31T06:30:46.000Z</time>
        <extensions>
          <ns3:TrackPointExtension>
            <ns3:hr>152</ns3:hr>
            <ns3:cad>0</ns3:cad>
          </ns3:TrackPointExtension>
        </extensions>
      </trkpt>
      <trkpt lat="44.67700227163732051849365234375" lon="6.81936663575470447540283203125">
        <ele>2211.199951171875</ele>
        <time>2026-08-31T06:30:47.000Z</time>
        <extensions>
          <ns3:TrackPointExtension>
            <ns3:hr>152</ns3:hr>
            <ns3:cad>0</ns3:cad>
          </ns3:TrackPointExtension>
        </extensions>
      </trkpt>
      <trkpt lat="44.677002020180225372314453125" lon="6.8193694017827510833740234375">
        <ele>2211.39990234375</ele>
        <time>2026-08-31T06:30:48.000Z</time>
        <extensions>
          <ns3:TrackPointExtension>
            <ns3:hr>153</ns3:hr>
            <ns3:cad>0</ns3:cad>
          </ns3:TrackPointExtension>
        </extensions>
      </trkpt>
      <trkpt lat="44.6770018525421619415283203125" lon="6.8193704076111316680908203125">
        <ele>2211.39990234375</ele>
        <time>2026-08-31T06:30:49.000Z</time>
        <extensions>
          <ns3:TrackPointExtension>
            <ns3:hr>153</ns3:hr>
            <ns3:cad>0</ns3:cad>
          </ns3:TrackPointExtension>
        </extensions>
      </trkpt>
      <trkpt lat="44.677002020180225372314453125" lon="6.81936998851597309112548828125">
        <ele>2211.39990234375</ele>
        <time>2026-08-31T06:30:50.000Z</time>
        <extensions>
          <ns3:TrackPointExtension>
            <ns3:hr>154</ns3:hr>
            <ns3:cad>0</ns3:cad>
          </ns3:TrackPointExtension>
        </extensions>
      </trkpt>
      <trkpt lat="44.67700176872313022613525390625" lon="6.8193690665066242218017578125">
        <ele>2211.39990234375</ele>
        <time>2026-08-31T06:30:51.000Z</time>
        <extensions>
          <ns3:TrackPointExtension>
            <ns3:hr>154</ns3:hr>
            <ns3:cad>0</ns3:cad>
          </ns3:TrackPointExtension>
        </extensions>
      </trkpt>
      <trkpt lat="44.6770015172660350799560546875" lon="6.81936814449727535247802734375">
        <ele>2211.39990234375</ele>
        <time>2026-08-31T06:30:52.000Z</time>
        <extensions>
          <ns3:TrackPointExtension>
            <ns3:hr>154</ns3:hr>
            <ns3:cad>0</ns3:cad>
          </ns3:TrackPointExtension>
        </extensions>
      </trkpt>
      <trkpt lat="44.677001349627971649169921875" lon="6.81936847977340221405029296875">
        <ele>2211.39990234375</ele>
        <time>2026-08-31T06:30:53.000Z</time>
        <extensions>
          <ns3:TrackPointExtension>
            <ns3:hr>154</ns3:hr>
            <ns3:cad>0</ns3:cad>
          </ns3:TrackPointExtension>
        </extensions>
      </trkpt>
      <trkpt lat="44.677001349627971649169921875" lon="6.81936847977340221405029296875">
        <ele>2211.39990234375</ele>
        <time>2026-08-31T06:30:54.000Z</time>
        <extensions>
          <ns3:TrackPointExtension>
            <ns3:hr>154</ns3:hr>
            <ns3:cad>0</ns3:cad>
          </ns3:TrackPointExtension>
        </extensions>
      </trkpt>
      <trkpt lat="44.677001349627971649169921875" lon="6.81936847977340221405029296875">
        <ele>2211.39990234375</ele>
        <time>2026-08-31T06:30:55.000Z</time>
        <extensions>
          <ns3:TrackPointExtension>
            <ns3:hr>153</ns3:hr>
            <ns3:cad>0</ns3:cad>
          </ns3:TrackPointExtension>
        </extensions>
      </trkpt>
      <trkpt lat="44.677001349627971649169921875" lon="6.81936847977340221405029296875">
        <ele>2211.39990234375</ele>
        <time>2026-08-31T06:30:56.000Z</time>
        <extensions>
          <ns3:TrackPointExtension>
            <ns3:hr>154</ns3:hr>
            <ns3:cad>0</ns3:cad>
          </ns3:TrackPointExtension>
        </extensions>
      </trkpt>
      <trkpt lat="44.677001349627971649169921875" lon="6.81936847977340221405029296875">
        <ele>2211.39990234375</ele>
        <time>2026-08-31T06:30:57.000Z</time>
        <extensions>
          <ns3:TrackPointExtension>
            <ns3:hr>154</ns3:hr>
            <ns3:cad>0</ns3:cad>
          </ns3:TrackPointExtension>
        </extensions>
      </trkpt>
      <trkpt lat="44.677001349627971649169921875" lon="6.81936847977340221405029296875">
        <ele>2211.60009765625</ele>
        <time>2026-08-31T06:30:58.000Z</time>
        <extensions>
          <ns3:TrackPointExtension>
            <ns3:hr>154</ns3:hr>
            <ns3:cad>0</ns3:cad>
          </ns3:TrackPointExtension>
        </extensions>
      </trkpt>
      <trkpt lat="44.677001349627971649169921875" lon="6.81936847977340221405029296875">
        <ele>2211.60009765625</ele>
        <time>2026-08-31T06:30:59.000Z</time>
        <extensions>
          <ns3:TrackPointExtension>
            <ns3:hr>153</ns3:hr>
            <ns3:cad>0</ns3:cad>
          </ns3:TrackPointExtension>
        </extensions>
      </trkpt>
      <trkpt lat="44.677001349627971649169921875" lon="6.81936847977340221405029296875">
        <ele>2211.60009765625</ele>
        <time>2026-08-31T06:31:00.000Z</time>
        <extensions>
          <ns3:TrackPointExtension>
            <ns3:hr>154</ns3:hr>
            <ns3:cad>0</ns3:cad>
          </ns3:TrackPointExtension>
        </extensions>
      </trkpt>
      <trkpt lat="44.677001349627971649169921875" lon="6.81936847977340221405029296875">
        <ele>2211.60009765625</ele>
        <time>2026-08-31T06:31:01.000Z</time>
        <extensions>
          <ns3:TrackPointExtension>
            <ns3:hr>154</ns3:hr>
            <ns3:cad>0</ns3:cad>
          </ns3:TrackPointExtension>
        </extensions>
      </trkpt>
      <trkpt lat="44.677001349627971649169921875" lon="6.81936847977340221405029296875">
        <ele>2211.60009765625</ele>
        <time>2026-08-31T06:31:02.000Z</time>
        <extensions>
          <ns3:TrackPointExtension>
            <ns3:hr>153</ns3:hr>
            <ns3:cad>0</ns3:cad>
          </ns3:TrackPointExtension>
        </extensions>
      </trkpt>
      <trkpt lat="44.677001349627971649169921875" lon="6.81936847977340221405029296875">
        <ele>2211.60009765625</ele>
        <time>2026-08-31T06:31:03.000Z</time>
        <extensions>
          <ns3:TrackPointExtension>
            <ns3:hr>153</ns3:hr>
            <ns3:cad>0</ns3:cad>
          </ns3:TrackPointExtension>
        </extensions>
      </trkpt>
      <trkpt lat="44.677001349627971649169921875" lon="6.81936847977340221405029296875">
        <ele>2211.60009765625</ele>
        <time>2026-08-31T06:31:04.000Z</time>
        <extensions>
          <ns3:TrackPointExtension>
            <ns3:hr>153</ns3:hr>
            <ns3:cad>0</ns3:cad>
          </ns3:TrackPointExtension>
        </extensions>
      </trkpt>
      <trkpt lat="44.677001349627971649169921875" lon="6.81936847977340221405029296875">
        <ele>2211.60009765625</ele>
        <time>2026-08-31T06:31:05.000Z</time>
        <extensions>
          <ns3:TrackPointExtension>
            <ns3:hr>153</ns3:hr>
            <ns3:cad>0</ns3:cad>
          </ns3:TrackPointExtension>
        </extensions>
      </trkpt>
      <trkpt lat="44.677001349627971649169921875" lon="6.81936847977340221405029296875">
        <ele>2211.60009765625</ele>
        <time>2026-08-31T06:31:06.000Z</time>
        <extensions>
          <ns3:TrackPointExtension>
            <ns3:hr>155</ns3:hr>
            <ns3:cad>0</ns3:cad>
          </ns3:TrackPointExtension>
        </extensions>
      </trkpt>
      <trkpt lat="44.677001349627971649169921875" lon="6.81936847977340221405029296875">
        <ele>2211.60009765625</ele>
        <time>2026-08-31T06:31:07.000Z</time>
        <extensions>
          <ns3:TrackPointExtension>
            <ns3:hr>155</ns3:hr>
            <ns3:cad>0</ns3:cad>
          </ns3:TrackPointExtension>
        </extensions>
      </trkpt>
      <trkpt lat="44.677001349627971649169921875" lon="6.81936847977340221405029296875">
        <ele>2211.60009765625</ele>
        <time>2026-08-31T06:31:08.000Z</time>
        <extensions>
          <ns3:TrackPointExtension>
            <ns3:hr>157</ns3:hr>
            <ns3:cad>0</ns3:cad>
          </ns3:TrackPointExtension>
        </extensions>
      </trkpt>
      <trkpt lat="44.677001349627971649169921875" lon="6.81936847977340221405029296875">
        <ele>2211.60009765625</ele>
        <time>2026-08-31T06:31:09.000Z</time>
        <extensions>
          <ns3:TrackPointExtension>
            <ns3:hr>158</ns3:hr>
            <ns3:cad>0</ns3:cad>
          </ns3:TrackPointExtension>
        </extensions>
      </trkpt>
      <trkpt lat="44.677001349627971649169921875" lon="6.81936847977340221405029296875">
        <ele>2211.60009765625</ele>
        <time>2026-08-31T06:31:10.000Z</time>
        <extensions>
          <ns3:TrackPointExtension>
            <ns3:hr>156</ns3:hr>
            <ns3:cad>0</ns3:cad>
          </ns3:TrackPointExtension>
        </extensions>
      </trkpt>
      <trkpt lat="44.677001349627971649169921875" lon="6.81936847977340221405029296875">
        <ele>2211.800048828125</ele>
        <time>2026-08-31T06:31:11.000Z</time>
        <extensions>
          <ns3:TrackPointExtension>
            <ns3:hr>156</ns3:hr>
            <ns3:cad>0</ns3:cad>
          </ns3:TrackPointExtension>
        </extensions>
      </trkpt>
      <trkpt lat="44.677001349627971649169921875" lon="6.81936847977340221405029296875">
        <ele>2211.800048828125</ele>
        <time>2026-08-31T06:31:12.000Z</time>
        <extensions>
          <ns3:TrackPointExtension>
            <ns3:hr>156</ns3:hr>
            <ns3:cad>0</ns3:cad>
          </ns3:TrackPointExtension>
        </extensions>
      </trkpt>
      <trkpt lat="44.677001349627971649169921875" lon="6.81936847977340221405029296875">
        <ele>2211.800048828125</ele>
        <time>2026-08-31T06:31:13.000Z</time>
        <extensions>
          <ns3:TrackPointExtension>
            <ns3:hr>155</ns3:hr>
            <ns3:cad>0</ns3:cad>
          </ns3:TrackPointExtension>
        </extensions>
      </trkpt>
      <trkpt lat="44.677001349627971649169921875" lon="6.81936847977340221405029296875">
        <ele>2211.800048828125</ele>
        <time>2026-08-31T06:31:14.000Z</time>
        <extensions>
          <ns3:TrackPointExtension>
            <ns3:hr>155</ns3:hr>
            <ns3:cad>0</ns3:cad>
          </ns3:TrackPointExtension>
        </extensions>
      </trkpt>
      <trkpt lat="44.677001349627971649169921875" lon="6.81936847977340221405029296875">
        <ele>2211.800048828125</ele>
        <time>2026-08-31T06:31:15.000Z</time>
        <extensions>
          <ns3:TrackPointExtension>
            <ns3:hr>154</ns3:hr>
            <ns3:cad>0</ns3:cad>
          </ns3:TrackPointExtension>
        </extensions>
      </trkpt>
      <trkpt lat="44.677001349627971649169921875" lon="6.81936847977340221405029296875">
        <ele>2211.800048828125</ele>
        <time>2026-08-31T06:31:16.000Z</time>
        <extensions>
          <ns3:TrackPointExtension>
            <ns3:hr>154</ns3:hr>
            <ns3:cad>0</ns3:cad>
          </ns3:TrackPointExtension>
        </extensions>
      </trkpt>
      <trkpt lat="44.677001349627971649169921875" lon="6.81936847977340221405029296875">
        <ele>2211.800048828125</ele>
        <time>2026-08-31T06:31:17.000Z</time>
        <extensions>
          <ns3:TrackPointExtension>
            <ns3:hr>153</ns3:hr>
            <ns3:cad>0</ns3:cad>
          </ns3:TrackPointExtension>
        </extensions>
      </trkpt>
      <trkpt lat="44.677001349627971649169921875" lon="6.81936847977340221405029296875">
        <ele>2211.800048828125</ele>
        <time>2026-08-31T06:31:18.000Z</time>
        <extensions>
          <ns3:TrackPointExtension>
            <ns3:hr>153</ns3:hr>
            <ns3:cad>0</ns3:cad>
          </ns3:TrackPointExtension>
        </extensions>
      </trkpt>
      <trkpt lat="44.677001349627971649169921875" lon="6.81936847977340221405029296875">
        <ele>2211.800048828125</ele>
        <time>2026-08-31T06:31:19.000Z</time>
        <extensions>
          <ns3:TrackPointExtension>
            <ns3:hr>152</ns3:hr>
            <ns3:cad>0</ns3:cad>
          </ns3:TrackPointExtension>
        </extensions>
      </trkpt>
      <trkpt lat="44.677001349627971649169921875" lon="6.81936847977340221405029296875">
        <ele>2211.800048828125</ele>
        <time>2026-08-31T06:31:20.000Z</time>
        <extensions>
          <ns3:TrackPointExtension>
            <ns3:hr>152</ns3:hr>
            <ns3:cad>0</ns3:cad>
          </ns3:TrackPointExtension>
        </extensions>
      </trkpt>
      <trkpt lat="44.677001349627971649169921875" lon="6.81936847977340221405029296875">
        <ele>2211.800048828125</ele>
        <time>2026-08-31T06:31:21.000Z</time>
        <extensions>
          <ns3:TrackPointExtension>
            <ns3:hr>152</ns3:hr>
            <ns3:cad>0</ns3:cad>
          </ns3:TrackPointExtension>
        </extensions>
      </trkpt>
      <trkpt lat="44.677001349627971649169921875" lon="6.81936847977340221405029296875">
        <ele>2211.800048828125</ele>
        <time>2026-08-31T06:31:22.000Z</time>
        <extensions>
          <ns3:TrackPointExtension>
            <ns3:hr>152</ns3:hr>
            <ns3:cad>0</ns3:cad>
          </ns3:TrackPointExtension>
        </extensions>
      </trkpt>
      <trkpt lat="44.677001349627971649169921875" lon="6.81936847977340221405029296875">
        <ele>2211.800048828125</ele>
        <time>2026-08-31T06:31:23.000Z</time>
        <extensions>
          <ns3:TrackPointExtension>
            <ns3:hr>153</ns3:hr>
            <ns3:cad>0</ns3:cad>
          </ns3:TrackPointExtension>
        </extensions>
      </trkpt>
      <trkpt lat="44.677001349627971649169921875" lon="6.81936847977340221405029296875">
        <ele>2211.800048828125</ele>
        <time>2026-08-31T06:31:24.000Z</time>
        <extensions>
          <ns3:TrackPointExtension>
            <ns3:hr>153</ns3:hr>
            <ns3:cad>0</ns3:cad>
          </ns3:TrackPointExtension>
        </extensions>
      </trkpt>
      <trkpt lat="44.677001349627971649169921875" lon="6.81936847977340221405029296875">
        <ele>2211.800048828125</ele>
        <time>2026-08-31T06:31:25.000Z</time>
        <extensions>
          <ns3:TrackPointExtension>
            <ns3:hr>152</ns3:hr>
            <ns3:cad>0</ns3:cad>
          </ns3:TrackPointExtension>
        </extensions>
      </trkpt>
      <trkpt lat="44.677001349627971649169921875" lon="6.81936847977340221405029296875">
        <ele>2212</ele>
        <time>2026-08-31T06:31:26.000Z</time>
        <extensions>
          <ns3:TrackPointExtension>
            <ns3:hr>152</ns3:hr>
            <ns3:cad>0</ns3:cad>
          </ns3:TrackPointExtension>
        </extensions>
      </trkpt>
      <trkpt lat="44.677001349627971649169921875" lon="6.81936847977340221405029296875">
        <ele>2212</ele>
        <time>2026-08-31T06:31:27.000Z</time>
        <extensions>
          <ns3:TrackPointExtension>
            <ns3:hr>151</ns3:hr>
            <ns3:cad>0</ns3:cad>
          </ns3:TrackPointExtension>
        </extensions>
      </trkpt>
      <trkpt lat="44.677001349627971649169921875" lon="6.81936847977340221405029296875">
        <ele>2211.800048828125</ele>
        <time>2026-08-31T06:31:28.000Z</time>
        <extensions>
          <ns3:TrackPointExtension>
            <ns3:hr>151</ns3:hr>
            <ns3:cad>0</ns3:cad>
          </ns3:TrackPointExtension>
        </extensions>
      </trkpt>
      <trkpt lat="44.677001349627971649169921875" lon="6.81936847977340221405029296875">
        <ele>2211.800048828125</ele>
        <time>2026-08-31T06:31:29.000Z</time>
        <extensions>
          <ns3:TrackPointExtension>
            <ns3:hr>150</ns3:hr>
            <ns3:cad>0</ns3:cad>
          </ns3:TrackPointExtension>
        </extensions>
      </trkpt>
      <trkpt lat="44.677001349627971649169921875" lon="6.81936847977340221405029296875">
        <ele>2211.800048828125</ele>
        <time>2026-08-31T06:31:30.000Z</time>
        <extensions>
          <ns3:TrackPointExtension>
            <ns3:hr>150</ns3:hr>
            <ns3:cad>0</ns3:cad>
          </ns3:TrackPointExtension>
        </extensions>
      </trkpt>
      <trkpt lat="44.677001349627971649169921875" lon="6.81936847977340221405029296875">
        <ele>2212</ele>
        <time>2026-08-31T06:31:31.000Z</time>
        <extensions>
          <ns3:TrackPointExtension>
            <ns3:hr>150</ns3:hr>
            <ns3:cad>0</ns3:cad>
          </ns3:TrackPointExtension>
        </extensions>
      </trkpt>
      <trkpt lat="44.677001349627971649169921875" lon="6.81936847977340221405029296875">
        <ele>2212</ele>
        <time>2026-08-31T06:31:32.000Z</time>
        <extensions>
          <ns3:TrackPointExtension>
            <ns3:hr>150</ns3:hr>
            <ns3:cad>0</ns3:cad>
          </ns3:TrackPointExtension>
        </extensions>
      </trkpt>
      <trkpt lat="44.677001349627971649169921875" lon="6.81936847977340221405029296875">
        <ele>2212</ele>
        <time>2026-08-31T06:31:33.000Z</time>
        <extensions>
          <ns3:TrackPointExtension>
            <ns3:hr>150</ns3:hr>
            <ns3:cad>0</ns3:cad>
          </ns3:TrackPointExtension>
        </extensions>
      </trkpt>
      <trkpt lat="44.677001349627971649169921875" lon="6.81936847977340221405029296875">
        <ele>2212</ele>
        <time>2026-08-31T06:31:34.000Z</time>
        <extensions>
          <ns3:TrackPointExtension>
            <ns3:hr>149</ns3:hr>
            <ns3:cad>0</ns3:cad>
          </ns3:TrackPointExtension>
        </extensions>
      </trkpt>
      <trkpt lat="44.677001349627971649169921875" lon="6.81936847977340221405029296875">
        <ele>2212</ele>
        <time>2026-08-31T06:31:35.000Z</time>
        <extensions>
          <ns3:TrackPointExtension>
            <ns3:hr>146</ns3:hr>
            <ns3:cad>0</ns3:cad>
          </ns3:TrackPointExtension>
        </extensions>
      </trkpt>
      <trkpt lat="44.677001349627971649169921875" lon="6.81936847977340221405029296875">
        <ele>2212</ele>
        <time>2026-08-31T06:31:36.000Z</time>
        <extensions>
          <ns3:TrackPointExtension>
            <ns3:hr>140</ns3:hr>
            <ns3:cad>0</ns3:cad>
          </ns3:TrackPointExtension>
        </extensions>
      </trkpt>
      <trkpt lat="44.677001349627971649169921875" lon="6.81936847977340221405029296875">
        <ele>2212</ele>
        <time>2026-08-31T06:31:37.000Z</time>
        <extensions>
          <ns3:TrackPointExtension>
            <ns3:hr>136</ns3:hr>
            <ns3:cad>0</ns3:cad>
          </ns3:TrackPointExtension>
        </extensions>
      </trkpt>
      <trkpt lat="44.677001349627971649169921875" lon="6.81936847977340221405029296875">
        <ele>2211.800048828125</ele>
        <time>2026-08-31T06:31:38.000Z</time>
        <extensions>
          <ns3:TrackPointExtension>
            <ns3:hr>133</ns3:hr>
            <ns3:cad>0</ns3:cad>
          </ns3:TrackPointExtension>
        </extensions>
      </trkpt>
      <trkpt lat="44.677001349627971649169921875" lon="6.81936847977340221405029296875">
        <ele>2211.800048828125</ele>
        <time>2026-08-31T06:31:39.000Z</time>
        <extensions>
          <ns3:TrackPointExtension>
            <ns3:hr>131</ns3:hr>
            <ns3:cad>0</ns3:cad>
          </ns3:TrackPointExtension>
        </extensions>
      </trkpt>
      <trkpt lat="44.677001349627971649169921875" lon="6.81936847977340221405029296875">
        <ele>2211.800048828125</ele>
        <time>2026-08-31T06:31:40.000Z</time>
        <extensions>
          <ns3:TrackPointExtension>
            <ns3:hr>130</ns3:hr>
            <ns3:cad>0</ns3:cad>
          </ns3:TrackPointExtension>
        </extensions>
      </trkpt>
      <trkpt lat="44.677001349627971649169921875" lon="6.81936847977340221405029296875">
        <ele>2211.800048828125</ele>
        <time>2026-08-31T06:31:41.000Z</time>
        <extensions>
          <ns3:TrackPointExtension>
            <ns3:hr>129</ns3:hr>
            <ns3:cad>0</ns3:cad>
          </ns3:TrackPointExtension>
        </extensions>
      </trkpt>
      <trkpt lat="44.677001349627971649169921875" lon="6.81936847977340221405029296875">
        <ele>2212</ele>
        <time>2026-08-31T06:31:42.000Z</time>
        <extensions>
          <ns3:TrackPointExtension>
            <ns3:hr>129</ns3:hr>
            <ns3:cad>0</ns3:cad>
          </ns3:TrackPointExtension>
        </extensions>
      </trkpt>
      <trkpt lat="44.677001349627971649169921875" lon="6.81936847977340221405029296875">
        <ele>2212</ele>
        <time>2026-08-31T06:31:43.000Z</time>
        <extensions>
          <ns3:TrackPointExtension>
            <ns3:hr>128</ns3:hr>
            <ns3:cad>0</ns3:cad>
          </ns3:TrackPointExtension>
        </extensions>
      </trkpt>
      <trkpt lat="44.67700310982763767242431640625" lon="6.81937250308692455291748046875">
        <ele>2212</ele>
        <time>2026-08-31T06:31:44.000Z</time>
        <extensions>
          <ns3:TrackPointExtension>
            <ns3:hr>127</ns3:hr>
            <ns3:cad>0</ns3:cad>
          </ns3:TrackPointExtension>
        </extensions>
      </trkpt>
      <trkpt lat="44.67700612731277942657470703125" lon="6.8193876743316650390625">
        <ele>2212</ele>
        <time>2026-08-31T06:31:45.000Z</time>
        <extensions>
          <ns3:TrackPointExtension>
            <ns3:hr>127</ns3:hr>
            <ns3:cad>0</ns3:cad>
          </ns3:TrackPointExtension>
        </extensions>
      </trkpt>
      <trkpt lat="44.67700830660760402679443359375" lon="6.819405443966388702392578125">
        <ele>2212.199951171875</ele>
        <time>2026-08-31T06:31:46.000Z</time>
        <extensions>
          <ns3:TrackPointExtension>
            <ns3:hr>127</ns3:hr>
            <ns3:cad>0</ns3:cad>
          </ns3:TrackPointExtension>
        </extensions>
      </trkpt>
      <trkpt lat="44.67700948007404804229736328125" lon="6.81941516697406768798828125">
        <ele>2212.199951171875</ele>
        <time>2026-08-31T06:31:47.000Z</time>
        <extensions>
          <ns3:TrackPointExtension>
            <ns3:hr>127</ns3:hr>
            <ns3:cad>0</ns3:cad>
          </ns3:TrackPointExtension>
        </extensions>
      </trkpt>
      <trkpt lat="44.6770129166543483734130859375" lon="6.8194320984184741973876953125">
        <ele>2212.39990234375</ele>
        <time>2026-08-31T06:31:48.000Z</time>
        <extensions>
          <ns3:TrackPointExtension>
            <ns3:hr>127</ns3:hr>
            <ns3:cad>0</ns3:cad>
          </ns3:TrackPointExtension>
        </extensions>
      </trkpt>
      <trkpt lat="44.67701484449207782745361328125" lon="6.81944374926388263702392578125">
        <ele>2212.800048828125</ele>
        <time>2026-08-31T06:31:49.000Z</time>
        <extensions>
          <ns3:TrackPointExtension>
            <ns3:hr>127</ns3:hr>
            <ns3:cad>0</ns3:cad>
          </ns3:TrackPointExtension>
        </extensions>
      </trkpt>
      <trkpt lat="44.67701434157788753509521484375" lon="6.8194485269486904144287109375">
        <ele>2212.800048828125</ele>
        <time>2026-08-31T06:31:50.000Z</time>
        <extensions>
          <ns3:TrackPointExtension>
            <ns3:hr>126</ns3:hr>
            <ns3:cad>0</ns3:cad>
          </ns3:TrackPointExtension>
        </extensions>
      </trkpt>
      <trkpt lat="44.67701300047338008880615234375" lon="6.81946420110762119293212890625">
        <ele>2213</ele>
        <time>2026-08-31T06:31:51.000Z</time>
        <extensions>
          <ns3:TrackPointExtension>
            <ns3:hr>125</ns3:hr>
            <ns3:cad>0</ns3:cad>
          </ns3:TrackPointExtension>
        </extensions>
      </trkpt>
      <trkpt lat="44.6770124137401580810546875" lon="6.81947325356304645538330078125">
        <ele>2213.199951171875</ele>
        <time>2026-08-31T06:31:52.000Z</time>
        <extensions>
          <ns3:TrackPointExtension>
            <ns3:hr>125</ns3:hr>
            <ns3:cad>0</ns3:cad>
          </ns3:TrackPointExtension>
        </extensions>
      </trkpt>
      <trkpt lat="44.677011407911777496337890625" lon="6.81949068792164325714111328125">
        <ele>2213.39990234375</ele>
        <time>2026-08-31T06:31:53.000Z</time>
        <extensions>
          <ns3:TrackPointExtension>
            <ns3:hr>124</ns3:hr>
            <ns3:cad>0</ns3:cad>
          </ns3:TrackPointExtension>
        </extensions>
      </trkpt>
      <trkpt lat="44.67701174318790435791015625" lon="6.81950979866087436676025390625">
        <ele>2213.60009765625</ele>
        <time>2026-08-31T06:31:54.000Z</time>
        <extensions>
          <ns3:TrackPointExtension>
            <ns3:hr>124</ns3:hr>
            <ns3:cad>0</ns3:cad>
          </ns3:TrackPointExtension>
        </extensions>
      </trkpt>
      <trkpt lat="44.67701165936887264251708984375" lon="6.81952052749693393707275390625">
        <ele>2213.800048828125</ele>
        <time>2026-08-31T06:31:55.000Z</time>
        <extensions>
          <ns3:TrackPointExtension>
            <ns3:hr>124</ns3:hr>
            <ns3:cad>0</ns3:cad>
          </ns3:TrackPointExtension>
        </extensions>
      </trkpt>
      <trkpt lat="44.67701249755918979644775390625" lon="6.81953511200845241546630859375">
        <ele>2214</ele>
        <time>2026-08-31T06:31:56.000Z</time>
        <extensions>
          <ns3:TrackPointExtension>
            <ns3:hr>125</ns3:hr>
            <ns3:cad>0</ns3:cad>
          </ns3:TrackPointExtension>
        </extensions>
      </trkpt>
      <trkpt lat="44.677010737359523773193359375" lon="6.81954198516905307769775390625">
        <ele>2214.199951171875</ele>
        <time>2026-08-31T06:31:57.000Z</time>
        <extensions>
          <ns3:TrackPointExtension>
            <ns3:hr>125</ns3:hr>
            <ns3:cad>0</ns3:cad>
          </ns3:TrackPointExtension>
        </extensions>
      </trkpt>
      <trkpt lat="44.6770085580646991729736328125" lon="6.81955707259476184844970703125">
        <ele>2214.199951171875</ele>
        <time>2026-08-31T06:31:58.000Z</time>
        <extensions>
          <ns3:TrackPointExtension>
            <ns3:hr>125</ns3:hr>
            <ns3:cad>0</ns3:cad>
          </ns3:TrackPointExtension>
        </extensions>
      </trkpt>
      <trkpt lat="44.67700679786503314971923828125" lon="6.81956713087856769561767578125">
        <ele>2214.39990234375</ele>
        <time>2026-08-31T06:31:59.000Z</time>
        <extensions>
          <ns3:TrackPointExtension>
            <ns3:hr>126</ns3:hr>
            <ns3:cad>0</ns3:cad>
          </ns3:TrackPointExtension>
        </extensions>
      </trkpt>
      <trkpt lat="44.67700495384633541107177734375" lon="6.81957903318107128143310546875">
        <ele>2214.60009765625</ele>
        <time>2026-08-31T06:32:00.000Z</time>
        <extensions>
          <ns3:TrackPointExtension>
            <ns3:hr>127</ns3:hr>
            <ns3:cad>0</ns3:cad>
          </ns3:TrackPointExtension>
        </extensions>
      </trkpt>
      <trkpt lat="44.67700646258890628814697265625" lon="6.81959244422614574432373046875">
        <ele>2214.800048828125</ele>
        <time>2026-08-31T06:32:01.000Z</time>
        <extensions>
          <ns3:TrackPointExtension>
            <ns3:hr>128</ns3:hr>
            <ns3:cad>0</ns3:cad>
          </ns3:TrackPointExtension>
        </extensions>
      </trkpt>
      <trkpt lat="44.67700830660760402679443359375" lon="6.81960334070026874542236328125">
        <ele>2215</ele>
        <time>2026-08-31T06:32:02.000Z</time>
        <extensions>
          <ns3:TrackPointExtension>
            <ns3:hr>129</ns3:hr>
            <ns3:cad>0</ns3:cad>
          </ns3:TrackPointExtension>
        </extensions>
      </trkpt>
      <trkpt lat="44.67701853252947330474853515625" lon="6.819605268537998199462890625">
        <ele>2215.199951171875</ele>
        <time>2026-08-31T06:32:03.000Z</time>
        <extensions>
          <ns3:TrackPointExtension>
            <ns3:hr>130</ns3:hr>
            <ns3:cad>0</ns3:cad>
          </ns3:TrackPointExtension>
        </extensions>
      </trkpt>
      <trkpt lat="44.67702247202396392822265625" lon="6.81960082612931728363037109375">
        <ele>2215.60009765625</ele>
        <time>2026-08-31T06:32:04.000Z</time>
        <extensions>
          <ns3:TrackPointExtension>
            <ns3:hr>130</ns3:hr>
            <ns3:cad>0</ns3:cad>
          </ns3:TrackPointExtension>
        </extensions>
      </trkpt>
      <trkpt lat="44.67702792026102542877197265625" lon="6.81959093548357486724853515625">
        <ele>2215.800048828125</ele>
        <time>2026-08-31T06:32:05.000Z</time>
        <extensions>
          <ns3:TrackPointExtension>
            <ns3:hr>130</ns3:hr>
            <ns3:cad>0</ns3:cad>
          </ns3:TrackPointExtension>
        </extensions>
      </trkpt>
      <trkpt lat="44.67703009955585002899169921875" lon="6.81958288885653018951416015625">
        <ele>2216</ele>
        <time>2026-08-31T06:32:06.000Z</time>
        <extensions>
          <ns3:TrackPointExtension>
            <ns3:hr>130</ns3:hr>
            <ns3:cad>0</ns3:cad>
          </ns3:TrackPointExtension>
        </extensions>
      </trkpt>
      <trkpt lat="44.67703714035451412200927734375" lon="6.81957735680043697357177734375">
        <ele>2216.199951171875</ele>
        <time>2026-08-31T06:32:07.000Z</time>
        <extensions>
          <ns3:TrackPointExtension>
            <ns3:hr>131</ns3:hr>
            <ns3:cad>0</ns3:cad>
          </ns3:TrackPointExtension>
        </extensions>
      </trkpt>
      <trkpt lat="44.67704384587705135345458984375" lon="6.81957417167723178863525390625">
        <ele>2216.39990234375</ele>
        <time>2026-08-31T06:32:08.000Z</time>
        <extensions>
          <ns3:TrackPointExtension>
            <ns3:hr>131</ns3:hr>
            <ns3:cad>0</ns3:cad>
          </ns3:TrackPointExtension>
        </extensions>
      </trkpt>
      <trkpt lat="44.67705775983631610870361328125" lon="6.819573082029819488525390625">
        <ele>2216.60009765625</ele>
        <time>2026-08-31T06:32:09.000Z</time>
        <extensions>
          <ns3:TrackPointExtension>
            <ns3:hr>131</ns3:hr>
            <ns3:cad>0</ns3:cad>
          </ns3:TrackPointExtension>
        </extensions>
      </trkpt>
      <trkpt lat="44.67706731520593166351318359375" lon="6.81956830434501171112060546875">
        <ele>2216.800048828125</ele>
        <time>2026-08-31T06:32:10.000Z</time>
        <extensions>
          <ns3:TrackPointExtension>
            <ns3:hr>131</ns3:hr>
            <ns3:cad>0</ns3:cad>
          </ns3:TrackPointExtension>
        </extensions>
      </trkpt>
      <trkpt lat="44.67707351781427860260009765625" lon="6.819567382335662841796875">
        <ele>2217</ele>
        <time>2026-08-31T06:32:11.000Z</time>
        <extensions>
          <ns3:TrackPointExtension>
            <ns3:hr>132</ns3:hr>
            <ns3:cad>0</ns3:cad>
          </ns3:TrackPointExtension>
        </extensions>
      </trkpt>
      <trkpt lat="44.67708324082195758819580078125" lon="6.8195633590221405029296875">
        <ele>2217.39990234375</ele>
        <time>2026-08-31T06:32:12.000Z</time>
        <extensions>
          <ns3:TrackPointExtension>
            <ns3:hr>131</ns3:hr>
            <ns3:cad>0</ns3:cad>
          </ns3:TrackPointExtension>
        </extensions>
      </trkpt>
      <trkpt lat="44.6770890243351459503173828125" lon="6.819559670984745025634765625">
        <ele>2217.60009765625</ele>
        <time>2026-08-31T06:32:13.000Z</time>
        <extensions>
          <ns3:TrackPointExtension>
            <ns3:hr>132</ns3:hr>
            <ns3:cad>0</ns3:cad>
          </ns3:TrackPointExtension>
        </extensions>
      </trkpt>
      <trkpt lat="44.6770970709621906280517578125" lon="6.8195579946041107177734375">
        <ele>2217.60009765625</ele>
        <time>2026-08-31T06:32:14.000Z</time>
        <extensions>
          <ns3:TrackPointExtension>
            <ns3:hr>132</ns3:hr>
            <ns3:cad>0</ns3:cad>
          </ns3:TrackPointExtension>
        </extensions>
      </trkpt>
      <trkpt lat="44.677108637988567352294921875" lon="6.8195564858615398406982421875">
        <ele>2217.800048828125</ele>
        <time>2026-08-31T06:32:15.000Z</time>
        <extensions>
          <ns3:TrackPointExtension>
            <ns3:hr>133</ns3:hr>
            <ns3:cad>0</ns3:cad>
          </ns3:TrackPointExtension>
        </extensions>
      </trkpt>
      <trkpt lat="44.67712230049073696136474609375" lon="6.81955019943416118621826171875">
        <ele>2218</ele>
        <time>2026-08-31T06:32:16.000Z</time>
        <extensions>
          <ns3:TrackPointExtension>
            <ns3:hr>133</ns3:hr>
            <ns3:cad>0</ns3:cad>
          </ns3:TrackPointExtension>
        </extensions>
      </trkpt>
      <trkpt lat="44.67713110148906707763671875" lon="6.81954952888190746307373046875">
        <ele>2218.199951171875</ele>
        <time>2026-08-31T06:32:17.000Z</time>
        <extensions>
          <ns3:TrackPointExtension>
            <ns3:hr>134</ns3:hr>
            <ns3:cad>0</ns3:cad>
          </ns3:TrackPointExtension>
        </extensions>
      </trkpt>
      <trkpt lat="44.6771379746496677398681640625" lon="6.81954936124384403228759765625">
        <ele>2218.39990234375</ele>
        <time>2026-08-31T06:32:18.000Z</time>
        <extensions>
          <ns3:TrackPointExtension>
            <ns3:hr>134</ns3:hr>
            <ns3:cad>0</ns3:cad>
          </ns3:TrackPointExtension>
        </extensions>
      </trkpt>
      <trkpt lat="44.67713369987905025482177734375" lon="6.81955237872898578643798828125">
        <ele>2218.60009765625</ele>
        <time>2026-08-31T06:32:19.000Z</time>
        <extensions>
          <ns3:TrackPointExtension>
            <ns3:hr>135</ns3:hr>
            <ns3:cad>0</ns3:cad>
          </ns3:TrackPointExtension>
        </extensions>
      </trkpt>
      <trkpt lat="44.67713286168873310089111328125" lon="6.81955187581479549407958984375">
        <ele>2218.800048828125</ele>
        <time>2026-08-31T06:32:20.000Z</time>
        <extensions>
          <ns3:TrackPointExtension>
            <ns3:hr>135</ns3:hr>
            <ns3:cad>0</ns3:cad>
          </ns3:TrackPointExtension>
        </extensions>
      </trkpt>
      <trkpt lat="44.6771329455077648162841796875" lon="6.81955187581479549407958984375">
        <ele>2219</ele>
        <time>2026-08-31T06:32:21.000Z</time>
        <extensions>
          <ns3:TrackPointExtension>
            <ns3:hr>136</ns3:hr>
            <ns3:cad>0</ns3:cad>
          </ns3:TrackPointExtension>
        </extensions>
      </trkpt>
      <trkpt lat="44.6771329455077648162841796875" lon="6.81955187581479549407958984375">
        <ele>2219.199951171875</ele>
        <time>2026-08-31T06:32:22.000Z</time>
        <extensions>
          <ns3:TrackPointExtension>
            <ns3:hr>136</ns3:hr>
            <ns3:cad>0</ns3:cad>
          </ns3:TrackPointExtension>
        </extensions>
      </trkpt>
      <trkpt lat="44.6771329455077648162841796875" lon="6.81955187581479549407958984375">
        <ele>2219.199951171875</ele>
        <time>2026-08-31T06:32:23.000Z</time>
        <extensions>
          <ns3:TrackPointExtension>
            <ns3:hr>137</ns3:hr>
            <ns3:cad>0</ns3:cad>
          </ns3:TrackPointExtension>
        </extensions>
      </trkpt>
      <trkpt lat="44.6771329455077648162841796875" lon="6.81955187581479549407958984375">
        <ele>2219.199951171875</ele>
        <time>2026-08-31T06:32:24.000Z</time>
        <extensions>
          <ns3:TrackPointExtension>
            <ns3:hr>138</ns3:hr>
            <ns3:cad>0</ns3:cad>
          </ns3:TrackPointExtension>
        </extensions>
      </trkpt>
      <trkpt lat="44.6771329455077648162841796875" lon="6.81955187581479549407958984375">
        <ele>2219.199951171875</ele>
        <time>2026-08-31T06:32:25.000Z</time>
        <extensions>
          <ns3:TrackPointExtension>
            <ns3:hr>138</ns3:hr>
            <ns3:cad>0</ns3:cad>
          </ns3:TrackPointExtension>
        </extensions>
      </trkpt>
      <trkpt lat="44.6771329455077648162841796875" lon="6.81955187581479549407958984375">
        <ele>2219.199951171875</ele>
        <time>2026-08-31T06:32:26.000Z</time>
        <extensions>
          <ns3:TrackPointExtension>
            <ns3:hr>139</ns3:hr>
            <ns3:cad>0</ns3:cad>
          </ns3:TrackPointExtension>
        </extensions>
      </trkpt>
      <trkpt lat="44.6771329455077648162841796875" lon="6.81955187581479549407958984375">
        <ele>2219.199951171875</ele>
        <time>2026-08-31T06:32:27.000Z</time>
        <extensions>
          <ns3:TrackPointExtension>
            <ns3:hr>140</ns3:hr>
            <ns3:cad>0</ns3:cad>
          </ns3:TrackPointExtension>
        </extensions>
      </trkpt>
      <trkpt lat="44.6771329455077648162841796875" lon="6.81955187581479549407958984375">
        <ele>2219.199951171875</ele>
        <time>2026-08-31T06:32:28.000Z</time>
        <extensions>
          <ns3:TrackPointExtension>
            <ns3:hr>141</ns3:hr>
            <ns3:cad>0</ns3:cad>
          </ns3:TrackPointExtension>
        </extensions>
      </trkpt>
      <trkpt lat="44.6771329455077648162841796875" lon="6.81955187581479549407958984375">
        <ele>2219.199951171875</ele>
        <time>2026-08-31T06:32:29.000Z</time>
        <extensions>
          <ns3:TrackPointExtension>
            <ns3:hr>141</ns3:hr>
            <ns3:cad>0</ns3:cad>
          </ns3:TrackPointExtension>
        </extensions>
      </trkpt>
      <trkpt lat="44.6771329455077648162841796875" lon="6.81955187581479549407958984375">
        <ele>2219.39990234375</ele>
        <time>2026-08-31T06:32:30.000Z</time>
        <extensions>
          <ns3:TrackPointExtension>
            <ns3:hr>142</ns3:hr>
            <ns3:cad>0</ns3:cad>
          </ns3:TrackPointExtension>
        </extensions>
      </trkpt>
      <trkpt lat="44.6771329455077648162841796875" lon="6.81955187581479549407958984375">
        <ele>2219.39990234375</ele>
        <time>2026-08-31T06:32:31.000Z</time>
        <extensions>
          <ns3:TrackPointExtension>
            <ns3:hr>142</ns3:hr>
            <ns3:cad>0</ns3:cad>
          </ns3:TrackPointExtension>
        </extensions>
      </trkpt>
      <trkpt lat="44.6771329455077648162841796875" lon="6.81955187581479549407958984375">
        <ele>2219.39990234375</ele>
        <time>2026-08-31T06:32:32.000Z</time>
        <extensions>
          <ns3:TrackPointExtension>
            <ns3:hr>142</ns3:hr>
            <ns3:cad>0</ns3:cad>
          </ns3:TrackPointExtension>
        </extensions>
      </trkpt>
      <trkpt lat="44.6771329455077648162841796875" lon="6.81955187581479549407958984375">
        <ele>2219.39990234375</ele>
        <time>2026-08-31T06:32:33.000Z</time>
        <extensions>
          <ns3:TrackPointExtension>
            <ns3:hr>142</ns3:hr>
            <ns3:cad>0</ns3:cad>
          </ns3:TrackPointExtension>
        </extensions>
      </trkpt>
      <trkpt lat="44.6771329455077648162841796875" lon="6.81955187581479549407958984375">
        <ele>2219.39990234375</ele>
        <time>2026-08-31T06:32:34.000Z</time>
        <extensions>
          <ns3:TrackPointExtension>
            <ns3:hr>142</ns3:hr>
            <ns3:cad>0</ns3:cad>
          </ns3:TrackPointExtension>
        </extensions>
      </trkpt>
      <trkpt lat="44.6771329455077648162841796875" lon="6.81955187581479549407958984375">
        <ele>2219.39990234375</ele>
        <time>2026-08-31T06:32:35.000Z</time>
        <extensions>
          <ns3:TrackPointExtension>
            <ns3:hr>142</ns3:hr>
            <ns3:cad>0</ns3:cad>
          </ns3:TrackPointExtension>
        </extensions>
      </trkpt>
      <trkpt lat="44.6771329455077648162841796875" lon="6.81955187581479549407958984375">
        <ele>2219.39990234375</ele>
        <time>2026-08-31T06:32:36.000Z</time>
        <extensions>
          <ns3:TrackPointExtension>
            <ns3:hr>142</ns3:hr>
            <ns3:cad>0</ns3:cad>
          </ns3:TrackPointExtension>
        </extensions>
      </trkpt>
      <trkpt lat="44.6771373040974140167236328125" lon="6.81955254636704921722412109375">
        <ele>2219.39990234375</ele>
        <time>2026-08-31T06:32:37.000Z</time>
        <extensions>
          <ns3:TrackPointExtension>
            <ns3:hr>142</ns3:hr>
            <ns3:cad>0</ns3:cad>
          </ns3:TrackPointExtension>
        </extensions>
      </trkpt>
      <trkpt lat="44.6771513856947422027587890625" lon="6.8195491097867488861083984375">
        <ele>2219.39990234375</ele>
        <time>2026-08-31T06:32:38.000Z</time>
        <extensions>
          <ns3:TrackPointExtension>
            <ns3:hr>143</ns3:hr>
            <ns3:cad>0</ns3:cad>
          </ns3:TrackPointExtension>
        </extensions>
      </trkpt>
      <trkpt lat="44.6771584264934062957763671875" lon="6.8195457570254802703857421875">
        <ele>2219.39990234375</ele>
        <time>2026-08-31T06:32:39.000Z</time>
        <extensions>
          <ns3:TrackPointExtension>
            <ns3:hr>143</ns3:hr>
            <ns3:cad>0</ns3:cad>
          </ns3:TrackPointExtension>
        </extensions>
      </trkpt>
      <trkpt lat="44.677168987691402435302734375" lon="6.81953745894134044647216796875">
        <ele>2219.39990234375</ele>
        <time>2026-08-31T06:32:40.000Z</time>
        <extensions>
          <ns3:TrackPointExtension>
            <ns3:hr>142</ns3:hr>
            <ns3:cad>0</ns3:cad>
          </ns3:TrackPointExtension>
        </extensions>
      </trkpt>
      <trkpt lat="44.677177034318447113037109375" lon="6.8195316754281520843505859375">
        <ele>2219.60009765625</ele>
        <time>2026-08-31T06:32:41.000Z</time>
        <extensions>
          <ns3:TrackPointExtension>
            <ns3:hr>142</ns3:hr>
            <ns3:cad>0</ns3:cad>
          </ns3:TrackPointExtension>
        </extensions>
      </trkpt>
      <trkpt lat="44.67718382366001605987548828125" lon="6.81952723301947116851806640625">
        <ele>2219.60009765625</ele>
        <time>2026-08-31T06:32:42.000Z</time>
        <extensions>
          <ns3:TrackPointExtension>
            <ns3:hr>143</ns3:hr>
            <ns3:cad>0</ns3:cad>
          </ns3:TrackPointExtension>
        </extensions>
      </trkpt>
      <trkpt lat="44.67719455249607563018798828125" lon="6.81952237151563167572021484375">
        <ele>2219.800048828125</ele>
        <time>2026-08-31T06:32:43.000Z</time>
        <extensions>
          <ns3:TrackPointExtension>
            <ns3:hr>143</ns3:hr>
            <ns3:cad>0</ns3:cad>
          </ns3:TrackPointExtension>
        </extensions>
      </trkpt>
      <trkpt lat="44.67719924636185169219970703125" lon="6.819514073431491851806640625">
        <ele>2220</ele>
        <time>2026-08-31T06:32:44.000Z</time>
        <extensions>
          <ns3:TrackPointExtension>
            <ns3:hr>142</ns3:hr>
            <ns3:cad>0</ns3:cad>
          </ns3:TrackPointExtension>
        </extensions>
      </trkpt>
      <trkpt lat="44.67720888555049896240234375" lon="6.8195075355470180511474609375">
        <ele>2220.199951171875</ele>
        <time>2026-08-31T06:32:45.000Z</time>
        <extensions>
          <ns3:TrackPointExtension>
            <ns3:hr>140</ns3:hr>
            <ns3:cad>0</ns3:cad>
          </ns3:TrackPointExtension>
        </extensions>
      </trkpt>
      <trkpt lat="44.67721424996852874755859375" lon="6.819506026804447174072265625">
        <ele>2220.39990234375</ele>
        <time>2026-08-31T06:32:46.000Z</time>
        <extensions>
          <ns3:TrackPointExtension>
            <ns3:hr>139</ns3:hr>
            <ns3:cad>0</ns3:cad>
          </ns3:TrackPointExtension>
        </extensions>
      </trkpt>
      <trkpt lat="44.67722523026168346405029296875" lon="6.8194998241961002349853515625">
        <ele>2220.60009765625</ele>
        <time>2026-08-31T06:32:47.000Z</time>
        <extensions>
          <ns3:TrackPointExtension>
            <ns3:hr>137</ns3:hr>
            <ns3:cad>0</ns3:cad>
          </ns3:TrackPointExtension>
        </extensions>
      </trkpt>
      <trkpt lat="44.67723143287003040313720703125" lon="6.81949303485453128814697265625">
        <ele>2220.800048828125</ele>
        <time>2026-08-31T06:32:48.000Z</time>
        <extensions>
          <ns3:TrackPointExtension>
            <ns3:hr>136</ns3:hr>
            <ns3:cad>0</ns3:cad>
          </ns3:TrackPointExtension>
        </extensions>
      </trkpt>
      <trkpt lat="44.6772365458309650421142578125" lon="6.8194907717406749725341796875">
        <ele>2221.199951171875</ele>
        <time>2026-08-31T06:32:49.000Z</time>
        <extensions>
          <ns3:TrackPointExtension>
            <ns3:hr>136</ns3:hr>
            <ns3:cad>0</ns3:cad>
          </ns3:TrackPointExtension>
        </extensions>
      </trkpt>
      <trkpt lat="44.67724819667637348175048828125" lon="6.819486580789089202880859375">
        <ele>2221.39990234375</ele>
        <time>2026-08-31T06:32:50.000Z</time>
        <extensions>
          <ns3:TrackPointExtension>
            <ns3:hr>136</ns3:hr>
            <ns3:cad>0</ns3:cad>
          </ns3:TrackPointExtension>
        </extensions>
      </trkpt>
      <trkpt lat="44.67725557275116443634033203125" lon="6.81948498822748661041259765625">
        <ele>2221.60009765625</ele>
        <time>2026-08-31T06:32:51.000Z</time>
        <extensions>
          <ns3:TrackPointExtension>
            <ns3:hr>135</ns3:hr>
            <ns3:cad>0</ns3:cad>
          </ns3:TrackPointExtension>
        </extensions>
      </trkpt>
      <trkpt lat="44.677268899977207183837890625" lon="6.81947492994368076324462890625">
        <ele>2221.800048828125</ele>
        <time>2026-08-31T06:32:52.000Z</time>
        <extensions>
          <ns3:TrackPointExtension>
            <ns3:hr>135</ns3:hr>
            <ns3:cad>0</ns3:cad>
          </ns3:TrackPointExtension>
        </extensions>
      </trkpt>
      <trkpt lat="44.6772806346416473388671875" lon="6.81947149336338043212890625">
        <ele>2222</ele>
        <time>2026-08-31T06:32:53.000Z</time>
        <extensions>
          <ns3:TrackPointExtension>
            <ns3:hr>135</ns3:hr>
            <ns3:cad>0</ns3:cad>
          </ns3:TrackPointExtension>
        </extensions>
      </trkpt>
      <trkpt lat="44.677295722067356109619140625" lon="6.81946688331663608551025390625">
        <ele>2222.199951171875</ele>
        <time>2026-08-31T06:32:54.000Z</time>
        <extensions>
          <ns3:TrackPointExtension>
            <ns3:hr>135</ns3:hr>
            <ns3:cad>0</ns3:cad>
          </ns3:TrackPointExtension>
        </extensions>
      </trkpt>
      <trkpt lat="44.6773042716085910797119140625" lon="6.81946420110762119293212890625">
        <ele>2222.39990234375</ele>
        <time>2026-08-31T06:32:55.000Z</time>
        <extensions>
          <ns3:TrackPointExtension>
            <ns3:hr>134</ns3:hr>
            <ns3:cad>0</ns3:cad>
          </ns3:TrackPointExtension>
        </extensions>
      </trkpt>
      <trkpt lat="44.677310474216938018798828125" lon="6.81946151889860630035400390625">
        <ele>2222.60009765625</ele>
        <time>2026-08-31T06:32:56.000Z</time>
        <extensions>
          <ns3:TrackPointExtension>
            <ns3:hr>134</ns3:hr>
            <ns3:cad>0</ns3:cad>
          </ns3:TrackPointExtension>
        </extensions>
      </trkpt>
      <trkpt lat="44.6773223765194416046142578125" lon="6.81946688331663608551025390625">
        <ele>2222.60009765625</ele>
        <time>2026-08-31T06:32:57.000Z</time>
        <extensions>
          <ns3:TrackPointExtension>
            <ns3:hr>134</ns3:hr>
            <ns3:cad>0</ns3:cad>
          </ns3:TrackPointExtension>
        </extensions>
      </trkpt>
      <trkpt lat="44.6773290820419788360595703125" lon="6.81946621276438236236572265625">
        <ele>2222.800048828125</ele>
        <time>2026-08-31T06:32:58.000Z</time>
        <extensions>
          <ns3:TrackPointExtension>
            <ns3:hr>134</ns3:hr>
            <ns3:cad>0</ns3:cad>
          </ns3:TrackPointExtension>
        </extensions>
      </trkpt>
      <trkpt lat="44.6773421578109264373779296875" lon="6.819469146430492401123046875">
        <ele>2223</ele>
        <time>2026-08-31T06:32:59.000Z</time>
        <extensions>
          <ns3:TrackPointExtension>
            <ns3:hr>133</ns3:hr>
            <ns3:cad>0</ns3:cad>
          </ns3:TrackPointExtension>
        </extensions>
      </trkpt>
      <trkpt lat="44.6773505397140979766845703125" lon="6.81947157718241214752197265625">
        <ele>2223.199951171875</ele>
        <time>2026-08-31T06:33:00.000Z</time>
        <extensions>
          <ns3:TrackPointExtension>
            <ns3:hr>133</ns3:hr>
            <ns3:cad>0</ns3:cad>
          </ns3:TrackPointExtension>
        </extensions>
      </trkpt>
      <trkpt lat="44.67735908925533294677734375" lon="6.81947551667690277099609375">
        <ele>2223.39990234375</ele>
        <time>2026-08-31T06:33:01.000Z</time>
        <extensions>
          <ns3:TrackPointExtension>
            <ns3:hr>133</ns3:hr>
            <ns3:cad>0</ns3:cad>
          </ns3:TrackPointExtension>
        </extensions>
      </trkpt>
      <trkpt lat="44.67736872844398021697998046875" lon="6.81947560049593448638916015625">
        <ele>2223.60009765625</ele>
        <time>2026-08-31T06:33:02.000Z</time>
        <extensions>
          <ns3:TrackPointExtension>
            <ns3:hr>133</ns3:hr>
            <ns3:cad>0</ns3:cad>
          </ns3:TrackPointExtension>
        </extensions>
      </trkpt>
      <trkpt lat="44.67737518250942230224609375" lon="6.81947895325720310211181640625">
        <ele>2223.800048828125</ele>
        <time>2026-08-31T06:33:03.000Z</time>
        <extensions>
          <ns3:TrackPointExtension>
            <ns3:hr>134</ns3:hr>
            <ns3:cad>0</ns3:cad>
          </ns3:TrackPointExtension>
        </extensions>
      </trkpt>
      <trkpt lat="44.67738364823162555694580078125" lon="6.81949429214000701904296875">
        <ele>2224</ele>
        <time>2026-08-31T06:33:04.000Z</time>
        <extensions>
          <ns3:TrackPointExtension>
            <ns3:hr>134</ns3:hr>
            <ns3:cad>0</ns3:cad>
          </ns3:TrackPointExtension>
        </extensions>
      </trkpt>
      <trkpt lat="44.67738431878387928009033203125" lon="6.81950879283249378204345703125">
        <ele>2224.199951171875</ele>
        <time>2026-08-31T06:33:05.000Z</time>
        <extensions>
          <ns3:TrackPointExtension>
            <ns3:hr>134</ns3:hr>
            <ns3:cad>0</ns3:cad>
          </ns3:TrackPointExtension>
        </extensions>
      </trkpt>
      <trkpt lat="44.67738130129873752593994140625" lon="6.81952337734401226043701171875">
        <ele>2224.39990234375</ele>
        <time>2026-08-31T06:33:06.000Z</time>
        <extensions>
          <ns3:TrackPointExtension>
            <ns3:hr>134</ns3:hr>
            <ns3:cad>0</ns3:cad>
          </ns3:TrackPointExtension>
        </extensions>
      </trkpt>
      <trkpt lat="44.6773743443191051483154296875" lon="6.81953863240778446197509765625">
        <ele>2224.60009765625</ele>
        <time>2026-08-31T06:33:07.000Z</time>
        <extensions>
          <ns3:TrackPointExtension>
            <ns3:hr>135</ns3:hr>
            <ns3:cad>0</ns3:cad>
          </ns3:TrackPointExtension>
        </extensions>
      </trkpt>
      <trkpt lat="44.67736889608204364776611328125" lon="6.819550283253192901611328125">
        <ele>2225</ele>
        <time>2026-08-31T06:33:08.000Z</time>
        <extensions>
          <ns3:TrackPointExtension>
            <ns3:hr>135</ns3:hr>
            <ns3:cad>0</ns3:cad>
          </ns3:TrackPointExtension>
        </extensions>
      </trkpt>
      <trkpt lat="44.67736445367336273193359375" lon="6.819552294909954071044921875">
        <ele>2225.39990234375</ele>
        <time>2026-08-31T06:33:09.000Z</time>
        <extensions>
          <ns3:TrackPointExtension>
            <ns3:hr>136</ns3:hr>
            <ns3:cad>0</ns3:cad>
          </ns3:TrackPointExtension>
        </extensions>
      </trkpt>
      <trkpt lat="44.67735682614147663116455078125" lon="6.81956268846988677978515625">
        <ele>2225.60009765625</ele>
        <time>2026-08-31T06:33:10.000Z</time>
        <extensions>
          <ns3:TrackPointExtension>
            <ns3:hr>136</ns3:hr>
            <ns3:cad>0</ns3:cad>
          </ns3:TrackPointExtension>
        </extensions>
      </trkpt>
      <trkpt lat="44.67735347338020801544189453125" lon="6.81956243701279163360595703125">
        <ele>2225.800048828125</ele>
        <time>2026-08-31T06:33:11.000Z</time>
        <extensions>
          <ns3:TrackPointExtension>
            <ns3:hr>136</ns3:hr>
            <ns3:cad>0</ns3:cad>
          </ns3:TrackPointExtension>
        </extensions>
      </trkpt>
      <trkpt lat="44.677344672381877899169921875" lon="6.8195709027349948883056640625">
        <ele>2226</ele>
        <time>2026-08-31T06:33:12.000Z</time>
        <extensions>
          <ns3:TrackPointExtension>
            <ns3:hr>137</ns3:hr>
            <ns3:cad>0</ns3:cad>
          </ns3:TrackPointExtension>
        </extensions>
      </trkpt>
      <trkpt lat="44.6773398108780384063720703125" lon="6.8195779435336589813232421875">
        <ele>2226.199951171875</ele>
        <time>2026-08-31T06:33:13.000Z</time>
        <extensions>
          <ns3:TrackPointExtension>
            <ns3:hr>136</ns3:hr>
            <ns3:cad>0</ns3:cad>
          </ns3:TrackPointExtension>
        </extensions>
      </trkpt>
      <trkpt lat="44.67733603902161121368408203125" lon="6.8195906840264797210693359375">
        <ele>2226.39990234375</ele>
        <time>2026-08-31T06:33:14.000Z</time>
        <extensions>
          <ns3:TrackPointExtension>
            <ns3:hr>136</ns3:hr>
            <ns3:cad>0</ns3:cad>
          </ns3:TrackPointExtension>
        </extensions>
      </trkpt>
      <trkpt lat="44.677332937717437744140625" lon="6.81960560381412506103515625">
        <ele>2226.60009765625</ele>
        <time>2026-08-31T06:33:15.000Z</time>
        <extensions>
          <ns3:TrackPointExtension>
            <ns3:hr>136</ns3:hr>
            <ns3:cad>0</ns3:cad>
          </ns3:TrackPointExtension>
        </extensions>
      </trkpt>
      <trkpt lat="44.6773304231464862823486328125" lon="6.8196144886314868927001953125">
        <ele>2226.800048828125</ele>
        <time>2026-08-31T06:33:16.000Z</time>
        <extensions>
          <ns3:TrackPointExtension>
            <ns3:hr>136</ns3:hr>
            <ns3:cad>0</ns3:cad>
          </ns3:TrackPointExtension>
        </extensions>
      </trkpt>
      <trkpt lat="44.6773267351090908050537109375" lon="6.819631755352020263671875">
        <ele>2227</ele>
        <time>2026-08-31T06:33:17.000Z</time>
        <extensions>
          <ns3:TrackPointExtension>
            <ns3:hr>136</ns3:hr>
            <ns3:cad>0</ns3:cad>
          </ns3:TrackPointExtension>
        </extensions>
      </trkpt>
      <trkpt lat="44.67732380144298076629638671875" lon="6.81964089162647724151611328125">
        <ele>2227.199951171875</ele>
        <time>2026-08-31T06:33:18.000Z</time>
        <extensions>
          <ns3:TrackPointExtension>
            <ns3:hr>136</ns3:hr>
            <ns3:cad>0</ns3:cad>
          </ns3:TrackPointExtension>
        </extensions>
      </trkpt>
      <trkpt lat="44.67732313089072704315185546875" lon="6.81965514086186885833740234375">
        <ele>2227.39990234375</ele>
        <time>2026-08-31T06:33:19.000Z</time>
        <extensions>
          <ns3:TrackPointExtension>
            <ns3:hr>136</ns3:hr>
            <ns3:cad>0</ns3:cad>
          </ns3:TrackPointExtension>
        </extensions>
      </trkpt>
      <trkpt lat="44.67732078395783901214599609375" lon="6.8196553923189640045166015625">
        <ele>2227.60009765625</ele>
        <time>2026-08-31T06:33:20.000Z</time>
        <extensions>
          <ns3:TrackPointExtension>
            <ns3:hr>136</ns3:hr>
            <ns3:cad>0</ns3:cad>
          </ns3:TrackPointExtension>
        </extensions>
      </trkpt>
      <trkpt lat="44.677323214709758758544921875" lon="6.81966486386954784393310546875">
        <ele>2227.800048828125</ele>
        <time>2026-08-31T06:33:21.000Z</time>
        <extensions>
          <ns3:TrackPointExtension>
            <ns3:hr>137</ns3:hr>
            <ns3:cad>0</ns3:cad>
          </ns3:TrackPointExtension>
        </extensions>
      </trkpt>
      <trkpt lat="44.67732681892812252044677734375" lon="6.81967073120176792144775390625">
        <ele>2228</ele>
        <time>2026-08-31T06:33:22.000Z</time>
        <extensions>
          <ns3:TrackPointExtension>
            <ns3:hr>136</ns3:hr>
            <ns3:cad>0</ns3:cad>
          </ns3:TrackPointExtension>
        </extensions>
      </trkpt>
      <trkpt lat="44.677329249680042266845703125" lon="6.81967609561979770660400390625">
        <ele>2228</ele>
        <time>2026-08-31T06:33:23.000Z</time>
        <extensions>
          <ns3:TrackPointExtension>
            <ns3:hr>136</ns3:hr>
            <ns3:cad>0</ns3:cad>
          </ns3:TrackPointExtension>
        </extensions>
      </trkpt>
      <trkpt lat="44.67732958495616912841796875" lon="6.8196758441627025604248046875">
        <ele>2228.199951171875</ele>
        <time>2026-08-31T06:33:24.000Z</time>
        <extensions>
          <ns3:TrackPointExtension>
            <ns3:hr>136</ns3:hr>
            <ns3:cad>52</ns3:cad>
          </ns3:TrackPointExtension>
        </extensions>
      </trkpt>
      <trkpt lat="44.67733469791710376739501953125" lon="6.81967391632497310638427734375">
        <ele>2228.39990234375</ele>
        <time>2026-08-31T06:33:25.000Z</time>
        <extensions>
          <ns3:TrackPointExtension>
            <ns3:hr>135</ns3:hr>
            <ns3:cad>52</ns3:cad>
          </ns3:TrackPointExtension>
        </extensions>
      </trkpt>
      <trkpt lat="44.677341990172863006591796875" lon="6.8196708150207996368408203125">
        <ele>2228.60009765625</ele>
        <time>2026-08-31T06:33:26.000Z</time>
        <extensions>
          <ns3:TrackPointExtension>
            <ns3:hr>135</ns3:hr>
            <ns3:cad>52</ns3:cad>
          </ns3:TrackPointExtension>
        </extensions>
      </trkpt>
      <trkpt lat="44.67735062353312969207763671875" lon="6.81966721080243587493896484375">
        <ele>2228.800048828125</ele>
        <time>2026-08-31T06:33:27.000Z</time>
        <extensions>
          <ns3:TrackPointExtension>
            <ns3:hr>135</ns3:hr>
            <ns3:cad>52</ns3:cad>
          </ns3:TrackPointExtension>
        </extensions>
      </trkpt>
      <trkpt lat="44.67736101709306240081787109375" lon="6.81966193020343780517578125">
        <ele>2229</ele>
        <time>2026-08-31T06:33:28.000Z</time>
        <extensions>
          <ns3:TrackPointExtension>
            <ns3:hr>136</ns3:hr>
            <ns3:cad>52</ns3:cad>
          </ns3:TrackPointExtension>
        </extensions>
      </trkpt>
      <trkpt lat="44.67737074010074138641357421875" lon="6.81965765543282032012939453125">
        <ele>2229.39990234375</ele>
        <time>2026-08-31T06:33:29.000Z</time>
        <extensions>
          <ns3:TrackPointExtension>
            <ns3:hr>136</ns3:hr>
            <ns3:cad>0</ns3:cad>
          </ns3:TrackPointExtension>
        </extensions>
      </trkpt>
      <trkpt lat="44.6773771941661834716796875" lon="6.81965631432831287384033203125">
        <ele>2229.60009765625</ele>
        <time>2026-08-31T06:33:30.000Z</time>
        <extensions>
          <ns3:TrackPointExtension>
            <ns3:hr>137</ns3:hr>
            <ns3:cad>0</ns3:cad>
          </ns3:TrackPointExtension>
        </extensions>
      </trkpt>
      <trkpt lat="44.677386581897735595703125" lon="6.8196540512144565582275390625">
        <ele>2229.800048828125</ele>
        <time>2026-08-31T06:33:31.000Z</time>
        <extensions>
          <ns3:TrackPointExtension>
            <ns3:hr>137</ns3:hr>
            <ns3:cad>0</ns3:cad>
          </ns3:TrackPointExtension>
        </extensions>
      </trkpt>
      <trkpt lat="44.6773934550583362579345703125" lon="6.8196527101099491119384765625">
        <ele>2230</ele>
        <time>2026-08-31T06:33:32.000Z</time>
        <extensions>
          <ns3:TrackPointExtension>
            <ns3:hr>138</ns3:hr>
            <ns3:cad>0</ns3:cad>
          </ns3:TrackPointExtension>
        </extensions>
      </trkpt>
      <trkpt lat="44.67740342952311038970947265625" lon="6.81964726187288761138916015625">
        <ele>2230.199951171875</ele>
        <time>2026-08-31T06:33:33.000Z</time>
        <extensions>
          <ns3:TrackPointExtension>
            <ns3:hr>138</ns3:hr>
            <ns3:cad>0</ns3:cad>
          </ns3:TrackPointExtension>
        </extensions>
      </trkpt>
      <trkpt lat="44.6774125657975673675537109375" lon="6.81964055635035037994384765625">
        <ele>2230.199951171875</ele>
        <time>2026-08-31T06:33:34.000Z</time>
        <extensions>
          <ns3:TrackPointExtension>
            <ns3:hr>138</ns3:hr>
            <ns3:cad>0</ns3:cad>
          </ns3:TrackPointExtension>
        </extensions>
      </trkpt>
      <trkpt lat="44.67741868458688259124755859375" lon="6.81963318027555942535400390625">
        <ele>2230.39990234375</ele>
        <time>2026-08-31T06:33:35.000Z</time>
        <extensions>
          <ns3:TrackPointExtension>
            <ns3:hr>139</ns3:hr>
            <ns3:cad>0</ns3:cad>
          </ns3:TrackPointExtension>
        </extensions>
      </trkpt>
      <trkpt lat="44.6774289943277835845947265625" lon="6.81962999515235424041748046875">
        <ele>2230.60009765625</ele>
        <time>2026-08-31T06:33:36.000Z</time>
        <extensions>
          <ns3:TrackPointExtension>
            <ns3:hr>139</ns3:hr>
            <ns3:cad>0</ns3:cad>
          </ns3:TrackPointExtension>
        </extensions>
      </trkpt>
      <trkpt lat="44.67743553221225738525390625" lon="6.81962907314300537109375">
        <ele>2230.800048828125</ele>
        <time>2026-08-31T06:33:37.000Z</time>
        <extensions>
          <ns3:TrackPointExtension>
            <ns3:hr>140</ns3:hr>
            <ns3:cad>0</ns3:cad>
          </ns3:TrackPointExtension>
        </extensions>
      </trkpt>
      <trkpt lat="44.6774437464773654937744140625" lon="6.81963519193232059478759765625">
        <ele>2231</ele>
        <time>2026-08-31T06:33:38.000Z</time>
        <extensions>
          <ns3:TrackPointExtension>
            <ns3:hr>140</ns3:hr>
            <ns3:cad>0</ns3:cad>
          </ns3:TrackPointExtension>
        </extensions>
      </trkpt>
      <trkpt lat="44.67744718305766582489013671875" lon="6.8196359463036060333251953125">
        <ele>2231.199951171875</ele>
        <time>2026-08-31T06:33:39.000Z</time>
        <extensions>
          <ns3:TrackPointExtension>
            <ns3:hr>142</ns3:hr>
            <ns3:cad>0</ns3:cad>
          </ns3:TrackPointExtension>
        </extensions>
      </trkpt>
      <trkpt lat="44.6774511225521564483642578125" lon="6.819637455046176910400390625">
        <ele>2231.39990234375</ele>
        <time>2026-08-31T06:33:40.000Z</time>
        <extensions>
          <ns3:TrackPointExtension>
            <ns3:hr>148</ns3:hr>
            <ns3:cad>0</ns3:cad>
          </ns3:TrackPointExtension>
        </extensions>
      </trkpt>
      <trkpt lat="44.67745472677052021026611328125" lon="6.81963653303682804107666015625">
        <ele>2231.60009765625</ele>
        <time>2026-08-31T06:33:41.000Z</time>
        <extensions>
          <ns3:TrackPointExtension>
            <ns3:hr>152</ns3:hr>
            <ns3:cad>0</ns3:cad>
          </ns3:TrackPointExtension>
        </extensions>
      </trkpt>
      <trkpt lat="44.67746377922594547271728515625" lon="6.81963837705552577972412109375">
        <ele>2231.800048828125</ele>
        <time>2026-08-31T06:33:42.000Z</time>
        <extensions>
          <ns3:TrackPointExtension>
            <ns3:hr>155</ns3:hr>
            <ns3:cad>0</ns3:cad>
          </ns3:TrackPointExtension>
        </extensions>
      </trkpt>
      <trkpt lat="44.67747065238654613494873046875" lon="6.81964223273098468780517578125">
        <ele>2231.800048828125</ele>
        <time>2026-08-31T06:33:43.000Z</time>
        <extensions>
          <ns3:TrackPointExtension>
            <ns3:hr>157</ns3:hr>
            <ns3:cad>0</ns3:cad>
          </ns3:TrackPointExtension>
        </extensions>
      </trkpt>
      <trkpt lat="44.67748171649873256683349609375" lon="6.819646842777729034423828125">
        <ele>2232</ele>
        <time>2026-08-31T06:33:44.000Z</time>
        <extensions>
          <ns3:TrackPointExtension>
            <ns3:hr>160</ns3:hr>
            <ns3:cad>0</ns3:cad>
          </ns3:TrackPointExtension>
        </extensions>
      </trkpt>
      <trkpt lat="44.67749185860157012939453125" lon="6.8196527101099491119384765625">
        <ele>2232.199951171875</ele>
        <time>2026-08-31T06:33:45.000Z</time>
        <extensions>
          <ns3:TrackPointExtension>
            <ns3:hr>161</ns3:hr>
            <ns3:cad>0</ns3:cad>
          </ns3:TrackPointExtension>
        </extensions>
      </trkpt>
      <trkpt lat="44.67749948613345623016357421875" lon="6.8196543864905834197998046875">
        <ele>2232.39990234375</ele>
        <time>2026-08-31T06:33:46.000Z</time>
        <extensions>
          <ns3:TrackPointExtension>
            <ns3:hr>161</ns3:hr>
            <ns3:cad>0</ns3:cad>
          </ns3:TrackPointExtension>
        </extensions>
      </trkpt>
      <trkpt lat="44.6775101311504840850830078125" lon="6.81965614669024944305419921875">
        <ele>2232.60009765625</ele>
        <time>2026-08-31T06:33:47.000Z</time>
        <extensions>
          <ns3:TrackPointExtension>
            <ns3:hr>161</ns3:hr>
            <ns3:cad>0</ns3:cad>
          </ns3:TrackPointExtension>
        </extensions>
      </trkpt>
      <trkpt lat="44.6775205247104167938232421875" lon="6.81966084055602550506591796875">
        <ele>2233</ele>
        <time>2026-08-31T06:33:48.000Z</time>
        <extensions>
          <ns3:TrackPointExtension>
            <ns3:hr>161</ns3:hr>
            <ns3:cad>0</ns3:cad>
          </ns3:TrackPointExtension>
        </extensions>
      </trkpt>
      <trkpt lat="44.6775279007852077484130859375" lon="6.81967190466821193695068359375">
        <ele>2233.199951171875</ele>
        <time>2026-08-31T06:33:49.000Z</time>
        <extensions>
          <ns3:TrackPointExtension>
            <ns3:hr>162</ns3:hr>
            <ns3:cad>0</ns3:cad>
          </ns3:TrackPointExtension>
        </extensions>
      </trkpt>
      <trkpt lat="44.6775300800800323486328125" lon="6.81969135068356990814208984375">
        <ele>2233.39990234375</ele>
        <time>2026-08-31T06:33:50.000Z</time>
        <extensions>
          <ns3:TrackPointExtension>
            <ns3:hr>161</ns3:hr>
            <ns3:cad>0</ns3:cad>
          </ns3:TrackPointExtension>
        </extensions>
      </trkpt>
      <trkpt lat="44.67752513475716114044189453125" lon="6.81970543228089809417724609375">
        <ele>2233.60009765625</ele>
        <time>2026-08-31T06:33:51.000Z</time>
        <extensions>
          <ns3:TrackPointExtension>
            <ns3:hr>161</ns3:hr>
            <ns3:cad>0</ns3:cad>
          </ns3:TrackPointExtension>
        </extensions>
      </trkpt>
      <trkpt lat="44.6775171719491481781005859375" lon="6.81971565820276737213134765625">
        <ele>2234</ele>
        <time>2026-08-31T06:33:52.000Z</time>
        <extensions>
          <ns3:TrackPointExtension>
            <ns3:hr>160</ns3:hr>
            <ns3:cad>0</ns3:cad>
          </ns3:TrackPointExtension>
        </extensions>
      </trkpt>
      <trkpt lat="44.6775121428072452545166015625" lon="6.81971582584083080291748046875">
        <ele>2234.199951171875</ele>
        <time>2026-08-31T06:33:53.000Z</time>
        <extensions>
          <ns3:TrackPointExtension>
            <ns3:hr>159</ns3:hr>
            <ns3:cad>0</ns3:cad>
          </ns3:TrackPointExtension>
        </extensions>
      </trkpt>
      <trkpt lat="44.6775044314563274383544921875" lon="6.81971867568790912628173828125">
        <ele>2234.39990234375</ele>
        <time>2026-08-31T06:33:54.000Z</time>
        <extensions>
          <ns3:TrackPointExtension>
            <ns3:hr>159</ns3:hr>
            <ns3:cad>52</ns3:cad>
          </ns3:TrackPointExtension>
        </extensions>
      </trkpt>
      <trkpt lat="44.6775027550756931304931640625" lon="6.8197224475443363189697265625">
        <ele>2234.800048828125</ele>
        <time>2026-08-31T06:33:55.000Z</time>
        <extensions>
          <ns3:TrackPointExtension>
            <ns3:hr>159</ns3:hr>
            <ns3:cad>52</ns3:cad>
          </ns3:TrackPointExtension>
        </extensions>
      </trkpt>
      <trkpt lat="44.67749454081058502197265625" lon="6.81972973980009555816650390625">
        <ele>2235</ele>
        <time>2026-08-31T06:33:56.000Z</time>
        <extensions>
          <ns3:TrackPointExtension>
            <ns3:hr>159</ns3:hr>
            <ns3:cad>52</ns3:cad>
          </ns3:TrackPointExtension>
        </extensions>
      </trkpt>
      <trkpt lat="44.6774856559932231903076171875" lon="6.819741725921630859375">
        <ele>2235.199951171875</ele>
        <time>2026-08-31T06:33:57.000Z</time>
        <extensions>
          <ns3:TrackPointExtension>
            <ns3:hr>159</ns3:hr>
            <ns3:cad>52</ns3:cad>
          </ns3:TrackPointExtension>
        </extensions>
      </trkpt>
      <trkpt lat="44.67747710645198822021484375" lon="6.81975672952830791473388671875">
        <ele>2235.39990234375</ele>
        <time>2026-08-31T06:33:58.000Z</time>
        <extensions>
          <ns3:TrackPointExtension>
            <ns3:hr>160</ns3:hr>
            <ns3:cad>52</ns3:cad>
          </ns3:TrackPointExtension>
        </extensions>
      </trkpt>
      <trkpt lat="44.6774725802242755889892578125" lon="6.8197693862020969390869140625">
        <ele>2235.39990234375</ele>
        <time>2026-08-31T06:33:59.000Z</time>
        <extensions>
          <ns3:TrackPointExtension>
            <ns3:hr>159</ns3:hr>
            <ns3:cad>52</ns3:cad>
          </ns3:TrackPointExtension>
        </extensions>
      </trkpt>
      <trkpt lat="44.67746964655816555023193359375" lon="6.81977533735334873199462890625">
        <ele>2235.60009765625</ele>
        <time>2026-08-31T06:34:00.000Z</time>
        <extensions>
          <ns3:TrackPointExtension>
            <ns3:hr>159</ns3:hr>
            <ns3:cad>52</ns3:cad>
          </ns3:TrackPointExtension>
        </extensions>
      </trkpt>
      <trkpt lat="44.6774678863584995269775390625" lon="6.81978858076035976409912109375">
        <ele>2235.60009765625</ele>
        <time>2026-08-31T06:34:01.000Z</time>
        <extensions>
          <ns3:TrackPointExtension>
            <ns3:hr>158</ns3:hr>
            <ns3:cad>52</ns3:cad>
          </ns3:TrackPointExtension>
        </extensions>
      </trkpt>
      <trkpt lat="44.6774672158062458038330078125" lon="6.81979545392096042633056640625">
        <ele>2235.800048828125</ele>
        <time>2026-08-31T06:34:02.000Z</time>
        <extensions>
          <ns3:TrackPointExtension>
            <ns3:hr>158</ns3:hr>
            <ns3:cad>0</ns3:cad>
          </ns3:TrackPointExtension>
        </extensions>
      </trkpt>
      <trkpt lat="44.6774657070636749267578125" lon="6.81980785913765430450439453125">
        <ele>2236</ele>
        <time>2026-08-31T06:34:03.000Z</time>
        <extensions>
          <ns3:TrackPointExtension>
            <ns3:hr>158</ns3:hr>
            <ns3:cad>0</ns3:cad>
          </ns3:TrackPointExtension>
        </extensions>
      </trkpt>
      <trkpt lat="44.67746444977819919586181640625" lon="6.8198213540017604827880859375">
        <ele>2236.199951171875</ele>
        <time>2026-08-31T06:34:04.000Z</time>
        <extensions>
          <ns3:TrackPointExtension>
            <ns3:hr>157</ns3:hr>
            <ns3:cad>0</ns3:cad>
          </ns3:TrackPointExtension>
        </extensions>
      </trkpt>
      <trkpt lat="44.67746394686400890350341796875" lon="6.8198288977146148681640625">
        <ele>2236.199951171875</ele>
        <time>2026-08-31T06:34:05.000Z</time>
        <extensions>
          <ns3:TrackPointExtension>
            <ns3:hr>157</ns3:hr>
            <ns3:cad>0</ns3:cad>
          </ns3:TrackPointExtension>
        </extensions>
      </trkpt>
      <trkpt lat="44.6774645335972309112548828125" lon="6.81984289549291133880615234375">
        <ele>2236.39990234375</ele>
        <time>2026-08-31T06:34:06.000Z</time>
        <extensions>
          <ns3:TrackPointExtension>
            <ns3:hr>157</ns3:hr>
            <ns3:cad>0</ns3:cad>
          </ns3:TrackPointExtension>
        </extensions>
      </trkpt>
      <trkpt lat="44.677467048168182373046875" lon="6.81985504925251007080078125">
        <ele>2236.60009765625</ele>
        <time>2026-08-31T06:34:07.000Z</time>
        <extensions>
          <ns3:TrackPointExtension>
            <ns3:hr>157</ns3:hr>
            <ns3:cad>0</ns3:cad>
          </ns3:TrackPointExtension>
        </extensions>
      </trkpt>
      <trkpt lat="44.67747383750975131988525390625" lon="6.81985815055668354034423828125">
        <ele>2236.800048828125</ele>
        <time>2026-08-31T06:34:08.000Z</time>
        <extensions>
          <ns3:TrackPointExtension>
            <ns3:hr>157</ns3:hr>
            <ns3:cad>0</ns3:cad>
          </ns3:TrackPointExtension>
        </extensions>
      </trkpt>
      <trkpt lat="44.6774779446423053741455078125" lon="6.8198610842227935791015625">
        <ele>2237</ele>
        <time>2026-08-31T06:34:09.000Z</time>
        <extensions>
          <ns3:TrackPointExtension>
            <ns3:hr>157</ns3:hr>
            <ns3:cad>0</ns3:cad>
          </ns3:TrackPointExtension>
        </extensions>
      </trkpt>
      <trkpt lat="44.67748473398387432098388671875" lon="6.819859407842159271240234375">
        <ele>2237.199951171875</ele>
        <time>2026-08-31T06:34:10.000Z</time>
        <extensions>
          <ns3:TrackPointExtension>
            <ns3:hr>157</ns3:hr>
            <ns3:cad>0</ns3:cad>
          </ns3:TrackPointExtension>
        </extensions>
      </trkpt>
      <trkpt lat="44.67749495990574359893798828125" lon="6.81985328905284404754638671875">
        <ele>2237.39990234375</ele>
        <time>2026-08-31T06:34:11.000Z</time>
        <extensions>
          <ns3:TrackPointExtension>
            <ns3:hr>157</ns3:hr>
            <ns3:cad>0</ns3:cad>
          </ns3:TrackPointExtension>
        </extensions>
      </trkpt>
      <trkpt lat="44.677504934370517730712890625" lon="6.81985094211995601654052734375">
        <ele>2237.60009765625</ele>
        <time>2026-08-31T06:34:12.000Z</time>
        <extensions>
          <ns3:TrackPointExtension>
            <ns3:hr>157</ns3:hr>
            <ns3:cad>0</ns3:cad>
          </ns3:TrackPointExtension>
        </extensions>
      </trkpt>
      <trkpt lat="44.67751021496951580047607421875" lon="6.8198438175022602081298828125">
        <ele>2237.800048828125</ele>
        <time>2026-08-31T06:34:13.000Z</time>
        <extensions>
          <ns3:TrackPointExtension>
            <ns3:hr>157</ns3:hr>
            <ns3:cad>0</ns3:cad>
          </ns3:TrackPointExtension>
        </extensions>
      </trkpt>
      <trkpt lat="44.67751943506300449371337890625" lon="6.81983359158039093017578125">
        <ele>2237.800048828125</ele>
        <time>2026-08-31T06:34:14.000Z</time>
        <extensions>
          <ns3:TrackPointExtension>
            <ns3:hr>158</ns3:hr>
            <ns3:cad>0</ns3:cad>
          </ns3:TrackPointExtension>
        </extensions>
      </trkpt>
      <trkpt lat="44.6775273978710174560546875" lon="6.81982688605785369873046875">
        <ele>2238</ele>
        <time>2026-08-31T06:34:15.000Z</time>
        <extensions>
          <ns3:TrackPointExtension>
            <ns3:hr>158</ns3:hr>
            <ns3:cad>0</ns3:cad>
          </ns3:TrackPointExtension>
        </extensions>
      </trkpt>
      <trkpt lat="44.677541144192218780517578125" lon="6.81981624104082584381103515625">
        <ele>2238.199951171875</ele>
        <time>2026-08-31T06:34:16.000Z</time>
        <extensions>
          <ns3:TrackPointExtension>
            <ns3:hr>158</ns3:hr>
            <ns3:cad>0</ns3:cad>
          </ns3:TrackPointExtension>
        </extensions>
      </trkpt>
      <trkpt lat="44.67755279503762722015380859375" lon="6.8198101222515106201171875">
        <ele>2238.39990234375</ele>
        <time>2026-08-31T06:34:17.000Z</time>
        <extensions>
          <ns3:TrackPointExtension>
            <ns3:hr>158</ns3:hr>
            <ns3:cad>0</ns3:cad>
          </ns3:TrackPointExtension>
        </extensions>
      </trkpt>
      <trkpt lat="44.67756352387368679046630859375" lon="6.81982177309691905975341796875">
        <ele>2238.60009765625</ele>
        <time>2026-08-31T06:34:18.000Z</time>
        <extensions>
          <ns3:TrackPointExtension>
            <ns3:hr>159</ns3:hr>
            <ns3:cad>0</ns3:cad>
          </ns3:TrackPointExtension>
        </extensions>
      </trkpt>
      <trkpt lat="44.6775677986443042755126953125" lon="6.81983702816069126129150390625">
        <ele>2238.800048828125</ele>
        <time>2026-08-31T06:34:19.000Z</time>
        <extensions>
          <ns3:TrackPointExtension>
            <ns3:hr>158</ns3:hr>
            <ns3:cad>0</ns3:cad>
          </ns3:TrackPointExtension>
        </extensions>
      </trkpt>
      <trkpt lat="44.67756788246333599090576171875" lon="6.81985664181411266326904296875">
        <ele>2239</ele>
        <time>2026-08-31T06:34:20.000Z</time>
        <extensions>
          <ns3:TrackPointExtension>
            <ns3:hr>159</ns3:hr>
            <ns3:cad>0</ns3:cad>
          </ns3:TrackPointExtension>
        </extensions>
      </trkpt>
      <trkpt lat="44.6775604225695133209228515625" lon="6.81986569426953792572021484375">
        <ele>2239.199951171875</ele>
        <time>2026-08-31T06:34:21.000Z</time>
        <extensions>
          <ns3:TrackPointExtension>
            <ns3:hr>159</ns3:hr>
            <ns3:cad>0</ns3:cad>
          </ns3:TrackPointExtension>
        </extensions>
      </trkpt>
      <trkpt lat="44.67755296267569065093994140625" lon="6.8198773451149463653564453125">
        <ele>2239.39990234375</ele>
        <time>2026-08-31T06:34:22.000Z</time>
        <extensions>
          <ns3:TrackPointExtension>
            <ns3:hr>159</ns3:hr>
            <ns3:cad>0</ns3:cad>
          </ns3:TrackPointExtension>
        </extensions>
      </trkpt>
      <trkpt lat="44.67754877172410488128662109375" lon="6.8198860622942447662353515625">
        <ele>2239.60009765625</ele>
        <time>2026-08-31T06:34:23.000Z</time>
        <extensions>
          <ns3:TrackPointExtension>
            <ns3:hr>158</ns3:hr>
            <ns3:cad>0</ns3:cad>
          </ns3:TrackPointExtension>
        </extensions>
      </trkpt>
      <trkpt lat="44.67754206620156764984130859375" lon="6.81990198791027069091796875">
        <ele>2239.800048828125</ele>
        <time>2026-08-31T06:34:24.000Z</time>
        <extensions>
          <ns3:TrackPointExtension>
            <ns3:hr>159</ns3:hr>
            <ns3:cad>0</ns3:cad>
          </ns3:TrackPointExtension>
        </extensions>
      </trkpt>
      <trkpt lat="44.67754013836383819580078125" lon="6.8199088610708713531494140625">
        <ele>2240</ele>
        <time>2026-08-31T06:34:25.000Z</time>
        <extensions>
          <ns3:TrackPointExtension>
            <ns3:hr>159</ns3:hr>
            <ns3:cad>0</ns3:cad>
          </ns3:TrackPointExtension>
        </extensions>
      </trkpt>
      <trkpt lat="44.677536450326442718505859375" lon="6.81992218829691410064697265625">
        <ele>2240.199951171875</ele>
        <time>2026-08-31T06:34:26.000Z</time>
        <extensions>
          <ns3:TrackPointExtension>
            <ns3:hr>158</ns3:hr>
            <ns3:cad>0</ns3:cad>
          </ns3:TrackPointExtension>
        </extensions>
      </trkpt>
      <trkpt lat="44.67753485776484012603759765625" lon="6.8199326656758785247802734375">
        <ele>2240.199951171875</ele>
        <time>2026-08-31T06:34:27.000Z</time>
        <extensions>
          <ns3:TrackPointExtension>
            <ns3:hr>159</ns3:hr>
            <ns3:cad>0</ns3:cad>
          </ns3:TrackPointExtension>
        </extensions>
      </trkpt>
      <trkpt lat="44.67753343284130096435546875" lon="6.8199469149112701416015625">
        <ele>2240.39990234375</ele>
        <time>2026-08-31T06:34:28.000Z</time>
        <extensions>
          <ns3:TrackPointExtension>
            <ns3:hr>159</ns3:hr>
            <ns3:cad>0</ns3:cad>
          </ns3:TrackPointExtension>
        </extensions>
      </trkpt>
      <trkpt lat="44.67753267847001552581787109375" lon="6.8199630081653594970703125">
        <ele>2240.39990234375</ele>
        <time>2026-08-31T06:34:29.000Z</time>
        <extensions>
          <ns3:TrackPointExtension>
            <ns3:hr>159</ns3:hr>
            <ns3:cad>0</ns3:cad>
          </ns3:TrackPointExtension>
        </extensions>
      </trkpt>
      <trkpt lat="44.67752865515649318695068359375" lon="6.81998312473297119140625">
        <ele>2240.39990234375</ele>
        <time>2026-08-31T06:34:30.000Z</time>
        <extensions>
          <ns3:TrackPointExtension>
            <ns3:hr>158</ns3:hr>
            <ns3:cad>0</ns3:cad>
          </ns3:TrackPointExtension>
        </extensions>
      </trkpt>
      <trkpt lat="44.6775255538523197174072265625" lon="6.81999586522579193115234375">
        <ele>2240.60009765625</ele>
        <time>2026-08-31T06:34:31.000Z</time>
        <extensions>
          <ns3:TrackPointExtension>
            <ns3:hr>159</ns3:hr>
            <ns3:cad>0</ns3:cad>
          </ns3:TrackPointExtension>
        </extensions>
      </trkpt>
      <trkpt lat="44.677523709833621978759765625" lon="6.82001573033630847930908203125">
        <ele>2240.60009765625</ele>
        <time>2026-08-31T06:34:32.000Z</time>
        <extensions>
          <ns3:TrackPointExtension>
            <ns3:hr>159</ns3:hr>
            <ns3:cad>51</ns3:cad>
          </ns3:TrackPointExtension>
        </extensions>
      </trkpt>
      <trkpt lat="44.677521698176860809326171875" lon="6.82002763263881206512451171875">
        <ele>2240.60009765625</ele>
        <time>2026-08-31T06:34:33.000Z</time>
        <extensions>
          <ns3:TrackPointExtension>
            <ns3:hr>159</ns3:hr>
            <ns3:cad>51</ns3:cad>
          </ns3:TrackPointExtension>
        </extensions>
      </trkpt>
      <trkpt lat="44.67751876451075077056884765625" lon="6.82004255242645740509033203125">
        <ele>2240.60009765625</ele>
        <time>2026-08-31T06:34:34.000Z</time>
        <extensions>
          <ns3:TrackPointExtension>
            <ns3:hr>160</ns3:hr>
            <ns3:cad>51</ns3:cad>
          </ns3:TrackPointExtension>
        </extensions>
      </trkpt>
      <trkpt lat="44.67751574702560901641845703125" lon="6.8200568854808807373046875">
        <ele>2240.60009765625</ele>
        <time>2026-08-31T06:34:35.000Z</time>
        <extensions>
          <ns3:TrackPointExtension>
            <ns3:hr>160</ns3:hr>
            <ns3:cad>0</ns3:cad>
          </ns3:TrackPointExtension>
        </extensions>
      </trkpt>
      <trkpt lat="44.67751239426434040069580078125" lon="6.820073984563350677490234375">
        <ele>2240.800048828125</ele>
        <time>2026-08-31T06:34:36.000Z</time>
        <extensions>
          <ns3:TrackPointExtension>
            <ns3:hr>160</ns3:hr>
            <ns3:cad>0</ns3:cad>
          </ns3:TrackPointExtension>
        </extensions>
      </trkpt>
      <trkpt lat="44.67750820331275463104248046875" lon="6.82008731178939342498779296875">
        <ele>2241</ele>
        <time>2026-08-31T06:34:37.000Z</time>
        <extensions>
          <ns3:TrackPointExtension>
            <ns3:hr>159</ns3:hr>
            <ns3:cad>0</ns3:cad>
          </ns3:TrackPointExtension>
        </extensions>
      </trkpt>
      <trkpt lat="44.6775020845234394073486328125" lon="6.8201070092618465423583984375">
        <ele>2241.199951171875</ele>
        <time>2026-08-31T06:34:38.000Z</time>
        <extensions>
          <ns3:TrackPointExtension>
            <ns3:hr>159</ns3:hr>
            <ns3:cad>0</ns3:cad>
          </ns3:TrackPointExtension>
        </extensions>
      </trkpt>
      <trkpt lat="44.67749378643929958343505859375" lon="6.82012821547687053680419921875">
        <ele>2241.199951171875</ele>
        <time>2026-08-31T06:34:39.000Z</time>
        <extensions>
          <ns3:TrackPointExtension>
            <ns3:hr>157</ns3:hr>
            <ns3:cad>0</ns3:cad>
          </ns3:TrackPointExtension>
        </extensions>
      </trkpt>
      <trkpt lat="44.677489511668682098388671875" lon="6.8201453983783721923828125">
        <ele>2241.39990234375</ele>
        <time>2026-08-31T06:34:40.000Z</time>
        <extensions>
          <ns3:TrackPointExtension>
            <ns3:hr>155</ns3:hr>
            <ns3:cad>0</ns3:cad>
          </ns3:TrackPointExtension>
        </extensions>
      </trkpt>
      <trkpt lat="44.67748783528804779052734375" lon="6.820160485804080963134765625">
        <ele>2241.39990234375</ele>
        <time>2026-08-31T06:34:41.000Z</time>
        <extensions>
          <ns3:TrackPointExtension>
            <ns3:hr>153</ns3:hr>
            <ns3:cad>0</ns3:cad>
          </ns3:TrackPointExtension>
        </extensions>
      </trkpt>
      <trkpt lat="44.67749076895415782928466796875" lon="6.82016886770725250244140625">
        <ele>2241.39990234375</ele>
        <time>2026-08-31T06:34:42.000Z</time>
        <extensions>
          <ns3:TrackPointExtension>
            <ns3:hr>151</ns3:hr>
            <ns3:cad>0</ns3:cad>
          </ns3:TrackPointExtension>
        </extensions>
      </trkpt>
      <trkpt lat="44.6774978935718536376953125" lon="6.820173561573028564453125">
        <ele>2241.60009765625</ele>
        <time>2026-08-31T06:34:43.000Z</time>
        <extensions>
          <ns3:TrackPointExtension>
            <ns3:hr>149</ns3:hr>
            <ns3:cad>0</ns3:cad>
          </ns3:TrackPointExtension>
        </extensions>
      </trkpt>
      <trkpt lat="44.67751624993979930877685546875" lon="6.82016610167920589447021484375">
        <ele>2241.60009765625</ele>
        <time>2026-08-31T06:34:44.000Z</time>
        <extensions>
          <ns3:TrackPointExtension>
            <ns3:hr>148</ns3:hr>
            <ns3:cad>0</ns3:cad>
          </ns3:TrackPointExtension>
        </extensions>
      </trkpt>
      <trkpt lat="44.67752295546233654022216796875" lon="6.82016224600374698638916015625">
        <ele>2241.800048828125</ele>
        <time>2026-08-31T06:34:45.000Z</time>
        <extensions>
          <ns3:TrackPointExtension>
            <ns3:hr>148</ns3:hr>
            <ns3:cad>53</ns3:cad>
          </ns3:TrackPointExtension>
        </extensions>
      </trkpt>
      <trkpt lat="44.67752781696617603302001953125" lon="6.82015704922378063201904296875">
        <ele>2242</ele>
        <time>2026-08-31T06:34:46.000Z</time>
        <extensions>
          <ns3:TrackPointExtension>
            <ns3:hr>148</ns3:hr>
            <ns3:cad>53</ns3:cad>
          </ns3:TrackPointExtension>
        </extensions>
      </trkpt>
      <trkpt lat="44.677535779774188995361328125" lon="6.8201519362628459930419921875">
        <ele>2242.199951171875</ele>
        <time>2026-08-31T06:34:47.000Z</time>
        <extensions>
          <ns3:TrackPointExtension>
            <ns3:hr>147</ns3:hr>
            <ns3:cad>53</ns3:cad>
          </ns3:TrackPointExtension>
        </extensions>
      </trkpt>
      <trkpt lat="44.6775434911251068115234375" lon="6.82014581747353076934814453125">
        <ele>2242.39990234375</ele>
        <time>2026-08-31T06:34:48.000Z</time>
        <extensions>
          <ns3:TrackPointExtension>
            <ns3:hr>147</ns3:hr>
            <ns3:cad>53</ns3:cad>
          </ns3:TrackPointExtension>
        </extensions>
      </trkpt>
      <trkpt lat="44.67755061574280261993408203125" lon="6.8201386928558349609375">
        <ele>2242.60009765625</ele>
        <time>2026-08-31T06:34:49.000Z</time>
        <extensions>
          <ns3:TrackPointExtension>
            <ns3:hr>147</ns3:hr>
            <ns3:cad>53</ns3:cad>
          </ns3:TrackPointExtension>
        </extensions>
      </trkpt>
      <trkpt lat="44.67755757272243499755859375" lon="6.82013089768588542938232421875">
        <ele>2243</ele>
        <time>2026-08-31T06:34:50.000Z</time>
        <extensions>
          <ns3:TrackPointExtension>
            <ns3:hr>147</ns3:hr>
            <ns3:cad>0</ns3:cad>
          </ns3:TrackPointExtension>
        </extensions>
      </trkpt>
      <trkpt lat="44.67756268568336963653564453125" lon="6.82012419216334819793701171875">
        <ele>2243.199951171875</ele>
        <time>2026-08-31T06:34:51.000Z</time>
        <extensions>
          <ns3:TrackPointExtension>
            <ns3:hr>146</ns3:hr>
            <ns3:cad>0</ns3:cad>
          </ns3:TrackPointExtension>
        </extensions>
      </trkpt>
      <trkpt lat="44.677569977939128875732421875" lon="6.8201120384037494659423828125">
        <ele>2243.199951171875</ele>
        <time>2026-08-31T06:34:52.000Z</time>
        <extensions>
          <ns3:TrackPointExtension>
            <ns3:hr>146</ns3:hr>
            <ns3:cad>0</ns3:cad>
          </ns3:TrackPointExtension>
        </extensions>
      </trkpt>
      <trkpt lat="44.67757240869104862213134765625" lon="6.82010876946151256561279296875">
        <ele>2243.39990234375</ele>
        <time>2026-08-31T06:34:53.000Z</time>
        <extensions>
          <ns3:TrackPointExtension>
            <ns3:hr>146</ns3:hr>
            <ns3:cad>0</ns3:cad>
          </ns3:TrackPointExtension>
        </extensions>
      </trkpt>
      <trkpt lat="44.6775785274803638458251953125" lon="6.820098124444484710693359375">
        <ele>2243.60009765625</ele>
        <time>2026-08-31T06:34:54.000Z</time>
        <extensions>
          <ns3:TrackPointExtension>
            <ns3:hr>145</ns3:hr>
            <ns3:cad>0</ns3:cad>
          </ns3:TrackPointExtension>
        </extensions>
      </trkpt>
      <trkpt lat="44.67758330516517162322998046875" lon="6.82008731178939342498779296875">
        <ele>2243.800048828125</ele>
        <time>2026-08-31T06:34:55.000Z</time>
        <extensions>
          <ns3:TrackPointExtension>
            <ns3:hr>145</ns3:hr>
            <ns3:cad>0</ns3:cad>
          </ns3:TrackPointExtension>
        </extensions>
      </trkpt>
      <trkpt lat="44.67758900485932826995849609375" lon="6.82007507421076297760009765625">
        <ele>2243.800048828125</ele>
        <time>2026-08-31T06:34:56.000Z</time>
        <extensions>
          <ns3:TrackPointExtension>
            <ns3:hr>145</ns3:hr>
            <ns3:cad>0</ns3:cad>
          </ns3:TrackPointExtension>
        </extensions>
      </trkpt>
      <trkpt lat="44.67759403400123119354248046875" lon="6.8200594000518321990966796875">
        <ele>2244</ele>
        <time>2026-08-31T06:34:57.000Z</time>
        <extensions>
          <ns3:TrackPointExtension>
            <ns3:hr>145</ns3:hr>
            <ns3:cad>0</ns3:cad>
          </ns3:TrackPointExtension>
        </extensions>
      </trkpt>
      <trkpt lat="44.67760048806667327880859375" lon="6.8200429715216159820556640625">
        <ele>2244.199951171875</ele>
        <time>2026-08-31T06:34:58.000Z</time>
        <extensions>
          <ns3:TrackPointExtension>
            <ns3:hr>145</ns3:hr>
            <ns3:cad>0</ns3:cad>
          </ns3:TrackPointExtension>
        </extensions>
      </trkpt>
      <trkpt lat="44.6776147373020648956298828125" lon="6.8200355954468250274658203125">
        <ele>2244.39990234375</ele>
        <time>2026-08-31T06:34:59.000Z</time>
        <extensions>
          <ns3:TrackPointExtension>
            <ns3:hr>145</ns3:hr>
            <ns3:cad>0</ns3:cad>
          </ns3:TrackPointExtension>
        </extensions>
      </trkpt>
      <trkpt lat="44.67762571759521961212158203125" lon="6.82003450579941272735595703125">
        <ele>2244.60009765625</ele>
        <time>2026-08-31T06:35:00.000Z</time>
        <extensions>
          <ns3:TrackPointExtension>
            <ns3:hr>145</ns3:hr>
            <ns3:cad>0</ns3:cad>
          </ns3:TrackPointExtension>
        </extensions>
      </trkpt>
      <trkpt lat="44.6776311658322811126708984375" lon="6.8200469948351383209228515625">
        <ele>2244.60009765625</ele>
        <time>2026-08-31T06:35:01.000Z</time>
        <extensions>
          <ns3:TrackPointExtension>
            <ns3:hr>145</ns3:hr>
            <ns3:cad>0</ns3:cad>
          </ns3:TrackPointExtension>
        </extensions>
      </trkpt>
      <trkpt lat="44.677633345127105712890625" lon="6.8200550414621829986572265625">
        <ele>2244.800048828125</ele>
        <time>2026-08-31T06:35:02.000Z</time>
        <extensions>
          <ns3:TrackPointExtension>
            <ns3:hr>146</ns3:hr>
            <ns3:cad>0</ns3:cad>
          </ns3:TrackPointExtension>
        </extensions>
      </trkpt>
      <trkpt lat="44.6776361949741840362548828125" lon="6.8200691230595111846923828125">
        <ele>2245</ele>
        <time>2026-08-31T06:35:03.000Z</time>
        <extensions>
          <ns3:TrackPointExtension>
            <ns3:hr>145</ns3:hr>
            <ns3:cad>0</ns3:cad>
          </ns3:TrackPointExtension>
        </extensions>
      </trkpt>
      <trkpt lat="44.67763862572610378265380859375" lon="6.82008395902812480926513671875">
        <ele>2245.199951171875</ele>
        <time>2026-08-31T06:35:04.000Z</time>
        <extensions>
          <ns3:TrackPointExtension>
            <ns3:hr>145</ns3:hr>
            <ns3:cad>0</ns3:cad>
          </ns3:TrackPointExtension>
        </extensions>
      </trkpt>
      <trkpt lat="44.677638374269008636474609375" lon="6.82010105811059474945068359375">
        <ele>2245.39990234375</ele>
        <time>2026-08-31T06:35:05.000Z</time>
        <extensions>
          <ns3:TrackPointExtension>
            <ns3:hr>145</ns3:hr>
            <ns3:cad>0</ns3:cad>
          </ns3:TrackPointExtension>
        </extensions>
      </trkpt>
      <trkpt lat="44.67763862572610378265380859375" lon="6.82011530734598636627197265625">
        <ele>2245.60009765625</ele>
        <time>2026-08-31T06:35:06.000Z</time>
        <extensions>
          <ns3:TrackPointExtension>
            <ns3:hr>145</ns3:hr>
            <ns3:cad>0</ns3:cad>
          </ns3:TrackPointExtension>
        </extensions>
      </trkpt>
      <trkpt lat="44.67763694934546947479248046875" lon="6.8201231025159358978271484375">
        <ele>2245.800048828125</ele>
        <time>2026-08-31T06:35:07.000Z</time>
        <extensions>
          <ns3:TrackPointExtension>
            <ns3:hr>145</ns3:hr>
            <ns3:cad>0</ns3:cad>
          </ns3:TrackPointExtension>
        </extensions>
      </trkpt>
      <trkpt lat="44.6776365302503108978271484375" lon="6.82013676501810550689697265625">
        <ele>2246</ele>
        <time>2026-08-31T06:35:08.000Z</time>
        <extensions>
          <ns3:TrackPointExtension>
            <ns3:hr>145</ns3:hr>
            <ns3:cad>0</ns3:cad>
          </ns3:TrackPointExtension>
        </extensions>
      </trkpt>
      <trkpt lat="44.677635021507740020751953125" lon="6.820146404206752777099609375">
        <ele>2246.199951171875</ele>
        <time>2026-08-31T06:35:09.000Z</time>
        <extensions>
          <ns3:TrackPointExtension>
            <ns3:hr>145</ns3:hr>
            <ns3:cad>0</ns3:cad>
          </ns3:TrackPointExtension>
        </extensions>
      </trkpt>
      <trkpt lat="44.67763141728937625885009765625" lon="6.82016082108020782470703125">
        <ele>2246.199951171875</ele>
        <time>2026-08-31T06:35:10.000Z</time>
        <extensions>
          <ns3:TrackPointExtension>
            <ns3:hr>146</ns3:hr>
            <ns3:cad>0</ns3:cad>
          </ns3:TrackPointExtension>
        </extensions>
      </trkpt>
      <trkpt lat="44.67762974090874195098876953125" lon="6.82016978971660137176513671875">
        <ele>2246.39990234375</ele>
        <time>2026-08-31T06:35:11.000Z</time>
        <extensions>
          <ns3:TrackPointExtension>
            <ns3:hr>146</ns3:hr>
            <ns3:cad>0</ns3:cad>
          </ns3:TrackPointExtension>
        </extensions>
      </trkpt>
      <trkpt lat="44.67762823216617107391357421875" lon="6.82019040919840335845947265625">
        <ele>2246.60009765625</ele>
        <time>2026-08-31T06:35:12.000Z</time>
        <extensions>
          <ns3:TrackPointExtension>
            <ns3:hr>146</ns3:hr>
            <ns3:cad>0</ns3:cad>
          </ns3:TrackPointExtension>
        </extensions>
      </trkpt>
      <trkpt lat="44.6776234544813632965087890625" lon="6.82020281441509723663330078125">
        <ele>2246.800048828125</ele>
        <time>2026-08-31T06:35:13.000Z</time>
        <extensions>
          <ns3:TrackPointExtension>
            <ns3:hr>147</ns3:hr>
            <ns3:cad>0</ns3:cad>
          </ns3:TrackPointExtension>
        </extensions>
      </trkpt>
      <trkpt lat="44.6776177547872066497802734375" lon="6.82020868174731731414794921875">
        <ele>2247.199951171875</ele>
        <time>2026-08-31T06:35:14.000Z</time>
        <extensions>
          <ns3:TrackPointExtension>
            <ns3:hr>147</ns3:hr>
            <ns3:cad>0</ns3:cad>
          </ns3:TrackPointExtension>
        </extensions>
      </trkpt>
      <trkpt lat="44.67761197127401828765869140625" lon="6.82022075168788433074951171875">
        <ele>2247.39990234375</ele>
        <time>2026-08-31T06:35:15.000Z</time>
        <extensions>
          <ns3:TrackPointExtension>
            <ns3:hr>147</ns3:hr>
            <ns3:cad>0</ns3:cad>
          </ns3:TrackPointExtension>
        </extensions>
      </trkpt>
      <trkpt lat="44.67761632986366748809814453125" lon="6.820222847163677215576171875">
        <ele>2247.60009765625</ele>
        <time>2026-08-31T06:35:16.000Z</time>
        <extensions>
          <ns3:TrackPointExtension>
            <ns3:hr>147</ns3:hr>
            <ns3:cad>0</ns3:cad>
          </ns3:TrackPointExtension>
        </extensions>
      </trkpt>
      <trkpt lat="44.6776120550930500030517578125" lon="6.82024304755032062530517578125">
        <ele>2247.60009765625</ele>
        <time>2026-08-31T06:35:17.000Z</time>
        <extensions>
          <ns3:TrackPointExtension>
            <ns3:hr>148</ns3:hr>
            <ns3:cad>0</ns3:cad>
          </ns3:TrackPointExtension>
        </extensions>
      </trkpt>
      <trkpt lat="44.677606523036956787109375" lon="6.8202595598995685577392578125">
        <ele>2247.800048828125</ele>
        <time>2026-08-31T06:35:18.000Z</time>
        <extensions>
          <ns3:TrackPointExtension>
            <ns3:hr>148</ns3:hr>
            <ns3:cad>0</ns3:cad>
          </ns3:TrackPointExtension>
        </extensions>
      </trkpt>
      <trkpt lat="44.67760124243795871734619140625" lon="6.8202674388885498046875">
        <ele>2248</ele>
        <time>2026-08-31T06:35:19.000Z</time>
        <extensions>
          <ns3:TrackPointExtension>
            <ns3:hr>148</ns3:hr>
            <ns3:cad>0</ns3:cad>
          </ns3:TrackPointExtension>
        </extensions>
      </trkpt>
      <trkpt lat="44.67759654857218265533447265625" lon="6.82027657516300678253173828125">
        <ele>2248.199951171875</ele>
        <time>2026-08-31T06:35:20.000Z</time>
        <extensions>
          <ns3:TrackPointExtension>
            <ns3:hr>148</ns3:hr>
            <ns3:cad>0</ns3:cad>
          </ns3:TrackPointExtension>
        </extensions>
      </trkpt>
      <trkpt lat="44.67759319581091403961181640625" lon="6.8202847056090831756591796875">
        <ele>2248.39990234375</ele>
        <time>2026-08-31T06:35:21.000Z</time>
        <extensions>
          <ns3:TrackPointExtension>
            <ns3:hr>149</ns3:hr>
            <ns3:cad>0</ns3:cad>
          </ns3:TrackPointExtension>
        </extensions>
      </trkpt>
      <trkpt lat="44.677588082849979400634765625" lon="6.820296943187713623046875">
        <ele>2248.800048828125</ele>
        <time>2026-08-31T06:35:22.000Z</time>
        <extensions>
          <ns3:TrackPointExtension>
            <ns3:hr>148</ns3:hr>
            <ns3:cad>0</ns3:cad>
          </ns3:TrackPointExtension>
        </extensions>
      </trkpt>
      <trkpt lat="44.67758565209805965423583984375" lon="6.8203007988631725311279296875">
        <ele>2249</ele>
        <time>2026-08-31T06:35:23.000Z</time>
        <extensions>
          <ns3:TrackPointExtension>
            <ns3:hr>149</ns3:hr>
            <ns3:cad>0</ns3:cad>
          </ns3:TrackPointExtension>
        </extensions>
      </trkpt>
      <trkpt lat="44.677579700946807861328125" lon="6.82031295262277126312255859375">
        <ele>2249.199951171875</ele>
        <time>2026-08-31T06:35:24.000Z</time>
        <extensions>
          <ns3:TrackPointExtension>
            <ns3:hr>149</ns3:hr>
            <ns3:cad>0</ns3:cad>
          </ns3:TrackPointExtension>
        </extensions>
      </trkpt>
      <trkpt lat="44.67758196406066417694091796875" lon="6.82031881995499134063720703125">
        <ele>2249.39990234375</ele>
        <time>2026-08-31T06:35:25.000Z</time>
        <extensions>
          <ns3:TrackPointExtension>
            <ns3:hr>150</ns3:hr>
            <ns3:cad>0</ns3:cad>
          </ns3:TrackPointExtension>
        </extensions>
      </trkpt>
      <trkpt lat="44.67758213169872760772705078125" lon="6.82031932286918163299560546875">
        <ele>2249.60009765625</ele>
        <time>2026-08-31T06:35:26.000Z</time>
        <extensions>
          <ns3:TrackPointExtension>
            <ns3:hr>150</ns3:hr>
            <ns3:cad>0</ns3:cad>
          </ns3:TrackPointExtension>
        </extensions>
      </trkpt>
      <trkpt lat="44.6775808744132518768310546875" lon="6.82033038698136806488037109375">
        <ele>2249.800048828125</ele>
        <time>2026-08-31T06:35:27.000Z</time>
        <extensions>
          <ns3:TrackPointExtension>
            <ns3:hr>151</ns3:hr>
            <ns3:cad>0</ns3:cad>
          </ns3:TrackPointExtension>
        </extensions>
      </trkpt>
      <trkpt lat="44.677578024566173553466796875" lon="6.8203519284725189208984375">
        <ele>2250</ele>
        <time>2026-08-31T06:35:28.000Z</time>
        <extensions>
          <ns3:TrackPointExtension>
            <ns3:hr>151</ns3:hr>
            <ns3:cad>0</ns3:cad>
          </ns3:TrackPointExtension>
        </extensions>
      </trkpt>
      <trkpt lat="44.67757358215749263763427734375" lon="6.8203584663569927215576171875">
        <ele>2250.199951171875</ele>
        <time>2026-08-31T06:35:29.000Z</time>
        <extensions>
          <ns3:TrackPointExtension>
            <ns3:hr>151</ns3:hr>
            <ns3:cad>0</ns3:cad>
          </ns3:TrackPointExtension>
        </extensions>
      </trkpt>
      <trkpt lat="44.6775654517114162445068359375" lon="6.820377744734287261962890625">
        <ele>2250.39990234375</ele>
        <time>2026-08-31T06:35:30.000Z</time>
        <extensions>
          <ns3:TrackPointExtension>
            <ns3:hr>152</ns3:hr>
            <ns3:cad>0</ns3:cad>
          </ns3:TrackPointExtension>
        </extensions>
      </trkpt>
      <trkpt lat="44.6775614283978939056396484375" lon="6.82039014995098114013671875">
        <ele>2250.60009765625</ele>
        <time>2026-08-31T06:35:31.000Z</time>
        <extensions>
          <ns3:TrackPointExtension>
            <ns3:hr>152</ns3:hr>
            <ns3:cad>0</ns3:cad>
          </ns3:TrackPointExtension>
        </extensions>
      </trkpt>
      <trkpt lat="44.677555896341800689697265625" lon="6.8203993700444698333740234375">
        <ele>2250.800048828125</ele>
        <time>2026-08-31T06:35:32.000Z</time>
        <extensions>
          <ns3:TrackPointExtension>
            <ns3:hr>153</ns3:hr>
            <ns3:cad>0</ns3:cad>
          </ns3:TrackPointExtension>
        </extensions>
      </trkpt>
      <trkpt lat="44.67755061574280261993408203125" lon="6.8204136192798614501953125">
        <ele>2251.199951171875</ele>
        <time>2026-08-31T06:35:33.000Z</time>
        <extensions>
          <ns3:TrackPointExtension>
            <ns3:hr>153</ns3:hr>
            <ns3:cad>0</ns3:cad>
          </ns3:TrackPointExtension>
        </extensions>
      </trkpt>
      <trkpt lat="44.67754818499088287353515625" lon="6.82041906751692295074462890625">
        <ele>2251.39990234375</ele>
        <time>2026-08-31T06:35:34.000Z</time>
        <extensions>
          <ns3:TrackPointExtension>
            <ns3:hr>153</ns3:hr>
            <ns3:cad>0</ns3:cad>
          </ns3:TrackPointExtension>
        </extensions>
      </trkpt>
      <trkpt lat="44.67754575423896312713623046875" lon="6.82042677886784076690673828125">
        <ele>2251.60009765625</ele>
        <time>2026-08-31T06:35:35.000Z</time>
        <extensions>
          <ns3:TrackPointExtension>
            <ns3:hr>152</ns3:hr>
            <ns3:cad>0</ns3:cad>
          </ns3:TrackPointExtension>
        </extensions>
      </trkpt>
      <trkpt lat="44.67754692770540714263916015625" lon="6.82042543776333332061767578125">
        <ele>2251.800048828125</ele>
        <time>2026-08-31T06:35:36.000Z</time>
        <extensions>
          <ns3:TrackPointExtension>
            <ns3:hr>152</ns3:hr>
            <ns3:cad>0</ns3:cad>
          </ns3:TrackPointExtension>
        </extensions>
      </trkpt>
      <trkpt lat="44.67754684388637542724609375" lon="6.82042543776333332061767578125">
        <ele>2252</ele>
        <time>2026-08-31T06:35:37.000Z</time>
        <extensions>
          <ns3:TrackPointExtension>
            <ns3:hr>152</ns3:hr>
            <ns3:cad>0</ns3:cad>
          </ns3:TrackPointExtension>
        </extensions>
      </trkpt>
      <trkpt lat="44.6775434911251068115234375" lon="6.8204352445900440216064453125">
        <ele>2252.199951171875</ele>
        <time>2026-08-31T06:35:38.000Z</time>
        <extensions>
          <ns3:TrackPointExtension>
            <ns3:hr>152</ns3:hr>
            <ns3:cad>0</ns3:cad>
          </ns3:TrackPointExtension>
        </extensions>
      </trkpt>
      <trkpt lat="44.67754106037318706512451171875" lon="6.82044035755097866058349609375">
        <ele>2252.39990234375</ele>
        <time>2026-08-31T06:35:39.000Z</time>
        <extensions>
          <ns3:TrackPointExtension>
            <ns3:hr>152</ns3:hr>
            <ns3:cad>0</ns3:cad>
          </ns3:TrackPointExtension>
        </extensions>
      </trkpt>
      <trkpt lat="44.67753586359322071075439453125" lon="6.82045225985348224639892578125">
        <ele>2252.800048828125</ele>
        <time>2026-08-31T06:35:40.000Z</time>
        <extensions>
          <ns3:TrackPointExtension>
            <ns3:hr>152</ns3:hr>
            <ns3:cad>0</ns3:cad>
          </ns3:TrackPointExtension>
        </extensions>
      </trkpt>
      <trkpt lat="44.67753116972744464874267578125" lon="6.8204540200531482696533203125">
        <ele>2253</ele>
        <time>2026-08-31T06:35:41.000Z</time>
        <extensions>
          <ns3:TrackPointExtension>
            <ns3:hr>151</ns3:hr>
            <ns3:cad>0</ns3:cad>
          </ns3:TrackPointExtension>
        </extensions>
      </trkpt>
      <trkpt lat="44.67752412892878055572509765625" lon="6.820463240146636962890625">
        <ele>2253.199951171875</ele>
        <time>2026-08-31T06:35:42.000Z</time>
        <extensions>
          <ns3:TrackPointExtension>
            <ns3:hr>150</ns3:hr>
            <ns3:cad>0</ns3:cad>
          </ns3:TrackPointExtension>
        </extensions>
      </trkpt>
      <trkpt lat="44.67751801013946533203125" lon="6.82047002948820590972900390625">
        <ele>2253.39990234375</ele>
        <time>2026-08-31T06:35:43.000Z</time>
        <extensions>
          <ns3:TrackPointExtension>
            <ns3:hr>150</ns3:hr>
            <ns3:cad>0</ns3:cad>
          </ns3:TrackPointExtension>
        </extensions>
      </trkpt>
      <trkpt lat="44.67751591466367244720458984375" lon="6.820468269288539886474609375">
        <ele>2253.800048828125</ele>
        <time>2026-08-31T06:35:44.000Z</time>
        <extensions>
          <ns3:TrackPointExtension>
            <ns3:hr>149</ns3:hr>
            <ns3:cad>0</ns3:cad>
          </ns3:TrackPointExtension>
        </extensions>
      </trkpt>
      <trkpt lat="44.67750786803662776947021484375" lon="6.82047455571591854095458984375">
        <ele>2253.800048828125</ele>
        <time>2026-08-31T06:35:45.000Z</time>
        <extensions>
          <ns3:TrackPointExtension>
            <ns3:hr>148</ns3:hr>
            <ns3:cad>0</ns3:cad>
          </ns3:TrackPointExtension>
        </extensions>
      </trkpt>
      <trkpt lat="44.6775020845234394073486328125" lon="6.82047572918236255645751953125">
        <ele>2254</ele>
        <time>2026-08-31T06:35:46.000Z</time>
        <extensions>
          <ns3:TrackPointExtension>
            <ns3:hr>148</ns3:hr>
            <ns3:cad>0</ns3:cad>
          </ns3:TrackPointExtension>
        </extensions>
      </trkpt>
      <trkpt lat="44.67749160714447498321533203125" lon="6.820489056408405303955078125">
        <ele>2254.199951171875</ele>
        <time>2026-08-31T06:35:47.000Z</time>
        <extensions>
          <ns3:TrackPointExtension>
            <ns3:hr>147</ns3:hr>
            <ns3:cad>0</ns3:cad>
          </ns3:TrackPointExtension>
        </extensions>
      </trkpt>
      <trkpt lat="44.67748875729739665985107421875" lon="6.82049869559705257415771484375">
        <ele>2254.60009765625</ele>
        <time>2026-08-31T06:35:48.000Z</time>
        <extensions>
          <ns3:TrackPointExtension>
            <ns3:hr>147</ns3:hr>
            <ns3:cad>0</ns3:cad>
          </ns3:TrackPointExtension>
        </extensions>
      </trkpt>
      <trkpt lat="44.67748305760324001312255859375" lon="6.82050908915698528289794921875">
        <ele>2254.800048828125</ele>
        <time>2026-08-31T06:35:49.000Z</time>
        <extensions>
          <ns3:TrackPointExtension>
            <ns3:hr>147</ns3:hr>
            <ns3:cad>0</ns3:cad>
          </ns3:TrackPointExtension>
        </extensions>
      </trkpt>
      <trkpt lat="44.67747844755649566650390625" lon="6.82051914744079113006591796875">
        <ele>2255</ele>
        <time>2026-08-31T06:35:50.000Z</time>
        <extensions>
          <ns3:TrackPointExtension>
            <ns3:hr>147</ns3:hr>
            <ns3:cad>0</ns3:cad>
          </ns3:TrackPointExtension>
        </extensions>
      </trkpt>
      <trkpt lat="44.67747584916651248931884765625" lon="6.8205209076404571533203125">
        <ele>2255.199951171875</ele>
        <time>2026-08-31T06:35:51.000Z</time>
        <extensions>
          <ns3:TrackPointExtension>
            <ns3:hr>147</ns3:hr>
            <ns3:cad>0</ns3:cad>
          </ns3:TrackPointExtension>
        </extensions>
      </trkpt>
      <trkpt lat="44.6774755977094173431396484375" lon="6.8205207400023937225341796875">
        <ele>2255.39990234375</ele>
        <time>2026-08-31T06:35:52.000Z</time>
        <extensions>
          <ns3:TrackPointExtension>
            <ns3:hr>148</ns3:hr>
            <ns3:cad>0</ns3:cad>
          </ns3:TrackPointExtension>
        </extensions>
      </trkpt>
      <trkpt lat="44.67746981419622898101806640625" lon="6.82052719406783580780029296875">
        <ele>2255.60009765625</ele>
        <time>2026-08-31T06:35:53.000Z</time>
        <extensions>
          <ns3:TrackPointExtension>
            <ns3:hr>148</ns3:hr>
            <ns3:cad>0</ns3:cad>
          </ns3:TrackPointExtension>
        </extensions>
      </trkpt>
      <trkpt lat="44.6774638630449771881103515625" lon="6.82053524069488048553466796875">
        <ele>2256</ele>
        <time>2026-08-31T06:35:54.000Z</time>
        <extensions>
          <ns3:TrackPointExtension>
            <ns3:hr>150</ns3:hr>
            <ns3:cad>0</ns3:cad>
          </ns3:TrackPointExtension>
        </extensions>
      </trkpt>
      <trkpt lat="44.67745858244597911834716796875" lon="6.820538341999053955078125">
        <ele>2256.199951171875</ele>
        <time>2026-08-31T06:35:55.000Z</time>
        <extensions>
          <ns3:TrackPointExtension>
            <ns3:hr>152</ns3:hr>
            <ns3:cad>0</ns3:cad>
          </ns3:TrackPointExtension>
        </extensions>
      </trkpt>
      <trkpt lat="44.67745020054280757904052734375" lon="6.82054412551224231719970703125">
        <ele>2256.39990234375</ele>
        <time>2026-08-31T06:35:56.000Z</time>
        <extensions>
          <ns3:TrackPointExtension>
            <ns3:hr>153</ns3:hr>
            <ns3:cad>0</ns3:cad>
          </ns3:TrackPointExtension>
        </extensions>
      </trkpt>
      <trkpt lat="44.677445590496063232421875" lon="6.82054705917835235595703125">
        <ele>2256.60009765625</ele>
        <time>2026-08-31T06:35:57.000Z</time>
        <extensions>
          <ns3:TrackPointExtension>
            <ns3:hr>155</ns3:hr>
            <ns3:cad>0</ns3:cad>
          </ns3:TrackPointExtension>
        </extensions>
      </trkpt>
      <trkpt lat="44.6774407289922237396240234375" lon="6.82055250741541385650634765625">
        <ele>2256.800048828125</ele>
        <time>2026-08-31T06:35:58.000Z</time>
        <extensions>
          <ns3:TrackPointExtension>
            <ns3:hr>157</ns3:hr>
            <ns3:cad>0</ns3:cad>
          </ns3:TrackPointExtension>
        </extensions>
      </trkpt>
      <trkpt lat="44.677437879145145416259765625" lon="6.82055871002376079559326171875">
        <ele>2257</ele>
        <time>2026-08-31T06:35:59.000Z</time>
        <extensions>
          <ns3:TrackPointExtension>
            <ns3:hr>158</ns3:hr>
            <ns3:cad>0</ns3:cad>
          </ns3:TrackPointExtension>
        </extensions>
      </trkpt>
      <trkpt lat="44.67743217945098876953125" lon="6.8205723725259304046630859375">
        <ele>2257.199951171875</ele>
        <time>2026-08-31T06:36:00.000Z</time>
        <extensions>
          <ns3:TrackPointExtension>
            <ns3:hr>159</ns3:hr>
            <ns3:cad>0</ns3:cad>
          </ns3:TrackPointExtension>
        </extensions>
      </trkpt>
      <trkpt lat="44.6774283237755298614501953125" lon="6.8205820955336093902587890625">
        <ele>2257.39990234375</ele>
        <time>2026-08-31T06:36:01.000Z</time>
        <extensions>
          <ns3:TrackPointExtension>
            <ns3:hr>159</ns3:hr>
            <ns3:cad>0</ns3:cad>
          </ns3:TrackPointExtension>
        </extensions>
      </trkpt>
      <trkpt lat="44.6774243004620075225830078125" lon="6.82059005834162235260009765625">
        <ele>2257.60009765625</ele>
        <time>2026-08-31T06:36:02.000Z</time>
        <extensions>
          <ns3:TrackPointExtension>
            <ns3:hr>159</ns3:hr>
            <ns3:cad>0</ns3:cad>
          </ns3:TrackPointExtension>
        </extensions>
      </trkpt>
      <trkpt lat="44.6774216182529926300048828125" lon="6.82060196064412593841552734375">
        <ele>2257.800048828125</ele>
        <time>2026-08-31T06:36:03.000Z</time>
        <extensions>
          <ns3:TrackPointExtension>
            <ns3:hr>160</ns3:hr>
            <ns3:cad>0</ns3:cad>
          </ns3:TrackPointExtension>
        </extensions>
      </trkpt>
      <trkpt lat="44.6774212829768657684326171875" lon="6.820608414709568023681640625">
        <ele>2258</ele>
        <time>2026-08-31T06:36:04.000Z</time>
        <extensions>
          <ns3:TrackPointExtension>
            <ns3:hr>160</ns3:hr>
            <ns3:cad>0</ns3:cad>
          </ns3:TrackPointExtension>
        </extensions>
      </trkpt>
      <trkpt lat="44.67741348780691623687744140625" lon="6.82061922736465930938720703125">
        <ele>2258.199951171875</ele>
        <time>2026-08-31T06:36:05.000Z</time>
        <extensions>
          <ns3:TrackPointExtension>
            <ns3:hr>161</ns3:hr>
            <ns3:cad>0</ns3:cad>
          </ns3:TrackPointExtension>
        </extensions>
      </trkpt>
      <trkpt lat="44.67740728519856929779052734375" lon="6.82062325067818164825439453125">
        <ele>2258.199951171875</ele>
        <time>2026-08-31T06:36:06.000Z</time>
        <extensions>
          <ns3:TrackPointExtension>
            <ns3:hr>161</ns3:hr>
            <ns3:cad>0</ns3:cad>
          </ns3:TrackPointExtension>
        </extensions>
      </trkpt>
      <trkpt lat="44.67740443535149097442626953125" lon="6.82061973027884960174560546875">
        <ele>2258.39990234375</ele>
        <time>2026-08-31T06:36:07.000Z</time>
        <extensions>
          <ns3:TrackPointExtension>
            <ns3:hr>162</ns3:hr>
            <ns3:cad>0</ns3:cad>
          </ns3:TrackPointExtension>
        </extensions>
      </trkpt>
      <trkpt lat="44.6774038486182689666748046875" lon="6.82061905972659587860107421875">
        <ele>2258.60009765625</ele>
        <time>2026-08-31T06:36:08.000Z</time>
        <extensions>
          <ns3:TrackPointExtension>
            <ns3:hr>162</ns3:hr>
            <ns3:cad>0</ns3:cad>
          </ns3:TrackPointExtension>
        </extensions>
      </trkpt>
      <trkpt lat="44.6774038486182689666748046875" lon="6.820619143545627593994140625">
        <ele>2258.60009765625</ele>
        <time>2026-08-31T06:36:09.000Z</time>
        <extensions>
          <ns3:TrackPointExtension>
            <ns3:hr>162</ns3:hr>
            <ns3:cad>0</ns3:cad>
          </ns3:TrackPointExtension>
        </extensions>
      </trkpt>
      <trkpt lat="44.6774038486182689666748046875" lon="6.820619143545627593994140625">
        <ele>2258.60009765625</ele>
        <time>2026-08-31T06:36:10.000Z</time>
        <extensions>
          <ns3:TrackPointExtension>
            <ns3:hr>163</ns3:hr>
            <ns3:cad>0</ns3:cad>
          </ns3:TrackPointExtension>
        </extensions>
      </trkpt>
      <trkpt lat="44.6774038486182689666748046875" lon="6.820619143545627593994140625">
        <ele>2258.60009765625</ele>
        <time>2026-08-31T06:36:11.000Z</time>
        <extensions>
          <ns3:TrackPointExtension>
            <ns3:hr>163</ns3:hr>
            <ns3:cad>0</ns3:cad>
          </ns3:TrackPointExtension>
        </extensions>
      </trkpt>
      <trkpt lat="44.6774038486182689666748046875" lon="6.820619143545627593994140625">
        <ele>2258.60009765625</ele>
        <time>2026-08-31T06:36:12.000Z</time>
        <extensions>
          <ns3:TrackPointExtension>
            <ns3:hr>164</ns3:hr>
            <ns3:cad>0</ns3:cad>
          </ns3:TrackPointExtension>
        </extensions>
      </trkpt>
      <trkpt lat="44.6774038486182689666748046875" lon="6.820619143545627593994140625">
        <ele>2258.60009765625</ele>
        <time>2026-08-31T06:36:13.000Z</time>
        <extensions>
          <ns3:TrackPointExtension>
            <ns3:hr>163</ns3:hr>
            <ns3:cad>0</ns3:cad>
          </ns3:TrackPointExtension>
        </extensions>
      </trkpt>
      <trkpt lat="44.6774038486182689666748046875" lon="6.820619143545627593994140625">
        <ele>2258.60009765625</ele>
        <time>2026-08-31T06:36:14.000Z</time>
        <extensions>
          <ns3:TrackPointExtension>
            <ns3:hr>163</ns3:hr>
            <ns3:cad>0</ns3:cad>
          </ns3:TrackPointExtension>
        </extensions>
      </trkpt>
      <trkpt lat="44.6774038486182689666748046875" lon="6.820619143545627593994140625">
        <ele>2258.60009765625</ele>
        <time>2026-08-31T06:36:15.000Z</time>
        <extensions>
          <ns3:TrackPointExtension>
            <ns3:hr>162</ns3:hr>
            <ns3:cad>0</ns3:cad>
          </ns3:TrackPointExtension>
        </extensions>
      </trkpt>
      <trkpt lat="44.6774038486182689666748046875" lon="6.820619143545627593994140625">
        <ele>2258.60009765625</ele>
        <time>2026-08-31T06:36:16.000Z</time>
        <extensions>
          <ns3:TrackPointExtension>
            <ns3:hr>162</ns3:hr>
            <ns3:cad>0</ns3:cad>
          </ns3:TrackPointExtension>
        </extensions>
      </trkpt>
      <trkpt lat="44.6774038486182689666748046875" lon="6.820619143545627593994140625">
        <ele>2258.60009765625</ele>
        <time>2026-08-31T06:36:17.000Z</time>
        <extensions>
          <ns3:TrackPointExtension>
            <ns3:hr>161</ns3:hr>
            <ns3:cad>0</ns3:cad>
          </ns3:TrackPointExtension>
        </extensions>
      </trkpt>
      <trkpt lat="44.6774038486182689666748046875" lon="6.820619143545627593994140625">
        <ele>2258.60009765625</ele>
        <time>2026-08-31T06:36:18.000Z</time>
        <extensions>
          <ns3:TrackPointExtension>
            <ns3:hr>160</ns3:hr>
            <ns3:cad>0</ns3:cad>
          </ns3:TrackPointExtension>
        </extensions>
      </trkpt>
      <trkpt lat="44.6774038486182689666748046875" lon="6.820619143545627593994140625">
        <ele>2258.60009765625</ele>
        <time>2026-08-31T06:36:19.000Z</time>
        <extensions>
          <ns3:TrackPointExtension>
            <ns3:hr>160</ns3:hr>
            <ns3:cad>0</ns3:cad>
          </ns3:TrackPointExtension>
        </extensions>
      </trkpt>
      <trkpt lat="44.6774038486182689666748046875" lon="6.820619143545627593994140625">
        <ele>2258.60009765625</ele>
        <time>2026-08-31T06:36:20.000Z</time>
        <extensions>
          <ns3:TrackPointExtension>
            <ns3:hr>159</ns3:hr>
            <ns3:cad>0</ns3:cad>
          </ns3:TrackPointExtension>
        </extensions>
      </trkpt>
      <trkpt lat="44.6774038486182689666748046875" lon="6.820619143545627593994140625">
        <ele>2258.60009765625</ele>
        <time>2026-08-31T06:36:21.000Z</time>
        <extensions>
          <ns3:TrackPointExtension>
            <ns3:hr>160</ns3:hr>
            <ns3:cad>0</ns3:cad>
          </ns3:TrackPointExtension>
        </extensions>
      </trkpt>
      <trkpt lat="44.6774038486182689666748046875" lon="6.820619143545627593994140625">
        <ele>2258.60009765625</ele>
        <time>2026-08-31T06:36:22.000Z</time>
        <extensions>
          <ns3:TrackPointExtension>
            <ns3:hr>162</ns3:hr>
            <ns3:cad>0</ns3:cad>
          </ns3:TrackPointExtension>
        </extensions>
      </trkpt>
      <trkpt lat="44.6774038486182689666748046875" lon="6.820619143545627593994140625">
        <ele>2258.60009765625</ele>
        <time>2026-08-31T06:36:23.000Z</time>
        <extensions>
          <ns3:TrackPointExtension>
            <ns3:hr>163</ns3:hr>
            <ns3:cad>0</ns3:cad>
          </ns3:TrackPointExtension>
        </extensions>
      </trkpt>
      <trkpt lat="44.6774038486182689666748046875" lon="6.820619143545627593994140625">
        <ele>2258.60009765625</ele>
        <time>2026-08-31T06:36:24.000Z</time>
        <extensions>
          <ns3:TrackPointExtension>
            <ns3:hr>162</ns3:hr>
            <ns3:cad>0</ns3:cad>
          </ns3:TrackPointExtension>
        </extensions>
      </trkpt>
      <trkpt lat="44.6774038486182689666748046875" lon="6.820619143545627593994140625">
        <ele>2258.60009765625</ele>
        <time>2026-08-31T06:36:25.000Z</time>
        <extensions>
          <ns3:TrackPointExtension>
            <ns3:hr>162</ns3:hr>
            <ns3:cad>0</ns3:cad>
          </ns3:TrackPointExtension>
        </extensions>
      </trkpt>
      <trkpt lat="44.6774038486182689666748046875" lon="6.820619143545627593994140625">
        <ele>2258.60009765625</ele>
        <time>2026-08-31T06:36:26.000Z</time>
        <extensions>
          <ns3:TrackPointExtension>
            <ns3:hr>162</ns3:hr>
            <ns3:cad>0</ns3:cad>
          </ns3:TrackPointExtension>
        </extensions>
      </trkpt>
      <trkpt lat="44.6774038486182689666748046875" lon="6.820619143545627593994140625">
        <ele>2258.60009765625</ele>
        <time>2026-08-31T06:36:27.000Z</time>
        <extensions>
          <ns3:TrackPointExtension>
            <ns3:hr>161</ns3:hr>
            <ns3:cad>0</ns3:cad>
          </ns3:TrackPointExtension>
        </extensions>
      </trkpt>
      <trkpt lat="44.6774038486182689666748046875" lon="6.820619143545627593994140625">
        <ele>2258.60009765625</ele>
        <time>2026-08-31T06:36:28.000Z</time>
        <extensions>
          <ns3:TrackPointExtension>
            <ns3:hr>161</ns3:hr>
            <ns3:cad>0</ns3:cad>
          </ns3:TrackPointExtension>
        </extensions>
      </trkpt>
      <trkpt lat="44.67740326188504695892333984375" lon="6.8206233344972133636474609375">
        <ele>2258.60009765625</ele>
        <time>2026-08-31T06:36:29.000Z</time>
        <extensions>
          <ns3:TrackPointExtension>
            <ns3:hr>161</ns3:hr>
            <ns3:cad>0</ns3:cad>
          </ns3:TrackPointExtension>
        </extensions>
      </trkpt>
      <trkpt lat="44.6773994900286197662353515625" lon="6.82063498534262180328369140625">
        <ele>2258.800048828125</ele>
        <time>2026-08-31T06:36:30.000Z</time>
        <extensions>
          <ns3:TrackPointExtension>
            <ns3:hr>161</ns3:hr>
            <ns3:cad>0</ns3:cad>
          </ns3:TrackPointExtension>
        </extensions>
      </trkpt>
      <trkpt lat="44.67739932239055633544921875" lon="6.82064806111156940460205078125">
        <ele>2258.800048828125</ele>
        <time>2026-08-31T06:36:31.000Z</time>
        <extensions>
          <ns3:TrackPointExtension>
            <ns3:hr>160</ns3:hr>
            <ns3:cad>0</ns3:cad>
          </ns3:TrackPointExtension>
        </extensions>
      </trkpt>
      <trkpt lat="44.6773988194763660430908203125" lon="6.8206642381846904754638671875">
        <ele>2259</ele>
        <time>2026-08-31T06:36:32.000Z</time>
        <extensions>
          <ns3:TrackPointExtension>
            <ns3:hr>160</ns3:hr>
            <ns3:cad>0</ns3:cad>
          </ns3:TrackPointExtension>
        </extensions>
      </trkpt>
      <trkpt lat="44.67739957384765148162841796875" lon="6.8206773139536380767822265625">
        <ele>2259.199951171875</ele>
        <time>2026-08-31T06:36:33.000Z</time>
        <extensions>
          <ns3:TrackPointExtension>
            <ns3:hr>159</ns3:hr>
            <ns3:cad>0</ns3:cad>
          </ns3:TrackPointExtension>
        </extensions>
      </trkpt>
      <trkpt lat="44.67739722691476345062255859375" lon="6.8206893838942050933837890625">
        <ele>2259.39990234375</ele>
        <time>2026-08-31T06:36:34.000Z</time>
        <extensions>
          <ns3:TrackPointExtension>
            <ns3:hr>159</ns3:hr>
            <ns3:cad>47</ns3:cad>
          </ns3:TrackPointExtension>
        </extensions>
      </trkpt>
      <trkpt lat="44.6773958019912242889404296875" lon="6.8206964246928691864013671875">
        <ele>2259.60009765625</ele>
        <time>2026-08-31T06:36:35.000Z</time>
        <extensions>
          <ns3:TrackPointExtension>
            <ns3:hr>159</ns3:hr>
            <ns3:cad>50</ns3:cad>
          </ns3:TrackPointExtension>
        </extensions>
      </trkpt>
      <trkpt lat="44.6773927845060825347900390625" lon="6.82070505805313587188720703125">
        <ele>2259.800048828125</ele>
        <time>2026-08-31T06:36:36.000Z</time>
        <extensions>
          <ns3:TrackPointExtension>
            <ns3:hr>159</ns3:hr>
            <ns3:cad>50</ns3:cad>
          </ns3:TrackPointExtension>
        </extensions>
      </trkpt>
      <trkpt lat="44.67738968320190906524658203125" lon="6.82071444578468799591064453125">
        <ele>2260</ele>
        <time>2026-08-31T06:36:37.000Z</time>
        <extensions>
          <ns3:TrackPointExtension>
            <ns3:hr>159</ns3:hr>
            <ns3:cad>49</ns3:cad>
          </ns3:TrackPointExtension>
        </extensions>
      </trkpt>
      <trkpt lat="44.677386581897735595703125" lon="6.8207220733165740966796875">
        <ele>2260.199951171875</ele>
        <time>2026-08-31T06:36:38.000Z</time>
        <extensions>
          <ns3:TrackPointExtension>
            <ns3:hr>159</ns3:hr>
            <ns3:cad>49</ns3:cad>
          </ns3:TrackPointExtension>
        </extensions>
      </trkpt>
      <trkpt lat="44.6773833967745304107666015625" lon="6.820731461048126220703125">
        <ele>2260.199951171875</ele>
        <time>2026-08-31T06:36:39.000Z</time>
        <extensions>
          <ns3:TrackPointExtension>
            <ns3:hr>158</ns3:hr>
            <ns3:cad>50</ns3:cad>
          </ns3:TrackPointExtension>
        </extensions>
      </trkpt>
      <trkpt lat="44.677380211651325225830078125" lon="6.82074042968451976776123046875">
        <ele>2260.39990234375</ele>
        <time>2026-08-31T06:36:40.000Z</time>
        <extensions>
          <ns3:TrackPointExtension>
            <ns3:hr>158</ns3:hr>
            <ns3:cad>50</ns3:cad>
          </ns3:TrackPointExtension>
        </extensions>
      </trkpt>
      <trkpt lat="44.677375517785549163818359375" lon="6.8207517452538013458251953125">
        <ele>2260.60009765625</ele>
        <time>2026-08-31T06:36:41.000Z</time>
        <extensions>
          <ns3:TrackPointExtension>
            <ns3:hr>158</ns3:hr>
            <ns3:cad>50</ns3:cad>
          </ns3:TrackPointExtension>
        </extensions>
      </trkpt>
      <trkpt lat="44.677372835576534271240234375" lon="6.82076205499470233917236328125">
        <ele>2260.800048828125</ele>
        <time>2026-08-31T06:36:42.000Z</time>
        <extensions>
          <ns3:TrackPointExtension>
            <ns3:hr>157</ns3:hr>
            <ns3:cad>50</ns3:cad>
          </ns3:TrackPointExtension>
        </extensions>
      </trkpt>
      <trkpt lat="44.677364118397235870361328125" lon="6.8207728676497936248779296875">
        <ele>2261</ele>
        <time>2026-08-31T06:36:43.000Z</time>
        <extensions>
          <ns3:TrackPointExtension>
            <ns3:hr>157</ns3:hr>
            <ns3:cad>50</ns3:cad>
          </ns3:TrackPointExtension>
        </extensions>
      </trkpt>
      <trkpt lat="44.67735967598855495452880859375" lon="6.8207886256277561187744140625">
        <ele>2261.199951171875</ele>
        <time>2026-08-31T06:36:44.000Z</time>
        <extensions>
          <ns3:TrackPointExtension>
            <ns3:hr>156</ns3:hr>
            <ns3:cad>51</ns3:cad>
          </ns3:TrackPointExtension>
        </extensions>
      </trkpt>
      <trkpt lat="44.67735498212277889251708984375" lon="6.82080061174929141998291015625">
        <ele>2261.39990234375</ele>
        <time>2026-08-31T06:36:45.000Z</time>
        <extensions>
          <ns3:TrackPointExtension>
            <ns3:hr>156</ns3:hr>
            <ns3:cad>51</ns3:cad>
          </ns3:TrackPointExtension>
        </extensions>
      </trkpt>
      <trkpt lat="44.6773503720760345458984375" lon="6.8208151124417781829833984375">
        <ele>2261.60009765625</ele>
        <time>2026-08-31T06:36:46.000Z</time>
        <extensions>
          <ns3:TrackPointExtension>
            <ns3:hr>154</ns3:hr>
            <ns3:cad>0</ns3:cad>
          </ns3:TrackPointExtension>
        </extensions>
      </trkpt>
      <trkpt lat="44.6773481927812099456787109375" lon="6.82082240469753742218017578125">
        <ele>2262</ele>
        <time>2026-08-31T06:36:47.000Z</time>
        <extensions>
          <ns3:TrackPointExtension>
            <ns3:hr>152</ns3:hr>
            <ns3:cad>0</ns3:cad>
          </ns3:TrackPointExtension>
        </extensions>
      </trkpt>
      <trkpt lat="44.677348025143146514892578125" lon="6.8208224885165691375732421875">
        <ele>2262.199951171875</ele>
        <time>2026-08-31T06:36:48.000Z</time>
        <extensions>
          <ns3:TrackPointExtension>
            <ns3:hr>152</ns3:hr>
            <ns3:cad>0</ns3:cad>
          </ns3:TrackPointExtension>
        </extensions>
      </trkpt>
      <trkpt lat="44.6773431636393070220947265625" lon="6.8208335526287555694580078125">
        <ele>2262.199951171875</ele>
        <time>2026-08-31T06:36:49.000Z</time>
        <extensions>
          <ns3:TrackPointExtension>
            <ns3:hr>151</ns3:hr>
            <ns3:cad>0</ns3:cad>
          </ns3:TrackPointExtension>
        </extensions>
      </trkpt>
      <trkpt lat="44.67733989469707012176513671875" lon="6.82084537111222743988037109375">
        <ele>2262.39990234375</ele>
        <time>2026-08-31T06:36:50.000Z</time>
        <extensions>
          <ns3:TrackPointExtension>
            <ns3:hr>151</ns3:hr>
            <ns3:cad>0</ns3:cad>
          </ns3:TrackPointExtension>
        </extensions>
      </trkpt>
      <trkpt lat="44.67733629047870635986328125" lon="6.82085811160504817962646484375">
        <ele>2262.60009765625</ele>
        <time>2026-08-31T06:36:51.000Z</time>
        <extensions>
          <ns3:TrackPointExtension>
            <ns3:hr>151</ns3:hr>
            <ns3:cad>0</ns3:cad>
          </ns3:TrackPointExtension>
        </extensions>
      </trkpt>
      <trkpt lat="44.67733201570808887481689453125" lon="6.82086783461272716522216796875">
        <ele>2262.800048828125</ele>
        <time>2026-08-31T06:36:52.000Z</time>
        <extensions>
          <ns3:TrackPointExtension>
            <ns3:hr>150</ns3:hr>
            <ns3:cad>0</ns3:cad>
          </ns3:TrackPointExtension>
        </extensions>
      </trkpt>
      <trkpt lat="44.67732665129005908966064453125" lon="6.8208835087716579437255859375">
        <ele>2263</ele>
        <time>2026-08-31T06:36:53.000Z</time>
        <extensions>
          <ns3:TrackPointExtension>
            <ns3:hr>150</ns3:hr>
            <ns3:cad>0</ns3:cad>
          </ns3:TrackPointExtension>
        </extensions>
      </trkpt>
      <trkpt lat="44.67732489109039306640625" lon="6.82089046575129032135009765625">
        <ele>2263</ele>
        <time>2026-08-31T06:36:54.000Z</time>
        <extensions>
          <ns3:TrackPointExtension>
            <ns3:hr>150</ns3:hr>
            <ns3:cad>0</ns3:cad>
          </ns3:TrackPointExtension>
        </extensions>
      </trkpt>
      <trkpt lat="44.67731491662561893463134765625" lon="6.820906810462474822998046875">
        <ele>2263.199951171875</ele>
        <time>2026-08-31T06:36:55.000Z</time>
        <extensions>
          <ns3:TrackPointExtension>
            <ns3:hr>150</ns3:hr>
            <ns3:cad>0</ns3:cad>
          </ns3:TrackPointExtension>
        </extensions>
      </trkpt>
      <trkpt lat="44.67731005512177944183349609375" lon="6.8209183774888515472412109375">
        <ele>2263.39990234375</ele>
        <time>2026-08-31T06:36:56.000Z</time>
        <extensions>
          <ns3:TrackPointExtension>
            <ns3:hr>149</ns3:hr>
            <ns3:cad>0</ns3:cad>
          </ns3:TrackPointExtension>
        </extensions>
      </trkpt>
      <trkpt lat="44.67730276286602020263671875" lon="6.82093329727649688720703125">
        <ele>2263.60009765625</ele>
        <time>2026-08-31T06:36:57.000Z</time>
        <extensions>
          <ns3:TrackPointExtension>
            <ns3:hr>150</ns3:hr>
            <ns3:cad>0</ns3:cad>
          </ns3:TrackPointExtension>
        </extensions>
      </trkpt>
      <trkpt lat="44.6772972308099269866943359375" lon="6.82094729505479335784912109375">
        <ele>2263.800048828125</ele>
        <time>2026-08-31T06:36:58.000Z</time>
        <extensions>
          <ns3:TrackPointExtension>
            <ns3:hr>150</ns3:hr>
            <ns3:cad>0</ns3:cad>
          </ns3:TrackPointExtension>
        </extensions>
      </trkpt>
      <trkpt lat="44.67729060910642147064208984375" lon="6.82096070609986782073974609375">
        <ele>2264</ele>
        <time>2026-08-31T06:36:59.000Z</time>
        <extensions>
          <ns3:TrackPointExtension>
            <ns3:hr>150</ns3:hr>
            <ns3:cad>0</ns3:cad>
          </ns3:TrackPointExtension>
        </extensions>
      </trkpt>
      <trkpt lat="44.6772871725261211395263671875" lon="6.82097579352557659149169921875">
        <ele>2264.199951171875</ele>
        <time>2026-08-31T06:37:00.000Z</time>
        <extensions>
          <ns3:TrackPointExtension>
            <ns3:hr>150</ns3:hr>
            <ns3:cad>0</ns3:cad>
          </ns3:TrackPointExtension>
        </extensions>
      </trkpt>
      <trkpt lat="44.67728742398321628570556640625" lon="6.8209820799529552459716796875">
        <ele>2264.39990234375</ele>
        <time>2026-08-31T06:37:01.000Z</time>
        <extensions>
          <ns3:TrackPointExtension>
            <ns3:hr>151</ns3:hr>
            <ns3:cad>0</ns3:cad>
          </ns3:TrackPointExtension>
        </extensions>
      </trkpt>
      <trkpt lat="44.67728759162127971649169921875" lon="6.8209824152290821075439453125">
        <ele>2264.60009765625</ele>
        <time>2026-08-31T06:37:02.000Z</time>
        <extensions>
          <ns3:TrackPointExtension>
            <ns3:hr>152</ns3:hr>
            <ns3:cad>0</ns3:cad>
          </ns3:TrackPointExtension>
        </extensions>
      </trkpt>
      <trkpt lat="44.6772925369441509246826171875" lon="6.82098819874227046966552734375">
        <ele>2264.60009765625</ele>
        <time>2026-08-31T06:37:03.000Z</time>
        <extensions>
          <ns3:TrackPointExtension>
            <ns3:hr>152</ns3:hr>
            <ns3:cad>0</ns3:cad>
          </ns3:TrackPointExtension>
        </extensions>
      </trkpt>
      <trkpt lat="44.67729966156184673309326171875" lon="6.8209944851696491241455078125">
        <ele>2264.800048828125</ele>
        <time>2026-08-31T06:37:04.000Z</time>
        <extensions>
          <ns3:TrackPointExtension>
            <ns3:hr>153</ns3:hr>
            <ns3:cad>0</ns3:cad>
          </ns3:TrackPointExtension>
        </extensions>
      </trkpt>
      <trkpt lat="44.67730720527470111846923828125" lon="6.820994652807712554931640625">
        <ele>2265</ele>
        <time>2026-08-31T06:37:05.000Z</time>
        <extensions>
          <ns3:TrackPointExtension>
            <ns3:hr>154</ns3:hr>
            <ns3:cad>0</ns3:cad>
          </ns3:TrackPointExtension>
        </extensions>
      </trkpt>
      <trkpt lat="44.67732078395783901214599609375" lon="6.82099104858934879302978515625">
        <ele>2265.199951171875</ele>
        <time>2026-08-31T06:37:06.000Z</time>
        <extensions>
          <ns3:TrackPointExtension>
            <ns3:hr>154</ns3:hr>
            <ns3:cad>0</ns3:cad>
          </ns3:TrackPointExtension>
        </extensions>
      </trkpt>
      <trkpt lat="44.6773289144039154052734375" lon="6.82098752819001674652099609375">
        <ele>2265.199951171875</ele>
        <time>2026-08-31T06:37:07.000Z</time>
        <extensions>
          <ns3:TrackPointExtension>
            <ns3:hr>155</ns3:hr>
            <ns3:cad>0</ns3:cad>
          </ns3:TrackPointExtension>
        </extensions>
      </trkpt>
      <trkpt lat="44.67733570374548435211181640625" lon="6.8209857679903507232666015625">
        <ele>2265.39990234375</ele>
        <time>2026-08-31T06:37:08.000Z</time>
        <extensions>
          <ns3:TrackPointExtension>
            <ns3:hr>155</ns3:hr>
            <ns3:cad>0</ns3:cad>
          </ns3:TrackPointExtension>
        </extensions>
      </trkpt>
      <trkpt lat="44.67735045589506626129150390625" lon="6.820983253419399261474609375">
        <ele>2265.60009765625</ele>
        <time>2026-08-31T06:37:09.000Z</time>
        <extensions>
          <ns3:TrackPointExtension>
            <ns3:hr>156</ns3:hr>
            <ns3:cad>0</ns3:cad>
          </ns3:TrackPointExtension>
        </extensions>
      </trkpt>
      <trkpt lat="44.6773532219231128692626953125" lon="6.820983588695526123046875">
        <ele>2265.800048828125</ele>
        <time>2026-08-31T06:37:10.000Z</time>
        <extensions>
          <ns3:TrackPointExtension>
            <ns3:hr>156</ns3:hr>
            <ns3:cad>0</ns3:cad>
          </ns3:TrackPointExtension>
        </extensions>
      </trkpt>
      <trkpt lat="44.67735330574214458465576171875" lon="6.8209830857813358306884765625">
        <ele>2266</ele>
        <time>2026-08-31T06:37:11.000Z</time>
        <extensions>
          <ns3:TrackPointExtension>
            <ns3:hr>157</ns3:hr>
            <ns3:cad>0</ns3:cad>
          </ns3:TrackPointExtension>
        </extensions>
      </trkpt>
      <trkpt lat="44.677360765635967254638671875" lon="6.82097847573459148406982421875">
        <ele>2266.199951171875</ele>
        <time>2026-08-31T06:37:12.000Z</time>
        <extensions>
          <ns3:TrackPointExtension>
            <ns3:hr>157</ns3:hr>
            <ns3:cad>0</ns3:cad>
          </ns3:TrackPointExtension>
        </extensions>
      </trkpt>
      <trkpt lat="44.677372835576534271240234375" lon="6.82097529061138629913330078125">
        <ele>2266.39990234375</ele>
        <time>2026-08-31T06:37:13.000Z</time>
        <extensions>
          <ns3:TrackPointExtension>
            <ns3:hr>157</ns3:hr>
            <ns3:cad>0</ns3:cad>
          </ns3:TrackPointExtension>
        </extensions>
      </trkpt>
      <trkpt lat="44.67738230712711811065673828125" lon="6.8209760449826717376708984375">
        <ele>2266.60009765625</ele>
        <time>2026-08-31T06:37:14.000Z</time>
        <extensions>
          <ns3:TrackPointExtension>
            <ns3:hr>158</ns3:hr>
            <ns3:cad>0</ns3:cad>
          </ns3:TrackPointExtension>
        </extensions>
      </trkpt>
      <trkpt lat="44.677390940487384796142578125" lon="6.8209743686020374298095703125">
        <ele>2266.800048828125</ele>
        <time>2026-08-31T06:37:15.000Z</time>
        <extensions>
          <ns3:TrackPointExtension>
            <ns3:hr>158</ns3:hr>
            <ns3:cad>0</ns3:cad>
          </ns3:TrackPointExtension>
        </extensions>
      </trkpt>
      <trkpt lat="44.6774065308272838592529296875" lon="6.820976547896862030029296875">
        <ele>2267</ele>
        <time>2026-08-31T06:37:16.000Z</time>
        <extensions>
          <ns3:TrackPointExtension>
            <ns3:hr>158</ns3:hr>
            <ns3:cad>0</ns3:cad>
          </ns3:TrackPointExtension>
        </extensions>
      </trkpt>
      <trkpt lat="44.677416421473026275634765625" lon="6.82097361423075199127197265625">
        <ele>2267</ele>
        <time>2026-08-31T06:37:17.000Z</time>
        <extensions>
          <ns3:TrackPointExtension>
            <ns3:hr>158</ns3:hr>
            <ns3:cad>0</ns3:cad>
          </ns3:TrackPointExtension>
        </extensions>
      </trkpt>
      <trkpt lat="44.67742019332945346832275390625" lon="6.820971183478832244873046875">
        <ele>2267.199951171875</ele>
        <time>2026-08-31T06:37:18.000Z</time>
        <extensions>
          <ns3:TrackPointExtension>
            <ns3:hr>159</ns3:hr>
            <ns3:cad>0</ns3:cad>
          </ns3:TrackPointExtension>
        </extensions>
      </trkpt>
      <trkpt lat="44.67742480337619781494140625" lon="6.820967160165309906005859375">
        <ele>2267.39990234375</ele>
        <time>2026-08-31T06:37:19.000Z</time>
        <extensions>
          <ns3:TrackPointExtension>
            <ns3:hr>159</ns3:hr>
            <ns3:cad>0</ns3:cad>
          </ns3:TrackPointExtension>
        </extensions>
      </trkpt>
      <trkpt lat="44.67743729241192340850830078125" lon="6.82096506468951702117919921875">
        <ele>2267.60009765625</ele>
        <time>2026-08-31T06:37:20.000Z</time>
        <extensions>
          <ns3:TrackPointExtension>
            <ns3:hr>160</ns3:hr>
            <ns3:cad>0</ns3:cad>
          </ns3:TrackPointExtension>
        </extensions>
      </trkpt>
      <trkpt lat="44.6774470992386341094970703125" lon="6.82096456177532672882080078125">
        <ele>2267.800048828125</ele>
        <time>2026-08-31T06:37:21.000Z</time>
        <extensions>
          <ns3:TrackPointExtension>
            <ns3:hr>160</ns3:hr>
            <ns3:cad>0</ns3:cad>
          </ns3:TrackPointExtension>
        </extensions>
      </trkpt>
      <trkpt lat="44.6774576604366302490234375" lon="6.82096389122307300567626953125">
        <ele>2268.199951171875</ele>
        <time>2026-08-31T06:37:22.000Z</time>
        <extensions>
          <ns3:TrackPointExtension>
            <ns3:hr>160</ns3:hr>
            <ns3:cad>0</ns3:cad>
          </ns3:TrackPointExtension>
        </extensions>
      </trkpt>
      <trkpt lat="44.6774675510823726654052734375" lon="6.82095944881439208984375">
        <ele>2268.39990234375</ele>
        <time>2026-08-31T06:37:23.000Z</time>
        <extensions>
          <ns3:TrackPointExtension>
            <ns3:hr>161</ns3:hr>
            <ns3:cad>0</ns3:cad>
          </ns3:TrackPointExtension>
        </extensions>
      </trkpt>
      <trkpt lat="44.677472747862339019775390625" lon="6.82095601223409175872802734375">
        <ele>2268.60009765625</ele>
        <time>2026-08-31T06:37:24.000Z</time>
        <extensions>
          <ns3:TrackPointExtension>
            <ns3:hr>161</ns3:hr>
            <ns3:cad>0</ns3:cad>
          </ns3:TrackPointExtension>
        </extensions>
      </trkpt>
      <trkpt lat="44.67748372815549373626708984375" lon="6.820955090224742889404296875">
        <ele>2268.800048828125</ele>
        <time>2026-08-31T06:37:25.000Z</time>
        <extensions>
          <ns3:TrackPointExtension>
            <ns3:hr>161</ns3:hr>
            <ns3:cad>0</ns3:cad>
          </ns3:TrackPointExtension>
        </extensions>
      </trkpt>
      <trkpt lat="44.6774880029261112213134765625" lon="6.8209485523402690887451171875">
        <ele>2269</ele>
        <time>2026-08-31T06:37:26.000Z</time>
        <extensions>
          <ns3:TrackPointExtension>
            <ns3:hr>161</ns3:hr>
            <ns3:cad>0</ns3:cad>
          </ns3:TrackPointExtension>
        </extensions>
      </trkpt>
      <trkpt lat="44.6775010786950588226318359375" lon="6.82094813324511051177978515625">
        <ele>2269.199951171875</ele>
        <time>2026-08-31T06:37:27.000Z</time>
        <extensions>
          <ns3:TrackPointExtension>
            <ns3:hr>162</ns3:hr>
            <ns3:cad>0</ns3:cad>
          </ns3:TrackPointExtension>
        </extensions>
      </trkpt>
      <trkpt lat="44.6775081194937229156494140625" lon="6.820948384702205657958984375">
        <ele>2269.39990234375</ele>
        <time>2026-08-31T06:37:28.000Z</time>
        <extensions>
          <ns3:TrackPointExtension>
            <ns3:hr>162</ns3:hr>
            <ns3:cad>0</ns3:cad>
          </ns3:TrackPointExtension>
        </extensions>
      </trkpt>
      <trkpt lat="44.67751742340624332427978515625" lon="6.82094830088317394256591796875">
        <ele>2269.800048828125</ele>
        <time>2026-08-31T06:37:29.000Z</time>
        <extensions>
          <ns3:TrackPointExtension>
            <ns3:hr>163</ns3:hr>
            <ns3:cad>0</ns3:cad>
          </ns3:TrackPointExtension>
        </extensions>
      </trkpt>
      <trkpt lat="44.677525050938129425048828125" lon="6.820941008627414703369140625">
        <ele>2270</ele>
        <time>2026-08-31T06:37:30.000Z</time>
        <extensions>
          <ns3:TrackPointExtension>
            <ns3:hr>163</ns3:hr>
            <ns3:cad>0</ns3:cad>
          </ns3:TrackPointExtension>
        </extensions>
      </trkpt>
      <trkpt lat="44.6775396354496479034423828125" lon="6.820930950343608856201171875">
        <ele>2270.199951171875</ele>
        <time>2026-08-31T06:37:31.000Z</time>
        <extensions>
          <ns3:TrackPointExtension>
            <ns3:hr>164</ns3:hr>
            <ns3:cad>0</ns3:cad>
          </ns3:TrackPointExtension>
        </extensions>
      </trkpt>
      <trkpt lat="44.6775506995618343353271484375" lon="6.82092969305813312530517578125">
        <ele>2270.39990234375</ele>
        <time>2026-08-31T06:37:32.000Z</time>
        <extensions>
          <ns3:TrackPointExtension>
            <ns3:hr>164</ns3:hr>
            <ns3:cad>0</ns3:cad>
          </ns3:TrackPointExtension>
        </extensions>
      </trkpt>
      <trkpt lat="44.67755162157118320465087890625" lon="6.82093690149486064910888671875">
        <ele>2270.60009765625</ele>
        <time>2026-08-31T06:37:33.000Z</time>
        <extensions>
          <ns3:TrackPointExtension>
            <ns3:hr>165</ns3:hr>
            <ns3:cad>0</ns3:cad>
          </ns3:TrackPointExtension>
        </extensions>
      </trkpt>
      <trkpt lat="44.67756570316851139068603515625" lon="6.8209394998848438262939453125">
        <ele>2270.800048828125</ele>
        <time>2026-08-31T06:37:34.000Z</time>
        <extensions>
          <ns3:TrackPointExtension>
            <ns3:hr>166</ns3:hr>
            <ns3:cad>0</ns3:cad>
          </ns3:TrackPointExtension>
        </extensions>
      </trkpt>
      <trkpt lat="44.67757307924330234527587890625" lon="6.8209348060190677642822265625">
        <ele>2271</ele>
        <time>2026-08-31T06:37:35.000Z</time>
        <extensions>
          <ns3:TrackPointExtension>
            <ns3:hr>168</ns3:hr>
            <ns3:cad>0</ns3:cad>
          </ns3:TrackPointExtension>
        </extensions>
      </trkpt>
      <trkpt lat="44.67758649028837680816650390625" lon="6.82093421928584575653076171875">
        <ele>2271.199951171875</ele>
        <time>2026-08-31T06:37:36.000Z</time>
        <extensions>
          <ns3:TrackPointExtension>
            <ns3:hr>170</ns3:hr>
            <ns3:cad>0</ns3:cad>
          </ns3:TrackPointExtension>
        </extensions>
      </trkpt>
      <trkpt lat="44.6775969676673412322998046875" lon="6.8209312856197357177734375">
        <ele>2271.39990234375</ele>
        <time>2026-08-31T06:37:37.000Z</time>
        <extensions>
          <ns3:TrackPointExtension>
            <ns3:hr>170</ns3:hr>
            <ns3:cad>0</ns3:cad>
          </ns3:TrackPointExtension>
        </extensions>
      </trkpt>
      <trkpt lat="44.67761146835982799530029296875" lon="6.8209257535636425018310546875">
        <ele>2271.60009765625</ele>
        <time>2026-08-31T06:37:38.000Z</time>
        <extensions>
          <ns3:TrackPointExtension>
            <ns3:hr>171</ns3:hr>
            <ns3:cad>0</ns3:cad>
          </ns3:TrackPointExtension>
        </extensions>
      </trkpt>
      <trkpt lat="44.67762186191976070404052734375" lon="6.82092466391623020172119140625">
        <ele>2271.800048828125</ele>
        <time>2026-08-31T06:37:39.000Z</time>
        <extensions>
          <ns3:TrackPointExtension>
            <ns3:hr>171</ns3:hr>
            <ns3:cad>0</ns3:cad>
          </ns3:TrackPointExtension>
        </extensions>
      </trkpt>
      <trkpt lat="44.677627980709075927734375" lon="6.82092281989753246307373046875">
        <ele>2272</ele>
        <time>2026-08-31T06:37:40.000Z</time>
        <extensions>
          <ns3:TrackPointExtension>
            <ns3:hr>171</ns3:hr>
            <ns3:cad>0</ns3:cad>
          </ns3:TrackPointExtension>
        </extensions>
      </trkpt>
      <trkpt lat="44.6776398830115795135498046875" lon="6.82092064060270786285400390625">
        <ele>2272.199951171875</ele>
        <time>2026-08-31T06:37:41.000Z</time>
        <extensions>
          <ns3:TrackPointExtension>
            <ns3:hr>171</ns3:hr>
            <ns3:cad>0</ns3:cad>
          </ns3:TrackPointExtension>
        </extensions>
      </trkpt>
      <trkpt lat="44.6776452474296092987060546875" lon="6.82092080824077129364013671875">
        <ele>2272.39990234375</ele>
        <time>2026-08-31T06:37:42.000Z</time>
        <extensions>
          <ns3:TrackPointExtension>
            <ns3:hr>171</ns3:hr>
            <ns3:cad>0</ns3:cad>
          </ns3:TrackPointExtension>
        </extensions>
      </trkpt>
      <trkpt lat="44.67765941284596920013427734375" lon="6.82092265225946903228759765625">
        <ele>2272.60009765625</ele>
        <time>2026-08-31T06:37:43.000Z</time>
        <extensions>
          <ns3:TrackPointExtension>
            <ns3:hr>172</ns3:hr>
            <ns3:cad>53</ns3:cad>
          </ns3:TrackPointExtension>
        </extensions>
      </trkpt>
      <trkpt lat="44.6776667051017284393310546875" lon="6.82092189788818359375">
        <ele>2272.800048828125</ele>
        <time>2026-08-31T06:37:44.000Z</time>
        <extensions>
          <ns3:TrackPointExtension>
            <ns3:hr>172</ns3:hr>
            <ns3:cad>53</ns3:cad>
          </ns3:TrackPointExtension>
        </extensions>
      </trkpt>
      <trkpt lat="44.67767718248069286346435546875" lon="6.8209210596978664398193359375">
        <ele>2273</ele>
        <time>2026-08-31T06:37:45.000Z</time>
        <extensions>
          <ns3:TrackPointExtension>
            <ns3:hr>172</ns3:hr>
            <ns3:cad>53</ns3:cad>
          </ns3:TrackPointExtension>
        </extensions>
      </trkpt>
      <trkpt lat="44.677685312926769256591796875" lon="6.82091795839369297027587890625">
        <ele>2273.199951171875</ele>
        <time>2026-08-31T06:37:46.000Z</time>
        <extensions>
          <ns3:TrackPointExtension>
            <ns3:hr>172</ns3:hr>
            <ns3:cad>53</ns3:cad>
          </ns3:TrackPointExtension>
        </extensions>
      </trkpt>
      <trkpt lat="44.677696712315082550048828125" lon="6.82091318070888519287109375">
        <ele>2273.39990234375</ele>
        <time>2026-08-31T06:37:47.000Z</time>
        <extensions>
          <ns3:TrackPointExtension>
            <ns3:hr>172</ns3:hr>
            <ns3:cad>53</ns3:cad>
          </ns3:TrackPointExtension>
        </extensions>
      </trkpt>
      <trkpt lat="44.6777042560279369354248046875" lon="6.82090957649052143096923828125">
        <ele>2273.60009765625</ele>
        <time>2026-08-31T06:37:48.000Z</time>
        <extensions>
          <ns3:TrackPointExtension>
            <ns3:hr>173</ns3:hr>
            <ns3:cad>53</ns3:cad>
          </ns3:TrackPointExtension>
        </extensions>
      </trkpt>
      <trkpt lat="44.67771288938820362091064453125" lon="6.8209059722721576690673828125">
        <ele>2273.800048828125</ele>
        <time>2026-08-31T06:37:49.000Z</time>
        <extensions>
          <ns3:TrackPointExtension>
            <ns3:hr>173</ns3:hr>
            <ns3:cad>0</ns3:cad>
          </ns3:TrackPointExtension>
        </extensions>
      </trkpt>
      <trkpt lat="44.67772479169070720672607421875" lon="6.82090102694928646087646484375">
        <ele>2274</ele>
        <time>2026-08-31T06:37:50.000Z</time>
        <extensions>
          <ns3:TrackPointExtension>
            <ns3:hr>173</ns3:hr>
            <ns3:cad>0</ns3:cad>
          </ns3:TrackPointExtension>
        </extensions>
      </trkpt>
      <trkpt lat="44.67773501761257648468017578125" lon="6.82089976966381072998046875">
        <ele>2274.199951171875</ele>
        <time>2026-08-31T06:37:51.000Z</time>
        <extensions>
          <ns3:TrackPointExtension>
            <ns3:hr>174</ns3:hr>
            <ns3:cad>0</ns3:cad>
          </ns3:TrackPointExtension>
        </extensions>
      </trkpt>
      <trkpt lat="44.6777458302676677703857421875" lon="6.8208965845406055450439453125">
        <ele>2274.39990234375</ele>
        <time>2026-08-31T06:37:52.000Z</time>
        <extensions>
          <ns3:TrackPointExtension>
            <ns3:hr>174</ns3:hr>
            <ns3:cad>0</ns3:cad>
          </ns3:TrackPointExtension>
        </extensions>
      </trkpt>
      <trkpt lat="44.67775278724730014801025390625" lon="6.8208937346935272216796875">
        <ele>2274.60009765625</ele>
        <time>2026-08-31T06:37:53.000Z</time>
        <extensions>
          <ns3:TrackPointExtension>
            <ns3:hr>175</ns3:hr>
            <ns3:cad>0</ns3:cad>
          </ns3:TrackPointExtension>
        </extensions>
      </trkpt>
      <trkpt lat="44.67776167206466197967529296875" lon="6.82089029811322689056396484375">
        <ele>2274.800048828125</ele>
        <time>2026-08-31T06:37:54.000Z</time>
        <extensions>
          <ns3:TrackPointExtension>
            <ns3:hr>175</ns3:hr>
            <ns3:cad>0</ns3:cad>
          </ns3:TrackPointExtension>
        </extensions>
      </trkpt>
      <trkpt lat="44.677772484719753265380859375" lon="6.82088912464678287506103515625">
        <ele>2275</ele>
        <time>2026-08-31T06:37:55.000Z</time>
        <extensions>
          <ns3:TrackPointExtension>
            <ns3:hr>175</ns3:hr>
            <ns3:cad>0</ns3:cad>
          </ns3:TrackPointExtension>
        </extensions>
      </trkpt>
      <trkpt lat="44.67778396792709827423095703125" lon="6.8208898790180683135986328125">
        <ele>2275.199951171875</ele>
        <time>2026-08-31T06:37:56.000Z</time>
        <extensions>
          <ns3:TrackPointExtension>
            <ns3:hr>174</ns3:hr>
            <ns3:cad>0</ns3:cad>
          </ns3:TrackPointExtension>
        </extensions>
      </trkpt>
      <trkpt lat="44.67779494822025299072265625" lon="6.820895411074161529541015625">
        <ele>2275.39990234375</ele>
        <time>2026-08-31T06:37:57.000Z</time>
        <extensions>
          <ns3:TrackPointExtension>
            <ns3:hr>175</ns3:hr>
            <ns3:cad>0</ns3:cad>
          </ns3:TrackPointExtension>
        </extensions>
      </trkpt>
      <trkpt lat="44.6777920983731746673583984375" lon="6.82092080824077129364013671875">
        <ele>2275.39990234375</ele>
        <time>2026-08-31T06:37:58.000Z</time>
        <extensions>
          <ns3:TrackPointExtension>
            <ns3:hr>175</ns3:hr>
            <ns3:cad>0</ns3:cad>
          </ns3:TrackPointExtension>
        </extensions>
      </trkpt>
      <trkpt lat="44.67779167927801609039306640625" lon="6.82094193063676357269287109375">
        <ele>2275.60009765625</ele>
        <time>2026-08-31T06:37:59.000Z</time>
        <extensions>
          <ns3:TrackPointExtension>
            <ns3:hr>175</ns3:hr>
            <ns3:cad>0</ns3:cad>
          </ns3:TrackPointExtension>
        </extensions>
      </trkpt>
      <trkpt lat="44.6777870692312717437744140625" lon="6.82095433585345745086669921875">
        <ele>2275.800048828125</ele>
        <time>2026-08-31T06:38:00.000Z</time>
        <extensions>
          <ns3:TrackPointExtension>
            <ns3:hr>176</ns3:hr>
            <ns3:cad>0</ns3:cad>
          </ns3:TrackPointExtension>
        </extensions>
      </trkpt>
      <trkpt lat="44.677783884108066558837890625" lon="6.820957772433757781982421875">
        <ele>2276</ele>
        <time>2026-08-31T06:38:01.000Z</time>
        <extensions>
          <ns3:TrackPointExtension>
            <ns3:hr>177</ns3:hr>
            <ns3:cad>0</ns3:cad>
          </ns3:TrackPointExtension>
        </extensions>
      </trkpt>
      <trkpt lat="44.6777796931564807891845703125" lon="6.8209700100123882293701171875">
        <ele>2276.199951171875</ele>
        <time>2026-08-31T06:38:02.000Z</time>
        <extensions>
          <ns3:TrackPointExtension>
            <ns3:hr>177</ns3:hr>
            <ns3:cad>0</ns3:cad>
          </ns3:TrackPointExtension>
        </extensions>
      </trkpt>
      <trkpt lat="44.677778184413909912109375" lon="6.82097378186881542205810546875">
        <ele>2276.60009765625</ele>
        <time>2026-08-31T06:38:03.000Z</time>
        <extensions>
          <ns3:TrackPointExtension>
            <ns3:hr>177</ns3:hr>
            <ns3:cad>0</ns3:cad>
          </ns3:TrackPointExtension>
        </extensions>
      </trkpt>
      <trkpt lat="44.6777741611003875732421875" lon="6.82099155150353908538818359375">
        <ele>2276.60009765625</ele>
        <time>2026-08-31T06:38:04.000Z</time>
        <extensions>
          <ns3:TrackPointExtension>
            <ns3:hr>174</ns3:hr>
            <ns3:cad>0</ns3:cad>
          </ns3:TrackPointExtension>
        </extensions>
      </trkpt>
      <trkpt lat="44.67776871286332607269287109375" lon="6.82099641300737857818603515625">
        <ele>2277</ele>
        <time>2026-08-31T06:38:05.000Z</time>
        <extensions>
          <ns3:TrackPointExtension>
            <ns3:hr>171</ns3:hr>
            <ns3:cad>0</ns3:cad>
          </ns3:TrackPointExtension>
        </extensions>
      </trkpt>
      <trkpt lat="44.67776519246399402618408203125" lon="6.82100898586213588714599609375">
        <ele>2277.199951171875</ele>
        <time>2026-08-31T06:38:06.000Z</time>
        <extensions>
          <ns3:TrackPointExtension>
            <ns3:hr>169</ns3:hr>
            <ns3:cad>0</ns3:cad>
          </ns3:TrackPointExtension>
        </extensions>
      </trkpt>
      <trkpt lat="44.67776351608335971832275390625" lon="6.8210189603269100189208984375">
        <ele>2277.39990234375</ele>
        <time>2026-08-31T06:38:07.000Z</time>
        <extensions>
          <ns3:TrackPointExtension>
            <ns3:hr>169</ns3:hr>
            <ns3:cad>0</ns3:cad>
          </ns3:TrackPointExtension>
        </extensions>
      </trkpt>
      <trkpt lat="44.6777629293501377105712890625" lon="6.8210276775062084197998046875">
        <ele>2277.60009765625</ele>
        <time>2026-08-31T06:38:08.000Z</time>
        <extensions>
          <ns3:TrackPointExtension>
            <ns3:hr>169</ns3:hr>
            <ns3:cad>0</ns3:cad>
          </ns3:TrackPointExtension>
        </extensions>
      </trkpt>
      <trkpt lat="44.6777635999023914337158203125" lon="6.821047626435756683349609375">
        <ele>2277.800048828125</ele>
        <time>2026-08-31T06:38:09.000Z</time>
        <extensions>
          <ns3:TrackPointExtension>
            <ns3:hr>169</ns3:hr>
            <ns3:cad>0</ns3:cad>
          </ns3:TrackPointExtension>
        </extensions>
      </trkpt>
      <trkpt lat="44.6777639351785182952880859375" lon="6.8210581876337528228759765625">
        <ele>2277.800048828125</ele>
        <time>2026-08-31T06:38:10.000Z</time>
        <extensions>
          <ns3:TrackPointExtension>
            <ns3:hr>169</ns3:hr>
            <ns3:cad>0</ns3:cad>
          </ns3:TrackPointExtension>
        </extensions>
      </trkpt>
      <trkpt lat="44.67776410281658172607421875" lon="6.8210726045072078704833984375">
        <ele>2278</ele>
        <time>2026-08-31T06:38:11.000Z</time>
        <extensions>
          <ns3:TrackPointExtension>
            <ns3:hr>169</ns3:hr>
            <ns3:cad>0</ns3:cad>
          </ns3:TrackPointExtension>
        </extensions>
      </trkpt>
      <trkpt lat="44.67775865457952022552490234375" lon="6.82107956148684024810791015625">
        <ele>2278.199951171875</ele>
        <time>2026-08-31T06:38:12.000Z</time>
        <extensions>
          <ns3:TrackPointExtension>
            <ns3:hr>168</ns3:hr>
            <ns3:cad>0</ns3:cad>
          </ns3:TrackPointExtension>
        </extensions>
      </trkpt>
      <trkpt lat="44.67775530181825160980224609375" lon="6.82109381072223186492919921875">
        <ele>2278.39990234375</ele>
        <time>2026-08-31T06:38:13.000Z</time>
        <extensions>
          <ns3:TrackPointExtension>
            <ns3:hr>168</ns3:hr>
            <ns3:cad>0</ns3:cad>
          </ns3:TrackPointExtension>
        </extensions>
      </trkpt>
      <trkpt lat="44.67775513418018817901611328125" lon="6.82110638357698917388916015625">
        <ele>2278.60009765625</ele>
        <time>2026-08-31T06:38:14.000Z</time>
        <extensions>
          <ns3:TrackPointExtension>
            <ns3:hr>168</ns3:hr>
            <ns3:cad>0</ns3:cad>
          </ns3:TrackPointExtension>
        </extensions>
      </trkpt>
      <trkpt lat="44.6777545474469661712646484375" lon="6.8211081437766551971435546875">
        <ele>2278.800048828125</ele>
        <time>2026-08-31T06:38:15.000Z</time>
        <extensions>
          <ns3:TrackPointExtension>
            <ns3:hr>168</ns3:hr>
            <ns3:cad>0</ns3:cad>
          </ns3:TrackPointExtension>
        </extensions>
      </trkpt>
      <trkpt lat="44.67775228433310985565185546875" lon="6.82112465612590312957763671875">
        <ele>2279</ele>
        <time>2026-08-31T06:38:16.000Z</time>
        <extensions>
          <ns3:TrackPointExtension>
            <ns3:hr>168</ns3:hr>
            <ns3:cad>0</ns3:cad>
          </ns3:TrackPointExtension>
        </extensions>
      </trkpt>
      <trkpt lat="44.67774742282927036285400390625" lon="6.8211282603442668914794921875">
        <ele>2279.199951171875</ele>
        <time>2026-08-31T06:38:17.000Z</time>
        <extensions>
          <ns3:TrackPointExtension>
            <ns3:hr>168</ns3:hr>
            <ns3:cad>0</ns3:cad>
          </ns3:TrackPointExtension>
        </extensions>
      </trkpt>
      <trkpt lat="44.67774759046733379364013671875" lon="6.8211426772177219390869140625">
        <ele>2279.39990234375</ele>
        <time>2026-08-31T06:38:18.000Z</time>
        <extensions>
          <ns3:TrackPointExtension>
            <ns3:hr>168</ns3:hr>
            <ns3:cad>0</ns3:cad>
          </ns3:TrackPointExtension>
        </extensions>
      </trkpt>
      <trkpt lat="44.6777458302676677703857421875" lon="6.82115600444376468658447265625">
        <ele>2279.60009765625</ele>
        <time>2026-08-31T06:38:19.000Z</time>
        <extensions>
          <ns3:TrackPointExtension>
            <ns3:hr>167</ns3:hr>
            <ns3:cad>0</ns3:cad>
          </ns3:TrackPointExtension>
        </extensions>
      </trkpt>
      <trkpt lat="44.67774088494479656219482421875" lon="6.82117109186947345733642578125">
        <ele>2279.800048828125</ele>
        <time>2026-08-31T06:38:20.000Z</time>
        <extensions>
          <ns3:TrackPointExtension>
            <ns3:hr>167</ns3:hr>
            <ns3:cad>0</ns3:cad>
          </ns3:TrackPointExtension>
        </extensions>
      </trkpt>
      <trkpt lat="44.677738957107067108154296875" lon="6.82118416763842105865478515625">
        <ele>2280</ele>
        <time>2026-08-31T06:38:21.000Z</time>
        <extensions>
          <ns3:TrackPointExtension>
            <ns3:hr>167</ns3:hr>
            <ns3:cad>0</ns3:cad>
          </ns3:TrackPointExtension>
        </extensions>
      </trkpt>
      <trkpt lat="44.67773736454546451568603515625" lon="6.8211892805993556976318359375">
        <ele>2280.199951171875</ele>
        <time>2026-08-31T06:38:22.000Z</time>
        <extensions>
          <ns3:TrackPointExtension>
            <ns3:hr>165</ns3:hr>
            <ns3:cad>0</ns3:cad>
          </ns3:TrackPointExtension>
        </extensions>
      </trkpt>
      <trkpt lat="44.67773384414613246917724609375" lon="6.82120394892990589141845703125">
        <ele>2280.39990234375</ele>
        <time>2026-08-31T06:38:23.000Z</time>
        <extensions>
          <ns3:TrackPointExtension>
            <ns3:hr>164</ns3:hr>
            <ns3:cad>50</ns3:cad>
          </ns3:TrackPointExtension>
        </extensions>
      </trkpt>
      <trkpt lat="44.6777297370135784149169921875" lon="6.821216605603694915771484375">
        <ele>2280.39990234375</ele>
        <time>2026-08-31T06:38:24.000Z</time>
        <extensions>
          <ns3:TrackPointExtension>
            <ns3:hr>164</ns3:hr>
            <ns3:cad>50</ns3:cad>
          </ns3:TrackPointExtension>
        </extensions>
      </trkpt>
      <trkpt lat="44.677725546061992645263671875" lon="6.82123077102005481719970703125">
        <ele>2280.60009765625</ele>
        <time>2026-08-31T06:38:25.000Z</time>
        <extensions>
          <ns3:TrackPointExtension>
            <ns3:hr>164</ns3:hr>
            <ns3:cad>50</ns3:cad>
          </ns3:TrackPointExtension>
        </extensions>
      </trkpt>
      <trkpt lat="44.67772252857685089111328125" lon="6.82124384678900241851806640625">
        <ele>2280.800048828125</ele>
        <time>2026-08-31T06:38:26.000Z</time>
        <extensions>
          <ns3:TrackPointExtension>
            <ns3:hr>165</ns3:hr>
            <ns3:cad>0</ns3:cad>
          </ns3:TrackPointExtension>
        </extensions>
      </trkpt>
      <trkpt lat="44.67772160656750202178955078125" lon="6.82125306688249111175537109375">
        <ele>2281</ele>
        <time>2026-08-31T06:38:27.000Z</time>
        <extensions>
          <ns3:TrackPointExtension>
            <ns3:hr>165</ns3:hr>
            <ns3:cad>0</ns3:cad>
          </ns3:TrackPointExtension>
        </extensions>
      </trkpt>
      <trkpt lat="44.677718840539455413818359375" lon="6.82126714847981929779052734375">
        <ele>2281.199951171875</ele>
        <time>2026-08-31T06:38:28.000Z</time>
        <extensions>
          <ns3:TrackPointExtension>
            <ns3:hr>165</ns3:hr>
            <ns3:cad>0</ns3:cad>
          </ns3:TrackPointExtension>
        </extensions>
      </trkpt>
      <trkpt lat="44.67771791853010654449462890625" lon="6.8212771229445934295654296875">
        <ele>2281.39990234375</ele>
        <time>2026-08-31T06:38:29.000Z</time>
        <extensions>
          <ns3:TrackPointExtension>
            <ns3:hr>165</ns3:hr>
            <ns3:cad>0</ns3:cad>
          </ns3:TrackPointExtension>
        </extensions>
      </trkpt>
      <trkpt lat="44.67771573923528194427490234375" lon="6.8212891928851604461669921875">
        <ele>2281.60009765625</ele>
        <time>2026-08-31T06:38:30.000Z</time>
        <extensions>
          <ns3:TrackPointExtension>
            <ns3:hr>166</ns3:hr>
            <ns3:cad>0</ns3:cad>
          </ns3:TrackPointExtension>
        </extensions>
      </trkpt>
      <trkpt lat="44.67771272175014019012451171875" lon="6.821300089359283447265625">
        <ele>2281.800048828125</ele>
        <time>2026-08-31T06:38:31.000Z</time>
        <extensions>
          <ns3:TrackPointExtension>
            <ns3:hr>167</ns3:hr>
            <ns3:cad>0</ns3:cad>
          </ns3:TrackPointExtension>
        </extensions>
      </trkpt>
      <trkpt lat="44.67771087773144245147705078125" lon="6.82131593115627765655517578125">
        <ele>2282</ele>
        <time>2026-08-31T06:38:32.000Z</time>
        <extensions>
          <ns3:TrackPointExtension>
            <ns3:hr>167</ns3:hr>
            <ns3:cad>0</ns3:cad>
          </ns3:TrackPointExtension>
        </extensions>
      </trkpt>
      <trkpt lat="44.677708446979522705078125" lon="6.82133202441036701202392578125">
        <ele>2282.199951171875</ele>
        <time>2026-08-31T06:38:33.000Z</time>
        <extensions>
          <ns3:TrackPointExtension>
            <ns3:hr>167</ns3:hr>
            <ns3:cad>0</ns3:cad>
          </ns3:TrackPointExtension>
        </extensions>
      </trkpt>
      <trkpt lat="44.677705429494380950927734375" lon="6.82134795002639293670654296875">
        <ele>2282.39990234375</ele>
        <time>2026-08-31T06:38:34.000Z</time>
        <extensions>
          <ns3:TrackPointExtension>
            <ns3:hr>168</ns3:hr>
            <ns3:cad>0</ns3:cad>
          </ns3:TrackPointExtension>
        </extensions>
      </trkpt>
      <trkpt lat="44.67770107090473175048828125" lon="6.82136001996695995330810546875">
        <ele>2282.60009765625</ele>
        <time>2026-08-31T06:38:35.000Z</time>
        <extensions>
          <ns3:TrackPointExtension>
            <ns3:hr>167</ns3:hr>
            <ns3:cad>0</ns3:cad>
          </ns3:TrackPointExtension>
        </extensions>
      </trkpt>
      <trkpt lat="44.67769570648670196533203125" lon="6.82135985232889652252197265625">
        <ele>2282.800048828125</ele>
        <time>2026-08-31T06:38:36.000Z</time>
        <extensions>
          <ns3:TrackPointExtension>
            <ns3:hr>167</ns3:hr>
            <ns3:cad>0</ns3:cad>
          </ns3:TrackPointExtension>
        </extensions>
      </trkpt>
      <trkpt lat="44.67769562266767024993896484375" lon="6.82135985232889652252197265625">
        <ele>2283</ele>
        <time>2026-08-31T06:38:37.000Z</time>
        <extensions>
          <ns3:TrackPointExtension>
            <ns3:hr>168</ns3:hr>
            <ns3:cad>0</ns3:cad>
          </ns3:TrackPointExtension>
        </extensions>
      </trkpt>
      <trkpt lat="44.67769143171608448028564453125" lon="6.82136739604175090789794921875">
        <ele>2283.199951171875</ele>
        <time>2026-08-31T06:38:38.000Z</time>
        <extensions>
          <ns3:TrackPointExtension>
            <ns3:hr>168</ns3:hr>
            <ns3:cad>0</ns3:cad>
          </ns3:TrackPointExtension>
        </extensions>
      </trkpt>
      <trkpt lat="44.677687995135784149169921875" lon="6.821385920047760009765625">
        <ele>2283.39990234375</ele>
        <time>2026-08-31T06:38:39.000Z</time>
        <extensions>
          <ns3:TrackPointExtension>
            <ns3:hr>168</ns3:hr>
            <ns3:cad>0</ns3:cad>
          </ns3:TrackPointExtension>
        </extensions>
      </trkpt>
      <trkpt lat="44.67768707312643527984619140625" lon="6.8214008398354053497314453125">
        <ele>2283.60009765625</ele>
        <time>2026-08-31T06:38:40.000Z</time>
        <extensions>
          <ns3:TrackPointExtension>
            <ns3:hr>169</ns3:hr>
            <ns3:cad>0</ns3:cad>
          </ns3:TrackPointExtension>
        </extensions>
      </trkpt>
      <trkpt lat="44.677681624889373779296875" lon="6.82140930555760860443115234375">
        <ele>2283.800048828125</ele>
        <time>2026-08-31T06:38:41.000Z</time>
        <extensions>
          <ns3:TrackPointExtension>
            <ns3:hr>169</ns3:hr>
            <ns3:cad>0</ns3:cad>
          </ns3:TrackPointExtension>
        </extensions>
      </trkpt>
      <trkpt lat="44.67767735011875629425048828125" lon="6.82142137549817562103271484375">
        <ele>2284</ele>
        <time>2026-08-31T06:38:42.000Z</time>
        <extensions>
          <ns3:TrackPointExtension>
            <ns3:hr>169</ns3:hr>
            <ns3:cad>0</ns3:cad>
          </ns3:TrackPointExtension>
        </extensions>
      </trkpt>
      <trkpt lat="44.67767366208136081695556640625" lon="6.82142489589750766754150390625">
        <ele>2284.199951171875</ele>
        <time>2026-08-31T06:38:43.000Z</time>
        <extensions>
          <ns3:TrackPointExtension>
            <ns3:hr>170</ns3:hr>
            <ns3:cad>0</ns3:cad>
          </ns3:TrackPointExtension>
        </extensions>
      </trkpt>
      <trkpt lat="44.67766896821558475494384765625" lon="6.821437217295169830322265625">
        <ele>2284.199951171875</ele>
        <time>2026-08-31T06:38:44.000Z</time>
        <extensions>
          <ns3:TrackPointExtension>
            <ns3:hr>170</ns3:hr>
            <ns3:cad>0</ns3:cad>
          </ns3:TrackPointExtension>
        </extensions>
      </trkpt>
      <trkpt lat="44.67766745947301387786865234375" lon="6.82144685648381710052490234375">
        <ele>2284.39990234375</ele>
        <time>2026-08-31T06:38:45.000Z</time>
        <extensions>
          <ns3:TrackPointExtension>
            <ns3:hr>170</ns3:hr>
            <ns3:cad>0</ns3:cad>
          </ns3:TrackPointExtension>
        </extensions>
      </trkpt>
      <trkpt lat="44.67766712419688701629638671875" lon="6.821466386318206787109375">
        <ele>2284.60009765625</ele>
        <time>2026-08-31T06:38:46.000Z</time>
        <extensions>
          <ns3:TrackPointExtension>
            <ns3:hr>170</ns3:hr>
            <ns3:cad>0</ns3:cad>
          </ns3:TrackPointExtension>
        </extensions>
      </trkpt>
      <trkpt lat="44.67766645364463329315185546875" lon="6.82148315012454986572265625">
        <ele>2284.60009765625</ele>
        <time>2026-08-31T06:38:47.000Z</time>
        <extensions>
          <ns3:TrackPointExtension>
            <ns3:hr>170</ns3:hr>
            <ns3:cad>0</ns3:cad>
          </ns3:TrackPointExtension>
        </extensions>
      </trkpt>
      <trkpt lat="44.6776606701314449310302734375" lon="6.8214963935315608978271484375">
        <ele>2284.800048828125</ele>
        <time>2026-08-31T06:38:48.000Z</time>
        <extensions>
          <ns3:TrackPointExtension>
            <ns3:hr>169</ns3:hr>
            <ns3:cad>0</ns3:cad>
          </ns3:TrackPointExtension>
        </extensions>
      </trkpt>
      <trkpt lat="44.6776579879224300384521484375" lon="6.8215131573379039764404296875">
        <ele>2285</ele>
        <time>2026-08-31T06:38:49.000Z</time>
        <extensions>
          <ns3:TrackPointExtension>
            <ns3:hr>169</ns3:hr>
            <ns3:cad>76</ns3:cad>
          </ns3:TrackPointExtension>
        </extensions>
      </trkpt>
      <trkpt lat="44.67766041867434978485107421875" lon="6.82152195833623409271240234375">
        <ele>2285.199951171875</ele>
        <time>2026-08-31T06:38:50.000Z</time>
        <extensions>
          <ns3:TrackPointExtension>
            <ns3:hr>169</ns3:hr>
            <ns3:cad>76</ns3:cad>
          </ns3:TrackPointExtension>
        </extensions>
      </trkpt>
      <trkpt lat="44.677660502493381500244140625" lon="6.82153704576194286346435546875">
        <ele>2285.39990234375</ele>
        <time>2026-08-31T06:38:51.000Z</time>
        <extensions>
          <ns3:TrackPointExtension>
            <ns3:hr>169</ns3:hr>
            <ns3:cad>76</ns3:cad>
          </ns3:TrackPointExtension>
        </extensions>
      </trkpt>
      <trkpt lat="44.6776583231985569000244140625" lon="6.82155196554958820343017578125">
        <ele>2285.60009765625</ele>
        <time>2026-08-31T06:38:52.000Z</time>
        <extensions>
          <ns3:TrackPointExtension>
            <ns3:hr>168</ns3:hr>
            <ns3:cad>41</ns3:cad>
          </ns3:TrackPointExtension>
        </extensions>
      </trkpt>
      <trkpt lat="44.67765656299889087677001953125" lon="6.8215691484510898590087890625">
        <ele>2285.800048828125</ele>
        <time>2026-08-31T06:38:53.000Z</time>
        <extensions>
          <ns3:TrackPointExtension>
            <ns3:hr>167</ns3:hr>
            <ns3:cad>0</ns3:cad>
          </ns3:TrackPointExtension>
        </extensions>
      </trkpt>
      <trkpt lat="44.67765404842793941497802734375" lon="6.82158431969583034515380859375">
        <ele>2286</ele>
        <time>2026-08-31T06:38:54.000Z</time>
        <extensions>
          <ns3:TrackPointExtension>
            <ns3:hr>166</ns3:hr>
            <ns3:cad>0</ns3:cad>
          </ns3:TrackPointExtension>
        </extensions>
      </trkpt>
      <trkpt lat="44.677652455866336822509765625" lon="6.8215969763696193695068359375">
        <ele>2286.199951171875</ele>
        <time>2026-08-31T06:38:55.000Z</time>
        <extensions>
          <ns3:TrackPointExtension>
            <ns3:hr>165</ns3:hr>
            <ns3:cad>76</ns3:cad>
          </ns3:TrackPointExtension>
        </extensions>
      </trkpt>
      <trkpt lat="44.67765136621892452239990234375" lon="6.82161332108080387115478515625">
        <ele>2286.199951171875</ele>
        <time>2026-08-31T06:38:56.000Z</time>
        <extensions>
          <ns3:TrackPointExtension>
            <ns3:hr>164</ns3:hr>
            <ns3:cad>76</ns3:cad>
          </ns3:TrackPointExtension>
        </extensions>
      </trkpt>
      <trkpt lat="44.67764801345765590667724609375" lon="6.8216134048998355865478515625">
        <ele>2286.39990234375</ele>
        <time>2026-08-31T06:38:57.000Z</time>
        <extensions>
          <ns3:TrackPointExtension>
            <ns3:hr>164</ns3:hr>
            <ns3:cad>76</ns3:cad>
          </ns3:TrackPointExtension>
        </extensions>
      </trkpt>
      <trkpt lat="44.67764616943895816802978515625" lon="6.821632348001003265380859375">
        <ele>2286.60009765625</ele>
        <time>2026-08-31T06:38:58.000Z</time>
        <extensions>
          <ns3:TrackPointExtension>
            <ns3:hr>164</ns3:hr>
            <ns3:cad>0</ns3:cad>
          </ns3:TrackPointExtension>
        </extensions>
      </trkpt>
      <trkpt lat="44.67764616943895816802978515625" lon="6.821640394628047943115234375">
        <ele>2286.800048828125</ele>
        <time>2026-08-31T06:38:59.000Z</time>
        <extensions>
          <ns3:TrackPointExtension>
            <ns3:hr>164</ns3:hr>
            <ns3:cad>0</ns3:cad>
          </ns3:TrackPointExtension>
        </extensions>
      </trkpt>
      <trkpt lat="44.67764667235314846038818359375" lon="6.82165590114891529083251953125">
        <ele>2286.800048828125</ele>
        <time>2026-08-31T06:39:00.000Z</time>
        <extensions>
          <ns3:TrackPointExtension>
            <ns3:hr>164</ns3:hr>
            <ns3:cad>0</ns3:cad>
          </ns3:TrackPointExtension>
        </extensions>
      </trkpt>
      <trkpt lat="44.67764767818152904510498046875" lon="6.8216707371175289154052734375">
        <ele>2287</ele>
        <time>2026-08-31T06:39:01.000Z</time>
        <extensions>
          <ns3:TrackPointExtension>
            <ns3:hr>164</ns3:hr>
            <ns3:cad>0</ns3:cad>
          </ns3:TrackPointExtension>
        </extensions>
      </trkpt>
      <trkpt lat="44.67764935456216335296630859375" lon="6.82168607600033283233642578125">
        <ele>2287.199951171875</ele>
        <time>2026-08-31T06:39:02.000Z</time>
        <extensions>
          <ns3:TrackPointExtension>
            <ns3:hr>164</ns3:hr>
            <ns3:cad>0</ns3:cad>
          </ns3:TrackPointExtension>
        </extensions>
      </trkpt>
      <trkpt lat="44.67765186913311481475830078125" lon="6.82169848121702671051025390625">
        <ele>2287.39990234375</ele>
        <time>2026-08-31T06:39:03.000Z</time>
        <extensions>
          <ns3:TrackPointExtension>
            <ns3:hr>164</ns3:hr>
            <ns3:cad>0</ns3:cad>
          </ns3:TrackPointExtension>
        </extensions>
      </trkpt>
      <trkpt lat="44.6776556409895420074462890625" lon="6.821707449853420257568359375">
        <ele>2287.60009765625</ele>
        <time>2026-08-31T06:39:04.000Z</time>
        <extensions>
          <ns3:TrackPointExtension>
            <ns3:hr>164</ns3:hr>
            <ns3:cad>0</ns3:cad>
          </ns3:TrackPointExtension>
        </extensions>
      </trkpt>
      <trkpt lat="44.67766125686466693878173828125" lon="6.82171692140400409698486328125">
        <ele>2287.800048828125</ele>
        <time>2026-08-31T06:39:05.000Z</time>
        <extensions>
          <ns3:TrackPointExtension>
            <ns3:hr>163</ns3:hr>
            <ns3:cad>0</ns3:cad>
          </ns3:TrackPointExtension>
        </extensions>
      </trkpt>
      <trkpt lat="44.6776656992733478546142578125" lon="6.82172463275492191314697265625">
        <ele>2287.800048828125</ele>
        <time>2026-08-31T06:39:06.000Z</time>
        <extensions>
          <ns3:TrackPointExtension>
            <ns3:hr>164</ns3:hr>
            <ns3:cad>0</ns3:cad>
          </ns3:TrackPointExtension>
        </extensions>
      </trkpt>
      <trkpt lat="44.6776703931391239166259765625" lon="6.82174424640834331512451171875">
        <ele>2288</ele>
        <time>2026-08-31T06:39:07.000Z</time>
        <extensions>
          <ns3:TrackPointExtension>
            <ns3:hr>163</ns3:hr>
            <ns3:cad>0</ns3:cad>
          </ns3:TrackPointExtension>
        </extensions>
      </trkpt>
      <trkpt lat="44.67767483554780483245849609375" lon="6.8217538855969905853271484375">
        <ele>2288.199951171875</ele>
        <time>2026-08-31T06:39:08.000Z</time>
        <extensions>
          <ns3:TrackPointExtension>
            <ns3:hr>163</ns3:hr>
            <ns3:cad>0</ns3:cad>
          </ns3:TrackPointExtension>
        </extensions>
      </trkpt>
      <trkpt lat="44.6776834689080715179443359375" lon="6.82177324779331684112548828125">
        <ele>2288.39990234375</ele>
        <time>2026-08-31T06:39:09.000Z</time>
        <extensions>
          <ns3:TrackPointExtension>
            <ns3:hr>163</ns3:hr>
            <ns3:cad>0</ns3:cad>
          </ns3:TrackPointExtension>
        </extensions>
      </trkpt>
      <trkpt lat="44.6776871569454669952392578125" lon="6.82178699411451816558837890625">
        <ele>2288.39990234375</ele>
        <time>2026-08-31T06:39:10.000Z</time>
        <extensions>
          <ns3:TrackPointExtension>
            <ns3:hr>163</ns3:hr>
            <ns3:cad>0</ns3:cad>
          </ns3:TrackPointExtension>
        </extensions>
      </trkpt>
      <trkpt lat="44.6776891686022281646728515625" lon="6.82179571129381656646728515625">
        <ele>2288.60009765625</ele>
        <time>2026-08-31T06:39:11.000Z</time>
        <extensions>
          <ns3:TrackPointExtension>
            <ns3:hr>162</ns3:hr>
            <ns3:cad>0</ns3:cad>
          </ns3:TrackPointExtension>
        </extensions>
      </trkpt>
      <trkpt lat="44.6776918508112430572509765625" lon="6.82180845178663730621337890625">
        <ele>2288.800048828125</ele>
        <time>2026-08-31T06:39:12.000Z</time>
        <extensions>
          <ns3:TrackPointExtension>
            <ns3:hr>162</ns3:hr>
            <ns3:cad>0</ns3:cad>
          </ns3:TrackPointExtension>
        </extensions>
      </trkpt>
      <trkpt lat="44.67769394628703594207763671875" lon="6.8218142352998256683349609375">
        <ele>2289</ele>
        <time>2026-08-31T06:39:13.000Z</time>
        <extensions>
          <ns3:TrackPointExtension>
            <ns3:hr>162</ns3:hr>
            <ns3:cad>0</ns3:cad>
          </ns3:TrackPointExtension>
        </extensions>
      </trkpt>
      <trkpt lat="44.67769579030573368072509765625" lon="6.82182923890650272369384765625">
        <ele>2289.199951171875</ele>
        <time>2026-08-31T06:39:14.000Z</time>
        <extensions>
          <ns3:TrackPointExtension>
            <ns3:hr>162</ns3:hr>
            <ns3:cad>0</ns3:cad>
          </ns3:TrackPointExtension>
        </extensions>
      </trkpt>
      <trkpt lat="44.67769679613411426544189453125" lon="6.821839548647403717041015625">
        <ele>2289.39990234375</ele>
        <time>2026-08-31T06:39:15.000Z</time>
        <extensions>
          <ns3:TrackPointExtension>
            <ns3:hr>162</ns3:hr>
            <ns3:cad>0</ns3:cad>
          </ns3:TrackPointExtension>
        </extensions>
      </trkpt>
      <trkpt lat="44.677698723971843719482421875" lon="6.82185790501534938812255859375">
        <ele>2289.60009765625</ele>
        <time>2026-08-31T06:39:16.000Z</time>
        <extensions>
          <ns3:TrackPointExtension>
            <ns3:hr>161</ns3:hr>
            <ns3:cad>0</ns3:cad>
          </ns3:TrackPointExtension>
        </extensions>
      </trkpt>
      <trkpt lat="44.6777017414569854736328125" lon="6.8218722380697727203369140625">
        <ele>2289.800048828125</ele>
        <time>2026-08-31T06:39:17.000Z</time>
        <extensions>
          <ns3:TrackPointExtension>
            <ns3:hr>161</ns3:hr>
            <ns3:cad>0</ns3:cad>
          </ns3:TrackPointExtension>
        </extensions>
      </trkpt>
      <trkpt lat="44.67769972980022430419921875" lon="6.82188305072486400604248046875">
        <ele>2290</ele>
        <time>2026-08-31T06:39:18.000Z</time>
        <extensions>
          <ns3:TrackPointExtension>
            <ns3:hr>161</ns3:hr>
            <ns3:cad>0</ns3:cad>
          </ns3:TrackPointExtension>
        </extensions>
      </trkpt>
      <trkpt lat="44.67769947834312915802001953125" lon="6.8218968808650970458984375">
        <ele>2290.199951171875</ele>
        <time>2026-08-31T06:39:19.000Z</time>
        <extensions>
          <ns3:TrackPointExtension>
            <ns3:hr>162</ns3:hr>
            <ns3:cad>0</ns3:cad>
          </ns3:TrackPointExtension>
        </extensions>
      </trkpt>
      <trkpt lat="44.67770241200923919677734375" lon="6.82190350256860256195068359375">
        <ele>2290.39990234375</ele>
        <time>2026-08-31T06:39:20.000Z</time>
        <extensions>
          <ns3:TrackPointExtension>
            <ns3:hr>161</ns3:hr>
            <ns3:cad>0</ns3:cad>
          </ns3:TrackPointExtension>
        </extensions>
      </trkpt>
      <trkpt lat="44.67770115472376346588134765625" lon="6.82191423140466213226318359375">
        <ele>2290.39990234375</ele>
        <time>2026-08-31T06:39:21.000Z</time>
        <extensions>
          <ns3:TrackPointExtension>
            <ns3:hr>161</ns3:hr>
            <ns3:cad>0</ns3:cad>
          </ns3:TrackPointExtension>
        </extensions>
      </trkpt>
      <trkpt lat="44.67770115472376346588134765625" lon="6.82192026637494564056396484375">
        <ele>2290.60009765625</ele>
        <time>2026-08-31T06:39:22.000Z</time>
        <extensions>
          <ns3:TrackPointExtension>
            <ns3:hr>162</ns3:hr>
            <ns3:cad>0</ns3:cad>
          </ns3:TrackPointExtension>
        </extensions>
      </trkpt>
      <trkpt lat="44.67770199291408061981201171875" lon="6.82193602435290813446044921875">
        <ele>2290.800048828125</ele>
        <time>2026-08-31T06:39:23.000Z</time>
        <extensions>
          <ns3:TrackPointExtension>
            <ns3:hr>161</ns3:hr>
            <ns3:cad>0</ns3:cad>
          </ns3:TrackPointExtension>
        </extensions>
      </trkpt>
      <trkpt lat="44.67770299874246120452880859375" lon="6.8219470046460628509521484375">
        <ele>2291</ele>
        <time>2026-08-31T06:39:24.000Z</time>
        <extensions>
          <ns3:TrackPointExtension>
            <ns3:hr>161</ns3:hr>
            <ns3:cad>0</ns3:cad>
          </ns3:TrackPointExtension>
        </extensions>
      </trkpt>
      <trkpt lat="44.6777042560279369354248046875" lon="6.82196837849915027618408203125">
        <ele>2291.39990234375</ele>
        <time>2026-08-31T06:39:25.000Z</time>
        <extensions>
          <ns3:TrackPointExtension>
            <ns3:hr>161</ns3:hr>
            <ns3:cad>0</ns3:cad>
          </ns3:TrackPointExtension>
        </extensions>
      </trkpt>
      <trkpt lat="44.6777071058750152587890625" lon="6.82198363356292247772216796875">
        <ele>2291.60009765625</ele>
        <time>2026-08-31T06:39:26.000Z</time>
        <extensions>
          <ns3:TrackPointExtension>
            <ns3:hr>161</ns3:hr>
            <ns3:cad>0</ns3:cad>
          </ns3:TrackPointExtension>
        </extensions>
      </trkpt>
      <trkpt lat="44.677707441151142120361328125" lon="6.82199000380933284759521484375">
        <ele>2291.800048828125</ele>
        <time>2026-08-31T06:39:27.000Z</time>
        <extensions>
          <ns3:TrackPointExtension>
            <ns3:hr>161</ns3:hr>
            <ns3:cad>0</ns3:cad>
          </ns3:TrackPointExtension>
        </extensions>
      </trkpt>
      <trkpt lat="44.67771154828369617462158203125" lon="6.8220063485205173492431640625">
        <ele>2292</ele>
        <time>2026-08-31T06:39:28.000Z</time>
        <extensions>
          <ns3:TrackPointExtension>
            <ns3:hr>161</ns3:hr>
            <ns3:cad>0</ns3:cad>
          </ns3:TrackPointExtension>
        </extensions>
      </trkpt>
      <trkpt lat="44.6777139790356159210205078125" lon="6.82200911454856395721435546875">
        <ele>2292.199951171875</ele>
        <time>2026-08-31T06:39:29.000Z</time>
        <extensions>
          <ns3:TrackPointExtension>
            <ns3:hr>161</ns3:hr>
            <ns3:cad>0</ns3:cad>
          </ns3:TrackPointExtension>
        </extensions>
      </trkpt>
      <trkpt lat="44.6777136437594890594482421875" lon="6.82200944982469081878662109375">
        <ele>2292.39990234375</ele>
        <time>2026-08-31T06:39:30.000Z</time>
        <extensions>
          <ns3:TrackPointExtension>
            <ns3:hr>161</ns3:hr>
            <ns3:cad>0</ns3:cad>
          </ns3:TrackPointExtension>
        </extensions>
      </trkpt>
      <trkpt lat="44.67771506868302822113037109375" lon="6.8220261298120021820068359375">
        <ele>2292.800048828125</ele>
        <time>2026-08-31T06:39:31.000Z</time>
        <extensions>
          <ns3:TrackPointExtension>
            <ns3:hr>161</ns3:hr>
            <ns3:cad>0</ns3:cad>
          </ns3:TrackPointExtension>
        </extensions>
      </trkpt>
      <trkpt lat="44.6777193434536457061767578125" lon="6.822045408189296722412109375">
        <ele>2293</ele>
        <time>2026-08-31T06:39:32.000Z</time>
        <extensions>
          <ns3:TrackPointExtension>
            <ns3:hr>161</ns3:hr>
            <ns3:cad>0</ns3:cad>
          </ns3:TrackPointExtension>
        </extensions>
      </trkpt>
      <trkpt lat="44.67772185802459716796875" lon="6.82205772958695888519287109375">
        <ele>2293.199951171875</ele>
        <time>2026-08-31T06:39:33.000Z</time>
        <extensions>
          <ns3:TrackPointExtension>
            <ns3:hr>160</ns3:hr>
            <ns3:cad>0</ns3:cad>
          </ns3:TrackPointExtension>
        </extensions>
      </trkpt>
      <trkpt lat="44.67772252857685089111328125" lon="6.8220698833465576171875">
        <ele>2293.39990234375</ele>
        <time>2026-08-31T06:39:34.000Z</time>
        <extensions>
          <ns3:TrackPointExtension>
            <ns3:hr>160</ns3:hr>
            <ns3:cad>0</ns3:cad>
          </ns3:TrackPointExtension>
        </extensions>
      </trkpt>
      <trkpt lat="44.67772655189037322998046875" lon="6.8220797739923000335693359375">
        <ele>2293.60009765625</ele>
        <time>2026-08-31T06:39:35.000Z</time>
        <extensions>
          <ns3:TrackPointExtension>
            <ns3:hr>161</ns3:hr>
            <ns3:cad>0</ns3:cad>
          </ns3:TrackPointExtension>
        </extensions>
      </trkpt>
      <trkpt lat="44.6777273900806903839111328125" lon="6.82208421640098094940185546875">
        <ele>2293.800048828125</ele>
        <time>2026-08-31T06:39:36.000Z</time>
        <extensions>
          <ns3:TrackPointExtension>
            <ns3:hr>161</ns3:hr>
            <ns3:cad>0</ns3:cad>
          </ns3:TrackPointExtension>
        </extensions>
      </trkpt>
      <trkpt lat="44.67772747389972209930419921875" lon="6.822084300220012664794921875">
        <ele>2294</ele>
        <time>2026-08-31T06:39:37.000Z</time>
        <extensions>
          <ns3:TrackPointExtension>
            <ns3:hr>161</ns3:hr>
            <ns3:cad>0</ns3:cad>
          </ns3:TrackPointExtension>
        </extensions>
      </trkpt>
      <trkpt lat="44.6777294017374515533447265625" lon="6.82209360413253307342529296875">
        <ele>2294.199951171875</ele>
        <time>2026-08-31T06:39:38.000Z</time>
        <extensions>
          <ns3:TrackPointExtension>
            <ns3:hr>161</ns3:hr>
            <ns3:cad>0</ns3:cad>
          </ns3:TrackPointExtension>
        </extensions>
      </trkpt>
      <trkpt lat="44.677734263241291046142578125" lon="6.8221086077392101287841796875">
        <ele>2294.39990234375</ele>
        <time>2026-08-31T06:39:39.000Z</time>
        <extensions>
          <ns3:TrackPointExtension>
            <ns3:hr>161</ns3:hr>
            <ns3:cad>0</ns3:cad>
          </ns3:TrackPointExtension>
        </extensions>
      </trkpt>
      <trkpt lat="44.6777371130883693695068359375" lon="6.822120510041713714599609375">
        <ele>2294.60009765625</ele>
        <time>2026-08-31T06:39:40.000Z</time>
        <extensions>
          <ns3:TrackPointExtension>
            <ns3:hr>161</ns3:hr>
            <ns3:cad>0</ns3:cad>
          </ns3:TrackPointExtension>
        </extensions>
      </trkpt>
      <trkpt lat="44.67773853801190853118896484375" lon="6.82212822139263153076171875">
        <ele>2294.800048828125</ele>
        <time>2026-08-31T06:39:41.000Z</time>
        <extensions>
          <ns3:TrackPointExtension>
            <ns3:hr>161</ns3:hr>
            <ns3:cad>0</ns3:cad>
          </ns3:TrackPointExtension>
        </extensions>
      </trkpt>
      <trkpt lat="44.67774272896349430084228515625" lon="6.82214003987610340118408203125">
        <ele>2295</ele>
        <time>2026-08-31T06:39:42.000Z</time>
        <extensions>
          <ns3:TrackPointExtension>
            <ns3:hr>162</ns3:hr>
            <ns3:cad>0</ns3:cad>
          </ns3:TrackPointExtension>
        </extensions>
      </trkpt>
      <trkpt lat="44.67774641700088977813720703125" lon="6.82214423082768917083740234375">
        <ele>2295.199951171875</ele>
        <time>2026-08-31T06:39:43.000Z</time>
        <extensions>
          <ns3:TrackPointExtension>
            <ns3:hr>162</ns3:hr>
            <ns3:cad>0</ns3:cad>
          </ns3:TrackPointExtension>
        </extensions>
      </trkpt>
      <trkpt lat="44.677751697599887847900390625" lon="6.8221558816730976104736328125">
        <ele>2295.39990234375</ele>
        <time>2026-08-31T06:39:44.000Z</time>
        <extensions>
          <ns3:TrackPointExtension>
            <ns3:hr>162</ns3:hr>
            <ns3:cad>0</ns3:cad>
          </ns3:TrackPointExtension>
        </extensions>
      </trkpt>
      <trkpt lat="44.6777558885514736175537109375" lon="6.82216401211917400360107421875">
        <ele>2295.60009765625</ele>
        <time>2026-08-31T06:39:45.000Z</time>
        <extensions>
          <ns3:TrackPointExtension>
            <ns3:hr>162</ns3:hr>
            <ns3:cad>0</ns3:cad>
          </ns3:TrackPointExtension>
        </extensions>
      </trkpt>
      <trkpt lat="44.67775764875113964080810546875" lon="6.82217356748878955841064453125">
        <ele>2295.800048828125</ele>
        <time>2026-08-31T06:39:46.000Z</time>
        <extensions>
          <ns3:TrackPointExtension>
            <ns3:hr>162</ns3:hr>
            <ns3:cad>0</ns3:cad>
          </ns3:TrackPointExtension>
        </extensions>
      </trkpt>
      <trkpt lat="44.677762091159820556640625" lon="6.822180189192295074462890625">
        <ele>2296</ele>
        <time>2026-08-31T06:39:47.000Z</time>
        <extensions>
          <ns3:TrackPointExtension>
            <ns3:hr>161</ns3:hr>
            <ns3:cad>0</ns3:cad>
          </ns3:TrackPointExtension>
        </extensions>
      </trkpt>
      <trkpt lat="44.67776477336883544921875" lon="6.822190918028354644775390625">
        <ele>2296.39990234375</ele>
        <time>2026-08-31T06:39:48.000Z</time>
        <extensions>
          <ns3:TrackPointExtension>
            <ns3:hr>162</ns3:hr>
            <ns3:cad>0</ns3:cad>
          </ns3:TrackPointExtension>
        </extensions>
      </trkpt>
      <trkpt lat="44.67777022160589694976806640625" lon="6.82219929993152618408203125">
        <ele>2296.60009765625</ele>
        <time>2026-08-31T06:39:49.000Z</time>
        <extensions>
          <ns3:TrackPointExtension>
            <ns3:hr>162</ns3:hr>
            <ns3:cad>0</ns3:cad>
          </ns3:TrackPointExtension>
        </extensions>
      </trkpt>
      <trkpt lat="44.67777173034846782684326171875" lon="6.82220541872084140777587890625">
        <ele>2296.800048828125</ele>
        <time>2026-08-31T06:39:50.000Z</time>
        <extensions>
          <ns3:TrackPointExtension>
            <ns3:hr>161</ns3:hr>
            <ns3:cad>0</ns3:cad>
          </ns3:TrackPointExtension>
        </extensions>
      </trkpt>
      <trkpt lat="44.67777307145297527313232421875" lon="6.822211705148220062255859375">
        <ele>2297</ele>
        <time>2026-08-31T06:39:51.000Z</time>
        <extensions>
          <ns3:TrackPointExtension>
            <ns3:hr>161</ns3:hr>
            <ns3:cad>0</ns3:cad>
          </ns3:TrackPointExtension>
        </extensions>
      </trkpt>
      <trkpt lat="44.67777675949037075042724609375" lon="6.8222108669579029083251953125">
        <ele>2297.199951171875</ele>
        <time>2026-08-31T06:39:52.000Z</time>
        <extensions>
          <ns3:TrackPointExtension>
            <ns3:hr>161</ns3:hr>
            <ns3:cad>0</ns3:cad>
          </ns3:TrackPointExtension>
        </extensions>
      </trkpt>
      <trkpt lat="44.677779860794544219970703125" lon="6.82222335599362850189208984375">
        <ele>2297.39990234375</ele>
        <time>2026-08-31T06:39:53.000Z</time>
        <extensions>
          <ns3:TrackPointExtension>
            <ns3:hr>161</ns3:hr>
            <ns3:cad>0</ns3:cad>
          </ns3:TrackPointExtension>
        </extensions>
      </trkpt>
      <trkpt lat="44.6777827106416225433349609375" lon="6.82223157025873661041259765625">
        <ele>2297.60009765625</ele>
        <time>2026-08-31T06:39:54.000Z</time>
        <extensions>
          <ns3:TrackPointExtension>
            <ns3:hr>161</ns3:hr>
            <ns3:cad>0</ns3:cad>
          </ns3:TrackPointExtension>
        </extensions>
      </trkpt>
      <trkpt lat="44.6777870692312717437744140625" lon="6.82225185446441173553466796875">
        <ele>2297.800048828125</ele>
        <time>2026-08-31T06:39:55.000Z</time>
        <extensions>
          <ns3:TrackPointExtension>
            <ns3:hr>162</ns3:hr>
            <ns3:cad>0</ns3:cad>
          </ns3:TrackPointExtension>
        </extensions>
      </trkpt>
      <trkpt lat="44.67779201455414295196533203125" lon="6.8222638405859470367431640625">
        <ele>2298</ele>
        <time>2026-08-31T06:39:56.000Z</time>
        <extensions>
          <ns3:TrackPointExtension>
            <ns3:hr>162</ns3:hr>
            <ns3:cad>0</ns3:cad>
          </ns3:TrackPointExtension>
        </extensions>
      </trkpt>
      <trkpt lat="44.677793942391872406005859375" lon="6.8222785927355289459228515625">
        <ele>2298.39990234375</ele>
        <time>2026-08-31T06:39:57.000Z</time>
        <extensions>
          <ns3:TrackPointExtension>
            <ns3:hr>163</ns3:hr>
            <ns3:cad>0</ns3:cad>
          </ns3:TrackPointExtension>
        </extensions>
      </trkpt>
      <trkpt lat="44.67779763042926788330078125" lon="6.822287477552890777587890625">
        <ele>2298.60009765625</ele>
        <time>2026-08-31T06:39:58.000Z</time>
        <extensions>
          <ns3:TrackPointExtension>
            <ns3:hr>163</ns3:hr>
            <ns3:cad>0</ns3:cad>
          </ns3:TrackPointExtension>
        </extensions>
      </trkpt>
      <trkpt lat="44.67779922299087047576904296875" lon="6.82229141704738140106201171875">
        <ele>2298.800048828125</ele>
        <time>2026-08-31T06:39:59.000Z</time>
        <extensions>
          <ns3:TrackPointExtension>
            <ns3:hr>164</ns3:hr>
            <ns3:cad>0</ns3:cad>
          </ns3:TrackPointExtension>
        </extensions>
      </trkpt>
      <trkpt lat="44.67780441977083683013916015625" lon="6.82230516336858272552490234375">
        <ele>2299</ele>
        <time>2026-08-31T06:40:00.000Z</time>
        <extensions>
          <ns3:TrackPointExtension>
            <ns3:hr>164</ns3:hr>
            <ns3:cad>0</ns3:cad>
          </ns3:TrackPointExtension>
        </extensions>
      </trkpt>
      <trkpt lat="44.67780835926532745361328125" lon="6.82231354527175426483154296875">
        <ele>2299</ele>
        <time>2026-08-31T06:40:01.000Z</time>
        <extensions>
          <ns3:TrackPointExtension>
            <ns3:hr>165</ns3:hr>
            <ns3:cad>40</ns3:cad>
          </ns3:TrackPointExtension>
        </extensions>
      </trkpt>
      <trkpt lat="44.67781615443527698516845703125" lon="6.82232310064136981964111328125">
        <ele>2299.199951171875</ele>
        <time>2026-08-31T06:40:02.000Z</time>
        <extensions>
          <ns3:TrackPointExtension>
            <ns3:hr>165</ns3:hr>
            <ns3:cad>40</ns3:cad>
          </ns3:TrackPointExtension>
        </extensions>
      </trkpt>
      <trkpt lat="44.67782001011073589324951171875" lon="6.82233097963035106658935546875">
        <ele>2299.39990234375</ele>
        <time>2026-08-31T06:40:03.000Z</time>
        <extensions>
          <ns3:TrackPointExtension>
            <ns3:hr>166</ns3:hr>
            <ns3:cad>40</ns3:cad>
          </ns3:TrackPointExtension>
        </extensions>
      </trkpt>
      <trkpt lat="44.67782570980489253997802734375" lon="6.822339780628681182861328125">
        <ele>2299.60009765625</ele>
        <time>2026-08-31T06:40:04.000Z</time>
        <extensions>
          <ns3:TrackPointExtension>
            <ns3:hr>166</ns3:hr>
            <ns3:cad>40</ns3:cad>
          </ns3:TrackPointExtension>
        </extensions>
      </trkpt>
      <trkpt lat="44.67783073894679546356201171875" lon="6.82235126383602619171142578125">
        <ele>2299.800048828125</ele>
        <time>2026-08-31T06:40:05.000Z</time>
        <extensions>
          <ns3:TrackPointExtension>
            <ns3:hr>167</ns3:hr>
            <ns3:cad>40</ns3:cad>
          </ns3:TrackPointExtension>
        </extensions>
      </trkpt>
      <trkpt lat="44.67782638035714626312255859375" lon="6.8223483301699161529541015625">
        <ele>2300</ele>
        <time>2026-08-31T06:40:06.000Z</time>
        <extensions>
          <ns3:TrackPointExtension>
            <ns3:hr>167</ns3:hr>
            <ns3:cad>0</ns3:cad>
          </ns3:TrackPointExtension>
        </extensions>
      </trkpt>
      <trkpt lat="44.6778224408626556396484375" lon="6.822362579405307769775390625">
        <ele>2300.199951171875</ele>
        <time>2026-08-31T06:40:07.000Z</time>
        <extensions>
          <ns3:TrackPointExtension>
            <ns3:hr>167</ns3:hr>
            <ns3:cad>0</ns3:cad>
          </ns3:TrackPointExtension>
        </extensions>
      </trkpt>
      <trkpt lat="44.67782235704362392425537109375" lon="6.82237037457525730133056640625">
        <ele>2300.60009765625</ele>
        <time>2026-08-31T06:40:08.000Z</time>
        <extensions>
          <ns3:TrackPointExtension>
            <ns3:hr>167</ns3:hr>
            <ns3:cad>0</ns3:cad>
          </ns3:TrackPointExtension>
        </extensions>
      </trkpt>
      <trkpt lat="44.67782336287200450897216796875" lon="6.822384707629680633544921875">
        <ele>2300.800048828125</ele>
        <time>2026-08-31T06:40:09.000Z</time>
        <extensions>
          <ns3:TrackPointExtension>
            <ns3:hr>168</ns3:hr>
            <ns3:cad>0</ns3:cad>
          </ns3:TrackPointExtension>
        </extensions>
      </trkpt>
      <trkpt lat="44.67782336287200450897216796875" lon="6.8223932571709156036376953125">
        <ele>2301</ele>
        <time>2026-08-31T06:40:10.000Z</time>
        <extensions>
          <ns3:TrackPointExtension>
            <ns3:hr>168</ns3:hr>
            <ns3:cad>0</ns3:cad>
          </ns3:TrackPointExtension>
        </extensions>
      </trkpt>
      <trkpt lat="44.67782068066298961639404296875" lon="6.82240046560764312744140625">
        <ele>2301.199951171875</ele>
        <time>2026-08-31T06:40:11.000Z</time>
        <extensions>
          <ns3:TrackPointExtension>
            <ns3:hr>168</ns3:hr>
            <ns3:cad>0</ns3:cad>
          </ns3:TrackPointExtension>
        </extensions>
      </trkpt>
      <trkpt lat="44.6778199262917041778564453125" lon="6.8224100209772586822509765625">
        <ele>2301.39990234375</ele>
        <time>2026-08-31T06:40:12.000Z</time>
        <extensions>
          <ns3:TrackPointExtension>
            <ns3:hr>168</ns3:hr>
            <ns3:cad>0</ns3:cad>
          </ns3:TrackPointExtension>
        </extensions>
      </trkpt>
      <trkpt lat="44.67782001011073589324951171875" lon="6.82241999544203281402587890625">
        <ele>2301.60009765625</ele>
        <time>2026-08-31T06:40:13.000Z</time>
        <extensions>
          <ns3:TrackPointExtension>
            <ns3:hr>168</ns3:hr>
            <ns3:cad>0</ns3:cad>
          </ns3:TrackPointExtension>
        </extensions>
      </trkpt>
      <trkpt lat="44.677823446691036224365234375" lon="6.82243709452450275421142578125">
        <ele>2301.800048828125</ele>
        <time>2026-08-31T06:40:14.000Z</time>
        <extensions>
          <ns3:TrackPointExtension>
            <ns3:hr>167</ns3:hr>
            <ns3:cad>0</ns3:cad>
          </ns3:TrackPointExtension>
        </extensions>
      </trkpt>
      <trkpt lat="44.677822105586528778076171875" lon="6.822441034018993377685546875">
        <ele>2301.800048828125</ele>
        <time>2026-08-31T06:40:15.000Z</time>
        <extensions>
          <ns3:TrackPointExtension>
            <ns3:hr>167</ns3:hr>
            <ns3:cad>0</ns3:cad>
          </ns3:TrackPointExtension>
        </extensions>
      </trkpt>
      <trkpt lat="44.67781967483460903167724609375" lon="6.82245687581598758697509765625">
        <ele>2302</ele>
        <time>2026-08-31T06:40:16.000Z</time>
        <extensions>
          <ns3:TrackPointExtension>
            <ns3:hr>167</ns3:hr>
            <ns3:cad>0</ns3:cad>
          </ns3:TrackPointExtension>
        </extensions>
      </trkpt>
      <trkpt lat="44.67782017774879932403564453125" lon="6.82246827520430088043212890625">
        <ele>2302.199951171875</ele>
        <time>2026-08-31T06:40:17.000Z</time>
        <extensions>
          <ns3:TrackPointExtension>
            <ns3:hr>168</ns3:hr>
            <ns3:cad>0</ns3:cad>
          </ns3:TrackPointExtension>
        </extensions>
      </trkpt>
      <trkpt lat="44.677821099758148193359375" lon="6.82248772121965885162353515625">
        <ele>2302.39990234375</ele>
        <time>2026-08-31T06:40:18.000Z</time>
        <extensions>
          <ns3:TrackPointExtension>
            <ns3:hr>168</ns3:hr>
            <ns3:cad>0</ns3:cad>
          </ns3:TrackPointExtension>
        </extensions>
      </trkpt>
      <trkpt lat="44.67782168649137020111083984375" lon="6.82249945588409900665283203125">
        <ele>2302.60009765625</ele>
        <time>2026-08-31T06:40:19.000Z</time>
        <extensions>
          <ns3:TrackPointExtension>
            <ns3:hr>168</ns3:hr>
            <ns3:cad>0</ns3:cad>
          </ns3:TrackPointExtension>
        </extensions>
      </trkpt>
      <trkpt lat="44.6778237819671630859375" lon="6.82250146754086017608642578125">
        <ele>2302.800048828125</ele>
        <time>2026-08-31T06:40:20.000Z</time>
        <extensions>
          <ns3:TrackPointExtension>
            <ns3:hr>168</ns3:hr>
            <ns3:cad>0</ns3:cad>
          </ns3:TrackPointExtension>
        </extensions>
      </trkpt>
      <trkpt lat="44.6778251230716705322265625" lon="6.8225166387856006622314453125">
        <ele>2303</ele>
        <time>2026-08-31T06:40:21.000Z</time>
        <extensions>
          <ns3:TrackPointExtension>
            <ns3:hr>169</ns3:hr>
            <ns3:cad>0</ns3:cad>
          </ns3:TrackPointExtension>
        </extensions>
      </trkpt>
      <trkpt lat="44.67782403342425823211669921875" lon="6.82252979837357997894287109375">
        <ele>2303.199951171875</ele>
        <time>2026-08-31T06:40:22.000Z</time>
        <extensions>
          <ns3:TrackPointExtension>
            <ns3:hr>169</ns3:hr>
            <ns3:cad>0</ns3:cad>
          </ns3:TrackPointExtension>
        </extensions>
      </trkpt>
      <trkpt lat="44.67782285995781421661376953125" lon="6.82254840619862079620361328125">
        <ele>2303.39990234375</ele>
        <time>2026-08-31T06:40:23.000Z</time>
        <extensions>
          <ns3:TrackPointExtension>
            <ns3:hr>170</ns3:hr>
            <ns3:cad>0</ns3:cad>
          </ns3:TrackPointExtension>
        </extensions>
      </trkpt>
      <trkpt lat="44.6778242848813533782958984375" lon="6.82256399653851985931396484375">
        <ele>2303.60009765625</ele>
        <time>2026-08-31T06:40:24.000Z</time>
        <extensions>
          <ns3:TrackPointExtension>
            <ns3:hr>169</ns3:hr>
            <ns3:cad>0</ns3:cad>
          </ns3:TrackPointExtension>
        </extensions>
      </trkpt>
      <trkpt lat="44.67782822437584400177001953125" lon="6.8225808441638946533203125">
        <ele>2303.800048828125</ele>
        <time>2026-08-31T06:40:25.000Z</time>
        <extensions>
          <ns3:TrackPointExtension>
            <ns3:hr>168</ns3:hr>
            <ns3:cad>0</ns3:cad>
          </ns3:TrackPointExtension>
        </extensions>
      </trkpt>
      <trkpt lat="44.677827470004558563232421875" lon="6.8225846998393535614013671875">
        <ele>2304</ele>
        <time>2026-08-31T06:40:26.000Z</time>
        <extensions>
          <ns3:TrackPointExtension>
            <ns3:hr>167</ns3:hr>
            <ns3:cad>0</ns3:cad>
          </ns3:TrackPointExtension>
        </extensions>
      </trkpt>
      <trkpt lat="44.67782889492809772491455078125" lon="6.822589226067066192626953125">
        <ele>2304.199951171875</ele>
        <time>2026-08-31T06:40:27.000Z</time>
        <extensions>
          <ns3:TrackPointExtension>
            <ns3:hr>167</ns3:hr>
            <ns3:cad>0</ns3:cad>
          </ns3:TrackPointExtension>
        </extensions>
      </trkpt>
      <trkpt lat="44.67782956548035144805908203125" lon="6.8226014636456966400146484375">
        <ele>2304.60009765625</ele>
        <time>2026-08-31T06:40:28.000Z</time>
        <extensions>
          <ns3:TrackPointExtension>
            <ns3:hr>167</ns3:hr>
            <ns3:cad>0</ns3:cad>
          </ns3:TrackPointExtension>
        </extensions>
      </trkpt>
      <trkpt lat="44.67783115804195404052734375" lon="6.8226088397204875946044921875">
        <ele>2304.800048828125</ele>
        <time>2026-08-31T06:40:29.000Z</time>
        <extensions>
          <ns3:TrackPointExtension>
            <ns3:hr>167</ns3:hr>
            <ns3:cad>0</ns3:cad>
          </ns3:TrackPointExtension>
        </extensions>
      </trkpt>
      <trkpt lat="44.67783786356449127197265625" lon="6.8226356618106365203857421875">
        <ele>2305</ele>
        <time>2026-08-31T06:40:30.000Z</time>
        <extensions>
          <ns3:TrackPointExtension>
            <ns3:hr>167</ns3:hr>
            <ns3:cad>0</ns3:cad>
          </ns3:TrackPointExtension>
        </extensions>
      </trkpt>
      <trkpt lat="44.67784331180155277252197265625" lon="6.8226514197885990142822265625">
        <ele>2305.199951171875</ele>
        <time>2026-08-31T06:40:31.000Z</time>
        <extensions>
          <ns3:TrackPointExtension>
            <ns3:hr>167</ns3:hr>
            <ns3:cad>0</ns3:cad>
          </ns3:TrackPointExtension>
        </extensions>
      </trkpt>
      <trkpt lat="44.67784431762993335723876953125" lon="6.82265686802566051483154296875">
        <ele>2305.39990234375</ele>
        <time>2026-08-31T06:40:32.000Z</time>
        <extensions>
          <ns3:TrackPointExtension>
            <ns3:hr>167</ns3:hr>
            <ns3:cad>0</ns3:cad>
          </ns3:TrackPointExtension>
        </extensions>
      </trkpt>
      <trkpt lat="44.677847586572170257568359375" lon="6.8226691894233226776123046875">
        <ele>2305.39990234375</ele>
        <time>2026-08-31T06:40:33.000Z</time>
        <extensions>
          <ns3:TrackPointExtension>
            <ns3:hr>167</ns3:hr>
            <ns3:cad>0</ns3:cad>
          </ns3:TrackPointExtension>
        </extensions>
      </trkpt>
      <trkpt lat="44.6778480894863605499267578125" lon="6.82267229072749614715576171875">
        <ele>2305.60009765625</ele>
        <time>2026-08-31T06:40:34.000Z</time>
        <extensions>
          <ns3:TrackPointExtension>
            <ns3:hr>166</ns3:hr>
            <ns3:cad>0</ns3:cad>
          </ns3:TrackPointExtension>
        </extensions>
      </trkpt>
      <trkpt lat="44.67784901149570941925048828125" lon="6.8226893059909343719482421875">
        <ele>2305.800048828125</ele>
        <time>2026-08-31T06:40:35.000Z</time>
        <extensions>
          <ns3:TrackPointExtension>
            <ns3:hr>166</ns3:hr>
            <ns3:cad>0</ns3:cad>
          </ns3:TrackPointExtension>
        </extensions>
      </trkpt>
      <trkpt lat="44.67784993350505828857421875" lon="6.82269911281764507293701171875">
        <ele>2306</ele>
        <time>2026-08-31T06:40:36.000Z</time>
        <extensions>
          <ns3:TrackPointExtension>
            <ns3:hr>166</ns3:hr>
            <ns3:cad>0</ns3:cad>
          </ns3:TrackPointExtension>
        </extensions>
      </trkpt>
      <trkpt lat="44.6778497658669948577880859375" lon="6.8227057345211505889892578125">
        <ele>2306.199951171875</ele>
        <time>2026-08-31T06:40:37.000Z</time>
        <extensions>
          <ns3:TrackPointExtension>
            <ns3:hr>165</ns3:hr>
            <ns3:cad>0</ns3:cad>
          </ns3:TrackPointExtension>
        </extensions>
      </trkpt>
      <trkpt lat="44.67785102315247058868408203125" lon="6.8227144517004489898681640625">
        <ele>2306.60009765625</ele>
        <time>2026-08-31T06:40:38.000Z</time>
        <extensions>
          <ns3:TrackPointExtension>
            <ns3:hr>165</ns3:hr>
            <ns3:cad>0</ns3:cad>
          </ns3:TrackPointExtension>
        </extensions>
      </trkpt>
      <trkpt lat="44.67785471118986606597900390625" lon="6.82272501289844512939453125">
        <ele>2306.800048828125</ele>
        <time>2026-08-31T06:40:39.000Z</time>
        <extensions>
          <ns3:TrackPointExtension>
            <ns3:hr>165</ns3:hr>
            <ns3:cad>0</ns3:cad>
          </ns3:TrackPointExtension>
        </extensions>
      </trkpt>
      <trkpt lat="44.6778544597327709197998046875" lon="6.82272945530712604522705078125">
        <ele>2306.800048828125</ele>
        <time>2026-08-31T06:40:40.000Z</time>
        <extensions>
          <ns3:TrackPointExtension>
            <ns3:hr>164</ns3:hr>
            <ns3:cad>0</ns3:cad>
          </ns3:TrackPointExtension>
        </extensions>
      </trkpt>
      <trkpt lat="44.6778574772179126739501953125" lon="6.822746135294437408447265625">
        <ele>2307</ele>
        <time>2026-08-31T06:40:41.000Z</time>
        <extensions>
          <ns3:TrackPointExtension>
            <ns3:hr>164</ns3:hr>
            <ns3:cad>0</ns3:cad>
          </ns3:TrackPointExtension>
        </extensions>
      </trkpt>
      <trkpt lat="44.677855968475341796875" lon="6.8227516673505306243896484375">
        <ele>2307.199951171875</ele>
        <time>2026-08-31T06:40:42.000Z</time>
        <extensions>
          <ns3:TrackPointExtension>
            <ns3:hr>164</ns3:hr>
            <ns3:cad>0</ns3:cad>
          </ns3:TrackPointExtension>
        </extensions>
      </trkpt>
      <trkpt lat="44.67785387299954891204833984375" lon="6.82276482693850994110107421875">
        <ele>2307.39990234375</ele>
        <time>2026-08-31T06:40:43.000Z</time>
        <extensions>
          <ns3:TrackPointExtension>
            <ns3:hr>167</ns3:hr>
            <ns3:cad>0</ns3:cad>
          </ns3:TrackPointExtension>
        </extensions>
      </trkpt>
      <trkpt lat="44.6778546273708343505859375" lon="6.8227712810039520263671875">
        <ele>2307.60009765625</ele>
        <time>2026-08-31T06:40:44.000Z</time>
        <extensions>
          <ns3:TrackPointExtension>
            <ns3:hr>169</ns3:hr>
            <ns3:cad>0</ns3:cad>
          </ns3:TrackPointExtension>
        </extensions>
      </trkpt>
      <trkpt lat="44.67785521410405635833740234375" lon="6.82279265485703945159912109375">
        <ele>2307.800048828125</ele>
        <time>2026-08-31T06:40:45.000Z</time>
        <extensions>
          <ns3:TrackPointExtension>
            <ns3:hr>170</ns3:hr>
            <ns3:cad>0</ns3:cad>
          </ns3:TrackPointExtension>
        </extensions>
      </trkpt>
      <trkpt lat="44.67785655520856380462646484375" lon="6.8228043057024478912353515625">
        <ele>2308</ele>
        <time>2026-08-31T06:40:46.000Z</time>
        <extensions>
          <ns3:TrackPointExtension>
            <ns3:hr>171</ns3:hr>
            <ns3:cad>0</ns3:cad>
          </ns3:TrackPointExtension>
        </extensions>
      </trkpt>
      <trkpt lat="44.6778546273708343505859375" lon="6.82280858047306537628173828125">
        <ele>2308.199951171875</ele>
        <time>2026-08-31T06:40:47.000Z</time>
        <extensions>
          <ns3:TrackPointExtension>
            <ns3:hr>171</ns3:hr>
            <ns3:cad>0</ns3:cad>
          </ns3:TrackPointExtension>
        </extensions>
      </trkpt>
      <trkpt lat="44.6778544597327709197998046875" lon="6.82282517664134502410888671875">
        <ele>2308.39990234375</ele>
        <time>2026-08-31T06:40:48.000Z</time>
        <extensions>
          <ns3:TrackPointExtension>
            <ns3:hr>171</ns3:hr>
            <ns3:cad>0</ns3:cad>
          </ns3:TrackPointExtension>
        </extensions>
      </trkpt>
      <trkpt lat="44.67785395681858062744140625" lon="6.822829954326152801513671875">
        <ele>2308.60009765625</ele>
        <time>2026-08-31T06:40:49.000Z</time>
        <extensions>
          <ns3:TrackPointExtension>
            <ns3:hr>171</ns3:hr>
            <ns3:cad>0</ns3:cad>
          </ns3:TrackPointExtension>
        </extensions>
      </trkpt>
      <trkpt lat="44.67785337008535861968994140625" lon="6.82284864597022533416748046875">
        <ele>2308.800048828125</ele>
        <time>2026-08-31T06:40:50.000Z</time>
        <extensions>
          <ns3:TrackPointExtension>
            <ns3:hr>171</ns3:hr>
            <ns3:cad>0</ns3:cad>
          </ns3:TrackPointExtension>
        </extensions>
      </trkpt>
      <trkpt lat="44.6778511069715023040771484375" lon="6.8228602968156337738037109375">
        <ele>2309</ele>
        <time>2026-08-31T06:40:51.000Z</time>
        <extensions>
          <ns3:TrackPointExtension>
            <ns3:hr>172</ns3:hr>
            <ns3:cad>0</ns3:cad>
          </ns3:TrackPointExtension>
        </extensions>
      </trkpt>
      <trkpt lat="44.67784834094345569610595703125" lon="6.82287655770778656005859375">
        <ele>2309.199951171875</ele>
        <time>2026-08-31T06:40:52.000Z</time>
        <extensions>
          <ns3:TrackPointExtension>
            <ns3:hr>171</ns3:hr>
            <ns3:cad>0</ns3:cad>
          </ns3:TrackPointExtension>
        </extensions>
      </trkpt>
      <trkpt lat="44.67784683220088481903076171875" lon="6.82289558462798595428466796875">
        <ele>2309.39990234375</ele>
        <time>2026-08-31T06:40:53.000Z</time>
        <extensions>
          <ns3:TrackPointExtension>
            <ns3:hr>171</ns3:hr>
            <ns3:cad>0</ns3:cad>
          </ns3:TrackPointExtension>
        </extensions>
      </trkpt>
      <trkpt lat="44.67784297652542591094970703125" lon="6.82289474643766880035400390625">
        <ele>2309.60009765625</ele>
        <time>2026-08-31T06:40:54.000Z</time>
        <extensions>
          <ns3:TrackPointExtension>
            <ns3:hr>171</ns3:hr>
            <ns3:cad>0</ns3:cad>
          </ns3:TrackPointExtension>
        </extensions>
      </trkpt>
      <trkpt lat="44.6778430603444576263427734375" lon="6.82289508171379566192626953125">
        <ele>2309.800048828125</ele>
        <time>2026-08-31T06:40:55.000Z</time>
        <extensions>
          <ns3:TrackPointExtension>
            <ns3:hr>172</ns3:hr>
            <ns3:cad>0</ns3:cad>
          </ns3:TrackPointExtension>
        </extensions>
      </trkpt>
      <trkpt lat="44.67784364707767963409423828125" lon="6.82290480472147464752197265625">
        <ele>2310</ele>
        <time>2026-08-31T06:40:56.000Z</time>
        <extensions>
          <ns3:TrackPointExtension>
            <ns3:hr>172</ns3:hr>
            <ns3:cad>0</ns3:cad>
          </ns3:TrackPointExtension>
        </extensions>
      </trkpt>
      <trkpt lat="44.677842557430267333984375" lon="6.8229179643094539642333984375">
        <ele>2310.199951171875</ele>
        <time>2026-08-31T06:40:57.000Z</time>
        <extensions>
          <ns3:TrackPointExtension>
            <ns3:hr>171</ns3:hr>
            <ns3:cad>0</ns3:cad>
          </ns3:TrackPointExtension>
        </extensions>
      </trkpt>
      <trkpt lat="44.67784046195447444915771484375" lon="6.82292483747005462646484375">
        <ele>2310.39990234375</ele>
        <time>2026-08-31T06:40:58.000Z</time>
        <extensions>
          <ns3:TrackPointExtension>
            <ns3:hr>171</ns3:hr>
            <ns3:cad>78</ns3:cad>
          </ns3:TrackPointExtension>
        </extensions>
      </trkpt>
      <trkpt lat="44.67783509753644466400146484375" lon="6.822943948209285736083984375">
        <ele>2310.60009765625</ele>
        <time>2026-08-31T06:40:59.000Z</time>
        <extensions>
          <ns3:TrackPointExtension>
            <ns3:hr>171</ns3:hr>
            <ns3:cad>78</ns3:cad>
          </ns3:TrackPointExtension>
        </extensions>
      </trkpt>
      <trkpt lat="44.67783275060355663299560546875" lon="6.82295744307339191436767578125">
        <ele>2310.800048828125</ele>
        <time>2026-08-31T06:41:00.000Z</time>
        <extensions>
          <ns3:TrackPointExtension>
            <ns3:hr>170</ns3:hr>
            <ns3:cad>78</ns3:cad>
          </ns3:TrackPointExtension>
        </extensions>
      </trkpt>
      <trkpt lat="44.67782981693744659423828125" lon="6.82297370396554470062255859375">
        <ele>2311.199951171875</ele>
        <time>2026-08-31T06:41:01.000Z</time>
        <extensions>
          <ns3:TrackPointExtension>
            <ns3:hr>170</ns3:hr>
            <ns3:cad>78</ns3:cad>
          </ns3:TrackPointExtension>
        </extensions>
      </trkpt>
      <trkpt lat="44.6778266318142414093017578125" lon="6.82299055159091949462890625">
        <ele>2311.39990234375</ele>
        <time>2026-08-31T06:41:02.000Z</time>
        <extensions>
          <ns3:TrackPointExtension>
            <ns3:hr>170</ns3:hr>
            <ns3:cad>78</ns3:cad>
          </ns3:TrackPointExtension>
        </extensions>
      </trkpt>
      <trkpt lat="44.67781866900622844696044921875" lon="6.8229880370199680328369140625">
        <ele>2311.60009765625</ele>
        <time>2026-08-31T06:41:03.000Z</time>
        <extensions>
          <ns3:TrackPointExtension>
            <ns3:hr>170</ns3:hr>
            <ns3:cad>78</ns3:cad>
          </ns3:TrackPointExtension>
        </extensions>
      </trkpt>
      <trkpt lat="44.67781330458819866180419921875" lon="6.82299583218991756439208984375">
        <ele>2311.800048828125</ele>
        <time>2026-08-31T06:41:04.000Z</time>
        <extensions>
          <ns3:TrackPointExtension>
            <ns3:hr>170</ns3:hr>
            <ns3:cad>0</ns3:cad>
          </ns3:TrackPointExtension>
        </extensions>
      </trkpt>
      <trkpt lat="44.677809365093708038330078125" lon="6.8230051361024379730224609375">
        <ele>2312</ele>
        <time>2026-08-31T06:41:05.000Z</time>
        <extensions>
          <ns3:TrackPointExtension>
            <ns3:hr>170</ns3:hr>
            <ns3:cad>0</ns3:cad>
          </ns3:TrackPointExtension>
        </extensions>
      </trkpt>
      <trkpt lat="44.6778068505227565765380859375" lon="6.82301410473883152008056640625">
        <ele>2312.199951171875</ele>
        <time>2026-08-31T06:41:06.000Z</time>
        <extensions>
          <ns3:TrackPointExtension>
            <ns3:hr>170</ns3:hr>
            <ns3:cad>0</ns3:cad>
          </ns3:TrackPointExtension>
        </extensions>
      </trkpt>
      <trkpt lat="44.6778036653995513916015625" lon="6.82303036563098430633544921875">
        <ele>2312.39990234375</ele>
        <time>2026-08-31T06:41:07.000Z</time>
        <extensions>
          <ns3:TrackPointExtension>
            <ns3:hr>170</ns3:hr>
            <ns3:cad>0</ns3:cad>
          </ns3:TrackPointExtension>
        </extensions>
      </trkpt>
      <trkpt lat="44.67780291102826595306396484375" lon="6.82303723879158496856689453125">
        <ele>2312.60009765625</ele>
        <time>2026-08-31T06:41:08.000Z</time>
        <extensions>
          <ns3:TrackPointExtension>
            <ns3:hr>170</ns3:hr>
            <ns3:cad>0</ns3:cad>
          </ns3:TrackPointExtension>
        </extensions>
      </trkpt>
      <trkpt lat="44.67780299484729766845703125" lon="6.82303757406771183013916015625">
        <ele>2312.800048828125</ele>
        <time>2026-08-31T06:41:09.000Z</time>
        <extensions>
          <ns3:TrackPointExtension>
            <ns3:hr>170</ns3:hr>
            <ns3:cad>0</ns3:cad>
          </ns3:TrackPointExtension>
        </extensions>
      </trkpt>
      <trkpt lat="44.67779955826699733734130859375" lon="6.823051907122135162353515625">
        <ele>2313</ele>
        <time>2026-08-31T06:41:10.000Z</time>
        <extensions>
          <ns3:TrackPointExtension>
            <ns3:hr>169</ns3:hr>
            <ns3:cad>0</ns3:cad>
          </ns3:TrackPointExtension>
        </extensions>
      </trkpt>
      <trkpt lat="44.6777954511344432830810546875" lon="6.82305618189275264739990234375">
        <ele>2313.199951171875</ele>
        <time>2026-08-31T06:41:11.000Z</time>
        <extensions>
          <ns3:TrackPointExtension>
            <ns3:hr>169</ns3:hr>
            <ns3:cad>0</ns3:cad>
          </ns3:TrackPointExtension>
        </extensions>
      </trkpt>
      <trkpt lat="44.6777927689254283905029296875" lon="6.82306271977722644805908203125">
        <ele>2313.39990234375</ele>
        <time>2026-08-31T06:41:12.000Z</time>
        <extensions>
          <ns3:TrackPointExtension>
            <ns3:hr>169</ns3:hr>
            <ns3:cad>0</ns3:cad>
          </ns3:TrackPointExtension>
        </extensions>
      </trkpt>
      <trkpt lat="44.67779452912509441375732421875" lon="6.823063306510448455810546875">
        <ele>2313.39990234375</ele>
        <time>2026-08-31T06:41:13.000Z</time>
        <extensions>
          <ns3:TrackPointExtension>
            <ns3:hr>169</ns3:hr>
            <ns3:cad>0</ns3:cad>
          </ns3:TrackPointExtension>
        </extensions>
      </trkpt>
      <trkpt lat="44.6777944453060626983642578125" lon="6.8230634741485118865966796875">
        <ele>2313.60009765625</ele>
        <time>2026-08-31T06:41:14.000Z</time>
        <extensions>
          <ns3:TrackPointExtension>
            <ns3:hr>169</ns3:hr>
            <ns3:cad>0</ns3:cad>
          </ns3:TrackPointExtension>
        </extensions>
      </trkpt>
      <trkpt lat="44.6777944453060626983642578125" lon="6.8230634741485118865966796875">
        <ele>2313.60009765625</ele>
        <time>2026-08-31T06:41:15.000Z</time>
        <extensions>
          <ns3:TrackPointExtension>
            <ns3:hr>169</ns3:hr>
            <ns3:cad>0</ns3:cad>
          </ns3:TrackPointExtension>
        </extensions>
      </trkpt>
      <trkpt lat="44.67779436148703098297119140625" lon="6.823063977062702178955078125">
        <ele>2313.60009765625</ele>
        <time>2026-08-31T06:41:16.000Z</time>
        <extensions>
          <ns3:TrackPointExtension>
            <ns3:hr>169</ns3:hr>
            <ns3:cad>0</ns3:cad>
          </ns3:TrackPointExtension>
        </extensions>
      </trkpt>
      <trkpt lat="44.67779335565865039825439453125" lon="6.82307596318423748016357421875">
        <ele>2313.60009765625</ele>
        <time>2026-08-31T06:41:17.000Z</time>
        <extensions>
          <ns3:TrackPointExtension>
            <ns3:hr>169</ns3:hr>
            <ns3:cad>0</ns3:cad>
          </ns3:TrackPointExtension>
        </extensions>
      </trkpt>
      <trkpt lat="44.67779184691607952117919921875" lon="6.823088116943836212158203125">
        <ele>2313.60009765625</ele>
        <time>2026-08-31T06:41:18.000Z</time>
        <extensions>
          <ns3:TrackPointExtension>
            <ns3:hr>170</ns3:hr>
            <ns3:cad>0</ns3:cad>
          </ns3:TrackPointExtension>
        </extensions>
      </trkpt>
      <trkpt lat="44.67779000289738178253173828125" lon="6.82309381663799285888671875">
        <ele>2313.60009765625</ele>
        <time>2026-08-31T06:41:19.000Z</time>
        <extensions>
          <ns3:TrackPointExtension>
            <ns3:hr>170</ns3:hr>
            <ns3:cad>0</ns3:cad>
          </ns3:TrackPointExtension>
        </extensions>
      </trkpt>
      <trkpt lat="44.67778430320322513580322265625" lon="6.82310680858790874481201171875">
        <ele>2313.800048828125</ele>
        <time>2026-08-31T06:41:20.000Z</time>
        <extensions>
          <ns3:TrackPointExtension>
            <ns3:hr>170</ns3:hr>
            <ns3:cad>0</ns3:cad>
          </ns3:TrackPointExtension>
        </extensions>
      </trkpt>
      <trkpt lat="44.67778162099421024322509765625" lon="6.8231171183288097381591796875">
        <ele>2314.199951171875</ele>
        <time>2026-08-31T06:41:21.000Z</time>
        <extensions>
          <ns3:TrackPointExtension>
            <ns3:hr>170</ns3:hr>
            <ns3:cad>0</ns3:cad>
          </ns3:TrackPointExtension>
        </extensions>
      </trkpt>
      <trkpt lat="44.67777927406132221221923828125" lon="6.823120303452014923095703125">
        <ele>2314.39990234375</ele>
        <time>2026-08-31T06:41:22.000Z</time>
        <extensions>
          <ns3:TrackPointExtension>
            <ns3:hr>170</ns3:hr>
            <ns3:cad>0</ns3:cad>
          </ns3:TrackPointExtension>
        </extensions>
      </trkpt>
      <trkpt lat="44.67777726240456104278564453125" lon="6.82312943972647190093994140625">
        <ele>2314.60009765625</ele>
        <time>2026-08-31T06:41:23.000Z</time>
        <extensions>
          <ns3:TrackPointExtension>
            <ns3:hr>170</ns3:hr>
            <ns3:cad>52</ns3:cad>
          </ns3:TrackPointExtension>
        </extensions>
      </trkpt>
      <trkpt lat="44.6777766756713390350341796875" lon="6.8231315352022647857666015625">
        <ele>2314.800048828125</ele>
        <time>2026-08-31T06:41:24.000Z</time>
        <extensions>
          <ns3:TrackPointExtension>
            <ns3:hr>171</ns3:hr>
            <ns3:cad>52</ns3:cad>
          </ns3:TrackPointExtension>
        </extensions>
      </trkpt>
      <trkpt lat="44.67777390964329242706298828125" lon="6.823140084743499755859375">
        <ele>2315</ele>
        <time>2026-08-31T06:41:25.000Z</time>
        <extensions>
          <ns3:TrackPointExtension>
            <ns3:hr>171</ns3:hr>
            <ns3:cad>0</ns3:cad>
          </ns3:TrackPointExtension>
        </extensions>
      </trkpt>
      <trkpt lat="44.67777080833911895751953125" lon="6.823147125542163848876953125">
        <ele>2315.199951171875</ele>
        <time>2026-08-31T06:41:26.000Z</time>
        <extensions>
          <ns3:TrackPointExtension>
            <ns3:hr>171</ns3:hr>
            <ns3:cad>0</ns3:cad>
          </ns3:TrackPointExtension>
        </extensions>
      </trkpt>
      <trkpt lat="44.67776468954980373382568359375" lon="6.82315810583531856536865234375">
        <ele>2315.39990234375</ele>
        <time>2026-08-31T06:41:27.000Z</time>
        <extensions>
          <ns3:TrackPointExtension>
            <ns3:hr>171</ns3:hr>
            <ns3:cad>0</ns3:cad>
          </ns3:TrackPointExtension>
        </extensions>
      </trkpt>
      <trkpt lat="44.6777605824172496795654296875" lon="6.82316732592880725860595703125">
        <ele>2315.60009765625</ele>
        <time>2026-08-31T06:41:28.000Z</time>
        <extensions>
          <ns3:TrackPointExtension>
            <ns3:hr>171</ns3:hr>
            <ns3:cad>0</ns3:cad>
          </ns3:TrackPointExtension>
        </extensions>
      </trkpt>
      <trkpt lat="44.677756391465663909912109375" lon="6.823176629841327667236328125">
        <ele>2315.800048828125</ele>
        <time>2026-08-31T06:41:29.000Z</time>
        <extensions>
          <ns3:TrackPointExtension>
            <ns3:hr>170</ns3:hr>
            <ns3:cad>0</ns3:cad>
          </ns3:TrackPointExtension>
        </extensions>
      </trkpt>
      <trkpt lat="44.67775161378085613250732421875" lon="6.82318828068673610687255859375">
        <ele>2316</ele>
        <time>2026-08-31T06:41:30.000Z</time>
        <extensions>
          <ns3:TrackPointExtension>
            <ns3:hr>170</ns3:hr>
            <ns3:cad>0</ns3:cad>
          </ns3:TrackPointExtension>
        </extensions>
      </trkpt>
      <trkpt lat="44.67774792574346065521240234375" lon="6.823197416961193084716796875">
        <ele>2316.199951171875</ele>
        <time>2026-08-31T06:41:31.000Z</time>
        <extensions>
          <ns3:TrackPointExtension>
            <ns3:hr>170</ns3:hr>
            <ns3:cad>0</ns3:cad>
          </ns3:TrackPointExtension>
        </extensions>
      </trkpt>
      <trkpt lat="44.67774356715381145477294921875" lon="6.82320537976920604705810546875">
        <ele>2316.39990234375</ele>
        <time>2026-08-31T06:41:32.000Z</time>
        <extensions>
          <ns3:TrackPointExtension>
            <ns3:hr>170</ns3:hr>
            <ns3:cad>0</ns3:cad>
          </ns3:TrackPointExtension>
        </extensions>
      </trkpt>
      <trkpt lat="44.67774239368736743927001953125" lon="6.82321711443364620208740234375">
        <ele>2316.60009765625</ele>
        <time>2026-08-31T06:41:33.000Z</time>
        <extensions>
          <ns3:TrackPointExtension>
            <ns3:hr>169</ns3:hr>
            <ns3:cad>0</ns3:cad>
          </ns3:TrackPointExtension>
        </extensions>
      </trkpt>
      <trkpt lat="44.67773987911641597747802734375" lon="6.82321543805301189422607421875">
        <ele>2317</ele>
        <time>2026-08-31T06:41:34.000Z</time>
        <extensions>
          <ns3:TrackPointExtension>
            <ns3:hr>170</ns3:hr>
            <ns3:cad>0</ns3:cad>
          </ns3:TrackPointExtension>
        </extensions>
      </trkpt>
      <trkpt lat="44.6777357719838619232177734375" lon="6.82322834618389606475830078125">
        <ele>2317.199951171875</ele>
        <time>2026-08-31T06:41:35.000Z</time>
        <extensions>
          <ns3:TrackPointExtension>
            <ns3:hr>170</ns3:hr>
            <ns3:cad>0</ns3:cad>
          </ns3:TrackPointExtension>
        </extensions>
      </trkpt>
      <trkpt lat="44.67773401178419589996337890625" lon="6.82323605753481388092041015625">
        <ele>2317.39990234375</ele>
        <time>2026-08-31T06:41:36.000Z</time>
        <extensions>
          <ns3:TrackPointExtension>
            <ns3:hr>169</ns3:hr>
            <ns3:cad>0</ns3:cad>
          </ns3:TrackPointExtension>
        </extensions>
      </trkpt>
      <trkpt lat="44.67772998847067356109619140625" lon="6.82324242778122425079345703125">
        <ele>2317.800048828125</ele>
        <time>2026-08-31T06:41:37.000Z</time>
        <extensions>
          <ns3:TrackPointExtension>
            <ns3:hr>170</ns3:hr>
            <ns3:cad>0</ns3:cad>
          </ns3:TrackPointExtension>
        </extensions>
      </trkpt>
      <trkpt lat="44.6777263842523097991943359375" lon="6.82324133813381195068359375">
        <ele>2318</ele>
        <time>2026-08-31T06:41:38.000Z</time>
        <extensions>
          <ns3:TrackPointExtension>
            <ns3:hr>170</ns3:hr>
            <ns3:cad>0</ns3:cad>
          </ns3:TrackPointExtension>
        </extensions>
      </trkpt>
      <trkpt lat="44.67772479169070720672607421875" lon="6.8232465349137783050537109375">
        <ele>2318</ele>
        <time>2026-08-31T06:41:39.000Z</time>
        <extensions>
          <ns3:TrackPointExtension>
            <ns3:hr>171</ns3:hr>
            <ns3:cad>0</ns3:cad>
          </ns3:TrackPointExtension>
        </extensions>
      </trkpt>
      <trkpt lat="44.67771875672042369842529296875" lon="6.82325047440826892852783203125">
        <ele>2318.199951171875</ele>
        <time>2026-08-31T06:41:40.000Z</time>
        <extensions>
          <ns3:TrackPointExtension>
            <ns3:hr>171</ns3:hr>
            <ns3:cad>0</ns3:cad>
          </ns3:TrackPointExtension>
        </extensions>
      </trkpt>
      <trkpt lat="44.67771724797785282135009765625" lon="6.823259107768535614013671875">
        <ele>2318.39990234375</ele>
        <time>2026-08-31T06:41:41.000Z</time>
        <extensions>
          <ns3:TrackPointExtension>
            <ns3:hr>171</ns3:hr>
            <ns3:cad>0</ns3:cad>
          </ns3:TrackPointExtension>
        </extensions>
      </trkpt>
      <trkpt lat="44.67772194184362888336181640625" lon="6.8232562579214572906494140625">
        <ele>2318.60009765625</ele>
        <time>2026-08-31T06:41:42.000Z</time>
        <extensions>
          <ns3:TrackPointExtension>
            <ns3:hr>171</ns3:hr>
            <ns3:cad>0</ns3:cad>
          </ns3:TrackPointExtension>
        </extensions>
      </trkpt>
      <trkpt lat="44.677724204957485198974609375" lon="6.82326405309140682220458984375">
        <ele>2318.800048828125</ele>
        <time>2026-08-31T06:41:43.000Z</time>
        <extensions>
          <ns3:TrackPointExtension>
            <ns3:hr>172</ns3:hr>
            <ns3:cad>0</ns3:cad>
          </ns3:TrackPointExtension>
        </extensions>
      </trkpt>
      <trkpt lat="44.67772479169070720672607421875" lon="6.823268495500087738037109375">
        <ele>2319</ele>
        <time>2026-08-31T06:41:44.000Z</time>
        <extensions>
          <ns3:TrackPointExtension>
            <ns3:hr>171</ns3:hr>
            <ns3:cad>0</ns3:cad>
          </ns3:TrackPointExtension>
        </extensions>
      </trkpt>
      <trkpt lat="44.67772278003394603729248046875" lon="6.82328886352479457855224609375">
        <ele>2319.39990234375</ele>
        <time>2026-08-31T06:41:45.000Z</time>
        <extensions>
          <ns3:TrackPointExtension>
            <ns3:hr>171</ns3:hr>
            <ns3:cad>0</ns3:cad>
          </ns3:TrackPointExtension>
        </extensions>
      </trkpt>
      <trkpt lat="44.67772160656750202178955078125" lon="6.8232995085418224334716796875">
        <ele>2319.60009765625</ele>
        <time>2026-08-31T06:41:46.000Z</time>
        <extensions>
          <ns3:TrackPointExtension>
            <ns3:hr>170</ns3:hr>
            <ns3:cad>0</ns3:cad>
          </ns3:TrackPointExtension>
        </extensions>
      </trkpt>
      <trkpt lat="44.67771640978753566741943359375" lon="6.8233075551688671112060546875">
        <ele>2319.800048828125</ele>
        <time>2026-08-31T06:41:47.000Z</time>
        <extensions>
          <ns3:TrackPointExtension>
            <ns3:hr>170</ns3:hr>
            <ns3:cad>0</ns3:cad>
          </ns3:TrackPointExtension>
        </extensions>
      </trkpt>
      <trkpt lat="44.67771314084529876708984375" lon="6.823318116366863250732421875">
        <ele>2320</ele>
        <time>2026-08-31T06:41:48.000Z</time>
        <extensions>
          <ns3:TrackPointExtension>
            <ns3:hr>170</ns3:hr>
            <ns3:cad>0</ns3:cad>
          </ns3:TrackPointExtension>
        </extensions>
      </trkpt>
      <trkpt lat="44.6777102909982204437255859375" lon="6.82332155294716358184814453125">
        <ele>2320.199951171875</ele>
        <time>2026-08-31T06:41:49.000Z</time>
        <extensions>
          <ns3:TrackPointExtension>
            <ns3:hr>169</ns3:hr>
            <ns3:cad>0</ns3:cad>
          </ns3:TrackPointExtension>
        </extensions>
      </trkpt>
      <trkpt lat="44.67770333401858806610107421875" lon="6.82333345524966716766357421875">
        <ele>2320.39990234375</ele>
        <time>2026-08-31T06:41:50.000Z</time>
        <extensions>
          <ns3:TrackPointExtension>
            <ns3:hr>169</ns3:hr>
            <ns3:cad>0</ns3:cad>
          </ns3:TrackPointExtension>
        </extensions>
      </trkpt>
      <trkpt lat="44.67769696377217769622802734375" lon="6.8233410827815532684326171875">
        <ele>2320.60009765625</ele>
        <time>2026-08-31T06:41:51.000Z</time>
        <extensions>
          <ns3:TrackPointExtension>
            <ns3:hr>169</ns3:hr>
            <ns3:cad>0</ns3:cad>
          </ns3:TrackPointExtension>
        </extensions>
      </trkpt>
      <trkpt lat="44.67769168317317962646484375" lon="6.823342926800251007080078125">
        <ele>2320.800048828125</ele>
        <time>2026-08-31T06:41:52.000Z</time>
        <extensions>
          <ns3:TrackPointExtension>
            <ns3:hr>169</ns3:hr>
            <ns3:cad>0</ns3:cad>
          </ns3:TrackPointExtension>
        </extensions>
      </trkpt>
      <trkpt lat="44.67768690548837184906005859375" lon="6.82335407473146915435791015625">
        <ele>2321</ele>
        <time>2026-08-31T06:41:53.000Z</time>
        <extensions>
          <ns3:TrackPointExtension>
            <ns3:hr>169</ns3:hr>
            <ns3:cad>0</ns3:cad>
          </ns3:TrackPointExtension>
        </extensions>
      </trkpt>
      <trkpt lat="44.6776834689080715179443359375" lon="6.823362372815608978271484375">
        <ele>2321.199951171875</ele>
        <time>2026-08-31T06:41:54.000Z</time>
        <extensions>
          <ns3:TrackPointExtension>
            <ns3:hr>170</ns3:hr>
            <ns3:cad>0</ns3:cad>
          </ns3:TrackPointExtension>
        </extensions>
      </trkpt>
      <trkpt lat="44.6776817925274372100830078125" lon="6.82337117381393909454345703125">
        <ele>2321.39990234375</ele>
        <time>2026-08-31T06:41:55.000Z</time>
        <extensions>
          <ns3:TrackPointExtension>
            <ns3:hr>170</ns3:hr>
            <ns3:cad>0</ns3:cad>
          </ns3:TrackPointExtension>
        </extensions>
      </trkpt>
      <trkpt lat="44.67767693102359771728515625" lon="6.82337888516485691070556640625">
        <ele>2321.800048828125</ele>
        <time>2026-08-31T06:41:56.000Z</time>
        <extensions>
          <ns3:TrackPointExtension>
            <ns3:hr>171</ns3:hr>
            <ns3:cad>0</ns3:cad>
          </ns3:TrackPointExtension>
        </extensions>
      </trkpt>
      <trkpt lat="44.67767558991909027099609375" lon="6.82337947189807891845703125">
        <ele>2322</ele>
        <time>2026-08-31T06:41:57.000Z</time>
        <extensions>
          <ns3:TrackPointExtension>
            <ns3:hr>172</ns3:hr>
            <ns3:cad>0</ns3:cad>
          </ns3:TrackPointExtension>
        </extensions>
      </trkpt>
      <trkpt lat="44.677673913538455963134765625" lon="6.823385171592235565185546875">
        <ele>2322.199951171875</ele>
        <time>2026-08-31T06:41:58.000Z</time>
        <extensions>
          <ns3:TrackPointExtension>
            <ns3:hr>172</ns3:hr>
            <ns3:cad>0</ns3:cad>
          </ns3:TrackPointExtension>
        </extensions>
      </trkpt>
      <trkpt lat="44.6776720695197582244873046875" lon="6.82339011691510677337646484375">
        <ele>2322.39990234375</ele>
        <time>2026-08-31T06:41:59.000Z</time>
        <extensions>
          <ns3:TrackPointExtension>
            <ns3:hr>173</ns3:hr>
            <ns3:cad>0</ns3:cad>
          </ns3:TrackPointExtension>
        </extensions>
      </trkpt>
      <trkpt lat="44.67766813002526760101318359375" lon="6.82340218685567378997802734375">
        <ele>2322.60009765625</ele>
        <time>2026-08-31T06:42:00.000Z</time>
        <extensions>
          <ns3:TrackPointExtension>
            <ns3:hr>173</ns3:hr>
            <ns3:cad>0</ns3:cad>
          </ns3:TrackPointExtension>
        </extensions>
      </trkpt>
      <trkpt lat="44.6776668727397918701171875" lon="6.82341299951076507568359375">
        <ele>2322.800048828125</ele>
        <time>2026-08-31T06:42:01.000Z</time>
        <extensions>
          <ns3:TrackPointExtension>
            <ns3:hr>174</ns3:hr>
            <ns3:cad>42</ns3:cad>
          </ns3:TrackPointExtension>
        </extensions>
      </trkpt>
      <trkpt lat="44.67766444198787212371826171875" lon="6.82341945357620716094970703125">
        <ele>2323</ele>
        <time>2026-08-31T06:42:02.000Z</time>
        <extensions>
          <ns3:TrackPointExtension>
            <ns3:hr>175</ns3:hr>
            <ns3:cad>42</ns3:cad>
          </ns3:TrackPointExtension>
        </extensions>
      </trkpt>
      <trkpt lat="44.67766159214079380035400390625" lon="6.82342867366969585418701171875">
        <ele>2323.199951171875</ele>
        <time>2026-08-31T06:42:03.000Z</time>
        <extensions>
          <ns3:TrackPointExtension>
            <ns3:hr>176</ns3:hr>
            <ns3:cad>42</ns3:cad>
          </ns3:TrackPointExtension>
        </extensions>
      </trkpt>
      <trkpt lat="44.67766025103628635406494140625" lon="6.82343403808772563934326171875">
        <ele>2323.60009765625</ele>
        <time>2026-08-31T06:42:04.000Z</time>
        <extensions>
          <ns3:TrackPointExtension>
            <ns3:hr>176</ns3:hr>
            <ns3:cad>0</ns3:cad>
          </ns3:TrackPointExtension>
        </extensions>
      </trkpt>
      <trkpt lat="44.67765723355114459991455078125" lon="6.8234436772763729095458984375">
        <ele>2323.800048828125</ele>
        <time>2026-08-31T06:42:05.000Z</time>
        <extensions>
          <ns3:TrackPointExtension>
            <ns3:hr>175</ns3:hr>
            <ns3:cad>0</ns3:cad>
          </ns3:TrackPointExtension>
        </extensions>
      </trkpt>
      <trkpt lat="44.6776532940566539764404296875" lon="6.82345532812178134918212890625">
        <ele>2324.199951171875</ele>
        <time>2026-08-31T06:42:06.000Z</time>
        <extensions>
          <ns3:TrackPointExtension>
            <ns3:hr>175</ns3:hr>
            <ns3:cad>0</ns3:cad>
          </ns3:TrackPointExtension>
        </extensions>
      </trkpt>
      <trkpt lat="44.67765052802860736846923828125" lon="6.82346605695784091949462890625">
        <ele>2324.39990234375</ele>
        <time>2026-08-31T06:42:07.000Z</time>
        <extensions>
          <ns3:TrackPointExtension>
            <ns3:hr>175</ns3:hr>
            <ns3:cad>0</ns3:cad>
          </ns3:TrackPointExtension>
        </extensions>
      </trkpt>
      <trkpt lat="44.67764818109571933746337890625" lon="6.823475025594234466552734375">
        <ele>2324.60009765625</ele>
        <time>2026-08-31T06:42:08.000Z</time>
        <extensions>
          <ns3:TrackPointExtension>
            <ns3:hr>175</ns3:hr>
            <ns3:cad>0</ns3:cad>
          </ns3:TrackPointExtension>
        </extensions>
      </trkpt>
      <trkpt lat="44.67764608561992645263671875" lon="6.82348097674548625946044921875">
        <ele>2325</ele>
        <time>2026-08-31T06:42:09.000Z</time>
        <extensions>
          <ns3:TrackPointExtension>
            <ns3:hr>175</ns3:hr>
            <ns3:cad>0</ns3:cad>
          </ns3:TrackPointExtension>
        </extensions>
      </trkpt>
      <trkpt lat="44.6776425652205944061279296875" lon="6.82348768226802349090576171875">
        <ele>2325</ele>
        <time>2026-08-31T06:42:10.000Z</time>
        <extensions>
          <ns3:TrackPointExtension>
            <ns3:hr>176</ns3:hr>
            <ns3:cad>0</ns3:cad>
          </ns3:TrackPointExtension>
        </extensions>
      </trkpt>
      <trkpt lat="44.67764072120189666748046875" lon="6.82348734699189662933349609375">
        <ele>2325.199951171875</ele>
        <time>2026-08-31T06:42:11.000Z</time>
        <extensions>
          <ns3:TrackPointExtension>
            <ns3:hr>176</ns3:hr>
            <ns3:cad>0</ns3:cad>
          </ns3:TrackPointExtension>
        </extensions>
      </trkpt>
      <trkpt lat="44.677639715373516082763671875" lon="6.82349304668605327606201171875">
        <ele>2325.39990234375</ele>
        <time>2026-08-31T06:42:12.000Z</time>
        <extensions>
          <ns3:TrackPointExtension>
            <ns3:hr>176</ns3:hr>
            <ns3:cad>0</ns3:cad>
          </ns3:TrackPointExtension>
        </extensions>
      </trkpt>
      <trkpt lat="44.67763879336416721343994140625" lon="6.82349991984665393829345703125">
        <ele>2325.60009765625</ele>
        <time>2026-08-31T06:42:13.000Z</time>
        <extensions>
          <ns3:TrackPointExtension>
            <ns3:hr>176</ns3:hr>
            <ns3:cad>0</ns3:cad>
          </ns3:TrackPointExtension>
        </extensions>
      </trkpt>
      <trkpt lat="44.6776320040225982666015625" lon="6.82351291179656982421875">
        <ele>2325.800048828125</ele>
        <time>2026-08-31T06:42:14.000Z</time>
        <extensions>
          <ns3:TrackPointExtension>
            <ns3:hr>177</ns3:hr>
            <ns3:cad>0</ns3:cad>
          </ns3:TrackPointExtension>
        </extensions>
      </trkpt>
      <trkpt lat="44.67763175256550312042236328125" lon="6.823523305356502532958984375">
        <ele>2326.199951171875</ele>
        <time>2026-08-31T06:42:15.000Z</time>
        <extensions>
          <ns3:TrackPointExtension>
            <ns3:hr>177</ns3:hr>
            <ns3:cad>0</ns3:cad>
          </ns3:TrackPointExtension>
        </extensions>
      </trkpt>
      <trkpt lat="44.67762957327067852020263671875" lon="6.82352238334715366363525390625">
        <ele>2326.39990234375</ele>
        <time>2026-08-31T06:42:16.000Z</time>
        <extensions>
          <ns3:TrackPointExtension>
            <ns3:hr>177</ns3:hr>
            <ns3:cad>0</ns3:cad>
          </ns3:TrackPointExtension>
        </extensions>
      </trkpt>
      <trkpt lat="44.67762923799455165863037109375" lon="6.823522634804248809814453125">
        <ele>2326.800048828125</ele>
        <time>2026-08-31T06:42:17.000Z</time>
        <extensions>
          <ns3:TrackPointExtension>
            <ns3:hr>177</ns3:hr>
            <ns3:cad>0</ns3:cad>
          </ns3:TrackPointExtension>
        </extensions>
      </trkpt>
      <trkpt lat="44.67762437649071216583251953125" lon="6.8235385604202747344970703125">
        <ele>2327</ele>
        <time>2026-08-31T06:42:18.000Z</time>
        <extensions>
          <ns3:TrackPointExtension>
            <ns3:hr>177</ns3:hr>
            <ns3:cad>0</ns3:cad>
          </ns3:TrackPointExtension>
        </extensions>
      </trkpt>
      <trkpt lat="44.6776180900633335113525390625" lon="6.823545433580875396728515625">
        <ele>2327.199951171875</ele>
        <time>2026-08-31T06:42:19.000Z</time>
        <extensions>
          <ns3:TrackPointExtension>
            <ns3:hr>178</ns3:hr>
            <ns3:cad>0</ns3:cad>
          </ns3:TrackPointExtension>
        </extensions>
      </trkpt>
      <trkpt lat="44.67761364765465259552001953125" lon="6.8235506303608417510986328125">
        <ele>2327.39990234375</ele>
        <time>2026-08-31T06:42:20.000Z</time>
        <extensions>
          <ns3:TrackPointExtension>
            <ns3:hr>177</ns3:hr>
            <ns3:cad>0</ns3:cad>
          </ns3:TrackPointExtension>
        </extensions>
      </trkpt>
      <trkpt lat="44.67761364765465259552001953125" lon="6.8235506303608417510986328125">
        <ele>2327.60009765625</ele>
        <time>2026-08-31T06:42:21.000Z</time>
        <extensions>
          <ns3:TrackPointExtension>
            <ns3:hr>178</ns3:hr>
            <ns3:cad>0</ns3:cad>
          </ns3:TrackPointExtension>
        </extensions>
      </trkpt>
      <trkpt lat="44.67761364765465259552001953125" lon="6.8235506303608417510986328125">
        <ele>2327.800048828125</ele>
        <time>2026-08-31T06:42:22.000Z</time>
        <extensions>
          <ns3:TrackPointExtension>
            <ns3:hr>178</ns3:hr>
            <ns3:cad>0</ns3:cad>
          </ns3:TrackPointExtension>
        </extensions>
      </trkpt>
      <trkpt lat="44.67761364765465259552001953125" lon="6.8235506303608417510986328125">
        <ele>2327.800048828125</ele>
        <time>2026-08-31T06:42:23.000Z</time>
        <extensions>
          <ns3:TrackPointExtension>
            <ns3:hr>178</ns3:hr>
            <ns3:cad>0</ns3:cad>
          </ns3:TrackPointExtension>
        </extensions>
      </trkpt>
      <trkpt lat="44.67761364765465259552001953125" lon="6.8235506303608417510986328125">
        <ele>2328</ele>
        <time>2026-08-31T06:42:24.000Z</time>
        <extensions>
          <ns3:TrackPointExtension>
            <ns3:hr>178</ns3:hr>
            <ns3:cad>0</ns3:cad>
          </ns3:TrackPointExtension>
        </extensions>
      </trkpt>
      <trkpt lat="44.67761364765465259552001953125" lon="6.8235506303608417510986328125">
        <ele>2328</ele>
        <time>2026-08-31T06:42:25.000Z</time>
        <extensions>
          <ns3:TrackPointExtension>
            <ns3:hr>178</ns3:hr>
            <ns3:cad>0</ns3:cad>
          </ns3:TrackPointExtension>
        </extensions>
      </trkpt>
      <trkpt lat="44.67761364765465259552001953125" lon="6.8235506303608417510986328125">
        <ele>2328</ele>
        <time>2026-08-31T06:42:26.000Z</time>
        <extensions>
          <ns3:TrackPointExtension>
            <ns3:hr>178</ns3:hr>
            <ns3:cad>0</ns3:cad>
          </ns3:TrackPointExtension>
        </extensions>
      </trkpt>
      <trkpt lat="44.67761314474046230316162109375" lon="6.82355104945600032806396484375">
        <ele>2327.800048828125</ele>
        <time>2026-08-31T06:42:27.000Z</time>
        <extensions>
          <ns3:TrackPointExtension>
            <ns3:hr>176</ns3:hr>
            <ns3:cad>0</ns3:cad>
          </ns3:TrackPointExtension>
        </extensions>
      </trkpt>
      <trkpt lat="44.67760987579822540283203125" lon="6.82355783879756927490234375">
        <ele>2327.800048828125</ele>
        <time>2026-08-31T06:42:28.000Z</time>
        <extensions>
          <ns3:TrackPointExtension>
            <ns3:hr>175</ns3:hr>
            <ns3:cad>0</ns3:cad>
          </ns3:TrackPointExtension>
        </extensions>
      </trkpt>
      <trkpt lat="44.67760384082794189453125" lon="6.823568902909755706787109375">
        <ele>2327.800048828125</ele>
        <time>2026-08-31T06:42:29.000Z</time>
        <extensions>
          <ns3:TrackPointExtension>
            <ns3:hr>173</ns3:hr>
            <ns3:cad>0</ns3:cad>
          </ns3:TrackPointExtension>
        </extensions>
      </trkpt>
      <trkpt lat="44.6775986440479755401611328125" lon="6.8235791288316249847412109375">
        <ele>2328</ele>
        <time>2026-08-31T06:42:30.000Z</time>
        <extensions>
          <ns3:TrackPointExtension>
            <ns3:hr>170</ns3:hr>
            <ns3:cad>0</ns3:cad>
          </ns3:TrackPointExtension>
        </extensions>
      </trkpt>
      <trkpt lat="44.67758841812610626220703125" lon="6.82359463535249233245849609375">
        <ele>2328.199951171875</ele>
        <time>2026-08-31T06:42:31.000Z</time>
        <extensions>
          <ns3:TrackPointExtension>
            <ns3:hr>169</ns3:hr>
            <ns3:cad>0</ns3:cad>
          </ns3:TrackPointExtension>
        </extensions>
      </trkpt>
      <trkpt lat="44.67758079059422016143798828125" lon="6.8236029334366321563720703125">
        <ele>2328.39990234375</ele>
        <time>2026-08-31T06:42:32.000Z</time>
        <extensions>
          <ns3:TrackPointExtension>
            <ns3:hr>168</ns3:hr>
            <ns3:cad>0</ns3:cad>
          </ns3:TrackPointExtension>
        </extensions>
      </trkpt>
      <trkpt lat="44.6775785274803638458251953125" lon="6.82360201142728328704833984375">
        <ele>2328.60009765625</ele>
        <time>2026-08-31T06:42:33.000Z</time>
        <extensions>
          <ns3:TrackPointExtension>
            <ns3:hr>168</ns3:hr>
            <ns3:cad>0</ns3:cad>
          </ns3:TrackPointExtension>
        </extensions>
      </trkpt>
      <trkpt lat="44.67757324688136577606201171875" lon="6.8236126564443111419677734375">
        <ele>2328.800048828125</ele>
        <time>2026-08-31T06:42:34.000Z</time>
        <extensions>
          <ns3:TrackPointExtension>
            <ns3:hr>167</ns3:hr>
            <ns3:cad>49</ns3:cad>
          </ns3:TrackPointExtension>
        </extensions>
      </trkpt>
      <trkpt lat="44.67757165431976318359375" lon="6.823619864881038665771484375">
        <ele>2329</ele>
        <time>2026-08-31T06:42:35.000Z</time>
        <extensions>
          <ns3:TrackPointExtension>
            <ns3:hr>167</ns3:hr>
            <ns3:cad>49</ns3:cad>
          </ns3:TrackPointExtension>
        </extensions>
      </trkpt>
      <trkpt lat="44.677563272416591644287109375" lon="6.82363101281225681304931640625">
        <ele>2329.199951171875</ele>
        <time>2026-08-31T06:42:36.000Z</time>
        <extensions>
          <ns3:TrackPointExtension>
            <ns3:hr>167</ns3:hr>
            <ns3:cad>49</ns3:cad>
          </ns3:TrackPointExtension>
        </extensions>
      </trkpt>
      <trkpt lat="44.677556566894054412841796875" lon="6.82364207692444324493408203125">
        <ele>2329.39990234375</ele>
        <time>2026-08-31T06:42:37.000Z</time>
        <extensions>
          <ns3:TrackPointExtension>
            <ns3:hr>168</ns3:hr>
            <ns3:cad>49</ns3:cad>
          </ns3:TrackPointExtension>
        </extensions>
      </trkpt>
      <trkpt lat="44.67754952609539031982421875" lon="6.82364962063729763031005859375">
        <ele>2329.60009765625</ele>
        <time>2026-08-31T06:42:38.000Z</time>
        <extensions>
          <ns3:TrackPointExtension>
            <ns3:hr>168</ns3:hr>
            <ns3:cad>49</ns3:cad>
          </ns3:TrackPointExtension>
        </extensions>
      </trkpt>
      <trkpt lat="44.6775409765541553497314453125" lon="6.8236632831394672393798828125">
        <ele>2329.800048828125</ele>
        <time>2026-08-31T06:42:39.000Z</time>
        <extensions>
          <ns3:TrackPointExtension>
            <ns3:hr>168</ns3:hr>
            <ns3:cad>49</ns3:cad>
          </ns3:TrackPointExtension>
        </extensions>
      </trkpt>
      <trkpt lat="44.67753385193645954132080078125" lon="6.823676861822605133056640625">
        <ele>2330</ele>
        <time>2026-08-31T06:42:40.000Z</time>
        <extensions>
          <ns3:TrackPointExtension>
            <ns3:hr>167</ns3:hr>
            <ns3:cad>49</ns3:cad>
          </ns3:TrackPointExtension>
        </extensions>
      </trkpt>
      <trkpt lat="44.677525721490383148193359375" lon="6.8236874230206012725830078125">
        <ele>2330.199951171875</ele>
        <time>2026-08-31T06:42:41.000Z</time>
        <extensions>
          <ns3:TrackPointExtension>
            <ns3:hr>167</ns3:hr>
            <ns3:cad>49</ns3:cad>
          </ns3:TrackPointExtension>
        </extensions>
      </trkpt>
      <trkpt lat="44.67752412892878055572509765625" lon="6.823688931763172149658203125">
        <ele>2330.39990234375</ele>
        <time>2026-08-31T06:42:42.000Z</time>
        <extensions>
          <ns3:TrackPointExtension>
            <ns3:hr>167</ns3:hr>
            <ns3:cad>49</ns3:cad>
          </ns3:TrackPointExtension>
        </extensions>
      </trkpt>
      <trkpt lat="44.67751977033913135528564453125" lon="6.823698319494724273681640625">
        <ele>2330.60009765625</ele>
        <time>2026-08-31T06:42:43.000Z</time>
        <extensions>
          <ns3:TrackPointExtension>
            <ns3:hr>167</ns3:hr>
            <ns3:cad>49</ns3:cad>
          </ns3:TrackPointExtension>
        </extensions>
      </trkpt>
      <trkpt lat="44.67751591466367244720458984375" lon="6.82370963506400585174560546875">
        <ele>2330.800048828125</ele>
        <time>2026-08-31T06:42:44.000Z</time>
        <extensions>
          <ns3:TrackPointExtension>
            <ns3:hr>167</ns3:hr>
            <ns3:cad>0</ns3:cad>
          </ns3:TrackPointExtension>
        </extensions>
      </trkpt>
      <trkpt lat="44.67750971205532550811767578125" lon="6.82371902279555797576904296875">
        <ele>2331</ele>
        <time>2026-08-31T06:42:45.000Z</time>
        <extensions>
          <ns3:TrackPointExtension>
            <ns3:hr>166</ns3:hr>
            <ns3:cad>0</ns3:cad>
          </ns3:TrackPointExtension>
        </extensions>
      </trkpt>
      <trkpt lat="44.67750250361859798431396484375" lon="6.82372757233679294586181640625">
        <ele>2331.199951171875</ele>
        <time>2026-08-31T06:42:46.000Z</time>
        <extensions>
          <ns3:TrackPointExtension>
            <ns3:hr>167</ns3:hr>
            <ns3:cad>0</ns3:cad>
          </ns3:TrackPointExtension>
        </extensions>
      </trkpt>
      <trkpt lat="44.677498899400234222412109375" lon="6.8237300030887126922607421875">
        <ele>2331.39990234375</ele>
        <time>2026-08-31T06:42:47.000Z</time>
        <extensions>
          <ns3:TrackPointExtension>
            <ns3:hr>166</ns3:hr>
            <ns3:cad>0</ns3:cad>
          </ns3:TrackPointExtension>
        </extensions>
      </trkpt>
      <trkpt lat="44.67749319970607757568359375" lon="6.82373830117285251617431640625">
        <ele>2331.60009765625</ele>
        <time>2026-08-31T06:42:48.000Z</time>
        <extensions>
          <ns3:TrackPointExtension>
            <ns3:hr>166</ns3:hr>
            <ns3:cad>0</ns3:cad>
          </ns3:TrackPointExtension>
        </extensions>
      </trkpt>
      <trkpt lat="44.67749060131609439849853515625" lon="6.82373696006834506988525390625">
        <ele>2331.800048828125</ele>
        <time>2026-08-31T06:42:49.000Z</time>
        <extensions>
          <ns3:TrackPointExtension>
            <ns3:hr>166</ns3:hr>
            <ns3:cad>0</ns3:cad>
          </ns3:TrackPointExtension>
        </extensions>
      </trkpt>
      <trkpt lat="44.67748372815549373626708984375" lon="6.82374752126634120941162109375">
        <ele>2332</ele>
        <time>2026-08-31T06:42:50.000Z</time>
        <extensions>
          <ns3:TrackPointExtension>
            <ns3:hr>166</ns3:hr>
            <ns3:cad>0</ns3:cad>
          </ns3:TrackPointExtension>
        </extensions>
      </trkpt>
      <trkpt lat="44.6774779446423053741455078125" lon="6.82375238277018070220947265625">
        <ele>2332.199951171875</ele>
        <time>2026-08-31T06:42:51.000Z</time>
        <extensions>
          <ns3:TrackPointExtension>
            <ns3:hr>167</ns3:hr>
            <ns3:cad>0</ns3:cad>
          </ns3:TrackPointExtension>
        </extensions>
      </trkpt>
      <trkpt lat="44.6774712391197681427001953125" lon="6.82377115823328495025634765625">
        <ele>2332.39990234375</ele>
        <time>2026-08-31T06:42:52.000Z</time>
        <extensions>
          <ns3:TrackPointExtension>
            <ns3:hr>167</ns3:hr>
            <ns3:cad>0</ns3:cad>
          </ns3:TrackPointExtension>
        </extensions>
      </trkpt>
      <trkpt lat="44.677470065653324127197265625" lon="6.82378473691642284393310546875">
        <ele>2332.60009765625</ele>
        <time>2026-08-31T06:42:53.000Z</time>
        <extensions>
          <ns3:TrackPointExtension>
            <ns3:hr>169</ns3:hr>
            <ns3:cad>0</ns3:cad>
          </ns3:TrackPointExtension>
        </extensions>
      </trkpt>
      <trkpt lat="44.67746495269238948822021484375" lon="6.823792867362499237060546875">
        <ele>2332.800048828125</ele>
        <time>2026-08-31T06:42:54.000Z</time>
        <extensions>
          <ns3:TrackPointExtension>
            <ns3:hr>169</ns3:hr>
            <ns3:cad>0</ns3:cad>
          </ns3:TrackPointExtension>
        </extensions>
      </trkpt>
      <trkpt lat="44.67745573259890079498291015625" lon="6.823799908161163330078125">
        <ele>2333</ele>
        <time>2026-08-31T06:42:55.000Z</time>
        <extensions>
          <ns3:TrackPointExtension>
            <ns3:hr>170</ns3:hr>
            <ns3:cad>0</ns3:cad>
          </ns3:TrackPointExtension>
        </extensions>
      </trkpt>
      <trkpt lat="44.67745137400925159454345703125" lon="6.82380166836082935333251953125">
        <ele>2333.199951171875</ele>
        <time>2026-08-31T06:42:56.000Z</time>
        <extensions>
          <ns3:TrackPointExtension>
            <ns3:hr>170</ns3:hr>
            <ns3:cad>0</ns3:cad>
          </ns3:TrackPointExtension>
        </extensions>
      </trkpt>
      <trkpt lat="44.67745020054280757904052734375" lon="6.823798902332782745361328125">
        <ele>2333.39990234375</ele>
        <time>2026-08-31T06:42:57.000Z</time>
        <extensions>
          <ns3:TrackPointExtension>
            <ns3:hr>170</ns3:hr>
            <ns3:cad>0</ns3:cad>
          </ns3:TrackPointExtension>
        </extensions>
      </trkpt>
      <trkpt lat="44.67745028436183929443359375" lon="6.823798902332782745361328125">
        <ele>2333.39990234375</ele>
        <time>2026-08-31T06:42:58.000Z</time>
        <extensions>
          <ns3:TrackPointExtension>
            <ns3:hr>170</ns3:hr>
            <ns3:cad>0</ns3:cad>
          </ns3:TrackPointExtension>
        </extensions>
      </trkpt>
      <trkpt lat="44.67745028436183929443359375" lon="6.823798902332782745361328125">
        <ele>2333.39990234375</ele>
        <time>2026-08-31T06:42:59.000Z</time>
        <extensions>
          <ns3:TrackPointExtension>
            <ns3:hr>170</ns3:hr>
            <ns3:cad>0</ns3:cad>
          </ns3:TrackPointExtension>
        </extensions>
      </trkpt>
      <trkpt lat="44.67745028436183929443359375" lon="6.823798902332782745361328125">
        <ele>2333.39990234375</ele>
        <time>2026-08-31T06:43:00.000Z</time>
        <extensions>
          <ns3:TrackPointExtension>
            <ns3:hr>170</ns3:hr>
            <ns3:cad>0</ns3:cad>
          </ns3:TrackPointExtension>
        </extensions>
      </trkpt>
      <trkpt lat="44.67745028436183929443359375" lon="6.823798902332782745361328125">
        <ele>2333.39990234375</ele>
        <time>2026-08-31T06:43:01.000Z</time>
        <extensions>
          <ns3:TrackPointExtension>
            <ns3:hr>169</ns3:hr>
            <ns3:cad>0</ns3:cad>
          </ns3:TrackPointExtension>
        </extensions>
      </trkpt>
      <trkpt lat="44.67745028436183929443359375" lon="6.823798902332782745361328125">
        <ele>2333.39990234375</ele>
        <time>2026-08-31T06:43:02.000Z</time>
        <extensions>
          <ns3:TrackPointExtension>
            <ns3:hr>170</ns3:hr>
            <ns3:cad>0</ns3:cad>
          </ns3:TrackPointExtension>
        </extensions>
      </trkpt>
      <trkpt lat="44.67745028436183929443359375" lon="6.823798902332782745361328125">
        <ele>2333.39990234375</ele>
        <time>2026-08-31T06:43:03.000Z</time>
        <extensions>
          <ns3:TrackPointExtension>
            <ns3:hr>170</ns3:hr>
            <ns3:cad>0</ns3:cad>
          </ns3:TrackPointExtension>
        </extensions>
      </trkpt>
      <trkpt lat="44.67745028436183929443359375" lon="6.823798902332782745361328125">
        <ele>2333.39990234375</ele>
        <time>2026-08-31T06:43:04.000Z</time>
        <extensions>
          <ns3:TrackPointExtension>
            <ns3:hr>170</ns3:hr>
            <ns3:cad>0</ns3:cad>
          </ns3:TrackPointExtension>
        </extensions>
      </trkpt>
      <trkpt lat="44.67745028436183929443359375" lon="6.823798902332782745361328125">
        <ele>2333.39990234375</ele>
        <time>2026-08-31T06:43:05.000Z</time>
        <extensions>
          <ns3:TrackPointExtension>
            <ns3:hr>170</ns3:hr>
            <ns3:cad>0</ns3:cad>
          </ns3:TrackPointExtension>
        </extensions>
      </trkpt>
      <trkpt lat="44.67745028436183929443359375" lon="6.823798902332782745361328125">
        <ele>2333.39990234375</ele>
        <time>2026-08-31T06:43:06.000Z</time>
        <extensions>
          <ns3:TrackPointExtension>
            <ns3:hr>169</ns3:hr>
            <ns3:cad>0</ns3:cad>
          </ns3:TrackPointExtension>
        </extensions>
      </trkpt>
      <trkpt lat="44.67745028436183929443359375" lon="6.823798902332782745361328125">
        <ele>2333.39990234375</ele>
        <time>2026-08-31T06:43:07.000Z</time>
        <extensions>
          <ns3:TrackPointExtension>
            <ns3:hr>169</ns3:hr>
            <ns3:cad>0</ns3:cad>
          </ns3:TrackPointExtension>
        </extensions>
      </trkpt>
      <trkpt lat="44.67745028436183929443359375" lon="6.823798902332782745361328125">
        <ele>2333.39990234375</ele>
        <time>2026-08-31T06:43:08.000Z</time>
        <extensions>
          <ns3:TrackPointExtension>
            <ns3:hr>168</ns3:hr>
            <ns3:cad>0</ns3:cad>
          </ns3:TrackPointExtension>
        </extensions>
      </trkpt>
      <trkpt lat="44.67745028436183929443359375" lon="6.823798902332782745361328125">
        <ele>2333.39990234375</ele>
        <time>2026-08-31T06:43:09.000Z</time>
        <extensions>
          <ns3:TrackPointExtension>
            <ns3:hr>168</ns3:hr>
            <ns3:cad>0</ns3:cad>
          </ns3:TrackPointExtension>
        </extensions>
      </trkpt>
      <trkpt lat="44.67745028436183929443359375" lon="6.823798902332782745361328125">
        <ele>2333.39990234375</ele>
        <time>2026-08-31T06:43:10.000Z</time>
        <extensions>
          <ns3:TrackPointExtension>
            <ns3:hr>167</ns3:hr>
            <ns3:cad>0</ns3:cad>
          </ns3:TrackPointExtension>
        </extensions>
      </trkpt>
      <trkpt lat="44.67745028436183929443359375" lon="6.823798902332782745361328125">
        <ele>2333.39990234375</ele>
        <time>2026-08-31T06:43:11.000Z</time>
        <extensions>
          <ns3:TrackPointExtension>
            <ns3:hr>167</ns3:hr>
            <ns3:cad>0</ns3:cad>
          </ns3:TrackPointExtension>
        </extensions>
      </trkpt>
      <trkpt lat="44.67745028436183929443359375" lon="6.823798902332782745361328125">
        <ele>2333.39990234375</ele>
        <time>2026-08-31T06:43:12.000Z</time>
        <extensions>
          <ns3:TrackPointExtension>
            <ns3:hr>166</ns3:hr>
            <ns3:cad>0</ns3:cad>
          </ns3:TrackPointExtension>
        </extensions>
      </trkpt>
      <trkpt lat="44.67745028436183929443359375" lon="6.823798902332782745361328125">
        <ele>2333.39990234375</ele>
        <time>2026-08-31T06:43:13.000Z</time>
        <extensions>
          <ns3:TrackPointExtension>
            <ns3:hr>166</ns3:hr>
            <ns3:cad>0</ns3:cad>
          </ns3:TrackPointExtension>
        </extensions>
      </trkpt>
      <trkpt lat="44.67745028436183929443359375" lon="6.823798902332782745361328125">
        <ele>2333.39990234375</ele>
        <time>2026-08-31T06:43:14.000Z</time>
        <extensions>
          <ns3:TrackPointExtension>
            <ns3:hr>165</ns3:hr>
            <ns3:cad>0</ns3:cad>
          </ns3:TrackPointExtension>
        </extensions>
      </trkpt>
      <trkpt lat="44.67745028436183929443359375" lon="6.823798902332782745361328125">
        <ele>2333.39990234375</ele>
        <time>2026-08-31T06:43:15.000Z</time>
        <extensions>
          <ns3:TrackPointExtension>
            <ns3:hr>165</ns3:hr>
            <ns3:cad>0</ns3:cad>
          </ns3:TrackPointExtension>
        </extensions>
      </trkpt>
      <trkpt lat="44.67745028436183929443359375" lon="6.823798902332782745361328125">
        <ele>2333.39990234375</ele>
        <time>2026-08-31T06:43:16.000Z</time>
        <extensions>
          <ns3:TrackPointExtension>
            <ns3:hr>164</ns3:hr>
            <ns3:cad>0</ns3:cad>
          </ns3:TrackPointExtension>
        </extensions>
      </trkpt>
      <trkpt lat="44.67745028436183929443359375" lon="6.823798902332782745361328125">
        <ele>2333.39990234375</ele>
        <time>2026-08-31T06:43:17.000Z</time>
        <extensions>
          <ns3:TrackPointExtension>
            <ns3:hr>163</ns3:hr>
            <ns3:cad>0</ns3:cad>
          </ns3:TrackPointExtension>
        </extensions>
      </trkpt>
      <trkpt lat="44.67745028436183929443359375" lon="6.823798902332782745361328125">
        <ele>2333.39990234375</ele>
        <time>2026-08-31T06:43:18.000Z</time>
        <extensions>
          <ns3:TrackPointExtension>
            <ns3:hr>163</ns3:hr>
            <ns3:cad>0</ns3:cad>
          </ns3:TrackPointExtension>
        </extensions>
      </trkpt>
      <trkpt lat="44.67745028436183929443359375" lon="6.823798902332782745361328125">
        <ele>2333.39990234375</ele>
        <time>2026-08-31T06:43:19.000Z</time>
        <extensions>
          <ns3:TrackPointExtension>
            <ns3:hr>162</ns3:hr>
            <ns3:cad>0</ns3:cad>
          </ns3:TrackPointExtension>
        </extensions>
      </trkpt>
      <trkpt lat="44.67745028436183929443359375" lon="6.823798902332782745361328125">
        <ele>2333.39990234375</ele>
        <time>2026-08-31T06:43:20.000Z</time>
        <extensions>
          <ns3:TrackPointExtension>
            <ns3:hr>161</ns3:hr>
            <ns3:cad>0</ns3:cad>
          </ns3:TrackPointExtension>
        </extensions>
      </trkpt>
      <trkpt lat="44.67745028436183929443359375" lon="6.823798902332782745361328125">
        <ele>2333.39990234375</ele>
        <time>2026-08-31T06:43:21.000Z</time>
        <extensions>
          <ns3:TrackPointExtension>
            <ns3:hr>161</ns3:hr>
            <ns3:cad>0</ns3:cad>
          </ns3:TrackPointExtension>
        </extensions>
      </trkpt>
      <trkpt lat="44.67745028436183929443359375" lon="6.823798902332782745361328125">
        <ele>2333.39990234375</ele>
        <time>2026-08-31T06:43:22.000Z</time>
        <extensions>
          <ns3:TrackPointExtension>
            <ns3:hr>160</ns3:hr>
            <ns3:cad>0</ns3:cad>
          </ns3:TrackPointExtension>
        </extensions>
      </trkpt>
      <trkpt lat="44.67745028436183929443359375" lon="6.823798902332782745361328125">
        <ele>2333.199951171875</ele>
        <time>2026-08-31T06:43:23.000Z</time>
        <extensions>
          <ns3:TrackPointExtension>
            <ns3:hr>159</ns3:hr>
            <ns3:cad>0</ns3:cad>
          </ns3:TrackPointExtension>
        </extensions>
      </trkpt>
      <trkpt lat="44.67745028436183929443359375" lon="6.823798902332782745361328125">
        <ele>2333.199951171875</ele>
        <time>2026-08-31T06:43:24.000Z</time>
        <extensions>
          <ns3:TrackPointExtension>
            <ns3:hr>159</ns3:hr>
            <ns3:cad>0</ns3:cad>
          </ns3:TrackPointExtension>
        </extensions>
      </trkpt>
      <trkpt lat="44.67745028436183929443359375" lon="6.823798902332782745361328125">
        <ele>2333.199951171875</ele>
        <time>2026-08-31T06:43:25.000Z</time>
        <extensions>
          <ns3:TrackPointExtension>
            <ns3:hr>158</ns3:hr>
            <ns3:cad>0</ns3:cad>
          </ns3:TrackPointExtension>
        </extensions>
      </trkpt>
      <trkpt lat="44.67745028436183929443359375" lon="6.823798902332782745361328125">
        <ele>2333.199951171875</ele>
        <time>2026-08-31T06:43:26.000Z</time>
        <extensions>
          <ns3:TrackPointExtension>
            <ns3:hr>157</ns3:hr>
            <ns3:cad>0</ns3:cad>
          </ns3:TrackPointExtension>
        </extensions>
      </trkpt>
      <trkpt lat="44.67745028436183929443359375" lon="6.823798902332782745361328125">
        <ele>2333.199951171875</ele>
        <time>2026-08-31T06:43:27.000Z</time>
        <extensions>
          <ns3:TrackPointExtension>
            <ns3:hr>157</ns3:hr>
            <ns3:cad>0</ns3:cad>
          </ns3:TrackPointExtension>
        </extensions>
      </trkpt>
      <trkpt lat="44.67745028436183929443359375" lon="6.823798902332782745361328125">
        <ele>2333.199951171875</ele>
        <time>2026-08-31T06:43:28.000Z</time>
        <extensions>
          <ns3:TrackPointExtension>
            <ns3:hr>156</ns3:hr>
            <ns3:cad>0</ns3:cad>
          </ns3:TrackPointExtension>
        </extensions>
      </trkpt>
      <trkpt lat="44.67745028436183929443359375" lon="6.823798902332782745361328125">
        <ele>2333.199951171875</ele>
        <time>2026-08-31T06:43:29.000Z</time>
        <extensions>
          <ns3:TrackPointExtension>
            <ns3:hr>155</ns3:hr>
            <ns3:cad>0</ns3:cad>
          </ns3:TrackPointExtension>
        </extensions>
      </trkpt>
      <trkpt lat="44.67745028436183929443359375" lon="6.823798902332782745361328125">
        <ele>2333.199951171875</ele>
        <time>2026-08-31T06:43:30.000Z</time>
        <extensions>
          <ns3:TrackPointExtension>
            <ns3:hr>154</ns3:hr>
            <ns3:cad>0</ns3:cad>
          </ns3:TrackPointExtension>
        </extensions>
      </trkpt>
      <trkpt lat="44.67745028436183929443359375" lon="6.823798902332782745361328125">
        <ele>2333.199951171875</ele>
        <time>2026-08-31T06:43:31.000Z</time>
        <extensions>
          <ns3:TrackPointExtension>
            <ns3:hr>153</ns3:hr>
            <ns3:cad>0</ns3:cad>
          </ns3:TrackPointExtension>
        </extensions>
      </trkpt>
      <trkpt lat="44.67745028436183929443359375" lon="6.823798902332782745361328125">
        <ele>2333.199951171875</ele>
        <time>2026-08-31T06:43:32.000Z</time>
        <extensions>
          <ns3:TrackPointExtension>
            <ns3:hr>152</ns3:hr>
            <ns3:cad>0</ns3:cad>
          </ns3:TrackPointExtension>
        </extensions>
      </trkpt>
      <trkpt lat="44.67745028436183929443359375" lon="6.823798902332782745361328125">
        <ele>2333.199951171875</ele>
        <time>2026-08-31T06:43:33.000Z</time>
        <extensions>
          <ns3:TrackPointExtension>
            <ns3:hr>152</ns3:hr>
            <ns3:cad>0</ns3:cad>
          </ns3:TrackPointExtension>
        </extensions>
      </trkpt>
      <trkpt lat="44.67745028436183929443359375" lon="6.823798902332782745361328125">
        <ele>2333.199951171875</ele>
        <time>2026-08-31T06:43:34.000Z</time>
        <extensions>
          <ns3:TrackPointExtension>
            <ns3:hr>151</ns3:hr>
            <ns3:cad>0</ns3:cad>
          </ns3:TrackPointExtension>
        </extensions>
      </trkpt>
      <trkpt lat="44.67745028436183929443359375" lon="6.823798902332782745361328125">
        <ele>2333.199951171875</ele>
        <time>2026-08-31T06:43:35.000Z</time>
        <extensions>
          <ns3:TrackPointExtension>
            <ns3:hr>150</ns3:hr>
            <ns3:cad>0</ns3:cad>
          </ns3:TrackPointExtension>
        </extensions>
      </trkpt>
      <trkpt lat="44.67745338566601276397705078125" lon="6.82379982434213161468505859375">
        <ele>2333.199951171875</ele>
        <time>2026-08-31T06:43:36.000Z</time>
        <extensions>
          <ns3:TrackPointExtension>
            <ns3:hr>150</ns3:hr>
            <ns3:cad>0</ns3:cad>
          </ns3:TrackPointExtension>
        </extensions>
      </trkpt>
      <trkpt lat="44.6774534694850444793701171875" lon="6.82380636222660541534423828125">
        <ele>2333.39990234375</ele>
        <time>2026-08-31T06:43:37.000Z</time>
        <extensions>
          <ns3:TrackPointExtension>
            <ns3:hr>149</ns3:hr>
            <ns3:cad>0</ns3:cad>
          </ns3:TrackPointExtension>
        </extensions>
      </trkpt>
      <trkpt lat="44.67745254747569561004638671875" lon="6.82381608523428440093994140625">
        <ele>2333.39990234375</ele>
        <time>2026-08-31T06:43:38.000Z</time>
        <extensions>
          <ns3:TrackPointExtension>
            <ns3:hr>149</ns3:hr>
            <ns3:cad>0</ns3:cad>
          </ns3:TrackPointExtension>
        </extensions>
      </trkpt>
      <trkpt lat="44.677450954914093017578125" lon="6.823825053870677947998046875">
        <ele>2333.39990234375</ele>
        <time>2026-08-31T06:43:39.000Z</time>
        <extensions>
          <ns3:TrackPointExtension>
            <ns3:hr>148</ns3:hr>
            <ns3:cad>58</ns3:cad>
          </ns3:TrackPointExtension>
        </extensions>
      </trkpt>
      <trkpt lat="44.67744936235249042510986328125" lon="6.8238399736583232879638671875">
        <ele>2333.60009765625</ele>
        <time>2026-08-31T06:43:40.000Z</time>
        <extensions>
          <ns3:TrackPointExtension>
            <ns3:hr>148</ns3:hr>
            <ns3:cad>58</ns3:cad>
          </ns3:TrackPointExtension>
        </extensions>
      </trkpt>
      <trkpt lat="44.6774474345147609710693359375" lon="6.8238543905317783355712890625">
        <ele>2333.800048828125</ele>
        <time>2026-08-31T06:43:41.000Z</time>
        <extensions>
          <ns3:TrackPointExtension>
            <ns3:hr>147</ns3:hr>
            <ns3:cad>58</ns3:cad>
          </ns3:TrackPointExtension>
        </extensions>
      </trkpt>
      <trkpt lat="44.677445925772190093994140625" lon="6.82386855594813823699951171875">
        <ele>2334</ele>
        <time>2026-08-31T06:43:42.000Z</time>
        <extensions>
          <ns3:TrackPointExtension>
            <ns3:hr>147</ns3:hr>
            <ns3:cad>58</ns3:cad>
          </ns3:TrackPointExtension>
        </extensions>
      </trkpt>
      <trkpt lat="44.67744684778153896331787109375" lon="6.82387970387935638427734375">
        <ele>2334.199951171875</ele>
        <time>2026-08-31T06:43:43.000Z</time>
        <extensions>
          <ns3:TrackPointExtension>
            <ns3:hr>146</ns3:hr>
            <ns3:cad>53</ns3:cad>
          </ns3:TrackPointExtension>
        </extensions>
      </trkpt>
      <trkpt lat="44.6774491108953952789306640625" lon="6.82388833723962306976318359375">
        <ele>2334.39990234375</ele>
        <time>2026-08-31T06:43:44.000Z</time>
        <extensions>
          <ns3:TrackPointExtension>
            <ns3:hr>146</ns3:hr>
            <ns3:cad>53</ns3:cad>
          </ns3:TrackPointExtension>
        </extensions>
      </trkpt>
      <trkpt lat="44.67745028436183929443359375" lon="6.82390510104596614837646484375">
        <ele>2334.60009765625</ele>
        <time>2026-08-31T06:43:45.000Z</time>
        <extensions>
          <ns3:TrackPointExtension>
            <ns3:hr>146</ns3:hr>
            <ns3:cad>53</ns3:cad>
          </ns3:TrackPointExtension>
        </extensions>
      </trkpt>
      <trkpt lat="44.6774549782276153564453125" lon="6.823918931186199188232421875">
        <ele>2334.60009765625</ele>
        <time>2026-08-31T06:43:46.000Z</time>
        <extensions>
          <ns3:TrackPointExtension>
            <ns3:hr>145</ns3:hr>
            <ns3:cad>53</ns3:cad>
          </ns3:TrackPointExtension>
        </extensions>
      </trkpt>
      <trkpt lat="44.677455984055995941162109375" lon="6.82392823509871959686279296875">
        <ele>2334.800048828125</ele>
        <time>2026-08-31T06:43:47.000Z</time>
        <extensions>
          <ns3:TrackPointExtension>
            <ns3:hr>145</ns3:hr>
            <ns3:cad>53</ns3:cad>
          </ns3:TrackPointExtension>
        </extensions>
      </trkpt>
      <trkpt lat="44.6774581633508205413818359375" lon="6.82393066585063934326171875">
        <ele>2335</ele>
        <time>2026-08-31T06:43:48.000Z</time>
        <extensions>
          <ns3:TrackPointExtension>
            <ns3:hr>145</ns3:hr>
            <ns3:cad>53</ns3:cad>
          </ns3:TrackPointExtension>
        </extensions>
      </trkpt>
      <trkpt lat="44.677462019026279449462890625" lon="6.82393326424062252044677734375">
        <ele>2335.199951171875</ele>
        <time>2026-08-31T06:43:49.000Z</time>
        <extensions>
          <ns3:TrackPointExtension>
            <ns3:hr>145</ns3:hr>
            <ns3:cad>0</ns3:cad>
          </ns3:TrackPointExtension>
        </extensions>
      </trkpt>
      <trkpt lat="44.6774662099778652191162109375" lon="6.82393175549805164337158203125">
        <ele>2335.199951171875</ele>
        <time>2026-08-31T06:43:50.000Z</time>
        <extensions>
          <ns3:TrackPointExtension>
            <ns3:hr>145</ns3:hr>
            <ns3:cad>0</ns3:cad>
          </ns3:TrackPointExtension>
        </extensions>
      </trkpt>
      <trkpt lat="44.677467383444309234619140625" lon="6.82393192313611507415771484375">
        <ele>2335.39990234375</ele>
        <time>2026-08-31T06:43:51.000Z</time>
        <extensions>
          <ns3:TrackPointExtension>
            <ns3:hr>145</ns3:hr>
            <ns3:cad>0</ns3:cad>
          </ns3:TrackPointExtension>
        </extensions>
      </trkpt>
      <trkpt lat="44.6774688921868801116943359375" lon="6.82392840273678302764892578125">
        <ele>2335.39990234375</ele>
        <time>2026-08-31T06:43:52.000Z</time>
        <extensions>
          <ns3:TrackPointExtension>
            <ns3:hr>146</ns3:hr>
            <ns3:cad>0</ns3:cad>
          </ns3:TrackPointExtension>
        </extensions>
      </trkpt>
      <trkpt lat="44.6774683892726898193359375" lon="6.82392940856516361236572265625">
        <ele>2335.39990234375</ele>
        <time>2026-08-31T06:43:53.000Z</time>
        <extensions>
          <ns3:TrackPointExtension>
            <ns3:hr>146</ns3:hr>
            <ns3:cad>0</ns3:cad>
          </ns3:TrackPointExtension>
        </extensions>
      </trkpt>
      <trkpt lat="44.677468053996562957763671875" lon="6.8239365331828594207763671875">
        <ele>2335.39990234375</ele>
        <time>2026-08-31T06:43:54.000Z</time>
        <extensions>
          <ns3:TrackPointExtension>
            <ns3:hr>146</ns3:hr>
            <ns3:cad>0</ns3:cad>
          </ns3:TrackPointExtension>
        </extensions>
      </trkpt>
      <trkpt lat="44.67746713198721408843994140625" lon="6.82394667528569698333740234375">
        <ele>2335.39990234375</ele>
        <time>2026-08-31T06:43:55.000Z</time>
        <extensions>
          <ns3:TrackPointExtension>
            <ns3:hr>146</ns3:hr>
            <ns3:cad>51</ns3:cad>
          </ns3:TrackPointExtension>
        </extensions>
      </trkpt>
      <trkpt lat="44.6774675510823726654052734375" lon="6.82395941577851772308349609375">
        <ele>2335.39990234375</ele>
        <time>2026-08-31T06:43:56.000Z</time>
        <extensions>
          <ns3:TrackPointExtension>
            <ns3:hr>146</ns3:hr>
            <ns3:cad>51</ns3:cad>
          </ns3:TrackPointExtension>
        </extensions>
      </trkpt>
      <trkpt lat="44.677467048168182373046875" lon="6.823975928127765655517578125">
        <ele>2335.60009765625</ele>
        <time>2026-08-31T06:43:57.000Z</time>
        <extensions>
          <ns3:TrackPointExtension>
            <ns3:hr>147</ns3:hr>
            <ns3:cad>53</ns3:cad>
          </ns3:TrackPointExtension>
        </extensions>
      </trkpt>
      <trkpt lat="44.677466712892055511474609375" lon="6.82398657314479351043701171875">
        <ele>2335.60009765625</ele>
        <time>2026-08-31T06:43:58.000Z</time>
        <extensions>
          <ns3:TrackPointExtension>
            <ns3:hr>147</ns3:hr>
            <ns3:cad>52</ns3:cad>
          </ns3:TrackPointExtension>
        </extensions>
      </trkpt>
      <trkpt lat="44.677467383444309234619140625" lon="6.8240019120275974273681640625">
        <ele>2335.800048828125</ele>
        <time>2026-08-31T06:43:59.000Z</time>
        <extensions>
          <ns3:TrackPointExtension>
            <ns3:hr>149</ns3:hr>
            <ns3:cad>53</ns3:cad>
          </ns3:TrackPointExtension>
        </extensions>
      </trkpt>
      <trkpt lat="44.67746998183429241180419921875" lon="6.8240159936249256134033203125">
        <ele>2336</ele>
        <time>2026-08-31T06:44:00.000Z</time>
        <extensions>
          <ns3:TrackPointExtension>
            <ns3:hr>151</ns3:hr>
            <ns3:cad>53</ns3:cad>
          </ns3:TrackPointExtension>
        </extensions>
      </trkpt>
      <trkpt lat="44.677473418414592742919921875" lon="6.8240290693938732147216796875">
        <ele>2336.199951171875</ele>
        <time>2026-08-31T06:44:01.000Z</time>
        <extensions>
          <ns3:TrackPointExtension>
            <ns3:hr>152</ns3:hr>
            <ns3:cad>53</ns3:cad>
          </ns3:TrackPointExtension>
        </extensions>
      </trkpt>
      <trkpt lat="44.6774745918810367584228515625" lon="6.824046671390533447265625">
        <ele>2336.39990234375</ele>
        <time>2026-08-31T06:44:02.000Z</time>
        <extensions>
          <ns3:TrackPointExtension>
            <ns3:hr>152</ns3:hr>
            <ns3:cad>53</ns3:cad>
          </ns3:TrackPointExtension>
        </extensions>
      </trkpt>
      <trkpt lat="44.677470736205577850341796875" lon="6.8240615911781787872314453125">
        <ele>2336.60009765625</ele>
        <time>2026-08-31T06:44:03.000Z</time>
        <extensions>
          <ns3:TrackPointExtension>
            <ns3:hr>152</ns3:hr>
            <ns3:cad>53</ns3:cad>
          </ns3:TrackPointExtension>
        </extensions>
      </trkpt>
      <trkpt lat="44.6774688921868801116943359375" lon="6.82407575659453868865966796875">
        <ele>2336.800048828125</ele>
        <time>2026-08-31T06:44:04.000Z</time>
        <extensions>
          <ns3:TrackPointExtension>
            <ns3:hr>152</ns3:hr>
            <ns3:cad>53</ns3:cad>
          </ns3:TrackPointExtension>
        </extensions>
      </trkpt>
      <trkpt lat="44.6774665452539920806884765625" lon="6.82408782653510570526123046875">
        <ele>2337</ele>
        <time>2026-08-31T06:44:05.000Z</time>
        <extensions>
          <ns3:TrackPointExtension>
            <ns3:hr>152</ns3:hr>
            <ns3:cad>53</ns3:cad>
          </ns3:TrackPointExtension>
        </extensions>
      </trkpt>
      <trkpt lat="44.67746059410274028778076171875" lon="6.82409956119954586029052734375">
        <ele>2337.199951171875</ele>
        <time>2026-08-31T06:44:06.000Z</time>
        <extensions>
          <ns3:TrackPointExtension>
            <ns3:hr>152</ns3:hr>
            <ns3:cad>53</ns3:cad>
          </ns3:TrackPointExtension>
        </extensions>
      </trkpt>
      <trkpt lat="44.6774564869701862335205078125" lon="6.82410961948335170745849609375">
        <ele>2337.39990234375</ele>
        <time>2026-08-31T06:44:07.000Z</time>
        <extensions>
          <ns3:TrackPointExtension>
            <ns3:hr>152</ns3:hr>
            <ns3:cad>53</ns3:cad>
          </ns3:TrackPointExtension>
        </extensions>
      </trkpt>
      <trkpt lat="44.6774517931044101715087890625" lon="6.82412244379520416259765625">
        <ele>2337.800048828125</ele>
        <time>2026-08-31T06:44:08.000Z</time>
        <extensions>
          <ns3:TrackPointExtension>
            <ns3:hr>152</ns3:hr>
            <ns3:cad>53</ns3:cad>
          </ns3:TrackPointExtension>
        </extensions>
      </trkpt>
      <trkpt lat="44.677447937428951263427734375" lon="6.824132502079010009765625">
        <ele>2338</ele>
        <time>2026-08-31T06:44:09.000Z</time>
        <extensions>
          <ns3:TrackPointExtension>
            <ns3:hr>152</ns3:hr>
            <ns3:cad>53</ns3:cad>
          </ns3:TrackPointExtension>
        </extensions>
      </trkpt>
      <trkpt lat="44.677442573010921478271484375" lon="6.82414566166698932647705078125">
        <ele>2338.199951171875</ele>
        <time>2026-08-31T06:44:10.000Z</time>
        <extensions>
          <ns3:TrackPointExtension>
            <ns3:hr>153</ns3:hr>
            <ns3:cad>53</ns3:cad>
          </ns3:TrackPointExtension>
        </extensions>
      </trkpt>
      <trkpt lat="44.677438549697399139404296875" lon="6.8241568095982074737548828125">
        <ele>2338.39990234375</ele>
        <time>2026-08-31T06:44:11.000Z</time>
        <extensions>
          <ns3:TrackPointExtension>
            <ns3:hr>153</ns3:hr>
            <ns3:cad>0</ns3:cad>
          </ns3:TrackPointExtension>
        </extensions>
      </trkpt>
      <trkpt lat="44.67743326909840106964111328125" lon="6.8241722323000431060791015625">
        <ele>2338.60009765625</ele>
        <time>2026-08-31T06:44:12.000Z</time>
        <extensions>
          <ns3:TrackPointExtension>
            <ns3:hr>153</ns3:hr>
            <ns3:cad>0</ns3:cad>
          </ns3:TrackPointExtension>
        </extensions>
      </trkpt>
      <trkpt lat="44.67743108980357646942138671875" lon="6.8241846375167369842529296875">
        <ele>2338.800048828125</ele>
        <time>2026-08-31T06:44:13.000Z</time>
        <extensions>
          <ns3:TrackPointExtension>
            <ns3:hr>154</ns3:hr>
            <ns3:cad>0</ns3:cad>
          </ns3:TrackPointExtension>
        </extensions>
      </trkpt>
      <trkpt lat="44.67743092216551303863525390625" lon="6.824196875095367431640625">
        <ele>2339.199951171875</ele>
        <time>2026-08-31T06:44:14.000Z</time>
        <extensions>
          <ns3:TrackPointExtension>
            <ns3:hr>154</ns3:hr>
            <ns3:cad>0</ns3:cad>
          </ns3:TrackPointExtension>
        </extensions>
      </trkpt>
      <trkpt lat="44.67743142507970333099365234375" lon="6.8242111243307590484619140625">
        <ele>2339.39990234375</ele>
        <time>2026-08-31T06:44:15.000Z</time>
        <extensions>
          <ns3:TrackPointExtension>
            <ns3:hr>154</ns3:hr>
            <ns3:cad>0</ns3:cad>
          </ns3:TrackPointExtension>
        </extensions>
      </trkpt>
      <trkpt lat="44.67743075452744960784912109375" lon="6.82422629557549953460693359375">
        <ele>2339.800048828125</ele>
        <time>2026-08-31T06:44:16.000Z</time>
        <extensions>
          <ns3:TrackPointExtension>
            <ns3:hr>155</ns3:hr>
            <ns3:cad>0</ns3:cad>
          </ns3:TrackPointExtension>
        </extensions>
      </trkpt>
      <trkpt lat="44.677431173622608184814453125" lon="6.82423870079219341278076171875">
        <ele>2340</ele>
        <time>2026-08-31T06:44:17.000Z</time>
        <extensions>
          <ns3:TrackPointExtension>
            <ns3:hr>155</ns3:hr>
            <ns3:cad>0</ns3:cad>
          </ns3:TrackPointExtension>
        </extensions>
      </trkpt>
      <trkpt lat="44.6774310059845447540283203125" lon="6.8242506869137287139892578125">
        <ele>2340.199951171875</ele>
        <time>2026-08-31T06:44:18.000Z</time>
        <extensions>
          <ns3:TrackPointExtension>
            <ns3:hr>156</ns3:hr>
            <ns3:cad>0</ns3:cad>
          </ns3:TrackPointExtension>
        </extensions>
      </trkpt>
      <trkpt lat="44.67743041925132274627685546875" lon="6.8242681212723255157470703125">
        <ele>2340.199951171875</ele>
        <time>2026-08-31T06:44:19.000Z</time>
        <extensions>
          <ns3:TrackPointExtension>
            <ns3:hr>157</ns3:hr>
            <ns3:cad>0</ns3:cad>
          </ns3:TrackPointExtension>
        </extensions>
      </trkpt>
      <trkpt lat="44.67743159271776676177978515625" lon="6.82427692227065563201904296875">
        <ele>2340.39990234375</ele>
        <time>2026-08-31T06:44:20.000Z</time>
        <extensions>
          <ns3:TrackPointExtension>
            <ns3:hr>157</ns3:hr>
            <ns3:cad>0</ns3:cad>
          </ns3:TrackPointExtension>
        </extensions>
      </trkpt>
      <trkpt lat="44.67743150889873504638671875" lon="6.82428899221122264862060546875">
        <ele>2340.60009765625</ele>
        <time>2026-08-31T06:44:21.000Z</time>
        <extensions>
          <ns3:TrackPointExtension>
            <ns3:hr>158</ns3:hr>
            <ns3:cad>0</ns3:cad>
          </ns3:TrackPointExtension>
        </extensions>
      </trkpt>
      <trkpt lat="44.67743192799389362335205078125" lon="6.82429544627666473388671875">
        <ele>2340.60009765625</ele>
        <time>2026-08-31T06:44:22.000Z</time>
        <extensions>
          <ns3:TrackPointExtension>
            <ns3:hr>159</ns3:hr>
            <ns3:cad>0</ns3:cad>
          </ns3:TrackPointExtension>
        </extensions>
      </trkpt>
      <trkpt lat="44.6774296648800373077392578125" lon="6.824300475418567657470703125">
        <ele>2341</ele>
        <time>2026-08-31T06:44:23.000Z</time>
        <extensions>
          <ns3:TrackPointExtension>
            <ns3:hr>160</ns3:hr>
            <ns3:cad>0</ns3:cad>
          </ns3:TrackPointExtension>
        </extensions>
      </trkpt>
      <trkpt lat="44.67742882668972015380859375" lon="6.82431296445429325103759765625">
        <ele>2341.199951171875</ele>
        <time>2026-08-31T06:44:24.000Z</time>
        <extensions>
          <ns3:TrackPointExtension>
            <ns3:hr>160</ns3:hr>
            <ns3:cad>0</ns3:cad>
          </ns3:TrackPointExtension>
        </extensions>
      </trkpt>
      <trkpt lat="44.677429497241973876953125" lon="6.82432302273809909820556640625">
        <ele>2341.39990234375</ele>
        <time>2026-08-31T06:44:25.000Z</time>
        <extensions>
          <ns3:TrackPointExtension>
            <ns3:hr>161</ns3:hr>
            <ns3:cad>0</ns3:cad>
          </ns3:TrackPointExtension>
        </extensions>
      </trkpt>
      <trkpt lat="44.67742924578487873077392578125" lon="6.82433458976447582244873046875">
        <ele>2341.60009765625</ele>
        <time>2026-08-31T06:44:26.000Z</time>
        <extensions>
          <ns3:TrackPointExtension>
            <ns3:hr>162</ns3:hr>
            <ns3:cad>0</ns3:cad>
          </ns3:TrackPointExtension>
        </extensions>
      </trkpt>
      <trkpt lat="44.67742756940424442291259765625" lon="6.82433995418250560760498046875">
        <ele>2341.800048828125</ele>
        <time>2026-08-31T06:44:27.000Z</time>
        <extensions>
          <ns3:TrackPointExtension>
            <ns3:hr>162</ns3:hr>
            <ns3:cad>0</ns3:cad>
          </ns3:TrackPointExtension>
        </extensions>
      </trkpt>
      <trkpt lat="44.6774246357381343841552734375" lon="6.82435235939919948577880859375">
        <ele>2342</ele>
        <time>2026-08-31T06:44:28.000Z</time>
        <extensions>
          <ns3:TrackPointExtension>
            <ns3:hr>163</ns3:hr>
            <ns3:cad>0</ns3:cad>
          </ns3:TrackPointExtension>
        </extensions>
      </trkpt>
      <trkpt lat="44.67742522247135639190673828125" lon="6.82436409406363964080810546875">
        <ele>2342.199951171875</ele>
        <time>2026-08-31T06:44:29.000Z</time>
        <extensions>
          <ns3:TrackPointExtension>
            <ns3:hr>163</ns3:hr>
            <ns3:cad>0</ns3:cad>
          </ns3:TrackPointExtension>
        </extensions>
      </trkpt>
      <trkpt lat="44.6774269826710224151611328125" lon="6.82437784038484096527099609375">
        <ele>2342.39990234375</ele>
        <time>2026-08-31T06:44:30.000Z</time>
        <extensions>
          <ns3:TrackPointExtension>
            <ns3:hr>164</ns3:hr>
            <ns3:cad>0</ns3:cad>
          </ns3:TrackPointExtension>
        </extensions>
      </trkpt>
      <trkpt lat="44.67742740176618099212646484375" lon="6.8243904970586299896240234375">
        <ele>2342.60009765625</ele>
        <time>2026-08-31T06:44:31.000Z</time>
        <extensions>
          <ns3:TrackPointExtension>
            <ns3:hr>164</ns3:hr>
            <ns3:cad>0</ns3:cad>
          </ns3:TrackPointExtension>
        </extensions>
      </trkpt>
      <trkpt lat="44.67742555774748325347900390625" lon="6.824394352734088897705078125">
        <ele>2342.800048828125</ele>
        <time>2026-08-31T06:44:32.000Z</time>
        <extensions>
          <ns3:TrackPointExtension>
            <ns3:hr>165</ns3:hr>
            <ns3:cad>0</ns3:cad>
          </ns3:TrackPointExtension>
        </extensions>
      </trkpt>
      <trkpt lat="44.6774283237755298614501953125" lon="6.824409775435924530029296875">
        <ele>2343</ele>
        <time>2026-08-31T06:44:33.000Z</time>
        <extensions>
          <ns3:TrackPointExtension>
            <ns3:hr>164</ns3:hr>
            <ns3:cad>0</ns3:cad>
          </ns3:TrackPointExtension>
        </extensions>
      </trkpt>
      <trkpt lat="44.67743041925132274627685546875" lon="6.824421174824237823486328125">
        <ele>2343.199951171875</ele>
        <time>2026-08-31T06:44:34.000Z</time>
        <extensions>
          <ns3:TrackPointExtension>
            <ns3:hr>164</ns3:hr>
            <ns3:cad>0</ns3:cad>
          </ns3:TrackPointExtension>
        </extensions>
      </trkpt>
      <trkpt lat="44.67742974869906902313232421875" lon="6.82444120757281780242919921875">
        <ele>2343.39990234375</ele>
        <time>2026-08-31T06:44:35.000Z</time>
        <extensions>
          <ns3:TrackPointExtension>
            <ns3:hr>164</ns3:hr>
            <ns3:cad>0</ns3:cad>
          </ns3:TrackPointExtension>
        </extensions>
      </trkpt>
      <trkpt lat="44.6774273179471492767333984375" lon="6.824452020227909088134765625">
        <ele>2343.39990234375</ele>
        <time>2026-08-31T06:44:36.000Z</time>
        <extensions>
          <ns3:TrackPointExtension>
            <ns3:hr>165</ns3:hr>
            <ns3:cad>0</ns3:cad>
          </ns3:TrackPointExtension>
        </extensions>
      </trkpt>
      <trkpt lat="44.677423126995563507080078125" lon="6.824467442929744720458984375">
        <ele>2343.60009765625</ele>
        <time>2026-08-31T06:44:37.000Z</time>
        <extensions>
          <ns3:TrackPointExtension>
            <ns3:hr>165</ns3:hr>
            <ns3:cad>44</ns3:cad>
          </ns3:TrackPointExtension>
        </extensions>
      </trkpt>
      <trkpt lat="44.67742136679589748382568359375" lon="6.82447976432740688323974609375">
        <ele>2343.800048828125</ele>
        <time>2026-08-31T06:44:38.000Z</time>
        <extensions>
          <ns3:TrackPointExtension>
            <ns3:hr>165</ns3:hr>
            <ns3:cad>44</ns3:cad>
          </ns3:TrackPointExtension>
        </extensions>
      </trkpt>
      <trkpt lat="44.67741684056818485260009765625" lon="6.8244867213070392608642578125">
        <ele>2344</ele>
        <time>2026-08-31T06:44:39.000Z</time>
        <extensions>
          <ns3:TrackPointExtension>
            <ns3:hr>166</ns3:hr>
            <ns3:cad>44</ns3:cad>
          </ns3:TrackPointExtension>
        </extensions>
      </trkpt>
      <trkpt lat="44.677413403987884521484375" lon="6.824497617781162261962890625">
        <ele>2344.199951171875</ele>
        <time>2026-08-31T06:44:40.000Z</time>
        <extensions>
          <ns3:TrackPointExtension>
            <ns3:hr>166</ns3:hr>
            <ns3:cad>55</ns3:cad>
          </ns3:TrackPointExtension>
        </extensions>
      </trkpt>
      <trkpt lat="44.67740871012210845947265625" lon="6.824504993855953216552734375">
        <ele>2344.39990234375</ele>
        <time>2026-08-31T06:44:41.000Z</time>
        <extensions>
          <ns3:TrackPointExtension>
            <ns3:hr>166</ns3:hr>
            <ns3:cad>55</ns3:cad>
          </ns3:TrackPointExtension>
        </extensions>
      </trkpt>
      <trkpt lat="44.67740292660892009735107421875" lon="6.82451865635812282562255859375">
        <ele>2344.60009765625</ele>
        <time>2026-08-31T06:44:42.000Z</time>
        <extensions>
          <ns3:TrackPointExtension>
            <ns3:hr>165</ns3:hr>
            <ns3:cad>19</ns3:cad>
          </ns3:TrackPointExtension>
        </extensions>
      </trkpt>
      <trkpt lat="44.6773984842002391815185546875" lon="6.82452787645161151885986328125">
        <ele>2344.800048828125</ele>
        <time>2026-08-31T06:44:43.000Z</time>
        <extensions>
          <ns3:TrackPointExtension>
            <ns3:hr>165</ns3:hr>
            <ns3:cad>19</ns3:cad>
          </ns3:TrackPointExtension>
        </extensions>
      </trkpt>
      <trkpt lat="44.67739270068705081939697265625" lon="6.824540197849273681640625">
        <ele>2345</ele>
        <time>2026-08-31T06:44:44.000Z</time>
        <extensions>
          <ns3:TrackPointExtension>
            <ns3:hr>165</ns3:hr>
            <ns3:cad>57</ns3:cad>
          </ns3:TrackPointExtension>
        </extensions>
      </trkpt>
      <trkpt lat="44.67738800682127475738525390625" lon="6.8245504237711429595947265625">
        <ele>2345.199951171875</ele>
        <time>2026-08-31T06:44:45.000Z</time>
        <extensions>
          <ns3:TrackPointExtension>
            <ns3:hr>165</ns3:hr>
            <ns3:cad>57</ns3:cad>
          </ns3:TrackPointExtension>
        </extensions>
      </trkpt>
      <trkpt lat="44.67738457024097442626953125" lon="6.82456257753074169158935546875">
        <ele>2345.60009765625</ele>
        <time>2026-08-31T06:44:46.000Z</time>
        <extensions>
          <ns3:TrackPointExtension>
            <ns3:hr>165</ns3:hr>
            <ns3:cad>57</ns3:cad>
          </ns3:TrackPointExtension>
        </extensions>
      </trkpt>
      <trkpt lat="44.67738281004130840301513671875" lon="6.82457649149000644683837890625">
        <ele>2345.800048828125</ele>
        <time>2026-08-31T06:44:47.000Z</time>
        <extensions>
          <ns3:TrackPointExtension>
            <ns3:hr>165</ns3:hr>
            <ns3:cad>57</ns3:cad>
          </ns3:TrackPointExtension>
        </extensions>
      </trkpt>
      <trkpt lat="44.677382223308086395263671875" lon="6.8245913274586200714111328125">
        <ele>2346</ele>
        <time>2026-08-31T06:44:48.000Z</time>
        <extensions>
          <ns3:TrackPointExtension>
            <ns3:hr>166</ns3:hr>
            <ns3:cad>57</ns3:cad>
          </ns3:TrackPointExtension>
        </extensions>
      </trkpt>
      <trkpt lat="44.67738146893680095672607421875" lon="6.8246047385036945343017578125">
        <ele>2346.199951171875</ele>
        <time>2026-08-31T06:44:49.000Z</time>
        <extensions>
          <ns3:TrackPointExtension>
            <ns3:hr>167</ns3:hr>
            <ns3:cad>0</ns3:cad>
          </ns3:TrackPointExtension>
        </extensions>
      </trkpt>
      <trkpt lat="44.6773798763751983642578125" lon="6.8246168084442615509033203125">
        <ele>2346.39990234375</ele>
        <time>2026-08-31T06:44:50.000Z</time>
        <extensions>
          <ns3:TrackPointExtension>
            <ns3:hr>167</ns3:hr>
            <ns3:cad>0</ns3:cad>
          </ns3:TrackPointExtension>
        </extensions>
      </trkpt>
      <trkpt lat="44.67737794853746891021728515625" lon="6.82462745346128940582275390625">
        <ele>2346.39990234375</ele>
        <time>2026-08-31T06:44:51.000Z</time>
        <extensions>
          <ns3:TrackPointExtension>
            <ns3:hr>167</ns3:hr>
            <ns3:cad>0</ns3:cad>
          </ns3:TrackPointExtension>
        </extensions>
      </trkpt>
      <trkpt lat="44.6773743443191051483154296875" lon="6.824643127620220184326171875">
        <ele>2346.60009765625</ele>
        <time>2026-08-31T06:44:52.000Z</time>
        <extensions>
          <ns3:TrackPointExtension>
            <ns3:hr>167</ns3:hr>
            <ns3:cad>0</ns3:cad>
          </ns3:TrackPointExtension>
        </extensions>
      </trkpt>
      <trkpt lat="44.677372165024280548095703125" lon="6.82465276680886745452880859375">
        <ele>2346.800048828125</ele>
        <time>2026-08-31T06:44:53.000Z</time>
        <extensions>
          <ns3:TrackPointExtension>
            <ns3:hr>167</ns3:hr>
            <ns3:cad>0</ns3:cad>
          </ns3:TrackPointExtension>
        </extensions>
      </trkpt>
      <trkpt lat="44.67737023718655109405517578125" lon="6.8246649205684661865234375">
        <ele>2347</ele>
        <time>2026-08-31T06:44:54.000Z</time>
        <extensions>
          <ns3:TrackPointExtension>
            <ns3:hr>168</ns3:hr>
            <ns3:cad>0</ns3:cad>
          </ns3:TrackPointExtension>
        </extensions>
      </trkpt>
      <trkpt lat="44.6773669682443141937255859375" lon="6.82467707432806491851806640625">
        <ele>2347.199951171875</ele>
        <time>2026-08-31T06:44:55.000Z</time>
        <extensions>
          <ns3:TrackPointExtension>
            <ns3:hr>168</ns3:hr>
            <ns3:cad>0</ns3:cad>
          </ns3:TrackPointExtension>
        </extensions>
      </trkpt>
      <trkpt lat="44.6773646213114261627197265625" lon="6.82468730024993419647216796875">
        <ele>2347.39990234375</ele>
        <time>2026-08-31T06:44:56.000Z</time>
        <extensions>
          <ns3:TrackPointExtension>
            <ns3:hr>168</ns3:hr>
            <ns3:cad>0</ns3:cad>
          </ns3:TrackPointExtension>
        </extensions>
      </trkpt>
      <trkpt lat="44.67736177146434783935546875" lon="6.8246989510953426361083984375">
        <ele>2347.800048828125</ele>
        <time>2026-08-31T06:44:57.000Z</time>
        <extensions>
          <ns3:TrackPointExtension>
            <ns3:hr>167</ns3:hr>
            <ns3:cad>0</ns3:cad>
          </ns3:TrackPointExtension>
        </extensions>
      </trkpt>
      <trkpt lat="44.67735917307436466217041015625" lon="6.82469886727631092071533203125">
        <ele>2347.800048828125</ele>
        <time>2026-08-31T06:44:58.000Z</time>
        <extensions>
          <ns3:TrackPointExtension>
            <ns3:hr>167</ns3:hr>
            <ns3:cad>0</ns3:cad>
          </ns3:TrackPointExtension>
        </extensions>
      </trkpt>
      <trkpt lat="44.67735414393246173858642578125" lon="6.82470892556011676788330078125">
        <ele>2348</ele>
        <time>2026-08-31T06:44:59.000Z</time>
        <extensions>
          <ns3:TrackPointExtension>
            <ns3:hr>166</ns3:hr>
            <ns3:cad>0</ns3:cad>
          </ns3:TrackPointExtension>
        </extensions>
      </trkpt>
      <trkpt lat="44.6773512102663516998291015625" lon="6.824717223644256591796875">
        <ele>2348.199951171875</ele>
        <time>2026-08-31T06:45:00.000Z</time>
        <extensions>
          <ns3:TrackPointExtension>
            <ns3:hr>166</ns3:hr>
            <ns3:cad>0</ns3:cad>
          </ns3:TrackPointExtension>
        </extensions>
      </trkpt>
      <trkpt lat="44.67734693549573421478271484375" lon="6.8247297964990139007568359375">
        <ele>2348.39990234375</ele>
        <time>2026-08-31T06:45:01.000Z</time>
        <extensions>
          <ns3:TrackPointExtension>
            <ns3:hr>166</ns3:hr>
            <ns3:cad>0</ns3:cad>
          </ns3:TrackPointExtension>
        </extensions>
      </trkpt>
      <trkpt lat="44.67734341509640216827392578125" lon="6.824741363525390625">
        <ele>2348.60009765625</ele>
        <time>2026-08-31T06:45:02.000Z</time>
        <extensions>
          <ns3:TrackPointExtension>
            <ns3:hr>166</ns3:hr>
            <ns3:cad>0</ns3:cad>
          </ns3:TrackPointExtension>
        </extensions>
      </trkpt>
      <trkpt lat="44.677338302135467529296875" lon="6.82474865578114986419677734375">
        <ele>2348.800048828125</ele>
        <time>2026-08-31T06:45:03.000Z</time>
        <extensions>
          <ns3:TrackPointExtension>
            <ns3:hr>166</ns3:hr>
            <ns3:cad>0</ns3:cad>
          </ns3:TrackPointExtension>
        </extensions>
      </trkpt>
      <trkpt lat="44.67733360826969146728515625" lon="6.82475670240819454193115234375">
        <ele>2349</ele>
        <time>2026-08-31T06:45:04.000Z</time>
        <extensions>
          <ns3:TrackPointExtension>
            <ns3:hr>165</ns3:hr>
            <ns3:cad>0</ns3:cad>
          </ns3:TrackPointExtension>
        </extensions>
      </trkpt>
      <trkpt lat="44.67732732184231281280517578125" lon="6.8247693590819835662841796875">
        <ele>2349.199951171875</ele>
        <time>2026-08-31T06:45:05.000Z</time>
        <extensions>
          <ns3:TrackPointExtension>
            <ns3:hr>165</ns3:hr>
            <ns3:cad>0</ns3:cad>
          </ns3:TrackPointExtension>
        </extensions>
      </trkpt>
      <trkpt lat="44.67732531018555164337158203125" lon="6.82477061636745929718017578125">
        <ele>2349.39990234375</ele>
        <time>2026-08-31T06:45:06.000Z</time>
        <extensions>
          <ns3:TrackPointExtension>
            <ns3:hr>165</ns3:hr>
            <ns3:cad>0</ns3:cad>
          </ns3:TrackPointExtension>
        </extensions>
      </trkpt>
      <trkpt lat="44.6773176826536655426025390625" lon="6.82478084228932857513427734375">
        <ele>2349.800048828125</ele>
        <time>2026-08-31T06:45:07.000Z</time>
        <extensions>
          <ns3:TrackPointExtension>
            <ns3:hr>165</ns3:hr>
            <ns3:cad>0</ns3:cad>
          </ns3:TrackPointExtension>
        </extensions>
      </trkpt>
      <trkpt lat="44.677313156425952911376953125" lon="6.82478385977447032928466796875">
        <ele>2350</ele>
        <time>2026-08-31T06:45:08.000Z</time>
        <extensions>
          <ns3:TrackPointExtension>
            <ns3:hr>164</ns3:hr>
            <ns3:cad>0</ns3:cad>
          </ns3:TrackPointExtension>
        </extensions>
      </trkpt>
      <trkpt lat="44.67730284668505191802978515625" lon="6.82479794137179851531982421875">
        <ele>2350.199951171875</ele>
        <time>2026-08-31T06:45:09.000Z</time>
        <extensions>
          <ns3:TrackPointExtension>
            <ns3:hr>165</ns3:hr>
            <ns3:cad>0</ns3:cad>
          </ns3:TrackPointExtension>
        </extensions>
      </trkpt>
      <trkpt lat="44.677298404276371002197265625" lon="6.82480447925627231597900390625">
        <ele>2350.39990234375</ele>
        <time>2026-08-31T06:45:10.000Z</time>
        <extensions>
          <ns3:TrackPointExtension>
            <ns3:hr>165</ns3:hr>
            <ns3:cad>0</ns3:cad>
          </ns3:TrackPointExtension>
        </extensions>
      </trkpt>
      <trkpt lat="44.67728666961193084716796875" lon="6.8248206563293933868408203125">
        <ele>2350.60009765625</ele>
        <time>2026-08-31T06:45:11.000Z</time>
        <extensions>
          <ns3:TrackPointExtension>
            <ns3:hr>165</ns3:hr>
            <ns3:cad>0</ns3:cad>
          </ns3:TrackPointExtension>
        </extensions>
      </trkpt>
      <trkpt lat="44.67728122137486934661865234375" lon="6.82482828386127948760986328125">
        <ele>2350.800048828125</ele>
        <time>2026-08-31T06:45:12.000Z</time>
        <extensions>
          <ns3:TrackPointExtension>
            <ns3:hr>164</ns3:hr>
            <ns3:cad>0</ns3:cad>
          </ns3:TrackPointExtension>
        </extensions>
      </trkpt>
      <trkpt lat="44.67727501876652240753173828125" lon="6.82482861913740634918212890625">
        <ele>2351</ele>
        <time>2026-08-31T06:45:13.000Z</time>
        <extensions>
          <ns3:TrackPointExtension>
            <ns3:hr>165</ns3:hr>
            <ns3:cad>0</ns3:cad>
          </ns3:TrackPointExtension>
        </extensions>
      </trkpt>
      <trkpt lat="44.67726294882595539093017578125" lon="6.82483398355543613433837890625">
        <ele>2351.199951171875</ele>
        <time>2026-08-31T06:45:14.000Z</time>
        <extensions>
          <ns3:TrackPointExtension>
            <ns3:hr>164</ns3:hr>
            <ns3:cad>0</ns3:cad>
          </ns3:TrackPointExtension>
        </extensions>
      </trkpt>
      <trkpt lat="44.67725808732211589813232421875" lon="6.82483465410768985748291015625">
        <ele>2351.39990234375</ele>
        <time>2026-08-31T06:45:15.000Z</time>
        <extensions>
          <ns3:TrackPointExtension>
            <ns3:hr>164</ns3:hr>
            <ns3:cad>0</ns3:cad>
          </ns3:TrackPointExtension>
        </extensions>
      </trkpt>
      <trkpt lat="44.67724987305700778961181640625" lon="6.8248431198298931121826171875">
        <ele>2351.60009765625</ele>
        <time>2026-08-31T06:45:16.000Z</time>
        <extensions>
          <ns3:TrackPointExtension>
            <ns3:hr>164</ns3:hr>
            <ns3:cad>0</ns3:cad>
          </ns3:TrackPointExtension>
        </extensions>
      </trkpt>
      <trkpt lat="44.67724601738154888153076171875" lon="6.82484990917146205902099609375">
        <ele>2351.800048828125</ele>
        <time>2026-08-31T06:45:17.000Z</time>
        <extensions>
          <ns3:TrackPointExtension>
            <ns3:hr>164</ns3:hr>
            <ns3:cad>0</ns3:cad>
          </ns3:TrackPointExtension>
        </extensions>
      </trkpt>
      <trkpt lat="44.6772412396967411041259765625" lon="6.824859715998172760009765625">
        <ele>2352</ele>
        <time>2026-08-31T06:45:18.000Z</time>
        <extensions>
          <ns3:TrackPointExtension>
            <ns3:hr>164</ns3:hr>
            <ns3:cad>0</ns3:cad>
          </ns3:TrackPointExtension>
        </extensions>
      </trkpt>
      <trkpt lat="44.677236042916774749755859375" lon="6.82487069629132747650146484375">
        <ele>2352.199951171875</ele>
        <time>2026-08-31T06:45:19.000Z</time>
        <extensions>
          <ns3:TrackPointExtension>
            <ns3:hr>164</ns3:hr>
            <ns3:cad>0</ns3:cad>
          </ns3:TrackPointExtension>
        </extensions>
      </trkpt>
      <trkpt lat="44.6772243082523345947265625" lon="6.82488092221319675445556640625">
        <ele>2352.39990234375</ele>
        <time>2026-08-31T06:45:20.000Z</time>
        <extensions>
          <ns3:TrackPointExtension>
            <ns3:hr>164</ns3:hr>
            <ns3:cad>0</ns3:cad>
          </ns3:TrackPointExtension>
        </extensions>
      </trkpt>
      <trkpt lat="44.677213914692401885986328125" lon="6.82488980703055858612060546875">
        <ele>2352.60009765625</ele>
        <time>2026-08-31T06:45:21.000Z</time>
        <extensions>
          <ns3:TrackPointExtension>
            <ns3:hr>165</ns3:hr>
            <ns3:cad>0</ns3:cad>
          </ns3:TrackPointExtension>
        </extensions>
      </trkpt>
      <trkpt lat="44.67720712535083293914794921875" lon="6.8248929083347320556640625">
        <ele>2352.800048828125</ele>
        <time>2026-08-31T06:45:22.000Z</time>
        <extensions>
          <ns3:TrackPointExtension>
            <ns3:hr>165</ns3:hr>
            <ns3:cad>0</ns3:cad>
          </ns3:TrackPointExtension>
        </extensions>
      </trkpt>
      <trkpt lat="44.6771969832479953765869140625" lon="6.82490430772304534912109375">
        <ele>2352.800048828125</ele>
        <time>2026-08-31T06:45:23.000Z</time>
        <extensions>
          <ns3:TrackPointExtension>
            <ns3:hr>165</ns3:hr>
            <ns3:cad>0</ns3:cad>
          </ns3:TrackPointExtension>
        </extensions>
      </trkpt>
      <trkpt lat="44.6771922893822193145751953125" lon="6.8249125219881534576416015625">
        <ele>2353</ele>
        <time>2026-08-31T06:45:24.000Z</time>
        <extensions>
          <ns3:TrackPointExtension>
            <ns3:hr>165</ns3:hr>
            <ns3:cad>0</ns3:cad>
          </ns3:TrackPointExtension>
        </extensions>
      </trkpt>
      <trkpt lat="44.67718784697353839874267578125" lon="6.82491998188197612762451171875">
        <ele>2353.199951171875</ele>
        <time>2026-08-31T06:45:25.000Z</time>
        <extensions>
          <ns3:TrackPointExtension>
            <ns3:hr>164</ns3:hr>
            <ns3:cad>0</ns3:cad>
          </ns3:TrackPointExtension>
        </extensions>
      </trkpt>
      <trkpt lat="44.67718206346035003662109375" lon="6.8249255977571010589599609375">
        <ele>2353.39990234375</ele>
        <time>2026-08-31T06:45:26.000Z</time>
        <extensions>
          <ns3:TrackPointExtension>
            <ns3:hr>164</ns3:hr>
            <ns3:cad>0</ns3:cad>
          </ns3:TrackPointExtension>
        </extensions>
      </trkpt>
      <trkpt lat="44.67717108316719532012939453125" lon="6.8249363265931606292724609375">
        <ele>2353.60009765625</ele>
        <time>2026-08-31T06:45:27.000Z</time>
        <extensions>
          <ns3:TrackPointExtension>
            <ns3:hr>164</ns3:hr>
            <ns3:cad>0</ns3:cad>
          </ns3:TrackPointExtension>
        </extensions>
      </trkpt>
      <trkpt lat="44.67716186307370662689208984375" lon="6.82494294829666614532470703125">
        <ele>2353.800048828125</ele>
        <time>2026-08-31T06:45:28.000Z</time>
        <extensions>
          <ns3:TrackPointExtension>
            <ns3:hr>165</ns3:hr>
            <ns3:cad>0</ns3:cad>
          </ns3:TrackPointExtension>
        </extensions>
      </trkpt>
      <trkpt lat="44.6771537326276302337646484375" lon="6.82494328357279300689697265625">
        <ele>2354</ele>
        <time>2026-08-31T06:45:29.000Z</time>
        <extensions>
          <ns3:TrackPointExtension>
            <ns3:hr>164</ns3:hr>
            <ns3:cad>0</ns3:cad>
          </ns3:TrackPointExtension>
        </extensions>
      </trkpt>
      <trkpt lat="44.6771411597728729248046875" lon="6.82495233602821826934814453125">
        <ele>2354.199951171875</ele>
        <time>2026-08-31T06:45:30.000Z</time>
        <extensions>
          <ns3:TrackPointExtension>
            <ns3:hr>164</ns3:hr>
            <ns3:cad>0</ns3:cad>
          </ns3:TrackPointExtension>
        </extensions>
      </trkpt>
      <trkpt lat="44.6771349571645259857177734375" lon="6.82496130466461181640625">
        <ele>2354.39990234375</ele>
        <time>2026-08-31T06:45:31.000Z</time>
        <extensions>
          <ns3:TrackPointExtension>
            <ns3:hr>164</ns3:hr>
            <ns3:cad>0</ns3:cad>
          </ns3:TrackPointExtension>
        </extensions>
      </trkpt>
      <trkpt lat="44.67712707817554473876953125" lon="6.8249688483774662017822265625">
        <ele>2354.800048828125</ele>
        <time>2026-08-31T06:45:32.000Z</time>
        <extensions>
          <ns3:TrackPointExtension>
            <ns3:hr>165</ns3:hr>
            <ns3:cad>0</ns3:cad>
          </ns3:TrackPointExtension>
        </extensions>
      </trkpt>
      <trkpt lat="44.67712297104299068450927734375" lon="6.82497580535709857940673828125">
        <ele>2355</ele>
        <time>2026-08-31T06:45:33.000Z</time>
        <extensions>
          <ns3:TrackPointExtension>
            <ns3:hr>166</ns3:hr>
            <ns3:cad>0</ns3:cad>
          </ns3:TrackPointExtension>
        </extensions>
      </trkpt>
      <trkpt lat="44.6771143376827239990234375" lon="6.82498703710734844207763671875">
        <ele>2355.199951171875</ele>
        <time>2026-08-31T06:45:34.000Z</time>
        <extensions>
          <ns3:TrackPointExtension>
            <ns3:hr>167</ns3:hr>
            <ns3:cad>0</ns3:cad>
          </ns3:TrackPointExtension>
        </extensions>
      </trkpt>
      <trkpt lat="44.6771121583878993988037109375" lon="6.82499416172504425048828125">
        <ele>2355.39990234375</ele>
        <time>2026-08-31T06:45:35.000Z</time>
        <extensions>
          <ns3:TrackPointExtension>
            <ns3:hr>167</ns3:hr>
            <ns3:cad>0</ns3:cad>
          </ns3:TrackPointExtension>
        </extensions>
      </trkpt>
      <trkpt lat="44.6771088056266307830810546875" lon="6.824995838105678558349609375">
        <ele>2355.60009765625</ele>
        <time>2026-08-31T06:45:36.000Z</time>
        <extensions>
          <ns3:TrackPointExtension>
            <ns3:hr>167</ns3:hr>
            <ns3:cad>0</ns3:cad>
          </ns3:TrackPointExtension>
        </extensions>
      </trkpt>
      <trkpt lat="44.67710469849407672882080078125" lon="6.82500581257045269012451171875">
        <ele>2355.800048828125</ele>
        <time>2026-08-31T06:45:37.000Z</time>
        <extensions>
          <ns3:TrackPointExtension>
            <ns3:hr>168</ns3:hr>
            <ns3:cad>0</ns3:cad>
          </ns3:TrackPointExtension>
        </extensions>
      </trkpt>
      <trkpt lat="44.6770994178950786590576171875" lon="6.82501503266394138336181640625">
        <ele>2356</ele>
        <time>2026-08-31T06:45:38.000Z</time>
        <extensions>
          <ns3:TrackPointExtension>
            <ns3:hr>168</ns3:hr>
            <ns3:cad>0</ns3:cad>
          </ns3:TrackPointExtension>
        </extensions>
      </trkpt>
      <trkpt lat="44.6770933829247951507568359375" lon="6.82502710260450839996337890625">
        <ele>2356</ele>
        <time>2026-08-31T06:45:39.000Z</time>
        <extensions>
          <ns3:TrackPointExtension>
            <ns3:hr>168</ns3:hr>
            <ns3:cad>0</ns3:cad>
          </ns3:TrackPointExtension>
        </extensions>
      </trkpt>
      <trkpt lat="44.67708952724933624267578125" lon="6.8250335566699504852294921875">
        <ele>2356.199951171875</ele>
        <time>2026-08-31T06:45:40.000Z</time>
        <extensions>
          <ns3:TrackPointExtension>
            <ns3:hr>168</ns3:hr>
            <ns3:cad>0</ns3:cad>
          </ns3:TrackPointExtension>
        </extensions>
      </trkpt>
      <trkpt lat="44.67708558775484561920166015625" lon="6.82504721917212009429931640625">
        <ele>2356.39990234375</ele>
        <time>2026-08-31T06:45:41.000Z</time>
        <extensions>
          <ns3:TrackPointExtension>
            <ns3:hr>168</ns3:hr>
            <ns3:cad>0</ns3:cad>
          </ns3:TrackPointExtension>
        </extensions>
      </trkpt>
      <trkpt lat="44.67708340846002101898193359375" lon="6.8250496499240398406982421875">
        <ele>2356.39990234375</ele>
        <time>2026-08-31T06:45:42.000Z</time>
        <extensions>
          <ns3:TrackPointExtension>
            <ns3:hr>169</ns3:hr>
            <ns3:cad>0</ns3:cad>
          </ns3:TrackPointExtension>
        </extensions>
      </trkpt>
      <trkpt lat="44.67707854695618152618408203125" lon="6.8250623904168605804443359375">
        <ele>2356.60009765625</ele>
        <time>2026-08-31T06:45:43.000Z</time>
        <extensions>
          <ns3:TrackPointExtension>
            <ns3:hr>169</ns3:hr>
            <ns3:cad>0</ns3:cad>
          </ns3:TrackPointExtension>
        </extensions>
      </trkpt>
      <trkpt lat="44.67707703821361064910888671875" lon="6.82507437653839588165283203125">
        <ele>2356.60009765625</ele>
        <time>2026-08-31T06:45:44.000Z</time>
        <extensions>
          <ns3:TrackPointExtension>
            <ns3:hr>169</ns3:hr>
            <ns3:cad>0</ns3:cad>
          </ns3:TrackPointExtension>
        </extensions>
      </trkpt>
      <trkpt lat="44.677074439823627471923828125" lon="6.825088374316692352294921875">
        <ele>2356.800048828125</ele>
        <time>2026-08-31T06:45:45.000Z</time>
        <extensions>
          <ns3:TrackPointExtension>
            <ns3:hr>169</ns3:hr>
            <ns3:cad>0</ns3:cad>
          </ns3:TrackPointExtension>
        </extensions>
      </trkpt>
      <trkpt lat="44.67707234434783458709716796875" lon="6.82510304264724254608154296875">
        <ele>2357</ele>
        <time>2026-08-31T06:45:46.000Z</time>
        <extensions>
          <ns3:TrackPointExtension>
            <ns3:hr>169</ns3:hr>
            <ns3:cad>0</ns3:cad>
          </ns3:TrackPointExtension>
        </extensions>
      </trkpt>
      <trkpt lat="44.67706932686269283294677734375" lon="6.82511888444423675537109375">
        <ele>2357</ele>
        <time>2026-08-31T06:45:47.000Z</time>
        <extensions>
          <ns3:TrackPointExtension>
            <ns3:hr>168</ns3:hr>
            <ns3:cad>0</ns3:cad>
          </ns3:TrackPointExtension>
        </extensions>
      </trkpt>
      <trkpt lat="44.67706630937755107879638671875" lon="6.82513623498380184173583984375">
        <ele>2357.199951171875</ele>
        <time>2026-08-31T06:45:48.000Z</time>
        <extensions>
          <ns3:TrackPointExtension>
            <ns3:hr>167</ns3:hr>
            <ns3:cad>0</ns3:cad>
          </ns3:TrackPointExtension>
        </extensions>
      </trkpt>
      <trkpt lat="44.6770638786256313323974609375" lon="6.82514042593538761138916015625">
        <ele>2357.199951171875</ele>
        <time>2026-08-31T06:45:49.000Z</time>
        <extensions>
          <ns3:TrackPointExtension>
            <ns3:hr>167</ns3:hr>
            <ns3:cad>0</ns3:cad>
          </ns3:TrackPointExtension>
        </extensions>
      </trkpt>
      <trkpt lat="44.67706496827304363250732421875" lon="6.82515568099915981292724609375">
        <ele>2357.39990234375</ele>
        <time>2026-08-31T06:45:50.000Z</time>
        <extensions>
          <ns3:TrackPointExtension>
            <ns3:hr>166</ns3:hr>
            <ns3:cad>0</ns3:cad>
          </ns3:TrackPointExtension>
        </extensions>
      </trkpt>
      <trkpt lat="44.67706496827304363250732421875" lon="6.8251576088368892669677734375">
        <ele>2357.60009765625</ele>
        <time>2026-08-31T06:45:51.000Z</time>
        <extensions>
          <ns3:TrackPointExtension>
            <ns3:hr>165</ns3:hr>
            <ns3:cad>0</ns3:cad>
          </ns3:TrackPointExtension>
        </extensions>
      </trkpt>
      <trkpt lat="44.67706077732145786285400390625" lon="6.82516657747328281402587890625">
        <ele>2357.800048828125</ele>
        <time>2026-08-31T06:45:52.000Z</time>
        <extensions>
          <ns3:TrackPointExtension>
            <ns3:hr>165</ns3:hr>
            <ns3:cad>0</ns3:cad>
          </ns3:TrackPointExtension>
        </extensions>
      </trkpt>
      <trkpt lat="44.677058346569538116455078125" lon="6.82517797686159610748291015625">
        <ele>2358</ele>
        <time>2026-08-31T06:45:53.000Z</time>
        <extensions>
          <ns3:TrackPointExtension>
            <ns3:hr>165</ns3:hr>
            <ns3:cad>0</ns3:cad>
          </ns3:TrackPointExtension>
        </extensions>
      </trkpt>
      <trkpt lat="44.67705239541828632354736328125" lon="6.825182922184467315673828125">
        <ele>2358.199951171875</ele>
        <time>2026-08-31T06:45:54.000Z</time>
        <extensions>
          <ns3:TrackPointExtension>
            <ns3:hr>164</ns3:hr>
            <ns3:cad>0</ns3:cad>
          </ns3:TrackPointExtension>
        </extensions>
      </trkpt>
      <trkpt lat="44.6770472824573516845703125" lon="6.825194656848907470703125">
        <ele>2358.39990234375</ele>
        <time>2026-08-31T06:45:55.000Z</time>
        <extensions>
          <ns3:TrackPointExtension>
            <ns3:hr>164</ns3:hr>
            <ns3:cad>0</ns3:cad>
          </ns3:TrackPointExtension>
        </extensions>
      </trkpt>
      <trkpt lat="44.6770447678864002227783203125" lon="6.82520446367561817169189453125">
        <ele>2358.60009765625</ele>
        <time>2026-08-31T06:45:56.000Z</time>
        <extensions>
          <ns3:TrackPointExtension>
            <ns3:hr>164</ns3:hr>
            <ns3:cad>0</ns3:cad>
          </ns3:TrackPointExtension>
        </extensions>
      </trkpt>
      <trkpt lat="44.67704367823898792266845703125" lon="6.82521301321685314178466796875">
        <ele>2358.800048828125</ele>
        <time>2026-08-31T06:45:57.000Z</time>
        <extensions>
          <ns3:TrackPointExtension>
            <ns3:hr>164</ns3:hr>
            <ns3:cad>0</ns3:cad>
          </ns3:TrackPointExtension>
        </extensions>
      </trkpt>
      <trkpt lat="44.6770446002483367919921875" lon="6.82521670125424861907958984375">
        <ele>2359.199951171875</ele>
        <time>2026-08-31T06:45:58.000Z</time>
        <extensions>
          <ns3:TrackPointExtension>
            <ns3:hr>165</ns3:hr>
            <ns3:cad>0</ns3:cad>
          </ns3:TrackPointExtension>
        </extensions>
      </trkpt>
      <trkpt lat="44.67704468406736850738525390625" lon="6.8252169527113437652587890625">
        <ele>2359.39990234375</ele>
        <time>2026-08-31T06:45:59.000Z</time>
        <extensions>
          <ns3:TrackPointExtension>
            <ns3:hr>165</ns3:hr>
            <ns3:cad>0</ns3:cad>
          </ns3:TrackPointExtension>
        </extensions>
      </trkpt>
      <trkpt lat="44.67704200185835361480712890625" lon="6.82522994466125965118408203125">
        <ele>2359.60009765625</ele>
        <time>2026-08-31T06:46:00.000Z</time>
        <extensions>
          <ns3:TrackPointExtension>
            <ns3:hr>165</ns3:hr>
            <ns3:cad>0</ns3:cad>
          </ns3:TrackPointExtension>
        </extensions>
      </trkpt>
      <trkpt lat="44.67703931964933872222900390625" lon="6.8252404220402240753173828125">
        <ele>2359.800048828125</ele>
        <time>2026-08-31T06:46:01.000Z</time>
        <extensions>
          <ns3:TrackPointExtension>
            <ns3:hr>164</ns3:hr>
            <ns3:cad>0</ns3:cad>
          </ns3:TrackPointExtension>
        </extensions>
      </trkpt>
      <trkpt lat="44.67703714035451412200927734375" lon="6.82525458745658397674560546875">
        <ele>2360</ele>
        <time>2026-08-31T06:46:02.000Z</time>
        <extensions>
          <ns3:TrackPointExtension>
            <ns3:hr>163</ns3:hr>
            <ns3:cad>0</ns3:cad>
          </ns3:TrackPointExtension>
        </extensions>
      </trkpt>
      <trkpt lat="44.67703730799257755279541015625" lon="6.8252684175968170166015625">
        <ele>2360.199951171875</ele>
        <time>2026-08-31T06:46:03.000Z</time>
        <extensions>
          <ns3:TrackPointExtension>
            <ns3:hr>163</ns3:hr>
            <ns3:cad>0</ns3:cad>
          </ns3:TrackPointExtension>
        </extensions>
      </trkpt>
      <trkpt lat="44.67703680507838726043701171875" lon="6.82527587749063968658447265625">
        <ele>2360.39990234375</ele>
        <time>2026-08-31T06:46:04.000Z</time>
        <extensions>
          <ns3:TrackPointExtension>
            <ns3:hr>162</ns3:hr>
            <ns3:cad>0</ns3:cad>
          </ns3:TrackPointExtension>
        </extensions>
      </trkpt>
      <trkpt lat="44.6770377270877361297607421875" lon="6.8252907134592533111572265625">
        <ele>2360.60009765625</ele>
        <time>2026-08-31T06:46:05.000Z</time>
        <extensions>
          <ns3:TrackPointExtension>
            <ns3:hr>161</ns3:hr>
            <ns3:cad>0</ns3:cad>
          </ns3:TrackPointExtension>
        </extensions>
      </trkpt>
      <trkpt lat="44.6770357154309749603271484375" lon="6.82529750280082225799560546875">
        <ele>2360.800048828125</ele>
        <time>2026-08-31T06:46:06.000Z</time>
        <extensions>
          <ns3:TrackPointExtension>
            <ns3:hr>161</ns3:hr>
            <ns3:cad>0</ns3:cad>
          </ns3:TrackPointExtension>
        </extensions>
      </trkpt>
      <trkpt lat="44.67703864909708499908447265625" lon="6.8253118358552455902099609375">
        <ele>2360.800048828125</ele>
        <time>2026-08-31T06:46:07.000Z</time>
        <extensions>
          <ns3:TrackPointExtension>
            <ns3:hr>161</ns3:hr>
            <ns3:cad>0</ns3:cad>
          </ns3:TrackPointExtension>
        </extensions>
      </trkpt>
      <trkpt lat="44.6770430915057659149169921875" lon="6.8253208883106708526611328125">
        <ele>2361</ele>
        <time>2026-08-31T06:46:08.000Z</time>
        <extensions>
          <ns3:TrackPointExtension>
            <ns3:hr>160</ns3:hr>
            <ns3:cad>0</ns3:cad>
          </ns3:TrackPointExtension>
        </extensions>
      </trkpt>
      <trkpt lat="44.6770511381328105926513671875" lon="6.82533522136509418487548828125">
        <ele>2361</ele>
        <time>2026-08-31T06:46:09.000Z</time>
        <extensions>
          <ns3:TrackPointExtension>
            <ns3:hr>161</ns3:hr>
            <ns3:cad>0</ns3:cad>
          </ns3:TrackPointExtension>
        </extensions>
      </trkpt>
      <trkpt lat="44.67705667018890380859375" lon="6.82534511201083660125732421875">
        <ele>2361.199951171875</ele>
        <time>2026-08-31T06:46:10.000Z</time>
        <extensions>
          <ns3:TrackPointExtension>
            <ns3:hr>161</ns3:hr>
            <ns3:cad>0</ns3:cad>
          </ns3:TrackPointExtension>
        </extensions>
      </trkpt>
      <trkpt lat="44.67706144787371158599853515625" lon="6.825350224971771240234375">
        <ele>2361.39990234375</ele>
        <time>2026-08-31T06:46:11.000Z</time>
        <extensions>
          <ns3:TrackPointExtension>
            <ns3:hr>161</ns3:hr>
            <ns3:cad>0</ns3:cad>
          </ns3:TrackPointExtension>
        </extensions>
      </trkpt>
      <trkpt lat="44.677066393196582794189453125" lon="6.82535827159881591796875">
        <ele>2361.39990234375</ele>
        <time>2026-08-31T06:46:12.000Z</time>
        <extensions>
          <ns3:TrackPointExtension>
            <ns3:hr>161</ns3:hr>
            <ns3:cad>0</ns3:cad>
          </ns3:TrackPointExtension>
        </extensions>
      </trkpt>
      <trkpt lat="44.67707083560526371002197265625" lon="6.82537193410098552703857421875">
        <ele>2361.60009765625</ele>
        <time>2026-08-31T06:46:13.000Z</time>
        <extensions>
          <ns3:TrackPointExtension>
            <ns3:hr>161</ns3:hr>
            <ns3:cad>0</ns3:cad>
          </ns3:TrackPointExtension>
        </extensions>
      </trkpt>
      <trkpt lat="44.67707033269107341766357421875" lon="6.82538618333637714385986328125">
        <ele>2362</ele>
        <time>2026-08-31T06:46:14.000Z</time>
        <extensions>
          <ns3:TrackPointExtension>
            <ns3:hr>161</ns3:hr>
            <ns3:cad>0</ns3:cad>
          </ns3:TrackPointExtension>
        </extensions>
      </trkpt>
      <trkpt lat="44.6770668961107730865478515625" lon="6.82539003901183605194091796875">
        <ele>2362.199951171875</ele>
        <time>2026-08-31T06:46:15.000Z</time>
        <extensions>
          <ns3:TrackPointExtension>
            <ns3:hr>162</ns3:hr>
            <ns3:cad>0</ns3:cad>
          </ns3:TrackPointExtension>
        </extensions>
      </trkpt>
      <trkpt lat="44.6770652197301387786865234375" lon="6.82538978755474090576171875">
        <ele>2362.39990234375</ele>
        <time>2026-08-31T06:46:16.000Z</time>
        <extensions>
          <ns3:TrackPointExtension>
            <ns3:hr>162</ns3:hr>
            <ns3:cad>0</ns3:cad>
          </ns3:TrackPointExtension>
        </extensions>
      </trkpt>
      <trkpt lat="44.67706413008272647857666015625" lon="6.82538886554539203643798828125">
        <ele>2362.60009765625</ele>
        <time>2026-08-31T06:46:17.000Z</time>
        <extensions>
          <ns3:TrackPointExtension>
            <ns3:hr>162</ns3:hr>
            <ns3:cad>0</ns3:cad>
          </ns3:TrackPointExtension>
        </extensions>
      </trkpt>
      <trkpt lat="44.677067734301090240478515625" lon="6.82539339177310466766357421875">
        <ele>2362.800048828125</ele>
        <time>2026-08-31T06:46:18.000Z</time>
        <extensions>
          <ns3:TrackPointExtension>
            <ns3:hr>163</ns3:hr>
            <ns3:cad>0</ns3:cad>
          </ns3:TrackPointExtension>
        </extensions>
      </trkpt>
      <trkpt lat="44.677069745957851409912109375" lon="6.825398504734039306640625">
        <ele>2362.800048828125</ele>
        <time>2026-08-31T06:46:19.000Z</time>
        <extensions>
          <ns3:TrackPointExtension>
            <ns3:hr>162</ns3:hr>
            <ns3:cad>0</ns3:cad>
          </ns3:TrackPointExtension>
        </extensions>
      </trkpt>
      <trkpt lat="44.67706949450075626373291015625" lon="6.8254080601036548614501953125">
        <ele>2362.800048828125</ele>
        <time>2026-08-31T06:46:20.000Z</time>
        <extensions>
          <ns3:TrackPointExtension>
            <ns3:hr>162</ns3:hr>
            <ns3:cad>0</ns3:cad>
          </ns3:TrackPointExtension>
        </extensions>
      </trkpt>
      <trkpt lat="44.67707184143364429473876953125" lon="6.8254214711487293243408203125">
        <ele>2362.800048828125</ele>
        <time>2026-08-31T06:46:21.000Z</time>
        <extensions>
          <ns3:TrackPointExtension>
            <ns3:hr>162</ns3:hr>
            <ns3:cad>0</ns3:cad>
          </ns3:TrackPointExtension>
        </extensions>
      </trkpt>
      <trkpt lat="44.6770714223384857177734375" lon="6.82542867958545684814453125">
        <ele>2363</ele>
        <time>2026-08-31T06:46:22.000Z</time>
        <extensions>
          <ns3:TrackPointExtension>
            <ns3:hr>162</ns3:hr>
            <ns3:cad>0</ns3:cad>
          </ns3:TrackPointExtension>
        </extensions>
      </trkpt>
      <trkpt lat="44.6770702488720417022705078125" lon="6.82544033043086528778076171875">
        <ele>2363</ele>
        <time>2026-08-31T06:46:23.000Z</time>
        <extensions>
          <ns3:TrackPointExtension>
            <ns3:hr>161</ns3:hr>
            <ns3:cad>0</ns3:cad>
          </ns3:TrackPointExtension>
        </extensions>
      </trkpt>
      <trkpt lat="44.6770705841481685638427734375" lon="6.8254479579627513885498046875">
        <ele>2363.39990234375</ele>
        <time>2026-08-31T06:46:24.000Z</time>
        <extensions>
          <ns3:TrackPointExtension>
            <ns3:hr>161</ns3:hr>
            <ns3:cad>0</ns3:cad>
          </ns3:TrackPointExtension>
        </extensions>
      </trkpt>
      <trkpt lat="44.67707100324332714080810546875" lon="6.82546111755073070526123046875">
        <ele>2363.60009765625</ele>
        <time>2026-08-31T06:46:25.000Z</time>
        <extensions>
          <ns3:TrackPointExtension>
            <ns3:hr>161</ns3:hr>
            <ns3:cad>0</ns3:cad>
          </ns3:TrackPointExtension>
        </extensions>
      </trkpt>
      <trkpt lat="44.67707100324332714080810546875" lon="6.825465895235538482666015625">
        <ele>2363.800048828125</ele>
        <time>2026-08-31T06:46:26.000Z</time>
        <extensions>
          <ns3:TrackPointExtension>
            <ns3:hr>161</ns3:hr>
            <ns3:cad>0</ns3:cad>
          </ns3:TrackPointExtension>
        </extensions>
      </trkpt>
      <trkpt lat="44.677070081233978271484375" lon="6.825473606586456298828125">
        <ele>2364</ele>
        <time>2026-08-31T06:46:27.000Z</time>
        <extensions>
          <ns3:TrackPointExtension>
            <ns3:hr>161</ns3:hr>
            <ns3:cad>0</ns3:cad>
          </ns3:TrackPointExtension>
        </extensions>
      </trkpt>
      <trkpt lat="44.6770692430436611175537109375" lon="6.82548508979380130767822265625">
        <ele>2364.199951171875</ele>
        <time>2026-08-31T06:46:28.000Z</time>
        <extensions>
          <ns3:TrackPointExtension>
            <ns3:hr>161</ns3:hr>
            <ns3:cad>0</ns3:cad>
          </ns3:TrackPointExtension>
        </extensions>
      </trkpt>
      <trkpt lat="44.67706714756786823272705078125" lon="6.8254969082772731781005859375">
        <ele>2364.39990234375</ele>
        <time>2026-08-31T06:46:29.000Z</time>
        <extensions>
          <ns3:TrackPointExtension>
            <ns3:hr>161</ns3:hr>
            <ns3:cad>0</ns3:cad>
          </ns3:TrackPointExtension>
        </extensions>
      </trkpt>
      <trkpt lat="44.6770699135959148406982421875" lon="6.8255106545984745025634765625">
        <ele>2364.60009765625</ele>
        <time>2026-08-31T06:46:30.000Z</time>
        <extensions>
          <ns3:TrackPointExtension>
            <ns3:hr>161</ns3:hr>
            <ns3:cad>0</ns3:cad>
          </ns3:TrackPointExtension>
        </extensions>
      </trkpt>
      <trkpt lat="44.677073098719120025634765625" lon="6.82552029378712177276611328125">
        <ele>2364.800048828125</ele>
        <time>2026-08-31T06:46:31.000Z</time>
        <extensions>
          <ns3:TrackPointExtension>
            <ns3:hr>161</ns3:hr>
            <ns3:cad>0</ns3:cad>
          </ns3:TrackPointExtension>
        </extensions>
      </trkpt>
      <trkpt lat="44.67707318253815174102783203125" lon="6.82552984915673732757568359375">
        <ele>2365</ele>
        <time>2026-08-31T06:46:32.000Z</time>
        <extensions>
          <ns3:TrackPointExtension>
            <ns3:hr>161</ns3:hr>
            <ns3:cad>0</ns3:cad>
          </ns3:TrackPointExtension>
        </extensions>
      </trkpt>
      <trkpt lat="44.6770746074616909027099609375" lon="6.82553588412702083587646484375">
        <ele>2365.199951171875</ele>
        <time>2026-08-31T06:46:33.000Z</time>
        <extensions>
          <ns3:TrackPointExtension>
            <ns3:hr>162</ns3:hr>
            <ns3:cad>0</ns3:cad>
          </ns3:TrackPointExtension>
        </extensions>
      </trkpt>
      <trkpt lat="44.67707812786102294921875" lon="6.8255488760769367218017578125">
        <ele>2365.39990234375</ele>
        <time>2026-08-31T06:46:34.000Z</time>
        <extensions>
          <ns3:TrackPointExtension>
            <ns3:hr>162</ns3:hr>
            <ns3:cad>0</ns3:cad>
          </ns3:TrackPointExtension>
        </extensions>
      </trkpt>
      <trkpt lat="44.67708609066903591156005859375" lon="6.8255562521517276763916015625">
        <ele>2365.39990234375</ele>
        <time>2026-08-31T06:46:35.000Z</time>
        <extensions>
          <ns3:TrackPointExtension>
            <ns3:hr>162</ns3:hr>
            <ns3:cad>53</ns3:cad>
          </ns3:TrackPointExtension>
        </extensions>
      </trkpt>
      <trkpt lat="44.67709631659090518951416015625" lon="6.82556170038878917694091796875">
        <ele>2365.60009765625</ele>
        <time>2026-08-31T06:46:36.000Z</time>
        <extensions>
          <ns3:TrackPointExtension>
            <ns3:hr>163</ns3:hr>
            <ns3:cad>53</ns3:cad>
          </ns3:TrackPointExtension>
        </extensions>
      </trkpt>
      <trkpt lat="44.67710520140826702117919921875" lon="6.8255659751594066619873046875">
        <ele>2365.60009765625</ele>
        <time>2026-08-31T06:46:37.000Z</time>
        <extensions>
          <ns3:TrackPointExtension>
            <ns3:hr>162</ns3:hr>
            <ns3:cad>53</ns3:cad>
          </ns3:TrackPointExtension>
        </extensions>
      </trkpt>
      <trkpt lat="44.677112996578216552734375" lon="6.82556790299713611602783203125">
        <ele>2365.800048828125</ele>
        <time>2026-08-31T06:46:38.000Z</time>
        <extensions>
          <ns3:TrackPointExtension>
            <ns3:hr>162</ns3:hr>
            <ns3:cad>53</ns3:cad>
          </ns3:TrackPointExtension>
        </extensions>
      </trkpt>
      <trkpt lat="44.67712230049073696136474609375" lon="6.82556957937777042388916015625">
        <ele>2365.800048828125</ele>
        <time>2026-08-31T06:46:39.000Z</time>
        <extensions>
          <ns3:TrackPointExtension>
            <ns3:hr>163</ns3:hr>
            <ns3:cad>53</ns3:cad>
          </ns3:TrackPointExtension>
        </extensions>
      </trkpt>
      <trkpt lat="44.6771309338510036468505859375" lon="6.8255720101296901702880859375">
        <ele>2366</ele>
        <time>2026-08-31T06:46:40.000Z</time>
        <extensions>
          <ns3:TrackPointExtension>
            <ns3:hr>162</ns3:hr>
            <ns3:cad>0</ns3:cad>
          </ns3:TrackPointExtension>
        </extensions>
      </trkpt>
      <trkpt lat="44.6771440096199512481689453125" lon="6.8255756981670856475830078125">
        <ele>2366.199951171875</ele>
        <time>2026-08-31T06:46:41.000Z</time>
        <extensions>
          <ns3:TrackPointExtension>
            <ns3:hr>162</ns3:hr>
            <ns3:cad>0</ns3:cad>
          </ns3:TrackPointExtension>
        </extensions>
      </trkpt>
      <trkpt lat="44.6771574206650257110595703125" lon="6.8255817331373691558837890625">
        <ele>2366.39990234375</ele>
        <time>2026-08-31T06:46:42.000Z</time>
        <extensions>
          <ns3:TrackPointExtension>
            <ns3:hr>162</ns3:hr>
            <ns3:cad>0</ns3:cad>
          </ns3:TrackPointExtension>
        </extensions>
      </trkpt>
      <trkpt lat="44.67716873623430728912353515625" lon="6.82558986358344554901123046875">
        <ele>2366.60009765625</ele>
        <time>2026-08-31T06:46:43.000Z</time>
        <extensions>
          <ns3:TrackPointExtension>
            <ns3:hr>162</ns3:hr>
            <ns3:cad>0</ns3:cad>
          </ns3:TrackPointExtension>
        </extensions>
      </trkpt>
      <trkpt lat="44.67717879451811313629150390625" lon="6.82559899985790252685546875">
        <ele>2366.800048828125</ele>
        <time>2026-08-31T06:46:44.000Z</time>
        <extensions>
          <ns3:TrackPointExtension>
            <ns3:hr>162</ns3:hr>
            <ns3:cad>0</ns3:cad>
          </ns3:TrackPointExtension>
        </extensions>
      </trkpt>
      <trkpt lat="44.67718466185033321380615234375" lon="6.8256075493991374969482421875">
        <ele>2367</ele>
        <time>2026-08-31T06:46:45.000Z</time>
        <extensions>
          <ns3:TrackPointExtension>
            <ns3:hr>162</ns3:hr>
            <ns3:cad>0</ns3:cad>
          </ns3:TrackPointExtension>
        </extensions>
      </trkpt>
      <trkpt lat="44.67718784697353839874267578125" lon="6.82561903260648250579833984375">
        <ele>2367.199951171875</ele>
        <time>2026-08-31T06:46:46.000Z</time>
        <extensions>
          <ns3:TrackPointExtension>
            <ns3:hr>163</ns3:hr>
            <ns3:cad>0</ns3:cad>
          </ns3:TrackPointExtension>
        </extensions>
      </trkpt>
      <trkpt lat="44.67718851752579212188720703125" lon="6.82563110254704952239990234375">
        <ele>2367.39990234375</ele>
        <time>2026-08-31T06:46:47.000Z</time>
        <extensions>
          <ns3:TrackPointExtension>
            <ns3:hr>162</ns3:hr>
            <ns3:cad>0</ns3:cad>
          </ns3:TrackPointExtension>
        </extensions>
      </trkpt>
      <trkpt lat="44.67718784697353839874267578125" lon="6.82564719580113887786865234375">
        <ele>2367.60009765625</ele>
        <time>2026-08-31T06:46:48.000Z</time>
        <extensions>
          <ns3:TrackPointExtension>
            <ns3:hr>162</ns3:hr>
            <ns3:cad>0</ns3:cad>
          </ns3:TrackPointExtension>
        </extensions>
      </trkpt>
      <trkpt lat="44.6771859191358089447021484375" lon="6.82565742172300815582275390625">
        <ele>2367.60009765625</ele>
        <time>2026-08-31T06:46:49.000Z</time>
        <extensions>
          <ns3:TrackPointExtension>
            <ns3:hr>162</ns3:hr>
            <ns3:cad>0</ns3:cad>
          </ns3:TrackPointExtension>
        </extensions>
      </trkpt>
      <trkpt lat="44.6771832369267940521240234375" lon="6.82567100040614604949951171875">
        <ele>2367.800048828125</ele>
        <time>2026-08-31T06:46:50.000Z</time>
        <extensions>
          <ns3:TrackPointExtension>
            <ns3:hr>162</ns3:hr>
            <ns3:cad>0</ns3:cad>
          </ns3:TrackPointExtension>
        </extensions>
      </trkpt>
      <trkpt lat="44.6771825663745403289794921875" lon="6.82568508200347423553466796875">
        <ele>2368</ele>
        <time>2026-08-31T06:46:51.000Z</time>
        <extensions>
          <ns3:TrackPointExtension>
            <ns3:hr>161</ns3:hr>
            <ns3:cad>0</ns3:cad>
          </ns3:TrackPointExtension>
        </extensions>
      </trkpt>
      <trkpt lat="44.67718181200325489044189453125" lon="6.82571056298911571502685546875">
        <ele>2368.199951171875</ele>
        <time>2026-08-31T06:46:52.000Z</time>
        <extensions>
          <ns3:TrackPointExtension>
            <ns3:hr>161</ns3:hr>
            <ns3:cad>0</ns3:cad>
          </ns3:TrackPointExtension>
        </extensions>
      </trkpt>
      <trkpt lat="44.67718047089874744415283203125" lon="6.8257265724241733551025390625">
        <ele>2368.39990234375</ele>
        <time>2026-08-31T06:46:53.000Z</time>
        <extensions>
          <ns3:TrackPointExtension>
            <ns3:hr>161</ns3:hr>
            <ns3:cad>0</ns3:cad>
          </ns3:TrackPointExtension>
        </extensions>
      </trkpt>
      <trkpt lat="44.67717711813747882843017578125" lon="6.82573445141315460205078125">
        <ele>2368.60009765625</ele>
        <time>2026-08-31T06:46:54.000Z</time>
        <extensions>
          <ns3:TrackPointExtension>
            <ns3:hr>160</ns3:hr>
            <ns3:cad>0</ns3:cad>
          </ns3:TrackPointExtension>
        </extensions>
      </trkpt>
      <trkpt lat="44.6771741844713687896728515625" lon="6.82574861682951450347900390625">
        <ele>2368.800048828125</ele>
        <time>2026-08-31T06:46:55.000Z</time>
        <extensions>
          <ns3:TrackPointExtension>
            <ns3:hr>160</ns3:hr>
            <ns3:cad>0</ns3:cad>
          </ns3:TrackPointExtension>
        </extensions>
      </trkpt>
      <trkpt lat="44.67717007733881473541259765625" lon="6.8257554061710834503173828125">
        <ele>2369</ele>
        <time>2026-08-31T06:46:56.000Z</time>
        <extensions>
          <ns3:TrackPointExtension>
            <ns3:hr>161</ns3:hr>
            <ns3:cad>0</ns3:cad>
          </ns3:TrackPointExtension>
        </extensions>
      </trkpt>
      <trkpt lat="44.67716286890208721160888671875" lon="6.82576387189328670501708984375">
        <ele>2369.199951171875</ele>
        <time>2026-08-31T06:46:57.000Z</time>
        <extensions>
          <ns3:TrackPointExtension>
            <ns3:hr>161</ns3:hr>
            <ns3:cad>0</ns3:cad>
          </ns3:TrackPointExtension>
        </extensions>
      </trkpt>
      <trkpt lat="44.67715616337954998016357421875" lon="6.8257735110819339752197265625">
        <ele>2369.39990234375</ele>
        <time>2026-08-31T06:46:58.000Z</time>
        <extensions>
          <ns3:TrackPointExtension>
            <ns3:hr>161</ns3:hr>
            <ns3:cad>0</ns3:cad>
          </ns3:TrackPointExtension>
        </extensions>
      </trkpt>
      <trkpt lat="44.67715046368539333343505859375" lon="6.82579052634537220001220703125">
        <ele>2369.39990234375</ele>
        <time>2026-08-31T06:46:59.000Z</time>
        <extensions>
          <ns3:TrackPointExtension>
            <ns3:hr>162</ns3:hr>
            <ns3:cad>0</ns3:cad>
          </ns3:TrackPointExtension>
        </extensions>
      </trkpt>
      <trkpt lat="44.67714526690542697906494140625" lon="6.82580284774303436279296875">
        <ele>2369.60009765625</ele>
        <time>2026-08-31T06:47:00.000Z</time>
        <extensions>
          <ns3:TrackPointExtension>
            <ns3:hr>162</ns3:hr>
            <ns3:cad>0</ns3:cad>
          </ns3:TrackPointExtension>
        </extensions>
      </trkpt>
      <trkpt lat="44.6771413274109363555908203125" lon="6.8258090503513813018798828125">
        <ele>2369.800048828125</ele>
        <time>2026-08-31T06:47:01.000Z</time>
        <extensions>
          <ns3:TrackPointExtension>
            <ns3:hr>162</ns3:hr>
            <ns3:cad>0</ns3:cad>
          </ns3:TrackPointExtension>
        </extensions>
      </trkpt>
      <trkpt lat="44.67713269405066967010498046875" lon="6.8258214555680751800537109375">
        <ele>2370</ele>
        <time>2026-08-31T06:47:02.000Z</time>
        <extensions>
          <ns3:TrackPointExtension>
            <ns3:hr>161</ns3:hr>
            <ns3:cad>0</ns3:cad>
          </ns3:TrackPointExtension>
        </extensions>
      </trkpt>
      <trkpt lat="44.67712850309908390045166015625" lon="6.82582606561481952667236328125">
        <ele>2370.199951171875</ele>
        <time>2026-08-31T06:47:03.000Z</time>
        <extensions>
          <ns3:TrackPointExtension>
            <ns3:hr>162</ns3:hr>
            <ns3:cad>0</ns3:cad>
          </ns3:TrackPointExtension>
        </extensions>
      </trkpt>
      <trkpt lat="44.67711777426302433013916015625" lon="6.82583813555538654327392578125">
        <ele>2370.39990234375</ele>
        <time>2026-08-31T06:47:04.000Z</time>
        <extensions>
          <ns3:TrackPointExtension>
            <ns3:hr>162</ns3:hr>
            <ns3:cad>0</ns3:cad>
          </ns3:TrackPointExtension>
        </extensions>
      </trkpt>
      <trkpt lat="44.67711324803531169891357421875" lon="6.82584668509662151336669921875">
        <ele>2370.60009765625</ele>
        <time>2026-08-31T06:47:05.000Z</time>
        <extensions>
          <ns3:TrackPointExtension>
            <ns3:hr>161</ns3:hr>
            <ns3:cad>0</ns3:cad>
          </ns3:TrackPointExtension>
        </extensions>
      </trkpt>
      <trkpt lat="44.67710989527404308319091796875" lon="6.82585909031331539154052734375">
        <ele>2370.800048828125</ele>
        <time>2026-08-31T06:47:06.000Z</time>
        <extensions>
          <ns3:TrackPointExtension>
            <ns3:hr>161</ns3:hr>
            <ns3:cad>0</ns3:cad>
          </ns3:TrackPointExtension>
        </extensions>
      </trkpt>
      <trkpt lat="44.67710905708372592926025390625" lon="6.82587132789194583892822265625">
        <ele>2371</ele>
        <time>2026-08-31T06:47:07.000Z</time>
        <extensions>
          <ns3:TrackPointExtension>
            <ns3:hr>161</ns3:hr>
            <ns3:cad>0</ns3:cad>
          </ns3:TrackPointExtension>
        </extensions>
      </trkpt>
      <trkpt lat="44.67710888944566249847412109375" lon="6.825869567692279815673828125">
        <ele>2371.199951171875</ele>
        <time>2026-08-31T06:47:08.000Z</time>
        <extensions>
          <ns3:TrackPointExtension>
            <ns3:hr>161</ns3:hr>
            <ns3:cad>0</ns3:cad>
          </ns3:TrackPointExtension>
        </extensions>
      </trkpt>
      <trkpt lat="44.67710964381694793701171875" lon="6.8258704058825969696044921875">
        <ele>2371.39990234375</ele>
        <time>2026-08-31T06:47:09.000Z</time>
        <extensions>
          <ns3:TrackPointExtension>
            <ns3:hr>161</ns3:hr>
            <ns3:cad>0</ns3:cad>
          </ns3:TrackPointExtension>
        </extensions>
      </trkpt>
      <trkpt lat="44.6771145053207874298095703125" lon="6.8258787877857685089111328125">
        <ele>2371.39990234375</ele>
        <time>2026-08-31T06:47:10.000Z</time>
        <extensions>
          <ns3:TrackPointExtension>
            <ns3:hr>162</ns3:hr>
            <ns3:cad>0</ns3:cad>
          </ns3:TrackPointExtension>
        </extensions>
      </trkpt>
      <trkpt lat="44.67712104320526123046875" lon="6.8258995749056339263916015625">
        <ele>2371.60009765625</ele>
        <time>2026-08-31T06:47:11.000Z</time>
        <extensions>
          <ns3:TrackPointExtension>
            <ns3:hr>161</ns3:hr>
            <ns3:cad>0</ns3:cad>
          </ns3:TrackPointExtension>
        </extensions>
      </trkpt>
      <trkpt lat="44.6771259047091007232666015625" lon="6.82591281831264495849609375">
        <ele>2371.800048828125</ele>
        <time>2026-08-31T06:47:12.000Z</time>
        <extensions>
          <ns3:TrackPointExtension>
            <ns3:hr>161</ns3:hr>
            <ns3:cad>0</ns3:cad>
          </ns3:TrackPointExtension>
        </extensions>
      </trkpt>
      <trkpt lat="44.67712682671844959259033203125" lon="6.82592228986322879791259765625">
        <ele>2371.800048828125</ele>
        <time>2026-08-31T06:47:13.000Z</time>
        <extensions>
          <ns3:TrackPointExtension>
            <ns3:hr>161</ns3:hr>
            <ns3:cad>0</ns3:cad>
          </ns3:TrackPointExtension>
        </extensions>
      </trkpt>
      <trkpt lat="44.6771269105374813079833984375" lon="6.82593829929828643798828125">
        <ele>2372</ele>
        <time>2026-08-31T06:47:14.000Z</time>
        <extensions>
          <ns3:TrackPointExtension>
            <ns3:hr>161</ns3:hr>
            <ns3:cad>0</ns3:cad>
          </ns3:TrackPointExtension>
        </extensions>
      </trkpt>
      <trkpt lat="44.6771277487277984619140625" lon="6.825945340096950531005859375">
        <ele>2372.199951171875</ele>
        <time>2026-08-31T06:47:15.000Z</time>
        <extensions>
          <ns3:TrackPointExtension>
            <ns3:hr>161</ns3:hr>
            <ns3:cad>0</ns3:cad>
          </ns3:TrackPointExtension>
        </extensions>
      </trkpt>
      <trkpt lat="44.6771277487277984619140625" lon="6.825960762798786163330078125">
        <ele>2372.39990234375</ele>
        <time>2026-08-31T06:47:16.000Z</time>
        <extensions>
          <ns3:TrackPointExtension>
            <ns3:hr>161</ns3:hr>
            <ns3:cad>0</ns3:cad>
          </ns3:TrackPointExtension>
        </extensions>
      </trkpt>
      <trkpt lat="44.67712883837521076202392578125" lon="6.82597543112933635711669921875">
        <ele>2372.60009765625</ele>
        <time>2026-08-31T06:47:17.000Z</time>
        <extensions>
          <ns3:TrackPointExtension>
            <ns3:hr>161</ns3:hr>
            <ns3:cad>0</ns3:cad>
          </ns3:TrackPointExtension>
        </extensions>
      </trkpt>
      <trkpt lat="44.6771289221942424774169921875" lon="6.82598817162215709686279296875">
        <ele>2372.800048828125</ele>
        <time>2026-08-31T06:47:18.000Z</time>
        <extensions>
          <ns3:TrackPointExtension>
            <ns3:hr>161</ns3:hr>
            <ns3:cad>0</ns3:cad>
          </ns3:TrackPointExtension>
        </extensions>
      </trkpt>
      <trkpt lat="44.67712934128940105438232421875" lon="6.82600158266723155975341796875">
        <ele>2373</ele>
        <time>2026-08-31T06:47:19.000Z</time>
        <extensions>
          <ns3:TrackPointExtension>
            <ns3:hr>161</ns3:hr>
            <ns3:cad>0</ns3:cad>
          </ns3:TrackPointExtension>
        </extensions>
      </trkpt>
      <trkpt lat="44.6771302632987499237060546875" lon="6.82600761763751506805419921875">
        <ele>2373.199951171875</ele>
        <time>2026-08-31T06:47:20.000Z</time>
        <extensions>
          <ns3:TrackPointExtension>
            <ns3:hr>161</ns3:hr>
            <ns3:cad>76</ns3:cad>
          </ns3:TrackPointExtension>
        </extensions>
      </trkpt>
      <trkpt lat="44.67713118530809879302978515625" lon="6.8260167539119720458984375">
        <ele>2373.39990234375</ele>
        <time>2026-08-31T06:47:21.000Z</time>
        <extensions>
          <ns3:TrackPointExtension>
            <ns3:hr>162</ns3:hr>
            <ns3:cad>76</ns3:cad>
          </ns3:TrackPointExtension>
        </extensions>
      </trkpt>
      <trkpt lat="44.67713168822228908538818359375" lon="6.826028488576412200927734375">
        <ele>2373.60009765625</ele>
        <time>2026-08-31T06:47:22.000Z</time>
        <extensions>
          <ns3:TrackPointExtension>
            <ns3:hr>162</ns3:hr>
            <ns3:cad>0</ns3:cad>
          </ns3:TrackPointExtension>
        </extensions>
      </trkpt>
      <trkpt lat="44.67713135294616222381591796875" lon="6.8260350264608860015869140625">
        <ele>2373.800048828125</ele>
        <time>2026-08-31T06:47:23.000Z</time>
        <extensions>
          <ns3:TrackPointExtension>
            <ns3:hr>162</ns3:hr>
            <ns3:cad>0</ns3:cad>
          </ns3:TrackPointExtension>
        </extensions>
      </trkpt>
      <trkpt lat="44.6771302632987499237060546875" lon="6.82604290544986724853515625">
        <ele>2374</ele>
        <time>2026-08-31T06:47:24.000Z</time>
        <extensions>
          <ns3:TrackPointExtension>
            <ns3:hr>162</ns3:hr>
            <ns3:cad>0</ns3:cad>
          </ns3:TrackPointExtension>
        </extensions>
      </trkpt>
      <trkpt lat="44.6771269105374813079833984375" lon="6.82604533620178699493408203125">
        <ele>2374.199951171875</ele>
        <time>2026-08-31T06:47:25.000Z</time>
        <extensions>
          <ns3:TrackPointExtension>
            <ns3:hr>161</ns3:hr>
            <ns3:cad>0</ns3:cad>
          </ns3:TrackPointExtension>
        </extensions>
      </trkpt>
      <trkpt lat="44.6771238930523395538330078125" lon="6.8260551430284976959228515625">
        <ele>2374.39990234375</ele>
        <time>2026-08-31T06:47:26.000Z</time>
        <extensions>
          <ns3:TrackPointExtension>
            <ns3:hr>161</ns3:hr>
            <ns3:cad>0</ns3:cad>
          </ns3:TrackPointExtension>
        </extensions>
      </trkpt>
      <trkpt lat="44.67712280340492725372314453125" lon="6.82606226764619350433349609375">
        <ele>2374.60009765625</ele>
        <time>2026-08-31T06:47:27.000Z</time>
        <extensions>
          <ns3:TrackPointExtension>
            <ns3:hr>161</ns3:hr>
            <ns3:cad>0</ns3:cad>
          </ns3:TrackPointExtension>
        </extensions>
      </trkpt>
      <trkpt lat="44.67712079174816608428955078125" lon="6.82607450522482395172119140625">
        <ele>2374.800048828125</ele>
        <time>2026-08-31T06:47:28.000Z</time>
        <extensions>
          <ns3:TrackPointExtension>
            <ns3:hr>161</ns3:hr>
            <ns3:cad>0</ns3:cad>
          </ns3:TrackPointExtension>
        </extensions>
      </trkpt>
      <trkpt lat="44.67711961828172206878662109375" lon="6.82608540169894695281982421875">
        <ele>2375</ele>
        <time>2026-08-31T06:47:29.000Z</time>
        <extensions>
          <ns3:TrackPointExtension>
            <ns3:hr>161</ns3:hr>
            <ns3:cad>0</ns3:cad>
          </ns3:TrackPointExtension>
        </extensions>
      </trkpt>
      <trkpt lat="44.6771156787872314453125" lon="6.82610325515270233154296875">
        <ele>2375.199951171875</ele>
        <time>2026-08-31T06:47:30.000Z</time>
        <extensions>
          <ns3:TrackPointExtension>
            <ns3:hr>161</ns3:hr>
            <ns3:cad>0</ns3:cad>
          </ns3:TrackPointExtension>
        </extensions>
      </trkpt>
      <trkpt lat="44.67710805125534534454345703125" lon="6.82610987685620784759521484375">
        <ele>2375.199951171875</ele>
        <time>2026-08-31T06:47:31.000Z</time>
        <extensions>
          <ns3:TrackPointExtension>
            <ns3:hr>161</ns3:hr>
            <ns3:cad>0</ns3:cad>
          </ns3:TrackPointExtension>
        </extensions>
      </trkpt>
      <trkpt lat="44.6771014295518398284912109375" lon="6.82612747885286808013916015625">
        <ele>2375.39990234375</ele>
        <time>2026-08-31T06:47:32.000Z</time>
        <extensions>
          <ns3:TrackPointExtension>
            <ns3:hr>161</ns3:hr>
            <ns3:cad>0</ns3:cad>
          </ns3:TrackPointExtension>
        </extensions>
      </trkpt>
      <trkpt lat="44.67709715478122234344482421875" lon="6.82613619603216648101806640625">
        <ele>2375.60009765625</ele>
        <time>2026-08-31T06:47:33.000Z</time>
        <extensions>
          <ns3:TrackPointExtension>
            <ns3:hr>161</ns3:hr>
            <ns3:cad>0</ns3:cad>
          </ns3:TrackPointExtension>
        </extensions>
      </trkpt>
      <trkpt lat="44.67709346674382686614990234375" lon="6.82614323683083057403564453125">
        <ele>2375.800048828125</ele>
        <time>2026-08-31T06:47:34.000Z</time>
        <extensions>
          <ns3:TrackPointExtension>
            <ns3:hr>162</ns3:hr>
            <ns3:cad>0</ns3:cad>
          </ns3:TrackPointExtension>
        </extensions>
      </trkpt>
      <trkpt lat="44.67709162272512912750244140625" lon="6.82615480385720729827880859375">
        <ele>2376.199951171875</ele>
        <time>2026-08-31T06:47:35.000Z</time>
        <extensions>
          <ns3:TrackPointExtension>
            <ns3:hr>161</ns3:hr>
            <ns3:cad>0</ns3:cad>
          </ns3:TrackPointExtension>
        </extensions>
      </trkpt>
      <trkpt lat="44.6770927123725414276123046875" lon="6.82617022655904293060302734375">
        <ele>2376.39990234375</ele>
        <time>2026-08-31T06:47:36.000Z</time>
        <extensions>
          <ns3:TrackPointExtension>
            <ns3:hr>161</ns3:hr>
            <ns3:cad>0</ns3:cad>
          </ns3:TrackPointExtension>
        </extensions>
      </trkpt>
      <trkpt lat="44.67709363438189029693603515625" lon="6.82618514634668827056884765625">
        <ele>2376.60009765625</ele>
        <time>2026-08-31T06:47:37.000Z</time>
        <extensions>
          <ns3:TrackPointExtension>
            <ns3:hr>162</ns3:hr>
            <ns3:cad>0</ns3:cad>
          </ns3:TrackPointExtension>
        </extensions>
      </trkpt>
      <trkpt lat="44.67709413729608058929443359375" lon="6.8262003175914287567138671875">
        <ele>2376.60009765625</ele>
        <time>2026-08-31T06:47:38.000Z</time>
        <extensions>
          <ns3:TrackPointExtension>
            <ns3:hr>162</ns3:hr>
            <ns3:cad>0</ns3:cad>
          </ns3:TrackPointExtension>
        </extensions>
      </trkpt>
      <trkpt lat="44.67709564603865146636962890625" lon="6.8262160755693912506103515625">
        <ele>2376.800048828125</ele>
        <time>2026-08-31T06:47:39.000Z</time>
        <extensions>
          <ns3:TrackPointExtension>
            <ns3:hr>163</ns3:hr>
            <ns3:cad>49</ns3:cad>
          </ns3:TrackPointExtension>
        </extensions>
      </trkpt>
      <trkpt lat="44.67709623277187347412109375" lon="6.8262237869203090667724609375">
        <ele>2377</ele>
        <time>2026-08-31T06:47:40.000Z</time>
        <extensions>
          <ns3:TrackPointExtension>
            <ns3:hr>163</ns3:hr>
            <ns3:cad>49</ns3:cad>
          </ns3:TrackPointExtension>
        </extensions>
      </trkpt>
      <trkpt lat="44.67710084281861782073974609375" lon="6.82623560540378093719482421875">
        <ele>2377</ele>
        <time>2026-08-31T06:47:41.000Z</time>
        <extensions>
          <ns3:TrackPointExtension>
            <ns3:hr>163</ns3:hr>
            <ns3:cad>49</ns3:cad>
          </ns3:TrackPointExtension>
        </extensions>
      </trkpt>
      <trkpt lat="44.6771037764847278594970703125" lon="6.82624482549726963043212890625">
        <ele>2377.199951171875</ele>
        <time>2026-08-31T06:47:42.000Z</time>
        <extensions>
          <ns3:TrackPointExtension>
            <ns3:hr>162</ns3:hr>
            <ns3:cad>49</ns3:cad>
          </ns3:TrackPointExtension>
        </extensions>
      </trkpt>
      <trkpt lat="44.6771054528653621673583984375" lon="6.826257146894931793212890625">
        <ele>2377.39990234375</ele>
        <time>2026-08-31T06:47:43.000Z</time>
        <extensions>
          <ns3:TrackPointExtension>
            <ns3:hr>162</ns3:hr>
            <ns3:cad>47</ns3:cad>
          </ns3:TrackPointExtension>
        </extensions>
      </trkpt>
      <trkpt lat="44.67710696160793304443359375" lon="6.8262683786451816558837890625">
        <ele>2377.60009765625</ele>
        <time>2026-08-31T06:47:44.000Z</time>
        <extensions>
          <ns3:TrackPointExtension>
            <ns3:hr>162</ns3:hr>
            <ns3:cad>47</ns3:cad>
          </ns3:TrackPointExtension>
        </extensions>
      </trkpt>
      <trkpt lat="44.67710671015083789825439453125" lon="6.82627181522548198699951171875">
        <ele>2378</ele>
        <time>2026-08-31T06:47:45.000Z</time>
        <extensions>
          <ns3:TrackPointExtension>
            <ns3:hr>162</ns3:hr>
            <ns3:cad>0</ns3:cad>
          </ns3:TrackPointExtension>
        </extensions>
      </trkpt>
      <trkpt lat="44.67710671015083789825439453125" lon="6.82628354988992214202880859375">
        <ele>2378.199951171875</ele>
        <time>2026-08-31T06:47:46.000Z</time>
        <extensions>
          <ns3:TrackPointExtension>
            <ns3:hr>162</ns3:hr>
            <ns3:cad>0</ns3:cad>
          </ns3:TrackPointExtension>
        </extensions>
      </trkpt>
      <trkpt lat="44.67710587196052074432373046875" lon="6.82629025541245937347412109375">
        <ele>2378.39990234375</ele>
        <time>2026-08-31T06:47:47.000Z</time>
        <extensions>
          <ns3:TrackPointExtension>
            <ns3:hr>162</ns3:hr>
            <ns3:cad>0</ns3:cad>
          </ns3:TrackPointExtension>
        </extensions>
      </trkpt>
      <trkpt lat="44.67710302211344242095947265625" lon="6.82630316354334354400634765625">
        <ele>2378.39990234375</ele>
        <time>2026-08-31T06:47:48.000Z</time>
        <extensions>
          <ns3:TrackPointExtension>
            <ns3:hr>161</ns3:hr>
            <ns3:cad>0</ns3:cad>
          </ns3:TrackPointExtension>
        </extensions>
      </trkpt>
      <trkpt lat="44.67710168100893497467041015625" lon="6.82631657458841800689697265625">
        <ele>2378.60009765625</ele>
        <time>2026-08-31T06:47:49.000Z</time>
        <extensions>
          <ns3:TrackPointExtension>
            <ns3:hr>162</ns3:hr>
            <ns3:cad>0</ns3:cad>
          </ns3:TrackPointExtension>
        </extensions>
      </trkpt>
      <trkpt lat="44.67710251919925212860107421875" lon="6.82632663287222385406494140625">
        <ele>2378.800048828125</ele>
        <time>2026-08-31T06:47:50.000Z</time>
        <extensions>
          <ns3:TrackPointExtension>
            <ns3:hr>162</ns3:hr>
            <ns3:cad>0</ns3:cad>
          </ns3:TrackPointExtension>
        </extensions>
      </trkpt>
      <trkpt lat="44.67710218392312526702880859375" lon="6.8263399600982666015625">
        <ele>2379</ele>
        <time>2026-08-31T06:47:51.000Z</time>
        <extensions>
          <ns3:TrackPointExtension>
            <ns3:hr>162</ns3:hr>
            <ns3:cad>0</ns3:cad>
          </ns3:TrackPointExtension>
        </extensions>
      </trkpt>
      <trkpt lat="44.6771000884473323822021484375" lon="6.82635110802948474884033203125">
        <ele>2379.39990234375</ele>
        <time>2026-08-31T06:47:52.000Z</time>
        <extensions>
          <ns3:TrackPointExtension>
            <ns3:hr>162</ns3:hr>
            <ns3:cad>0</ns3:cad>
          </ns3:TrackPointExtension>
        </extensions>
      </trkpt>
      <trkpt lat="44.677097909152507781982421875" lon="6.82635848410427570343017578125">
        <ele>2379.60009765625</ele>
        <time>2026-08-31T06:47:53.000Z</time>
        <extensions>
          <ns3:TrackPointExtension>
            <ns3:hr>162</ns3:hr>
            <ns3:cad>0</ns3:cad>
          </ns3:TrackPointExtension>
        </extensions>
      </trkpt>
      <trkpt lat="44.67709732241928577423095703125" lon="6.8263713084161281585693359375">
        <ele>2379.800048828125</ele>
        <time>2026-08-31T06:47:54.000Z</time>
        <extensions>
          <ns3:TrackPointExtension>
            <ns3:hr>162</ns3:hr>
            <ns3:cad>0</ns3:cad>
          </ns3:TrackPointExtension>
        </extensions>
      </trkpt>
      <trkpt lat="44.67709832824766635894775390625" lon="6.8263895809650421142578125">
        <ele>2380</ele>
        <time>2026-08-31T06:47:55.000Z</time>
        <extensions>
          <ns3:TrackPointExtension>
            <ns3:hr>163</ns3:hr>
            <ns3:cad>0</ns3:cad>
          </ns3:TrackPointExtension>
        </extensions>
      </trkpt>
      <trkpt lat="44.67709799297153949737548828125" lon="6.826401986181735992431640625">
        <ele>2380.199951171875</ele>
        <time>2026-08-31T06:47:56.000Z</time>
        <extensions>
          <ns3:TrackPointExtension>
            <ns3:hr>163</ns3:hr>
            <ns3:cad>0</ns3:cad>
          </ns3:TrackPointExtension>
        </extensions>
      </trkpt>
      <trkpt lat="44.6771036088466644287109375" lon="6.8264091946184635162353515625">
        <ele>2380.199951171875</ele>
        <time>2026-08-31T06:47:57.000Z</time>
        <extensions>
          <ns3:TrackPointExtension>
            <ns3:hr>163</ns3:hr>
            <ns3:cad>0</ns3:cad>
          </ns3:TrackPointExtension>
        </extensions>
      </trkpt>
      <trkpt lat="44.67711039818823337554931640625" lon="6.82640902698040008544921875">
        <ele>2380.39990234375</ele>
        <time>2026-08-31T06:47:58.000Z</time>
        <extensions>
          <ns3:TrackPointExtension>
            <ns3:hr>163</ns3:hr>
            <ns3:cad>0</ns3:cad>
          </ns3:TrackPointExtension>
        </extensions>
      </trkpt>
      <trkpt lat="44.6771143376827239990234375" lon="6.82640274055302143096923828125">
        <ele>2380.39990234375</ele>
        <time>2026-08-31T06:47:59.000Z</time>
        <extensions>
          <ns3:TrackPointExtension>
            <ns3:hr>163</ns3:hr>
            <ns3:cad>0</ns3:cad>
          </ns3:TrackPointExtension>
        </extensions>
      </trkpt>
      <trkpt lat="44.6771215461194515228271484375" lon="6.82639268226921558380126953125">
        <ele>2380.60009765625</ele>
        <time>2026-08-31T06:48:00.000Z</time>
        <extensions>
          <ns3:TrackPointExtension>
            <ns3:hr>165</ns3:hr>
            <ns3:cad>0</ns3:cad>
          </ns3:TrackPointExtension>
        </extensions>
      </trkpt>
      <trkpt lat="44.67712347395718097686767578125" lon="6.82638614438474178314208984375">
        <ele>2381</ele>
        <time>2026-08-31T06:48:01.000Z</time>
        <extensions>
          <ns3:TrackPointExtension>
            <ns3:hr>168</ns3:hr>
            <ns3:cad>0</ns3:cad>
          </ns3:TrackPointExtension>
        </extensions>
      </trkpt>
      <trkpt lat="44.67713168822228908538818359375" lon="6.8263796903192996978759765625">
        <ele>2381.199951171875</ele>
        <time>2026-08-31T06:48:02.000Z</time>
        <extensions>
          <ns3:TrackPointExtension>
            <ns3:hr>173</ns3:hr>
            <ns3:cad>0</ns3:cad>
          </ns3:TrackPointExtension>
        </extensions>
      </trkpt>
      <trkpt lat="44.677140153944492340087890625" lon="6.8263696320354938507080078125">
        <ele>2381.39990234375</ele>
        <time>2026-08-31T06:48:03.000Z</time>
        <extensions>
          <ns3:TrackPointExtension>
            <ns3:hr>174</ns3:hr>
            <ns3:cad>0</ns3:cad>
          </ns3:TrackPointExtension>
        </extensions>
      </trkpt>
      <trkpt lat="44.67715322971343994140625" lon="6.82636032812297344207763671875">
        <ele>2381.60009765625</ele>
        <time>2026-08-31T06:48:04.000Z</time>
        <extensions>
          <ns3:TrackPointExtension>
            <ns3:hr>174</ns3:hr>
            <ns3:cad>0</ns3:cad>
          </ns3:TrackPointExtension>
        </extensions>
      </trkpt>
      <trkpt lat="44.6771631203591823577880859375" lon="6.82635462842881679534912109375">
        <ele>2381.800048828125</ele>
        <time>2026-08-31T06:48:05.000Z</time>
        <extensions>
          <ns3:TrackPointExtension>
            <ns3:hr>175</ns3:hr>
            <ns3:cad>0</ns3:cad>
          </ns3:TrackPointExtension>
        </extensions>
      </trkpt>
      <trkpt lat="44.67717577703297138214111328125" lon="6.82634741999208927154541015625">
        <ele>2381.800048828125</ele>
        <time>2026-08-31T06:48:06.000Z</time>
        <extensions>
          <ns3:TrackPointExtension>
            <ns3:hr>175</ns3:hr>
            <ns3:cad>0</ns3:cad>
          </ns3:TrackPointExtension>
        </extensions>
      </trkpt>
      <trkpt lat="44.6771869249641895294189453125" lon="6.82634331285953521728515625">
        <ele>2381.800048828125</ele>
        <time>2026-08-31T06:48:07.000Z</time>
        <extensions>
          <ns3:TrackPointExtension>
            <ns3:hr>175</ns3:hr>
            <ns3:cad>0</ns3:cad>
          </ns3:TrackPointExtension>
        </extensions>
      </trkpt>
      <trkpt lat="44.6771948039531707763671875" lon="6.82634507305920124053955078125">
        <ele>2381.800048828125</ele>
        <time>2026-08-31T06:48:08.000Z</time>
        <extensions>
          <ns3:TrackPointExtension>
            <ns3:hr>175</ns3:hr>
            <ns3:cad>0</ns3:cad>
          </ns3:TrackPointExtension>
        </extensions>
      </trkpt>
      <trkpt lat="44.67720620334148406982421875" lon="6.826345659792423248291015625">
        <ele>2382</ele>
        <time>2026-08-31T06:48:09.000Z</time>
        <extensions>
          <ns3:TrackPointExtension>
            <ns3:hr>175</ns3:hr>
            <ns3:cad>0</ns3:cad>
          </ns3:TrackPointExtension>
        </extensions>
      </trkpt>
      <trkpt lat="44.6772110648453235626220703125" lon="6.8263454921543598175048828125">
        <ele>2382.199951171875</ele>
        <time>2026-08-31T06:48:10.000Z</time>
        <extensions>
          <ns3:TrackPointExtension>
            <ns3:hr>174</ns3:hr>
            <ns3:cad>0</ns3:cad>
          </ns3:TrackPointExtension>
        </extensions>
      </trkpt>
      <trkpt lat="44.67722204513847827911376953125" lon="6.82634825818240642547607421875">
        <ele>2382.39990234375</ele>
        <time>2026-08-31T06:48:11.000Z</time>
        <extensions>
          <ns3:TrackPointExtension>
            <ns3:hr>175</ns3:hr>
            <ns3:cad>0</ns3:cad>
          </ns3:TrackPointExtension>
        </extensions>
      </trkpt>
      <trkpt lat="44.6772269904613494873046875" lon="6.82634322904050350189208984375">
        <ele>2382.800048828125</ele>
        <time>2026-08-31T06:48:12.000Z</time>
        <extensions>
          <ns3:TrackPointExtension>
            <ns3:hr>175</ns3:hr>
            <ns3:cad>0</ns3:cad>
          </ns3:TrackPointExtension>
        </extensions>
      </trkpt>
      <trkpt lat="44.67723897658288478851318359375" lon="6.826334930956363677978515625">
        <ele>2383</ele>
        <time>2026-08-31T06:48:13.000Z</time>
        <extensions>
          <ns3:TrackPointExtension>
            <ns3:hr>175</ns3:hr>
            <ns3:cad>0</ns3:cad>
          </ns3:TrackPointExtension>
        </extensions>
      </trkpt>
      <trkpt lat="44.67724920250475406646728515625" lon="6.826330907642841339111328125">
        <ele>2383.199951171875</ele>
        <time>2026-08-31T06:48:14.000Z</time>
        <extensions>
          <ns3:TrackPointExtension>
            <ns3:hr>175</ns3:hr>
            <ns3:cad>0</ns3:cad>
          </ns3:TrackPointExtension>
        </extensions>
      </trkpt>
      <trkpt lat="44.6772576682269573211669921875" lon="6.82632864452898502349853515625">
        <ele>2383.39990234375</ele>
        <time>2026-08-31T06:48:15.000Z</time>
        <extensions>
          <ns3:TrackPointExtension>
            <ns3:hr>175</ns3:hr>
            <ns3:cad>78</ns3:cad>
          </ns3:TrackPointExtension>
        </extensions>
      </trkpt>
      <trkpt lat="44.67726445756852626800537109375" lon="6.82632294483482837677001953125">
        <ele>2383.60009765625</ele>
        <time>2026-08-31T06:48:16.000Z</time>
        <extensions>
          <ns3:TrackPointExtension>
            <ns3:hr>175</ns3:hr>
            <ns3:cad>78</ns3:cad>
          </ns3:TrackPointExtension>
        </extensions>
      </trkpt>
      <trkpt lat="44.67727015726268291473388671875" lon="6.82631917297840118408203125">
        <ele>2383.800048828125</ele>
        <time>2026-08-31T06:48:17.000Z</time>
        <extensions>
          <ns3:TrackPointExtension>
            <ns3:hr>174</ns3:hr>
            <ns3:cad>0</ns3:cad>
          </ns3:TrackPointExtension>
        </extensions>
      </trkpt>
      <trkpt lat="44.6772794611752033233642578125" lon="6.82631514966487884521484375">
        <ele>2384.199951171875</ele>
        <time>2026-08-31T06:48:18.000Z</time>
        <extensions>
          <ns3:TrackPointExtension>
            <ns3:hr>175</ns3:hr>
            <ns3:cad>0</ns3:cad>
          </ns3:TrackPointExtension>
        </extensions>
      </trkpt>
      <trkpt lat="44.67728692106902599334716796875" lon="6.8263117969036102294921875">
        <ele>2384.39990234375</ele>
        <time>2026-08-31T06:48:19.000Z</time>
        <extensions>
          <ns3:TrackPointExtension>
            <ns3:hr>175</ns3:hr>
            <ns3:cad>0</ns3:cad>
          </ns3:TrackPointExtension>
        </extensions>
      </trkpt>
      <trkpt lat="44.6772975660860538482666015625" lon="6.82631121017038822174072265625">
        <ele>2384.800048828125</ele>
        <time>2026-08-31T06:48:20.000Z</time>
        <extensions>
          <ns3:TrackPointExtension>
            <ns3:hr>175</ns3:hr>
            <ns3:cad>0</ns3:cad>
          </ns3:TrackPointExtension>
        </extensions>
      </trkpt>
      <trkpt lat="44.6773062832653522491455078125" lon="6.826309449970722198486328125">
        <ele>2385</ele>
        <time>2026-08-31T06:48:21.000Z</time>
        <extensions>
          <ns3:TrackPointExtension>
            <ns3:hr>176</ns3:hr>
            <ns3:cad>0</ns3:cad>
          </ns3:TrackPointExtension>
        </extensions>
      </trkpt>
      <trkpt lat="44.677317179739475250244140625" lon="6.82630710303783416748046875">
        <ele>2385.199951171875</ele>
        <time>2026-08-31T06:48:22.000Z</time>
        <extensions>
          <ns3:TrackPointExtension>
            <ns3:hr>175</ns3:hr>
            <ns3:cad>0</ns3:cad>
          </ns3:TrackPointExtension>
        </extensions>
      </trkpt>
      <trkpt lat="44.67732556164264678955078125" lon="6.82630467228591442108154296875">
        <ele>2385.60009765625</ele>
        <time>2026-08-31T06:48:23.000Z</time>
        <extensions>
          <ns3:TrackPointExtension>
            <ns3:hr>175</ns3:hr>
            <ns3:cad>0</ns3:cad>
          </ns3:TrackPointExtension>
        </extensions>
      </trkpt>
      <trkpt lat="44.6773337759077548980712890625" lon="6.8263052590191364288330078125">
        <ele>2385.800048828125</ele>
        <time>2026-08-31T06:48:24.000Z</time>
        <extensions>
          <ns3:TrackPointExtension>
            <ns3:hr>175</ns3:hr>
            <ns3:cad>0</ns3:cad>
          </ns3:TrackPointExtension>
        </extensions>
      </trkpt>
      <trkpt lat="44.677346684038639068603515625" lon="6.8263059295713901519775390625">
        <ele>2386</ele>
        <time>2026-08-31T06:48:25.000Z</time>
        <extensions>
          <ns3:TrackPointExtension>
            <ns3:hr>175</ns3:hr>
            <ns3:cad>0</ns3:cad>
          </ns3:TrackPointExtension>
        </extensions>
      </trkpt>
      <trkpt lat="44.677352048456668853759765625" lon="6.8263022415339946746826171875">
        <ele>2386.39990234375</ele>
        <time>2026-08-31T06:48:26.000Z</time>
        <extensions>
          <ns3:TrackPointExtension>
            <ns3:hr>175</ns3:hr>
            <ns3:cad>0</ns3:cad>
          </ns3:TrackPointExtension>
        </extensions>
      </trkpt>
      <trkpt lat="44.67736235819756984710693359375" lon="6.8262985534965991973876953125">
        <ele>2386.60009765625</ele>
        <time>2026-08-31T06:48:27.000Z</time>
        <extensions>
          <ns3:TrackPointExtension>
            <ns3:hr>175</ns3:hr>
            <ns3:cad>0</ns3:cad>
          </ns3:TrackPointExtension>
        </extensions>
      </trkpt>
      <trkpt lat="44.6773716621100902557373046875" lon="6.8262952007353305816650390625">
        <ele>2386.800048828125</ele>
        <time>2026-08-31T06:48:28.000Z</time>
        <extensions>
          <ns3:TrackPointExtension>
            <ns3:hr>175</ns3:hr>
            <ns3:cad>0</ns3:cad>
          </ns3:TrackPointExtension>
        </extensions>
      </trkpt>
      <trkpt lat="44.67738515697419643402099609375" lon="6.826294362545013427734375">
        <ele>2387.199951171875</ele>
        <time>2026-08-31T06:48:29.000Z</time>
        <extensions>
          <ns3:TrackPointExtension>
            <ns3:hr>176</ns3:hr>
            <ns3:cad>0</ns3:cad>
          </ns3:TrackPointExtension>
        </extensions>
      </trkpt>
      <trkpt lat="44.67739420942962169647216796875" lon="6.8262935243546962738037109375">
        <ele>2387.199951171875</ele>
        <time>2026-08-31T06:48:30.000Z</time>
        <extensions>
          <ns3:TrackPointExtension>
            <ns3:hr>176</ns3:hr>
            <ns3:cad>0</ns3:cad>
          </ns3:TrackPointExtension>
        </extensions>
      </trkpt>
      <trkpt lat="44.6773974783718585968017578125" lon="6.82629377581179141998291015625">
        <ele>2387.39990234375</ele>
        <time>2026-08-31T06:48:31.000Z</time>
        <extensions>
          <ns3:TrackPointExtension>
            <ns3:hr>176</ns3:hr>
            <ns3:cad>0</ns3:cad>
          </ns3:TrackPointExtension>
        </extensions>
      </trkpt>
      <trkpt lat="44.6774061955511569976806640625" lon="6.8262903392314910888671875">
        <ele>2387.60009765625</ele>
        <time>2026-08-31T06:48:32.000Z</time>
        <extensions>
          <ns3:TrackPointExtension>
            <ns3:hr>176</ns3:hr>
            <ns3:cad>0</ns3:cad>
          </ns3:TrackPointExtension>
        </extensions>
      </trkpt>
      <trkpt lat="44.67741080559790134429931640625" lon="6.826285310089588165283203125">
        <ele>2387.800048828125</ele>
        <time>2026-08-31T06:48:33.000Z</time>
        <extensions>
          <ns3:TrackPointExtension>
            <ns3:hr>176</ns3:hr>
            <ns3:cad>0</ns3:cad>
          </ns3:TrackPointExtension>
        </extensions>
      </trkpt>
      <trkpt lat="44.6774212829768657684326171875" lon="6.8262821249663829803466796875">
        <ele>2388</ele>
        <time>2026-08-31T06:48:34.000Z</time>
        <extensions>
          <ns3:TrackPointExtension>
            <ns3:hr>176</ns3:hr>
            <ns3:cad>0</ns3:cad>
          </ns3:TrackPointExtension>
        </extensions>
      </trkpt>
      <trkpt lat="44.6774306707084178924560546875" lon="6.82627768255770206451416015625">
        <ele>2388.199951171875</ele>
        <time>2026-08-31T06:48:35.000Z</time>
        <extensions>
          <ns3:TrackPointExtension>
            <ns3:hr>176</ns3:hr>
            <ns3:cad>0</ns3:cad>
          </ns3:TrackPointExtension>
        </extensions>
      </trkpt>
      <trkpt lat="44.67744567431509494781494140625" lon="6.8262807838618755340576171875">
        <ele>2388.39990234375</ele>
        <time>2026-08-31T06:48:36.000Z</time>
        <extensions>
          <ns3:TrackPointExtension>
            <ns3:hr>177</ns3:hr>
            <ns3:cad>0</ns3:cad>
          </ns3:TrackPointExtension>
        </extensions>
      </trkpt>
      <trkpt lat="44.67745623551309108734130859375" lon="6.82628153823316097259521484375">
        <ele>2388.800048828125</ele>
        <time>2026-08-31T06:48:37.000Z</time>
        <extensions>
          <ns3:TrackPointExtension>
            <ns3:hr>177</ns3:hr>
            <ns3:cad>0</ns3:cad>
          </ns3:TrackPointExtension>
        </extensions>
      </trkpt>
      <trkpt lat="44.6774709038436412811279296875" lon="6.826275922358036041259765625">
        <ele>2389</ele>
        <time>2026-08-31T06:48:38.000Z</time>
        <extensions>
          <ns3:TrackPointExtension>
            <ns3:hr>177</ns3:hr>
            <ns3:cad>0</ns3:cad>
          </ns3:TrackPointExtension>
        </extensions>
      </trkpt>
      <trkpt lat="44.67748020775616168975830078125" lon="6.82627181522548198699951171875">
        <ele>2389.199951171875</ele>
        <time>2026-08-31T06:48:39.000Z</time>
        <extensions>
          <ns3:TrackPointExtension>
            <ns3:hr>177</ns3:hr>
            <ns3:cad>0</ns3:cad>
          </ns3:TrackPointExtension>
        </extensions>
      </trkpt>
      <trkpt lat="44.67748557217419147491455078125" lon="6.8262700550258159637451171875">
        <ele>2389.199951171875</ele>
        <time>2026-08-31T06:48:40.000Z</time>
        <extensions>
          <ns3:TrackPointExtension>
            <ns3:hr>177</ns3:hr>
            <ns3:cad>0</ns3:cad>
          </ns3:TrackPointExtension>
        </extensions>
      </trkpt>
      <trkpt lat="44.67748573981225490570068359375" lon="6.82626997120678424835205078125">
        <ele>2389.39990234375</ele>
        <time>2026-08-31T06:48:41.000Z</time>
        <extensions>
          <ns3:TrackPointExtension>
            <ns3:hr>176</ns3:hr>
            <ns3:cad>0</ns3:cad>
          </ns3:TrackPointExtension>
        </extensions>
      </trkpt>
      <trkpt lat="44.67749261297285556793212890625" lon="6.8262650258839130401611328125">
        <ele>2389.39990234375</ele>
        <time>2026-08-31T06:48:42.000Z</time>
        <extensions>
          <ns3:TrackPointExtension>
            <ns3:hr>177</ns3:hr>
            <ns3:cad>0</ns3:cad>
          </ns3:TrackPointExtension>
        </extensions>
      </trkpt>
      <trkpt lat="44.677498899400234222412109375" lon="6.82626158930361270904541015625">
        <ele>2389.60009765625</ele>
        <time>2026-08-31T06:48:43.000Z</time>
        <extensions>
          <ns3:TrackPointExtension>
            <ns3:hr>177</ns3:hr>
            <ns3:cad>0</ns3:cad>
          </ns3:TrackPointExtension>
        </extensions>
      </trkpt>
      <trkpt lat="44.67750367708504199981689453125" lon="6.8262576498091220855712890625">
        <ele>2389.800048828125</ele>
        <time>2026-08-31T06:48:44.000Z</time>
        <extensions>
          <ns3:TrackPointExtension>
            <ns3:hr>177</ns3:hr>
            <ns3:cad>0</ns3:cad>
          </ns3:TrackPointExtension>
        </extensions>
      </trkpt>
      <trkpt lat="44.6775091253221035003662109375" lon="6.82625002227723598480224609375">
        <ele>2390</ele>
        <time>2026-08-31T06:48:45.000Z</time>
        <extensions>
          <ns3:TrackPointExtension>
            <ns3:hr>177</ns3:hr>
            <ns3:cad>0</ns3:cad>
          </ns3:TrackPointExtension>
        </extensions>
      </trkpt>
      <trkpt lat="44.67751608230173587799072265625" lon="6.82624541223049163818359375">
        <ele>2390.199951171875</ele>
        <time>2026-08-31T06:48:46.000Z</time>
        <extensions>
          <ns3:TrackPointExtension>
            <ns3:hr>177</ns3:hr>
            <ns3:cad>0</ns3:cad>
          </ns3:TrackPointExtension>
        </extensions>
      </trkpt>
      <trkpt lat="44.67751742340624332427978515625" lon="6.826246082782745361328125">
        <ele>2390.199951171875</ele>
        <time>2026-08-31T06:48:47.000Z</time>
        <extensions>
          <ns3:TrackPointExtension>
            <ns3:hr>177</ns3:hr>
            <ns3:cad>0</ns3:cad>
          </ns3:TrackPointExtension>
        </extensions>
      </trkpt>
      <trkpt lat="44.6775233745574951171875" lon="6.82624264620244503021240234375">
        <ele>2390.39990234375</ele>
        <time>2026-08-31T06:48:48.000Z</time>
        <extensions>
          <ns3:TrackPointExtension>
            <ns3:hr>177</ns3:hr>
            <ns3:cad>0</ns3:cad>
          </ns3:TrackPointExtension>
        </extensions>
      </trkpt>
      <trkpt lat="44.677526056766510009765625" lon="6.82623862288892269134521484375">
        <ele>2390.60009765625</ele>
        <time>2026-08-31T06:48:49.000Z</time>
        <extensions>
          <ns3:TrackPointExtension>
            <ns3:hr>177</ns3:hr>
            <ns3:cad>0</ns3:cad>
          </ns3:TrackPointExtension>
        </extensions>
      </trkpt>
      <trkpt lat="44.67753804288804531097412109375" lon="6.8262326717376708984375">
        <ele>2390.800048828125</ele>
        <time>2026-08-31T06:48:50.000Z</time>
        <extensions>
          <ns3:TrackPointExtension>
            <ns3:hr>177</ns3:hr>
            <ns3:cad>0</ns3:cad>
          </ns3:TrackPointExtension>
        </extensions>
      </trkpt>
      <trkpt lat="44.6775448322296142578125" lon="6.82622957043349742889404296875">
        <ele>2390.800048828125</ele>
        <time>2026-08-31T06:48:51.000Z</time>
        <extensions>
          <ns3:TrackPointExtension>
            <ns3:hr>177</ns3:hr>
            <ns3:cad>0</ns3:cad>
          </ns3:TrackPointExtension>
        </extensions>
      </trkpt>
      <trkpt lat="44.67755648307502269744873046875" lon="6.826224289834499359130859375">
        <ele>2391.199951171875</ele>
        <time>2026-08-31T06:48:52.000Z</time>
        <extensions>
          <ns3:TrackPointExtension>
            <ns3:hr>177</ns3:hr>
            <ns3:cad>0</ns3:cad>
          </ns3:TrackPointExtension>
        </extensions>
      </trkpt>
      <trkpt lat="44.677564613521099090576171875" lon="6.82621800340712070465087890625">
        <ele>2391.39990234375</ele>
        <time>2026-08-31T06:48:53.000Z</time>
        <extensions>
          <ns3:TrackPointExtension>
            <ns3:hr>177</ns3:hr>
            <ns3:cad>0</ns3:cad>
          </ns3:TrackPointExtension>
        </extensions>
      </trkpt>
      <trkpt lat="44.6775698103010654449462890625" lon="6.8262160755693912506103515625">
        <ele>2391.60009765625</ele>
        <time>2026-08-31T06:48:54.000Z</time>
        <extensions>
          <ns3:TrackPointExtension>
            <ns3:hr>177</ns3:hr>
            <ns3:cad>0</ns3:cad>
          </ns3:TrackPointExtension>
        </extensions>
      </trkpt>
      <trkpt lat="44.6775798685848712921142578125" lon="6.82620962150394916534423828125">
        <ele>2391.800048828125</ele>
        <time>2026-08-31T06:48:55.000Z</time>
        <extensions>
          <ns3:TrackPointExtension>
            <ns3:hr>177</ns3:hr>
            <ns3:cad>0</ns3:cad>
          </ns3:TrackPointExtension>
        </extensions>
      </trkpt>
      <trkpt lat="44.67758246697485446929931640625" lon="6.8262063525617122650146484375">
        <ele>2392</ele>
        <time>2026-08-31T06:48:56.000Z</time>
        <extensions>
          <ns3:TrackPointExtension>
            <ns3:hr>178</ns3:hr>
            <ns3:cad>0</ns3:cad>
          </ns3:TrackPointExtension>
        </extensions>
      </trkpt>
      <trkpt lat="44.6775956265628337860107421875" lon="6.8262066878378391265869140625">
        <ele>2392</ele>
        <time>2026-08-31T06:48:57.000Z</time>
        <extensions>
          <ns3:TrackPointExtension>
            <ns3:hr>178</ns3:hr>
            <ns3:cad>0</ns3:cad>
          </ns3:TrackPointExtension>
        </extensions>
      </trkpt>
      <trkpt lat="44.677600823342800140380859375" lon="6.82620978914201259613037109375">
        <ele>2392.39990234375</ele>
        <time>2026-08-31T06:48:58.000Z</time>
        <extensions>
          <ns3:TrackPointExtension>
            <ns3:hr>178</ns3:hr>
            <ns3:cad>0</ns3:cad>
          </ns3:TrackPointExtension>
        </extensions>
      </trkpt>
      <trkpt lat="44.67760987579822540283203125" lon="6.8262103758752346038818359375">
        <ele>2392.60009765625</ele>
        <time>2026-08-31T06:48:59.000Z</time>
        <extensions>
          <ns3:TrackPointExtension>
            <ns3:hr>178</ns3:hr>
            <ns3:cad>0</ns3:cad>
          </ns3:TrackPointExtension>
        </extensions>
      </trkpt>
      <trkpt lat="44.67761985026299953460693359375" lon="6.82620341889560222625732421875">
        <ele>2392.800048828125</ele>
        <time>2026-08-31T06:49:00.000Z</time>
        <extensions>
          <ns3:TrackPointExtension>
            <ns3:hr>178</ns3:hr>
            <ns3:cad>0</ns3:cad>
          </ns3:TrackPointExtension>
        </extensions>
      </trkpt>
      <trkpt lat="44.6776274777948856353759765625" lon="6.82620006613433361053466796875">
        <ele>2393</ele>
        <time>2026-08-31T06:49:01.000Z</time>
        <extensions>
          <ns3:TrackPointExtension>
            <ns3:hr>178</ns3:hr>
            <ns3:cad>0</ns3:cad>
          </ns3:TrackPointExtension>
        </extensions>
      </trkpt>
      <trkpt lat="44.6776351891458034515380859375" lon="6.8261936120688915252685546875">
        <ele>2393.39990234375</ele>
        <time>2026-08-31T06:49:02.000Z</time>
        <extensions>
          <ns3:TrackPointExtension>
            <ns3:hr>178</ns3:hr>
            <ns3:cad>0</ns3:cad>
          </ns3:TrackPointExtension>
        </extensions>
      </trkpt>
      <trkpt lat="44.67763829044997692108154296875" lon="6.826190762221813201904296875">
        <ele>2393.39990234375</ele>
        <time>2026-08-31T06:49:03.000Z</time>
        <extensions>
          <ns3:TrackPointExtension>
            <ns3:hr>178</ns3:hr>
            <ns3:cad>0</ns3:cad>
          </ns3:TrackPointExtension>
        </extensions>
      </trkpt>
      <trkpt lat="44.6776499412953853607177734375" lon="6.826187409460544586181640625">
        <ele>2393.60009765625</ele>
        <time>2026-08-31T06:49:04.000Z</time>
        <extensions>
          <ns3:TrackPointExtension>
            <ns3:hr>178</ns3:hr>
            <ns3:cad>51</ns3:cad>
          </ns3:TrackPointExtension>
        </extensions>
      </trkpt>
      <trkpt lat="44.67766058631241321563720703125" lon="6.8261855654418468475341796875">
        <ele>2393.800048828125</ele>
        <time>2026-08-31T06:49:05.000Z</time>
        <extensions>
          <ns3:TrackPointExtension>
            <ns3:hr>178</ns3:hr>
            <ns3:cad>51</ns3:cad>
          </ns3:TrackPointExtension>
        </extensions>
      </trkpt>
      <trkpt lat="44.67767282389104366302490234375" lon="6.82618246413767337799072265625">
        <ele>2393.800048828125</ele>
        <time>2026-08-31T06:49:06.000Z</time>
        <extensions>
          <ns3:TrackPointExtension>
            <ns3:hr>178</ns3:hr>
            <ns3:cad>51</ns3:cad>
          </ns3:TrackPointExtension>
        </extensions>
      </trkpt>
      <trkpt lat="44.67768271453678607940673828125" lon="6.8261803686618804931640625">
        <ele>2393.800048828125</ele>
        <time>2026-08-31T06:49:07.000Z</time>
        <extensions>
          <ns3:TrackPointExtension>
            <ns3:hr>178</ns3:hr>
            <ns3:cad>51</ns3:cad>
          </ns3:TrackPointExtension>
        </extensions>
      </trkpt>
      <trkpt lat="44.6776948682963848114013671875" lon="6.826179362833499908447265625">
        <ele>2394</ele>
        <time>2026-08-31T06:49:08.000Z</time>
        <extensions>
          <ns3:TrackPointExtension>
            <ns3:hr>178</ns3:hr>
            <ns3:cad>51</ns3:cad>
          </ns3:TrackPointExtension>
        </extensions>
      </trkpt>
      <trkpt lat="44.677708446979522705078125" lon="6.82618238031864166259765625">
        <ele>2394.199951171875</ele>
        <time>2026-08-31T06:49:09.000Z</time>
        <extensions>
          <ns3:TrackPointExtension>
            <ns3:hr>177</ns3:hr>
            <ns3:cad>51</ns3:cad>
          </ns3:TrackPointExtension>
        </extensions>
      </trkpt>
      <trkpt lat="44.67771875672042369842529296875" lon="6.82618506252765655517578125">
        <ele>2394.39990234375</ele>
        <time>2026-08-31T06:49:10.000Z</time>
        <extensions>
          <ns3:TrackPointExtension>
            <ns3:hr>178</ns3:hr>
            <ns3:cad>51</ns3:cad>
          </ns3:TrackPointExtension>
        </extensions>
      </trkpt>
      <trkpt lat="44.677728898823261260986328125" lon="6.8261879123747348785400390625">
        <ele>2394.60009765625</ele>
        <time>2026-08-31T06:49:11.000Z</time>
        <extensions>
          <ns3:TrackPointExtension>
            <ns3:hr>178</ns3:hr>
            <ns3:cad>51</ns3:cad>
          </ns3:TrackPointExtension>
        </extensions>
      </trkpt>
      <trkpt lat="44.67773887328803539276123046875" lon="6.826186738908290863037109375">
        <ele>2394.800048828125</ele>
        <time>2026-08-31T06:49:12.000Z</time>
        <extensions>
          <ns3:TrackPointExtension>
            <ns3:hr>177</ns3:hr>
            <ns3:cad>0</ns3:cad>
          </ns3:TrackPointExtension>
        </extensions>
      </trkpt>
      <trkpt lat="44.67774859629571437835693359375" lon="6.82618640363216400146484375">
        <ele>2394.800048828125</ele>
        <time>2026-08-31T06:49:13.000Z</time>
        <extensions>
          <ns3:TrackPointExtension>
            <ns3:hr>178</ns3:hr>
            <ns3:cad>0</ns3:cad>
          </ns3:TrackPointExtension>
        </extensions>
      </trkpt>
      <trkpt lat="44.67775798402726650238037109375" lon="6.826185397803783416748046875">
        <ele>2395.199951171875</ele>
        <time>2026-08-31T06:49:14.000Z</time>
        <extensions>
          <ns3:TrackPointExtension>
            <ns3:hr>178</ns3:hr>
            <ns3:cad>0</ns3:cad>
          </ns3:TrackPointExtension>
        </extensions>
      </trkpt>
      <trkpt lat="44.67776544392108917236328125" lon="6.82618296705186367034912109375">
        <ele>2395.39990234375</ele>
        <time>2026-08-31T06:49:15.000Z</time>
        <extensions>
          <ns3:TrackPointExtension>
            <ns3:hr>179</ns3:hr>
            <ns3:cad>0</ns3:cad>
          </ns3:TrackPointExtension>
        </extensions>
      </trkpt>
      <trkpt lat="44.67777458019554615020751953125" lon="6.82618062011897563934326171875">
        <ele>2395.60009765625</ele>
        <time>2026-08-31T06:49:16.000Z</time>
        <extensions>
          <ns3:TrackPointExtension>
            <ns3:hr>179</ns3:hr>
            <ns3:cad>0</ns3:cad>
          </ns3:TrackPointExtension>
        </extensions>
      </trkpt>
      <trkpt lat="44.677781201899051666259765625" lon="6.82617844082415103912353515625">
        <ele>2395.800048828125</ele>
        <time>2026-08-31T06:49:17.000Z</time>
        <extensions>
          <ns3:TrackPointExtension>
            <ns3:hr>179</ns3:hr>
            <ns3:cad>0</ns3:cad>
          </ns3:TrackPointExtension>
        </extensions>
      </trkpt>
      <trkpt lat="44.67778933234512805938720703125" lon="6.826177351176738739013671875">
        <ele>2396</ele>
        <time>2026-08-31T06:49:18.000Z</time>
        <extensions>
          <ns3:TrackPointExtension>
            <ns3:hr>179</ns3:hr>
            <ns3:cad>0</ns3:cad>
          </ns3:TrackPointExtension>
        </extensions>
      </trkpt>
      <trkpt lat="44.67779402621090412139892578125" lon="6.826175339519977569580078125">
        <ele>2396.199951171875</ele>
        <time>2026-08-31T06:49:19.000Z</time>
        <extensions>
          <ns3:TrackPointExtension>
            <ns3:hr>178</ns3:hr>
            <ns3:cad>0</ns3:cad>
          </ns3:TrackPointExtension>
        </extensions>
      </trkpt>
      <trkpt lat="44.67780140228569507598876953125" lon="6.82617240585386753082275390625">
        <ele>2396.39990234375</ele>
        <time>2026-08-31T06:49:20.000Z</time>
        <extensions>
          <ns3:TrackPointExtension>
            <ns3:hr>178</ns3:hr>
            <ns3:cad>0</ns3:cad>
          </ns3:TrackPointExtension>
        </extensions>
      </trkpt>
      <trkpt lat="44.6778068505227565765380859375" lon="6.82616704143583774566650390625">
        <ele>2396.60009765625</ele>
        <time>2026-08-31T06:49:21.000Z</time>
        <extensions>
          <ns3:TrackPointExtension>
            <ns3:hr>177</ns3:hr>
            <ns3:cad>0</ns3:cad>
          </ns3:TrackPointExtension>
        </extensions>
      </trkpt>
      <trkpt lat="44.677812047302722930908203125" lon="6.8261627666652202606201171875">
        <ele>2396.800048828125</ele>
        <time>2026-08-31T06:49:22.000Z</time>
        <extensions>
          <ns3:TrackPointExtension>
            <ns3:hr>176</ns3:hr>
            <ns3:cad>0</ns3:cad>
          </ns3:TrackPointExtension>
        </extensions>
      </trkpt>
      <trkpt lat="44.67782084830105304718017578125" lon="6.82615832425653934478759765625">
        <ele>2397</ele>
        <time>2026-08-31T06:49:23.000Z</time>
        <extensions>
          <ns3:TrackPointExtension>
            <ns3:hr>175</ns3:hr>
            <ns3:cad>0</ns3:cad>
          </ns3:TrackPointExtension>
        </extensions>
      </trkpt>
      <trkpt lat="44.67782822437584400177001953125" lon="6.8261562287807464599609375">
        <ele>2397.199951171875</ele>
        <time>2026-08-31T06:49:24.000Z</time>
        <extensions>
          <ns3:TrackPointExtension>
            <ns3:hr>175</ns3:hr>
            <ns3:cad>0</ns3:cad>
          </ns3:TrackPointExtension>
        </extensions>
      </trkpt>
      <trkpt lat="44.6778358519077301025390625" lon="6.82615463621914386749267578125">
        <ele>2397.60009765625</ele>
        <time>2026-08-31T06:49:25.000Z</time>
        <extensions>
          <ns3:TrackPointExtension>
            <ns3:hr>174</ns3:hr>
            <ns3:cad>0</ns3:cad>
          </ns3:TrackPointExtension>
        </extensions>
      </trkpt>
      <trkpt lat="44.67784180305898189544677734375" lon="6.82615287601947784423828125">
        <ele>2397.800048828125</ele>
        <time>2026-08-31T06:49:26.000Z</time>
        <extensions>
          <ns3:TrackPointExtension>
            <ns3:hr>174</ns3:hr>
            <ns3:cad>0</ns3:cad>
          </ns3:TrackPointExtension>
        </extensions>
      </trkpt>
      <trkpt lat="44.677853286266326904296875" lon="6.82615547440946102142333984375">
        <ele>2398</ele>
        <time>2026-08-31T06:49:27.000Z</time>
        <extensions>
          <ns3:TrackPointExtension>
            <ns3:hr>174</ns3:hr>
            <ns3:cad>0</ns3:cad>
          </ns3:TrackPointExtension>
        </extensions>
      </trkpt>
      <trkpt lat="44.67786208726465702056884765625" lon="6.8261508643627166748046875">
        <ele>2398.199951171875</ele>
        <time>2026-08-31T06:49:28.000Z</time>
        <extensions>
          <ns3:TrackPointExtension>
            <ns3:hr>174</ns3:hr>
            <ns3:cad>0</ns3:cad>
          </ns3:TrackPointExtension>
        </extensions>
      </trkpt>
      <trkpt lat="44.67787331901490688323974609375" lon="6.82614306919276714324951171875">
        <ele>2398.39990234375</ele>
        <time>2026-08-31T06:49:29.000Z</time>
        <extensions>
          <ns3:TrackPointExtension>
            <ns3:hr>174</ns3:hr>
            <ns3:cad>0</ns3:cad>
          </ns3:TrackPointExtension>
        </extensions>
      </trkpt>
      <trkpt lat="44.6778782643377780914306640625" lon="6.82614206336438655853271484375">
        <ele>2398.60009765625</ele>
        <time>2026-08-31T06:49:30.000Z</time>
        <extensions>
          <ns3:TrackPointExtension>
            <ns3:hr>173</ns3:hr>
            <ns3:cad>0</ns3:cad>
          </ns3:TrackPointExtension>
        </extensions>
      </trkpt>
      <trkpt lat="44.67788522131741046905517578125" lon="6.82613753713667392730712890625">
        <ele>2398.800048828125</ele>
        <time>2026-08-31T06:49:31.000Z</time>
        <extensions>
          <ns3:TrackPointExtension>
            <ns3:hr>173</ns3:hr>
            <ns3:cad>0</ns3:cad>
          </ns3:TrackPointExtension>
        </extensions>
      </trkpt>
      <trkpt lat="44.67789351940155029296875" lon="6.82612848468124866485595703125">
        <ele>2399</ele>
        <time>2026-08-31T06:49:32.000Z</time>
        <extensions>
          <ns3:TrackPointExtension>
            <ns3:hr>173</ns3:hr>
            <ns3:cad>0</ns3:cad>
          </ns3:TrackPointExtension>
        </extensions>
      </trkpt>
      <trkpt lat="44.6778970398008823394775390625" lon="6.82612848468124866485595703125">
        <ele>2399.199951171875</ele>
        <time>2026-08-31T06:49:33.000Z</time>
        <extensions>
          <ns3:TrackPointExtension>
            <ns3:hr>173</ns3:hr>
            <ns3:cad>0</ns3:cad>
          </ns3:TrackPointExtension>
        </extensions>
      </trkpt>
      <trkpt lat="44.67790567316114902496337890625" lon="6.8261221982538700103759765625">
        <ele>2399.39990234375</ele>
        <time>2026-08-31T06:49:34.000Z</time>
        <extensions>
          <ns3:TrackPointExtension>
            <ns3:hr>174</ns3:hr>
            <ns3:cad>0</ns3:cad>
          </ns3:TrackPointExtension>
        </extensions>
      </trkpt>
      <trkpt lat="44.67790802009403705596923828125" lon="6.826116330921649932861328125">
        <ele>2399.60009765625</ele>
        <time>2026-08-31T06:49:35.000Z</time>
        <extensions>
          <ns3:TrackPointExtension>
            <ns3:hr>174</ns3:hr>
            <ns3:cad>0</ns3:cad>
          </ns3:TrackPointExtension>
        </extensions>
      </trkpt>
      <trkpt lat="44.67791489325463771820068359375" lon="6.82611188851296901702880859375">
        <ele>2399.800048828125</ele>
        <time>2026-08-31T06:49:36.000Z</time>
        <extensions>
          <ns3:TrackPointExtension>
            <ns3:hr>174</ns3:hr>
            <ns3:cad>0</ns3:cad>
          </ns3:TrackPointExtension>
        </extensions>
      </trkpt>
      <trkpt lat="44.677921347320079803466796875" lon="6.82610836811363697052001953125">
        <ele>2400</ele>
        <time>2026-08-31T06:49:37.000Z</time>
        <extensions>
          <ns3:TrackPointExtension>
            <ns3:hr>174</ns3:hr>
            <ns3:cad>0</ns3:cad>
          </ns3:TrackPointExtension>
        </extensions>
      </trkpt>
      <trkpt lat="44.6779288910329341888427734375" lon="6.82610417716205120086669921875">
        <ele>2400.39990234375</ele>
        <time>2026-08-31T06:49:38.000Z</time>
        <extensions>
          <ns3:TrackPointExtension>
            <ns3:hr>174</ns3:hr>
            <ns3:cad>0</ns3:cad>
          </ns3:TrackPointExtension>
        </extensions>
      </trkpt>
      <trkpt lat="44.67793350107967853546142578125" lon="6.826096884906291961669921875">
        <ele>2400.39990234375</ele>
        <time>2026-08-31T06:49:39.000Z</time>
        <extensions>
          <ns3:TrackPointExtension>
            <ns3:hr>174</ns3:hr>
            <ns3:cad>0</ns3:cad>
          </ns3:TrackPointExtension>
        </extensions>
      </trkpt>
      <trkpt lat="44.6779377758502960205078125" lon="6.82609252631664276123046875">
        <ele>2400.60009765625</ele>
        <time>2026-08-31T06:49:40.000Z</time>
        <extensions>
          <ns3:TrackPointExtension>
            <ns3:hr>174</ns3:hr>
            <ns3:cad>0</ns3:cad>
          </ns3:TrackPointExtension>
        </extensions>
      </trkpt>
      <trkpt lat="44.67794439755380153656005859375" lon="6.82608221657574176788330078125">
        <ele>2400.800048828125</ele>
        <time>2026-08-31T06:49:41.000Z</time>
        <extensions>
          <ns3:TrackPointExtension>
            <ns3:hr>174</ns3:hr>
            <ns3:cad>0</ns3:cad>
          </ns3:TrackPointExtension>
        </extensions>
      </trkpt>
      <trkpt lat="44.67794439755380153656005859375" lon="6.82607685215771198272705078125">
        <ele>2401</ele>
        <time>2026-08-31T06:49:42.000Z</time>
        <extensions>
          <ns3:TrackPointExtension>
            <ns3:hr>174</ns3:hr>
            <ns3:cad>0</ns3:cad>
          </ns3:TrackPointExtension>
        </extensions>
      </trkpt>
      <trkpt lat="44.67795043252408504486083984375" lon="6.826073415577411651611328125">
        <ele>2401.39990234375</ele>
        <time>2026-08-31T06:49:43.000Z</time>
        <extensions>
          <ns3:TrackPointExtension>
            <ns3:hr>174</ns3:hr>
            <ns3:cad>0</ns3:cad>
          </ns3:TrackPointExtension>
        </extensions>
      </trkpt>
      <trkpt lat="44.677958898246288299560546875" lon="6.82607064954936504364013671875">
        <ele>2401.60009765625</ele>
        <time>2026-08-31T06:49:44.000Z</time>
        <extensions>
          <ns3:TrackPointExtension>
            <ns3:hr>173</ns3:hr>
            <ns3:cad>0</ns3:cad>
          </ns3:TrackPointExtension>
        </extensions>
      </trkpt>
      <trkpt lat="44.6779647655785083770751953125" lon="6.826068051159381866455078125">
        <ele>2401.800048828125</ele>
        <time>2026-08-31T06:49:45.000Z</time>
        <extensions>
          <ns3:TrackPointExtension>
            <ns3:hr>173</ns3:hr>
            <ns3:cad>0</ns3:cad>
          </ns3:TrackPointExtension>
        </extensions>
      </trkpt>
      <trkpt lat="44.67797356657683849334716796875" lon="6.826068721711635589599609375">
        <ele>2402</ele>
        <time>2026-08-31T06:49:46.000Z</time>
        <extensions>
          <ns3:TrackPointExtension>
            <ns3:hr>174</ns3:hr>
            <ns3:cad>0</ns3:cad>
          </ns3:TrackPointExtension>
        </extensions>
      </trkpt>
      <trkpt lat="44.67797557823359966278076171875" lon="6.8260650336742401123046875">
        <ele>2402.199951171875</ele>
        <time>2026-08-31T06:49:47.000Z</time>
        <extensions>
          <ns3:TrackPointExtension>
            <ns3:hr>174</ns3:hr>
            <ns3:cad>0</ns3:cad>
          </ns3:TrackPointExtension>
        </extensions>
      </trkpt>
      <trkpt lat="44.67798597179353237152099609375" lon="6.82606210000813007354736328125">
        <ele>2402.39990234375</ele>
        <time>2026-08-31T06:49:48.000Z</time>
        <extensions>
          <ns3:TrackPointExtension>
            <ns3:hr>174</ns3:hr>
            <ns3:cad>0</ns3:cad>
          </ns3:TrackPointExtension>
        </extensions>
      </trkpt>
      <trkpt lat="44.67799209058284759521484375" lon="6.82606059126555919647216796875">
        <ele>2402.60009765625</ele>
        <time>2026-08-31T06:49:49.000Z</time>
        <extensions>
          <ns3:TrackPointExtension>
            <ns3:hr>174</ns3:hr>
            <ns3:cad>0</ns3:cad>
          </ns3:TrackPointExtension>
        </extensions>
      </trkpt>
      <trkpt lat="44.6779946051537990570068359375" lon="6.826062686741352081298828125">
        <ele>2402.800048828125</ele>
        <time>2026-08-31T06:49:50.000Z</time>
        <extensions>
          <ns3:TrackPointExtension>
            <ns3:hr>173</ns3:hr>
            <ns3:cad>0</ns3:cad>
          </ns3:TrackPointExtension>
        </extensions>
      </trkpt>
      <trkpt lat="44.6780029870569705963134765625" lon="6.82606033980846405029296875">
        <ele>2403</ele>
        <time>2026-08-31T06:49:51.000Z</time>
        <extensions>
          <ns3:TrackPointExtension>
            <ns3:hr>172</ns3:hr>
            <ns3:cad>0</ns3:cad>
          </ns3:TrackPointExtension>
        </extensions>
      </trkpt>
      <trkpt lat="44.6780110336840152740478515625" lon="6.82605723850429058074951171875">
        <ele>2403.199951171875</ele>
        <time>2026-08-31T06:49:52.000Z</time>
        <extensions>
          <ns3:TrackPointExtension>
            <ns3:hr>172</ns3:hr>
            <ns3:cad>0</ns3:cad>
          </ns3:TrackPointExtension>
        </extensions>
      </trkpt>
      <trkpt lat="44.6780169010162353515625" lon="6.826058663427829742431640625">
        <ele>2403.39990234375</ele>
        <time>2026-08-31T06:49:53.000Z</time>
        <extensions>
          <ns3:TrackPointExtension>
            <ns3:hr>171</ns3:hr>
            <ns3:cad>0</ns3:cad>
          </ns3:TrackPointExtension>
        </extensions>
      </trkpt>
      <trkpt lat="44.6780251152813434600830078125" lon="6.82605371810495853424072265625">
        <ele>2403.60009765625</ele>
        <time>2026-08-31T06:49:54.000Z</time>
        <extensions>
          <ns3:TrackPointExtension>
            <ns3:hr>171</ns3:hr>
            <ns3:cad>0</ns3:cad>
          </ns3:TrackPointExtension>
        </extensions>
      </trkpt>
      <trkpt lat="44.678029306232929229736328125" lon="6.8260534666478633880615234375">
        <ele>2403.800048828125</ele>
        <time>2026-08-31T06:49:55.000Z</time>
        <extensions>
          <ns3:TrackPointExtension>
            <ns3:hr>171</ns3:hr>
            <ns3:cad>0</ns3:cad>
          </ns3:TrackPointExtension>
        </extensions>
      </trkpt>
      <trkpt lat="44.6780351735651493072509765625" lon="6.82604885660111904144287109375">
        <ele>2404</ele>
        <time>2026-08-31T06:49:56.000Z</time>
        <extensions>
          <ns3:TrackPointExtension>
            <ns3:hr>171</ns3:hr>
            <ns3:cad>0</ns3:cad>
          </ns3:TrackPointExtension>
        </extensions>
      </trkpt>
      <trkpt lat="44.6780402027070522308349609375" lon="6.82604516856372356414794921875">
        <ele>2404.199951171875</ele>
        <time>2026-08-31T06:49:57.000Z</time>
        <extensions>
          <ns3:TrackPointExtension>
            <ns3:hr>171</ns3:hr>
            <ns3:cad>0</ns3:cad>
          </ns3:TrackPointExtension>
        </extensions>
      </trkpt>
      <trkpt lat="44.6780438907444477081298828125" lon="6.82603997178375720977783203125">
        <ele>2404.39990234375</ele>
        <time>2026-08-31T06:49:58.000Z</time>
        <extensions>
          <ns3:TrackPointExtension>
            <ns3:hr>170</ns3:hr>
            <ns3:cad>0</ns3:cad>
          </ns3:TrackPointExtension>
        </extensions>
      </trkpt>
      <trkpt lat="44.67805135063827037811279296875" lon="6.826029829680919647216796875">
        <ele>2404.800048828125</ele>
        <time>2026-08-31T06:49:59.000Z</time>
        <extensions>
          <ns3:TrackPointExtension>
            <ns3:hr>170</ns3:hr>
            <ns3:cad>0</ns3:cad>
          </ns3:TrackPointExtension>
        </extensions>
      </trkpt>
      <trkpt lat="44.6780599839985370635986328125" lon="6.82602488435804843902587890625">
        <ele>2405</ele>
        <time>2026-08-31T06:50:00.000Z</time>
        <extensions>
          <ns3:TrackPointExtension>
            <ns3:hr>169</ns3:hr>
            <ns3:cad>0</ns3:cad>
          </ns3:TrackPointExtension>
        </extensions>
      </trkpt>
      <trkpt lat="44.67806694097816944122314453125" lon="6.8260219506919384002685546875">
        <ele>2405.199951171875</ele>
        <time>2026-08-31T06:50:01.000Z</time>
        <extensions>
          <ns3:TrackPointExtension>
            <ns3:hr>169</ns3:hr>
            <ns3:cad>0</ns3:cad>
          </ns3:TrackPointExtension>
        </extensions>
      </trkpt>
      <trkpt lat="44.67807180248200893402099609375" lon="6.82602203451097011566162109375">
        <ele>2405.39990234375</ele>
        <time>2026-08-31T06:50:02.000Z</time>
        <extensions>
          <ns3:TrackPointExtension>
            <ns3:hr>169</ns3:hr>
            <ns3:cad>0</ns3:cad>
          </ns3:TrackPointExtension>
        </extensions>
      </trkpt>
      <trkpt lat="44.67807180248200893402099609375" lon="6.82602203451097011566162109375">
        <ele>2405.60009765625</ele>
        <time>2026-08-31T06:50:03.000Z</time>
        <extensions>
          <ns3:TrackPointExtension>
            <ns3:hr>169</ns3:hr>
            <ns3:cad>0</ns3:cad>
          </ns3:TrackPointExtension>
        </extensions>
      </trkpt>
      <trkpt lat="44.67807180248200893402099609375" lon="6.82602203451097011566162109375">
        <ele>2405.60009765625</ele>
        <time>2026-08-31T06:50:04.000Z</time>
        <extensions>
          <ns3:TrackPointExtension>
            <ns3:hr>168</ns3:hr>
            <ns3:cad>0</ns3:cad>
          </ns3:TrackPointExtension>
        </extensions>
      </trkpt>
      <trkpt lat="44.67807180248200893402099609375" lon="6.82602203451097011566162109375">
        <ele>2405.60009765625</ele>
        <time>2026-08-31T06:50:05.000Z</time>
        <extensions>
          <ns3:TrackPointExtension>
            <ns3:hr>166</ns3:hr>
            <ns3:cad>0</ns3:cad>
          </ns3:TrackPointExtension>
        </extensions>
      </trkpt>
      <trkpt lat="44.67807230539619922637939453125" lon="6.8260219506919384002685546875">
        <ele>2405.60009765625</ele>
        <time>2026-08-31T06:50:06.000Z</time>
        <extensions>
          <ns3:TrackPointExtension>
            <ns3:hr>165</ns3:hr>
            <ns3:cad>0</ns3:cad>
          </ns3:TrackPointExtension>
        </extensions>
      </trkpt>
      <trkpt lat="44.6780760772526264190673828125" lon="6.8260296620428562164306640625">
        <ele>2405.60009765625</ele>
        <time>2026-08-31T06:50:07.000Z</time>
        <extensions>
          <ns3:TrackPointExtension>
            <ns3:hr>164</ns3:hr>
            <ns3:cad>0</ns3:cad>
          </ns3:TrackPointExtension>
        </extensions>
      </trkpt>
      <trkpt lat="44.67808596789836883544921875" lon="6.82603963650763034820556640625">
        <ele>2405.60009765625</ele>
        <time>2026-08-31T06:50:08.000Z</time>
        <extensions>
          <ns3:TrackPointExtension>
            <ns3:hr>162</ns3:hr>
            <ns3:cad>0</ns3:cad>
          </ns3:TrackPointExtension>
        </extensions>
      </trkpt>
      <trkpt lat="44.67809560708701610565185546875" lon="6.82604558765888214111328125">
        <ele>2405.800048828125</ele>
        <time>2026-08-31T06:50:09.000Z</time>
        <extensions>
          <ns3:TrackPointExtension>
            <ns3:hr>162</ns3:hr>
            <ns3:cad>0</ns3:cad>
          </ns3:TrackPointExtension>
        </extensions>
      </trkpt>
      <trkpt lat="44.67810197733342647552490234375" lon="6.82605807669460773468017578125">
        <ele>2406</ele>
        <time>2026-08-31T06:50:10.000Z</time>
        <extensions>
          <ns3:TrackPointExtension>
            <ns3:hr>161</ns3:hr>
            <ns3:cad>0</ns3:cad>
          </ns3:TrackPointExtension>
        </extensions>
      </trkpt>
      <trkpt lat="44.67810415662825107574462890625" lon="6.8260655365884304046630859375">
        <ele>2406.199951171875</ele>
        <time>2026-08-31T06:50:11.000Z</time>
        <extensions>
          <ns3:TrackPointExtension>
            <ns3:hr>160</ns3:hr>
            <ns3:cad>0</ns3:cad>
          </ns3:TrackPointExtension>
        </extensions>
      </trkpt>
      <trkpt lat="44.67810365371406078338623046875" lon="6.82606293819844722747802734375">
        <ele>2406.39990234375</ele>
        <time>2026-08-31T06:50:12.000Z</time>
        <extensions>
          <ns3:TrackPointExtension>
            <ns3:hr>159</ns3:hr>
            <ns3:cad>0</ns3:cad>
          </ns3:TrackPointExtension>
        </extensions>
      </trkpt>
      <trkpt lat="44.67810482718050479888916015625" lon="6.82606461457908153533935546875">
        <ele>2406.60009765625</ele>
        <time>2026-08-31T06:50:13.000Z</time>
        <extensions>
          <ns3:TrackPointExtension>
            <ns3:hr>159</ns3:hr>
            <ns3:cad>0</ns3:cad>
          </ns3:TrackPointExtension>
        </extensions>
      </trkpt>
      <trkpt lat="44.67810499481856822967529296875" lon="6.8260645307600498199462890625">
        <ele>2406.800048828125</ele>
        <time>2026-08-31T06:50:14.000Z</time>
        <extensions>
          <ns3:TrackPointExtension>
            <ns3:hr>158</ns3:hr>
            <ns3:cad>0</ns3:cad>
          </ns3:TrackPointExtension>
        </extensions>
      </trkpt>
      <trkpt lat="44.6781052462756633758544921875" lon="6.82606444694101810455322265625">
        <ele>2406.800048828125</ele>
        <time>2026-08-31T06:50:15.000Z</time>
        <extensions>
          <ns3:TrackPointExtension>
            <ns3:hr>158</ns3:hr>
            <ns3:cad>0</ns3:cad>
          </ns3:TrackPointExtension>
        </extensions>
      </trkpt>
      <trkpt lat="44.67810851521790027618408203125" lon="6.82607173919677734375">
        <ele>2406.800048828125</ele>
        <time>2026-08-31T06:50:16.000Z</time>
        <extensions>
          <ns3:TrackPointExtension>
            <ns3:hr>157</ns3:hr>
            <ns3:cad>0</ns3:cad>
          </ns3:TrackPointExtension>
        </extensions>
      </trkpt>
      <trkpt lat="44.6781132929027080535888671875" lon="6.82607484050095081329345703125">
        <ele>2406.800048828125</ele>
        <time>2026-08-31T06:50:17.000Z</time>
        <extensions>
          <ns3:TrackPointExtension>
            <ns3:hr>157</ns3:hr>
            <ns3:cad>0</ns3:cad>
          </ns3:TrackPointExtension>
        </extensions>
      </trkpt>
      <trkpt lat="44.6781226806342601776123046875" lon="6.82608104310929775238037109375">
        <ele>2406.800048828125</ele>
        <time>2026-08-31T06:50:18.000Z</time>
        <extensions>
          <ns3:TrackPointExtension>
            <ns3:hr>156</ns3:hr>
            <ns3:cad>0</ns3:cad>
          </ns3:TrackPointExtension>
        </extensions>
      </trkpt>
      <trkpt lat="44.6781335771083831787109375" lon="6.826086156070232391357421875">
        <ele>2406.800048828125</ele>
        <time>2026-08-31T06:50:19.000Z</time>
        <extensions>
          <ns3:TrackPointExtension>
            <ns3:hr>156</ns3:hr>
            <ns3:cad>0</ns3:cad>
          </ns3:TrackPointExtension>
        </extensions>
      </trkpt>
      <trkpt lat="44.67813835479319095611572265625" lon="6.82609294541180133819580078125">
        <ele>2406.800048828125</ele>
        <time>2026-08-31T06:50:20.000Z</time>
        <extensions>
          <ns3:TrackPointExtension>
            <ns3:hr>156</ns3:hr>
            <ns3:cad>0</ns3:cad>
          </ns3:TrackPointExtension>
        </extensions>
      </trkpt>
      <trkpt lat="44.67813852243125438690185546875" lon="6.826093196868896484375">
        <ele>2407</ele>
        <time>2026-08-31T06:50:21.000Z</time>
        <extensions>
          <ns3:TrackPointExtension>
            <ns3:hr>156</ns3:hr>
            <ns3:cad>0</ns3:cad>
          </ns3:TrackPointExtension>
        </extensions>
      </trkpt>
      <trkpt lat="44.6781427972018718719482421875" lon="6.8260950408875942230224609375">
        <ele>2407.199951171875</ele>
        <time>2026-08-31T06:50:22.000Z</time>
        <extensions>
          <ns3:TrackPointExtension>
            <ns3:hr>155</ns3:hr>
            <ns3:cad>0</ns3:cad>
          </ns3:TrackPointExtension>
        </extensions>
      </trkpt>
      <trkpt lat="44.6781427972018718719482421875" lon="6.8260950408875942230224609375">
        <ele>2407.39990234375</ele>
        <time>2026-08-31T06:50:23.000Z</time>
        <extensions>
          <ns3:TrackPointExtension>
            <ns3:hr>155</ns3:hr>
            <ns3:cad>0</ns3:cad>
          </ns3:TrackPointExtension>
        </extensions>
      </trkpt>
      <trkpt lat="44.67814288102090358734130859375" lon="6.82609529234468936920166015625">
        <ele>2407.39990234375</ele>
        <time>2026-08-31T06:50:24.000Z</time>
        <extensions>
          <ns3:TrackPointExtension>
            <ns3:hr>154</ns3:hr>
            <ns3:cad>0</ns3:cad>
          </ns3:TrackPointExtension>
        </extensions>
      </trkpt>
      <trkpt lat="44.67815478332340717315673828125" lon="6.82610317133367061614990234375">
        <ele>2407.60009765625</ele>
        <time>2026-08-31T06:50:25.000Z</time>
        <extensions>
          <ns3:TrackPointExtension>
            <ns3:hr>154</ns3:hr>
            <ns3:cad>0</ns3:cad>
          </ns3:TrackPointExtension>
        </extensions>
      </trkpt>
      <trkpt lat="44.678163416683673858642578125" lon="6.82610669173300266265869140625">
        <ele>2407.800048828125</ele>
        <time>2026-08-31T06:50:26.000Z</time>
        <extensions>
          <ns3:TrackPointExtension>
            <ns3:hr>153</ns3:hr>
            <ns3:cad>0</ns3:cad>
          </ns3:TrackPointExtension>
        </extensions>
      </trkpt>
      <trkpt lat="44.67816819436848163604736328125" lon="6.82611222378909587860107421875">
        <ele>2408</ele>
        <time>2026-08-31T06:50:27.000Z</time>
        <extensions>
          <ns3:TrackPointExtension>
            <ns3:hr>153</ns3:hr>
            <ns3:cad>0</ns3:cad>
          </ns3:TrackPointExtension>
        </extensions>
      </trkpt>
      <trkpt lat="44.67817707918584346771240234375" lon="6.8261178396642208099365234375">
        <ele>2408.199951171875</ele>
        <time>2026-08-31T06:50:28.000Z</time>
        <extensions>
          <ns3:TrackPointExtension>
            <ns3:hr>153</ns3:hr>
            <ns3:cad>0</ns3:cad>
          </ns3:TrackPointExtension>
        </extensions>
      </trkpt>
      <trkpt lat="44.6781756542623043060302734375" lon="6.82611943222582340240478515625">
        <ele>2408.39990234375</ele>
        <time>2026-08-31T06:50:29.000Z</time>
        <extensions>
          <ns3:TrackPointExtension>
            <ns3:hr>153</ns3:hr>
            <ns3:cad>0</ns3:cad>
          </ns3:TrackPointExtension>
        </extensions>
      </trkpt>
      <trkpt lat="44.67817590571939945220947265625" lon="6.82611943222582340240478515625">
        <ele>2408.60009765625</ele>
        <time>2026-08-31T06:50:30.000Z</time>
        <extensions>
          <ns3:TrackPointExtension>
            <ns3:hr>153</ns3:hr>
            <ns3:cad>0</ns3:cad>
          </ns3:TrackPointExtension>
        </extensions>
      </trkpt>
      <trkpt lat="44.67818445526063442230224609375" lon="6.826121024787425994873046875">
        <ele>2408.800048828125</ele>
        <time>2026-08-31T06:50:31.000Z</time>
        <extensions>
          <ns3:TrackPointExtension>
            <ns3:hr>153</ns3:hr>
            <ns3:cad>0</ns3:cad>
          </ns3:TrackPointExtension>
        </extensions>
      </trkpt>
      <trkpt lat="44.67820071615278720855712890625" lon="6.82612446136772632598876953125">
        <ele>2409</ele>
        <time>2026-08-31T06:50:32.000Z</time>
        <extensions>
          <ns3:TrackPointExtension>
            <ns3:hr>153</ns3:hr>
            <ns3:cad>0</ns3:cad>
          </ns3:TrackPointExtension>
        </extensions>
      </trkpt>
      <trkpt lat="44.678209684789180755615234375" lon="6.82613016106188297271728515625">
        <ele>2409.199951171875</ele>
        <time>2026-08-31T06:50:33.000Z</time>
        <extensions>
          <ns3:TrackPointExtension>
            <ns3:hr>154</ns3:hr>
            <ns3:cad>0</ns3:cad>
          </ns3:TrackPointExtension>
        </extensions>
      </trkpt>
      <trkpt lat="44.6782215870916843414306640625" lon="6.82613669894635677337646484375">
        <ele>2409.39990234375</ele>
        <time>2026-08-31T06:50:34.000Z</time>
        <extensions>
          <ns3:TrackPointExtension>
            <ns3:hr>154</ns3:hr>
            <ns3:cad>0</ns3:cad>
          </ns3:TrackPointExtension>
        </extensions>
      </trkpt>
      <trkpt lat="44.67823005281388759613037109375" lon="6.82614223100244998931884765625">
        <ele>2409.60009765625</ele>
        <time>2026-08-31T06:50:35.000Z</time>
        <extensions>
          <ns3:TrackPointExtension>
            <ns3:hr>155</ns3:hr>
            <ns3:cad>0</ns3:cad>
          </ns3:TrackPointExtension>
        </extensions>
      </trkpt>
      <trkpt lat="44.67823256738483905792236328125" lon="6.82614927180111408233642578125">
        <ele>2409.800048828125</ele>
        <time>2026-08-31T06:50:36.000Z</time>
        <extensions>
          <ns3:TrackPointExtension>
            <ns3:hr>156</ns3:hr>
            <ns3:cad>0</ns3:cad>
          </ns3:TrackPointExtension>
        </extensions>
      </trkpt>
      <trkpt lat="44.678240530192852020263671875" lon="6.82615765370428562164306640625">
        <ele>2410</ele>
        <time>2026-08-31T06:50:37.000Z</time>
        <extensions>
          <ns3:TrackPointExtension>
            <ns3:hr>156</ns3:hr>
            <ns3:cad>0</ns3:cad>
          </ns3:TrackPointExtension>
        </extensions>
      </trkpt>
      <trkpt lat="44.67824128456413745880126953125" lon="6.82615949772298336029052734375">
        <ele>2410.39990234375</ele>
        <time>2026-08-31T06:50:38.000Z</time>
        <extensions>
          <ns3:TrackPointExtension>
            <ns3:hr>157</ns3:hr>
            <ns3:cad>40</ns3:cad>
          </ns3:TrackPointExtension>
        </extensions>
      </trkpt>
      <trkpt lat="44.67824631370604038238525390625" lon="6.8261734955012798309326171875">
        <ele>2410.60009765625</ele>
        <time>2026-08-31T06:50:39.000Z</time>
        <extensions>
          <ns3:TrackPointExtension>
            <ns3:hr>158</ns3:hr>
            <ns3:cad>40</ns3:cad>
          </ns3:TrackPointExtension>
        </extensions>
      </trkpt>
      <trkpt lat="44.67824648134410381317138671875" lon="6.8261791951954364776611328125">
        <ele>2410.800048828125</ele>
        <time>2026-08-31T06:50:40.000Z</time>
        <extensions>
          <ns3:TrackPointExtension>
            <ns3:hr>159</ns3:hr>
            <ns3:cad>40</ns3:cad>
          </ns3:TrackPointExtension>
        </extensions>
      </trkpt>
      <trkpt lat="44.67825016938149929046630859375" lon="6.8261926062405109405517578125">
        <ele>2411</ele>
        <time>2026-08-31T06:50:41.000Z</time>
        <extensions>
          <ns3:TrackPointExtension>
            <ns3:hr>159</ns3:hr>
            <ns3:cad>40</ns3:cad>
          </ns3:TrackPointExtension>
        </extensions>
      </trkpt>
      <trkpt lat="44.6782542765140533447265625" lon="6.826202832162380218505859375">
        <ele>2411.199951171875</ele>
        <time>2026-08-31T06:50:42.000Z</time>
        <extensions>
          <ns3:TrackPointExtension>
            <ns3:hr>160</ns3:hr>
            <ns3:cad>0</ns3:cad>
          </ns3:TrackPointExtension>
        </extensions>
      </trkpt>
      <trkpt lat="44.67825754545629024505615234375" lon="6.82621163316071033477783203125">
        <ele>2411.39990234375</ele>
        <time>2026-08-31T06:50:43.000Z</time>
        <extensions>
          <ns3:TrackPointExtension>
            <ns3:hr>160</ns3:hr>
            <ns3:cad>0</ns3:cad>
          </ns3:TrackPointExtension>
        </extensions>
      </trkpt>
      <trkpt lat="44.678261317312717437744140625" lon="6.82622001506388187408447265625">
        <ele>2411.60009765625</ele>
        <time>2026-08-31T06:50:44.000Z</time>
        <extensions>
          <ns3:TrackPointExtension>
            <ns3:hr>160</ns3:hr>
            <ns3:cad>0</ns3:cad>
          </ns3:TrackPointExtension>
        </extensions>
      </trkpt>
      <trkpt lat="44.678264670073986053466796875" lon="6.82622521184384822845458984375">
        <ele>2411.800048828125</ele>
        <time>2026-08-31T06:50:45.000Z</time>
        <extensions>
          <ns3:TrackPointExtension>
            <ns3:hr>161</ns3:hr>
            <ns3:cad>0</ns3:cad>
          </ns3:TrackPointExtension>
        </extensions>
      </trkpt>
      <trkpt lat="44.678268693387508392333984375" lon="6.82623510248959064483642578125">
        <ele>2412</ele>
        <time>2026-08-31T06:50:46.000Z</time>
        <extensions>
          <ns3:TrackPointExtension>
            <ns3:hr>161</ns3:hr>
            <ns3:cad>0</ns3:cad>
          </ns3:TrackPointExtension>
        </extensions>
      </trkpt>
      <trkpt lat="44.67827229760587215423583984375" lon="6.82624398730695247650146484375">
        <ele>2412.199951171875</ele>
        <time>2026-08-31T06:50:47.000Z</time>
        <extensions>
          <ns3:TrackPointExtension>
            <ns3:hr>162</ns3:hr>
            <ns3:cad>0</ns3:cad>
          </ns3:TrackPointExtension>
        </extensions>
      </trkpt>
      <trkpt lat="44.67827917076647281646728515625" lon="6.82625588960945606231689453125">
        <ele>2412.39990234375</ele>
        <time>2026-08-31T06:50:48.000Z</time>
        <extensions>
          <ns3:TrackPointExtension>
            <ns3:hr>162</ns3:hr>
            <ns3:cad>0</ns3:cad>
          </ns3:TrackPointExtension>
        </extensions>
      </trkpt>
      <trkpt lat="44.67828755266964435577392578125" lon="6.826264522969722747802734375">
        <ele>2412.60009765625</ele>
        <time>2026-08-31T06:50:49.000Z</time>
        <extensions>
          <ns3:TrackPointExtension>
            <ns3:hr>163</ns3:hr>
            <ns3:cad>0</ns3:cad>
          </ns3:TrackPointExtension>
        </extensions>
      </trkpt>
      <trkpt lat="44.6782883070409297943115234375" lon="6.8262667022645473480224609375">
        <ele>2412.800048828125</ele>
        <time>2026-08-31T06:50:50.000Z</time>
        <extensions>
          <ns3:TrackPointExtension>
            <ns3:hr>163</ns3:hr>
            <ns3:cad>0</ns3:cad>
          </ns3:TrackPointExtension>
        </extensions>
      </trkpt>
      <trkpt lat="44.6782953478395938873291015625" lon="6.826278269290924072265625">
        <ele>2413</ele>
        <time>2026-08-31T06:50:51.000Z</time>
        <extensions>
          <ns3:TrackPointExtension>
            <ns3:hr>163</ns3:hr>
            <ns3:cad>0</ns3:cad>
          </ns3:TrackPointExtension>
        </extensions>
      </trkpt>
      <trkpt lat="44.6782990358769893646240234375" lon="6.82628388516604900360107421875">
        <ele>2413.199951171875</ele>
        <time>2026-08-31T06:50:52.000Z</time>
        <extensions>
          <ns3:TrackPointExtension>
            <ns3:hr>164</ns3:hr>
            <ns3:cad>0</ns3:cad>
          </ns3:TrackPointExtension>
        </extensions>
      </trkpt>
      <trkpt lat="44.67830582521855831146240234375" lon="6.826292015612125396728515625">
        <ele>2413.39990234375</ele>
        <time>2026-08-31T06:50:53.000Z</time>
        <extensions>
          <ns3:TrackPointExtension>
            <ns3:hr>164</ns3:hr>
            <ns3:cad>0</ns3:cad>
          </ns3:TrackPointExtension>
        </extensions>
      </trkpt>
      <trkpt lat="44.67831286601722240447998046875" lon="6.82629243470728397369384765625">
        <ele>2413.39990234375</ele>
        <time>2026-08-31T06:50:54.000Z</time>
        <extensions>
          <ns3:TrackPointExtension>
            <ns3:hr>164</ns3:hr>
            <ns3:cad>0</ns3:cad>
          </ns3:TrackPointExtension>
        </extensions>
      </trkpt>
      <trkpt lat="44.67832208611071109771728515625" lon="6.82629276998341083526611328125">
        <ele>2413.60009765625</ele>
        <time>2026-08-31T06:50:55.000Z</time>
        <extensions>
          <ns3:TrackPointExtension>
            <ns3:hr>165</ns3:hr>
            <ns3:cad>0</ns3:cad>
          </ns3:TrackPointExtension>
        </extensions>
      </trkpt>
      <trkpt lat="44.67832979746162891387939453125" lon="6.82628438808023929595947265625">
        <ele>2413.800048828125</ele>
        <time>2026-08-31T06:50:56.000Z</time>
        <extensions>
          <ns3:TrackPointExtension>
            <ns3:hr>165</ns3:hr>
            <ns3:cad>0</ns3:cad>
          </ns3:TrackPointExtension>
        </extensions>
      </trkpt>
      <trkpt lat="44.67833281494677066802978515625" lon="6.8262821249663829803466796875">
        <ele>2414</ele>
        <time>2026-08-31T06:50:57.000Z</time>
        <extensions>
          <ns3:TrackPointExtension>
            <ns3:hr>165</ns3:hr>
            <ns3:cad>0</ns3:cad>
          </ns3:TrackPointExtension>
        </extensions>
      </trkpt>
      <trkpt lat="44.67834253795444965362548828125" lon="6.82627759873867034912109375">
        <ele>2414.199951171875</ele>
        <time>2026-08-31T06:50:58.000Z</time>
        <extensions>
          <ns3:TrackPointExtension>
            <ns3:hr>166</ns3:hr>
            <ns3:cad>0</ns3:cad>
          </ns3:TrackPointExtension>
        </extensions>
      </trkpt>
      <trkpt lat="44.67834748327732086181640625" lon="6.8262724019587039947509765625">
        <ele>2414.39990234375</ele>
        <time>2026-08-31T06:50:59.000Z</time>
        <extensions>
          <ns3:TrackPointExtension>
            <ns3:hr>166</ns3:hr>
            <ns3:cad>0</ns3:cad>
          </ns3:TrackPointExtension>
        </extensions>
      </trkpt>
      <trkpt lat="44.6783597208559513092041015625" lon="6.82627030648291110992431640625">
        <ele>2414.60009765625</ele>
        <time>2026-08-31T06:51:00.000Z</time>
        <extensions>
          <ns3:TrackPointExtension>
            <ns3:hr>166</ns3:hr>
            <ns3:cad>0</ns3:cad>
          </ns3:TrackPointExtension>
        </extensions>
      </trkpt>
      <trkpt lat="44.67836818657815456390380859375" lon="6.8262690491974353790283203125">
        <ele>2414.800048828125</ele>
        <time>2026-08-31T06:51:01.000Z</time>
        <extensions>
          <ns3:TrackPointExtension>
            <ns3:hr>166</ns3:hr>
            <ns3:cad>0</ns3:cad>
          </ns3:TrackPointExtension>
        </extensions>
      </trkpt>
      <trkpt lat="44.67837807722389698028564453125" lon="6.82627298869192600250244140625">
        <ele>2415.199951171875</ele>
        <time>2026-08-31T06:51:02.000Z</time>
        <extensions>
          <ns3:TrackPointExtension>
            <ns3:hr>165</ns3:hr>
            <ns3:cad>0</ns3:cad>
          </ns3:TrackPointExtension>
        </extensions>
      </trkpt>
      <trkpt lat="44.6783905662596225738525390625" lon="6.82628153823316097259521484375">
        <ele>2415.39990234375</ele>
        <time>2026-08-31T06:51:03.000Z</time>
        <extensions>
          <ns3:TrackPointExtension>
            <ns3:hr>165</ns3:hr>
            <ns3:cad>0</ns3:cad>
          </ns3:TrackPointExtension>
        </extensions>
      </trkpt>
      <trkpt lat="44.67839584685862064361572265625" lon="6.82628489099442958831787109375">
        <ele>2415.60009765625</ele>
        <time>2026-08-31T06:51:04.000Z</time>
        <extensions>
          <ns3:TrackPointExtension>
            <ns3:hr>165</ns3:hr>
            <ns3:cad>0</ns3:cad>
          </ns3:TrackPointExtension>
        </extensions>
      </trkpt>
      <trkpt lat="44.67840456403791904449462890625" lon="6.82629411108791828155517578125">
        <ele>2415.800048828125</ele>
        <time>2026-08-31T06:51:05.000Z</time>
        <extensions>
          <ns3:TrackPointExtension>
            <ns3:hr>164</ns3:hr>
            <ns3:cad>0</ns3:cad>
          </ns3:TrackPointExtension>
        </extensions>
      </trkpt>
      <trkpt lat="44.67841143719851970672607421875" lon="6.82630165480077266693115234375">
        <ele>2416</ele>
        <time>2026-08-31T06:51:06.000Z</time>
        <extensions>
          <ns3:TrackPointExtension>
            <ns3:hr>164</ns3:hr>
            <ns3:cad>0</ns3:cad>
          </ns3:TrackPointExtension>
        </extensions>
      </trkpt>
      <trkpt lat="44.678420238196849822998046875" lon="6.826313473284244537353515625">
        <ele>2416.199951171875</ele>
        <time>2026-08-31T06:51:07.000Z</time>
        <extensions>
          <ns3:TrackPointExtension>
            <ns3:hr>165</ns3:hr>
            <ns3:cad>0</ns3:cad>
          </ns3:TrackPointExtension>
        </extensions>
      </trkpt>
      <trkpt lat="44.67842929065227508544921875" lon="6.8263226933777332305908203125">
        <ele>2416.39990234375</ele>
        <time>2026-08-31T06:51:08.000Z</time>
        <extensions>
          <ns3:TrackPointExtension>
            <ns3:hr>166</ns3:hr>
            <ns3:cad>0</ns3:cad>
          </ns3:TrackPointExtension>
        </extensions>
      </trkpt>
      <trkpt lat="44.6784338168799877166748046875" lon="6.82632612995803356170654296875">
        <ele>2416.60009765625</ele>
        <time>2026-08-31T06:51:09.000Z</time>
        <extensions>
          <ns3:TrackPointExtension>
            <ns3:hr>167</ns3:hr>
            <ns3:cad>0</ns3:cad>
          </ns3:TrackPointExtension>
        </extensions>
      </trkpt>
      <trkpt lat="44.67843976803123950958251953125" lon="6.82633928954601287841796875">
        <ele>2416.800048828125</ele>
        <time>2026-08-31T06:51:10.000Z</time>
        <extensions>
          <ns3:TrackPointExtension>
            <ns3:hr>168</ns3:hr>
            <ns3:cad>0</ns3:cad>
          </ns3:TrackPointExtension>
        </extensions>
      </trkpt>
      <trkpt lat="44.67844379134476184844970703125" lon="6.82634733617305755615234375">
        <ele>2416.800048828125</ele>
        <time>2026-08-31T06:51:11.000Z</time>
        <extensions>
          <ns3:TrackPointExtension>
            <ns3:hr>168</ns3:hr>
            <ns3:cad>0</ns3:cad>
          </ns3:TrackPointExtension>
        </extensions>
      </trkpt>
      <trkpt lat="44.678449742496013641357421875" lon="6.8263589031994342803955078125">
        <ele>2417</ele>
        <time>2026-08-31T06:51:12.000Z</time>
        <extensions>
          <ns3:TrackPointExtension>
            <ns3:hr>169</ns3:hr>
            <ns3:cad>0</ns3:cad>
          </ns3:TrackPointExtension>
        </extensions>
      </trkpt>
      <trkpt lat="44.6784554421901702880859375" lon="6.82636703364551067352294921875">
        <ele>2417.199951171875</ele>
        <time>2026-08-31T06:51:13.000Z</time>
        <extensions>
          <ns3:TrackPointExtension>
            <ns3:hr>169</ns3:hr>
            <ns3:cad>0</ns3:cad>
          </ns3:TrackPointExtension>
        </extensions>
      </trkpt>
      <trkpt lat="44.67846860177814960479736328125" lon="6.82637373916804790496826171875">
        <ele>2417.39990234375</ele>
        <time>2026-08-31T06:51:14.000Z</time>
        <extensions>
          <ns3:TrackPointExtension>
            <ns3:hr>170</ns3:hr>
            <ns3:cad>0</ns3:cad>
          </ns3:TrackPointExtension>
        </extensions>
      </trkpt>
      <trkpt lat="44.678478240966796875" lon="6.82638145051896572113037109375">
        <ele>2417.60009765625</ele>
        <time>2026-08-31T06:51:15.000Z</time>
        <extensions>
          <ns3:TrackPointExtension>
            <ns3:hr>170</ns3:hr>
            <ns3:cad>0</ns3:cad>
          </ns3:TrackPointExtension>
        </extensions>
      </trkpt>
      <trkpt lat="44.67848134227097034454345703125" lon="6.8263850547373294830322265625">
        <ele>2417.800048828125</ele>
        <time>2026-08-31T06:51:16.000Z</time>
        <extensions>
          <ns3:TrackPointExtension>
            <ns3:hr>170</ns3:hr>
            <ns3:cad>0</ns3:cad>
          </ns3:TrackPointExtension>
        </extensions>
      </trkpt>
      <trkpt lat="44.6784889698028564453125" lon="6.82639318518340587615966796875">
        <ele>2418</ele>
        <time>2026-08-31T06:51:17.000Z</time>
        <extensions>
          <ns3:TrackPointExtension>
            <ns3:hr>170</ns3:hr>
            <ns3:cad>0</ns3:cad>
          </ns3:TrackPointExtension>
        </extensions>
      </trkpt>
      <trkpt lat="44.678492657840251922607421875" lon="6.82639888487756252288818359375">
        <ele>2418.199951171875</ele>
        <time>2026-08-31T06:51:18.000Z</time>
        <extensions>
          <ns3:TrackPointExtension>
            <ns3:hr>170</ns3:hr>
            <ns3:cad>0</ns3:cad>
          </ns3:TrackPointExtension>
        </extensions>
      </trkpt>
      <trkpt lat="44.67849425040185451507568359375" lon="6.8264056742191314697265625">
        <ele>2418.39990234375</ele>
        <time>2026-08-31T06:51:19.000Z</time>
        <extensions>
          <ns3:TrackPointExtension>
            <ns3:hr>171</ns3:hr>
            <ns3:cad>0</ns3:cad>
          </ns3:TrackPointExtension>
        </extensions>
      </trkpt>
      <trkpt lat="44.67850196175277233123779296875" lon="6.8264125473797321319580078125">
        <ele>2418.60009765625</ele>
        <time>2026-08-31T06:51:20.000Z</time>
        <extensions>
          <ns3:TrackPointExtension>
            <ns3:hr>171</ns3:hr>
            <ns3:cad>0</ns3:cad>
          </ns3:TrackPointExtension>
        </extensions>
      </trkpt>
      <trkpt lat="44.6785069070756435394287109375" lon="6.826419420540332794189453125">
        <ele>2418.800048828125</ele>
        <time>2026-08-31T06:51:21.000Z</time>
        <extensions>
          <ns3:TrackPointExtension>
            <ns3:hr>172</ns3:hr>
            <ns3:cad>0</ns3:cad>
          </ns3:TrackPointExtension>
        </extensions>
      </trkpt>
      <trkpt lat="44.6785173006355762481689453125" lon="6.82642721571028232574462890625">
        <ele>2418.800048828125</ele>
        <time>2026-08-31T06:51:22.000Z</time>
        <extensions>
          <ns3:TrackPointExtension>
            <ns3:hr>172</ns3:hr>
            <ns3:cad>0</ns3:cad>
          </ns3:TrackPointExtension>
        </extensions>
      </trkpt>
      <trkpt lat="44.67852559871971607208251953125" lon="6.82643559761345386505126953125">
        <ele>2419.199951171875</ele>
        <time>2026-08-31T06:51:23.000Z</time>
        <extensions>
          <ns3:TrackPointExtension>
            <ns3:hr>171</ns3:hr>
            <ns3:cad>0</ns3:cad>
          </ns3:TrackPointExtension>
        </extensions>
      </trkpt>
      <trkpt lat="44.67853046022355556488037109375" lon="6.82644012384116649627685546875">
        <ele>2419.39990234375</ele>
        <time>2026-08-31T06:51:24.000Z</time>
        <extensions>
          <ns3:TrackPointExtension>
            <ns3:hr>171</ns3:hr>
            <ns3:cad>0</ns3:cad>
          </ns3:TrackPointExtension>
        </extensions>
      </trkpt>
      <trkpt lat="44.6785305440425872802734375" lon="6.82644012384116649627685546875">
        <ele>2419.60009765625</ele>
        <time>2026-08-31T06:51:25.000Z</time>
        <extensions>
          <ns3:TrackPointExtension>
            <ns3:hr>171</ns3:hr>
            <ns3:cad>0</ns3:cad>
          </ns3:TrackPointExtension>
        </extensions>
      </trkpt>
      <trkpt lat="44.6785357408225536346435546875" lon="6.82644389569759368896484375">
        <ele>2419.800048828125</ele>
        <time>2026-08-31T06:51:26.000Z</time>
        <extensions>
          <ns3:TrackPointExtension>
            <ns3:hr>171</ns3:hr>
            <ns3:cad>0</ns3:cad>
          </ns3:TrackPointExtension>
        </extensions>
      </trkpt>
      <trkpt lat="44.6785414405167102813720703125" lon="6.82645018212497234344482421875">
        <ele>2420</ele>
        <time>2026-08-31T06:51:27.000Z</time>
        <extensions>
          <ns3:TrackPointExtension>
            <ns3:hr>171</ns3:hr>
            <ns3:cad>0</ns3:cad>
          </ns3:TrackPointExtension>
        </extensions>
      </trkpt>
      <trkpt lat="44.67854999005794525146484375" lon="6.8264566361904144287109375">
        <ele>2420</ele>
        <time>2026-08-31T06:51:28.000Z</time>
        <extensions>
          <ns3:TrackPointExtension>
            <ns3:hr>170</ns3:hr>
            <ns3:cad>0</ns3:cad>
          </ns3:TrackPointExtension>
        </extensions>
      </trkpt>
      <trkpt lat="44.6785612218081951141357421875" lon="6.8264631740748882293701171875">
        <ele>2420.199951171875</ele>
        <time>2026-08-31T06:51:29.000Z</time>
        <extensions>
          <ns3:TrackPointExtension>
            <ns3:hr>170</ns3:hr>
            <ns3:cad>0</ns3:cad>
          </ns3:TrackPointExtension>
        </extensions>
      </trkpt>
      <trkpt lat="44.67856968753039836883544921875" lon="6.8264682032167911529541015625">
        <ele>2420.199951171875</ele>
        <time>2026-08-31T06:51:30.000Z</time>
        <extensions>
          <ns3:TrackPointExtension>
            <ns3:hr>169</ns3:hr>
            <ns3:cad>0</ns3:cad>
          </ns3:TrackPointExtension>
        </extensions>
      </trkpt>
      <trkpt lat="44.6785726211965084075927734375" lon="6.8264735676348209381103515625">
        <ele>2420.39990234375</ele>
        <time>2026-08-31T06:51:31.000Z</time>
        <extensions>
          <ns3:TrackPointExtension>
            <ns3:hr>169</ns3:hr>
            <ns3:cad>0</ns3:cad>
          </ns3:TrackPointExtension>
        </extensions>
      </trkpt>
      <trkpt lat="44.67858427204191684722900390625" lon="6.82647918350994586944580078125">
        <ele>2420.60009765625</ele>
        <time>2026-08-31T06:51:32.000Z</time>
        <extensions>
          <ns3:TrackPointExtension>
            <ns3:hr>169</ns3:hr>
            <ns3:cad>0</ns3:cad>
          </ns3:TrackPointExtension>
        </extensions>
      </trkpt>
      <trkpt lat="44.67858896590769290924072265625" lon="6.8264749087393283843994140625">
        <ele>2421</ele>
        <time>2026-08-31T06:51:33.000Z</time>
        <extensions>
          <ns3:TrackPointExtension>
            <ns3:hr>168</ns3:hr>
            <ns3:cad>0</ns3:cad>
          </ns3:TrackPointExtension>
        </extensions>
      </trkpt>
      <trkpt lat="44.678596593439579010009765625" lon="6.826475076377391815185546875">
        <ele>2421.199951171875</ele>
        <time>2026-08-31T06:51:34.000Z</time>
        <extensions>
          <ns3:TrackPointExtension>
            <ns3:hr>168</ns3:hr>
            <ns3:cad>0</ns3:cad>
          </ns3:TrackPointExtension>
        </extensions>
      </trkpt>
      <trkpt lat="44.67860363423824310302734375" lon="6.82647348381578922271728515625">
        <ele>2421.39990234375</ele>
        <time>2026-08-31T06:51:35.000Z</time>
        <extensions>
          <ns3:TrackPointExtension>
            <ns3:hr>168</ns3:hr>
            <ns3:cad>0</ns3:cad>
          </ns3:TrackPointExtension>
        </extensions>
      </trkpt>
      <trkpt lat="44.67861176468431949615478515625" lon="6.82646962814033031463623046875">
        <ele>2421.800048828125</ele>
        <time>2026-08-31T06:51:36.000Z</time>
        <extensions>
          <ns3:TrackPointExtension>
            <ns3:hr>168</ns3:hr>
            <ns3:cad>0</ns3:cad>
          </ns3:TrackPointExtension>
        </extensions>
      </trkpt>
      <trkpt lat="44.67861830256879329681396484375" lon="6.8264655210077762603759765625">
        <ele>2422</ele>
        <time>2026-08-31T06:51:37.000Z</time>
        <extensions>
          <ns3:TrackPointExtension>
            <ns3:hr>168</ns3:hr>
            <ns3:cad>0</ns3:cad>
          </ns3:TrackPointExtension>
        </extensions>
      </trkpt>
      <trkpt lat="44.6786225773394107818603515625" lon="6.82645956985652446746826171875">
        <ele>2422.199951171875</ele>
        <time>2026-08-31T06:51:38.000Z</time>
        <extensions>
          <ns3:TrackPointExtension>
            <ns3:hr>167</ns3:hr>
            <ns3:cad>0</ns3:cad>
          </ns3:TrackPointExtension>
        </extensions>
      </trkpt>
      <trkpt lat="44.67863037250936031341552734375" lon="6.8264497630298137664794921875">
        <ele>2422.39990234375</ele>
        <time>2026-08-31T06:51:39.000Z</time>
        <extensions>
          <ns3:TrackPointExtension>
            <ns3:hr>167</ns3:hr>
            <ns3:cad>0</ns3:cad>
          </ns3:TrackPointExtension>
        </extensions>
      </trkpt>
      <trkpt lat="44.678631126880645751953125" lon="6.82644196785986423492431640625">
        <ele>2422.60009765625</ele>
        <time>2026-08-31T06:51:40.000Z</time>
        <extensions>
          <ns3:TrackPointExtension>
            <ns3:hr>167</ns3:hr>
            <ns3:cad>0</ns3:cad>
          </ns3:TrackPointExtension>
        </extensions>
      </trkpt>
      <trkpt lat="44.6786366589367389678955078125" lon="6.8264323286712169647216796875">
        <ele>2422.800048828125</ele>
        <time>2026-08-31T06:51:41.000Z</time>
        <extensions>
          <ns3:TrackPointExtension>
            <ns3:hr>167</ns3:hr>
            <ns3:cad>0</ns3:cad>
          </ns3:TrackPointExtension>
        </extensions>
      </trkpt>
      <trkpt lat="44.67863992787897586822509765625" lon="6.82642034254968166351318359375">
        <ele>2423</ele>
        <time>2026-08-31T06:51:42.000Z</time>
        <extensions>
          <ns3:TrackPointExtension>
            <ns3:hr>167</ns3:hr>
            <ns3:cad>0</ns3:cad>
          </ns3:TrackPointExtension>
        </extensions>
      </trkpt>
      <trkpt lat="44.67864646576344966888427734375" lon="6.82640156708657741546630859375">
        <ele>2423.199951171875</ele>
        <time>2026-08-31T06:51:43.000Z</time>
        <extensions>
          <ns3:TrackPointExtension>
            <ns3:hr>167</ns3:hr>
            <ns3:cad>0</ns3:cad>
          </ns3:TrackPointExtension>
        </extensions>
      </trkpt>
      <trkpt lat="44.67865032143890857696533203125" lon="6.82638614438474178314208984375">
        <ele>2423.60009765625</ele>
        <time>2026-08-31T06:51:44.000Z</time>
        <extensions>
          <ns3:TrackPointExtension>
            <ns3:hr>167</ns3:hr>
            <ns3:cad>0</ns3:cad>
          </ns3:TrackPointExtension>
        </extensions>
      </trkpt>
      <trkpt lat="44.67865317128598690032958984375" lon="6.82636678218841552734375">
        <ele>2423.800048828125</ele>
        <time>2026-08-31T06:51:45.000Z</time>
        <extensions>
          <ns3:TrackPointExtension>
            <ns3:hr>167</ns3:hr>
            <ns3:cad>0</ns3:cad>
          </ns3:TrackPointExtension>
        </extensions>
      </trkpt>
      <trkpt lat="44.67865400947630405426025390625" lon="6.8263542093336582183837890625">
        <ele>2424</ele>
        <time>2026-08-31T06:51:46.000Z</time>
        <extensions>
          <ns3:TrackPointExtension>
            <ns3:hr>166</ns3:hr>
            <ns3:cad>0</ns3:cad>
          </ns3:TrackPointExtension>
        </extensions>
      </trkpt>
      <trkpt lat="44.67865568585693836212158203125" lon="6.8263488449156284332275390625">
        <ele>2424.199951171875</ele>
        <time>2026-08-31T06:51:47.000Z</time>
        <extensions>
          <ns3:TrackPointExtension>
            <ns3:hr>167</ns3:hr>
            <ns3:cad>0</ns3:cad>
          </ns3:TrackPointExtension>
        </extensions>
      </trkpt>
      <trkpt lat="44.67866021208465099334716796875" lon="6.82633250020444393157958984375">
        <ele>2424.199951171875</ele>
        <time>2026-08-31T06:51:48.000Z</time>
        <extensions>
          <ns3:TrackPointExtension>
            <ns3:hr>167</ns3:hr>
            <ns3:cad>0</ns3:cad>
          </ns3:TrackPointExtension>
        </extensions>
      </trkpt>
      <trkpt lat="44.678664989769458770751953125" lon="6.8263200111687183380126953125">
        <ele>2424.39990234375</ele>
        <time>2026-08-31T06:51:49.000Z</time>
        <extensions>
          <ns3:TrackPointExtension>
            <ns3:hr>168</ns3:hr>
            <ns3:cad>0</ns3:cad>
          </ns3:TrackPointExtension>
        </extensions>
      </trkpt>
      <trkpt lat="44.67866892926394939422607421875" lon="6.8263117969036102294921875">
        <ele>2424.60009765625</ele>
        <time>2026-08-31T06:51:50.000Z</time>
        <extensions>
          <ns3:TrackPointExtension>
            <ns3:hr>168</ns3:hr>
            <ns3:cad>0</ns3:cad>
          </ns3:TrackPointExtension>
        </extensions>
      </trkpt>
      <trkpt lat="44.6786701865494251251220703125" lon="6.826302744448184967041015625">
        <ele>2424.800048828125</ele>
        <time>2026-08-31T06:51:51.000Z</time>
        <extensions>
          <ns3:TrackPointExtension>
            <ns3:hr>169</ns3:hr>
            <ns3:cad>0</ns3:cad>
          </ns3:TrackPointExtension>
        </extensions>
      </trkpt>
      <trkpt lat="44.678670354187488555908203125" lon="6.82629344053566455841064453125">
        <ele>2425</ele>
        <time>2026-08-31T06:51:52.000Z</time>
        <extensions>
          <ns3:TrackPointExtension>
            <ns3:hr>169</ns3:hr>
            <ns3:cad>0</ns3:cad>
          </ns3:TrackPointExtension>
        </extensions>
      </trkpt>
      <trkpt lat="44.6786715276539325714111328125" lon="6.82628254406154155731201171875">
        <ele>2425.199951171875</ele>
        <time>2026-08-31T06:51:53.000Z</time>
        <extensions>
          <ns3:TrackPointExtension>
            <ns3:hr>169</ns3:hr>
            <ns3:cad>0</ns3:cad>
          </ns3:TrackPointExtension>
        </extensions>
      </trkpt>
      <trkpt lat="44.6786727011203765869140625" lon="6.82627701200544834136962890625">
        <ele>2425.39990234375</ele>
        <time>2026-08-31T06:51:54.000Z</time>
        <extensions>
          <ns3:TrackPointExtension>
            <ns3:hr>169</ns3:hr>
            <ns3:cad>0</ns3:cad>
          </ns3:TrackPointExtension>
        </extensions>
      </trkpt>
      <trkpt lat="44.678674042224884033203125" lon="6.82626041583716869354248046875">
        <ele>2425.60009765625</ele>
        <time>2026-08-31T06:51:55.000Z</time>
        <extensions>
          <ns3:TrackPointExtension>
            <ns3:hr>170</ns3:hr>
            <ns3:cad>0</ns3:cad>
          </ns3:TrackPointExtension>
        </extensions>
      </trkpt>
      <trkpt lat="44.67867605388164520263671875" lon="6.82624918408691883087158203125">
        <ele>2425.800048828125</ele>
        <time>2026-08-31T06:51:56.000Z</time>
        <extensions>
          <ns3:TrackPointExtension>
            <ns3:hr>170</ns3:hr>
            <ns3:cad>0</ns3:cad>
          </ns3:TrackPointExtension>
        </extensions>
      </trkpt>
      <trkpt lat="44.67868418432772159576416015625" lon="6.8262371979653835296630859375">
        <ele>2426</ele>
        <time>2026-08-31T06:51:57.000Z</time>
        <extensions>
          <ns3:TrackPointExtension>
            <ns3:hr>170</ns3:hr>
            <ns3:cad>0</ns3:cad>
          </ns3:TrackPointExtension>
        </extensions>
      </trkpt>
      <trkpt lat="44.67868753708899021148681640625" lon="6.82622923515737056732177734375">
        <ele>2426.199951171875</ele>
        <time>2026-08-31T06:51:58.000Z</time>
        <extensions>
          <ns3:TrackPointExtension>
            <ns3:hr>171</ns3:hr>
            <ns3:cad>0</ns3:cad>
          </ns3:TrackPointExtension>
        </extensions>
      </trkpt>
      <trkpt lat="44.67869214713573455810546875" lon="6.82621766813099384307861328125">
        <ele>2426.39990234375</ele>
        <time>2026-08-31T06:51:59.000Z</time>
        <extensions>
          <ns3:TrackPointExtension>
            <ns3:hr>171</ns3:hr>
            <ns3:cad>0</ns3:cad>
          </ns3:TrackPointExtension>
        </extensions>
      </trkpt>
      <trkpt lat="44.67869608663022518157958984375" lon="6.826208196580410003662109375">
        <ele>2426.60009765625</ele>
        <time>2026-08-31T06:52:00.000Z</time>
        <extensions>
          <ns3:TrackPointExtension>
            <ns3:hr>171</ns3:hr>
            <ns3:cad>0</ns3:cad>
          </ns3:TrackPointExtension>
        </extensions>
      </trkpt>
      <trkpt lat="44.67869960702955722808837890625" lon="6.82619671337306499481201171875">
        <ele>2426.800048828125</ele>
        <time>2026-08-31T06:52:01.000Z</time>
        <extensions>
          <ns3:TrackPointExtension>
            <ns3:hr>172</ns3:hr>
            <ns3:cad>0</ns3:cad>
          </ns3:TrackPointExtension>
        </extensions>
      </trkpt>
      <trkpt lat="44.67869943939149379730224609375" lon="6.826190762221813201904296875">
        <ele>2427</ele>
        <time>2026-08-31T06:52:02.000Z</time>
        <extensions>
          <ns3:TrackPointExtension>
            <ns3:hr>173</ns3:hr>
            <ns3:cad>0</ns3:cad>
          </ns3:TrackPointExtension>
        </extensions>
      </trkpt>
      <trkpt lat="44.678703881800174713134765625" lon="6.82618380524218082427978515625">
        <ele>2427.199951171875</ele>
        <time>2026-08-31T06:52:03.000Z</time>
        <extensions>
          <ns3:TrackPointExtension>
            <ns3:hr>173</ns3:hr>
            <ns3:cad>48</ns3:cad>
          </ns3:TrackPointExtension>
        </extensions>
      </trkpt>
      <trkpt lat="44.67870815657079219818115234375" lon="6.82617592625319957733154296875">
        <ele>2427.39990234375</ele>
        <time>2026-08-31T06:52:04.000Z</time>
        <extensions>
          <ns3:TrackPointExtension>
            <ns3:hr>174</ns3:hr>
            <ns3:cad>48</ns3:cad>
          </ns3:TrackPointExtension>
        </extensions>
      </trkpt>
      <trkpt lat="44.67871670611202716827392578125" lon="6.826161257922649383544921875">
        <ele>2427.60009765625</ele>
        <time>2026-08-31T06:52:05.000Z</time>
        <extensions>
          <ns3:TrackPointExtension>
            <ns3:hr>174</ns3:hr>
            <ns3:cad>40</ns3:cad>
          </ns3:TrackPointExtension>
        </extensions>
      </trkpt>
      <trkpt lat="44.67872341163456439971923828125" lon="6.82615111581981182098388671875">
        <ele>2427.800048828125</ele>
        <time>2026-08-31T06:52:06.000Z</time>
        <extensions>
          <ns3:TrackPointExtension>
            <ns3:hr>175</ns3:hr>
            <ns3:cad>40</ns3:cad>
          </ns3:TrackPointExtension>
        </extensions>
      </trkpt>
      <trkpt lat="44.67872994951903820037841796875" lon="6.82614156045019626617431640625">
        <ele>2428</ele>
        <time>2026-08-31T06:52:07.000Z</time>
        <extensions>
          <ns3:TrackPointExtension>
            <ns3:hr>175</ns3:hr>
            <ns3:cad>40</ns3:cad>
          </ns3:TrackPointExtension>
        </extensions>
      </trkpt>
      <trkpt lat="44.67873816378414630889892578125" lon="6.826128065586090087890625">
        <ele>2428.199951171875</ele>
        <time>2026-08-31T06:52:08.000Z</time>
        <extensions>
          <ns3:TrackPointExtension>
            <ns3:hr>175</ns3:hr>
            <ns3:cad>40</ns3:cad>
          </ns3:TrackPointExtension>
        </extensions>
      </trkpt>
      <trkpt lat="44.67874336056411266326904296875" lon="6.8261319212615489959716796875">
        <ele>2428.39990234375</ele>
        <time>2026-08-31T06:52:09.000Z</time>
        <extensions>
          <ns3:TrackPointExtension>
            <ns3:hr>174</ns3:hr>
            <ns3:cad>40</ns3:cad>
          </ns3:TrackPointExtension>
        </extensions>
      </trkpt>
      <trkpt lat="44.678753502666950225830078125" lon="6.82612529955804347991943359375">
        <ele>2428.39990234375</ele>
        <time>2026-08-31T06:52:10.000Z</time>
        <extensions>
          <ns3:TrackPointExtension>
            <ns3:hr>175</ns3:hr>
            <ns3:cad>40</ns3:cad>
          </ns3:TrackPointExtension>
        </extensions>
      </trkpt>
      <trkpt lat="44.67875459231436252593994140625" lon="6.8261186778545379638671875">
        <ele>2428.60009765625</ele>
        <time>2026-08-31T06:52:11.000Z</time>
        <extensions>
          <ns3:TrackPointExtension>
            <ns3:hr>175</ns3:hr>
            <ns3:cad>0</ns3:cad>
          </ns3:TrackPointExtension>
        </extensions>
      </trkpt>
      <trkpt lat="44.6787590347230434417724609375" lon="6.8261131457984447479248046875">
        <ele>2428.800048828125</ele>
        <time>2026-08-31T06:52:12.000Z</time>
        <extensions>
          <ns3:TrackPointExtension>
            <ns3:hr>174</ns3:hr>
            <ns3:cad>0</ns3:cad>
          </ns3:TrackPointExtension>
        </extensions>
      </trkpt>
      <trkpt lat="44.6787630580365657806396484375" lon="6.82610752992331981658935546875">
        <ele>2429</ele>
        <time>2026-08-31T06:52:13.000Z</time>
        <extensions>
          <ns3:TrackPointExtension>
            <ns3:hr>175</ns3:hr>
            <ns3:cad>0</ns3:cad>
          </ns3:TrackPointExtension>
        </extensions>
      </trkpt>
      <trkpt lat="44.6787707693874835968017578125" lon="6.82609311304986476898193359375">
        <ele>2429.199951171875</ele>
        <time>2026-08-31T06:52:14.000Z</time>
        <extensions>
          <ns3:TrackPointExtension>
            <ns3:hr>175</ns3:hr>
            <ns3:cad>0</ns3:cad>
          </ns3:TrackPointExtension>
        </extensions>
      </trkpt>
      <trkpt lat="44.67877554707229137420654296875" lon="6.82608389295637607574462890625">
        <ele>2429.39990234375</ele>
        <time>2026-08-31T06:52:15.000Z</time>
        <extensions>
          <ns3:TrackPointExtension>
            <ns3:hr>174</ns3:hr>
            <ns3:cad>0</ns3:cad>
          </ns3:TrackPointExtension>
        </extensions>
      </trkpt>
      <trkpt lat="44.6787808276712894439697265625" lon="6.82607886381447315216064453125">
        <ele>2429.60009765625</ele>
        <time>2026-08-31T06:52:16.000Z</time>
        <extensions>
          <ns3:TrackPointExtension>
            <ns3:hr>174</ns3:hr>
            <ns3:cad>0</ns3:cad>
          </ns3:TrackPointExtension>
        </extensions>
      </trkpt>
      <trkpt lat="44.678787030279636383056640625" lon="6.82606997899711132049560546875">
        <ele>2429.800048828125</ele>
        <time>2026-08-31T06:52:17.000Z</time>
        <extensions>
          <ns3:TrackPointExtension>
            <ns3:hr>174</ns3:hr>
            <ns3:cad>0</ns3:cad>
          </ns3:TrackPointExtension>
        </extensions>
      </trkpt>
      <trkpt lat="44.6787922270596027374267578125" lon="6.8260652013123035430908203125">
        <ele>2430</ele>
        <time>2026-08-31T06:52:18.000Z</time>
        <extensions>
          <ns3:TrackPointExtension>
            <ns3:hr>174</ns3:hr>
            <ns3:cad>0</ns3:cad>
          </ns3:TrackPointExtension>
        </extensions>
      </trkpt>
      <trkpt lat="44.67880387790501117706298828125" lon="6.8260615132749080657958984375">
        <ele>2430</ele>
        <time>2026-08-31T06:52:19.000Z</time>
        <extensions>
          <ns3:TrackPointExtension>
            <ns3:hr>174</ns3:hr>
            <ns3:cad>0</ns3:cad>
          </ns3:TrackPointExtension>
        </extensions>
      </trkpt>
      <trkpt lat="44.67880907468497753143310546875" lon="6.826057992875576019287109375">
        <ele>2430.199951171875</ele>
        <time>2026-08-31T06:52:20.000Z</time>
        <extensions>
          <ns3:TrackPointExtension>
            <ns3:hr>173</ns3:hr>
            <ns3:cad>0</ns3:cad>
          </ns3:TrackPointExtension>
        </extensions>
      </trkpt>
      <trkpt lat="44.6788183785974979400634765625" lon="6.8260514549911022186279296875">
        <ele>2430.39990234375</ele>
        <time>2026-08-31T06:52:21.000Z</time>
        <extensions>
          <ns3:TrackPointExtension>
            <ns3:hr>173</ns3:hr>
            <ns3:cad>0</ns3:cad>
          </ns3:TrackPointExtension>
        </extensions>
      </trkpt>
      <trkpt lat="44.678828604519367218017578125" lon="6.8260460905730724334716796875">
        <ele>2430.800048828125</ele>
        <time>2026-08-31T06:52:22.000Z</time>
        <extensions>
          <ns3:TrackPointExtension>
            <ns3:hr>173</ns3:hr>
            <ns3:cad>0</ns3:cad>
          </ns3:TrackPointExtension>
        </extensions>
      </trkpt>
      <trkpt lat="44.67883069999516010284423828125" lon="6.8260462582111358642578125">
        <ele>2431</ele>
        <time>2026-08-31T06:52:23.000Z</time>
        <extensions>
          <ns3:TrackPointExtension>
            <ns3:hr>172</ns3:hr>
            <ns3:cad>0</ns3:cad>
          </ns3:TrackPointExtension>
        </extensions>
      </trkpt>
      <trkpt lat="44.6788307838141918182373046875" lon="6.8260462582111358642578125">
        <ele>2431.199951171875</ele>
        <time>2026-08-31T06:52:24.000Z</time>
        <extensions>
          <ns3:TrackPointExtension>
            <ns3:hr>172</ns3:hr>
            <ns3:cad>0</ns3:cad>
          </ns3:TrackPointExtension>
        </extensions>
      </trkpt>
      <trkpt lat="44.67883656732738018035888671875" lon="6.8260444141924381256103515625">
        <ele>2431.39990234375</ele>
        <time>2026-08-31T06:52:25.000Z</time>
        <extensions>
          <ns3:TrackPointExtension>
            <ns3:hr>172</ns3:hr>
            <ns3:cad>0</ns3:cad>
          </ns3:TrackPointExtension>
        </extensions>
      </trkpt>
      <trkpt lat="44.67884645797312259674072265625" lon="6.82604751549661159515380859375">
        <ele>2431.60009765625</ele>
        <time>2026-08-31T06:52:26.000Z</time>
        <extensions>
          <ns3:TrackPointExtension>
            <ns3:hr>172</ns3:hr>
            <ns3:cad>0</ns3:cad>
          </ns3:TrackPointExtension>
        </extensions>
      </trkpt>
      <trkpt lat="44.67884763143956661224365234375" lon="6.82605019770562648773193359375">
        <ele>2431.60009765625</ele>
        <time>2026-08-31T06:52:27.000Z</time>
        <extensions>
          <ns3:TrackPointExtension>
            <ns3:hr>172</ns3:hr>
            <ns3:cad>0</ns3:cad>
          </ns3:TrackPointExtension>
        </extensions>
      </trkpt>
      <trkpt lat="44.6788599528372287750244140625" lon="6.82605204172432422637939453125">
        <ele>2431.800048828125</ele>
        <time>2026-08-31T06:52:28.000Z</time>
        <extensions>
          <ns3:TrackPointExtension>
            <ns3:hr>172</ns3:hr>
            <ns3:cad>0</ns3:cad>
          </ns3:TrackPointExtension>
        </extensions>
      </trkpt>
      <trkpt lat="44.6788690052926540374755859375" lon="6.82605053298175334930419921875">
        <ele>2432.199951171875</ele>
        <time>2026-08-31T06:52:29.000Z</time>
        <extensions>
          <ns3:TrackPointExtension>
            <ns3:hr>171</ns3:hr>
            <ns3:cad>0</ns3:cad>
          </ns3:TrackPointExtension>
        </extensions>
      </trkpt>
      <trkpt lat="44.6788738667964935302734375" lon="6.82605287991464138031005859375">
        <ele>2432.39990234375</ele>
        <time>2026-08-31T06:52:30.000Z</time>
        <extensions>
          <ns3:TrackPointExtension>
            <ns3:hr>171</ns3:hr>
            <ns3:cad>0</ns3:cad>
          </ns3:TrackPointExtension>
        </extensions>
      </trkpt>
      <trkpt lat="44.6788740344345569610595703125" lon="6.8260527960956096649169921875">
        <ele>2432.60009765625</ele>
        <time>2026-08-31T06:52:31.000Z</time>
        <extensions>
          <ns3:TrackPointExtension>
            <ns3:hr>170</ns3:hr>
            <ns3:cad>0</ns3:cad>
          </ns3:TrackPointExtension>
        </extensions>
      </trkpt>
      <trkpt lat="44.6788800694048404693603515625" lon="6.8260511197149753570556640625">
        <ele>2432.800048828125</ele>
        <time>2026-08-31T06:52:32.000Z</time>
        <extensions>
          <ns3:TrackPointExtension>
            <ns3:hr>170</ns3:hr>
            <ns3:cad>0</ns3:cad>
          </ns3:TrackPointExtension>
        </extensions>
      </trkpt>
      <trkpt lat="44.67889540828764438629150390625" lon="6.8260568194091320037841796875">
        <ele>2433</ele>
        <time>2026-08-31T06:52:33.000Z</time>
        <extensions>
          <ns3:TrackPointExtension>
            <ns3:hr>169</ns3:hr>
            <ns3:cad>0</ns3:cad>
          </ns3:TrackPointExtension>
        </extensions>
      </trkpt>
      <trkpt lat="44.6789028681814670562744140625" lon="6.82606033980846405029296875">
        <ele>2433</ele>
        <time>2026-08-31T06:52:34.000Z</time>
        <extensions>
          <ns3:TrackPointExtension>
            <ns3:hr>169</ns3:hr>
            <ns3:cad>0</ns3:cad>
          </ns3:TrackPointExtension>
        </extensions>
      </trkpt>
      <trkpt lat="44.67890940606594085693359375" lon="6.82606327347457408905029296875">
        <ele>2433.199951171875</ele>
        <time>2026-08-31T06:52:35.000Z</time>
        <extensions>
          <ns3:TrackPointExtension>
            <ns3:hr>167</ns3:hr>
            <ns3:cad>0</ns3:cad>
          </ns3:TrackPointExtension>
        </extensions>
      </trkpt>
      <trkpt lat="44.67891854234039783477783203125" lon="6.8260655365884304046630859375">
        <ele>2433.39990234375</ele>
        <time>2026-08-31T06:52:36.000Z</time>
        <extensions>
          <ns3:TrackPointExtension>
            <ns3:hr>167</ns3:hr>
            <ns3:cad>0</ns3:cad>
          </ns3:TrackPointExtension>
        </extensions>
      </trkpt>
      <trkpt lat="44.6789275109767913818359375" lon="6.82606629095971584320068359375">
        <ele>2433.60009765625</ele>
        <time>2026-08-31T06:52:37.000Z</time>
        <extensions>
          <ns3:TrackPointExtension>
            <ns3:hr>167</ns3:hr>
            <ns3:cad>0</ns3:cad>
          </ns3:TrackPointExtension>
        </extensions>
      </trkpt>
      <trkpt lat="44.67893899418413639068603515625" lon="6.82606779970228672027587890625">
        <ele>2433.800048828125</ele>
        <time>2026-08-31T06:52:38.000Z</time>
        <extensions>
          <ns3:TrackPointExtension>
            <ns3:hr>168</ns3:hr>
            <ns3:cad>0</ns3:cad>
          </ns3:TrackPointExtension>
        </extensions>
      </trkpt>
      <trkpt lat="44.67894452624022960662841796875" lon="6.82606746442615985870361328125">
        <ele>2434</ele>
        <time>2026-08-31T06:52:39.000Z</time>
        <extensions>
          <ns3:TrackPointExtension>
            <ns3:hr>169</ns3:hr>
            <ns3:cad>0</ns3:cad>
          </ns3:TrackPointExtension>
        </extensions>
      </trkpt>
      <trkpt lat="44.67895676381886005401611328125" lon="6.82607618160545825958251953125">
        <ele>2434.199951171875</ele>
        <time>2026-08-31T06:52:40.000Z</time>
        <extensions>
          <ns3:TrackPointExtension>
            <ns3:hr>169</ns3:hr>
            <ns3:cad>0</ns3:cad>
          </ns3:TrackPointExtension>
        </extensions>
      </trkpt>
      <trkpt lat="44.67896263115108013153076171875" lon="6.8260839767754077911376953125">
        <ele>2434.39990234375</ele>
        <time>2026-08-31T06:52:41.000Z</time>
        <extensions>
          <ns3:TrackPointExtension>
            <ns3:hr>169</ns3:hr>
            <ns3:cad>0</ns3:cad>
          </ns3:TrackPointExtension>
        </extensions>
      </trkpt>
      <trkpt lat="44.67897738330066204071044921875" lon="6.82609143666923046112060546875">
        <ele>2434.60009765625</ele>
        <time>2026-08-31T06:52:42.000Z</time>
        <extensions>
          <ns3:TrackPointExtension>
            <ns3:hr>169</ns3:hr>
            <ns3:cad>0</ns3:cad>
          </ns3:TrackPointExtension>
        </extensions>
      </trkpt>
      <trkpt lat="44.67898542992770671844482421875" lon="6.8260983936488628387451171875">
        <ele>2434.60009765625</ele>
        <time>2026-08-31T06:52:43.000Z</time>
        <extensions>
          <ns3:TrackPointExtension>
            <ns3:hr>169</ns3:hr>
            <ns3:cad>0</ns3:cad>
          </ns3:TrackPointExtension>
        </extensions>
      </trkpt>
      <trkpt lat="44.67898995615541934967041015625" lon="6.82610250078141689300537109375">
        <ele>2435</ele>
        <time>2026-08-31T06:52:44.000Z</time>
        <extensions>
          <ns3:TrackPointExtension>
            <ns3:hr>170</ns3:hr>
            <ns3:cad>0</ns3:cad>
          </ns3:TrackPointExtension>
        </extensions>
      </trkpt>
      <trkpt lat="44.67899766750633716583251953125" lon="6.82610727846622467041015625">
        <ele>2435</ele>
        <time>2026-08-31T06:52:45.000Z</time>
        <extensions>
          <ns3:TrackPointExtension>
            <ns3:hr>169</ns3:hr>
            <ns3:cad>0</ns3:cad>
          </ns3:TrackPointExtension>
        </extensions>
      </trkpt>
      <trkpt lat="44.6790000982582569122314453125" lon="6.82610937394201755523681640625">
        <ele>2435.199951171875</ele>
        <time>2026-08-31T06:52:46.000Z</time>
        <extensions>
          <ns3:TrackPointExtension>
            <ns3:hr>169</ns3:hr>
            <ns3:cad>0</ns3:cad>
          </ns3:TrackPointExtension>
        </extensions>
      </trkpt>
      <trkpt lat="44.67900252901017665863037109375" lon="6.8261134810745716094970703125">
        <ele>2435.39990234375</ele>
        <time>2026-08-31T06:52:47.000Z</time>
        <extensions>
          <ns3:TrackPointExtension>
            <ns3:hr>169</ns3:hr>
            <ns3:cad>0</ns3:cad>
          </ns3:TrackPointExtension>
        </extensions>
      </trkpt>
      <trkpt lat="44.6790081448853015899658203125" lon="6.8261134810745716094970703125">
        <ele>2435.60009765625</ele>
        <time>2026-08-31T06:52:48.000Z</time>
        <extensions>
          <ns3:TrackPointExtension>
            <ns3:hr>169</ns3:hr>
            <ns3:cad>0</ns3:cad>
          </ns3:TrackPointExtension>
        </extensions>
      </trkpt>
      <trkpt lat="44.67901560477912425994873046875" lon="6.82611524127423763275146484375">
        <ele>2435.800048828125</ele>
        <time>2026-08-31T06:52:49.000Z</time>
        <extensions>
          <ns3:TrackPointExtension>
            <ns3:hr>169</ns3:hr>
            <ns3:cad>0</ns3:cad>
          </ns3:TrackPointExtension>
        </extensions>
      </trkpt>
      <trkpt lat="44.679023064672946929931640625" lon="6.82611222378909587860107421875">
        <ele>2436.199951171875</ele>
        <time>2026-08-31T06:52:50.000Z</time>
        <extensions>
          <ns3:TrackPointExtension>
            <ns3:hr>168</ns3:hr>
            <ns3:cad>0</ns3:cad>
          </ns3:TrackPointExtension>
        </extensions>
      </trkpt>
      <trkpt lat="44.67902281321585178375244140625" lon="6.8261114694178104400634765625">
        <ele>2436.39990234375</ele>
        <time>2026-08-31T06:52:51.000Z</time>
        <extensions>
          <ns3:TrackPointExtension>
            <ns3:hr>168</ns3:hr>
            <ns3:cad>0</ns3:cad>
          </ns3:TrackPointExtension>
        </extensions>
      </trkpt>
      <trkpt lat="44.67903018929064273834228515625" lon="6.82611222378909587860107421875">
        <ele>2436.800048828125</ele>
        <time>2026-08-31T06:52:52.000Z</time>
        <extensions>
          <ns3:TrackPointExtension>
            <ns3:hr>168</ns3:hr>
            <ns3:cad>0</ns3:cad>
          </ns3:TrackPointExtension>
        </extensions>
      </trkpt>
      <trkpt lat="44.67903010547161102294921875" lon="6.8261104635894298553466796875">
        <ele>2437</ele>
        <time>2026-08-31T06:52:53.000Z</time>
        <extensions>
          <ns3:TrackPointExtension>
            <ns3:hr>168</ns3:hr>
            <ns3:cad>0</ns3:cad>
          </ns3:TrackPointExtension>
        </extensions>
      </trkpt>
      <trkpt lat="44.679037816822528839111328125" lon="6.826112978160381317138671875">
        <ele>2437.199951171875</ele>
        <time>2026-08-31T06:52:54.000Z</time>
        <extensions>
          <ns3:TrackPointExtension>
            <ns3:hr>168</ns3:hr>
            <ns3:cad>0</ns3:cad>
          </ns3:TrackPointExtension>
        </extensions>
      </trkpt>
      <trkpt lat="44.67904225923120975494384765625" lon="6.8261161632835865020751953125">
        <ele>2437.39990234375</ele>
        <time>2026-08-31T06:52:55.000Z</time>
        <extensions>
          <ns3:TrackPointExtension>
            <ns3:hr>169</ns3:hr>
            <ns3:cad>0</ns3:cad>
          </ns3:TrackPointExtension>
        </extensions>
      </trkpt>
      <trkpt lat="44.67905147932469844818115234375" lon="6.8261168338358402252197265625">
        <ele>2437.39990234375</ele>
        <time>2026-08-31T06:52:56.000Z</time>
        <extensions>
          <ns3:TrackPointExtension>
            <ns3:hr>169</ns3:hr>
            <ns3:cad>0</ns3:cad>
          </ns3:TrackPointExtension>
        </extensions>
      </trkpt>
      <trkpt lat="44.67905852012336254119873046875" lon="6.8261175043880939483642578125">
        <ele>2437.39990234375</ele>
        <time>2026-08-31T06:52:57.000Z</time>
        <extensions>
          <ns3:TrackPointExtension>
            <ns3:hr>170</ns3:hr>
            <ns3:cad>0</ns3:cad>
          </ns3:TrackPointExtension>
        </extensions>
      </trkpt>
      <trkpt lat="44.6790607832372188568115234375" lon="6.82612077333033084869384765625">
        <ele>2437.39990234375</ele>
        <time>2026-08-31T06:52:58.000Z</time>
        <extensions>
          <ns3:TrackPointExtension>
            <ns3:hr>170</ns3:hr>
            <ns3:cad>0</ns3:cad>
          </ns3:TrackPointExtension>
        </extensions>
      </trkpt>
      <trkpt lat="44.6790705062448978424072265625" lon="6.826122701168060302734375">
        <ele>2437.39990234375</ele>
        <time>2026-08-31T06:52:59.000Z</time>
        <extensions>
          <ns3:TrackPointExtension>
            <ns3:hr>170</ns3:hr>
            <ns3:cad>0</ns3:cad>
          </ns3:TrackPointExtension>
        </extensions>
      </trkpt>
      <trkpt lat="44.6790721826255321502685546875" lon="6.82612203061580657958984375">
        <ele>2437.39990234375</ele>
        <time>2026-08-31T06:53:00.000Z</time>
        <extensions>
          <ns3:TrackPointExtension>
            <ns3:hr>170</ns3:hr>
            <ns3:cad>0</ns3:cad>
          </ns3:TrackPointExtension>
        </extensions>
      </trkpt>
      <trkpt lat="44.67908198945224285125732421875" lon="6.826116330921649932861328125">
        <ele>2437.60009765625</ele>
        <time>2026-08-31T06:53:01.000Z</time>
        <extensions>
          <ns3:TrackPointExtension>
            <ns3:hr>170</ns3:hr>
            <ns3:cad>0</ns3:cad>
          </ns3:TrackPointExtension>
        </extensions>
      </trkpt>
      <trkpt lat="44.6790889464318752288818359375" lon="6.8261154927313327789306640625">
        <ele>2437.60009765625</ele>
        <time>2026-08-31T06:53:02.000Z</time>
        <extensions>
          <ns3:TrackPointExtension>
            <ns3:hr>171</ns3:hr>
            <ns3:cad>0</ns3:cad>
          </ns3:TrackPointExtension>
        </extensions>
      </trkpt>
      <trkpt lat="44.67909716069698333740234375" lon="6.82610887102782726287841796875">
        <ele>2437.800048828125</ele>
        <time>2026-08-31T06:53:03.000Z</time>
        <extensions>
          <ns3:TrackPointExtension>
            <ns3:hr>171</ns3:hr>
            <ns3:cad>0</ns3:cad>
          </ns3:TrackPointExtension>
        </extensions>
      </trkpt>
      <trkpt lat="44.67910277657210826873779296875" lon="6.8261052668094635009765625">
        <ele>2438</ele>
        <time>2026-08-31T06:53:04.000Z</time>
        <extensions>
          <ns3:TrackPointExtension>
            <ns3:hr>171</ns3:hr>
            <ns3:cad>0</ns3:cad>
          </ns3:TrackPointExtension>
        </extensions>
      </trkpt>
      <trkpt lat="44.67911199666559696197509765625" lon="6.826102249324321746826171875">
        <ele>2438.39990234375</ele>
        <time>2026-08-31T06:53:05.000Z</time>
        <extensions>
          <ns3:TrackPointExtension>
            <ns3:hr>171</ns3:hr>
            <ns3:cad>0</ns3:cad>
          </ns3:TrackPointExtension>
        </extensions>
      </trkpt>
      <trkpt lat="44.6791194565594196319580078125" lon="6.82610384188592433929443359375">
        <ele>2438.60009765625</ele>
        <time>2026-08-31T06:53:06.000Z</time>
        <extensions>
          <ns3:TrackPointExtension>
            <ns3:hr>170</ns3:hr>
            <ns3:cad>0</ns3:cad>
          </ns3:TrackPointExtension>
        </extensions>
      </trkpt>
      <trkpt lat="44.6791251562535762786865234375" lon="6.82611339725553989410400390625">
        <ele>2438.800048828125</ele>
        <time>2026-08-31T06:53:07.000Z</time>
        <extensions>
          <ns3:TrackPointExtension>
            <ns3:hr>171</ns3:hr>
            <ns3:cad>0</ns3:cad>
          </ns3:TrackPointExtension>
        </extensions>
      </trkpt>
      <trkpt lat="44.67913337051868438720703125" lon="6.82611574418842792510986328125">
        <ele>2439</ele>
        <time>2026-08-31T06:53:08.000Z</time>
        <extensions>
          <ns3:TrackPointExtension>
            <ns3:hr>171</ns3:hr>
            <ns3:cad>0</ns3:cad>
          </ns3:TrackPointExtension>
        </extensions>
      </trkpt>
      <trkpt lat="44.67913848347961902618408203125" lon="6.826119013130664825439453125">
        <ele>2439.199951171875</ele>
        <time>2026-08-31T06:53:09.000Z</time>
        <extensions>
          <ns3:TrackPointExtension>
            <ns3:hr>171</ns3:hr>
            <ns3:cad>0</ns3:cad>
          </ns3:TrackPointExtension>
        </extensions>
      </trkpt>
      <trkpt lat="44.67914502136409282684326171875" lon="6.82612395845353603363037109375">
        <ele>2439.39990234375</ele>
        <time>2026-08-31T06:53:10.000Z</time>
        <extensions>
          <ns3:TrackPointExtension>
            <ns3:hr>171</ns3:hr>
            <ns3:cad>0</ns3:cad>
          </ns3:TrackPointExtension>
        </extensions>
      </trkpt>
      <trkpt lat="44.67914971522986888885498046875" lon="6.8261221982538700103759765625">
        <ele>2439.60009765625</ele>
        <time>2026-08-31T06:53:11.000Z</time>
        <extensions>
          <ns3:TrackPointExtension>
            <ns3:hr>172</ns3:hr>
            <ns3:cad>0</ns3:cad>
          </ns3:TrackPointExtension>
        </extensions>
      </trkpt>
      <trkpt lat="44.6791610307991504669189453125" lon="6.82612027041614055633544921875">
        <ele>2439.800048828125</ele>
        <time>2026-08-31T06:53:12.000Z</time>
        <extensions>
          <ns3:TrackPointExtension>
            <ns3:hr>172</ns3:hr>
            <ns3:cad>0</ns3:cad>
          </ns3:TrackPointExtension>
        </extensions>
      </trkpt>
      <trkpt lat="44.67917092144489288330078125" lon="6.82612144388258457183837890625">
        <ele>2440</ele>
        <time>2026-08-31T06:53:13.000Z</time>
        <extensions>
          <ns3:TrackPointExtension>
            <ns3:hr>171</ns3:hr>
            <ns3:cad>0</ns3:cad>
          </ns3:TrackPointExtension>
        </extensions>
      </trkpt>
      <trkpt lat="44.67917737551033496856689453125" lon="6.82612496428191661834716796875">
        <ele>2440.39990234375</ele>
        <time>2026-08-31T06:53:14.000Z</time>
        <extensions>
          <ns3:TrackPointExtension>
            <ns3:hr>171</ns3:hr>
            <ns3:cad>0</ns3:cad>
          </ns3:TrackPointExtension>
        </extensions>
      </trkpt>
      <trkpt lat="44.67918424867093563079833984375" lon="6.8261205218732357025146484375">
        <ele>2440.60009765625</ele>
        <time>2026-08-31T06:53:15.000Z</time>
        <extensions>
          <ns3:TrackPointExtension>
            <ns3:hr>171</ns3:hr>
            <ns3:cad>0</ns3:cad>
          </ns3:TrackPointExtension>
        </extensions>
      </trkpt>
      <trkpt lat="44.67919372022151947021484375" lon="6.82612362317740917205810546875">
        <ele>2440.800048828125</ele>
        <time>2026-08-31T06:53:16.000Z</time>
        <extensions>
          <ns3:TrackPointExtension>
            <ns3:hr>171</ns3:hr>
            <ns3:cad>0</ns3:cad>
          </ns3:TrackPointExtension>
        </extensions>
      </trkpt>
      <trkpt lat="44.67920042574405670166015625" lon="6.82612647302448749542236328125">
        <ele>2440.800048828125</ele>
        <time>2026-08-31T06:53:17.000Z</time>
        <extensions>
          <ns3:TrackPointExtension>
            <ns3:hr>171</ns3:hr>
            <ns3:cad>0</ns3:cad>
          </ns3:TrackPointExtension>
        </extensions>
      </trkpt>
      <trkpt lat="44.67920805327594280242919921875" lon="6.82613301090896129608154296875">
        <ele>2441</ele>
        <time>2026-08-31T06:53:18.000Z</time>
        <extensions>
          <ns3:TrackPointExtension>
            <ns3:hr>171</ns3:hr>
            <ns3:cad>0</ns3:cad>
          </ns3:TrackPointExtension>
        </extensions>
      </trkpt>
      <trkpt lat="44.6792156808078289031982421875" lon="6.8261346034705638885498046875">
        <ele>2441.199951171875</ele>
        <time>2026-08-31T06:53:19.000Z</time>
        <extensions>
          <ns3:TrackPointExtension>
            <ns3:hr>170</ns3:hr>
            <ns3:cad>0</ns3:cad>
          </ns3:TrackPointExtension>
        </extensions>
      </trkpt>
      <trkpt lat="44.67922682873904705047607421875" lon="6.82613938115537166595458984375">
        <ele>2441.39990234375</ele>
        <time>2026-08-31T06:53:20.000Z</time>
        <extensions>
          <ns3:TrackPointExtension>
            <ns3:hr>170</ns3:hr>
            <ns3:cad>0</ns3:cad>
          </ns3:TrackPointExtension>
        </extensions>
      </trkpt>
      <trkpt lat="44.6792321093380451202392578125" lon="6.82614348828792572021484375">
        <ele>2441.60009765625</ele>
        <time>2026-08-31T06:53:21.000Z</time>
        <extensions>
          <ns3:TrackPointExtension>
            <ns3:hr>170</ns3:hr>
            <ns3:cad>0</ns3:cad>
          </ns3:TrackPointExtension>
        </extensions>
      </trkpt>
      <trkpt lat="44.67924107797443866729736328125" lon="6.82614826597273349761962890625">
        <ele>2442</ele>
        <time>2026-08-31T06:53:22.000Z</time>
        <extensions>
          <ns3:TrackPointExtension>
            <ns3:hr>169</ns3:hr>
            <ns3:cad>0</ns3:cad>
          </ns3:TrackPointExtension>
        </extensions>
      </trkpt>
      <trkpt lat="44.67924728058278560638427734375" lon="6.8261490203440189361572265625">
        <ele>2442.199951171875</ele>
        <time>2026-08-31T06:53:23.000Z</time>
        <extensions>
          <ns3:TrackPointExtension>
            <ns3:hr>170</ns3:hr>
            <ns3:cad>0</ns3:cad>
          </ns3:TrackPointExtension>
        </extensions>
      </trkpt>
      <trkpt lat="44.679259099066257476806640625" lon="6.82615195401012897491455078125">
        <ele>2442.39990234375</ele>
        <time>2026-08-31T06:53:24.000Z</time>
        <extensions>
          <ns3:TrackPointExtension>
            <ns3:hr>170</ns3:hr>
            <ns3:cad>0</ns3:cad>
          </ns3:TrackPointExtension>
        </extensions>
      </trkpt>
      <trkpt lat="44.6792679838836193084716796875" lon="6.82615153491497039794921875">
        <ele>2442.60009765625</ele>
        <time>2026-08-31T06:53:25.000Z</time>
        <extensions>
          <ns3:TrackPointExtension>
            <ns3:hr>171</ns3:hr>
            <ns3:cad>52</ns3:cad>
          </ns3:TrackPointExtension>
        </extensions>
      </trkpt>
      <trkpt lat="44.679273851215839385986328125" lon="6.82615287601947784423828125">
        <ele>2442.60009765625</ele>
        <time>2026-08-31T06:53:26.000Z</time>
        <extensions>
          <ns3:TrackPointExtension>
            <ns3:hr>171</ns3:hr>
            <ns3:cad>52</ns3:cad>
          </ns3:TrackPointExtension>
        </extensions>
      </trkpt>
      <trkpt lat="44.67928298749029636383056640625" lon="6.82615580968558788299560546875">
        <ele>2442.800048828125</ele>
        <time>2026-08-31T06:53:27.000Z</time>
        <extensions>
          <ns3:TrackPointExtension>
            <ns3:hr>171</ns3:hr>
            <ns3:cad>52</ns3:cad>
          </ns3:TrackPointExtension>
        </extensions>
      </trkpt>
      <trkpt lat="44.67929002828896045684814453125" lon="6.82615824043750762939453125">
        <ele>2443</ele>
        <time>2026-08-31T06:53:28.000Z</time>
        <extensions>
          <ns3:TrackPointExtension>
            <ns3:hr>171</ns3:hr>
            <ns3:cad>51</ns3:cad>
          </ns3:TrackPointExtension>
        </extensions>
      </trkpt>
      <trkpt lat="44.679300673305988311767578125" lon="6.82615949772298336029052734375">
        <ele>2443.199951171875</ele>
        <time>2026-08-31T06:53:29.000Z</time>
        <extensions>
          <ns3:TrackPointExtension>
            <ns3:hr>171</ns3:hr>
            <ns3:cad>0</ns3:cad>
          </ns3:TrackPointExtension>
        </extensions>
      </trkpt>
      <trkpt lat="44.6793085522949695587158203125" lon="6.82615765370428562164306640625">
        <ele>2443.39990234375</ele>
        <time>2026-08-31T06:53:30.000Z</time>
        <extensions>
          <ns3:TrackPointExtension>
            <ns3:hr>171</ns3:hr>
            <ns3:cad>0</ns3:cad>
          </ns3:TrackPointExtension>
        </extensions>
      </trkpt>
      <trkpt lat="44.67931668274104595184326171875" lon="6.82615748606622219085693359375">
        <ele>2443.60009765625</ele>
        <time>2026-08-31T06:53:31.000Z</time>
        <extensions>
          <ns3:TrackPointExtension>
            <ns3:hr>171</ns3:hr>
            <ns3:cad>0</ns3:cad>
          </ns3:TrackPointExtension>
        </extensions>
      </trkpt>
      <trkpt lat="44.67932422645390033721923828125" lon="6.826154552400112152099609375">
        <ele>2443.60009765625</ele>
        <time>2026-08-31T06:53:32.000Z</time>
        <extensions>
          <ns3:TrackPointExtension>
            <ns3:hr>171</ns3:hr>
            <ns3:cad>0</ns3:cad>
          </ns3:TrackPointExtension>
        </extensions>
      </trkpt>
      <trkpt lat="44.679335542023181915283203125" lon="6.82615161873400211334228515625">
        <ele>2443.800048828125</ele>
        <time>2026-08-31T06:53:33.000Z</time>
        <extensions>
          <ns3:TrackPointExtension>
            <ns3:hr>170</ns3:hr>
            <ns3:cad>16</ns3:cad>
          </ns3:TrackPointExtension>
        </extensions>
      </trkpt>
      <trkpt lat="44.6793437562882900238037109375" lon="6.82614709250628948211669921875">
        <ele>2443.800048828125</ele>
        <time>2026-08-31T06:53:34.000Z</time>
        <extensions>
          <ns3:TrackPointExtension>
            <ns3:hr>170</ns3:hr>
            <ns3:cad>16</ns3:cad>
          </ns3:TrackPointExtension>
        </extensions>
      </trkpt>
      <trkpt lat="44.67934769578278064727783203125" lon="6.82614591903984546661376953125">
        <ele>2444.199951171875</ele>
        <time>2026-08-31T06:53:35.000Z</time>
        <extensions>
          <ns3:TrackPointExtension>
            <ns3:hr>170</ns3:hr>
            <ns3:cad>16</ns3:cad>
          </ns3:TrackPointExtension>
        </extensions>
      </trkpt>
      <trkpt lat="44.67935188673436641693115234375" lon="6.82614105753600597381591796875">
        <ele>2444.39990234375</ele>
        <time>2026-08-31T06:53:36.000Z</time>
        <extensions>
          <ns3:TrackPointExtension>
            <ns3:hr>170</ns3:hr>
            <ns3:cad>16</ns3:cad>
          </ns3:TrackPointExtension>
        </extensions>
      </trkpt>
      <trkpt lat="44.679354988038539886474609375" lon="6.8261374533176422119140625">
        <ele>2444.60009765625</ele>
        <time>2026-08-31T06:53:37.000Z</time>
        <extensions>
          <ns3:TrackPointExtension>
            <ns3:hr>170</ns3:hr>
            <ns3:cad>0</ns3:cad>
          </ns3:TrackPointExtension>
        </extensions>
      </trkpt>
      <trkpt lat="44.67935959808528423309326171875" lon="6.82613435201346874237060546875">
        <ele>2444.800048828125</ele>
        <time>2026-08-31T06:53:38.000Z</time>
        <extensions>
          <ns3:TrackPointExtension>
            <ns3:hr>170</ns3:hr>
            <ns3:cad>0</ns3:cad>
          </ns3:TrackPointExtension>
        </extensions>
      </trkpt>
      <trkpt lat="44.6793628670275211334228515625" lon="6.826121024787425994873046875">
        <ele>2445</ele>
        <time>2026-08-31T06:53:39.000Z</time>
        <extensions>
          <ns3:TrackPointExtension>
            <ns3:hr>170</ns3:hr>
            <ns3:cad>0</ns3:cad>
          </ns3:TrackPointExtension>
        </extensions>
      </trkpt>
      <trkpt lat="44.67936395667493343353271484375" lon="6.82611675001680850982666015625">
        <ele>2445</ele>
        <time>2026-08-31T06:53:40.000Z</time>
        <extensions>
          <ns3:TrackPointExtension>
            <ns3:hr>170</ns3:hr>
            <ns3:cad>0</ns3:cad>
          </ns3:TrackPointExtension>
        </extensions>
      </trkpt>
      <trkpt lat="44.67936404049396514892578125" lon="6.82611641474068164825439453125">
        <ele>2445.199951171875</ele>
        <time>2026-08-31T06:53:41.000Z</time>
        <extensions>
          <ns3:TrackPointExtension>
            <ns3:hr>169</ns3:hr>
            <ns3:cad>0</ns3:cad>
          </ns3:TrackPointExtension>
        </extensions>
      </trkpt>
      <trkpt lat="44.6793705783784389495849609375" lon="6.82610635645687580108642578125">
        <ele>2445.39990234375</ele>
        <time>2026-08-31T06:53:42.000Z</time>
        <extensions>
          <ns3:TrackPointExtension>
            <ns3:hr>169</ns3:hr>
            <ns3:cad>0</ns3:cad>
          </ns3:TrackPointExtension>
        </extensions>
      </trkpt>
      <trkpt lat="44.679378457367420196533203125" lon="6.82609227485954761505126953125">
        <ele>2445.800048828125</ele>
        <time>2026-08-31T06:53:43.000Z</time>
        <extensions>
          <ns3:TrackPointExtension>
            <ns3:hr>169</ns3:hr>
            <ns3:cad>0</ns3:cad>
          </ns3:TrackPointExtension>
        </extensions>
      </trkpt>
      <trkpt lat="44.679385162889957427978515625" lon="6.8260776065289974212646484375">
        <ele>2446.199951171875</ele>
        <time>2026-08-31T06:53:44.000Z</time>
        <extensions>
          <ns3:TrackPointExtension>
            <ns3:hr>170</ns3:hr>
            <ns3:cad>0</ns3:cad>
          </ns3:TrackPointExtension>
        </extensions>
      </trkpt>
      <trkpt lat="44.6793883480131626129150390625" lon="6.82606897316873073577880859375">
        <ele>2446.60009765625</ele>
        <time>2026-08-31T06:53:45.000Z</time>
        <extensions>
          <ns3:TrackPointExtension>
            <ns3:hr>171</ns3:hr>
            <ns3:cad>0</ns3:cad>
          </ns3:TrackPointExtension>
        </extensions>
      </trkpt>
      <trkpt lat="44.6793957240879535675048828125" lon="6.82605371810495853424072265625">
        <ele>2447</ele>
        <time>2026-08-31T06:53:46.000Z</time>
        <extensions>
          <ns3:TrackPointExtension>
            <ns3:hr>171</ns3:hr>
            <ns3:cad>0</ns3:cad>
          </ns3:TrackPointExtension>
        </extensions>
      </trkpt>
      <trkpt lat="44.67939983122050762176513671875" lon="6.82604935951530933380126953125">
        <ele>2447.199951171875</ele>
        <time>2026-08-31T06:53:47.000Z</time>
        <extensions>
          <ns3:TrackPointExtension>
            <ns3:hr>171</ns3:hr>
            <ns3:cad>0</ns3:cad>
          </ns3:TrackPointExtension>
        </extensions>
      </trkpt>
      <trkpt lat="44.6794071234762668609619140625" lon="6.82604567147791385650634765625">
        <ele>2447.39990234375</ele>
        <time>2026-08-31T06:53:48.000Z</time>
        <extensions>
          <ns3:TrackPointExtension>
            <ns3:hr>171</ns3:hr>
            <ns3:cad>0</ns3:cad>
          </ns3:TrackPointExtension>
        </extensions>
      </trkpt>
      <trkpt lat="44.679411314427852630615234375" lon="6.82604148052632808685302734375">
        <ele>2447.60009765625</ele>
        <time>2026-08-31T06:53:49.000Z</time>
        <extensions>
          <ns3:TrackPointExtension>
            <ns3:hr>170</ns3:hr>
            <ns3:cad>0</ns3:cad>
          </ns3:TrackPointExtension>
        </extensions>
      </trkpt>
      <trkpt lat="44.67942195944488048553466796875" lon="6.82602840475738048553466796875">
        <ele>2447.800048828125</ele>
        <time>2026-08-31T06:53:50.000Z</time>
        <extensions>
          <ns3:TrackPointExtension>
            <ns3:hr>171</ns3:hr>
            <ns3:cad>0</ns3:cad>
          </ns3:TrackPointExtension>
        </extensions>
      </trkpt>
      <trkpt lat="44.67943101190030574798583984375" lon="6.826020777225494384765625">
        <ele>2448</ele>
        <time>2026-08-31T06:53:51.000Z</time>
        <extensions>
          <ns3:TrackPointExtension>
            <ns3:hr>171</ns3:hr>
            <ns3:cad>0</ns3:cad>
          </ns3:TrackPointExtension>
        </extensions>
      </trkpt>
      <trkpt lat="44.6794369630515575408935546875" lon="6.826015412807464599609375">
        <ele>2448.199951171875</ele>
        <time>2026-08-31T06:53:52.000Z</time>
        <extensions>
          <ns3:TrackPointExtension>
            <ns3:hr>171</ns3:hr>
            <ns3:cad>0</ns3:cad>
          </ns3:TrackPointExtension>
        </extensions>
      </trkpt>
      <trkpt lat="44.6794429980218410491943359375" lon="6.826008372008800506591796875">
        <ele>2448.39990234375</ele>
        <time>2026-08-31T06:53:53.000Z</time>
        <extensions>
          <ns3:TrackPointExtension>
            <ns3:hr>172</ns3:hr>
            <ns3:cad>0</ns3:cad>
          </ns3:TrackPointExtension>
        </extensions>
      </trkpt>
      <trkpt lat="44.6794490329921245574951171875" lon="6.82599856518208980560302734375">
        <ele>2448.60009765625</ele>
        <time>2026-08-31T06:53:54.000Z</time>
        <extensions>
          <ns3:TrackPointExtension>
            <ns3:hr>172</ns3:hr>
            <ns3:cad>0</ns3:cad>
          </ns3:TrackPointExtension>
        </extensions>
      </trkpt>
      <trkpt lat="44.67945649288594722747802734375" lon="6.8259900994598865509033203125">
        <ele>2448.800048828125</ele>
        <time>2026-08-31T06:53:55.000Z</time>
        <extensions>
          <ns3:TrackPointExtension>
            <ns3:hr>173</ns3:hr>
            <ns3:cad>0</ns3:cad>
          </ns3:TrackPointExtension>
        </extensions>
      </trkpt>
      <trkpt lat="44.67946269549429416656494140625" lon="6.82598096318542957305908203125">
        <ele>2449</ele>
        <time>2026-08-31T06:53:56.000Z</time>
        <extensions>
          <ns3:TrackPointExtension>
            <ns3:hr>174</ns3:hr>
            <ns3:cad>0</ns3:cad>
          </ns3:TrackPointExtension>
        </extensions>
      </trkpt>
      <trkpt lat="44.6794681437313556671142578125" lon="6.825972832739353179931640625">
        <ele>2449.199951171875</ele>
        <time>2026-08-31T06:53:57.000Z</time>
        <extensions>
          <ns3:TrackPointExtension>
            <ns3:hr>174</ns3:hr>
            <ns3:cad>0</ns3:cad>
          </ns3:TrackPointExtension>
        </extensions>
      </trkpt>
      <trkpt lat="44.67947225086390972137451171875" lon="6.82596805505454540252685546875">
        <ele>2449.39990234375</ele>
        <time>2026-08-31T06:53:58.000Z</time>
        <extensions>
          <ns3:TrackPointExtension>
            <ns3:hr>175</ns3:hr>
            <ns3:cad>0</ns3:cad>
          </ns3:TrackPointExtension>
        </extensions>
      </trkpt>
      <trkpt lat="44.679481722414493560791015625" lon="6.82595363818109035491943359375">
        <ele>2449.60009765625</ele>
        <time>2026-08-31T06:53:59.000Z</time>
        <extensions>
          <ns3:TrackPointExtension>
            <ns3:hr>175</ns3:hr>
            <ns3:cad>0</ns3:cad>
          </ns3:TrackPointExtension>
        </extensions>
      </trkpt>
      <trkpt lat="44.67948582954704761505126953125" lon="6.82594609446823596954345703125">
        <ele>2449.800048828125</ele>
        <time>2026-08-31T06:54:00.000Z</time>
        <extensions>
          <ns3:TrackPointExtension>
            <ns3:hr>175</ns3:hr>
            <ns3:cad>0</ns3:cad>
          </ns3:TrackPointExtension>
        </extensions>
      </trkpt>
      <trkpt lat="44.67948800884187221527099609375" lon="6.8259408138692378997802734375">
        <ele>2450.199951171875</ele>
        <time>2026-08-31T06:54:01.000Z</time>
        <extensions>
          <ns3:TrackPointExtension>
            <ns3:hr>175</ns3:hr>
            <ns3:cad>0</ns3:cad>
          </ns3:TrackPointExtension>
        </extensions>
      </trkpt>
      <trkpt lat="44.679493121802806854248046875" lon="6.8259317614138126373291015625">
        <ele>2450.60009765625</ele>
        <time>2026-08-31T06:54:02.000Z</time>
        <extensions>
          <ns3:TrackPointExtension>
            <ns3:hr>175</ns3:hr>
            <ns3:cad>53</ns3:cad>
          </ns3:TrackPointExtension>
        </extensions>
      </trkpt>
      <trkpt lat="44.67949144542217254638671875" lon="6.82592782191932201385498046875">
        <ele>2450.800048828125</ele>
        <time>2026-08-31T06:54:03.000Z</time>
        <extensions>
          <ns3:TrackPointExtension>
            <ns3:hr>175</ns3:hr>
            <ns3:cad>53</ns3:cad>
          </ns3:TrackPointExtension>
        </extensions>
      </trkpt>
      <trkpt lat="44.67949253506958484649658203125" lon="6.82592220604419708251953125">
        <ele>2451.199951171875</ele>
        <time>2026-08-31T06:54:04.000Z</time>
        <extensions>
          <ns3:TrackPointExtension>
            <ns3:hr>176</ns3:hr>
            <ns3:cad>0</ns3:cad>
          </ns3:TrackPointExtension>
        </extensions>
      </trkpt>
      <trkpt lat="44.67949454672634601593017578125" lon="6.8259166739881038665771484375">
        <ele>2451.39990234375</ele>
        <time>2026-08-31T06:54:05.000Z</time>
        <extensions>
          <ns3:TrackPointExtension>
            <ns3:hr>176</ns3:hr>
            <ns3:cad>0</ns3:cad>
          </ns3:TrackPointExtension>
        </extensions>
      </trkpt>
      <trkpt lat="44.679499156773090362548828125" lon="6.82590619660913944244384765625">
        <ele>2451.60009765625</ele>
        <time>2026-08-31T06:54:06.000Z</time>
        <extensions>
          <ns3:TrackPointExtension>
            <ns3:hr>176</ns3:hr>
            <ns3:cad>0</ns3:cad>
          </ns3:TrackPointExtension>
        </extensions>
      </trkpt>
      <trkpt lat="44.6795023418962955474853515625" lon="6.82589513249695301055908203125">
        <ele>2452</ele>
        <time>2026-08-31T06:54:07.000Z</time>
        <extensions>
          <ns3:TrackPointExtension>
            <ns3:hr>176</ns3:hr>
            <ns3:cad>0</ns3:cad>
          </ns3:TrackPointExtension>
        </extensions>
      </trkpt>
      <trkpt lat="44.6795060299336910247802734375" lon="6.82588440366089344024658203125">
        <ele>2452.199951171875</ele>
        <time>2026-08-31T06:54:08.000Z</time>
        <extensions>
          <ns3:TrackPointExtension>
            <ns3:hr>176</ns3:hr>
            <ns3:cad>0</ns3:cad>
          </ns3:TrackPointExtension>
        </extensions>
      </trkpt>
      <trkpt lat="44.67951080761849880218505859375" lon="6.82587048970162868499755859375">
        <ele>2452.39990234375</ele>
        <time>2026-08-31T06:54:09.000Z</time>
        <extensions>
          <ns3:TrackPointExtension>
            <ns3:hr>177</ns3:hr>
            <ns3:cad>0</ns3:cad>
          </ns3:TrackPointExtension>
        </extensions>
      </trkpt>
      <trkpt lat="44.67951499857008457183837890625" lon="6.82586546055972576141357421875">
        <ele>2452.800048828125</ele>
        <time>2026-08-31T06:54:10.000Z</time>
        <extensions>
          <ns3:TrackPointExtension>
            <ns3:hr>177</ns3:hr>
            <ns3:cad>0</ns3:cad>
          </ns3:TrackPointExtension>
        </extensions>
      </trkpt>
      <trkpt lat="44.679523967206478118896484375" lon="6.825852133333683013916015625">
        <ele>2453</ele>
        <time>2026-08-31T06:54:11.000Z</time>
        <extensions>
          <ns3:TrackPointExtension>
            <ns3:hr>177</ns3:hr>
            <ns3:cad>0</ns3:cad>
          </ns3:TrackPointExtension>
        </extensions>
      </trkpt>
      <trkpt lat="44.6795294992625713348388671875" lon="6.82584618218243122100830078125">
        <ele>2453</ele>
        <time>2026-08-31T06:54:12.000Z</time>
        <extensions>
          <ns3:TrackPointExtension>
            <ns3:hr>177</ns3:hr>
            <ns3:cad>0</ns3:cad>
          </ns3:TrackPointExtension>
        </extensions>
      </trkpt>
      <trkpt lat="44.67953729443252086639404296875" lon="6.8258385546505451202392578125">
        <ele>2453.199951171875</ele>
        <time>2026-08-31T06:54:13.000Z</time>
        <extensions>
          <ns3:TrackPointExtension>
            <ns3:hr>177</ns3:hr>
            <ns3:cad>0</ns3:cad>
          </ns3:TrackPointExtension>
        </extensions>
      </trkpt>
      <trkpt lat="44.67954332940280437469482421875" lon="6.82583176530897617340087890625">
        <ele>2453.39990234375</ele>
        <time>2026-08-31T06:54:14.000Z</time>
        <extensions>
          <ns3:TrackPointExtension>
            <ns3:hr>177</ns3:hr>
            <ns3:cad>0</ns3:cad>
          </ns3:TrackPointExtension>
        </extensions>
      </trkpt>
      <trkpt lat="44.67954953201115131378173828125" lon="6.82582656852900981903076171875">
        <ele>2453.39990234375</ele>
        <time>2026-08-31T06:54:15.000Z</time>
        <extensions>
          <ns3:TrackPointExtension>
            <ns3:hr>178</ns3:hr>
            <ns3:cad>0</ns3:cad>
          </ns3:TrackPointExtension>
        </extensions>
      </trkpt>
      <trkpt lat="44.6795556508004665374755859375" lon="6.82582070119678974151611328125">
        <ele>2453.60009765625</ele>
        <time>2026-08-31T06:54:16.000Z</time>
        <extensions>
          <ns3:TrackPointExtension>
            <ns3:hr>178</ns3:hr>
            <ns3:cad>0</ns3:cad>
          </ns3:TrackPointExtension>
        </extensions>
      </trkpt>
      <trkpt lat="44.67955657280981540679931640625" lon="6.82582288049161434173583984375">
        <ele>2454</ele>
        <time>2026-08-31T06:54:17.000Z</time>
        <extensions>
          <ns3:TrackPointExtension>
            <ns3:hr>178</ns3:hr>
            <ns3:cad>0</ns3:cad>
          </ns3:TrackPointExtension>
        </extensions>
      </trkpt>
      <trkpt lat="44.67955657280981540679931640625" lon="6.82582288049161434173583984375">
        <ele>2454.199951171875</ele>
        <time>2026-08-31T06:54:18.000Z</time>
        <extensions>
          <ns3:TrackPointExtension>
            <ns3:hr>177</ns3:hr>
            <ns3:cad>0</ns3:cad>
          </ns3:TrackPointExtension>
        </extensions>
      </trkpt>
      <trkpt lat="44.67955657280981540679931640625" lon="6.82582288049161434173583984375">
        <ele>2454.39990234375</ele>
        <time>2026-08-31T06:54:19.000Z</time>
        <extensions>
          <ns3:TrackPointExtension>
            <ns3:hr>177</ns3:hr>
            <ns3:cad>0</ns3:cad>
          </ns3:TrackPointExtension>
        </extensions>
      </trkpt>
      <trkpt lat="44.67955640517175197601318359375" lon="6.825823299586772918701171875">
        <ele>2454.39990234375</ele>
        <time>2026-08-31T06:54:20.000Z</time>
        <extensions>
          <ns3:TrackPointExtension>
            <ns3:hr>177</ns3:hr>
            <ns3:cad>0</ns3:cad>
          </ns3:TrackPointExtension>
        </extensions>
      </trkpt>
      <trkpt lat="44.67955774627625942230224609375" lon="6.82581868954002857208251953125">
        <ele>2454.60009765625</ele>
        <time>2026-08-31T06:54:21.000Z</time>
        <extensions>
          <ns3:TrackPointExtension>
            <ns3:hr>177</ns3:hr>
            <ns3:cad>0</ns3:cad>
          </ns3:TrackPointExtension>
        </extensions>
      </trkpt>
      <trkpt lat="44.679563529789447784423828125" lon="6.825809217989444732666015625">
        <ele>2454.60009765625</ele>
        <time>2026-08-31T06:54:22.000Z</time>
        <extensions>
          <ns3:TrackPointExtension>
            <ns3:hr>177</ns3:hr>
            <ns3:cad>0</ns3:cad>
          </ns3:TrackPointExtension>
        </extensions>
      </trkpt>
      <trkpt lat="44.67956461943686008453369140625" lon="6.82580628432333469390869140625">
        <ele>2454.800048828125</ele>
        <time>2026-08-31T06:54:23.000Z</time>
        <extensions>
          <ns3:TrackPointExtension>
            <ns3:hr>177</ns3:hr>
            <ns3:cad>0</ns3:cad>
          </ns3:TrackPointExtension>
        </extensions>
      </trkpt>
      <trkpt lat="44.6795683912932872772216796875" lon="6.82579907588660717010498046875">
        <ele>2455.199951171875</ele>
        <time>2026-08-31T06:54:24.000Z</time>
        <extensions>
          <ns3:TrackPointExtension>
            <ns3:hr>177</ns3:hr>
            <ns3:cad>0</ns3:cad>
          </ns3:TrackPointExtension>
        </extensions>
      </trkpt>
      <trkpt lat="44.67957300134003162384033203125" lon="6.82579052634537220001220703125">
        <ele>2455.39990234375</ele>
        <time>2026-08-31T06:54:25.000Z</time>
        <extensions>
          <ns3:TrackPointExtension>
            <ns3:hr>178</ns3:hr>
            <ns3:cad>0</ns3:cad>
          </ns3:TrackPointExtension>
        </extensions>
      </trkpt>
      <trkpt lat="44.67957668937742710113525390625" lon="6.82578281499445438385009765625">
        <ele>2455.60009765625</ele>
        <time>2026-08-31T06:54:26.000Z</time>
        <extensions>
          <ns3:TrackPointExtension>
            <ns3:hr>177</ns3:hr>
            <ns3:cad>0</ns3:cad>
          </ns3:TrackPointExtension>
        </extensions>
      </trkpt>
      <trkpt lat="44.679582975804805755615234375" lon="6.825777702033519744873046875">
        <ele>2455.800048828125</ele>
        <time>2026-08-31T06:54:27.000Z</time>
        <extensions>
          <ns3:TrackPointExtension>
            <ns3:hr>177</ns3:hr>
            <ns3:cad>0</ns3:cad>
          </ns3:TrackPointExtension>
        </extensions>
      </trkpt>
      <trkpt lat="44.67958658002316951751708984375" lon="6.8257748521864414215087890625">
        <ele>2455.800048828125</ele>
        <time>2026-08-31T06:54:28.000Z</time>
        <extensions>
          <ns3:TrackPointExtension>
            <ns3:hr>177</ns3:hr>
            <ns3:cad>0</ns3:cad>
          </ns3:TrackPointExtension>
        </extensions>
      </trkpt>
      <trkpt lat="44.6795908547937870025634765625" lon="6.8257681466639041900634765625">
        <ele>2456</ele>
        <time>2026-08-31T06:54:29.000Z</time>
        <extensions>
          <ns3:TrackPointExtension>
            <ns3:hr>175</ns3:hr>
            <ns3:cad>0</ns3:cad>
          </ns3:TrackPointExtension>
        </extensions>
      </trkpt>
      <trkpt lat="44.6795938722789287567138671875" lon="6.8257641233503818511962890625">
        <ele>2456</ele>
        <time>2026-08-31T06:54:30.000Z</time>
        <extensions>
          <ns3:TrackPointExtension>
            <ns3:hr>173</ns3:hr>
            <ns3:cad>0</ns3:cad>
          </ns3:TrackPointExtension>
        </extensions>
      </trkpt>
      <trkpt lat="44.6795995719730854034423828125" lon="6.8257564119994640350341796875">
        <ele>2456.199951171875</ele>
        <time>2026-08-31T06:54:31.000Z</time>
        <extensions>
          <ns3:TrackPointExtension>
            <ns3:hr>171</ns3:hr>
            <ns3:cad>0</ns3:cad>
          </ns3:TrackPointExtension>
        </extensions>
      </trkpt>
      <trkpt lat="44.67960719950497150421142578125" lon="6.8257533945143222808837890625">
        <ele>2456.199951171875</ele>
        <time>2026-08-31T06:54:32.000Z</time>
        <extensions>
          <ns3:TrackPointExtension>
            <ns3:hr>169</ns3:hr>
            <ns3:cad>0</ns3:cad>
          </ns3:TrackPointExtension>
        </extensions>
      </trkpt>
      <trkpt lat="44.6796160005033016204833984375" lon="6.82575783692300319671630859375">
        <ele>2456.60009765625</ele>
        <time>2026-08-31T06:54:33.000Z</time>
        <extensions>
          <ns3:TrackPointExtension>
            <ns3:hr>169</ns3:hr>
            <ns3:cad>0</ns3:cad>
          </ns3:TrackPointExtension>
        </extensions>
      </trkpt>
      <trkpt lat="44.67962295748293399810791015625" lon="6.8257644586265087127685546875">
        <ele>2456.800048828125</ele>
        <time>2026-08-31T06:54:34.000Z</time>
        <extensions>
          <ns3:TrackPointExtension>
            <ns3:hr>168</ns3:hr>
            <ns3:cad>0</ns3:cad>
          </ns3:TrackPointExtension>
        </extensions>
      </trkpt>
      <trkpt lat="44.67962983064353466033935546875" lon="6.82577812112867832183837890625">
        <ele>2457.199951171875</ele>
        <time>2026-08-31T06:54:35.000Z</time>
        <extensions>
          <ns3:TrackPointExtension>
            <ns3:hr>168</ns3:hr>
            <ns3:cad>0</ns3:cad>
          </ns3:TrackPointExtension>
        </extensions>
      </trkpt>
      <trkpt lat="44.67963687144219875335693359375" lon="6.82579052634537220001220703125">
        <ele>2457.60009765625</ele>
        <time>2026-08-31T06:54:36.000Z</time>
        <extensions>
          <ns3:TrackPointExtension>
            <ns3:hr>168</ns3:hr>
            <ns3:cad>0</ns3:cad>
          </ns3:TrackPointExtension>
        </extensions>
      </trkpt>
      <trkpt lat="44.67963435687124729156494140625" lon="6.82578650303184986114501953125">
        <ele>2457.800048828125</ele>
        <time>2026-08-31T06:54:37.000Z</time>
        <extensions>
          <ns3:TrackPointExtension>
            <ns3:hr>167</ns3:hr>
            <ns3:cad>0</ns3:cad>
          </ns3:TrackPointExtension>
        </extensions>
      </trkpt>
      <trkpt lat="44.67963988892734050750732421875" lon="6.82578734122216701507568359375">
        <ele>2458</ele>
        <time>2026-08-31T06:54:38.000Z</time>
        <extensions>
          <ns3:TrackPointExtension>
            <ns3:hr>167</ns3:hr>
            <ns3:cad>0</ns3:cad>
          </ns3:TrackPointExtension>
        </extensions>
      </trkpt>
      <trkpt lat="44.6796444989740848541259765625" lon="6.82578382082283496856689453125">
        <ele>2458.199951171875</ele>
        <time>2026-08-31T06:54:39.000Z</time>
        <extensions>
          <ns3:TrackPointExtension>
            <ns3:hr>166</ns3:hr>
            <ns3:cad>0</ns3:cad>
          </ns3:TrackPointExtension>
        </extensions>
      </trkpt>
      <trkpt lat="44.67965346761047840118408203125" lon="6.825777702033519744873046875">
        <ele>2458.39990234375</ele>
        <time>2026-08-31T06:54:40.000Z</time>
        <extensions>
          <ns3:TrackPointExtension>
            <ns3:hr>166</ns3:hr>
            <ns3:cad>0</ns3:cad>
          </ns3:TrackPointExtension>
        </extensions>
      </trkpt>
      <trkpt lat="44.6796589158475399017333984375" lon="6.825771331787109375">
        <ele>2458.60009765625</ele>
        <time>2026-08-31T06:54:41.000Z</time>
        <extensions>
          <ns3:TrackPointExtension>
            <ns3:hr>165</ns3:hr>
            <ns3:cad>0</ns3:cad>
          </ns3:TrackPointExtension>
        </extensions>
      </trkpt>
      <trkpt lat="44.6796622686088085174560546875" lon="6.8257678113877773284912109375">
        <ele>2458.800048828125</ele>
        <time>2026-08-31T06:54:42.000Z</time>
        <extensions>
          <ns3:TrackPointExtension>
            <ns3:hr>165</ns3:hr>
            <ns3:cad>0</ns3:cad>
          </ns3:TrackPointExtension>
        </extensions>
      </trkpt>
      <trkpt lat="44.6796656213700771331787109375" lon="6.82575984857976436614990234375">
        <ele>2458.800048828125</ele>
        <time>2026-08-31T06:54:43.000Z</time>
        <extensions>
          <ns3:TrackPointExtension>
            <ns3:hr>164</ns3:hr>
            <ns3:cad>0</ns3:cad>
          </ns3:TrackPointExtension>
        </extensions>
      </trkpt>
      <trkpt lat="44.6796652860939502716064453125" lon="6.82575590908527374267578125">
        <ele>2459</ele>
        <time>2026-08-31T06:54:44.000Z</time>
        <extensions>
          <ns3:TrackPointExtension>
            <ns3:hr>164</ns3:hr>
            <ns3:cad>0</ns3:cad>
          </ns3:TrackPointExtension>
        </extensions>
      </trkpt>
      <trkpt lat="44.67967123724520206451416015625" lon="6.82574518024921417236328125">
        <ele>2459.199951171875</ele>
        <time>2026-08-31T06:54:45.000Z</time>
        <extensions>
          <ns3:TrackPointExtension>
            <ns3:hr>164</ns3:hr>
            <ns3:cad>0</ns3:cad>
          </ns3:TrackPointExtension>
        </extensions>
      </trkpt>
      <trkpt lat="44.67967291362583637237548828125" lon="6.82574224658310413360595703125">
        <ele>2459.39990234375</ele>
        <time>2026-08-31T06:54:46.000Z</time>
        <extensions>
          <ns3:TrackPointExtension>
            <ns3:hr>163</ns3:hr>
            <ns3:cad>0</ns3:cad>
          </ns3:TrackPointExtension>
        </extensions>
      </trkpt>
      <trkpt lat="44.67968146316707134246826171875" lon="6.8257362954318523406982421875">
        <ele>2459.60009765625</ele>
        <time>2026-08-31T06:54:47.000Z</time>
        <extensions>
          <ns3:TrackPointExtension>
            <ns3:hr>163</ns3:hr>
            <ns3:cad>0</ns3:cad>
          </ns3:TrackPointExtension>
        </extensions>
      </trkpt>
      <trkpt lat="44.679687581956386566162109375" lon="6.825730092823505401611328125">
        <ele>2459.800048828125</ele>
        <time>2026-08-31T06:54:48.000Z</time>
        <extensions>
          <ns3:TrackPointExtension>
            <ns3:hr>164</ns3:hr>
            <ns3:cad>0</ns3:cad>
          </ns3:TrackPointExtension>
        </extensions>
      </trkpt>
      <trkpt lat="44.67969671823084354400634765625" lon="6.82571760378777980804443359375">
        <ele>2460</ele>
        <time>2026-08-31T06:54:49.000Z</time>
        <extensions>
          <ns3:TrackPointExtension>
            <ns3:hr>164</ns3:hr>
            <ns3:cad>0</ns3:cad>
          </ns3:TrackPointExtension>
        </extensions>
      </trkpt>
      <trkpt lat="44.6797014959156513214111328125" lon="6.82571173645555973052978515625">
        <ele>2460.199951171875</ele>
        <time>2026-08-31T06:54:50.000Z</time>
        <extensions>
          <ns3:TrackPointExtension>
            <ns3:hr>166</ns3:hr>
            <ns3:cad>0</ns3:cad>
          </ns3:TrackPointExtension>
        </extensions>
      </trkpt>
      <trkpt lat="44.67970208264887332916259765625" lon="6.82571223936975002288818359375">
        <ele>2460.39990234375</ele>
        <time>2026-08-31T06:54:51.000Z</time>
        <extensions>
          <ns3:TrackPointExtension>
            <ns3:hr>168</ns3:hr>
            <ns3:cad>0</ns3:cad>
          </ns3:TrackPointExtension>
        </extensions>
      </trkpt>
      <trkpt lat="44.67971331439912319183349609375" lon="6.825706623494625091552734375">
        <ele>2460.60009765625</ele>
        <time>2026-08-31T06:54:52.000Z</time>
        <extensions>
          <ns3:TrackPointExtension>
            <ns3:hr>168</ns3:hr>
            <ns3:cad>0</ns3:cad>
          </ns3:TrackPointExtension>
        </extensions>
      </trkpt>
      <trkpt lat="44.6797241270542144775390625" lon="6.8256994150578975677490234375">
        <ele>2460.800048828125</ele>
        <time>2026-08-31T06:54:53.000Z</time>
        <extensions>
          <ns3:TrackPointExtension>
            <ns3:hr>170</ns3:hr>
            <ns3:cad>0</ns3:cad>
          </ns3:TrackPointExtension>
        </extensions>
      </trkpt>
      <trkpt lat="44.67972689308226108551025390625" lon="6.8256913684308528900146484375">
        <ele>2461</ele>
        <time>2026-08-31T06:54:54.000Z</time>
        <extensions>
          <ns3:TrackPointExtension>
            <ns3:hr>169</ns3:hr>
            <ns3:cad>0</ns3:cad>
          </ns3:TrackPointExtension>
        </extensions>
      </trkpt>
      <trkpt lat="44.67972689308226108551025390625" lon="6.82569086551666259765625">
        <ele>2461.199951171875</ele>
        <time>2026-08-31T06:54:55.000Z</time>
        <extensions>
          <ns3:TrackPointExtension>
            <ns3:hr>169</ns3:hr>
            <ns3:cad>0</ns3:cad>
          </ns3:TrackPointExtension>
        </extensions>
      </trkpt>
      <trkpt lat="44.67973359860479831695556640625" lon="6.82568022049963474273681640625">
        <ele>2461.199951171875</ele>
        <time>2026-08-31T06:54:56.000Z</time>
        <extensions>
          <ns3:TrackPointExtension>
            <ns3:hr>168</ns3:hr>
            <ns3:cad>0</ns3:cad>
          </ns3:TrackPointExtension>
        </extensions>
      </trkpt>
      <trkpt lat="44.67973980121314525604248046875" lon="6.8256749399006366729736328125">
        <ele>2461.39990234375</ele>
        <time>2026-08-31T06:54:57.000Z</time>
        <extensions>
          <ns3:TrackPointExtension>
            <ns3:hr>168</ns3:hr>
            <ns3:cad>0</ns3:cad>
          </ns3:TrackPointExtension>
        </extensions>
      </trkpt>
      <trkpt lat="44.67974625527858734130859375" lon="6.82566580362617969512939453125">
        <ele>2461.60009765625</ele>
        <time>2026-08-31T06:54:58.000Z</time>
        <extensions>
          <ns3:TrackPointExtension>
            <ns3:hr>168</ns3:hr>
            <ns3:cad>0</ns3:cad>
          </ns3:TrackPointExtension>
        </extensions>
      </trkpt>
      <trkpt lat="44.67975371517241001129150390625" lon="6.82565943337976932525634765625">
        <ele>2462</ele>
        <time>2026-08-31T06:54:59.000Z</time>
        <extensions>
          <ns3:TrackPointExtension>
            <ns3:hr>167</ns3:hr>
            <ns3:cad>0</ns3:cad>
          </ns3:TrackPointExtension>
        </extensions>
      </trkpt>
      <trkpt lat="44.679764024913311004638671875" lon="6.825654320418834686279296875">
        <ele>2462</ele>
        <time>2026-08-31T06:55:00.000Z</time>
        <extensions>
          <ns3:TrackPointExtension>
            <ns3:hr>167</ns3:hr>
            <ns3:cad>0</ns3:cad>
          </ns3:TrackPointExtension>
        </extensions>
      </trkpt>
      <trkpt lat="44.67977441847324371337890625" lon="6.8256571702659130096435546875">
        <ele>2462.39990234375</ele>
        <time>2026-08-31T06:55:01.000Z</time>
        <extensions>
          <ns3:TrackPointExtension>
            <ns3:hr>166</ns3:hr>
            <ns3:cad>0</ns3:cad>
          </ns3:TrackPointExtension>
        </extensions>
      </trkpt>
      <trkpt lat="44.6797822974622249603271484375" lon="6.82566094212234020233154296875">
        <ele>2462.60009765625</ele>
        <time>2026-08-31T06:55:02.000Z</time>
        <extensions>
          <ns3:TrackPointExtension>
            <ns3:hr>167</ns3:hr>
            <ns3:cad>0</ns3:cad>
          </ns3:TrackPointExtension>
        </extensions>
      </trkpt>
      <trkpt lat="44.67979185283184051513671875" lon="6.82567351497709751129150390625">
        <ele>2462.800048828125</ele>
        <time>2026-08-31T06:55:03.000Z</time>
        <extensions>
          <ns3:TrackPointExtension>
            <ns3:hr>167</ns3:hr>
            <ns3:cad>0</ns3:cad>
          </ns3:TrackPointExtension>
        </extensions>
      </trkpt>
      <trkpt lat="44.679794199764728546142578125" lon="6.82568239979445934295654296875">
        <ele>2463</ele>
        <time>2026-08-31T06:55:04.000Z</time>
        <extensions>
          <ns3:TrackPointExtension>
            <ns3:hr>168</ns3:hr>
            <ns3:cad>0</ns3:cad>
          </ns3:TrackPointExtension>
        </extensions>
      </trkpt>
      <trkpt lat="44.6797938644886016845703125" lon="6.82569061405956745147705078125">
        <ele>2463.39990234375</ele>
        <time>2026-08-31T06:55:05.000Z</time>
        <extensions>
          <ns3:TrackPointExtension>
            <ns3:hr>168</ns3:hr>
            <ns3:cad>0</ns3:cad>
          </ns3:TrackPointExtension>
        </extensions>
      </trkpt>
      <trkpt lat="44.6797950379550457000732421875" lon="6.8256930448114871978759765625">
        <ele>2463.60009765625</ele>
        <time>2026-08-31T06:55:06.000Z</time>
        <extensions>
          <ns3:TrackPointExtension>
            <ns3:hr>169</ns3:hr>
            <ns3:cad>0</ns3:cad>
          </ns3:TrackPointExtension>
        </extensions>
      </trkpt>
      <trkpt lat="44.67979512177407741546630859375" lon="6.8256927095353603363037109375">
        <ele>2463.800048828125</ele>
        <time>2026-08-31T06:55:07.000Z</time>
        <extensions>
          <ns3:TrackPointExtension>
            <ns3:hr>169</ns3:hr>
            <ns3:cad>0</ns3:cad>
          </ns3:TrackPointExtension>
        </extensions>
      </trkpt>
      <trkpt lat="44.679795205593109130859375" lon="6.82569262571632862091064453125">
        <ele>2464</ele>
        <time>2026-08-31T06:55:08.000Z</time>
        <extensions>
          <ns3:TrackPointExtension>
            <ns3:hr>169</ns3:hr>
            <ns3:cad>0</ns3:cad>
          </ns3:TrackPointExtension>
        </extensions>
      </trkpt>
      <trkpt lat="44.67979897744953632354736328125" lon="6.82568944059312343597412109375">
        <ele>2464.199951171875</ele>
        <time>2026-08-31T06:55:09.000Z</time>
        <extensions>
          <ns3:TrackPointExtension>
            <ns3:hr>169</ns3:hr>
            <ns3:cad>0</ns3:cad>
          </ns3:TrackPointExtension>
        </extensions>
      </trkpt>
      <trkpt lat="44.679808281362056732177734375" lon="6.825679130852222442626953125">
        <ele>2464.39990234375</ele>
        <time>2026-08-31T06:55:10.000Z</time>
        <extensions>
          <ns3:TrackPointExtension>
            <ns3:hr>170</ns3:hr>
            <ns3:cad>0</ns3:cad>
          </ns3:TrackPointExtension>
        </extensions>
      </trkpt>
      <trkpt lat="44.67981322668492794036865234375" lon="6.8256747722625732421875">
        <ele>2464.60009765625</ele>
        <time>2026-08-31T06:55:11.000Z</time>
        <extensions>
          <ns3:TrackPointExtension>
            <ns3:hr>169</ns3:hr>
            <ns3:cad>0</ns3:cad>
          </ns3:TrackPointExtension>
        </extensions>
      </trkpt>
      <trkpt lat="44.6798201836645603179931640625" lon="6.82566932402551174163818359375">
        <ele>2464.800048828125</ele>
        <time>2026-08-31T06:55:12.000Z</time>
        <extensions>
          <ns3:TrackPointExtension>
            <ns3:hr>170</ns3:hr>
            <ns3:cad>0</ns3:cad>
          </ns3:TrackPointExtension>
        </extensions>
      </trkpt>
      <trkpt lat="44.67982144095003604888916015625" lon="6.8256665579974651336669921875">
        <ele>2465</ele>
        <time>2026-08-31T06:55:13.000Z</time>
        <extensions>
          <ns3:TrackPointExtension>
            <ns3:hr>169</ns3:hr>
            <ns3:cad>0</ns3:cad>
          </ns3:TrackPointExtension>
        </extensions>
      </trkpt>
      <trkpt lat="44.6798287332057952880859375" lon="6.82565842755138874053955078125">
        <ele>2465.199951171875</ele>
        <time>2026-08-31T06:55:14.000Z</time>
        <extensions>
          <ns3:TrackPointExtension>
            <ns3:hr>169</ns3:hr>
            <ns3:cad>0</ns3:cad>
          </ns3:TrackPointExtension>
        </extensions>
      </trkpt>
      <trkpt lat="44.679834432899951934814453125" lon="6.8256564997136592864990234375">
        <ele>2465.199951171875</ele>
        <time>2026-08-31T06:55:15.000Z</time>
        <extensions>
          <ns3:TrackPointExtension>
            <ns3:hr>168</ns3:hr>
            <ns3:cad>0</ns3:cad>
          </ns3:TrackPointExtension>
        </extensions>
      </trkpt>
      <trkpt lat="44.67983971349895000457763671875" lon="6.82565725408494472503662109375">
        <ele>2465.39990234375</ele>
        <time>2026-08-31T06:55:16.000Z</time>
        <extensions>
          <ns3:TrackPointExtension>
            <ns3:hr>168</ns3:hr>
            <ns3:cad>0</ns3:cad>
          </ns3:TrackPointExtension>
        </extensions>
      </trkpt>
      <trkpt lat="44.67984675429761409759521484375" lon="6.82565608061850070953369140625">
        <ele>2465.39990234375</ele>
        <time>2026-08-31T06:55:17.000Z</time>
        <extensions>
          <ns3:TrackPointExtension>
            <ns3:hr>167</ns3:hr>
            <ns3:cad>0</ns3:cad>
          </ns3:TrackPointExtension>
        </extensions>
      </trkpt>
      <trkpt lat="44.67984943650662899017333984375" lon="6.82564954273402690887451171875">
        <ele>2465.60009765625</ele>
        <time>2026-08-31T06:55:18.000Z</time>
        <extensions>
          <ns3:TrackPointExtension>
            <ns3:hr>167</ns3:hr>
            <ns3:cad>0</ns3:cad>
          </ns3:TrackPointExtension>
        </extensions>
      </trkpt>
      <trkpt lat="44.6798528730869293212890625" lon="6.8256373889744281768798828125">
        <ele>2465.800048828125</ele>
        <time>2026-08-31T06:55:19.000Z</time>
        <extensions>
          <ns3:TrackPointExtension>
            <ns3:hr>167</ns3:hr>
            <ns3:cad>0</ns3:cad>
          </ns3:TrackPointExtension>
        </extensions>
      </trkpt>
      <trkpt lat="44.6798547171056270599365234375" lon="6.82563160546123981475830078125">
        <ele>2466</ele>
        <time>2026-08-31T06:55:20.000Z</time>
        <extensions>
          <ns3:TrackPointExtension>
            <ns3:hr>167</ns3:hr>
            <ns3:cad>0</ns3:cad>
          </ns3:TrackPointExtension>
        </extensions>
      </trkpt>
      <trkpt lat="44.67986217699944972991943359375" lon="6.82562858797609806060791015625">
        <ele>2466.39990234375</ele>
        <time>2026-08-31T06:55:21.000Z</time>
        <extensions>
          <ns3:TrackPointExtension>
            <ns3:hr>167</ns3:hr>
            <ns3:cad>0</ns3:cad>
          </ns3:TrackPointExtension>
        </extensions>
      </trkpt>
      <trkpt lat="44.67986485920846462249755859375" lon="6.8256303481757640838623046875">
        <ele>2466.60009765625</ele>
        <time>2026-08-31T06:55:22.000Z</time>
        <extensions>
          <ns3:TrackPointExtension>
            <ns3:hr>167</ns3:hr>
            <ns3:cad>0</ns3:cad>
          </ns3:TrackPointExtension>
        </extensions>
      </trkpt>
      <trkpt lat="44.6798704750835895538330078125" lon="6.8256246484816074371337890625">
        <ele>2466.800048828125</ele>
        <time>2026-08-31T06:55:23.000Z</time>
        <extensions>
          <ns3:TrackPointExtension>
            <ns3:hr>168</ns3:hr>
            <ns3:cad>0</ns3:cad>
          </ns3:TrackPointExtension>
        </extensions>
      </trkpt>
      <trkpt lat="44.67987374402582645416259765625" lon="6.825615428388118743896484375">
        <ele>2467</ele>
        <time>2026-08-31T06:55:24.000Z</time>
        <extensions>
          <ns3:TrackPointExtension>
            <ns3:hr>169</ns3:hr>
            <ns3:cad>0</ns3:cad>
          </ns3:TrackPointExtension>
        </extensions>
      </trkpt>
      <trkpt lat="44.67988011427223682403564453125" lon="6.82560796849429607391357421875">
        <ele>2467.199951171875</ele>
        <time>2026-08-31T06:55:25.000Z</time>
        <extensions>
          <ns3:TrackPointExtension>
            <ns3:hr>169</ns3:hr>
            <ns3:cad>0</ns3:cad>
          </ns3:TrackPointExtension>
        </extensions>
      </trkpt>
      <trkpt lat="44.6798835508525371551513671875" lon="6.8256035260856151580810546875">
        <ele>2467.39990234375</ele>
        <time>2026-08-31T06:55:26.000Z</time>
        <extensions>
          <ns3:TrackPointExtension>
            <ns3:hr>169</ns3:hr>
            <ns3:cad>0</ns3:cad>
          </ns3:TrackPointExtension>
        </extensions>
      </trkpt>
      <trkpt lat="44.67989084310829639434814453125" lon="6.82559740729629993438720703125">
        <ele>2467.60009765625</ele>
        <time>2026-08-31T06:55:27.000Z</time>
        <extensions>
          <ns3:TrackPointExtension>
            <ns3:hr>170</ns3:hr>
            <ns3:cad>0</ns3:cad>
          </ns3:TrackPointExtension>
        </extensions>
      </trkpt>
      <trkpt lat="44.67989536933600902557373046875" lon="6.8255917914211750030517578125">
        <ele>2467.800048828125</ele>
        <time>2026-08-31T06:55:28.000Z</time>
        <extensions>
          <ns3:TrackPointExtension>
            <ns3:hr>169</ns3:hr>
            <ns3:cad>0</ns3:cad>
          </ns3:TrackPointExtension>
        </extensions>
      </trkpt>
      <trkpt lat="44.6799053438007831573486328125" lon="6.82558282278478145599365234375">
        <ele>2467.800048828125</ele>
        <time>2026-08-31T06:55:29.000Z</time>
        <extensions>
          <ns3:TrackPointExtension>
            <ns3:hr>170</ns3:hr>
            <ns3:cad>0</ns3:cad>
          </ns3:TrackPointExtension>
        </extensions>
      </trkpt>
      <trkpt lat="44.67991280369460582733154296875" lon="6.82557645253837108612060546875">
        <ele>2468</ele>
        <time>2026-08-31T06:55:30.000Z</time>
        <extensions>
          <ns3:TrackPointExtension>
            <ns3:hr>170</ns3:hr>
            <ns3:cad>0</ns3:cad>
          </ns3:TrackPointExtension>
        </extensions>
      </trkpt>
      <trkpt lat="44.6799257956445217132568359375" lon="6.8255703337490558624267578125">
        <ele>2468.199951171875</ele>
        <time>2026-08-31T06:55:31.000Z</time>
        <extensions>
          <ns3:TrackPointExtension>
            <ns3:hr>171</ns3:hr>
            <ns3:cad>0</ns3:cad>
          </ns3:TrackPointExtension>
        </extensions>
      </trkpt>
      <trkpt lat="44.67993535101413726806640625" lon="6.82557326741516590118408203125">
        <ele>2468.39990234375</ele>
        <time>2026-08-31T06:55:32.000Z</time>
        <extensions>
          <ns3:TrackPointExtension>
            <ns3:hr>171</ns3:hr>
            <ns3:cad>0</ns3:cad>
          </ns3:TrackPointExtension>
        </extensions>
      </trkpt>
      <trkpt lat="44.67994339764118194580078125" lon="6.825579218566417694091796875">
        <ele>2468.800048828125</ele>
        <time>2026-08-31T06:55:33.000Z</time>
        <extensions>
          <ns3:TrackPointExtension>
            <ns3:hr>172</ns3:hr>
            <ns3:cad>0</ns3:cad>
          </ns3:TrackPointExtension>
        </extensions>
      </trkpt>
      <trkpt lat="44.6799475885927677154541015625" lon="6.82559371925890445709228515625">
        <ele>2469</ele>
        <time>2026-08-31T06:55:34.000Z</time>
        <extensions>
          <ns3:TrackPointExtension>
            <ns3:hr>172</ns3:hr>
            <ns3:cad>0</ns3:cad>
          </ns3:TrackPointExtension>
        </extensions>
      </trkpt>
      <trkpt lat="44.67994918115437030792236328125" lon="6.825597994029521942138671875">
        <ele>2469.199951171875</ele>
        <time>2026-08-31T06:55:35.000Z</time>
        <extensions>
          <ns3:TrackPointExtension>
            <ns3:hr>172</ns3:hr>
            <ns3:cad>0</ns3:cad>
          </ns3:TrackPointExtension>
        </extensions>
      </trkpt>
      <trkpt lat="44.67995454557240009307861328125" lon="6.82561467401683330535888671875">
        <ele>2469.39990234375</ele>
        <time>2026-08-31T06:55:36.000Z</time>
        <extensions>
          <ns3:TrackPointExtension>
            <ns3:hr>172</ns3:hr>
            <ns3:cad>0</ns3:cad>
          </ns3:TrackPointExtension>
        </extensions>
      </trkpt>
      <trkpt lat="44.67995739541947841644287109375" lon="6.82562825269997119903564453125">
        <ele>2469.60009765625</ele>
        <time>2026-08-31T06:55:37.000Z</time>
        <extensions>
          <ns3:TrackPointExtension>
            <ns3:hr>172</ns3:hr>
            <ns3:cad>0</ns3:cad>
          </ns3:TrackPointExtension>
        </extensions>
      </trkpt>
      <trkpt lat="44.679955802857875823974609375" lon="6.82563118636608123779296875">
        <ele>2469.800048828125</ele>
        <time>2026-08-31T06:55:38.000Z</time>
        <extensions>
          <ns3:TrackPointExtension>
            <ns3:hr>172</ns3:hr>
            <ns3:cad>0</ns3:cad>
          </ns3:TrackPointExtension>
        </extensions>
      </trkpt>
      <trkpt lat="44.67995555140078067779541015625" lon="6.82562959380447864532470703125">
        <ele>2470</ele>
        <time>2026-08-31T06:55:39.000Z</time>
        <extensions>
          <ns3:TrackPointExtension>
            <ns3:hr>171</ns3:hr>
            <ns3:cad>0</ns3:cad>
          </ns3:TrackPointExtension>
        </extensions>
      </trkpt>
      <trkpt lat="44.679955802857875823974609375" lon="6.82562984526157379150390625">
        <ele>2470.199951171875</ele>
        <time>2026-08-31T06:55:40.000Z</time>
        <extensions>
          <ns3:TrackPointExtension>
            <ns3:hr>171</ns3:hr>
            <ns3:cad>0</ns3:cad>
          </ns3:TrackPointExtension>
        </extensions>
      </trkpt>
      <trkpt lat="44.679955802857875823974609375" lon="6.82562984526157379150390625">
        <ele>2470.199951171875</ele>
        <time>2026-08-31T06:55:41.000Z</time>
        <extensions>
          <ns3:TrackPointExtension>
            <ns3:hr>170</ns3:hr>
            <ns3:cad>0</ns3:cad>
          </ns3:TrackPointExtension>
        </extensions>
      </trkpt>
      <trkpt lat="44.679955802857875823974609375" lon="6.82562984526157379150390625">
        <ele>2470.199951171875</ele>
        <time>2026-08-31T06:55:42.000Z</time>
        <extensions>
          <ns3:TrackPointExtension>
            <ns3:hr>170</ns3:hr>
            <ns3:cad>0</ns3:cad>
          </ns3:TrackPointExtension>
        </extensions>
      </trkpt>
      <trkpt lat="44.679955802857875823974609375" lon="6.82562984526157379150390625">
        <ele>2470.199951171875</ele>
        <time>2026-08-31T06:55:43.000Z</time>
        <extensions>
          <ns3:TrackPointExtension>
            <ns3:hr>171</ns3:hr>
            <ns3:cad>0</ns3:cad>
          </ns3:TrackPointExtension>
        </extensions>
      </trkpt>
      <trkpt lat="44.67995622195303440093994140625" lon="6.825630180537700653076171875">
        <ele>2470.199951171875</ele>
        <time>2026-08-31T06:55:44.000Z</time>
        <extensions>
          <ns3:TrackPointExtension>
            <ns3:hr>170</ns3:hr>
            <ns3:cad>0</ns3:cad>
          </ns3:TrackPointExtension>
        </extensions>
      </trkpt>
      <trkpt lat="44.679957814514636993408203125" lon="6.8256323598325252532958984375">
        <ele>2470.199951171875</ele>
        <time>2026-08-31T06:55:45.000Z</time>
        <extensions>
          <ns3:TrackPointExtension>
            <ns3:hr>170</ns3:hr>
            <ns3:cad>0</ns3:cad>
          </ns3:TrackPointExtension>
        </extensions>
      </trkpt>
      <trkpt lat="44.67996024526655673980712890625" lon="6.82564283721148967742919921875">
        <ele>2470.39990234375</ele>
        <time>2026-08-31T06:55:46.000Z</time>
        <extensions>
          <ns3:TrackPointExtension>
            <ns3:hr>170</ns3:hr>
            <ns3:cad>0</ns3:cad>
          </ns3:TrackPointExtension>
        </extensions>
      </trkpt>
      <trkpt lat="44.6799633465707302093505859375" lon="6.82565188966691493988037109375">
        <ele>2470.39990234375</ele>
        <time>2026-08-31T06:55:47.000Z</time>
        <extensions>
          <ns3:TrackPointExtension>
            <ns3:hr>169</ns3:hr>
            <ns3:cad>0</ns3:cad>
          </ns3:TrackPointExtension>
        </extensions>
      </trkpt>
      <trkpt lat="44.67996477149426937103271484375" lon="6.82565867900848388671875">
        <ele>2470.60009765625</ele>
        <time>2026-08-31T06:55:48.000Z</time>
        <extensions>
          <ns3:TrackPointExtension>
            <ns3:hr>169</ns3:hr>
            <ns3:cad>0</ns3:cad>
          </ns3:TrackPointExtension>
        </extensions>
      </trkpt>
      <trkpt lat="44.67996795661747455596923828125" lon="6.82566873729228973388671875">
        <ele>2470.800048828125</ele>
        <time>2026-08-31T06:55:49.000Z</time>
        <extensions>
          <ns3:TrackPointExtension>
            <ns3:hr>169</ns3:hr>
            <ns3:cad>0</ns3:cad>
          </ns3:TrackPointExtension>
        </extensions>
      </trkpt>
      <trkpt lat="44.67996896244585514068603515625" lon="6.825681142508983612060546875">
        <ele>2471</ele>
        <time>2026-08-31T06:55:50.000Z</time>
        <extensions>
          <ns3:TrackPointExtension>
            <ns3:hr>169</ns3:hr>
            <ns3:cad>0</ns3:cad>
          </ns3:TrackPointExtension>
        </extensions>
      </trkpt>
      <trkpt lat="44.679969884455204010009765625" lon="6.82569229044020175933837890625">
        <ele>2471.39990234375</ele>
        <time>2026-08-31T06:55:51.000Z</time>
        <extensions>
          <ns3:TrackPointExtension>
            <ns3:hr>168</ns3:hr>
            <ns3:cad>0</ns3:cad>
          </ns3:TrackPointExtension>
        </extensions>
      </trkpt>
      <trkpt lat="44.67996929772198200225830078125" lon="6.82569480501115322113037109375">
        <ele>2471.60009765625</ele>
        <time>2026-08-31T06:55:52.000Z</time>
        <extensions>
          <ns3:TrackPointExtension>
            <ns3:hr>168</ns3:hr>
            <ns3:cad>0</ns3:cad>
          </ns3:TrackPointExtension>
        </extensions>
      </trkpt>
      <trkpt lat="44.6799695491790771484375" lon="6.82570670731365680694580078125">
        <ele>2471.800048828125</ele>
        <time>2026-08-31T06:55:53.000Z</time>
        <extensions>
          <ns3:TrackPointExtension>
            <ns3:hr>168</ns3:hr>
            <ns3:cad>0</ns3:cad>
          </ns3:TrackPointExtension>
        </extensions>
      </trkpt>
      <trkpt lat="44.679969884455204010009765625" lon="6.8257168494164943695068359375">
        <ele>2472</ele>
        <time>2026-08-31T06:55:54.000Z</time>
        <extensions>
          <ns3:TrackPointExtension>
            <ns3:hr>167</ns3:hr>
            <ns3:cad>0</ns3:cad>
          </ns3:TrackPointExtension>
        </extensions>
      </trkpt>
      <trkpt lat="44.67997130937874317169189453125" lon="6.82573989965021610260009765625">
        <ele>2472.199951171875</ele>
        <time>2026-08-31T06:55:55.000Z</time>
        <extensions>
          <ns3:TrackPointExtension>
            <ns3:hr>167</ns3:hr>
            <ns3:cad>0</ns3:cad>
          </ns3:TrackPointExtension>
        </extensions>
      </trkpt>
      <trkpt lat="44.67997533269226551055908203125" lon="6.82575188577175140380859375">
        <ele>2472.39990234375</ele>
        <time>2026-08-31T06:55:56.000Z</time>
        <extensions>
          <ns3:TrackPointExtension>
            <ns3:hr>166</ns3:hr>
            <ns3:cad>0</ns3:cad>
          </ns3:TrackPointExtension>
        </extensions>
      </trkpt>
      <trkpt lat="44.6799750812351703643798828125" lon="6.825758256018161773681640625">
        <ele>2472.60009765625</ele>
        <time>2026-08-31T06:55:57.000Z</time>
        <extensions>
          <ns3:TrackPointExtension>
            <ns3:hr>167</ns3:hr>
            <ns3:cad>0</ns3:cad>
          </ns3:TrackPointExtension>
        </extensions>
      </trkpt>
      <trkpt lat="44.67997784726321697235107421875" lon="6.82577342726290225982666015625">
        <ele>2472.60009765625</ele>
        <time>2026-08-31T06:55:58.000Z</time>
        <extensions>
          <ns3:TrackPointExtension>
            <ns3:hr>167</ns3:hr>
            <ns3:cad>0</ns3:cad>
          </ns3:TrackPointExtension>
        </extensions>
      </trkpt>
      <trkpt lat="44.67998254112899303436279296875" lon="6.825781054794788360595703125">
        <ele>2472.800048828125</ele>
        <time>2026-08-31T06:55:59.000Z</time>
        <extensions>
          <ns3:TrackPointExtension>
            <ns3:hr>166</ns3:hr>
            <ns3:cad>0</ns3:cad>
          </ns3:TrackPointExtension>
        </extensions>
      </trkpt>
      <trkpt lat="44.67998388223350048065185546875" lon="6.825797148048877716064453125">
        <ele>2473</ele>
        <time>2026-08-31T06:56:00.000Z</time>
        <extensions>
          <ns3:TrackPointExtension>
            <ns3:hr>166</ns3:hr>
            <ns3:cad>0</ns3:cad>
          </ns3:TrackPointExtension>
        </extensions>
      </trkpt>
      <trkpt lat="44.67998589389026165008544921875" lon="6.82580661959946155548095703125">
        <ele>2473.199951171875</ele>
        <time>2026-08-31T06:56:01.000Z</time>
        <extensions>
          <ns3:TrackPointExtension>
            <ns3:hr>166</ns3:hr>
            <ns3:cad>0</ns3:cad>
          </ns3:TrackPointExtension>
        </extensions>
      </trkpt>
      <trkpt lat="44.67998472042381763458251953125" lon="6.82582070119678974151611328125">
        <ele>2473.39990234375</ele>
        <time>2026-08-31T06:56:02.000Z</time>
        <extensions>
          <ns3:TrackPointExtension>
            <ns3:hr>166</ns3:hr>
            <ns3:cad>0</ns3:cad>
          </ns3:TrackPointExtension>
        </extensions>
      </trkpt>
      <trkpt lat="44.67998840846121311187744140625" lon="6.8258316814899444580078125">
        <ele>2473.800048828125</ele>
        <time>2026-08-31T06:56:03.000Z</time>
        <extensions>
          <ns3:TrackPointExtension>
            <ns3:hr>166</ns3:hr>
            <ns3:cad>0</ns3:cad>
          </ns3:TrackPointExtension>
        </extensions>
      </trkpt>
      <trkpt lat="44.6799878217279911041259765625" lon="6.82583830319344997406005859375">
        <ele>2474</ele>
        <time>2026-08-31T06:56:04.000Z</time>
        <extensions>
          <ns3:TrackPointExtension>
            <ns3:hr>166</ns3:hr>
            <ns3:cad>0</ns3:cad>
          </ns3:TrackPointExtension>
        </extensions>
      </trkpt>
      <trkpt lat="44.67998824082314968109130859375" lon="6.8258523009717464447021484375">
        <ele>2474.199951171875</ele>
        <time>2026-08-31T06:56:05.000Z</time>
        <extensions>
          <ns3:TrackPointExtension>
            <ns3:hr>166</ns3:hr>
            <ns3:cad>0</ns3:cad>
          </ns3:TrackPointExtension>
        </extensions>
      </trkpt>
      <trkpt lat="44.67999008484184741973876953125" lon="6.825860179960727691650390625">
        <ele>2474.39990234375</ele>
        <time>2026-08-31T06:56:06.000Z</time>
        <extensions>
          <ns3:TrackPointExtension>
            <ns3:hr>166</ns3:hr>
            <ns3:cad>0</ns3:cad>
          </ns3:TrackPointExtension>
        </extensions>
      </trkpt>
      <trkpt lat="44.67999293468892574310302734375" lon="6.82586998678743839263916015625">
        <ele>2474.60009765625</ele>
        <time>2026-08-31T06:56:07.000Z</time>
        <extensions>
          <ns3:TrackPointExtension>
            <ns3:hr>166</ns3:hr>
            <ns3:cad>0</ns3:cad>
          </ns3:TrackPointExtension>
        </extensions>
      </trkpt>
      <trkpt lat="44.679994024336338043212890625" lon="6.82588088326156139373779296875">
        <ele>2474.800048828125</ele>
        <time>2026-08-31T06:56:08.000Z</time>
        <extensions>
          <ns3:TrackPointExtension>
            <ns3:hr>166</ns3:hr>
            <ns3:cad>0</ns3:cad>
          </ns3:TrackPointExtension>
        </extensions>
      </trkpt>
      <trkpt lat="44.67999410815536975860595703125" lon="6.82589915581047534942626953125">
        <ele>2475</ele>
        <time>2026-08-31T06:56:09.000Z</time>
        <extensions>
          <ns3:TrackPointExtension>
            <ns3:hr>166</ns3:hr>
            <ns3:cad>0</ns3:cad>
          </ns3:TrackPointExtension>
        </extensions>
      </trkpt>
      <trkpt lat="44.67999243177473545074462890625" lon="6.8259079568088054656982421875">
        <ele>2475.199951171875</ele>
        <time>2026-08-31T06:56:10.000Z</time>
        <extensions>
          <ns3:TrackPointExtension>
            <ns3:hr>166</ns3:hr>
            <ns3:cad>0</ns3:cad>
          </ns3:TrackPointExtension>
        </extensions>
      </trkpt>
      <trkpt lat="44.67998924665153026580810546875" lon="6.825924217700958251953125">
        <ele>2475.39990234375</ele>
        <time>2026-08-31T06:56:11.000Z</time>
        <extensions>
          <ns3:TrackPointExtension>
            <ns3:hr>166</ns3:hr>
            <ns3:cad>0</ns3:cad>
          </ns3:TrackPointExtension>
        </extensions>
      </trkpt>
      <trkpt lat="44.67999025247991085052490234375" lon="6.825935281813144683837890625">
        <ele>2475.60009765625</ele>
        <time>2026-08-31T06:56:12.000Z</time>
        <extensions>
          <ns3:TrackPointExtension>
            <ns3:hr>166</ns3:hr>
            <ns3:cad>76</ns3:cad>
          </ns3:TrackPointExtension>
        </extensions>
      </trkpt>
      <trkpt lat="44.6799905039370059967041015625" lon="6.82595062069594860076904296875">
        <ele>2475.800048828125</ele>
        <time>2026-08-31T06:56:13.000Z</time>
        <extensions>
          <ns3:TrackPointExtension>
            <ns3:hr>166</ns3:hr>
            <ns3:cad>76</ns3:cad>
          </ns3:TrackPointExtension>
        </extensions>
      </trkpt>
      <trkpt lat="44.6799915097653865814208984375" lon="6.8259652890264987945556640625">
        <ele>2475.800048828125</ele>
        <time>2026-08-31T06:56:14.000Z</time>
        <extensions>
          <ns3:TrackPointExtension>
            <ns3:hr>166</ns3:hr>
            <ns3:cad>76</ns3:cad>
          </ns3:TrackPointExtension>
        </extensions>
      </trkpt>
      <trkpt lat="44.6799945272505283355712890625" lon="6.82598129846155643463134765625">
        <ele>2476</ele>
        <time>2026-08-31T06:56:15.000Z</time>
        <extensions>
          <ns3:TrackPointExtension>
            <ns3:hr>165</ns3:hr>
            <ns3:cad>76</ns3:cad>
          </ns3:TrackPointExtension>
        </extensions>
      </trkpt>
      <trkpt lat="44.680000059306621551513671875" lon="6.8259817175567150115966796875">
        <ele>2476.199951171875</ele>
        <time>2026-08-31T06:56:16.000Z</time>
        <extensions>
          <ns3:TrackPointExtension>
            <ns3:hr>166</ns3:hr>
            <ns3:cad>76</ns3:cad>
          </ns3:TrackPointExtension>
        </extensions>
      </trkpt>
      <trkpt lat="44.6800005622208118438720703125" lon="6.8259790353477001190185546875">
        <ele>2476.39990234375</ele>
        <time>2026-08-31T06:56:17.000Z</time>
        <extensions>
          <ns3:TrackPointExtension>
            <ns3:hr>170</ns3:hr>
            <ns3:cad>76</ns3:cad>
          </ns3:TrackPointExtension>
        </extensions>
      </trkpt>
      <trkpt lat="44.68000450171530246734619140625" lon="6.825962103903293609619140625">
        <ele>2476.60009765625</ele>
        <time>2026-08-31T06:56:18.000Z</time>
        <extensions>
          <ns3:TrackPointExtension>
            <ns3:hr>178</ns3:hr>
            <ns3:cad>76</ns3:cad>
          </ns3:TrackPointExtension>
        </extensions>
      </trkpt>
      <trkpt lat="44.680006094276905059814453125" lon="6.82595531456172466278076171875">
        <ele>2476.800048828125</ele>
        <time>2026-08-31T06:56:19.000Z</time>
        <extensions>
          <ns3:TrackPointExtension>
            <ns3:hr>180</ns3:hr>
            <ns3:cad>76</ns3:cad>
          </ns3:TrackPointExtension>
        </extensions>
      </trkpt>
      <trkpt lat="44.68000349588692188262939453125" lon="6.82595464400947093963623046875">
        <ele>2477</ele>
        <time>2026-08-31T06:56:20.000Z</time>
        <extensions>
          <ns3:TrackPointExtension>
            <ns3:hr>180</ns3:hr>
            <ns3:cad>0</ns3:cad>
          </ns3:TrackPointExtension>
        </extensions>
      </trkpt>
      <trkpt lat="44.68000374734401702880859375" lon="6.82595665566623210906982421875">
        <ele>2477.199951171875</ele>
        <time>2026-08-31T06:56:21.000Z</time>
        <extensions>
          <ns3:TrackPointExtension>
            <ns3:hr>180</ns3:hr>
            <ns3:cad>0</ns3:cad>
          </ns3:TrackPointExtension>
        </extensions>
      </trkpt>
      <trkpt lat="44.6800032444298267364501953125" lon="6.8259502016007900238037109375">
        <ele>2477.199951171875</ele>
        <time>2026-08-31T06:56:22.000Z</time>
        <extensions>
          <ns3:TrackPointExtension>
            <ns3:hr>180</ns3:hr>
            <ns3:cad>0</ns3:cad>
          </ns3:TrackPointExtension>
        </extensions>
      </trkpt>
      <trkpt lat="44.68000316061079502105712890625" lon="6.82595011778175830841064453125">
        <ele>2477.39990234375</ele>
        <time>2026-08-31T06:56:23.000Z</time>
        <extensions>
          <ns3:TrackPointExtension>
            <ns3:hr>180</ns3:hr>
            <ns3:cad>0</ns3:cad>
          </ns3:TrackPointExtension>
        </extensions>
      </trkpt>
      <trkpt lat="44.68000316061079502105712890625" lon="6.82595011778175830841064453125">
        <ele>2477.39990234375</ele>
        <time>2026-08-31T06:56:24.000Z</time>
        <extensions>
          <ns3:TrackPointExtension>
            <ns3:hr>179</ns3:hr>
            <ns3:cad>0</ns3:cad>
          </ns3:TrackPointExtension>
        </extensions>
      </trkpt>
      <trkpt lat="44.68000316061079502105712890625" lon="6.82595011778175830841064453125">
        <ele>2477.199951171875</ele>
        <time>2026-08-31T06:56:25.000Z</time>
        <extensions>
          <ns3:TrackPointExtension>
            <ns3:hr>179</ns3:hr>
            <ns3:cad>0</ns3:cad>
          </ns3:TrackPointExtension>
        </extensions>
      </trkpt>
      <trkpt lat="44.68000316061079502105712890625" lon="6.8259496986865997314453125">
        <ele>2477.199951171875</ele>
        <time>2026-08-31T06:56:26.000Z</time>
        <extensions>
          <ns3:TrackPointExtension>
            <ns3:hr>178</ns3:hr>
            <ns3:cad>0</ns3:cad>
          </ns3:TrackPointExtension>
        </extensions>
      </trkpt>
      <trkpt lat="44.68000634573400020599365234375" lon="6.82593955658376216888427734375">
        <ele>2477.199951171875</ele>
        <time>2026-08-31T06:56:27.000Z</time>
        <extensions>
          <ns3:TrackPointExtension>
            <ns3:hr>177</ns3:hr>
            <ns3:cad>0</ns3:cad>
          </ns3:TrackPointExtension>
        </extensions>
      </trkpt>
      <trkpt lat="44.68001171015202999114990234375" lon="6.82593050412833690643310546875">
        <ele>2477.39990234375</ele>
        <time>2026-08-31T06:56:28.000Z</time>
        <extensions>
          <ns3:TrackPointExtension>
            <ns3:hr>177</ns3:hr>
            <ns3:cad>0</ns3:cad>
          </ns3:TrackPointExtension>
        </extensions>
      </trkpt>
      <trkpt lat="44.6800106205046176910400390625" lon="6.82592648081481456756591796875">
        <ele>2477.39990234375</ele>
        <time>2026-08-31T06:56:29.000Z</time>
        <extensions>
          <ns3:TrackPointExtension>
            <ns3:hr>177</ns3:hr>
            <ns3:cad>0</ns3:cad>
          </ns3:TrackPointExtension>
        </extensions>
      </trkpt>
      <trkpt lat="44.68001489527523517608642578125" lon="6.8259153328835964202880859375">
        <ele>2477.60009765625</ele>
        <time>2026-08-31T06:56:30.000Z</time>
        <extensions>
          <ns3:TrackPointExtension>
            <ns3:hr>176</ns3:hr>
            <ns3:cad>0</ns3:cad>
          </ns3:TrackPointExtension>
        </extensions>
      </trkpt>
      <trkpt lat="44.68001858331263065338134765625" lon="6.82591843418776988983154296875">
        <ele>2477.800048828125</ele>
        <time>2026-08-31T06:56:31.000Z</time>
        <extensions>
          <ns3:TrackPointExtension>
            <ns3:hr>176</ns3:hr>
            <ns3:cad>0</ns3:cad>
          </ns3:TrackPointExtension>
        </extensions>
      </trkpt>
      <trkpt lat="44.68002260662615299224853515625" lon="6.82591147720813751220703125">
        <ele>2478</ele>
        <time>2026-08-31T06:56:32.000Z</time>
        <extensions>
          <ns3:TrackPointExtension>
            <ns3:hr>175</ns3:hr>
            <ns3:cad>0</ns3:cad>
          </ns3:TrackPointExtension>
        </extensions>
      </trkpt>
      <trkpt lat="44.6800243668258190155029296875" lon="6.82590586133301258087158203125">
        <ele>2478.199951171875</ele>
        <time>2026-08-31T06:56:33.000Z</time>
        <extensions>
          <ns3:TrackPointExtension>
            <ns3:hr>175</ns3:hr>
            <ns3:cad>0</ns3:cad>
          </ns3:TrackPointExtension>
        </extensions>
      </trkpt>
      <trkpt lat="44.68002595938742160797119140625" lon="6.825899071991443634033203125">
        <ele>2478.39990234375</ele>
        <time>2026-08-31T06:56:34.000Z</time>
        <extensions>
          <ns3:TrackPointExtension>
            <ns3:hr>175</ns3:hr>
            <ns3:cad>0</ns3:cad>
          </ns3:TrackPointExtension>
        </extensions>
      </trkpt>
      <trkpt lat="44.6800324134528636932373046875" lon="6.82588809169828891754150390625">
        <ele>2478.60009765625</ele>
        <time>2026-08-31T06:56:35.000Z</time>
        <extensions>
          <ns3:TrackPointExtension>
            <ns3:hr>174</ns3:hr>
            <ns3:cad>0</ns3:cad>
          </ns3:TrackPointExtension>
        </extensions>
      </trkpt>
      <trkpt lat="44.68003769405186176300048828125" lon="6.82588172145187854766845703125">
        <ele>2478.800048828125</ele>
        <time>2026-08-31T06:56:36.000Z</time>
        <extensions>
          <ns3:TrackPointExtension>
            <ns3:hr>173</ns3:hr>
            <ns3:cad>0</ns3:cad>
          </ns3:TrackPointExtension>
        </extensions>
      </trkpt>
      <trkpt lat="44.68004406429827213287353515625" lon="6.8258697353303432464599609375">
        <ele>2479</ele>
        <time>2026-08-31T06:56:37.000Z</time>
        <extensions>
          <ns3:TrackPointExtension>
            <ns3:hr>172</ns3:hr>
            <ns3:cad>0</ns3:cad>
          </ns3:TrackPointExtension>
        </extensions>
      </trkpt>
      <trkpt lat="44.68005202710628509521484375" lon="6.82586093433201313018798828125">
        <ele>2479.199951171875</ele>
        <time>2026-08-31T06:56:38.000Z</time>
        <extensions>
          <ns3:TrackPointExtension>
            <ns3:hr>172</ns3:hr>
            <ns3:cad>0</ns3:cad>
          </ns3:TrackPointExtension>
        </extensions>
      </trkpt>
      <trkpt lat="44.68005714006721973419189453125" lon="6.825851462781429290771484375">
        <ele>2479.39990234375</ele>
        <time>2026-08-31T06:56:39.000Z</time>
        <extensions>
          <ns3:TrackPointExtension>
            <ns3:hr>172</ns3:hr>
            <ns3:cad>0</ns3:cad>
          </ns3:TrackPointExtension>
        </extensions>
      </trkpt>
      <trkpt lat="44.68006166629493236541748046875" lon="6.82584450580179691314697265625">
        <ele>2479.39990234375</ele>
        <time>2026-08-31T06:56:40.000Z</time>
        <extensions>
          <ns3:TrackPointExtension>
            <ns3:hr>172</ns3:hr>
            <ns3:cad>0</ns3:cad>
          </ns3:TrackPointExtension>
        </extensions>
      </trkpt>
      <trkpt lat="44.6800672821700572967529296875" lon="6.82583075948059558868408203125">
        <ele>2479.60009765625</ele>
        <time>2026-08-31T06:56:41.000Z</time>
        <extensions>
          <ns3:TrackPointExtension>
            <ns3:hr>172</ns3:hr>
            <ns3:cad>0</ns3:cad>
          </ns3:TrackPointExtension>
        </extensions>
      </trkpt>
      <trkpt lat="44.680074490606784820556640625" lon="6.8258204497396945953369140625">
        <ele>2479.800048828125</ele>
        <time>2026-08-31T06:56:42.000Z</time>
        <extensions>
          <ns3:TrackPointExtension>
            <ns3:hr>172</ns3:hr>
            <ns3:cad>0</ns3:cad>
          </ns3:TrackPointExtension>
        </extensions>
      </trkpt>
      <trkpt lat="44.68008429743349552154541015625" lon="6.82581282220780849456787109375">
        <ele>2480</ele>
        <time>2026-08-31T06:56:43.000Z</time>
        <extensions>
          <ns3:TrackPointExtension>
            <ns3:hr>171</ns3:hr>
            <ns3:cad>0</ns3:cad>
          </ns3:TrackPointExtension>
        </extensions>
      </trkpt>
      <trkpt lat="44.6800920926034450531005859375" lon="6.82580125518143177032470703125">
        <ele>2480.199951171875</ele>
        <time>2026-08-31T06:56:44.000Z</time>
        <extensions>
          <ns3:TrackPointExtension>
            <ns3:hr>171</ns3:hr>
            <ns3:cad>0</ns3:cad>
          </ns3:TrackPointExtension>
        </extensions>
      </trkpt>
      <trkpt lat="44.68009837903082370758056640625" lon="6.8257922865450382232666015625">
        <ele>2480.39990234375</ele>
        <time>2026-08-31T06:56:45.000Z</time>
        <extensions>
          <ns3:TrackPointExtension>
            <ns3:hr>171</ns3:hr>
            <ns3:cad>51</ns3:cad>
          </ns3:TrackPointExtension>
        </extensions>
      </trkpt>
      <trkpt lat="44.68010558746755123138427734375" lon="6.8257912807166576385498046875">
        <ele>2480.60009765625</ele>
        <time>2026-08-31T06:56:46.000Z</time>
        <extensions>
          <ns3:TrackPointExtension>
            <ns3:hr>171</ns3:hr>
            <ns3:cad>51</ns3:cad>
          </ns3:TrackPointExtension>
        </extensions>
      </trkpt>
      <trkpt lat="44.68011346645653247833251953125" lon="6.8257879279553890228271484375">
        <ele>2480.800048828125</ele>
        <time>2026-08-31T06:56:47.000Z</time>
        <extensions>
          <ns3:TrackPointExtension>
            <ns3:hr>171</ns3:hr>
            <ns3:cad>51</ns3:cad>
          </ns3:TrackPointExtension>
        </extensions>
      </trkpt>
      <trkpt lat="44.68012000434100627899169921875" lon="6.82578407227993011474609375">
        <ele>2481</ele>
        <time>2026-08-31T06:56:48.000Z</time>
        <extensions>
          <ns3:TrackPointExtension>
            <ns3:hr>170</ns3:hr>
            <ns3:cad>51</ns3:cad>
          </ns3:TrackPointExtension>
        </extensions>
      </trkpt>
      <trkpt lat="44.68012386001646518707275390625" lon="6.82577577419579029083251953125">
        <ele>2481.199951171875</ele>
        <time>2026-08-31T06:56:49.000Z</time>
        <extensions>
          <ns3:TrackPointExtension>
            <ns3:hr>170</ns3:hr>
            <ns3:cad>51</ns3:cad>
          </ns3:TrackPointExtension>
        </extensions>
      </trkpt>
      <trkpt lat="44.6801264584064483642578125" lon="6.82577141560614109039306640625">
        <ele>2481.39990234375</ele>
        <time>2026-08-31T06:56:50.000Z</time>
        <extensions>
          <ns3:TrackPointExtension>
            <ns3:hr>170</ns3:hr>
            <ns3:cad>0</ns3:cad>
          </ns3:TrackPointExtension>
        </extensions>
      </trkpt>
      <trkpt lat="44.68013257719576358795166015625" lon="6.82576152496039867401123046875">
        <ele>2481.60009765625</ele>
        <time>2026-08-31T06:56:51.000Z</time>
        <extensions>
          <ns3:TrackPointExtension>
            <ns3:hr>170</ns3:hr>
            <ns3:cad>0</ns3:cad>
          </ns3:TrackPointExtension>
        </extensions>
      </trkpt>
      <trkpt lat="44.68013592995703220367431640625" lon="6.82575364597141742706298828125">
        <ele>2481.800048828125</ele>
        <time>2026-08-31T06:56:52.000Z</time>
        <extensions>
          <ns3:TrackPointExtension>
            <ns3:hr>169</ns3:hr>
            <ns3:cad>0</ns3:cad>
          </ns3:TrackPointExtension>
        </extensions>
      </trkpt>
      <trkpt lat="44.6801427192986011505126953125" lon="6.82574559934437274932861328125">
        <ele>2482</ele>
        <time>2026-08-31T06:56:53.000Z</time>
        <extensions>
          <ns3:TrackPointExtension>
            <ns3:hr>169</ns3:hr>
            <ns3:cad>0</ns3:cad>
          </ns3:TrackPointExtension>
        </extensions>
      </trkpt>
      <trkpt lat="44.68014917336404323577880859375" lon="6.82573470287024974822998046875">
        <ele>2482</ele>
        <time>2026-08-31T06:56:54.000Z</time>
        <extensions>
          <ns3:TrackPointExtension>
            <ns3:hr>170</ns3:hr>
            <ns3:cad>0</ns3:cad>
          </ns3:TrackPointExtension>
        </extensions>
      </trkpt>
      <trkpt lat="44.6801588125526905059814453125" lon="6.825720369815826416015625">
        <ele>2482.199951171875</ele>
        <time>2026-08-31T06:56:55.000Z</time>
        <extensions>
          <ns3:TrackPointExtension>
            <ns3:hr>170</ns3:hr>
            <ns3:cad>0</ns3:cad>
          </ns3:TrackPointExtension>
        </extensions>
      </trkpt>
      <trkpt lat="44.68016308732330799102783203125" lon="6.82570838369429111480712890625">
        <ele>2482.39990234375</ele>
        <time>2026-08-31T06:56:56.000Z</time>
        <extensions>
          <ns3:TrackPointExtension>
            <ns3:hr>170</ns3:hr>
            <ns3:cad>0</ns3:cad>
          </ns3:TrackPointExtension>
        </extensions>
      </trkpt>
      <trkpt lat="44.6801665239036083221435546875" lon="6.82570159435272216796875">
        <ele>2482.39990234375</ele>
        <time>2026-08-31T06:56:57.000Z</time>
        <extensions>
          <ns3:TrackPointExtension>
            <ns3:hr>170</ns3:hr>
            <ns3:cad>0</ns3:cad>
          </ns3:TrackPointExtension>
        </extensions>
      </trkpt>
      <trkpt lat="44.6801715530455112457275390625" lon="6.82569245807826519012451171875">
        <ele>2482.60009765625</ele>
        <time>2026-08-31T06:56:58.000Z</time>
        <extensions>
          <ns3:TrackPointExtension>
            <ns3:hr>169</ns3:hr>
            <ns3:cad>0</ns3:cad>
          </ns3:TrackPointExtension>
        </extensions>
      </trkpt>
      <trkpt lat="44.6801762469112873077392578125" lon="6.82568323798477649688720703125">
        <ele>2482.60009765625</ele>
        <time>2026-08-31T06:56:59.000Z</time>
        <extensions>
          <ns3:TrackPointExtension>
            <ns3:hr>169</ns3:hr>
            <ns3:cad>0</ns3:cad>
          </ns3:TrackPointExtension>
        </extensions>
      </trkpt>
      <trkpt lat="44.6801827847957611083984375" lon="6.82566546835005283355712890625">
        <ele>2482.800048828125</ele>
        <time>2026-08-31T06:57:00.000Z</time>
        <extensions>
          <ns3:TrackPointExtension>
            <ns3:hr>169</ns3:hr>
            <ns3:cad>0</ns3:cad>
          </ns3:TrackPointExtension>
        </extensions>
      </trkpt>
      <trkpt lat="44.68018806539475917816162109375" lon="6.82565239258110523223876953125">
        <ele>2482.800048828125</ele>
        <time>2026-08-31T06:57:01.000Z</time>
        <extensions>
          <ns3:TrackPointExtension>
            <ns3:hr>169</ns3:hr>
            <ns3:cad>0</ns3:cad>
          </ns3:TrackPointExtension>
        </extensions>
      </trkpt>
      <trkpt lat="44.6801935136318206787109375" lon="6.82564618997275829315185546875">
        <ele>2483</ele>
        <time>2026-08-31T06:57:02.000Z</time>
        <extensions>
          <ns3:TrackPointExtension>
            <ns3:hr>170</ns3:hr>
            <ns3:cad>0</ns3:cad>
          </ns3:TrackPointExtension>
        </extensions>
      </trkpt>
      <trkpt lat="44.68019845895469188690185546875" lon="6.82563520967960357666015625">
        <ele>2483.199951171875</ele>
        <time>2026-08-31T06:57:03.000Z</time>
        <extensions>
          <ns3:TrackPointExtension>
            <ns3:hr>171</ns3:hr>
            <ns3:cad>0</ns3:cad>
          </ns3:TrackPointExtension>
        </extensions>
      </trkpt>
      <trkpt lat="44.6802087686955928802490234375" lon="6.825620792806148529052734375">
        <ele>2483.39990234375</ele>
        <time>2026-08-31T06:57:04.000Z</time>
        <extensions>
          <ns3:TrackPointExtension>
            <ns3:hr>172</ns3:hr>
            <ns3:cad>53</ns3:cad>
          </ns3:TrackPointExtension>
        </extensions>
      </trkpt>
      <trkpt lat="44.6802141331136226654052734375" lon="6.82560704648494720458984375">
        <ele>2483.39990234375</ele>
        <time>2026-08-31T06:57:05.000Z</time>
        <extensions>
          <ns3:TrackPointExtension>
            <ns3:hr>172</ns3:hr>
            <ns3:cad>53</ns3:cad>
          </ns3:TrackPointExtension>
        </extensions>
      </trkpt>
      <trkpt lat="44.68021958135068416595458984375" lon="6.82559606619179248809814453125">
        <ele>2483.60009765625</ele>
        <time>2026-08-31T06:57:06.000Z</time>
        <extensions>
          <ns3:TrackPointExtension>
            <ns3:hr>172</ns3:hr>
            <ns3:cad>53</ns3:cad>
          </ns3:TrackPointExtension>
        </extensions>
      </trkpt>
      <trkpt lat="44.680226705968379974365234375" lon="6.825581230223178863525390625">
        <ele>2483.800048828125</ele>
        <time>2026-08-31T06:57:07.000Z</time>
        <extensions>
          <ns3:TrackPointExtension>
            <ns3:hr>172</ns3:hr>
            <ns3:cad>0</ns3:cad>
          </ns3:TrackPointExtension>
        </extensions>
      </trkpt>
      <trkpt lat="44.68023081310093402862548828125" lon="6.82557477615773677825927734375">
        <ele>2484</ele>
        <time>2026-08-31T06:57:08.000Z</time>
        <extensions>
          <ns3:TrackPointExtension>
            <ns3:hr>172</ns3:hr>
            <ns3:cad>0</ns3:cad>
          </ns3:TrackPointExtension>
        </extensions>
      </trkpt>
      <trkpt lat="44.68023517169058322906494140625" lon="6.82556505315005779266357421875">
        <ele>2484.199951171875</ele>
        <time>2026-08-31T06:57:09.000Z</time>
        <extensions>
          <ns3:TrackPointExtension>
            <ns3:hr>172</ns3:hr>
            <ns3:cad>0</ns3:cad>
          </ns3:TrackPointExtension>
        </extensions>
      </trkpt>
      <trkpt lat="44.68024103902280330657958984375" lon="6.82555742561817169189453125">
        <ele>2484.39990234375</ele>
        <time>2026-08-31T06:57:10.000Z</time>
        <extensions>
          <ns3:TrackPointExtension>
            <ns3:hr>172</ns3:hr>
            <ns3:cad>0</ns3:cad>
          </ns3:TrackPointExtension>
        </extensions>
      </trkpt>
      <trkpt lat="44.68025176785886287689208984375" lon="6.8255619518458843231201171875">
        <ele>2484.60009765625</ele>
        <time>2026-08-31T06:57:11.000Z</time>
        <extensions>
          <ns3:TrackPointExtension>
            <ns3:hr>173</ns3:hr>
            <ns3:cad>0</ns3:cad>
          </ns3:TrackPointExtension>
        </extensions>
      </trkpt>
      <trkpt lat="44.68025855720043182373046875" lon="6.82556404732167720794677734375">
        <ele>2484.800048828125</ele>
        <time>2026-08-31T06:57:12.000Z</time>
        <extensions>
          <ns3:TrackPointExtension>
            <ns3:hr>172</ns3:hr>
            <ns3:cad>52</ns3:cad>
          </ns3:TrackPointExtension>
        </extensions>
      </trkpt>
      <trkpt lat="44.6802620775997638702392578125" lon="6.8255686573684215545654296875">
        <ele>2484.800048828125</ele>
        <time>2026-08-31T06:57:13.000Z</time>
        <extensions>
          <ns3:TrackPointExtension>
            <ns3:hr>172</ns3:hr>
            <ns3:cad>52</ns3:cad>
          </ns3:TrackPointExtension>
        </extensions>
      </trkpt>
      <trkpt lat="44.68026383779942989349365234375" lon="6.8255810625851154327392578125">
        <ele>2485</ele>
        <time>2026-08-31T06:57:14.000Z</time>
        <extensions>
          <ns3:TrackPointExtension>
            <ns3:hr>172</ns3:hr>
            <ns3:cad>52</ns3:cad>
          </ns3:TrackPointExtension>
        </extensions>
      </trkpt>
      <trkpt lat="44.6802664361894130706787109375" lon="6.825591288506984710693359375">
        <ele>2485.199951171875</ele>
        <time>2026-08-31T06:57:15.000Z</time>
        <extensions>
          <ns3:TrackPointExtension>
            <ns3:hr>173</ns3:hr>
            <ns3:cad>0</ns3:cad>
          </ns3:TrackPointExtension>
        </extensions>
      </trkpt>
      <trkpt lat="44.6802674420177936553955078125" lon="6.82559908367693424224853515625">
        <ele>2485.39990234375</ele>
        <time>2026-08-31T06:57:16.000Z</time>
        <extensions>
          <ns3:TrackPointExtension>
            <ns3:hr>173</ns3:hr>
            <ns3:cad>0</ns3:cad>
          </ns3:TrackPointExtension>
        </extensions>
      </trkpt>
      <trkpt lat="44.680271632969379425048828125" lon="6.82561081834137439727783203125">
        <ele>2485.800048828125</ele>
        <time>2026-08-31T06:57:17.000Z</time>
        <extensions>
          <ns3:TrackPointExtension>
            <ns3:hr>173</ns3:hr>
            <ns3:cad>0</ns3:cad>
          </ns3:TrackPointExtension>
        </extensions>
      </trkpt>
      <trkpt lat="44.68027406372129917144775390625" lon="6.82562037371098995208740234375">
        <ele>2486</ele>
        <time>2026-08-31T06:57:18.000Z</time>
        <extensions>
          <ns3:TrackPointExtension>
            <ns3:hr>173</ns3:hr>
            <ns3:cad>0</ns3:cad>
          </ns3:TrackPointExtension>
        </extensions>
      </trkpt>
      <trkpt lat="44.68027590773999691009521484375" lon="6.82562984526157379150390625">
        <ele>2486.199951171875</ele>
        <time>2026-08-31T06:57:19.000Z</time>
        <extensions>
          <ns3:TrackPointExtension>
            <ns3:hr>173</ns3:hr>
            <ns3:cad>0</ns3:cad>
          </ns3:TrackPointExtension>
        </extensions>
      </trkpt>
      <trkpt lat="44.68027724884450435638427734375" lon="6.82563747279345989227294921875">
        <ele>2486.60009765625</ele>
        <time>2026-08-31T06:57:20.000Z</time>
        <extensions>
          <ns3:TrackPointExtension>
            <ns3:hr>173</ns3:hr>
            <ns3:cad>0</ns3:cad>
          </ns3:TrackPointExtension>
        </extensions>
      </trkpt>
      <trkpt lat="44.68027867376804351806640625" lon="6.825651638209819793701171875">
        <ele>2486.800048828125</ele>
        <time>2026-08-31T06:57:21.000Z</time>
        <extensions>
          <ns3:TrackPointExtension>
            <ns3:hr>174</ns3:hr>
            <ns3:cad>0</ns3:cad>
          </ns3:TrackPointExtension>
        </extensions>
      </trkpt>
      <trkpt lat="44.6802793443202972412109375" lon="6.82566597126424312591552734375">
        <ele>2487</ele>
        <time>2026-08-31T06:57:22.000Z</time>
        <extensions>
          <ns3:TrackPointExtension>
            <ns3:hr>174</ns3:hr>
            <ns3:cad>0</ns3:cad>
          </ns3:TrackPointExtension>
        </extensions>
      </trkpt>
      <trkpt lat="44.68027858994901180267333984375" lon="6.825683824717998504638671875">
        <ele>2487.199951171875</ele>
        <time>2026-08-31T06:57:23.000Z</time>
        <extensions>
          <ns3:TrackPointExtension>
            <ns3:hr>175</ns3:hr>
            <ns3:cad>0</ns3:cad>
          </ns3:TrackPointExtension>
        </extensions>
      </trkpt>
      <trkpt lat="44.68027733266353607177734375" lon="6.8256943859159946441650390625">
        <ele>2487.39990234375</ele>
        <time>2026-08-31T06:57:24.000Z</time>
        <extensions>
          <ns3:TrackPointExtension>
            <ns3:hr>176</ns3:hr>
            <ns3:cad>0</ns3:cad>
          </ns3:TrackPointExtension>
        </extensions>
      </trkpt>
      <trkpt lat="44.68027574010193347930908203125" lon="6.8257088027894496917724609375">
        <ele>2487.60009765625</ele>
        <time>2026-08-31T06:57:25.000Z</time>
        <extensions>
          <ns3:TrackPointExtension>
            <ns3:hr>177</ns3:hr>
            <ns3:cad>0</ns3:cad>
          </ns3:TrackPointExtension>
        </extensions>
      </trkpt>
      <trkpt lat="44.6802766621112823486328125" lon="6.825720705091953277587890625">
        <ele>2487.800048828125</ele>
        <time>2026-08-31T06:57:26.000Z</time>
        <extensions>
          <ns3:TrackPointExtension>
            <ns3:hr>178</ns3:hr>
            <ns3:cad>0</ns3:cad>
          </ns3:TrackPointExtension>
        </extensions>
      </trkpt>
      <trkpt lat="44.6802754886448383331298828125" lon="6.8257282488048076629638671875">
        <ele>2487.800048828125</ele>
        <time>2026-08-31T06:57:27.000Z</time>
        <extensions>
          <ns3:TrackPointExtension>
            <ns3:hr>179</ns3:hr>
            <ns3:cad>0</ns3:cad>
          </ns3:TrackPointExtension>
        </extensions>
      </trkpt>
      <trkpt lat="44.6802781708538532257080078125" lon="6.82573788799345493316650390625">
        <ele>2488</ele>
        <time>2026-08-31T06:57:28.000Z</time>
        <extensions>
          <ns3:TrackPointExtension>
            <ns3:hr>179</ns3:hr>
            <ns3:cad>41</ns3:cad>
          </ns3:TrackPointExtension>
        </extensions>
      </trkpt>
      <trkpt lat="44.68027808703482151031494140625" lon="6.8257423304021358489990234375">
        <ele>2488.199951171875</ele>
        <time>2026-08-31T06:57:29.000Z</time>
        <extensions>
          <ns3:TrackPointExtension>
            <ns3:hr>178</ns3:hr>
            <ns3:cad>41</ns3:cad>
          </ns3:TrackPointExtension>
        </extensions>
      </trkpt>
      <trkpt lat="44.68027875758707523345947265625" lon="6.82575993239879608154296875">
        <ele>2488.199951171875</ele>
        <time>2026-08-31T06:57:30.000Z</time>
        <extensions>
          <ns3:TrackPointExtension>
            <ns3:hr>178</ns3:hr>
            <ns3:cad>41</ns3:cad>
          </ns3:TrackPointExtension>
        </extensions>
      </trkpt>
      <trkpt lat="44.6802798472344875335693359375" lon="6.82576471008360385894775390625">
        <ele>2488.39990234375</ele>
        <time>2026-08-31T06:57:31.000Z</time>
        <extensions>
          <ns3:TrackPointExtension>
            <ns3:hr>178</ns3:hr>
            <ns3:cad>41</ns3:cad>
          </ns3:TrackPointExtension>
        </extensions>
      </trkpt>
      <trkpt lat="44.68028043396770954132080078125" lon="6.82577527128159999847412109375">
        <ele>2488.60009765625</ele>
        <time>2026-08-31T06:57:32.000Z</time>
        <extensions>
          <ns3:TrackPointExtension>
            <ns3:hr>178</ns3:hr>
            <ns3:cad>41</ns3:cad>
          </ns3:TrackPointExtension>
        </extensions>
      </trkpt>
      <trkpt lat="44.6802842058241367340087890625" lon="6.82578566484153270721435546875">
        <ele>2488.800048828125</ele>
        <time>2026-08-31T06:57:33.000Z</time>
        <extensions>
          <ns3:TrackPointExtension>
            <ns3:hr>178</ns3:hr>
            <ns3:cad>0</ns3:cad>
          </ns3:TrackPointExtension>
        </extensions>
      </trkpt>
      <trkpt lat="44.68028529547154903411865234375" lon="6.8257914483547210693359375">
        <ele>2489</ele>
        <time>2026-08-31T06:57:34.000Z</time>
        <extensions>
          <ns3:TrackPointExtension>
            <ns3:hr>178</ns3:hr>
            <ns3:cad>0</ns3:cad>
          </ns3:TrackPointExtension>
        </extensions>
      </trkpt>
      <trkpt lat="44.68028403818607330322265625" lon="6.8257979862391948699951171875">
        <ele>2489.199951171875</ele>
        <time>2026-08-31T06:57:35.000Z</time>
        <extensions>
          <ns3:TrackPointExtension>
            <ns3:hr>177</ns3:hr>
            <ns3:cad>0</ns3:cad>
          </ns3:TrackPointExtension>
        </extensions>
      </trkpt>
      <trkpt lat="44.68028781004250049591064453125" lon="6.82580687105655670166015625">
        <ele>2489.39990234375</ele>
        <time>2026-08-31T06:57:36.000Z</time>
        <extensions>
          <ns3:TrackPointExtension>
            <ns3:hr>177</ns3:hr>
            <ns3:cad>0</ns3:cad>
          </ns3:TrackPointExtension>
        </extensions>
      </trkpt>
      <trkpt lat="44.6802899055182933807373046875" lon="6.825813911855220794677734375">
        <ele>2489.60009765625</ele>
        <time>2026-08-31T06:57:37.000Z</time>
        <extensions>
          <ns3:TrackPointExtension>
            <ns3:hr>177</ns3:hr>
            <ns3:cad>0</ns3:cad>
          </ns3:TrackPointExtension>
        </extensions>
      </trkpt>
      <trkpt lat="44.68028948642313480377197265625" lon="6.82582162320613861083984375">
        <ele>2489.800048828125</ele>
        <time>2026-08-31T06:57:38.000Z</time>
        <extensions>
          <ns3:TrackPointExtension>
            <ns3:hr>177</ns3:hr>
            <ns3:cad>0</ns3:cad>
          </ns3:TrackPointExtension>
        </extensions>
      </trkpt>
      <trkpt lat="44.68028940260410308837890625" lon="6.82583008892834186553955078125">
        <ele>2490</ele>
        <time>2026-08-31T06:57:39.000Z</time>
        <extensions>
          <ns3:TrackPointExtension>
            <ns3:hr>178</ns3:hr>
            <ns3:cad>0</ns3:cad>
          </ns3:TrackPointExtension>
        </extensions>
      </trkpt>
      <trkpt lat="44.6802902407944202423095703125" lon="6.82583880610764026641845703125">
        <ele>2490.199951171875</ele>
        <time>2026-08-31T06:57:40.000Z</time>
        <extensions>
          <ns3:TrackPointExtension>
            <ns3:hr>177</ns3:hr>
            <ns3:cad>0</ns3:cad>
          </ns3:TrackPointExtension>
        </extensions>
      </trkpt>
      <trkpt lat="44.6802915818989276885986328125" lon="6.82584366761147975921630859375">
        <ele>2490.39990234375</ele>
        <time>2026-08-31T06:57:41.000Z</time>
        <extensions>
          <ns3:TrackPointExtension>
            <ns3:hr>176</ns3:hr>
            <ns3:cad>0</ns3:cad>
          </ns3:TrackPointExtension>
        </extensions>
      </trkpt>
      <trkpt lat="44.6802927553653717041015625" lon="6.825849115848541259765625">
        <ele>2490.60009765625</ele>
        <time>2026-08-31T06:57:42.000Z</time>
        <extensions>
          <ns3:TrackPointExtension>
            <ns3:hr>176</ns3:hr>
            <ns3:cad>0</ns3:cad>
          </ns3:TrackPointExtension>
        </extensions>
      </trkpt>
      <trkpt lat="44.68029610812664031982421875" lon="6.825859844684600830078125">
        <ele>2490.800048828125</ele>
        <time>2026-08-31T06:57:43.000Z</time>
        <extensions>
          <ns3:TrackPointExtension>
            <ns3:hr>175</ns3:hr>
            <ns3:cad>0</ns3:cad>
          </ns3:TrackPointExtension>
        </extensions>
      </trkpt>
      <trkpt lat="44.680296443402767181396484375" lon="6.82586361654102802276611328125">
        <ele>2491</ele>
        <time>2026-08-31T06:57:44.000Z</time>
        <extensions>
          <ns3:TrackPointExtension>
            <ns3:hr>175</ns3:hr>
            <ns3:cad>0</ns3:cad>
          </ns3:TrackPointExtension>
        </extensions>
      </trkpt>
      <trkpt lat="44.68029585666954517364501953125" lon="6.8258730880916118621826171875">
        <ele>2491.199951171875</ele>
        <time>2026-08-31T06:57:45.000Z</time>
        <extensions>
          <ns3:TrackPointExtension>
            <ns3:hr>175</ns3:hr>
            <ns3:cad>0</ns3:cad>
          </ns3:TrackPointExtension>
        </extensions>
      </trkpt>
      <trkpt lat="44.68029652722179889678955078125" lon="6.82587820105254650115966796875">
        <ele>2491.39990234375</ele>
        <time>2026-08-31T06:57:46.000Z</time>
        <extensions>
          <ns3:TrackPointExtension>
            <ns3:hr>174</ns3:hr>
            <ns3:cad>0</ns3:cad>
          </ns3:TrackPointExtension>
        </extensions>
      </trkpt>
      <trkpt lat="44.68030021525919437408447265625" lon="6.8258885107934474945068359375">
        <ele>2491.60009765625</ele>
        <time>2026-08-31T06:57:47.000Z</time>
        <extensions>
          <ns3:TrackPointExtension>
            <ns3:hr>174</ns3:hr>
            <ns3:cad>0</ns3:cad>
          </ns3:TrackPointExtension>
        </extensions>
      </trkpt>
      <trkpt lat="44.68030172400176525115966796875" lon="6.82589496485888957977294921875">
        <ele>2491.800048828125</ele>
        <time>2026-08-31T06:57:48.000Z</time>
        <extensions>
          <ns3:TrackPointExtension>
            <ns3:hr>174</ns3:hr>
            <ns3:cad>0</ns3:cad>
          </ns3:TrackPointExtension>
        </extensions>
      </trkpt>
      <trkpt lat="44.68030038289725780487060546875" lon="6.8259002454578876495361328125">
        <ele>2492</ele>
        <time>2026-08-31T06:57:49.000Z</time>
        <extensions>
          <ns3:TrackPointExtension>
            <ns3:hr>175</ns3:hr>
            <ns3:cad>0</ns3:cad>
          </ns3:TrackPointExtension>
        </extensions>
      </trkpt>
      <trkpt lat="44.6803008019924163818359375" lon="6.82590032927691936492919921875">
        <ele>2492.199951171875</ele>
        <time>2026-08-31T06:57:50.000Z</time>
        <extensions>
          <ns3:TrackPointExtension>
            <ns3:hr>175</ns3:hr>
            <ns3:cad>0</ns3:cad>
          </ns3:TrackPointExtension>
        </extensions>
      </trkpt>
      <trkpt lat="44.680304490029811859130859375" lon="6.825905106961727142333984375">
        <ele>2492.39990234375</ele>
        <time>2026-08-31T06:57:51.000Z</time>
        <extensions>
          <ns3:TrackPointExtension>
            <ns3:hr>174</ns3:hr>
            <ns3:cad>0</ns3:cad>
          </ns3:TrackPointExtension>
        </extensions>
      </trkpt>
      <trkpt lat="44.6803083457052707672119140625" lon="6.82591357268393039703369140625">
        <ele>2492.60009765625</ele>
        <time>2026-08-31T06:57:52.000Z</time>
        <extensions>
          <ns3:TrackPointExtension>
            <ns3:hr>174</ns3:hr>
            <ns3:cad>0</ns3:cad>
          </ns3:TrackPointExtension>
        </extensions>
      </trkpt>
      <trkpt lat="44.68031547032296657562255859375" lon="6.8259180150926113128662109375">
        <ele>2492.800048828125</ele>
        <time>2026-08-31T06:57:53.000Z</time>
        <extensions>
          <ns3:TrackPointExtension>
            <ns3:hr>173</ns3:hr>
            <ns3:cad>0</ns3:cad>
          </ns3:TrackPointExtension>
        </extensions>
      </trkpt>
      <trkpt lat="44.680315554141998291015625" lon="6.8259227089583873748779296875">
        <ele>2493.199951171875</ele>
        <time>2026-08-31T06:57:54.000Z</time>
        <extensions>
          <ns3:TrackPointExtension>
            <ns3:hr>172</ns3:hr>
            <ns3:cad>0</ns3:cad>
          </ns3:TrackPointExtension>
        </extensions>
      </trkpt>
      <trkpt lat="44.6803170628845691680908203125" lon="6.8259255588054656982421875">
        <ele>2493.39990234375</ele>
        <time>2026-08-31T06:57:55.000Z</time>
        <extensions>
          <ns3:TrackPointExtension>
            <ns3:hr>172</ns3:hr>
            <ns3:cad>0</ns3:cad>
          </ns3:TrackPointExtension>
        </extensions>
      </trkpt>
      <trkpt lat="44.6803170628845691680908203125" lon="6.8259255588054656982421875">
        <ele>2493.39990234375</ele>
        <time>2026-08-31T06:57:56.000Z</time>
        <extensions>
          <ns3:TrackPointExtension>
            <ns3:hr>171</ns3:hr>
            <ns3:cad>0</ns3:cad>
          </ns3:TrackPointExtension>
        </extensions>
      </trkpt>
      <trkpt lat="44.6803170628845691680908203125" lon="6.8259255588054656982421875">
        <ele>2493.60009765625</ele>
        <time>2026-08-31T06:57:57.000Z</time>
        <extensions>
          <ns3:TrackPointExtension>
            <ns3:hr>171</ns3:hr>
            <ns3:cad>0</ns3:cad>
          </ns3:TrackPointExtension>
        </extensions>
      </trkpt>
      <trkpt lat="44.6803170628845691680908203125" lon="6.8259255588054656982421875">
        <ele>2493.60009765625</ele>
        <time>2026-08-31T06:57:58.000Z</time>
        <extensions>
          <ns3:TrackPointExtension>
            <ns3:hr>170</ns3:hr>
            <ns3:cad>0</ns3:cad>
          </ns3:TrackPointExtension>
        </extensions>
      </trkpt>
      <trkpt lat="44.6803170628845691680908203125" lon="6.8259255588054656982421875">
        <ele>2493.39990234375</ele>
        <time>2026-08-31T06:57:59.000Z</time>
        <extensions>
          <ns3:TrackPointExtension>
            <ns3:hr>170</ns3:hr>
            <ns3:cad>0</ns3:cad>
          </ns3:TrackPointExtension>
        </extensions>
      </trkpt>
      <trkpt lat="44.6803170628845691680908203125" lon="6.8259255588054656982421875">
        <ele>2493.39990234375</ele>
        <time>2026-08-31T06:58:00.000Z</time>
        <extensions>
          <ns3:TrackPointExtension>
            <ns3:hr>170</ns3:hr>
            <ns3:cad>0</ns3:cad>
          </ns3:TrackPointExtension>
        </extensions>
      </trkpt>
      <trkpt lat="44.6803170628845691680908203125" lon="6.8259255588054656982421875">
        <ele>2493.39990234375</ele>
        <time>2026-08-31T06:58:01.000Z</time>
        <extensions>
          <ns3:TrackPointExtension>
            <ns3:hr>169</ns3:hr>
            <ns3:cad>0</ns3:cad>
          </ns3:TrackPointExtension>
        </extensions>
      </trkpt>
      <trkpt lat="44.6803170628845691680908203125" lon="6.8259255588054656982421875">
        <ele>2493.39990234375</ele>
        <time>2026-08-31T06:58:02.000Z</time>
        <extensions>
          <ns3:TrackPointExtension>
            <ns3:hr>168</ns3:hr>
            <ns3:cad>0</ns3:cad>
          </ns3:TrackPointExtension>
        </extensions>
      </trkpt>
      <trkpt lat="44.6803170628845691680908203125" lon="6.8259255588054656982421875">
        <ele>2493.39990234375</ele>
        <time>2026-08-31T06:58:03.000Z</time>
        <extensions>
          <ns3:TrackPointExtension>
            <ns3:hr>167</ns3:hr>
            <ns3:cad>0</ns3:cad>
          </ns3:TrackPointExtension>
        </extensions>
      </trkpt>
      <trkpt lat="44.6803170628845691680908203125" lon="6.8259255588054656982421875">
        <ele>2493.39990234375</ele>
        <time>2026-08-31T06:58:04.000Z</time>
        <extensions>
          <ns3:TrackPointExtension>
            <ns3:hr>166</ns3:hr>
            <ns3:cad>0</ns3:cad>
          </ns3:TrackPointExtension>
        </extensions>
      </trkpt>
      <trkpt lat="44.6803170628845691680908203125" lon="6.8259255588054656982421875">
        <ele>2493.199951171875</ele>
        <time>2026-08-31T06:58:05.000Z</time>
        <extensions>
          <ns3:TrackPointExtension>
            <ns3:hr>165</ns3:hr>
            <ns3:cad>0</ns3:cad>
          </ns3:TrackPointExtension>
        </extensions>
      </trkpt>
      <trkpt lat="44.6803170628845691680908203125" lon="6.8259255588054656982421875">
        <ele>2493.199951171875</ele>
        <time>2026-08-31T06:58:06.000Z</time>
        <extensions>
          <ns3:TrackPointExtension>
            <ns3:hr>164</ns3:hr>
            <ns3:cad>0</ns3:cad>
          </ns3:TrackPointExtension>
        </extensions>
      </trkpt>
      <trkpt lat="44.680319242179393768310546875" lon="6.8259277381002902984619140625">
        <ele>2493.199951171875</ele>
        <time>2026-08-31T06:58:07.000Z</time>
        <extensions>
          <ns3:TrackPointExtension>
            <ns3:hr>164</ns3:hr>
            <ns3:cad>0</ns3:cad>
          </ns3:TrackPointExtension>
        </extensions>
      </trkpt>
      <trkpt lat="44.6803227625787258148193359375" lon="6.8259391374886035919189453125">
        <ele>2493.39990234375</ele>
        <time>2026-08-31T06:58:08.000Z</time>
        <extensions>
          <ns3:TrackPointExtension>
            <ns3:hr>163</ns3:hr>
            <ns3:cad>0</ns3:cad>
          </ns3:TrackPointExtension>
        </extensions>
      </trkpt>
      <trkpt lat="44.680327959358692169189453125" lon="6.825948692858219146728515625">
        <ele>2493.39990234375</ele>
        <time>2026-08-31T06:58:09.000Z</time>
        <extensions>
          <ns3:TrackPointExtension>
            <ns3:hr>163</ns3:hr>
            <ns3:cad>0</ns3:cad>
          </ns3:TrackPointExtension>
        </extensions>
      </trkpt>
      <trkpt lat="44.68033307231962680816650390625" lon="6.8259619362652301788330078125">
        <ele>2493.60009765625</ele>
        <time>2026-08-31T06:58:10.000Z</time>
        <extensions>
          <ns3:TrackPointExtension>
            <ns3:hr>162</ns3:hr>
            <ns3:cad>0</ns3:cad>
          </ns3:TrackPointExtension>
        </extensions>
      </trkpt>
      <trkpt lat="44.6803355030715465545654296875" lon="6.82596755214035511016845703125">
        <ele>2494</ele>
        <time>2026-08-31T06:58:11.000Z</time>
        <extensions>
          <ns3:TrackPointExtension>
            <ns3:hr>162</ns3:hr>
            <ns3:cad>0</ns3:cad>
          </ns3:TrackPointExtension>
        </extensions>
      </trkpt>
      <trkpt lat="44.68033592216670513153076171875" lon="6.82596537284553050994873046875">
        <ele>2494.199951171875</ele>
        <time>2026-08-31T06:58:12.000Z</time>
        <extensions>
          <ns3:TrackPointExtension>
            <ns3:hr>161</ns3:hr>
            <ns3:cad>0</ns3:cad>
          </ns3:TrackPointExtension>
        </extensions>
      </trkpt>
      <trkpt lat="44.68033458106219768524169921875" lon="6.82596570812165737152099609375">
        <ele>2494.199951171875</ele>
        <time>2026-08-31T06:58:13.000Z</time>
        <extensions>
          <ns3:TrackPointExtension>
            <ns3:hr>161</ns3:hr>
            <ns3:cad>0</ns3:cad>
          </ns3:TrackPointExtension>
        </extensions>
      </trkpt>
      <trkpt lat="44.68033508397638797760009765625" lon="6.825956739485263824462890625">
        <ele>2494.199951171875</ele>
        <time>2026-08-31T06:58:14.000Z</time>
        <extensions>
          <ns3:TrackPointExtension>
            <ns3:hr>161</ns3:hr>
            <ns3:cad>0</ns3:cad>
          </ns3:TrackPointExtension>
        </extensions>
      </trkpt>
      <trkpt lat="44.6803348325192928314208984375" lon="6.825956739485263824462890625">
        <ele>2494.199951171875</ele>
        <time>2026-08-31T06:58:15.000Z</time>
        <extensions>
          <ns3:TrackPointExtension>
            <ns3:hr>160</ns3:hr>
            <ns3:cad>0</ns3:cad>
          </ns3:TrackPointExtension>
        </extensions>
      </trkpt>
      <trkpt lat="44.68033625744283199310302734375" lon="6.8259592540562152862548828125">
        <ele>2494.199951171875</ele>
        <time>2026-08-31T06:58:16.000Z</time>
        <extensions>
          <ns3:TrackPointExtension>
            <ns3:hr>160</ns3:hr>
            <ns3:cad>0</ns3:cad>
          </ns3:TrackPointExtension>
        </extensions>
      </trkpt>
      <trkpt lat="44.68033743090927600860595703125" lon="6.82596319355070590972900390625">
        <ele>2494.199951171875</ele>
        <time>2026-08-31T06:58:17.000Z</time>
        <extensions>
          <ns3:TrackPointExtension>
            <ns3:hr>160</ns3:hr>
            <ns3:cad>0</ns3:cad>
          </ns3:TrackPointExtension>
        </extensions>
      </trkpt>
      <trkpt lat="44.68034078367054462432861328125" lon="6.825967468321323394775390625">
        <ele>2494.199951171875</ele>
        <time>2026-08-31T06:58:18.000Z</time>
        <extensions>
          <ns3:TrackPointExtension>
            <ns3:hr>160</ns3:hr>
            <ns3:cad>0</ns3:cad>
          </ns3:TrackPointExtension>
        </extensions>
      </trkpt>
      <trkpt lat="44.68034229241311550140380859375" lon="6.82597719132900238037109375">
        <ele>2494.199951171875</ele>
        <time>2026-08-31T06:58:19.000Z</time>
        <extensions>
          <ns3:TrackPointExtension>
            <ns3:hr>160</ns3:hr>
            <ns3:cad>0</ns3:cad>
          </ns3:TrackPointExtension>
        </extensions>
      </trkpt>
      <trkpt lat="44.6803448908030986785888671875" lon="6.8259810470044612884521484375">
        <ele>2494.199951171875</ele>
        <time>2026-08-31T06:58:20.000Z</time>
        <extensions>
          <ns3:TrackPointExtension>
            <ns3:hr>161</ns3:hr>
            <ns3:cad>0</ns3:cad>
          </ns3:TrackPointExtension>
        </extensions>
      </trkpt>
      <trkpt lat="44.6803472377359867095947265625" lon="6.8259823881089687347412109375">
        <ele>2494.39990234375</ele>
        <time>2026-08-31T06:58:21.000Z</time>
        <extensions>
          <ns3:TrackPointExtension>
            <ns3:hr>161</ns3:hr>
            <ns3:cad>0</ns3:cad>
          </ns3:TrackPointExtension>
        </extensions>
      </trkpt>
      <trkpt lat="44.68035168014466762542724609375" lon="6.8259927816689014434814453125">
        <ele>2494.60009765625</ele>
        <time>2026-08-31T06:58:22.000Z</time>
        <extensions>
          <ns3:TrackPointExtension>
            <ns3:hr>162</ns3:hr>
            <ns3:cad>0</ns3:cad>
          </ns3:TrackPointExtension>
        </extensions>
      </trkpt>
      <trkpt lat="44.68035436235368251800537109375" lon="6.826002337038516998291015625">
        <ele>2494.800048828125</ele>
        <time>2026-08-31T06:58:23.000Z</time>
        <extensions>
          <ns3:TrackPointExtension>
            <ns3:hr>163</ns3:hr>
            <ns3:cad>0</ns3:cad>
          </ns3:TrackPointExtension>
        </extensions>
      </trkpt>
      <trkpt lat="44.680352769792079925537109375" lon="6.82601097039878368377685546875">
        <ele>2495.199951171875</ele>
        <time>2026-08-31T06:58:24.000Z</time>
        <extensions>
          <ns3:TrackPointExtension>
            <ns3:hr>163</ns3:hr>
            <ns3:cad>0</ns3:cad>
          </ns3:TrackPointExtension>
        </extensions>
      </trkpt>
      <trkpt lat="44.68035637401044368743896484375" lon="6.8260246329009532928466796875">
        <ele>2495.39990234375</ele>
        <time>2026-08-31T06:58:25.000Z</time>
        <extensions>
          <ns3:TrackPointExtension>
            <ns3:hr>162</ns3:hr>
            <ns3:cad>0</ns3:cad>
          </ns3:TrackPointExtension>
        </extensions>
      </trkpt>
      <trkpt lat="44.68035779893398284912109375" lon="6.82603058405220508575439453125">
        <ele>2495.60009765625</ele>
        <time>2026-08-31T06:58:26.000Z</time>
        <extensions>
          <ns3:TrackPointExtension>
            <ns3:hr>162</ns3:hr>
            <ns3:cad>0</ns3:cad>
          </ns3:TrackPointExtension>
        </extensions>
      </trkpt>
      <trkpt lat="44.6803606487810611724853515625" lon="6.8260380439460277557373046875">
        <ele>2495.800048828125</ele>
        <time>2026-08-31T06:58:27.000Z</time>
        <extensions>
          <ns3:TrackPointExtension>
            <ns3:hr>163</ns3:hr>
            <ns3:cad>0</ns3:cad>
          </ns3:TrackPointExtension>
        </extensions>
      </trkpt>
      <trkpt lat="44.68036576174199581146240234375" lon="6.826038546860218048095703125">
        <ele>2496</ele>
        <time>2026-08-31T06:58:28.000Z</time>
        <extensions>
          <ns3:TrackPointExtension>
            <ns3:hr>163</ns3:hr>
            <ns3:cad>0</ns3:cad>
          </ns3:TrackPointExtension>
        </extensions>
      </trkpt>
      <trkpt lat="44.680370204150676727294921875" lon="6.82604818604886531829833984375">
        <ele>2496.199951171875</ele>
        <time>2026-08-31T06:58:29.000Z</time>
        <extensions>
          <ns3:TrackPointExtension>
            <ns3:hr>163</ns3:hr>
            <ns3:cad>0</ns3:cad>
          </ns3:TrackPointExtension>
        </extensions>
      </trkpt>
      <trkpt lat="44.680372886359691619873046875" lon="6.82605204172432422637939453125">
        <ele>2496.39990234375</ele>
        <time>2026-08-31T06:58:30.000Z</time>
        <extensions>
          <ns3:TrackPointExtension>
            <ns3:hr>163</ns3:hr>
            <ns3:cad>0</ns3:cad>
          </ns3:TrackPointExtension>
        </extensions>
      </trkpt>
      <trkpt lat="44.6803774125874042510986328125" lon="6.82606696151196956634521484375">
        <ele>2496.60009765625</ele>
        <time>2026-08-31T06:58:31.000Z</time>
        <extensions>
          <ns3:TrackPointExtension>
            <ns3:hr>163</ns3:hr>
            <ns3:cad>55</ns3:cad>
          </ns3:TrackPointExtension>
        </extensions>
      </trkpt>
      <trkpt lat="44.6803817711770534515380859375" lon="6.82607567869126796722412109375">
        <ele>2497</ele>
        <time>2026-08-31T06:58:32.000Z</time>
        <extensions>
          <ns3:TrackPointExtension>
            <ns3:hr>164</ns3:hr>
            <ns3:cad>55</ns3:cad>
          </ns3:TrackPointExtension>
        </extensions>
      </trkpt>
      <trkpt lat="44.6803866326808929443359375" lon="6.82608908973634243011474609375">
        <ele>2497</ele>
        <time>2026-08-31T06:58:33.000Z</time>
        <extensions>
          <ns3:TrackPointExtension>
            <ns3:hr>164</ns3:hr>
            <ns3:cad>55</ns3:cad>
          </ns3:TrackPointExtension>
        </extensions>
      </trkpt>
      <trkpt lat="44.68039090745151042938232421875" lon="6.82609965093433856964111328125">
        <ele>2497.199951171875</ele>
        <time>2026-08-31T06:58:34.000Z</time>
        <extensions>
          <ns3:TrackPointExtension>
            <ns3:hr>165</ns3:hr>
            <ns3:cad>0</ns3:cad>
          </ns3:TrackPointExtension>
        </extensions>
      </trkpt>
      <trkpt lat="44.68039291910827159881591796875" lon="6.8261054344475269317626953125">
        <ele>2497.39990234375</ele>
        <time>2026-08-31T06:58:35.000Z</time>
        <extensions>
          <ns3:TrackPointExtension>
            <ns3:hr>166</ns3:hr>
            <ns3:cad>0</ns3:cad>
          </ns3:TrackPointExtension>
        </extensions>
      </trkpt>
      <trkpt lat="44.680397026240825653076171875" lon="6.826113648712635040283203125">
        <ele>2497.800048828125</ele>
        <time>2026-08-31T06:58:36.000Z</time>
        <extensions>
          <ns3:TrackPointExtension>
            <ns3:hr>166</ns3:hr>
            <ns3:cad>0</ns3:cad>
          </ns3:TrackPointExtension>
        </extensions>
      </trkpt>
      <trkpt lat="44.680401049554347991943359375" lon="6.82612060569226741790771484375">
        <ele>2498</ele>
        <time>2026-08-31T06:58:37.000Z</time>
        <extensions>
          <ns3:TrackPointExtension>
            <ns3:hr>166</ns3:hr>
            <ns3:cad>0</ns3:cad>
          </ns3:TrackPointExtension>
        </extensions>
      </trkpt>
      <trkpt lat="44.68040431849658489227294921875" lon="6.82613049633800983428955078125">
        <ele>2498.199951171875</ele>
        <time>2026-08-31T06:58:38.000Z</time>
        <extensions>
          <ns3:TrackPointExtension>
            <ns3:hr>166</ns3:hr>
            <ns3:cad>0</ns3:cad>
          </ns3:TrackPointExtension>
        </extensions>
      </trkpt>
      <trkpt lat="44.6804089285433292388916015625" lon="6.8261416442692279815673828125">
        <ele>2498.39990234375</ele>
        <time>2026-08-31T06:58:39.000Z</time>
        <extensions>
          <ns3:TrackPointExtension>
            <ns3:hr>166</ns3:hr>
            <ns3:cad>0</ns3:cad>
          </ns3:TrackPointExtension>
        </extensions>
      </trkpt>
      <trkpt lat="44.68040918000042438507080078125" lon="6.8261463381350040435791015625">
        <ele>2498.800048828125</ele>
        <time>2026-08-31T06:58:40.000Z</time>
        <extensions>
          <ns3:TrackPointExtension>
            <ns3:hr>166</ns3:hr>
            <ns3:cad>0</ns3:cad>
          </ns3:TrackPointExtension>
        </extensions>
      </trkpt>
      <trkpt lat="44.68041068874299526214599609375" lon="6.8261584080755710601806640625">
        <ele>2499</ele>
        <time>2026-08-31T06:58:41.000Z</time>
        <extensions>
          <ns3:TrackPointExtension>
            <ns3:hr>167</ns3:hr>
            <ns3:cad>0</ns3:cad>
          </ns3:TrackPointExtension>
        </extensions>
      </trkpt>
      <trkpt lat="44.68041387386620044708251953125" lon="6.82616134174168109893798828125">
        <ele>2499.199951171875</ele>
        <time>2026-08-31T06:58:42.000Z</time>
        <extensions>
          <ns3:TrackPointExtension>
            <ns3:hr>167</ns3:hr>
            <ns3:cad>0</ns3:cad>
          </ns3:TrackPointExtension>
        </extensions>
      </trkpt>
      <trkpt lat="44.68040934763848781585693359375" lon="6.82615379802882671356201171875">
        <ele>2499.39990234375</ele>
        <time>2026-08-31T06:58:43.000Z</time>
        <extensions>
          <ns3:TrackPointExtension>
            <ns3:hr>167</ns3:hr>
            <ns3:cad>0</ns3:cad>
          </ns3:TrackPointExtension>
        </extensions>
      </trkpt>
      <trkpt lat="44.680409766733646392822265625" lon="6.82615363039076328277587890625">
        <ele>2499.39990234375</ele>
        <time>2026-08-31T06:58:44.000Z</time>
        <extensions>
          <ns3:TrackPointExtension>
            <ns3:hr>167</ns3:hr>
            <ns3:cad>0</ns3:cad>
          </ns3:TrackPointExtension>
        </extensions>
      </trkpt>
      <trkpt lat="44.68040985055267810821533203125" lon="6.8261533789336681365966796875">
        <ele>2499.60009765625</ele>
        <time>2026-08-31T06:58:45.000Z</time>
        <extensions>
          <ns3:TrackPointExtension>
            <ns3:hr>168</ns3:hr>
            <ns3:cad>0</ns3:cad>
          </ns3:TrackPointExtension>
        </extensions>
      </trkpt>
      <trkpt lat="44.6804132871329784393310546875" lon="6.82614306919276714324951171875">
        <ele>2499.800048828125</ele>
        <time>2026-08-31T06:58:46.000Z</time>
        <extensions>
          <ns3:TrackPointExtension>
            <ns3:hr>169</ns3:hr>
            <ns3:cad>0</ns3:cad>
          </ns3:TrackPointExtension>
        </extensions>
      </trkpt>
      <trkpt lat="44.68041739426553249359130859375" lon="6.82613066397607326507568359375">
        <ele>2500</ele>
        <time>2026-08-31T06:58:47.000Z</time>
        <extensions>
          <ns3:TrackPointExtension>
            <ns3:hr>170</ns3:hr>
            <ns3:cad>0</ns3:cad>
          </ns3:TrackPointExtension>
        </extensions>
      </trkpt>
      <trkpt lat="44.680421836674213409423828125" lon="6.82612144388258457183837890625">
        <ele>2500</ele>
        <time>2026-08-31T06:58:48.000Z</time>
        <extensions>
          <ns3:TrackPointExtension>
            <ns3:hr>170</ns3:hr>
            <ns3:cad>0</ns3:cad>
          </ns3:TrackPointExtension>
        </extensions>
      </trkpt>
      <trkpt lat="44.680428542196750640869140625" lon="6.82610652409493923187255859375">
        <ele>2500.199951171875</ele>
        <time>2026-08-31T06:58:49.000Z</time>
        <extensions>
          <ns3:TrackPointExtension>
            <ns3:hr>171</ns3:hr>
            <ns3:cad>0</ns3:cad>
          </ns3:TrackPointExtension>
        </extensions>
      </trkpt>
      <trkpt lat="44.6804313920438289642333984375" lon="6.82610652409493923187255859375">
        <ele>2500.39990234375</ele>
        <time>2026-08-31T06:58:50.000Z</time>
        <extensions>
          <ns3:TrackPointExtension>
            <ns3:hr>171</ns3:hr>
            <ns3:cad>0</ns3:cad>
          </ns3:TrackPointExtension>
        </extensions>
      </trkpt>
      <trkpt lat="44.68043197877705097198486328125" lon="6.82610727846622467041015625">
        <ele>2500.60009765625</ele>
        <time>2026-08-31T06:58:51.000Z</time>
        <extensions>
          <ns3:TrackPointExtension>
            <ns3:hr>172</ns3:hr>
            <ns3:cad>0</ns3:cad>
          </ns3:TrackPointExtension>
        </extensions>
      </trkpt>
      <trkpt lat="44.680438935756683349609375" lon="6.8261128105223178863525390625">
        <ele>2500.800048828125</ele>
        <time>2026-08-31T06:58:52.000Z</time>
        <extensions>
          <ns3:TrackPointExtension>
            <ns3:hr>172</ns3:hr>
            <ns3:cad>0</ns3:cad>
          </ns3:TrackPointExtension>
        </extensions>
      </trkpt>
      <trkpt lat="44.680442623794078826904296875" lon="6.826122701168060302734375">
        <ele>2500.800048828125</ele>
        <time>2026-08-31T06:58:53.000Z</time>
        <extensions>
          <ns3:TrackPointExtension>
            <ns3:hr>172</ns3:hr>
            <ns3:cad>0</ns3:cad>
          </ns3:TrackPointExtension>
        </extensions>
      </trkpt>
      <trkpt lat="44.68045092187821865081787109375" lon="6.82613049633800983428955078125">
        <ele>2501</ele>
        <time>2026-08-31T06:58:54.000Z</time>
        <extensions>
          <ns3:TrackPointExtension>
            <ns3:hr>173</ns3:hr>
            <ns3:cad>0</ns3:cad>
          </ns3:TrackPointExtension>
        </extensions>
      </trkpt>
      <trkpt lat="44.680455364286899566650390625" lon="6.82613250799477100372314453125">
        <ele>2501.199951171875</ele>
        <time>2026-08-31T06:58:55.000Z</time>
        <extensions>
          <ns3:TrackPointExtension>
            <ns3:hr>173</ns3:hr>
            <ns3:cad>0</ns3:cad>
          </ns3:TrackPointExtension>
        </extensions>
      </trkpt>
      <trkpt lat="44.6804649196565151214599609375" lon="6.82613401673734188079833984375">
        <ele>2501.39990234375</ele>
        <time>2026-08-31T06:58:56.000Z</time>
        <extensions>
          <ns3:TrackPointExtension>
            <ns3:hr>173</ns3:hr>
            <ns3:cad>0</ns3:cad>
          </ns3:TrackPointExtension>
        </extensions>
      </trkpt>
      <trkpt lat="44.68047103844583034515380859375" lon="6.8261366151273250579833984375">
        <ele>2501.60009765625</ele>
        <time>2026-08-31T06:58:57.000Z</time>
        <extensions>
          <ns3:TrackPointExtension>
            <ns3:hr>173</ns3:hr>
            <ns3:cad>0</ns3:cad>
          </ns3:TrackPointExtension>
        </extensions>
      </trkpt>
      <trkpt lat="44.68047589994966983795166015625" lon="6.826144494116306304931640625">
        <ele>2501.800048828125</ele>
        <time>2026-08-31T06:58:58.000Z</time>
        <extensions>
          <ns3:TrackPointExtension>
            <ns3:hr>172</ns3:hr>
            <ns3:cad>0</ns3:cad>
          </ns3:TrackPointExtension>
        </extensions>
      </trkpt>
      <trkpt lat="44.68048118054866790771484375" lon="6.82614482939243316650390625">
        <ele>2502</ele>
        <time>2026-08-31T06:58:59.000Z</time>
        <extensions>
          <ns3:TrackPointExtension>
            <ns3:hr>172</ns3:hr>
            <ns3:cad>0</ns3:cad>
          </ns3:TrackPointExtension>
        </extensions>
      </trkpt>
      <trkpt lat="44.68048444949090480804443359375" lon="6.82614541612565517425537109375">
        <ele>2502</ele>
        <time>2026-08-31T06:59:00.000Z</time>
        <extensions>
          <ns3:TrackPointExtension>
            <ns3:hr>172</ns3:hr>
            <ns3:cad>0</ns3:cad>
          </ns3:TrackPointExtension>
        </extensions>
      </trkpt>
      <trkpt lat="44.68049182556569576263427734375" lon="6.82614290155470371246337890625">
        <ele>2502.199951171875</ele>
        <time>2026-08-31T06:59:01.000Z</time>
        <extensions>
          <ns3:TrackPointExtension>
            <ns3:hr>172</ns3:hr>
            <ns3:cad>0</ns3:cad>
          </ns3:TrackPointExtension>
        </extensions>
      </trkpt>
      <trkpt lat="44.68049366958439350128173828125" lon="6.826143153011798858642578125">
        <ele>2502.39990234375</ele>
        <time>2026-08-31T06:59:02.000Z</time>
        <extensions>
          <ns3:TrackPointExtension>
            <ns3:hr>172</ns3:hr>
            <ns3:cad>0</ns3:cad>
          </ns3:TrackPointExtension>
        </extensions>
      </trkpt>
      <trkpt lat="44.68050020746886730194091796875" lon="6.82613820768892765045166015625">
        <ele>2502.60009765625</ele>
        <time>2026-08-31T06:59:03.000Z</time>
        <extensions>
          <ns3:TrackPointExtension>
            <ns3:hr>171</ns3:hr>
            <ns3:cad>0</ns3:cad>
          </ns3:TrackPointExtension>
        </extensions>
      </trkpt>
      <trkpt lat="44.680506326258182525634765625" lon="6.8261376209557056427001953125">
        <ele>2503</ele>
        <time>2026-08-31T06:59:04.000Z</time>
        <extensions>
          <ns3:TrackPointExtension>
            <ns3:hr>170</ns3:hr>
            <ns3:cad>0</ns3:cad>
          </ns3:TrackPointExtension>
        </extensions>
      </trkpt>
      <trkpt lat="44.680511020123958587646484375" lon="6.82613921351730823516845703125">
        <ele>2503.199951171875</ele>
        <time>2026-08-31T06:59:05.000Z</time>
        <extensions>
          <ns3:TrackPointExtension>
            <ns3:hr>170</ns3:hr>
            <ns3:cad>0</ns3:cad>
          </ns3:TrackPointExtension>
        </extensions>
      </trkpt>
      <trkpt lat="44.680517725646495819091796875" lon="6.8261386267840862274169921875">
        <ele>2503.39990234375</ele>
        <time>2026-08-31T06:59:06.000Z</time>
        <extensions>
          <ns3:TrackPointExtension>
            <ns3:hr>170</ns3:hr>
            <ns3:cad>0</ns3:cad>
          </ns3:TrackPointExtension>
        </extensions>
      </trkpt>
      <trkpt lat="44.68052669428288936614990234375" lon="6.82614348828792572021484375">
        <ele>2503.60009765625</ele>
        <time>2026-08-31T06:59:07.000Z</time>
        <extensions>
          <ns3:TrackPointExtension>
            <ns3:hr>170</ns3:hr>
            <ns3:cad>0</ns3:cad>
          </ns3:TrackPointExtension>
        </extensions>
      </trkpt>
      <trkpt lat="44.68053356744349002838134765625" lon="6.8261523731052875518798828125">
        <ele>2503.800048828125</ele>
        <time>2026-08-31T06:59:08.000Z</time>
        <extensions>
          <ns3:TrackPointExtension>
            <ns3:hr>171</ns3:hr>
            <ns3:cad>0</ns3:cad>
          </ns3:TrackPointExtension>
        </extensions>
      </trkpt>
      <trkpt lat="44.68053608201444149017333984375" lon="6.8261590786278247833251953125">
        <ele>2503.800048828125</ele>
        <time>2026-08-31T06:59:09.000Z</time>
        <extensions>
          <ns3:TrackPointExtension>
            <ns3:hr>171</ns3:hr>
            <ns3:cad>0</ns3:cad>
          </ns3:TrackPointExtension>
        </extensions>
      </trkpt>
      <trkpt lat="44.68053842894732952117919921875" lon="6.82616368867456912994384765625">
        <ele>2504</ele>
        <time>2026-08-31T06:59:10.000Z</time>
        <extensions>
          <ns3:TrackPointExtension>
            <ns3:hr>172</ns3:hr>
            <ns3:cad>0</ns3:cad>
          </ns3:TrackPointExtension>
        </extensions>
      </trkpt>
      <trkpt lat="44.68054161407053470611572265625" lon="6.82617005892097949981689453125">
        <ele>2504.199951171875</ele>
        <time>2026-08-31T06:59:11.000Z</time>
        <extensions>
          <ns3:TrackPointExtension>
            <ns3:hr>172</ns3:hr>
            <ns3:cad>55</ns3:cad>
          </ns3:TrackPointExtension>
        </extensions>
      </trkpt>
      <trkpt lat="44.6805430389940738677978515625" lon="6.82617005892097949981689453125">
        <ele>2504.39990234375</ele>
        <time>2026-08-31T06:59:12.000Z</time>
        <extensions>
          <ns3:TrackPointExtension>
            <ns3:hr>173</ns3:hr>
            <ns3:cad>55</ns3:cad>
          </ns3:TrackPointExtension>
        </extensions>
      </trkpt>
      <trkpt lat="44.68054530210793018341064453125" lon="6.82617307640612125396728515625">
        <ele>2504.800048828125</ele>
        <time>2026-08-31T06:59:13.000Z</time>
        <extensions>
          <ns3:TrackPointExtension>
            <ns3:hr>173</ns3:hr>
            <ns3:cad>55</ns3:cad>
          </ns3:TrackPointExtension>
        </extensions>
      </trkpt>
      <trkpt lat="44.68054899014532566070556640625" lon="6.8261741660535335540771484375">
        <ele>2505</ele>
        <time>2026-08-31T06:59:14.000Z</time>
        <extensions>
          <ns3:TrackPointExtension>
            <ns3:hr>173</ns3:hr>
            <ns3:cad>55</ns3:cad>
          </ns3:TrackPointExtension>
        </extensions>
      </trkpt>
      <trkpt lat="44.68055234290659427642822265625" lon="6.82617341168224811553955078125">
        <ele>2505.199951171875</ele>
        <time>2026-08-31T06:59:15.000Z</time>
        <extensions>
          <ns3:TrackPointExtension>
            <ns3:hr>173</ns3:hr>
            <ns3:cad>0</ns3:cad>
          </ns3:TrackPointExtension>
        </extensions>
      </trkpt>
      <trkpt lat="44.68055485747754573822021484375" lon="6.82617022655904293060302734375">
        <ele>2505.39990234375</ele>
        <time>2026-08-31T06:59:16.000Z</time>
        <extensions>
          <ns3:TrackPointExtension>
            <ns3:hr>172</ns3:hr>
            <ns3:cad>0</ns3:cad>
          </ns3:TrackPointExtension>
        </extensions>
      </trkpt>
      <trkpt lat="44.68055753968656063079833984375" lon="6.82616536505520343780517578125">
        <ele>2505.39990234375</ele>
        <time>2026-08-31T06:59:17.000Z</time>
        <extensions>
          <ns3:TrackPointExtension>
            <ns3:hr>172</ns3:hr>
            <ns3:cad>0</ns3:cad>
          </ns3:TrackPointExtension>
        </extensions>
      </trkpt>
      <trkpt lat="44.6805591322481632232666015625" lon="6.82615748606622219085693359375">
        <ele>2505.60009765625</ele>
        <time>2026-08-31T06:59:18.000Z</time>
        <extensions>
          <ns3:TrackPointExtension>
            <ns3:hr>173</ns3:hr>
            <ns3:cad>0</ns3:cad>
          </ns3:TrackPointExtension>
        </extensions>
      </trkpt>
      <trkpt lat="44.68056164681911468505859375" lon="6.826149187982082366943359375">
        <ele>2505.800048828125</ele>
        <time>2026-08-31T06:59:19.000Z</time>
        <extensions>
          <ns3:TrackPointExtension>
            <ns3:hr>173</ns3:hr>
            <ns3:cad>0</ns3:cad>
          </ns3:TrackPointExtension>
        </extensions>
      </trkpt>
      <trkpt lat="44.6805665083229541778564453125" lon="6.82614105753600597381591796875">
        <ele>2506</ele>
        <time>2026-08-31T06:59:20.000Z</time>
        <extensions>
          <ns3:TrackPointExtension>
            <ns3:hr>173</ns3:hr>
            <ns3:cad>0</ns3:cad>
          </ns3:TrackPointExtension>
        </extensions>
      </trkpt>
      <trkpt lat="44.680570028722286224365234375" lon="6.826130412518978118896484375">
        <ele>2506.199951171875</ele>
        <time>2026-08-31T06:59:21.000Z</time>
        <extensions>
          <ns3:TrackPointExtension>
            <ns3:hr>173</ns3:hr>
            <ns3:cad>0</ns3:cad>
          </ns3:TrackPointExtension>
        </extensions>
      </trkpt>
      <trkpt lat="44.68057505786418914794921875" lon="6.82611792348325252532958984375">
        <ele>2506.39990234375</ele>
        <time>2026-08-31T06:59:22.000Z</time>
        <extensions>
          <ns3:TrackPointExtension>
            <ns3:hr>172</ns3:hr>
            <ns3:cad>0</ns3:cad>
          </ns3:TrackPointExtension>
        </extensions>
      </trkpt>
      <trkpt lat="44.680577404797077178955078125" lon="6.82610132731497287750244140625">
        <ele>2506.60009765625</ele>
        <time>2026-08-31T06:59:23.000Z</time>
        <extensions>
          <ns3:TrackPointExtension>
            <ns3:hr>172</ns3:hr>
            <ns3:cad>0</ns3:cad>
          </ns3:TrackPointExtension>
        </extensions>
      </trkpt>
      <trkpt lat="44.6805775724351406097412109375" lon="6.826089508831501007080078125">
        <ele>2506.60009765625</ele>
        <time>2026-08-31T06:59:24.000Z</time>
        <extensions>
          <ns3:TrackPointExtension>
            <ns3:hr>172</ns3:hr>
            <ns3:cad>0</ns3:cad>
          </ns3:TrackPointExtension>
        </extensions>
      </trkpt>
      <trkpt lat="44.68058310449123382568359375" lon="6.826078109443187713623046875">
        <ele>2506.60009765625</ele>
        <time>2026-08-31T06:59:25.000Z</time>
        <extensions>
          <ns3:TrackPointExtension>
            <ns3:hr>171</ns3:hr>
            <ns3:cad>0</ns3:cad>
          </ns3:TrackPointExtension>
        </extensions>
      </trkpt>
      <trkpt lat="44.6805852837860584259033203125" lon="6.82606930844485759735107421875">
        <ele>2506.800048828125</ele>
        <time>2026-08-31T06:59:26.000Z</time>
        <extensions>
          <ns3:TrackPointExtension>
            <ns3:hr>171</ns3:hr>
            <ns3:cad>0</ns3:cad>
          </ns3:TrackPointExtension>
        </extensions>
      </trkpt>
      <trkpt lat="44.68059324659407138824462890625" lon="6.82605405338108539581298828125">
        <ele>2506.800048828125</ele>
        <time>2026-08-31T06:59:27.000Z</time>
        <extensions>
          <ns3:TrackPointExtension>
            <ns3:hr>171</ns3:hr>
            <ns3:cad>0</ns3:cad>
          </ns3:TrackPointExtension>
        </extensions>
      </trkpt>
      <trkpt lat="44.68060028739273548126220703125" lon="6.82604282163083553314208984375">
        <ele>2506.800048828125</ele>
        <time>2026-08-31T06:59:28.000Z</time>
        <extensions>
          <ns3:TrackPointExtension>
            <ns3:hr>170</ns3:hr>
            <ns3:cad>0</ns3:cad>
          </ns3:TrackPointExtension>
        </extensions>
      </trkpt>
      <trkpt lat="44.68060347251594066619873046875" lon="6.82603754103183746337890625">
        <ele>2507</ele>
        <time>2026-08-31T06:59:29.000Z</time>
        <extensions>
          <ns3:TrackPointExtension>
            <ns3:hr>170</ns3:hr>
            <ns3:cad>0</ns3:cad>
          </ns3:TrackPointExtension>
        </extensions>
      </trkpt>
      <trkpt lat="44.6806087531149387359619140625" lon="6.82602622546255588531494140625">
        <ele>2507.199951171875</ele>
        <time>2026-08-31T06:59:30.000Z</time>
        <extensions>
          <ns3:TrackPointExtension>
            <ns3:hr>170</ns3:hr>
            <ns3:cad>0</ns3:cad>
          </ns3:TrackPointExtension>
        </extensions>
      </trkpt>
      <trkpt lat="44.6806097589433193206787109375" lon="6.82602144777774810791015625">
        <ele>2507.39990234375</ele>
        <time>2026-08-31T06:59:31.000Z</time>
        <extensions>
          <ns3:TrackPointExtension>
            <ns3:hr>170</ns3:hr>
            <ns3:cad>0</ns3:cad>
          </ns3:TrackPointExtension>
        </extensions>
      </trkpt>
      <trkpt lat="44.68061386607587337493896484375" lon="6.82601097039878368377685546875">
        <ele>2507.60009765625</ele>
        <time>2026-08-31T06:59:32.000Z</time>
        <extensions>
          <ns3:TrackPointExtension>
            <ns3:hr>171</ns3:hr>
            <ns3:cad>0</ns3:cad>
          </ns3:TrackPointExtension>
        </extensions>
      </trkpt>
      <trkpt lat="44.6806218288838863372802734375" lon="6.82599822990596294403076171875">
        <ele>2507.800048828125</ele>
        <time>2026-08-31T06:59:33.000Z</time>
        <extensions>
          <ns3:TrackPointExtension>
            <ns3:hr>171</ns3:hr>
            <ns3:cad>0</ns3:cad>
          </ns3:TrackPointExtension>
        </extensions>
      </trkpt>
      <trkpt lat="44.680629037320613861083984375" lon="6.82599596679210662841796875">
        <ele>2507.800048828125</ele>
        <time>2026-08-31T06:59:34.000Z</time>
        <extensions>
          <ns3:TrackPointExtension>
            <ns3:hr>171</ns3:hr>
            <ns3:cad>0</ns3:cad>
          </ns3:TrackPointExtension>
        </extensions>
      </trkpt>
      <trkpt lat="44.68064010143280029296875" lon="6.825993619859218597412109375">
        <ele>2508</ele>
        <time>2026-08-31T06:59:35.000Z</time>
        <extensions>
          <ns3:TrackPointExtension>
            <ns3:hr>172</ns3:hr>
            <ns3:cad>0</ns3:cad>
          </ns3:TrackPointExtension>
        </extensions>
      </trkpt>
      <trkpt lat="44.68064672313630580902099609375" lon="6.825990937650203704833984375">
        <ele>2508.199951171875</ele>
        <time>2026-08-31T06:59:36.000Z</time>
        <extensions>
          <ns3:TrackPointExtension>
            <ns3:hr>172</ns3:hr>
            <ns3:cad>0</ns3:cad>
          </ns3:TrackPointExtension>
        </extensions>
      </trkpt>
      <trkpt lat="44.68065074644982814788818359375" lon="6.82599127292633056640625">
        <ele>2508.39990234375</ele>
        <time>2026-08-31T06:59:37.000Z</time>
        <extensions>
          <ns3:TrackPointExtension>
            <ns3:hr>172</ns3:hr>
            <ns3:cad>0</ns3:cad>
          </ns3:TrackPointExtension>
        </extensions>
      </trkpt>
      <trkpt lat="44.68066013418138027191162109375" lon="6.82598951272666454315185546875">
        <ele>2508.60009765625</ele>
        <time>2026-08-31T06:59:38.000Z</time>
        <extensions>
          <ns3:TrackPointExtension>
            <ns3:hr>173</ns3:hr>
            <ns3:cad>0</ns3:cad>
          </ns3:TrackPointExtension>
        </extensions>
      </trkpt>
      <trkpt lat="44.680663235485553741455078125" lon="6.82599102146923542022705078125">
        <ele>2508.800048828125</ele>
        <time>2026-08-31T06:59:39.000Z</time>
        <extensions>
          <ns3:TrackPointExtension>
            <ns3:hr>173</ns3:hr>
            <ns3:cad>0</ns3:cad>
          </ns3:TrackPointExtension>
        </extensions>
      </trkpt>
      <trkpt lat="44.68067270703613758087158203125" lon="6.82598750106990337371826171875">
        <ele>2509.199951171875</ele>
        <time>2026-08-31T06:59:40.000Z</time>
        <extensions>
          <ns3:TrackPointExtension>
            <ns3:hr>173</ns3:hr>
            <ns3:cad>0</ns3:cad>
          </ns3:TrackPointExtension>
        </extensions>
      </trkpt>
      <trkpt lat="44.6806776523590087890625" lon="6.82598096318542957305908203125">
        <ele>2509.39990234375</ele>
        <time>2026-08-31T06:59:41.000Z</time>
        <extensions>
          <ns3:TrackPointExtension>
            <ns3:hr>173</ns3:hr>
            <ns3:cad>0</ns3:cad>
          </ns3:TrackPointExtension>
        </extensions>
      </trkpt>
      <trkpt lat="44.68067874200642108917236328125" lon="6.82597207836806774139404296875">
        <ele>2509.60009765625</ele>
        <time>2026-08-31T06:59:42.000Z</time>
        <extensions>
          <ns3:TrackPointExtension>
            <ns3:hr>174</ns3:hr>
            <ns3:cad>0</ns3:cad>
          </ns3:TrackPointExtension>
        </extensions>
      </trkpt>
      <trkpt lat="44.68068041838705539703369140625" lon="6.82596118189394474029541015625">
        <ele>2509.800048828125</ele>
        <time>2026-08-31T06:59:43.000Z</time>
        <extensions>
          <ns3:TrackPointExtension>
            <ns3:hr>174</ns3:hr>
            <ns3:cad>0</ns3:cad>
          </ns3:TrackPointExtension>
        </extensions>
      </trkpt>
      <trkpt lat="44.68068192712962627410888671875" lon="6.8259569071233272552490234375">
        <ele>2510</ele>
        <time>2026-08-31T06:59:44.000Z</time>
        <extensions>
          <ns3:TrackPointExtension>
            <ns3:hr>174</ns3:hr>
            <ns3:cad>0</ns3:cad>
          </ns3:TrackPointExtension>
        </extensions>
      </trkpt>
      <trkpt lat="44.68068678863346576690673828125" lon="6.82594324462115764617919921875">
        <ele>2510.199951171875</ele>
        <time>2026-08-31T06:59:45.000Z</time>
        <extensions>
          <ns3:TrackPointExtension>
            <ns3:hr>174</ns3:hr>
            <ns3:cad>0</ns3:cad>
          </ns3:TrackPointExtension>
        </extensions>
      </trkpt>
      <trkpt lat="44.68069466762244701385498046875" lon="6.825933270156383514404296875">
        <ele>2510.39990234375</ele>
        <time>2026-08-31T06:59:46.000Z</time>
        <extensions>
          <ns3:TrackPointExtension>
            <ns3:hr>174</ns3:hr>
            <ns3:cad>0</ns3:cad>
          </ns3:TrackPointExtension>
        </extensions>
      </trkpt>
      <trkpt lat="44.68070137314498424530029296875" lon="6.825929917395114898681640625">
        <ele>2510.39990234375</ele>
        <time>2026-08-31T06:59:47.000Z</time>
        <extensions>
          <ns3:TrackPointExtension>
            <ns3:hr>174</ns3:hr>
            <ns3:cad>0</ns3:cad>
          </ns3:TrackPointExtension>
        </extensions>
      </trkpt>
      <trkpt lat="44.6807066537439823150634765625" lon="6.825932599604129791259765625">
        <ele>2510.60009765625</ele>
        <time>2026-08-31T06:59:48.000Z</time>
        <extensions>
          <ns3:TrackPointExtension>
            <ns3:hr>174</ns3:hr>
            <ns3:cad>0</ns3:cad>
          </ns3:TrackPointExtension>
        </extensions>
      </trkpt>
      <trkpt lat="44.680711515247821807861328125" lon="6.82592866010963916778564453125">
        <ele>2510.60009765625</ele>
        <time>2026-08-31T06:59:49.000Z</time>
        <extensions>
          <ns3:TrackPointExtension>
            <ns3:hr>175</ns3:hr>
            <ns3:cad>0</ns3:cad>
          </ns3:TrackPointExtension>
        </extensions>
      </trkpt>
      <trkpt lat="44.68071880750358104705810546875" lon="6.8259250558912754058837890625">
        <ele>2510.800048828125</ele>
        <time>2026-08-31T06:59:50.000Z</time>
        <extensions>
          <ns3:TrackPointExtension>
            <ns3:hr>175</ns3:hr>
            <ns3:cad>50</ns3:cad>
          </ns3:TrackPointExtension>
        </extensions>
      </trkpt>
      <trkpt lat="44.68072853051126003265380859375" lon="6.825918518006801605224609375">
        <ele>2510.800048828125</ele>
        <time>2026-08-31T06:59:51.000Z</time>
        <extensions>
          <ns3:TrackPointExtension>
            <ns3:hr>176</ns3:hr>
            <ns3:cad>50</ns3:cad>
          </ns3:TrackPointExtension>
        </extensions>
      </trkpt>
      <trkpt lat="44.6807353198528289794921875" lon="6.82591424323618412017822265625">
        <ele>2511</ele>
        <time>2026-08-31T06:59:52.000Z</time>
        <extensions>
          <ns3:TrackPointExtension>
            <ns3:hr>177</ns3:hr>
            <ns3:cad>50</ns3:cad>
          </ns3:TrackPointExtension>
        </extensions>
      </trkpt>
      <trkpt lat="44.6807428635656833648681640625" lon="6.82590971700847148895263671875">
        <ele>2511.199951171875</ele>
        <time>2026-08-31T06:59:53.000Z</time>
        <extensions>
          <ns3:TrackPointExtension>
            <ns3:hr>177</ns3:hr>
            <ns3:cad>50</ns3:cad>
          </ns3:TrackPointExtension>
        </extensions>
      </trkpt>
      <trkpt lat="44.68075099401175975799560546875" lon="6.8259056098759174346923828125">
        <ele>2511.60009765625</ele>
        <time>2026-08-31T06:59:54.000Z</time>
        <extensions>
          <ns3:TrackPointExtension>
            <ns3:hr>178</ns3:hr>
            <ns3:cad>48</ns3:cad>
          </ns3:TrackPointExtension>
        </extensions>
      </trkpt>
      <trkpt lat="44.68075837008655071258544921875" lon="6.825902760028839111328125">
        <ele>2511.800048828125</ele>
        <time>2026-08-31T06:59:55.000Z</time>
        <extensions>
          <ns3:TrackPointExtension>
            <ns3:hr>178</ns3:hr>
            <ns3:cad>48</ns3:cad>
          </ns3:TrackPointExtension>
        </extensions>
      </trkpt>
      <trkpt lat="44.6807659976184368133544921875" lon="6.82589999400079250335693359375">
        <ele>2512</ele>
        <time>2026-08-31T06:59:56.000Z</time>
        <extensions>
          <ns3:TrackPointExtension>
            <ns3:hr>178</ns3:hr>
            <ns3:cad>47</ns3:cad>
          </ns3:TrackPointExtension>
        </extensions>
      </trkpt>
      <trkpt lat="44.68077731318771839141845703125" lon="6.82589781470596790313720703125">
        <ele>2512.199951171875</ele>
        <time>2026-08-31T06:59:57.000Z</time>
        <extensions>
          <ns3:TrackPointExtension>
            <ns3:hr>179</ns3:hr>
            <ns3:cad>47</ns3:cad>
          </ns3:TrackPointExtension>
        </extensions>
      </trkpt>
      <trkpt lat="44.68078636564314365386962890625" lon="6.82590250857174396514892578125">
        <ele>2512.39990234375</ele>
        <time>2026-08-31T06:59:58.000Z</time>
        <extensions>
          <ns3:TrackPointExtension>
            <ns3:hr>179</ns3:hr>
            <ns3:cad>47</ns3:cad>
          </ns3:TrackPointExtension>
        </extensions>
      </trkpt>
      <trkpt lat="44.68079374171793460845947265625" lon="6.825907118618488311767578125">
        <ele>2512.800048828125</ele>
        <time>2026-08-31T06:59:59.000Z</time>
        <extensions>
          <ns3:TrackPointExtension>
            <ns3:hr>180</ns3:hr>
            <ns3:cad>48</ns3:cad>
          </ns3:TrackPointExtension>
        </extensions>
      </trkpt>
      <trkpt lat="44.6808005310595035552978515625" lon="6.825912483036518096923828125">
        <ele>2513</ele>
        <time>2026-08-31T07:00:00.000Z</time>
        <extensions>
          <ns3:TrackPointExtension>
            <ns3:hr>180</ns3:hr>
            <ns3:cad>49</ns3:cad>
          </ns3:TrackPointExtension>
        </extensions>
      </trkpt>
      <trkpt lat="44.6808052249252796173095703125" lon="6.8259136565029621124267578125">
        <ele>2513.199951171875</ele>
        <time>2026-08-31T07:00:01.000Z</time>
        <extensions>
          <ns3:TrackPointExtension>
            <ns3:hr>180</ns3:hr>
            <ns3:cad>49</ns3:cad>
          </ns3:TrackPointExtension>
        </extensions>
      </trkpt>
      <trkpt lat="44.68080732040107250213623046875" lon="6.82591441087424755096435546875">
        <ele>2513.39990234375</ele>
        <time>2026-08-31T07:00:02.000Z</time>
        <extensions>
          <ns3:TrackPointExtension>
            <ns3:hr>180</ns3:hr>
            <ns3:cad>48</ns3:cad>
          </ns3:TrackPointExtension>
        </extensions>
      </trkpt>
      <trkpt lat="44.68081134371459484100341796875" lon="6.82591625489294528961181640625">
        <ele>2513.60009765625</ele>
        <time>2026-08-31T07:00:03.000Z</time>
        <extensions>
          <ns3:TrackPointExtension>
            <ns3:hr>181</ns3:hr>
            <ns3:cad>48</ns3:cad>
          </ns3:TrackPointExtension>
        </extensions>
      </trkpt>
      <trkpt lat="44.68081779778003692626953125" lon="6.82591977529227733612060546875">
        <ele>2513.60009765625</ele>
        <time>2026-08-31T07:00:04.000Z</time>
        <extensions>
          <ns3:TrackPointExtension>
            <ns3:hr>181</ns3:hr>
            <ns3:cad>48</ns3:cad>
          </ns3:TrackPointExtension>
        </extensions>
      </trkpt>
      <trkpt lat="44.68082358129322528839111328125" lon="6.8259210325777530670166015625">
        <ele>2513.800048828125</ele>
        <time>2026-08-31T07:00:05.000Z</time>
        <extensions>
          <ns3:TrackPointExtension>
            <ns3:hr>181</ns3:hr>
            <ns3:cad>49</ns3:cad>
          </ns3:TrackPointExtension>
        </extensions>
      </trkpt>
      <trkpt lat="44.68083213083446025848388671875" lon="6.82592027820646762847900390625">
        <ele>2513.800048828125</ele>
        <time>2026-08-31T07:00:06.000Z</time>
        <extensions>
          <ns3:TrackPointExtension>
            <ns3:hr>181</ns3:hr>
            <ns3:cad>49</ns3:cad>
          </ns3:TrackPointExtension>
        </extensions>
      </trkpt>
      <trkpt lat="44.6808350645005702972412109375" lon="6.8259240500628948211669921875">
        <ele>2514</ele>
        <time>2026-08-31T07:00:07.000Z</time>
        <extensions>
          <ns3:TrackPointExtension>
            <ns3:hr>181</ns3:hr>
            <ns3:cad>49</ns3:cad>
          </ns3:TrackPointExtension>
        </extensions>
      </trkpt>
      <trkpt lat="44.680836908519268035888671875" lon="6.8259260617196559906005859375">
        <ele>2514.199951171875</ele>
        <time>2026-08-31T07:00:08.000Z</time>
        <extensions>
          <ns3:TrackPointExtension>
            <ns3:hr>181</ns3:hr>
            <ns3:cad>48</ns3:cad>
          </ns3:TrackPointExtension>
        </extensions>
      </trkpt>
      <trkpt lat="44.68084185384213924407958984375" lon="6.82592513971030712127685546875">
        <ele>2514.39990234375</ele>
        <time>2026-08-31T07:00:09.000Z</time>
        <extensions>
          <ns3:TrackPointExtension>
            <ns3:hr>182</ns3:hr>
            <ns3:cad>0</ns3:cad>
          </ns3:TrackPointExtension>
        </extensions>
      </trkpt>
      <trkpt lat="44.68084654770791530609130859375" lon="6.82592413388192653656005859375">
        <ele>2514.60009765625</ele>
        <time>2026-08-31T07:00:10.000Z</time>
        <extensions>
          <ns3:TrackPointExtension>
            <ns3:hr>181</ns3:hr>
            <ns3:cad>0</ns3:cad>
          </ns3:TrackPointExtension>
        </extensions>
      </trkpt>
      <trkpt lat="44.68084654770791530609130859375" lon="6.82592413388192653656005859375">
        <ele>2514.800048828125</ele>
        <time>2026-08-31T07:00:11.000Z</time>
        <extensions>
          <ns3:TrackPointExtension>
            <ns3:hr>181</ns3:hr>
            <ns3:cad>0</ns3:cad>
          </ns3:TrackPointExtension>
        </extensions>
      </trkpt>
      <trkpt lat="44.68084654770791530609130859375" lon="6.82592413388192653656005859375">
        <ele>2514.800048828125</ele>
        <time>2026-08-31T07:00:12.000Z</time>
        <extensions>
          <ns3:TrackPointExtension>
            <ns3:hr>181</ns3:hr>
            <ns3:cad>0</ns3:cad>
          </ns3:TrackPointExtension>
        </extensions>
      </trkpt>
      <trkpt lat="44.68084654770791530609130859375" lon="6.82592413388192653656005859375">
        <ele>2514.800048828125</ele>
        <time>2026-08-31T07:00:13.000Z</time>
        <extensions>
          <ns3:TrackPointExtension>
            <ns3:hr>181</ns3:hr>
            <ns3:cad>0</ns3:cad>
          </ns3:TrackPointExtension>
        </extensions>
      </trkpt>
      <trkpt lat="44.68084654770791530609130859375" lon="6.82592413388192653656005859375">
        <ele>2514.800048828125</ele>
        <time>2026-08-31T07:00:14.000Z</time>
        <extensions>
          <ns3:TrackPointExtension>
            <ns3:hr>180</ns3:hr>
            <ns3:cad>0</ns3:cad>
          </ns3:TrackPointExtension>
        </extensions>
      </trkpt>
      <trkpt lat="44.68084654770791530609130859375" lon="6.82592413388192653656005859375">
        <ele>2514.800048828125</ele>
        <time>2026-08-31T07:00:15.000Z</time>
        <extensions>
          <ns3:TrackPointExtension>
            <ns3:hr>176</ns3:hr>
            <ns3:cad>0</ns3:cad>
          </ns3:TrackPointExtension>
        </extensions>
      </trkpt>
      <trkpt lat="44.68084654770791530609130859375" lon="6.82592413388192653656005859375">
        <ele>2514.60009765625</ele>
        <time>2026-08-31T07:00:16.000Z</time>
        <extensions>
          <ns3:TrackPointExtension>
            <ns3:hr>172</ns3:hr>
            <ns3:cad>0</ns3:cad>
          </ns3:TrackPointExtension>
        </extensions>
      </trkpt>
      <trkpt lat="44.68084772117435932159423828125" lon="6.8259240500628948211669921875">
        <ele>2514.800048828125</ele>
        <time>2026-08-31T07:00:17.000Z</time>
        <extensions>
          <ns3:TrackPointExtension>
            <ns3:hr>165</ns3:hr>
            <ns3:cad>0</ns3:cad>
          </ns3:TrackPointExtension>
        </extensions>
      </trkpt>
      <trkpt lat="44.6808622218668460845947265625" lon="6.825927905738353729248046875">
        <ele>2514.60009765625</ele>
        <time>2026-08-31T07:00:18.000Z</time>
        <extensions>
          <ns3:TrackPointExtension>
            <ns3:hr>160</ns3:hr>
            <ns3:cad>0</ns3:cad>
          </ns3:TrackPointExtension>
        </extensions>
      </trkpt>
      <trkpt lat="44.6808756329119205474853515625" lon="6.8259297497570514678955078125">
        <ele>2514.60009765625</ele>
        <time>2026-08-31T07:00:19.000Z</time>
        <extensions>
          <ns3:TrackPointExtension>
            <ns3:hr>160</ns3:hr>
            <ns3:cad>0</ns3:cad>
          </ns3:TrackPointExtension>
        </extensions>
      </trkpt>
      <trkpt lat="44.68089130707085132598876953125" lon="6.825930587947368621826171875">
        <ele>2514.60009765625</ele>
        <time>2026-08-31T07:00:20.000Z</time>
        <extensions>
          <ns3:TrackPointExtension>
            <ns3:hr>160</ns3:hr>
            <ns3:cad>48</ns3:cad>
          </ns3:TrackPointExtension>
        </extensions>
      </trkpt>
      <trkpt lat="44.68090488575398921966552734375" lon="6.8259322643280029296875">
        <ele>2514.60009765625</ele>
        <time>2026-08-31T07:00:21.000Z</time>
        <extensions>
          <ns3:TrackPointExtension>
            <ns3:hr>160</ns3:hr>
            <ns3:cad>48</ns3:cad>
          </ns3:TrackPointExtension>
        </extensions>
      </trkpt>
      <trkpt lat="44.6809178777039051055908203125" lon="6.8259309232234954833984375">
        <ele>2514.800048828125</ele>
        <time>2026-08-31T07:00:22.000Z</time>
        <extensions>
          <ns3:TrackPointExtension>
            <ns3:hr>160</ns3:hr>
            <ns3:cad>48</ns3:cad>
          </ns3:TrackPointExtension>
        </extensions>
      </trkpt>
      <trkpt lat="44.68092885799705982208251953125" lon="6.82593000121414661407470703125">
        <ele>2515</ele>
        <time>2026-08-31T07:00:23.000Z</time>
        <extensions>
          <ns3:TrackPointExtension>
            <ns3:hr>159</ns3:hr>
            <ns3:cad>48</ns3:cad>
          </ns3:TrackPointExtension>
        </extensions>
      </trkpt>
      <trkpt lat="44.68093858100473880767822265625" lon="6.8259287439286708831787109375">
        <ele>2515.199951171875</ele>
        <time>2026-08-31T07:00:24.000Z</time>
        <extensions>
          <ns3:TrackPointExtension>
            <ns3:hr>159</ns3:hr>
            <ns3:cad>50</ns3:cad>
          </ns3:TrackPointExtension>
        </extensions>
      </trkpt>
      <trkpt lat="44.68094788491725921630859375" lon="6.8259282410144805908203125">
        <ele>2515.199951171875</ele>
        <time>2026-08-31T07:00:25.000Z</time>
        <extensions>
          <ns3:TrackPointExtension>
            <ns3:hr>159</ns3:hr>
            <ns3:cad>50</ns3:cad>
          </ns3:TrackPointExtension>
        </extensions>
      </trkpt>
      <trkpt lat="44.68095920048654079437255859375" lon="6.82592782191932201385498046875">
        <ele>2515.39990234375</ele>
        <time>2026-08-31T07:00:26.000Z</time>
        <extensions>
          <ns3:TrackPointExtension>
            <ns3:hr>159</ns3:hr>
            <ns3:cad>51</ns3:cad>
          </ns3:TrackPointExtension>
        </extensions>
      </trkpt>
      <trkpt lat="44.68096573837101459503173828125" lon="6.82592497207224369049072265625">
        <ele>2515.39990234375</ele>
        <time>2026-08-31T07:00:27.000Z</time>
        <extensions>
          <ns3:TrackPointExtension>
            <ns3:hr>160</ns3:hr>
            <ns3:cad>54</ns3:cad>
          </ns3:TrackPointExtension>
        </extensions>
      </trkpt>
      <trkpt lat="44.68096959404647350311279296875" lon="6.82592262513935565948486328125">
        <ele>2515.39990234375</ele>
        <time>2026-08-31T07:00:28.000Z</time>
        <extensions>
          <ns3:TrackPointExtension>
            <ns3:hr>160</ns3:hr>
            <ns3:cad>54</ns3:cad>
          </ns3:TrackPointExtension>
        </extensions>
      </trkpt>
      <trkpt lat="44.68097730539739131927490234375" lon="6.8259220384061336517333984375">
        <ele>2515.39990234375</ele>
        <time>2026-08-31T07:00:29.000Z</time>
        <extensions>
          <ns3:TrackPointExtension>
            <ns3:hr>160</ns3:hr>
            <ns3:cad>54</ns3:cad>
          </ns3:TrackPointExtension>
        </extensions>
      </trkpt>
      <trkpt lat="44.68098585493862628936767578125" lon="6.8259217031300067901611328125">
        <ele>2515.39990234375</ele>
        <time>2026-08-31T07:00:30.000Z</time>
        <extensions>
          <ns3:TrackPointExtension>
            <ns3:hr>160</ns3:hr>
            <ns3:cad>54</ns3:cad>
          </ns3:TrackPointExtension>
        </extensions>
      </trkpt>
      <trkpt lat="44.680994488298892974853515625" lon="6.8259243853390216827392578125">
        <ele>2515.60009765625</ele>
        <time>2026-08-31T07:00:31.000Z</time>
        <extensions>
          <ns3:TrackPointExtension>
            <ns3:hr>160</ns3:hr>
            <ns3:cad>54</ns3:cad>
          </ns3:TrackPointExtension>
        </extensions>
      </trkpt>
      <trkpt lat="44.681001864373683929443359375" lon="6.8259263969957828521728515625">
        <ele>2515.800048828125</ele>
        <time>2026-08-31T07:00:32.000Z</time>
        <extensions>
          <ns3:TrackPointExtension>
            <ns3:hr>160</ns3:hr>
            <ns3:cad>53</ns3:cad>
          </ns3:TrackPointExtension>
        </extensions>
      </trkpt>
      <trkpt lat="44.68101016245782375335693359375" lon="6.8259280733764171600341796875">
        <ele>2515.800048828125</ele>
        <time>2026-08-31T07:00:33.000Z</time>
        <extensions>
          <ns3:TrackPointExtension>
            <ns3:hr>160</ns3:hr>
            <ns3:cad>53</ns3:cad>
          </ns3:TrackPointExtension>
        </extensions>
      </trkpt>
      <trkpt lat="44.681020639836788177490234375" lon="6.82593335397541522979736328125">
        <ele>2516</ele>
        <time>2026-08-31T07:00:34.000Z</time>
        <extensions>
          <ns3:TrackPointExtension>
            <ns3:hr>160</ns3:hr>
            <ns3:cad>53</ns3:cad>
          </ns3:TrackPointExtension>
        </extensions>
      </trkpt>
      <trkpt lat="44.681031368672847747802734375" lon="6.82594140060245990753173828125">
        <ele>2516.199951171875</ele>
        <time>2026-08-31T07:00:35.000Z</time>
        <extensions>
          <ns3:TrackPointExtension>
            <ns3:hr>159</ns3:hr>
            <ns3:cad>52</ns3:cad>
          </ns3:TrackPointExtension>
        </extensions>
      </trkpt>
      <trkpt lat="44.68103765510022640228271484375" lon="6.8259522132575511932373046875">
        <ele>2516.39990234375</ele>
        <time>2026-08-31T07:00:36.000Z</time>
        <extensions>
          <ns3:TrackPointExtension>
            <ns3:hr>159</ns3:hr>
            <ns3:cad>52</ns3:cad>
          </ns3:TrackPointExtension>
        </extensions>
      </trkpt>
      <trkpt lat="44.6810415945947170257568359375" lon="6.8259622715413570404052734375">
        <ele>2516.60009765625</ele>
        <time>2026-08-31T07:00:37.000Z</time>
        <extensions>
          <ns3:TrackPointExtension>
            <ns3:hr>159</ns3:hr>
            <ns3:cad>52</ns3:cad>
          </ns3:TrackPointExtension>
        </extensions>
      </trkpt>
      <trkpt lat="44.68104369007050991058349609375" lon="6.825972832739353179931640625">
        <ele>2516.800048828125</ele>
        <time>2026-08-31T07:00:38.000Z</time>
        <extensions>
          <ns3:TrackPointExtension>
            <ns3:hr>159</ns3:hr>
            <ns3:cad>52</ns3:cad>
          </ns3:TrackPointExtension>
        </extensions>
      </trkpt>
      <trkpt lat="44.68104385770857334136962890625" lon="6.82597861625254154205322265625">
        <ele>2517</ele>
        <time>2026-08-31T07:00:39.000Z</time>
        <extensions>
          <ns3:TrackPointExtension>
            <ns3:hr>159</ns3:hr>
            <ns3:cad>0</ns3:cad>
          </ns3:TrackPointExtension>
        </extensions>
      </trkpt>
      <trkpt lat="44.68104821629822254180908203125" lon="6.8259860761463642120361328125">
        <ele>2517.199951171875</ele>
        <time>2026-08-31T07:00:40.000Z</time>
        <extensions>
          <ns3:TrackPointExtension>
            <ns3:hr>158</ns3:hr>
            <ns3:cad>0</ns3:cad>
          </ns3:TrackPointExtension>
        </extensions>
      </trkpt>
      <trkpt lat="44.68104838393628597259521484375" lon="6.82598590850830078125">
        <ele>2517.199951171875</ele>
        <time>2026-08-31T07:00:41.000Z</time>
        <extensions>
          <ns3:TrackPointExtension>
            <ns3:hr>159</ns3:hr>
            <ns3:cad>0</ns3:cad>
          </ns3:TrackPointExtension>
        </extensions>
      </trkpt>
      <trkpt lat="44.681046791374683380126953125" lon="6.82598255574703216552734375">
        <ele>2517.199951171875</ele>
        <time>2026-08-31T07:00:42.000Z</time>
        <extensions>
          <ns3:TrackPointExtension>
            <ns3:hr>158</ns3:hr>
            <ns3:cad>0</ns3:cad>
          </ns3:TrackPointExtension>
        </extensions>
      </trkpt>
      <trkpt lat="44.681045114994049072265625" lon="6.8259820528328418731689453125">
        <ele>2517.199951171875</ele>
        <time>2026-08-31T07:00:43.000Z</time>
        <extensions>
          <ns3:TrackPointExtension>
            <ns3:hr>158</ns3:hr>
            <ns3:cad>0</ns3:cad>
          </ns3:TrackPointExtension>
        </extensions>
      </trkpt>
      <trkpt lat="44.6810439415276050567626953125" lon="6.82598523795604705810546875">
        <ele>2517.39990234375</ele>
        <time>2026-08-31T07:00:44.000Z</time>
        <extensions>
          <ns3:TrackPointExtension>
            <ns3:hr>158</ns3:hr>
            <ns3:cad>0</ns3:cad>
          </ns3:TrackPointExtension>
        </extensions>
      </trkpt>
      <trkpt lat="44.68104218132793903350830078125" lon="6.8259900994598865509033203125">
        <ele>2517.39990234375</ele>
        <time>2026-08-31T07:00:45.000Z</time>
        <extensions>
          <ns3:TrackPointExtension>
            <ns3:hr>158</ns3:hr>
            <ns3:cad>0</ns3:cad>
          </ns3:TrackPointExtension>
        </extensions>
      </trkpt>
      <trkpt lat="44.68104402534663677215576171875" lon="6.8259988166391849517822265625">
        <ele>2517.39990234375</ele>
        <time>2026-08-31T07:00:46.000Z</time>
        <extensions>
          <ns3:TrackPointExtension>
            <ns3:hr>158</ns3:hr>
            <ns3:cad>0</ns3:cad>
          </ns3:TrackPointExtension>
        </extensions>
      </trkpt>
      <trkpt lat="44.68104637227952480316162109375" lon="6.82601063512265682220458984375">
        <ele>2517.60009765625</ele>
        <time>2026-08-31T07:00:47.000Z</time>
        <extensions>
          <ns3:TrackPointExtension>
            <ns3:hr>158</ns3:hr>
            <ns3:cad>0</ns3:cad>
          </ns3:TrackPointExtension>
        </extensions>
      </trkpt>
      <trkpt lat="44.68104989267885684967041015625" lon="6.8260246329009532928466796875">
        <ele>2517.800048828125</ele>
        <time>2026-08-31T07:00:48.000Z</time>
        <extensions>
          <ns3:TrackPointExtension>
            <ns3:hr>158</ns3:hr>
            <ns3:cad>0</ns3:cad>
          </ns3:TrackPointExtension>
        </extensions>
      </trkpt>
      <trkpt lat="44.6810486353933811187744140625" lon="6.826037876307964324951171875">
        <ele>2518</ele>
        <time>2026-08-31T07:00:49.000Z</time>
        <extensions>
          <ns3:TrackPointExtension>
            <ns3:hr>157</ns3:hr>
            <ns3:cad>0</ns3:cad>
          </ns3:TrackPointExtension>
        </extensions>
      </trkpt>
      <trkpt lat="44.68104352243244647979736328125" lon="6.8260489404201507568359375">
        <ele>2518.39990234375</ele>
        <time>2026-08-31T07:00:50.000Z</time>
        <extensions>
          <ns3:TrackPointExtension>
            <ns3:hr>157</ns3:hr>
            <ns3:cad>0</ns3:cad>
          </ns3:TrackPointExtension>
        </extensions>
      </trkpt>
      <trkpt lat="44.68104218132793903350830078125" lon="6.8260598368942737579345703125">
        <ele>2518.60009765625</ele>
        <time>2026-08-31T07:00:51.000Z</time>
        <extensions>
          <ns3:TrackPointExtension>
            <ns3:hr>157</ns3:hr>
            <ns3:cad>0</ns3:cad>
          </ns3:TrackPointExtension>
        </extensions>
      </trkpt>
      <trkpt lat="44.68104117549955844879150390625" lon="6.82607282884418964385986328125">
        <ele>2518.800048828125</ele>
        <time>2026-08-31T07:00:52.000Z</time>
        <extensions>
          <ns3:TrackPointExtension>
            <ns3:hr>157</ns3:hr>
            <ns3:cad>0</ns3:cad>
          </ns3:TrackPointExtension>
        </extensions>
      </trkpt>
      <trkpt lat="44.6810392476618289947509765625" lon="6.82608154602348804473876953125">
        <ele>2518.800048828125</ele>
        <time>2026-08-31T07:00:53.000Z</time>
        <extensions>
          <ns3:TrackPointExtension>
            <ns3:hr>157</ns3:hr>
            <ns3:cad>0</ns3:cad>
          </ns3:TrackPointExtension>
        </extensions>
      </trkpt>
      <trkpt lat="44.68103664927184581756591796875" lon="6.8260936997830867767333984375">
        <ele>2519</ele>
        <time>2026-08-31T07:00:54.000Z</time>
        <extensions>
          <ns3:TrackPointExtension>
            <ns3:hr>157</ns3:hr>
            <ns3:cad>0</ns3:cad>
          </ns3:TrackPointExtension>
        </extensions>
      </trkpt>
      <trkpt lat="44.6810365654528141021728515625" lon="6.82610166259109973907470703125">
        <ele>2519.199951171875</ele>
        <time>2026-08-31T07:00:55.000Z</time>
        <extensions>
          <ns3:TrackPointExtension>
            <ns3:hr>157</ns3:hr>
            <ns3:cad>0</ns3:cad>
          </ns3:TrackPointExtension>
        </extensions>
      </trkpt>
      <trkpt lat="44.68103329651057720184326171875" lon="6.8261164985597133636474609375">
        <ele>2519.199951171875</ele>
        <time>2026-08-31T07:00:56.000Z</time>
        <extensions>
          <ns3:TrackPointExtension>
            <ns3:hr>156</ns3:hr>
            <ns3:cad>0</ns3:cad>
          </ns3:TrackPointExtension>
        </extensions>
      </trkpt>
      <trkpt lat="44.68103111721575260162353515625" lon="6.8261272273957729339599609375">
        <ele>2519.39990234375</ele>
        <time>2026-08-31T07:00:57.000Z</time>
        <extensions>
          <ns3:TrackPointExtension>
            <ns3:hr>157</ns3:hr>
            <ns3:cad>48</ns3:cad>
          </ns3:TrackPointExtension>
        </extensions>
      </trkpt>
      <trkpt lat="44.68103145249187946319580078125" lon="6.82614658959209918975830078125">
        <ele>2519.60009765625</ele>
        <time>2026-08-31T07:00:58.000Z</time>
        <extensions>
          <ns3:TrackPointExtension>
            <ns3:hr>157</ns3:hr>
            <ns3:cad>48</ns3:cad>
          </ns3:TrackPointExtension>
        </extensions>
      </trkpt>
      <trkpt lat="44.68103128485381603240966796875" lon="6.82616251520812511444091796875">
        <ele>2519.800048828125</ele>
        <time>2026-08-31T07:00:59.000Z</time>
        <extensions>
          <ns3:TrackPointExtension>
            <ns3:hr>156</ns3:hr>
            <ns3:cad>48</ns3:cad>
          </ns3:TrackPointExtension>
        </extensions>
      </trkpt>
      <trkpt lat="44.68103011138737201690673828125" lon="6.82617927901446819305419921875">
        <ele>2520</ele>
        <time>2026-08-31T07:01:00.000Z</time>
        <extensions>
          <ns3:TrackPointExtension>
            <ns3:hr>157</ns3:hr>
            <ns3:cad>48</ns3:cad>
          </ns3:TrackPointExtension>
        </extensions>
      </trkpt>
      <trkpt lat="44.68102969229221343994140625" lon="6.82619386352598667144775390625">
        <ele>2520</ele>
        <time>2026-08-31T07:01:01.000Z</time>
        <extensions>
          <ns3:TrackPointExtension>
            <ns3:hr>157</ns3:hr>
            <ns3:cad>0</ns3:cad>
          </ns3:TrackPointExtension>
        </extensions>
      </trkpt>
      <trkpt lat="44.68103078193962574005126953125" lon="6.826204843819141387939453125">
        <ele>2520.199951171875</ele>
        <time>2026-08-31T07:01:02.000Z</time>
        <extensions>
          <ns3:TrackPointExtension>
            <ns3:hr>157</ns3:hr>
            <ns3:cad>0</ns3:cad>
          </ns3:TrackPointExtension>
        </extensions>
      </trkpt>
      <trkpt lat="44.68103061430156230926513671875" lon="6.8262179195880889892578125">
        <ele>2520.39990234375</ele>
        <time>2026-08-31T07:01:03.000Z</time>
        <extensions>
          <ns3:TrackPointExtension>
            <ns3:hr>157</ns3:hr>
            <ns3:cad>0</ns3:cad>
          </ns3:TrackPointExtension>
        </extensions>
      </trkpt>
      <trkpt lat="44.68103212304413318634033203125" lon="6.82622856460511684417724609375">
        <ele>2520.60009765625</ele>
        <time>2026-08-31T07:01:04.000Z</time>
        <extensions>
          <ns3:TrackPointExtension>
            <ns3:hr>157</ns3:hr>
            <ns3:cad>0</ns3:cad>
          </ns3:TrackPointExtension>
        </extensions>
      </trkpt>
      <trkpt lat="44.68103480525314807891845703125" lon="6.826240718364715576171875">
        <ele>2520.800048828125</ele>
        <time>2026-08-31T07:01:05.000Z</time>
        <extensions>
          <ns3:TrackPointExtension>
            <ns3:hr>158</ns3:hr>
            <ns3:cad>0</ns3:cad>
          </ns3:TrackPointExtension>
        </extensions>
      </trkpt>
      <trkpt lat="44.68103832565248012542724609375" lon="6.82624951936304569244384765625">
        <ele>2521</ele>
        <time>2026-08-31T07:01:06.000Z</time>
        <extensions>
          <ns3:TrackPointExtension>
            <ns3:hr>158</ns3:hr>
            <ns3:cad>0</ns3:cad>
          </ns3:TrackPointExtension>
        </extensions>
      </trkpt>
      <trkpt lat="44.68104234896600246429443359375" lon="6.8262673728168010711669921875">
        <ele>2521</ele>
        <time>2026-08-31T07:01:07.000Z</time>
        <extensions>
          <ns3:TrackPointExtension>
            <ns3:hr>158</ns3:hr>
            <ns3:cad>0</ns3:cad>
          </ns3:TrackPointExtension>
        </extensions>
      </trkpt>
      <trkpt lat="44.68104578554630279541015625" lon="6.82627734728157520294189453125">
        <ele>2521.199951171875</ele>
        <time>2026-08-31T07:01:08.000Z</time>
        <extensions>
          <ns3:TrackPointExtension>
            <ns3:hr>158</ns3:hr>
            <ns3:cad>0</ns3:cad>
          </ns3:TrackPointExtension>
        </extensions>
      </trkpt>
      <trkpt lat="44.68105156905949115753173828125" lon="6.8262945301830768585205078125">
        <ele>2521.39990234375</ele>
        <time>2026-08-31T07:01:09.000Z</time>
        <extensions>
          <ns3:TrackPointExtension>
            <ns3:hr>158</ns3:hr>
            <ns3:cad>0</ns3:cad>
          </ns3:TrackPointExtension>
        </extensions>
      </trkpt>
      <trkpt lat="44.68105785548686981201171875" lon="6.8263076059520244598388671875">
        <ele>2521.39990234375</ele>
        <time>2026-08-31T07:01:10.000Z</time>
        <extensions>
          <ns3:TrackPointExtension>
            <ns3:hr>158</ns3:hr>
            <ns3:cad>0</ns3:cad>
          </ns3:TrackPointExtension>
        </extensions>
      </trkpt>
      <trkpt lat="44.68106531538069248199462890625" lon="6.826316826045513153076171875">
        <ele>2521.60009765625</ele>
        <time>2026-08-31T07:01:11.000Z</time>
        <extensions>
          <ns3:TrackPointExtension>
            <ns3:hr>159</ns3:hr>
            <ns3:cad>0</ns3:cad>
          </ns3:TrackPointExtension>
        </extensions>
      </trkpt>
      <trkpt lat="44.68107503838837146759033203125" lon="6.82632730342447757720947265625">
        <ele>2521.800048828125</ele>
        <time>2026-08-31T07:01:12.000Z</time>
        <extensions>
          <ns3:TrackPointExtension>
            <ns3:hr>159</ns3:hr>
            <ns3:cad>0</ns3:cad>
          </ns3:TrackPointExtension>
        </extensions>
      </trkpt>
      <trkpt lat="44.6810784749686717987060546875" lon="6.82633115909993648529052734375">
        <ele>2522</ele>
        <time>2026-08-31T07:01:13.000Z</time>
        <extensions>
          <ns3:TrackPointExtension>
            <ns3:hr>159</ns3:hr>
            <ns3:cad>0</ns3:cad>
          </ns3:TrackPointExtension>
        </extensions>
      </trkpt>
      <trkpt lat="44.68108744360506534576416015625" lon="6.82633870281279087066650390625">
        <ele>2522.199951171875</ele>
        <time>2026-08-31T07:01:14.000Z</time>
        <extensions>
          <ns3:TrackPointExtension>
            <ns3:hr>159</ns3:hr>
            <ns3:cad>0</ns3:cad>
          </ns3:TrackPointExtension>
        </extensions>
      </trkpt>
      <trkpt lat="44.68109498731791973114013671875" lon="6.8263418041169643402099609375">
        <ele>2522.39990234375</ele>
        <time>2026-08-31T07:01:15.000Z</time>
        <extensions>
          <ns3:TrackPointExtension>
            <ns3:hr>159</ns3:hr>
            <ns3:cad>0</ns3:cad>
          </ns3:TrackPointExtension>
        </extensions>
      </trkpt>
      <trkpt lat="44.68110370449721813201904296875" lon="6.82634473778307437896728515625">
        <ele>2522.60009765625</ele>
        <time>2026-08-31T07:01:16.000Z</time>
        <extensions>
          <ns3:TrackPointExtension>
            <ns3:hr>159</ns3:hr>
            <ns3:cad>0</ns3:cad>
          </ns3:TrackPointExtension>
        </extensions>
      </trkpt>
      <trkpt lat="44.681106470525264739990234375" lon="6.8263471685349941253662109375">
        <ele>2522.800048828125</ele>
        <time>2026-08-31T07:01:17.000Z</time>
        <extensions>
          <ns3:TrackPointExtension>
            <ns3:hr>159</ns3:hr>
            <ns3:cad>0</ns3:cad>
          </ns3:TrackPointExtension>
        </extensions>
      </trkpt>
      <trkpt lat="44.681113176047801971435546875" lon="6.82635026983916759490966796875">
        <ele>2523</ele>
        <time>2026-08-31T07:01:18.000Z</time>
        <extensions>
          <ns3:TrackPointExtension>
            <ns3:hr>159</ns3:hr>
            <ns3:cad>0</ns3:cad>
          </ns3:TrackPointExtension>
        </extensions>
      </trkpt>
      <trkpt lat="44.68112046830356121063232421875" lon="6.826350688934326171875">
        <ele>2523.199951171875</ele>
        <time>2026-08-31T07:01:19.000Z</time>
        <extensions>
          <ns3:TrackPointExtension>
            <ns3:hr>159</ns3:hr>
            <ns3:cad>0</ns3:cad>
          </ns3:TrackPointExtension>
        </extensions>
      </trkpt>
      <trkpt lat="44.68111979775130748748779296875" lon="6.82634792290627956390380859375">
        <ele>2523.39990234375</ele>
        <time>2026-08-31T07:01:20.000Z</time>
        <extensions>
          <ns3:TrackPointExtension>
            <ns3:hr>158</ns3:hr>
            <ns3:cad>0</ns3:cad>
          </ns3:TrackPointExtension>
        </extensions>
      </trkpt>
      <trkpt lat="44.68112013302743434906005859375" lon="6.826348006725311279296875">
        <ele>2523.60009765625</ele>
        <time>2026-08-31T07:01:21.000Z</time>
        <extensions>
          <ns3:TrackPointExtension>
            <ns3:hr>159</ns3:hr>
            <ns3:cad>0</ns3:cad>
          </ns3:TrackPointExtension>
        </extensions>
      </trkpt>
      <trkpt lat="44.6811270900070667266845703125" lon="6.82634524069726467132568359375">
        <ele>2523.800048828125</ele>
        <time>2026-08-31T07:01:22.000Z</time>
        <extensions>
          <ns3:TrackPointExtension>
            <ns3:hr>159</ns3:hr>
            <ns3:cad>0</ns3:cad>
          </ns3:TrackPointExtension>
        </extensions>
      </trkpt>
      <trkpt lat="44.68114376999437808990478515625" lon="6.826345659792423248291015625">
        <ele>2524</ele>
        <time>2026-08-31T07:01:23.000Z</time>
        <extensions>
          <ns3:TrackPointExtension>
            <ns3:hr>159</ns3:hr>
            <ns3:cad>0</ns3:cad>
          </ns3:TrackPointExtension>
        </extensions>
      </trkpt>
      <trkpt lat="44.68115550465881824493408203125" lon="6.82635395787656307220458984375">
        <ele>2524.199951171875</ele>
        <time>2026-08-31T07:01:24.000Z</time>
        <extensions>
          <ns3:TrackPointExtension>
            <ns3:hr>158</ns3:hr>
            <ns3:cad>0</ns3:cad>
          </ns3:TrackPointExtension>
        </extensions>
      </trkpt>
      <trkpt lat="44.6811666525900363922119140625" lon="6.82636468671262264251708984375">
        <ele>2524.60009765625</ele>
        <time>2026-08-31T07:01:25.000Z</time>
        <extensions>
          <ns3:TrackPointExtension>
            <ns3:hr>159</ns3:hr>
            <ns3:cad>0</ns3:cad>
          </ns3:TrackPointExtension>
        </extensions>
      </trkpt>
      <trkpt lat="44.68117360956966876983642578125" lon="6.8263830430805683135986328125">
        <ele>2524.800048828125</ele>
        <time>2026-08-31T07:01:26.000Z</time>
        <extensions>
          <ns3:TrackPointExtension>
            <ns3:hr>159</ns3:hr>
            <ns3:cad>0</ns3:cad>
          </ns3:TrackPointExtension>
        </extensions>
      </trkpt>
      <trkpt lat="44.68117746524512767791748046875" lon="6.82639268226921558380126953125">
        <ele>2525</ele>
        <time>2026-08-31T07:01:27.000Z</time>
        <extensions>
          <ns3:TrackPointExtension>
            <ns3:hr>159</ns3:hr>
            <ns3:cad>0</ns3:cad>
          </ns3:TrackPointExtension>
        </extensions>
      </trkpt>
      <trkpt lat="44.6811767108738422393798828125" lon="6.82641413994133472442626953125">
        <ele>2525.199951171875</ele>
        <time>2026-08-31T07:01:28.000Z</time>
        <extensions>
          <ns3:TrackPointExtension>
            <ns3:hr>159</ns3:hr>
            <ns3:cad>0</ns3:cad>
          </ns3:TrackPointExtension>
        </extensions>
      </trkpt>
      <trkpt lat="44.68117796815931797027587890625" lon="6.826425455510616302490234375">
        <ele>2525.39990234375</ele>
        <time>2026-08-31T07:01:29.000Z</time>
        <extensions>
          <ns3:TrackPointExtension>
            <ns3:hr>159</ns3:hr>
            <ns3:cad>77</ns3:cad>
          </ns3:TrackPointExtension>
        </extensions>
      </trkpt>
      <trkpt lat="44.6811746992170810699462890625" lon="6.8264457397162914276123046875">
        <ele>2525.60009765625</ele>
        <time>2026-08-31T07:01:30.000Z</time>
        <extensions>
          <ns3:TrackPointExtension>
            <ns3:hr>159</ns3:hr>
            <ns3:cad>77</ns3:cad>
          </ns3:TrackPointExtension>
        </extensions>
      </trkpt>
      <trkpt lat="44.68117319047451019287109375" lon="6.82646024040877819061279296875">
        <ele>2525.800048828125</ele>
        <time>2026-08-31T07:01:31.000Z</time>
        <extensions>
          <ns3:TrackPointExtension>
            <ns3:hr>159</ns3:hr>
            <ns3:cad>0</ns3:cad>
          </ns3:TrackPointExtension>
        </extensions>
      </trkpt>
      <trkpt lat="44.68117126263678073883056640625" lon="6.82646795175969600677490234375">
        <ele>2526</ele>
        <time>2026-08-31T07:01:32.000Z</time>
        <extensions>
          <ns3:TrackPointExtension>
            <ns3:hr>160</ns3:hr>
            <ns3:cad>0</ns3:cad>
          </ns3:TrackPointExtension>
        </extensions>
      </trkpt>
      <trkpt lat="44.68116757459938526153564453125" lon="6.82648270390927791595458984375">
        <ele>2526.199951171875</ele>
        <time>2026-08-31T07:01:33.000Z</time>
        <extensions>
          <ns3:TrackPointExtension>
            <ns3:hr>160</ns3:hr>
            <ns3:cad>0</ns3:cad>
          </ns3:TrackPointExtension>
        </extensions>
      </trkpt>
      <trkpt lat="44.68116581439971923828125" lon="6.82649058289825916290283203125">
        <ele>2526.39990234375</ele>
        <time>2026-08-31T07:01:34.000Z</time>
        <extensions>
          <ns3:TrackPointExtension>
            <ns3:hr>159</ns3:hr>
            <ns3:cad>0</ns3:cad>
          </ns3:TrackPointExtension>
        </extensions>
      </trkpt>
      <trkpt lat="44.68116137199103832244873046875" lon="6.82650424540042877197265625">
        <ele>2526.60009765625</ele>
        <time>2026-08-31T07:01:35.000Z</time>
        <extensions>
          <ns3:TrackPointExtension>
            <ns3:hr>159</ns3:hr>
            <ns3:cad>0</ns3:cad>
          </ns3:TrackPointExtension>
        </extensions>
      </trkpt>
      <trkpt lat="44.6811576001346111297607421875" lon="6.8265154771506786346435546875">
        <ele>2526.800048828125</ele>
        <time>2026-08-31T07:01:36.000Z</time>
        <extensions>
          <ns3:TrackPointExtension>
            <ns3:hr>159</ns3:hr>
            <ns3:cad>0</ns3:cad>
          </ns3:TrackPointExtension>
        </extensions>
      </trkpt>
      <trkpt lat="44.68115282244980335235595703125" lon="6.82652880437672138214111328125">
        <ele>2527</ele>
        <time>2026-08-31T07:01:37.000Z</time>
        <extensions>
          <ns3:TrackPointExtension>
            <ns3:hr>159</ns3:hr>
            <ns3:cad>0</ns3:cad>
          </ns3:TrackPointExtension>
        </extensions>
      </trkpt>
      <trkpt lat="44.6811472065746784210205078125" lon="6.8265392817556858062744140625">
        <ele>2527</ele>
        <time>2026-08-31T07:01:38.000Z</time>
        <extensions>
          <ns3:TrackPointExtension>
            <ns3:hr>159</ns3:hr>
            <ns3:cad>0</ns3:cad>
          </ns3:TrackPointExtension>
        </extensions>
      </trkpt>
      <trkpt lat="44.68114326708018779754638671875" lon="6.8265536986291408538818359375">
        <ele>2527.199951171875</ele>
        <time>2026-08-31T07:01:39.000Z</time>
        <extensions>
          <ns3:TrackPointExtension>
            <ns3:hr>159</ns3:hr>
            <ns3:cad>0</ns3:cad>
          </ns3:TrackPointExtension>
        </extensions>
      </trkpt>
      <trkpt lat="44.6811495535075664520263671875" lon="6.82656467892229557037353515625">
        <ele>2527.39990234375</ele>
        <time>2026-08-31T07:01:40.000Z</time>
        <extensions>
          <ns3:TrackPointExtension>
            <ns3:hr>158</ns3:hr>
            <ns3:cad>0</ns3:cad>
          </ns3:TrackPointExtension>
        </extensions>
      </trkpt>
      <trkpt lat="44.68115315772593021392822265625" lon="6.82657138444483280181884765625">
        <ele>2527.60009765625</ele>
        <time>2026-08-31T07:01:41.000Z</time>
        <extensions>
          <ns3:TrackPointExtension>
            <ns3:hr>158</ns3:hr>
            <ns3:cad>0</ns3:cad>
          </ns3:TrackPointExtension>
        </extensions>
      </trkpt>
      <trkpt lat="44.681157767772674560546875" lon="6.82656593620777130126953125">
        <ele>2527.800048828125</ele>
        <time>2026-08-31T07:01:42.000Z</time>
        <extensions>
          <ns3:TrackPointExtension>
            <ns3:hr>158</ns3:hr>
            <ns3:cad>0</ns3:cad>
          </ns3:TrackPointExtension>
        </extensions>
      </trkpt>
      <trkpt lat="44.6811576001346111297607421875" lon="6.82655981741845607757568359375">
        <ele>2528</ele>
        <time>2026-08-31T07:01:43.000Z</time>
        <extensions>
          <ns3:TrackPointExtension>
            <ns3:hr>158</ns3:hr>
            <ns3:cad>0</ns3:cad>
          </ns3:TrackPointExtension>
        </extensions>
      </trkpt>
      <trkpt lat="44.6811579354107379913330078125" lon="6.82655923068523406982421875">
        <ele>2528.199951171875</ele>
        <time>2026-08-31T07:01:44.000Z</time>
        <extensions>
          <ns3:TrackPointExtension>
            <ns3:hr>158</ns3:hr>
            <ns3:cad>0</ns3:cad>
          </ns3:TrackPointExtension>
        </extensions>
      </trkpt>
      <trkpt lat="44.6811609528958797454833984375" lon="6.826557219028472900390625">
        <ele>2528.39990234375</ele>
        <time>2026-08-31T07:01:45.000Z</time>
        <extensions>
          <ns3:TrackPointExtension>
            <ns3:hr>157</ns3:hr>
            <ns3:cad>0</ns3:cad>
          </ns3:TrackPointExtension>
        </extensions>
      </trkpt>
      <trkpt lat="44.681165479123592376708984375" lon="6.82656099088490009307861328125">
        <ele>2528.60009765625</ele>
        <time>2026-08-31T07:01:46.000Z</time>
        <extensions>
          <ns3:TrackPointExtension>
            <ns3:hr>157</ns3:hr>
            <ns3:cad>0</ns3:cad>
          </ns3:TrackPointExtension>
        </extensions>
      </trkpt>
      <trkpt lat="44.681168831884860992431640625" lon="6.826562583446502685546875">
        <ele>2528.60009765625</ele>
        <time>2026-08-31T07:01:47.000Z</time>
        <extensions>
          <ns3:TrackPointExtension>
            <ns3:hr>157</ns3:hr>
            <ns3:cad>0</ns3:cad>
          </ns3:TrackPointExtension>
        </extensions>
      </trkpt>
      <trkpt lat="44.681172184646129608154296875" lon="6.82655730284750461578369140625">
        <ele>2528.800048828125</ele>
        <time>2026-08-31T07:01:48.000Z</time>
        <extensions>
          <ns3:TrackPointExtension>
            <ns3:hr>156</ns3:hr>
            <ns3:cad>0</ns3:cad>
          </ns3:TrackPointExtension>
        </extensions>
      </trkpt>
      <trkpt lat="44.68118190765380859375" lon="6.82655562646687030792236328125">
        <ele>2529</ele>
        <time>2026-08-31T07:01:49.000Z</time>
        <extensions>
          <ns3:TrackPointExtension>
            <ns3:hr>157</ns3:hr>
            <ns3:cad>0</ns3:cad>
          </ns3:TrackPointExtension>
        </extensions>
      </trkpt>
      <trkpt lat="44.68118735589087009429931640625" lon="6.826557554304599761962890625">
        <ele>2529.199951171875</ele>
        <time>2026-08-31T07:01:50.000Z</time>
        <extensions>
          <ns3:TrackPointExtension>
            <ns3:hr>157</ns3:hr>
            <ns3:cad>0</ns3:cad>
          </ns3:TrackPointExtension>
        </extensions>
      </trkpt>
      <trkpt lat="44.68119473196566104888916015625" lon="6.826557554304599761962890625">
        <ele>2529.39990234375</ele>
        <time>2026-08-31T07:01:51.000Z</time>
        <extensions>
          <ns3:TrackPointExtension>
            <ns3:hr>157</ns3:hr>
            <ns3:cad>0</ns3:cad>
          </ns3:TrackPointExtension>
        </extensions>
      </trkpt>
      <trkpt lat="44.68119707889854907989501953125" lon="6.8265573866665363311767578125">
        <ele>2529.60009765625</ele>
        <time>2026-08-31T07:01:52.000Z</time>
        <extensions>
          <ns3:TrackPointExtension>
            <ns3:hr>157</ns3:hr>
            <ns3:cad>0</ns3:cad>
          </ns3:TrackPointExtension>
        </extensions>
      </trkpt>
      <trkpt lat="44.68120328150689601898193359375" lon="6.8265560455620288848876953125">
        <ele>2529.800048828125</ele>
        <time>2026-08-31T07:01:53.000Z</time>
        <extensions>
          <ns3:TrackPointExtension>
            <ns3:hr>157</ns3:hr>
            <ns3:cad>0</ns3:cad>
          </ns3:TrackPointExtension>
        </extensions>
      </trkpt>
      <trkpt lat="44.68121233396232128143310546875" lon="6.82655612938106060028076171875">
        <ele>2530</ele>
        <time>2026-08-31T07:01:54.000Z</time>
        <extensions>
          <ns3:TrackPointExtension>
            <ns3:hr>157</ns3:hr>
            <ns3:cad>0</ns3:cad>
          </ns3:TrackPointExtension>
        </extensions>
      </trkpt>
      <trkpt lat="44.6812142618000507354736328125" lon="6.82655897922813892364501953125">
        <ele>2530.39990234375</ele>
        <time>2026-08-31T07:01:55.000Z</time>
        <extensions>
          <ns3:TrackPointExtension>
            <ns3:hr>157</ns3:hr>
            <ns3:cad>0</ns3:cad>
          </ns3:TrackPointExtension>
        </extensions>
      </trkpt>
      <trkpt lat="44.68122339807450771331787109375" lon="6.8265617452561855316162109375">
        <ele>2530.60009765625</ele>
        <time>2026-08-31T07:01:56.000Z</time>
        <extensions>
          <ns3:TrackPointExtension>
            <ns3:hr>157</ns3:hr>
            <ns3:cad>0</ns3:cad>
          </ns3:TrackPointExtension>
        </extensions>
      </trkpt>
      <trkpt lat="44.68122608028352260589599609375" lon="6.82656182907521724700927734375">
        <ele>2530.800048828125</ele>
        <time>2026-08-31T07:01:57.000Z</time>
        <extensions>
          <ns3:TrackPointExtension>
            <ns3:hr>157</ns3:hr>
            <ns3:cad>0</ns3:cad>
          </ns3:TrackPointExtension>
        </extensions>
      </trkpt>
      <trkpt lat="44.681233875453472137451171875" lon="6.8265630863606929779052734375">
        <ele>2531</ele>
        <time>2026-08-31T07:01:58.000Z</time>
        <extensions>
          <ns3:TrackPointExtension>
            <ns3:hr>157</ns3:hr>
            <ns3:cad>0</ns3:cad>
          </ns3:TrackPointExtension>
        </extensions>
      </trkpt>
      <trkpt lat="44.68124016188085079193115234375" lon="6.8265614099800586700439453125">
        <ele>2531.39990234375</ele>
        <time>2026-08-31T07:01:59.000Z</time>
        <extensions>
          <ns3:TrackPointExtension>
            <ns3:hr>157</ns3:hr>
            <ns3:cad>0</ns3:cad>
          </ns3:TrackPointExtension>
        </extensions>
      </trkpt>
      <trkpt lat="44.68124938197433948516845703125" lon="6.82655562646687030792236328125">
        <ele>2531.60009765625</ele>
        <time>2026-08-31T07:02:00.000Z</time>
        <extensions>
          <ns3:TrackPointExtension>
            <ns3:hr>158</ns3:hr>
            <ns3:cad>0</ns3:cad>
          </ns3:TrackPointExtension>
        </extensions>
      </trkpt>
      <trkpt lat="44.6812555007636547088623046875" lon="6.8265573866665363311767578125">
        <ele>2531.800048828125</ele>
        <time>2026-08-31T07:02:01.000Z</time>
        <extensions>
          <ns3:TrackPointExtension>
            <ns3:hr>158</ns3:hr>
            <ns3:cad>0</ns3:cad>
          </ns3:TrackPointExtension>
        </extensions>
      </trkpt>
      <trkpt lat="44.68125944025814533233642578125" lon="6.8265620805323123931884765625">
        <ele>2532</ele>
        <time>2026-08-31T07:02:02.000Z</time>
        <extensions>
          <ns3:TrackPointExtension>
            <ns3:hr>158</ns3:hr>
            <ns3:cad>0</ns3:cad>
          </ns3:TrackPointExtension>
        </extensions>
      </trkpt>
      <trkpt lat="44.68126882798969745635986328125" lon="6.82656350545585155487060546875">
        <ele>2532.199951171875</ele>
        <time>2026-08-31T07:02:03.000Z</time>
        <extensions>
          <ns3:TrackPointExtension>
            <ns3:hr>158</ns3:hr>
            <ns3:cad>0</ns3:cad>
          </ns3:TrackPointExtension>
        </extensions>
      </trkpt>
      <trkpt lat="44.68127653934061527252197265625" lon="6.8265634216368198394775390625">
        <ele>2532.39990234375</ele>
        <time>2026-08-31T07:02:04.000Z</time>
        <extensions>
          <ns3:TrackPointExtension>
            <ns3:hr>159</ns3:hr>
            <ns3:cad>0</ns3:cad>
          </ns3:TrackPointExtension>
        </extensions>
      </trkpt>
      <trkpt lat="44.68128391541540622711181640625" lon="6.8265620805323123931884765625">
        <ele>2532.800048828125</ele>
        <time>2026-08-31T07:02:05.000Z</time>
        <extensions>
          <ns3:TrackPointExtension>
            <ns3:hr>159</ns3:hr>
            <ns3:cad>0</ns3:cad>
          </ns3:TrackPointExtension>
        </extensions>
      </trkpt>
      <trkpt lat="44.68128726817667484283447265625" lon="6.8265590630471706390380859375">
        <ele>2533</ele>
        <time>2026-08-31T07:02:06.000Z</time>
        <extensions>
          <ns3:TrackPointExtension>
            <ns3:hr>159</ns3:hr>
            <ns3:cad>0</ns3:cad>
          </ns3:TrackPointExtension>
        </extensions>
      </trkpt>
      <trkpt lat="44.68129380606114864349365234375" lon="6.82655730284750461578369140625">
        <ele>2533.199951171875</ele>
        <time>2026-08-31T07:02:07.000Z</time>
        <extensions>
          <ns3:TrackPointExtension>
            <ns3:hr>160</ns3:hr>
            <ns3:cad>0</ns3:cad>
          </ns3:TrackPointExtension>
        </extensions>
      </trkpt>
      <trkpt lat="44.68130352906882762908935546875" lon="6.82655747048556804656982421875">
        <ele>2533.39990234375</ele>
        <time>2026-08-31T07:02:08.000Z</time>
        <extensions>
          <ns3:TrackPointExtension>
            <ns3:hr>160</ns3:hr>
            <ns3:cad>0</ns3:cad>
          </ns3:TrackPointExtension>
        </extensions>
      </trkpt>
      <trkpt lat="44.68131266534328460693359375" lon="6.82655981741845607757568359375">
        <ele>2533.60009765625</ele>
        <time>2026-08-31T07:02:09.000Z</time>
        <extensions>
          <ns3:TrackPointExtension>
            <ns3:hr>161</ns3:hr>
            <ns3:cad>0</ns3:cad>
          </ns3:TrackPointExtension>
        </extensions>
      </trkpt>
      <trkpt lat="44.6813275851309299468994140625" lon="6.826560236513614654541015625">
        <ele>2533.800048828125</ele>
        <time>2026-08-31T07:02:10.000Z</time>
        <extensions>
          <ns3:TrackPointExtension>
            <ns3:hr>161</ns3:hr>
            <ns3:cad>0</ns3:cad>
          </ns3:TrackPointExtension>
        </extensions>
      </trkpt>
      <trkpt lat="44.68133554793894290924072265625" lon="6.8265612423419952392578125">
        <ele>2534</ele>
        <time>2026-08-31T07:02:11.000Z</time>
        <extensions>
          <ns3:TrackPointExtension>
            <ns3:hr>161</ns3:hr>
            <ns3:cad>0</ns3:cad>
          </ns3:TrackPointExtension>
        </extensions>
      </trkpt>
      <trkpt lat="44.68134007416665554046630859375" lon="6.82656719349324703216552734375">
        <ele>2534.199951171875</ele>
        <time>2026-08-31T07:02:12.000Z</time>
        <extensions>
          <ns3:TrackPointExtension>
            <ns3:hr>162</ns3:hr>
            <ns3:cad>0</ns3:cad>
          </ns3:TrackPointExtension>
        </extensions>
      </trkpt>
      <trkpt lat="44.68134929426014423370361328125" lon="6.82656803168356418609619140625">
        <ele>2534.39990234375</ele>
        <time>2026-08-31T07:02:13.000Z</time>
        <extensions>
          <ns3:TrackPointExtension>
            <ns3:hr>162</ns3:hr>
            <ns3:cad>0</ns3:cad>
          </ns3:TrackPointExtension>
        </extensions>
      </trkpt>
      <trkpt lat="44.68135197646915912628173828125" lon="6.82657130062580108642578125">
        <ele>2534.60009765625</ele>
        <time>2026-08-31T07:02:14.000Z</time>
        <extensions>
          <ns3:TrackPointExtension>
            <ns3:hr>162</ns3:hr>
            <ns3:cad>0</ns3:cad>
          </ns3:TrackPointExtension>
        </extensions>
      </trkpt>
      <trkpt lat="44.68135214410722255706787109375" lon="6.82657138444483280181884765625">
        <ele>2534.800048828125</ele>
        <time>2026-08-31T07:02:15.000Z</time>
        <extensions>
          <ns3:TrackPointExtension>
            <ns3:hr>163</ns3:hr>
            <ns3:cad>0</ns3:cad>
          </ns3:TrackPointExtension>
        </extensions>
      </trkpt>
      <trkpt lat="44.68136094510555267333984375" lon="6.82657398283481597900390625">
        <ele>2535</ele>
        <time>2026-08-31T07:02:16.000Z</time>
        <extensions>
          <ns3:TrackPointExtension>
            <ns3:hr>163</ns3:hr>
            <ns3:cad>0</ns3:cad>
          </ns3:TrackPointExtension>
        </extensions>
      </trkpt>
      <trkpt lat="44.6813705004751682281494140625" lon="6.82657524012029170989990234375">
        <ele>2535.39990234375</ele>
        <time>2026-08-31T07:02:17.000Z</time>
        <extensions>
          <ns3:TrackPointExtension>
            <ns3:hr>163</ns3:hr>
            <ns3:cad>0</ns3:cad>
          </ns3:TrackPointExtension>
        </extensions>
      </trkpt>
      <trkpt lat="44.6813792176544666290283203125" lon="6.82657222263514995574951171875">
        <ele>2535.60009765625</ele>
        <time>2026-08-31T07:02:18.000Z</time>
        <extensions>
          <ns3:TrackPointExtension>
            <ns3:hr>164</ns3:hr>
            <ns3:cad>0</ns3:cad>
          </ns3:TrackPointExtension>
        </extensions>
      </trkpt>
      <trkpt lat="44.68138801865279674530029296875" lon="6.82656459510326385498046875">
        <ele>2536</ele>
        <time>2026-08-31T07:02:19.000Z</time>
        <extensions>
          <ns3:TrackPointExtension>
            <ns3:hr>164</ns3:hr>
            <ns3:cad>0</ns3:cad>
          </ns3:TrackPointExtension>
        </extensions>
      </trkpt>
      <trkpt lat="44.68139774166047573089599609375" lon="6.826562248170375823974609375">
        <ele>2536.199951171875</ele>
        <time>2026-08-31T07:02:20.000Z</time>
        <extensions>
          <ns3:TrackPointExtension>
            <ns3:hr>164</ns3:hr>
            <ns3:cad>0</ns3:cad>
          </ns3:TrackPointExtension>
        </extensions>
      </trkpt>
      <trkpt lat="44.68139908276498317718505859375" lon="6.826556883752346038818359375">
        <ele>2536.39990234375</ele>
        <time>2026-08-31T07:02:21.000Z</time>
        <extensions>
          <ns3:TrackPointExtension>
            <ns3:hr>164</ns3:hr>
            <ns3:cad>0</ns3:cad>
          </ns3:TrackPointExtension>
        </extensions>
      </trkpt>
      <trkpt lat="44.681399501860141754150390625" lon="6.82655788958072662353515625">
        <ele>2536.60009765625</ele>
        <time>2026-08-31T07:02:22.000Z</time>
        <extensions>
          <ns3:TrackPointExtension>
            <ns3:hr>164</ns3:hr>
            <ns3:cad>0</ns3:cad>
          </ns3:TrackPointExtension>
        </extensions>
      </trkpt>
      <trkpt lat="44.68140796758234500885009765625" lon="6.826568953692913055419921875">
        <ele>2536.800048828125</ele>
        <time>2026-08-31T07:02:23.000Z</time>
        <extensions>
          <ns3:TrackPointExtension>
            <ns3:hr>164</ns3:hr>
            <ns3:cad>0</ns3:cad>
          </ns3:TrackPointExtension>
        </extensions>
      </trkpt>
      <trkpt lat="44.68141802586615085601806640625" lon="6.82657909579575061798095703125">
        <ele>2537.199951171875</ele>
        <time>2026-08-31T07:02:24.000Z</time>
        <extensions>
          <ns3:TrackPointExtension>
            <ns3:hr>164</ns3:hr>
            <ns3:cad>0</ns3:cad>
          </ns3:TrackPointExtension>
        </extensions>
      </trkpt>
      <trkpt lat="44.68142992816865444183349609375" lon="6.8265801854431629180908203125">
        <ele>2537.39990234375</ele>
        <time>2026-08-31T07:02:25.000Z</time>
        <extensions>
          <ns3:TrackPointExtension>
            <ns3:hr>165</ns3:hr>
            <ns3:cad>0</ns3:cad>
          </ns3:TrackPointExtension>
        </extensions>
      </trkpt>
      <trkpt lat="44.681441076099872589111328125" lon="6.82657976634800434112548828125">
        <ele>2537.60009765625</ele>
        <time>2026-08-31T07:02:26.000Z</time>
        <extensions>
          <ns3:TrackPointExtension>
            <ns3:hr>164</ns3:hr>
            <ns3:cad>0</ns3:cad>
          </ns3:TrackPointExtension>
        </extensions>
      </trkpt>
      <trkpt lat="44.68144811689853668212890625" lon="6.82658043690025806427001953125">
        <ele>2538</ele>
        <time>2026-08-31T07:02:27.000Z</time>
        <extensions>
          <ns3:TrackPointExtension>
            <ns3:hr>164</ns3:hr>
            <ns3:cad>0</ns3:cad>
          </ns3:TrackPointExtension>
        </extensions>
      </trkpt>
      <trkpt lat="44.68145339749753475189208984375" lon="6.82658077217638492584228515625">
        <ele>2538.199951171875</ele>
        <time>2026-08-31T07:02:28.000Z</time>
        <extensions>
          <ns3:TrackPointExtension>
            <ns3:hr>164</ns3:hr>
            <ns3:cad>0</ns3:cad>
          </ns3:TrackPointExtension>
        </extensions>
      </trkpt>
      <trkpt lat="44.68146395869553089141845703125" lon="6.82658295147120952606201171875">
        <ele>2538.39990234375</ele>
        <time>2026-08-31T07:02:29.000Z</time>
        <extensions>
          <ns3:TrackPointExtension>
            <ns3:hr>164</ns3:hr>
            <ns3:cad>50</ns3:cad>
          </ns3:TrackPointExtension>
        </extensions>
      </trkpt>
      <trkpt lat="44.6814690716564655303955078125" lon="6.82657959870994091033935546875">
        <ele>2538.60009765625</ele>
        <time>2026-08-31T07:02:30.000Z</time>
        <extensions>
          <ns3:TrackPointExtension>
            <ns3:hr>164</ns3:hr>
            <ns3:cad>50</ns3:cad>
          </ns3:TrackPointExtension>
        </extensions>
      </trkpt>
      <trkpt lat="44.68147569335997104644775390625" lon="6.826578341424465179443359375">
        <ele>2538.800048828125</ele>
        <time>2026-08-31T07:02:31.000Z</time>
        <extensions>
          <ns3:TrackPointExtension>
            <ns3:hr>164</ns3:hr>
            <ns3:cad>50</ns3:cad>
          </ns3:TrackPointExtension>
        </extensions>
      </trkpt>
      <trkpt lat="44.68148072250187397003173828125" lon="6.82657808996737003326416015625">
        <ele>2539.199951171875</ele>
        <time>2026-08-31T07:02:32.000Z</time>
        <extensions>
          <ns3:TrackPointExtension>
            <ns3:hr>164</ns3:hr>
            <ns3:cad>0</ns3:cad>
          </ns3:TrackPointExtension>
        </extensions>
      </trkpt>
      <trkpt lat="44.68148692511022090911865234375" lon="6.826579011976718902587890625">
        <ele>2539.39990234375</ele>
        <time>2026-08-31T07:02:33.000Z</time>
        <extensions>
          <ns3:TrackPointExtension>
            <ns3:hr>164</ns3:hr>
            <ns3:cad>0</ns3:cad>
          </ns3:TrackPointExtension>
        </extensions>
      </trkpt>
      <trkpt lat="44.68149212189018726348876953125" lon="6.8265798501670360565185546875">
        <ele>2539.60009765625</ele>
        <time>2026-08-31T07:02:34.000Z</time>
        <extensions>
          <ns3:TrackPointExtension>
            <ns3:hr>164</ns3:hr>
            <ns3:cad>0</ns3:cad>
          </ns3:TrackPointExtension>
        </extensions>
      </trkpt>
      <trkpt lat="44.68149530701339244842529296875" lon="6.82658077217638492584228515625">
        <ele>2539.800048828125</ele>
        <time>2026-08-31T07:02:35.000Z</time>
        <extensions>
          <ns3:TrackPointExtension>
            <ns3:hr>165</ns3:hr>
            <ns3:cad>0</ns3:cad>
          </ns3:TrackPointExtension>
        </extensions>
      </trkpt>
      <trkpt lat="44.68150385655462741851806640625" lon="6.82658680714666843414306640625">
        <ele>2540</ele>
        <time>2026-08-31T07:02:36.000Z</time>
        <extensions>
          <ns3:TrackPointExtension>
            <ns3:hr>164</ns3:hr>
            <ns3:cad>0</ns3:cad>
          </ns3:TrackPointExtension>
        </extensions>
      </trkpt>
      <trkpt lat="44.6815113164484500885009765625" lon="6.8265935964882373809814453125">
        <ele>2540.199951171875</ele>
        <time>2026-08-31T07:02:37.000Z</time>
        <extensions>
          <ns3:TrackPointExtension>
            <ns3:hr>163</ns3:hr>
            <ns3:cad>0</ns3:cad>
          </ns3:TrackPointExtension>
        </extensions>
      </trkpt>
      <trkpt lat="44.6815185248851776123046875" lon="6.826606504619121551513671875">
        <ele>2540.39990234375</ele>
        <time>2026-08-31T07:02:38.000Z</time>
        <extensions>
          <ns3:TrackPointExtension>
            <ns3:hr>163</ns3:hr>
            <ns3:cad>0</ns3:cad>
          </ns3:TrackPointExtension>
        </extensions>
      </trkpt>
      <trkpt lat="44.681522883474826812744140625" lon="6.82662150822579860687255859375">
        <ele>2540.800048828125</ele>
        <time>2026-08-31T07:02:39.000Z</time>
        <extensions>
          <ns3:TrackPointExtension>
            <ns3:hr>162</ns3:hr>
            <ns3:cad>0</ns3:cad>
          </ns3:TrackPointExtension>
        </extensions>
      </trkpt>
      <trkpt lat="44.68151986598968505859375" lon="6.82663072831928730010986328125">
        <ele>2541.199951171875</ele>
        <time>2026-08-31T07:02:40.000Z</time>
        <extensions>
          <ns3:TrackPointExtension>
            <ns3:hr>161</ns3:hr>
            <ns3:cad>0</ns3:cad>
          </ns3:TrackPointExtension>
        </extensions>
      </trkpt>
      <trkpt lat="44.68151542358100414276123046875" lon="6.8266455642879009246826171875">
        <ele>2541.60009765625</ele>
        <time>2026-08-31T07:02:41.000Z</time>
        <extensions>
          <ns3:TrackPointExtension>
            <ns3:hr>161</ns3:hr>
            <ns3:cad>0</ns3:cad>
          </ns3:TrackPointExtension>
        </extensions>
      </trkpt>
      <trkpt lat="44.6815103106200695037841796875" lon="6.82665470056235790252685546875">
        <ele>2541.800048828125</ele>
        <time>2026-08-31T07:02:42.000Z</time>
        <extensions>
          <ns3:TrackPointExtension>
            <ns3:hr>161</ns3:hr>
            <ns3:cad>0</ns3:cad>
          </ns3:TrackPointExtension>
        </extensions>
      </trkpt>
      <trkpt lat="44.6815066225826740264892578125" lon="6.8266586400568485260009765625">
        <ele>2542.199951171875</ele>
        <time>2026-08-31T07:02:43.000Z</time>
        <extensions>
          <ns3:TrackPointExtension>
            <ns3:hr>160</ns3:hr>
            <ns3:cad>0</ns3:cad>
          </ns3:TrackPointExtension>
        </extensions>
      </trkpt>
      <trkpt lat="44.681500084698200225830078125" lon="6.8266703747212886810302734375">
        <ele>2542.39990234375</ele>
        <time>2026-08-31T07:02:44.000Z</time>
        <extensions>
          <ns3:TrackPointExtension>
            <ns3:hr>160</ns3:hr>
            <ns3:cad>0</ns3:cad>
          </ns3:TrackPointExtension>
        </extensions>
      </trkpt>
      <trkpt lat="44.68149773776531219482421875" lon="6.82668034918606281280517578125">
        <ele>2542.60009765625</ele>
        <time>2026-08-31T07:02:45.000Z</time>
        <extensions>
          <ns3:TrackPointExtension>
            <ns3:hr>160</ns3:hr>
            <ns3:cad>0</ns3:cad>
          </ns3:TrackPointExtension>
        </extensions>
      </trkpt>
      <trkpt lat="44.68149614520370960235595703125" lon="6.82668923400342464447021484375">
        <ele>2542.800048828125</ele>
        <time>2026-08-31T07:02:46.000Z</time>
        <extensions>
          <ns3:TrackPointExtension>
            <ns3:hr>160</ns3:hr>
            <ns3:cad>0</ns3:cad>
          </ns3:TrackPointExtension>
        </extensions>
      </trkpt>
      <trkpt lat="44.681491367518901824951171875" lon="6.8266926705837249755859375">
        <ele>2542.800048828125</ele>
        <time>2026-08-31T07:02:47.000Z</time>
        <extensions>
          <ns3:TrackPointExtension>
            <ns3:hr>160</ns3:hr>
            <ns3:cad>0</ns3:cad>
          </ns3:TrackPointExtension>
        </extensions>
      </trkpt>
      <trkpt lat="44.68149061314761638641357421875" lon="6.82669007219374179840087890625">
        <ele>2543</ele>
        <time>2026-08-31T07:02:48.000Z</time>
        <extensions>
          <ns3:TrackPointExtension>
            <ns3:hr>159</ns3:hr>
            <ns3:cad>0</ns3:cad>
          </ns3:TrackPointExtension>
        </extensions>
      </trkpt>
      <trkpt lat="44.68149078078567981719970703125" lon="6.82669007219374179840087890625">
        <ele>2543.199951171875</ele>
        <time>2026-08-31T07:02:49.000Z</time>
        <extensions>
          <ns3:TrackPointExtension>
            <ns3:hr>159</ns3:hr>
            <ns3:cad>0</ns3:cad>
          </ns3:TrackPointExtension>
        </extensions>
      </trkpt>
      <trkpt lat="44.68149078078567981719970703125" lon="6.82669007219374179840087890625">
        <ele>2543.199951171875</ele>
        <time>2026-08-31T07:02:50.000Z</time>
        <extensions>
          <ns3:TrackPointExtension>
            <ns3:hr>159</ns3:hr>
            <ns3:cad>0</ns3:cad>
          </ns3:TrackPointExtension>
        </extensions>
      </trkpt>
      <trkpt lat="44.68149078078567981719970703125" lon="6.82669007219374179840087890625">
        <ele>2543.199951171875</ele>
        <time>2026-08-31T07:02:51.000Z</time>
        <extensions>
          <ns3:TrackPointExtension>
            <ns3:hr>158</ns3:hr>
            <ns3:cad>0</ns3:cad>
          </ns3:TrackPointExtension>
        </extensions>
      </trkpt>
      <trkpt lat="44.68149078078567981719970703125" lon="6.82669007219374179840087890625">
        <ele>2543.199951171875</ele>
        <time>2026-08-31T07:02:52.000Z</time>
        <extensions>
          <ns3:TrackPointExtension>
            <ns3:hr>158</ns3:hr>
            <ns3:cad>0</ns3:cad>
          </ns3:TrackPointExtension>
        </extensions>
      </trkpt>
      <trkpt lat="44.68149078078567981719970703125" lon="6.82669007219374179840087890625">
        <ele>2543.199951171875</ele>
        <time>2026-08-31T07:02:53.000Z</time>
        <extensions>
          <ns3:TrackPointExtension>
            <ns3:hr>158</ns3:hr>
            <ns3:cad>0</ns3:cad>
          </ns3:TrackPointExtension>
        </extensions>
      </trkpt>
      <trkpt lat="44.68149078078567981719970703125" lon="6.82669007219374179840087890625">
        <ele>2543.199951171875</ele>
        <time>2026-08-31T07:02:54.000Z</time>
        <extensions>
          <ns3:TrackPointExtension>
            <ns3:hr>158</ns3:hr>
            <ns3:cad>0</ns3:cad>
          </ns3:TrackPointExtension>
        </extensions>
      </trkpt>
      <trkpt lat="44.68149078078567981719970703125" lon="6.82669007219374179840087890625">
        <ele>2543</ele>
        <time>2026-08-31T07:02:55.000Z</time>
        <extensions>
          <ns3:TrackPointExtension>
            <ns3:hr>158</ns3:hr>
            <ns3:cad>0</ns3:cad>
          </ns3:TrackPointExtension>
        </extensions>
      </trkpt>
      <trkpt lat="44.68149078078567981719970703125" lon="6.82669007219374179840087890625">
        <ele>2543.199951171875</ele>
        <time>2026-08-31T07:02:56.000Z</time>
        <extensions>
          <ns3:TrackPointExtension>
            <ns3:hr>158</ns3:hr>
            <ns3:cad>0</ns3:cad>
          </ns3:TrackPointExtension>
        </extensions>
      </trkpt>
      <trkpt lat="44.68149078078567981719970703125" lon="6.82669007219374179840087890625">
        <ele>2543.199951171875</ele>
        <time>2026-08-31T07:02:57.000Z</time>
        <extensions>
          <ns3:TrackPointExtension>
            <ns3:hr>159</ns3:hr>
            <ns3:cad>0</ns3:cad>
          </ns3:TrackPointExtension>
        </extensions>
      </trkpt>
      <trkpt lat="44.68149078078567981719970703125" lon="6.82669007219374179840087890625">
        <ele>2543.199951171875</ele>
        <time>2026-08-31T07:02:58.000Z</time>
        <extensions>
          <ns3:TrackPointExtension>
            <ns3:hr>159</ns3:hr>
            <ns3:cad>0</ns3:cad>
          </ns3:TrackPointExtension>
        </extensions>
      </trkpt>
      <trkpt lat="44.68149078078567981719970703125" lon="6.82669007219374179840087890625">
        <ele>2543.199951171875</ele>
        <time>2026-08-31T07:02:59.000Z</time>
        <extensions>
          <ns3:TrackPointExtension>
            <ns3:hr>159</ns3:hr>
            <ns3:cad>0</ns3:cad>
          </ns3:TrackPointExtension>
        </extensions>
      </trkpt>
      <trkpt lat="44.68149078078567981719970703125" lon="6.82669007219374179840087890625">
        <ele>2543.199951171875</ele>
        <time>2026-08-31T07:03:00.000Z</time>
        <extensions>
          <ns3:TrackPointExtension>
            <ns3:hr>160</ns3:hr>
            <ns3:cad>0</ns3:cad>
          </ns3:TrackPointExtension>
        </extensions>
      </trkpt>
      <trkpt lat="44.68149078078567981719970703125" lon="6.82669007219374179840087890625">
        <ele>2543.199951171875</ele>
        <time>2026-08-31T07:03:01.000Z</time>
        <extensions>
          <ns3:TrackPointExtension>
            <ns3:hr>160</ns3:hr>
            <ns3:cad>0</ns3:cad>
          </ns3:TrackPointExtension>
        </extensions>
      </trkpt>
      <trkpt lat="44.68149078078567981719970703125" lon="6.82669007219374179840087890625">
        <ele>2543.199951171875</ele>
        <time>2026-08-31T07:03:02.000Z</time>
        <extensions>
          <ns3:TrackPointExtension>
            <ns3:hr>161</ns3:hr>
            <ns3:cad>0</ns3:cad>
          </ns3:TrackPointExtension>
        </extensions>
      </trkpt>
      <trkpt lat="44.68149078078567981719970703125" lon="6.82669007219374179840087890625">
        <ele>2543.199951171875</ele>
        <time>2026-08-31T07:03:03.000Z</time>
        <extensions>
          <ns3:TrackPointExtension>
            <ns3:hr>160</ns3:hr>
            <ns3:cad>0</ns3:cad>
          </ns3:TrackPointExtension>
        </extensions>
      </trkpt>
      <trkpt lat="44.68149078078567981719970703125" lon="6.82669007219374179840087890625">
        <ele>2543.199951171875</ele>
        <time>2026-08-31T07:03:04.000Z</time>
        <extensions>
          <ns3:TrackPointExtension>
            <ns3:hr>160</ns3:hr>
            <ns3:cad>0</ns3:cad>
          </ns3:TrackPointExtension>
        </extensions>
      </trkpt>
      <trkpt lat="44.68149078078567981719970703125" lon="6.82669007219374179840087890625">
        <ele>2543.199951171875</ele>
        <time>2026-08-31T07:03:05.000Z</time>
        <extensions>
          <ns3:TrackPointExtension>
            <ns3:hr>159</ns3:hr>
            <ns3:cad>0</ns3:cad>
          </ns3:TrackPointExtension>
        </extensions>
      </trkpt>
      <trkpt lat="44.68149078078567981719970703125" lon="6.82669007219374179840087890625">
        <ele>2543.199951171875</ele>
        <time>2026-08-31T07:03:06.000Z</time>
        <extensions>
          <ns3:TrackPointExtension>
            <ns3:hr>159</ns3:hr>
            <ns3:cad>0</ns3:cad>
          </ns3:TrackPointExtension>
        </extensions>
      </trkpt>
      <trkpt lat="44.68149245716631412506103515625" lon="6.82668722234666347503662109375">
        <ele>2543.199951171875</ele>
        <time>2026-08-31T07:03:07.000Z</time>
        <extensions>
          <ns3:TrackPointExtension>
            <ns3:hr>158</ns3:hr>
            <ns3:cad>0</ns3:cad>
          </ns3:TrackPointExtension>
        </extensions>
      </trkpt>
      <trkpt lat="44.681500084698200225830078125" lon="6.82668135501444339752197265625">
        <ele>2543.199951171875</ele>
        <time>2026-08-31T07:03:08.000Z</time>
        <extensions>
          <ns3:TrackPointExtension>
            <ns3:hr>159</ns3:hr>
            <ns3:cad>0</ns3:cad>
          </ns3:TrackPointExtension>
        </extensions>
      </trkpt>
      <trkpt lat="44.68150838278234004974365234375" lon="6.826680265367031097412109375">
        <ele>2543.199951171875</ele>
        <time>2026-08-31T07:03:09.000Z</time>
        <extensions>
          <ns3:TrackPointExtension>
            <ns3:hr>159</ns3:hr>
            <ns3:cad>0</ns3:cad>
          </ns3:TrackPointExtension>
        </extensions>
      </trkpt>
      <trkpt lat="44.68151592649519443511962890625" lon="6.82668135501444339752197265625">
        <ele>2543.199951171875</ele>
        <time>2026-08-31T07:03:10.000Z</time>
        <extensions>
          <ns3:TrackPointExtension>
            <ns3:hr>160</ns3:hr>
            <ns3:cad>0</ns3:cad>
          </ns3:TrackPointExtension>
        </extensions>
      </trkpt>
      <trkpt lat="44.681516177952289581298828125" lon="6.826681606471538543701171875">
        <ele>2543.39990234375</ele>
        <time>2026-08-31T07:03:11.000Z</time>
        <extensions>
          <ns3:TrackPointExtension>
            <ns3:hr>160</ns3:hr>
            <ns3:cad>0</ns3:cad>
          </ns3:TrackPointExtension>
        </extensions>
      </trkpt>
      <trkpt lat="44.68152497895061969757080078125" lon="6.8266847915947437286376953125">
        <ele>2543.60009765625</ele>
        <time>2026-08-31T07:03:12.000Z</time>
        <extensions>
          <ns3:TrackPointExtension>
            <ns3:hr>159</ns3:hr>
            <ns3:cad>0</ns3:cad>
          </ns3:TrackPointExtension>
        </extensions>
      </trkpt>
      <trkpt lat="44.68153059482574462890625" lon="6.8266819417476654052734375">
        <ele>2544</ele>
        <time>2026-08-31T07:03:13.000Z</time>
        <extensions>
          <ns3:TrackPointExtension>
            <ns3:hr>159</ns3:hr>
            <ns3:cad>50</ns3:cad>
          </ns3:TrackPointExtension>
        </extensions>
      </trkpt>
      <trkpt lat="44.6815384738147258758544921875" lon="6.82668219320476055145263671875">
        <ele>2544.199951171875</ele>
        <time>2026-08-31T07:03:14.000Z</time>
        <extensions>
          <ns3:TrackPointExtension>
            <ns3:hr>159</ns3:hr>
            <ns3:cad>50</ns3:cad>
          </ns3:TrackPointExtension>
        </extensions>
      </trkpt>
      <trkpt lat="44.6815471909940242767333984375" lon="6.826682277023792266845703125">
        <ele>2544.39990234375</ele>
        <time>2026-08-31T07:03:15.000Z</time>
        <extensions>
          <ns3:TrackPointExtension>
            <ns3:hr>159</ns3:hr>
            <ns3:cad>50</ns3:cad>
          </ns3:TrackPointExtension>
        </extensions>
      </trkpt>
      <trkpt lat="44.681553058326244354248046875" lon="6.8266814388334751129150390625">
        <ele>2544.60009765625</ele>
        <time>2026-08-31T07:03:16.000Z</time>
        <extensions>
          <ns3:TrackPointExtension>
            <ns3:hr>158</ns3:hr>
            <ns3:cad>50</ns3:cad>
          </ns3:TrackPointExtension>
        </extensions>
      </trkpt>
      <trkpt lat="44.6815599314868450164794921875" lon="6.82668152265250682830810546875">
        <ele>2544.800048828125</ele>
        <time>2026-08-31T07:03:17.000Z</time>
        <extensions>
          <ns3:TrackPointExtension>
            <ns3:hr>158</ns3:hr>
            <ns3:cad>50</ns3:cad>
          </ns3:TrackPointExtension>
        </extensions>
      </trkpt>
      <trkpt lat="44.6815686486661434173583984375" lon="6.82668202556669712066650390625">
        <ele>2545.199951171875</ele>
        <time>2026-08-31T07:03:18.000Z</time>
        <extensions>
          <ns3:TrackPointExtension>
            <ns3:hr>158</ns3:hr>
            <ns3:cad>0</ns3:cad>
          </ns3:TrackPointExtension>
        </extensions>
      </trkpt>
      <trkpt lat="44.6815743483603000640869140625" lon="6.8266857974231243133544921875">
        <ele>2545.39990234375</ele>
        <time>2026-08-31T07:03:19.000Z</time>
        <extensions>
          <ns3:TrackPointExtension>
            <ns3:hr>158</ns3:hr>
            <ns3:cad>0</ns3:cad>
          </ns3:TrackPointExtension>
        </extensions>
      </trkpt>
      <trkpt lat="44.68158113770186901092529296875" lon="6.826690323650836944580078125">
        <ele>2545.800048828125</ele>
        <time>2026-08-31T07:03:20.000Z</time>
        <extensions>
          <ns3:TrackPointExtension>
            <ns3:hr>158</ns3:hr>
            <ns3:cad>0</ns3:cad>
          </ns3:TrackPointExtension>
        </extensions>
      </trkpt>
      <trkpt lat="44.6815864183008670806884765625" lon="6.82669200003147125244140625">
        <ele>2546.199951171875</ele>
        <time>2026-08-31T07:03:21.000Z</time>
        <extensions>
          <ns3:TrackPointExtension>
            <ns3:hr>158</ns3:hr>
            <ns3:cad>0</ns3:cad>
          </ns3:TrackPointExtension>
        </extensions>
      </trkpt>
      <trkpt lat="44.68159404583275318145751953125" lon="6.82669627480208873748779296875">
        <ele>2546.39990234375</ele>
        <time>2026-08-31T07:03:22.000Z</time>
        <extensions>
          <ns3:TrackPointExtension>
            <ns3:hr>157</ns3:hr>
            <ns3:cad>0</ns3:cad>
          </ns3:TrackPointExtension>
        </extensions>
      </trkpt>
      <trkpt lat="44.68160158954560756683349609375" lon="6.82670138776302337646484375">
        <ele>2546.60009765625</ele>
        <time>2026-08-31T07:03:23.000Z</time>
        <extensions>
          <ns3:TrackPointExtension>
            <ns3:hr>158</ns3:hr>
            <ns3:cad>0</ns3:cad>
          </ns3:TrackPointExtension>
        </extensions>
      </trkpt>
      <trkpt lat="44.68160896562039852142333984375" lon="6.82670599780976772308349609375">
        <ele>2546.800048828125</ele>
        <time>2026-08-31T07:03:24.000Z</time>
        <extensions>
          <ns3:TrackPointExtension>
            <ns3:hr>158</ns3:hr>
            <ns3:cad>0</ns3:cad>
          </ns3:TrackPointExtension>
        </extensions>
      </trkpt>
      <trkpt lat="44.6816139109432697296142578125" lon="6.8267126195132732391357421875">
        <ele>2547</ele>
        <time>2026-08-31T07:03:25.000Z</time>
        <extensions>
          <ns3:TrackPointExtension>
            <ns3:hr>159</ns3:hr>
            <ns3:cad>0</ns3:cad>
          </ns3:TrackPointExtension>
        </extensions>
      </trkpt>
      <trkpt lat="44.68161575496196746826171875" lon="6.826712451875209808349609375">
        <ele>2547.39990234375</ele>
        <time>2026-08-31T07:03:26.000Z</time>
        <extensions>
          <ns3:TrackPointExtension>
            <ns3:hr>160</ns3:hr>
            <ns3:cad>0</ns3:cad>
          </ns3:TrackPointExtension>
        </extensions>
      </trkpt>
      <trkpt lat="44.681620784103870391845703125" lon="6.82672510854899883270263671875">
        <ele>2547.60009765625</ele>
        <time>2026-08-31T07:03:27.000Z</time>
        <extensions>
          <ns3:TrackPointExtension>
            <ns3:hr>160</ns3:hr>
            <ns3:cad>0</ns3:cad>
          </ns3:TrackPointExtension>
        </extensions>
      </trkpt>
      <trkpt lat="44.681622125208377838134765625" lon="6.8267277069389820098876953125">
        <ele>2548</ele>
        <time>2026-08-31T07:03:28.000Z</time>
        <extensions>
          <ns3:TrackPointExtension>
            <ns3:hr>161</ns3:hr>
            <ns3:cad>0</ns3:cad>
          </ns3:TrackPointExtension>
        </extensions>
      </trkpt>
      <trkpt lat="44.68163209967315196990966796875" lon="6.82673080824315547943115234375">
        <ele>2548.199951171875</ele>
        <time>2026-08-31T07:03:29.000Z</time>
        <extensions>
          <ns3:TrackPointExtension>
            <ns3:hr>162</ns3:hr>
            <ns3:cad>0</ns3:cad>
          </ns3:TrackPointExtension>
        </extensions>
      </trkpt>
      <trkpt lat="44.6816390566527843475341796875" lon="6.82673357427120208740234375">
        <ele>2548.60009765625</ele>
        <time>2026-08-31T07:03:30.000Z</time>
        <extensions>
          <ns3:TrackPointExtension>
            <ns3:hr>162</ns3:hr>
            <ns3:cad>0</ns3:cad>
          </ns3:TrackPointExtension>
        </extensions>
      </trkpt>
      <trkpt lat="44.6816477738320827484130859375" lon="6.82673516683280467987060546875">
        <ele>2548.800048828125</ele>
        <time>2026-08-31T07:03:31.000Z</time>
        <extensions>
          <ns3:TrackPointExtension>
            <ns3:hr>163</ns3:hr>
            <ns3:cad>0</ns3:cad>
          </ns3:TrackPointExtension>
        </extensions>
      </trkpt>
      <trkpt lat="44.68165330588817596435546875" lon="6.82673449628055095672607421875">
        <ele>2549</ele>
        <time>2026-08-31T07:03:32.000Z</time>
        <extensions>
          <ns3:TrackPointExtension>
            <ns3:hr>164</ns3:hr>
            <ns3:cad>0</ns3:cad>
          </ns3:TrackPointExtension>
        </extensions>
      </trkpt>
      <trkpt lat="44.6816548146307468414306640625" lon="6.82673550210893154144287109375">
        <ele>2549.199951171875</ele>
        <time>2026-08-31T07:03:33.000Z</time>
        <extensions>
          <ns3:TrackPointExtension>
            <ns3:hr>164</ns3:hr>
            <ns3:cad>0</ns3:cad>
          </ns3:TrackPointExtension>
        </extensions>
      </trkpt>
      <trkpt lat="44.68166009522974491119384765625" lon="6.82673625648021697998046875">
        <ele>2549.39990234375</ele>
        <time>2026-08-31T07:03:34.000Z</time>
        <extensions>
          <ns3:TrackPointExtension>
            <ns3:hr>165</ns3:hr>
            <ns3:cad>0</ns3:cad>
          </ns3:TrackPointExtension>
        </extensions>
      </trkpt>
      <trkpt lat="44.68166143633425235748291015625" lon="6.8267360888421535491943359375">
        <ele>2549.39990234375</ele>
        <time>2026-08-31T07:03:35.000Z</time>
        <extensions>
          <ns3:TrackPointExtension>
            <ns3:hr>166</ns3:hr>
            <ns3:cad>0</ns3:cad>
          </ns3:TrackPointExtension>
        </extensions>
      </trkpt>
      <trkpt lat="44.68166948296129703521728515625" lon="6.82672929950058460235595703125">
        <ele>2549.800048828125</ele>
        <time>2026-08-31T07:03:36.000Z</time>
        <extensions>
          <ns3:TrackPointExtension>
            <ns3:hr>166</ns3:hr>
            <ns3:cad>0</ns3:cad>
          </ns3:TrackPointExtension>
        </extensions>
      </trkpt>
      <trkpt lat="44.681677781045436859130859375" lon="6.82672963477671146392822265625">
        <ele>2550</ele>
        <time>2026-08-31T07:03:37.000Z</time>
        <extensions>
          <ns3:TrackPointExtension>
            <ns3:hr>167</ns3:hr>
            <ns3:cad>0</ns3:cad>
          </ns3:TrackPointExtension>
        </extensions>
      </trkpt>
      <trkpt lat="44.68168255873024463653564453125" lon="6.82673583738505840301513671875">
        <ele>2550.199951171875</ele>
        <time>2026-08-31T07:03:38.000Z</time>
        <extensions>
          <ns3:TrackPointExtension>
            <ns3:hr>167</ns3:hr>
            <ns3:cad>0</ns3:cad>
          </ns3:TrackPointExtension>
        </extensions>
      </trkpt>
      <trkpt lat="44.68168951570987701416015625" lon="6.826739609241485595703125">
        <ele>2550.39990234375</ele>
        <time>2026-08-31T07:03:39.000Z</time>
        <extensions>
          <ns3:TrackPointExtension>
            <ns3:hr>168</ns3:hr>
            <ns3:cad>0</ns3:cad>
          </ns3:TrackPointExtension>
        </extensions>
      </trkpt>
      <trkpt lat="44.68169429339468479156494140625" lon="6.8267417885363101959228515625">
        <ele>2550.60009765625</ele>
        <time>2026-08-31T07:03:40.000Z</time>
        <extensions>
          <ns3:TrackPointExtension>
            <ns3:hr>168</ns3:hr>
            <ns3:cad>0</ns3:cad>
          </ns3:TrackPointExtension>
        </extensions>
      </trkpt>
      <trkpt lat="44.68170150183141231536865234375" lon="6.8267474882304668426513671875">
        <ele>2551</ele>
        <time>2026-08-31T07:03:41.000Z</time>
        <extensions>
          <ns3:TrackPointExtension>
            <ns3:hr>168</ns3:hr>
            <ns3:cad>0</ns3:cad>
          </ns3:TrackPointExtension>
        </extensions>
      </trkpt>
      <trkpt lat="44.68170284293591976165771484375" lon="6.8267491646111011505126953125">
        <ele>2551.199951171875</ele>
        <time>2026-08-31T07:03:42.000Z</time>
        <extensions>
          <ns3:TrackPointExtension>
            <ns3:hr>168</ns3:hr>
            <ns3:cad>0</ns3:cad>
          </ns3:TrackPointExtension>
        </extensions>
      </trkpt>
      <trkpt lat="44.68170301057398319244384765625" lon="6.82674924843013286590576171875">
        <ele>2551.60009765625</ele>
        <time>2026-08-31T07:03:43.000Z</time>
        <extensions>
          <ns3:TrackPointExtension>
            <ns3:hr>168</ns3:hr>
            <ns3:cad>0</ns3:cad>
          </ns3:TrackPointExtension>
        </extensions>
      </trkpt>
      <trkpt lat="44.681707285344600677490234375" lon="6.82675075717270374298095703125">
        <ele>2551.800048828125</ele>
        <time>2026-08-31T07:03:44.000Z</time>
        <extensions>
          <ns3:TrackPointExtension>
            <ns3:hr>169</ns3:hr>
            <ns3:cad>0</ns3:cad>
          </ns3:TrackPointExtension>
        </extensions>
      </trkpt>
      <trkpt lat="44.6817170083522796630859375" lon="6.82675746269524097442626953125">
        <ele>2552.199951171875</ele>
        <time>2026-08-31T07:03:45.000Z</time>
        <extensions>
          <ns3:TrackPointExtension>
            <ns3:hr>169</ns3:hr>
            <ns3:cad>0</ns3:cad>
          </ns3:TrackPointExtension>
        </extensions>
      </trkpt>
      <trkpt lat="44.68172061257064342498779296875" lon="6.82675838470458984375">
        <ele>2552.39990234375</ele>
        <time>2026-08-31T07:03:46.000Z</time>
        <extensions>
          <ns3:TrackPointExtension>
            <ns3:hr>169</ns3:hr>
            <ns3:cad>0</ns3:cad>
          </ns3:TrackPointExtension>
        </extensions>
      </trkpt>
      <trkpt lat="44.6817299164831638336181640625" lon="6.82676165364682674407958984375">
        <ele>2552.800048828125</ele>
        <time>2026-08-31T07:03:47.000Z</time>
        <extensions>
          <ns3:TrackPointExtension>
            <ns3:hr>169</ns3:hr>
            <ns3:cad>0</ns3:cad>
          </ns3:TrackPointExtension>
        </extensions>
      </trkpt>
      <trkpt lat="44.68173368833959102630615234375" lon="6.826763413846492767333984375">
        <ele>2552.800048828125</ele>
        <time>2026-08-31T07:03:48.000Z</time>
        <extensions>
          <ns3:TrackPointExtension>
            <ns3:hr>169</ns3:hr>
            <ns3:cad>0</ns3:cad>
          </ns3:TrackPointExtension>
        </extensions>
      </trkpt>
      <trkpt lat="44.6817403100430965423583984375" lon="6.8267686106264591217041015625">
        <ele>2553.199951171875</ele>
        <time>2026-08-31T07:03:49.000Z</time>
        <extensions>
          <ns3:TrackPointExtension>
            <ns3:hr>170</ns3:hr>
            <ns3:cad>0</ns3:cad>
          </ns3:TrackPointExtension>
        </extensions>
      </trkpt>
      <trkpt lat="44.68174106441438198089599609375" lon="6.82676617987453937530517578125">
        <ele>2553.39990234375</ele>
        <time>2026-08-31T07:03:50.000Z</time>
        <extensions>
          <ns3:TrackPointExtension>
            <ns3:hr>170</ns3:hr>
            <ns3:cad>0</ns3:cad>
          </ns3:TrackPointExtension>
        </extensions>
      </trkpt>
      <trkpt lat="44.6817409805953502655029296875" lon="6.8267665989696979522705078125">
        <ele>2553.60009765625</ele>
        <time>2026-08-31T07:03:51.000Z</time>
        <extensions>
          <ns3:TrackPointExtension>
            <ns3:hr>170</ns3:hr>
            <ns3:cad>0</ns3:cad>
          </ns3:TrackPointExtension>
        </extensions>
      </trkpt>
      <trkpt lat="44.6817476861178874969482421875" lon="6.82677137665450572967529296875">
        <ele>2553.800048828125</ele>
        <time>2026-08-31T07:03:52.000Z</time>
        <extensions>
          <ns3:TrackPointExtension>
            <ns3:hr>170</ns3:hr>
            <ns3:cad>0</ns3:cad>
          </ns3:TrackPointExtension>
        </extensions>
      </trkpt>
      <trkpt lat="44.68175816349685192108154296875" lon="6.8267783336341381072998046875">
        <ele>2554.199951171875</ele>
        <time>2026-08-31T07:03:53.000Z</time>
        <extensions>
          <ns3:TrackPointExtension>
            <ns3:hr>171</ns3:hr>
            <ns3:cad>0</ns3:cad>
          </ns3:TrackPointExtension>
        </extensions>
      </trkpt>
      <trkpt lat="44.68176604248583316802978515625" lon="6.8267811834812164306640625">
        <ele>2554.39990234375</ele>
        <time>2026-08-31T07:03:54.000Z</time>
        <extensions>
          <ns3:TrackPointExtension>
            <ns3:hr>171</ns3:hr>
            <ns3:cad>0</ns3:cad>
          </ns3:TrackPointExtension>
        </extensions>
      </trkpt>
      <trkpt lat="44.68177358619868755340576171875" lon="6.82678596116602420806884765625">
        <ele>2554.60009765625</ele>
        <time>2026-08-31T07:03:55.000Z</time>
        <extensions>
          <ns3:TrackPointExtension>
            <ns3:hr>171</ns3:hr>
            <ns3:cad>0</ns3:cad>
          </ns3:TrackPointExtension>
        </extensions>
      </trkpt>
      <trkpt lat="44.681780040264129638671875" lon="6.82679216377437114715576171875">
        <ele>2554.800048828125</ele>
        <time>2026-08-31T07:03:56.000Z</time>
        <extensions>
          <ns3:TrackPointExtension>
            <ns3:hr>171</ns3:hr>
            <ns3:cad>0</ns3:cad>
          </ns3:TrackPointExtension>
        </extensions>
      </trkpt>
      <trkpt lat="44.68177945353090763092041015625" lon="6.826793253421783447265625">
        <ele>2555</ele>
        <time>2026-08-31T07:03:57.000Z</time>
        <extensions>
          <ns3:TrackPointExtension>
            <ns3:hr>172</ns3:hr>
            <ns3:cad>0</ns3:cad>
          </ns3:TrackPointExtension>
        </extensions>
      </trkpt>
      <trkpt lat="44.6817798726260662078857421875" lon="6.8267940916121006011962890625">
        <ele>2555.199951171875</ele>
        <time>2026-08-31T07:03:58.000Z</time>
        <extensions>
          <ns3:TrackPointExtension>
            <ns3:hr>172</ns3:hr>
            <ns3:cad>0</ns3:cad>
          </ns3:TrackPointExtension>
        </extensions>
      </trkpt>
      <trkpt lat="44.681788422167301177978515625" lon="6.826799623668193817138671875">
        <ele>2555.39990234375</ele>
        <time>2026-08-31T07:03:59.000Z</time>
        <extensions>
          <ns3:TrackPointExtension>
            <ns3:hr>172</ns3:hr>
            <ns3:cad>0</ns3:cad>
          </ns3:TrackPointExtension>
        </extensions>
      </trkpt>
      <trkpt lat="44.681802503764629364013671875" lon="6.8268101848661899566650390625">
        <ele>2555.60009765625</ele>
        <time>2026-08-31T07:04:00.000Z</time>
        <extensions>
          <ns3:TrackPointExtension>
            <ns3:hr>172</ns3:hr>
            <ns3:cad>0</ns3:cad>
          </ns3:TrackPointExtension>
        </extensions>
      </trkpt>
      <trkpt lat="44.68181013129651546478271484375" lon="6.82681580074131488800048828125">
        <ele>2555.800048828125</ele>
        <time>2026-08-31T07:04:01.000Z</time>
        <extensions>
          <ns3:TrackPointExtension>
            <ns3:hr>172</ns3:hr>
            <ns3:cad>0</ns3:cad>
          </ns3:TrackPointExtension>
        </extensions>
      </trkpt>
      <trkpt lat="44.6818130649626255035400390625" lon="6.82682133279740810394287109375">
        <ele>2556</ele>
        <time>2026-08-31T07:04:02.000Z</time>
        <extensions>
          <ns3:TrackPointExtension>
            <ns3:hr>172</ns3:hr>
            <ns3:cad>0</ns3:cad>
          </ns3:TrackPointExtension>
        </extensions>
      </trkpt>
      <trkpt lat="44.68182094395160675048828125" lon="6.82683055289089679718017578125">
        <ele>2556.39990234375</ele>
        <time>2026-08-31T07:04:03.000Z</time>
        <extensions>
          <ns3:TrackPointExtension>
            <ns3:hr>173</ns3:hr>
            <ns3:cad>0</ns3:cad>
          </ns3:TrackPointExtension>
        </extensions>
      </trkpt>
      <trkpt lat="44.6818227879703044891357421875" lon="6.82683172635734081268310546875">
        <ele>2556.60009765625</ele>
        <time>2026-08-31T07:04:04.000Z</time>
        <extensions>
          <ns3:TrackPointExtension>
            <ns3:hr>173</ns3:hr>
            <ns3:cad>0</ns3:cad>
          </ns3:TrackPointExtension>
        </extensions>
      </trkpt>
      <trkpt lat="44.68182303942739963531494140625" lon="6.82683189399540424346923828125">
        <ele>2557</ele>
        <time>2026-08-31T07:04:05.000Z</time>
        <extensions>
          <ns3:TrackPointExtension>
            <ns3:hr>173</ns3:hr>
            <ns3:cad>0</ns3:cad>
          </ns3:TrackPointExtension>
        </extensions>
      </trkpt>
      <trkpt lat="44.6818281523883342742919921875" lon="6.8268373422324657440185546875">
        <ele>2557.199951171875</ele>
        <time>2026-08-31T07:04:06.000Z</time>
        <extensions>
          <ns3:TrackPointExtension>
            <ns3:hr>173</ns3:hr>
            <ns3:cad>0</ns3:cad>
          </ns3:TrackPointExtension>
        </extensions>
      </trkpt>
      <trkpt lat="44.681834690272808074951171875" lon="6.82684295810759067535400390625">
        <ele>2557.39990234375</ele>
        <time>2026-08-31T07:04:07.000Z</time>
        <extensions>
          <ns3:TrackPointExtension>
            <ns3:hr>173</ns3:hr>
            <ns3:cad>0</ns3:cad>
          </ns3:TrackPointExtension>
        </extensions>
      </trkpt>
      <trkpt lat="44.6818388812243938446044921875" lon="6.8268482387065887451171875">
        <ele>2557.60009765625</ele>
        <time>2026-08-31T07:04:08.000Z</time>
        <extensions>
          <ns3:TrackPointExtension>
            <ns3:hr>172</ns3:hr>
            <ns3:cad>0</ns3:cad>
          </ns3:TrackPointExtension>
        </extensions>
      </trkpt>
      <trkpt lat="44.681844748556613922119140625" lon="6.8268531002104282379150390625">
        <ele>2557.800048828125</ele>
        <time>2026-08-31T07:04:09.000Z</time>
        <extensions>
          <ns3:TrackPointExtension>
            <ns3:hr>172</ns3:hr>
            <ns3:cad>0</ns3:cad>
          </ns3:TrackPointExtension>
        </extensions>
      </trkpt>
      <trkpt lat="44.6818492747843265533447265625" lon="6.826847903430461883544921875">
        <ele>2558</ele>
        <time>2026-08-31T07:04:10.000Z</time>
        <extensions>
          <ns3:TrackPointExtension>
            <ns3:hr>172</ns3:hr>
            <ns3:cad>0</ns3:cad>
          </ns3:TrackPointExtension>
        </extensions>
      </trkpt>
      <trkpt lat="44.681850112974643707275390625" lon="6.82684329338371753692626953125">
        <ele>2558.199951171875</ele>
        <time>2026-08-31T07:04:11.000Z</time>
        <extensions>
          <ns3:TrackPointExtension>
            <ns3:hr>173</ns3:hr>
            <ns3:cad>0</ns3:cad>
          </ns3:TrackPointExtension>
        </extensions>
      </trkpt>
      <trkpt lat="44.68185044825077056884765625" lon="6.8268427066504955291748046875">
        <ele>2558.39990234375</ele>
        <time>2026-08-31T07:04:12.000Z</time>
        <extensions>
          <ns3:TrackPointExtension>
            <ns3:hr>172</ns3:hr>
            <ns3:cad>0</ns3:cad>
          </ns3:TrackPointExtension>
        </extensions>
      </trkpt>
      <trkpt lat="44.6818569861352443695068359375" lon="6.82684312574565410614013671875">
        <ele>2558.60009765625</ele>
        <time>2026-08-31T07:04:13.000Z</time>
        <extensions>
          <ns3:TrackPointExtension>
            <ns3:hr>172</ns3:hr>
            <ns3:cad>0</ns3:cad>
          </ns3:TrackPointExtension>
        </extensions>
      </trkpt>
      <trkpt lat="44.68186394311487674713134765625" lon="6.82684211991727352142333984375">
        <ele>2558.800048828125</ele>
        <time>2026-08-31T07:04:14.000Z</time>
        <extensions>
          <ns3:TrackPointExtension>
            <ns3:hr>172</ns3:hr>
            <ns3:cad>0</ns3:cad>
          </ns3:TrackPointExtension>
        </extensions>
      </trkpt>
      <trkpt lat="44.6818714030086994171142578125" lon="6.826835833489894866943359375">
        <ele>2559</ele>
        <time>2026-08-31T07:04:15.000Z</time>
        <extensions>
          <ns3:TrackPointExtension>
            <ns3:hr>171</ns3:hr>
            <ns3:cad>0</ns3:cad>
          </ns3:TrackPointExtension>
        </extensions>
      </trkpt>
      <trkpt lat="44.6818771027028560638427734375" lon="6.82683558203279972076416015625">
        <ele>2559.199951171875</ele>
        <time>2026-08-31T07:04:16.000Z</time>
        <extensions>
          <ns3:TrackPointExtension>
            <ns3:hr>169</ns3:hr>
            <ns3:cad>0</ns3:cad>
          </ns3:TrackPointExtension>
        </extensions>
      </trkpt>
      <trkpt lat="44.68188422732055187225341796875" lon="6.82683222927153110504150390625">
        <ele>2559.39990234375</ele>
        <time>2026-08-31T07:04:17.000Z</time>
        <extensions>
          <ns3:TrackPointExtension>
            <ns3:hr>168</ns3:hr>
            <ns3:cad>0</ns3:cad>
          </ns3:TrackPointExtension>
        </extensions>
      </trkpt>
      <trkpt lat="44.6818844787776470184326171875" lon="6.82682954706251621246337890625">
        <ele>2559.60009765625</ele>
        <time>2026-08-31T07:04:18.000Z</time>
        <extensions>
          <ns3:TrackPointExtension>
            <ns3:hr>167</ns3:hr>
            <ns3:cad>0</ns3:cad>
          </ns3:TrackPointExtension>
        </extensions>
      </trkpt>
      <trkpt lat="44.68188473023474216461181640625" lon="6.82683038525283336639404296875">
        <ele>2559.800048828125</ele>
        <time>2026-08-31T07:04:19.000Z</time>
        <extensions>
          <ns3:TrackPointExtension>
            <ns3:hr>167</ns3:hr>
            <ns3:cad>0</ns3:cad>
          </ns3:TrackPointExtension>
        </extensions>
      </trkpt>
      <trkpt lat="44.68189059756696224212646484375" lon="6.8268319778144359588623046875">
        <ele>2560</ele>
        <time>2026-08-31T07:04:20.000Z</time>
        <extensions>
          <ns3:TrackPointExtension>
            <ns3:hr>166</ns3:hr>
            <ns3:cad>0</ns3:cad>
          </ns3:TrackPointExtension>
        </extensions>
      </trkpt>
      <trkpt lat="44.6818992309272289276123046875" lon="6.82683239690959453582763671875">
        <ele>2560.199951171875</ele>
        <time>2026-08-31T07:04:21.000Z</time>
        <extensions>
          <ns3:TrackPointExtension>
            <ns3:hr>166</ns3:hr>
            <ns3:cad>0</ns3:cad>
          </ns3:TrackPointExtension>
        </extensions>
      </trkpt>
      <trkpt lat="44.68190677464008331298828125" lon="6.82683021761476993560791015625">
        <ele>2560.39990234375</ele>
        <time>2026-08-31T07:04:22.000Z</time>
        <extensions>
          <ns3:TrackPointExtension>
            <ns3:hr>166</ns3:hr>
            <ns3:cad>0</ns3:cad>
          </ns3:TrackPointExtension>
        </extensions>
      </trkpt>
      <trkpt lat="44.6819059364497661590576171875" lon="6.82682233862578868865966796875">
        <ele>2560.60009765625</ele>
        <time>2026-08-31T07:04:23.000Z</time>
        <extensions>
          <ns3:TrackPointExtension>
            <ns3:hr>166</ns3:hr>
            <ns3:cad>0</ns3:cad>
          </ns3:TrackPointExtension>
        </extensions>
      </trkpt>
      <trkpt lat="44.68190903775393962860107421875" lon="6.8268085084855556488037109375">
        <ele>2560.800048828125</ele>
        <time>2026-08-31T07:04:24.000Z</time>
        <extensions>
          <ns3:TrackPointExtension>
            <ns3:hr>166</ns3:hr>
            <ns3:cad>0</ns3:cad>
          </ns3:TrackPointExtension>
        </extensions>
      </trkpt>
      <trkpt lat="44.6819173358380794525146484375" lon="6.8267984502017498016357421875">
        <ele>2561</ele>
        <time>2026-08-31T07:04:25.000Z</time>
        <extensions>
          <ns3:TrackPointExtension>
            <ns3:hr>166</ns3:hr>
            <ns3:cad>0</ns3:cad>
          </ns3:TrackPointExtension>
        </extensions>
      </trkpt>
      <trkpt lat="44.681919515132904052734375" lon="6.82679501362144947052001953125">
        <ele>2561</ele>
        <time>2026-08-31T07:04:26.000Z</time>
        <extensions>
          <ns3:TrackPointExtension>
            <ns3:hr>166</ns3:hr>
            <ns3:cad>0</ns3:cad>
          </ns3:TrackPointExtension>
        </extensions>
      </trkpt>
      <trkpt lat="44.6819200180470943450927734375" lon="6.82679518125951290130615234375">
        <ele>2561.199951171875</ele>
        <time>2026-08-31T07:04:27.000Z</time>
        <extensions>
          <ns3:TrackPointExtension>
            <ns3:hr>165</ns3:hr>
            <ns3:cad>0</ns3:cad>
          </ns3:TrackPointExtension>
        </extensions>
      </trkpt>
      <trkpt lat="44.68192345462739467620849609375" lon="6.8267893977463245391845703125">
        <ele>2561.39990234375</ele>
        <time>2026-08-31T07:04:28.000Z</time>
        <extensions>
          <ns3:TrackPointExtension>
            <ns3:hr>165</ns3:hr>
            <ns3:cad>0</ns3:cad>
          </ns3:TrackPointExtension>
        </extensions>
      </trkpt>
      <trkpt lat="44.68192630447447299957275390625" lon="6.82678679935634136199951171875">
        <ele>2561.60009765625</ele>
        <time>2026-08-31T07:04:29.000Z</time>
        <extensions>
          <ns3:TrackPointExtension>
            <ns3:hr>165</ns3:hr>
            <ns3:cad>0</ns3:cad>
          </ns3:TrackPointExtension>
        </extensions>
      </trkpt>
      <trkpt lat="44.68193083070218563079833984375" lon="6.8267833627760410308837890625">
        <ele>2561.800048828125</ele>
        <time>2026-08-31T07:04:30.000Z</time>
        <extensions>
          <ns3:TrackPointExtension>
            <ns3:hr>165</ns3:hr>
            <ns3:cad>0</ns3:cad>
          </ns3:TrackPointExtension>
        </extensions>
      </trkpt>
      <trkpt lat="44.68193518929183483123779296875" lon="6.8267830274999141693115234375">
        <ele>2562</ele>
        <time>2026-08-31T07:04:31.000Z</time>
        <extensions>
          <ns3:TrackPointExtension>
            <ns3:hr>165</ns3:hr>
            <ns3:cad>0</ns3:cad>
          </ns3:TrackPointExtension>
        </extensions>
      </trkpt>
      <trkpt lat="44.681944660842418670654296875" lon="6.8267806805670261383056640625">
        <ele>2562.39990234375</ele>
        <time>2026-08-31T07:04:32.000Z</time>
        <extensions>
          <ns3:TrackPointExtension>
            <ns3:hr>164</ns3:hr>
            <ns3:cad>0</ns3:cad>
          </ns3:TrackPointExtension>
        </extensions>
      </trkpt>
      <trkpt lat="44.68195044435560703277587890625" lon="6.82677908800542354583740234375">
        <ele>2562.60009765625</ele>
        <time>2026-08-31T07:04:33.000Z</time>
        <extensions>
          <ns3:TrackPointExtension>
            <ns3:hr>164</ns3:hr>
            <ns3:cad>0</ns3:cad>
          </ns3:TrackPointExtension>
        </extensions>
      </trkpt>
      <trkpt lat="44.681958071887493133544921875" lon="6.8267776630818843841552734375">
        <ele>2562.800048828125</ele>
        <time>2026-08-31T07:04:34.000Z</time>
        <extensions>
          <ns3:TrackPointExtension>
            <ns3:hr>164</ns3:hr>
            <ns3:cad>0</ns3:cad>
          </ns3:TrackPointExtension>
        </extensions>
      </trkpt>
      <trkpt lat="44.68196469359099864959716796875" lon="6.8267729692161083221435546875">
        <ele>2563</ele>
        <time>2026-08-31T07:04:35.000Z</time>
        <extensions>
          <ns3:TrackPointExtension>
            <ns3:hr>163</ns3:hr>
            <ns3:cad>0</ns3:cad>
          </ns3:TrackPointExtension>
        </extensions>
      </trkpt>
      <trkpt lat="44.6819689683616161346435546875" lon="6.82676819153130054473876953125">
        <ele>2563.199951171875</ele>
        <time>2026-08-31T07:04:36.000Z</time>
        <extensions>
          <ns3:TrackPointExtension>
            <ns3:hr>163</ns3:hr>
            <ns3:cad>0</ns3:cad>
          </ns3:TrackPointExtension>
        </extensions>
      </trkpt>
      <trkpt lat="44.681969471275806427001953125" lon="6.826768778264522552490234375">
        <ele>2563.39990234375</ele>
        <time>2026-08-31T07:04:37.000Z</time>
        <extensions>
          <ns3:TrackPointExtension>
            <ns3:hr>163</ns3:hr>
            <ns3:cad>0</ns3:cad>
          </ns3:TrackPointExtension>
        </extensions>
      </trkpt>
      <trkpt lat="44.6819793619215488433837890625" lon="6.82676450349390506744384765625">
        <ele>2563.60009765625</ele>
        <time>2026-08-31T07:04:38.000Z</time>
        <extensions>
          <ns3:TrackPointExtension>
            <ns3:hr>163</ns3:hr>
            <ns3:cad>0</ns3:cad>
          </ns3:TrackPointExtension>
        </extensions>
      </trkpt>
      <trkpt lat="44.68198900111019611358642578125" lon="6.82676232419908046722412109375">
        <ele>2563.800048828125</ele>
        <time>2026-08-31T07:04:39.000Z</time>
        <extensions>
          <ns3:TrackPointExtension>
            <ns3:hr>163</ns3:hr>
            <ns3:cad>0</ns3:cad>
          </ns3:TrackPointExtension>
        </extensions>
      </trkpt>
      <trkpt lat="44.68200040049850940704345703125" lon="6.826761066913604736328125">
        <ele>2564</ele>
        <time>2026-08-31T07:04:40.000Z</time>
        <extensions>
          <ns3:TrackPointExtension>
            <ns3:hr>163</ns3:hr>
            <ns3:cad>0</ns3:cad>
          </ns3:TrackPointExtension>
        </extensions>
      </trkpt>
      <trkpt lat="44.68200710602104663848876953125" lon="6.82675729505717754364013671875">
        <ele>2564.199951171875</ele>
        <time>2026-08-31T07:04:41.000Z</time>
        <extensions>
          <ns3:TrackPointExtension>
            <ns3:hr>163</ns3:hr>
            <ns3:cad>0</ns3:cad>
          </ns3:TrackPointExtension>
        </extensions>
      </trkpt>
      <trkpt lat="44.6820075251162052154541015625" lon="6.8267562054097652435302734375">
        <ele>2564.39990234375</ele>
        <time>2026-08-31T07:04:42.000Z</time>
        <extensions>
          <ns3:TrackPointExtension>
            <ns3:hr>164</ns3:hr>
            <ns3:cad>0</ns3:cad>
          </ns3:TrackPointExtension>
        </extensions>
      </trkpt>
      <trkpt lat="44.68200777657330036163330078125" lon="6.82675637304782867431640625">
        <ele>2564.800048828125</ele>
        <time>2026-08-31T07:04:43.000Z</time>
        <extensions>
          <ns3:TrackPointExtension>
            <ns3:hr>164</ns3:hr>
            <ns3:cad>0</ns3:cad>
          </ns3:TrackPointExtension>
        </extensions>
      </trkpt>
      <trkpt lat="44.68201406300067901611328125" lon="6.826753355562686920166015625">
        <ele>2565</ele>
        <time>2026-08-31T07:04:44.000Z</time>
        <extensions>
          <ns3:TrackPointExtension>
            <ns3:hr>164</ns3:hr>
            <ns3:cad>0</ns3:cad>
          </ns3:TrackPointExtension>
        </extensions>
      </trkpt>
      <trkpt lat="44.68202470801770687103271484375" lon="6.826751343905925750732421875">
        <ele>2565.199951171875</ele>
        <time>2026-08-31T07:04:45.000Z</time>
        <extensions>
          <ns3:TrackPointExtension>
            <ns3:hr>164</ns3:hr>
            <ns3:cad>0</ns3:cad>
          </ns3:TrackPointExtension>
        </extensions>
      </trkpt>
      <trkpt lat="44.68203258700668811798095703125" lon="6.8267436325550079345703125">
        <ele>2565.39990234375</ele>
        <time>2026-08-31T07:04:46.000Z</time>
        <extensions>
          <ns3:TrackPointExtension>
            <ns3:hr>164</ns3:hr>
            <ns3:cad>0</ns3:cad>
          </ns3:TrackPointExtension>
        </extensions>
      </trkpt>
      <trkpt lat="44.682037867605686187744140625" lon="6.82674019597470760345458984375">
        <ele>2565.800048828125</ele>
        <time>2026-08-31T07:04:47.000Z</time>
        <extensions>
          <ns3:TrackPointExtension>
            <ns3:hr>163</ns3:hr>
            <ns3:cad>0</ns3:cad>
          </ns3:TrackPointExtension>
        </extensions>
      </trkpt>
      <trkpt lat="44.6820380352437496185302734375" lon="6.82673969306051731109619140625">
        <ele>2566</ele>
        <time>2026-08-31T07:04:48.000Z</time>
        <extensions>
          <ns3:TrackPointExtension>
            <ns3:hr>163</ns3:hr>
            <ns3:cad>0</ns3:cad>
          </ns3:TrackPointExtension>
        </extensions>
      </trkpt>
      <trkpt lat="44.6820433996617794036865234375" lon="6.8267329037189483642578125">
        <ele>2566.199951171875</ele>
        <time>2026-08-31T07:04:49.000Z</time>
        <extensions>
          <ns3:TrackPointExtension>
            <ns3:hr>163</ns3:hr>
            <ns3:cad>0</ns3:cad>
          </ns3:TrackPointExtension>
        </extensions>
      </trkpt>
      <trkpt lat="44.682047925889492034912109375" lon="6.8267263658344745635986328125">
        <ele>2566.39990234375</ele>
        <time>2026-08-31T07:04:50.000Z</time>
        <extensions>
          <ns3:TrackPointExtension>
            <ns3:hr>164</ns3:hr>
            <ns3:cad>0</ns3:cad>
          </ns3:TrackPointExtension>
        </extensions>
      </trkpt>
      <trkpt lat="44.682049937546253204345703125" lon="6.82671555317938327789306640625">
        <ele>2566.60009765625</ele>
        <time>2026-08-31T07:04:51.000Z</time>
        <extensions>
          <ns3:TrackPointExtension>
            <ns3:hr>165</ns3:hr>
            <ns3:cad>0</ns3:cad>
          </ns3:TrackPointExtension>
        </extensions>
      </trkpt>
      <trkpt lat="44.68205203302204608917236328125" lon="6.8267099373042583465576171875">
        <ele>2567</ele>
        <time>2026-08-31T07:04:52.000Z</time>
        <extensions>
          <ns3:TrackPointExtension>
            <ns3:hr>165</ns3:hr>
            <ns3:cad>0</ns3:cad>
          </ns3:TrackPointExtension>
        </extensions>
      </trkpt>
      <trkpt lat="44.68205203302204608917236328125" lon="6.82669929228723049163818359375">
        <ele>2567.199951171875</ele>
        <time>2026-08-31T07:04:53.000Z</time>
        <extensions>
          <ns3:TrackPointExtension>
            <ns3:hr>164</ns3:hr>
            <ns3:cad>0</ns3:cad>
          </ns3:TrackPointExtension>
        </extensions>
      </trkpt>
      <trkpt lat="44.68205069191753864288330078125" lon="6.82669895701110363006591796875">
        <ele>2567.199951171875</ele>
        <time>2026-08-31T07:04:54.000Z</time>
        <extensions>
          <ns3:TrackPointExtension>
            <ns3:hr>164</ns3:hr>
            <ns3:cad>0</ns3:cad>
          </ns3:TrackPointExtension>
        </extensions>
      </trkpt>
      <trkpt lat="44.6820547990500926971435546875" lon="6.8266899883747100830078125">
        <ele>2567.39990234375</ele>
        <time>2026-08-31T07:04:55.000Z</time>
        <extensions>
          <ns3:TrackPointExtension>
            <ns3:hr>164</ns3:hr>
            <ns3:cad>0</ns3:cad>
          </ns3:TrackPointExtension>
        </extensions>
      </trkpt>
      <trkpt lat="44.682057984173297882080078125" lon="6.8266831152141094207763671875">
        <ele>2567.60009765625</ele>
        <time>2026-08-31T07:04:56.000Z</time>
        <extensions>
          <ns3:TrackPointExtension>
            <ns3:hr>163</ns3:hr>
            <ns3:cad>0</ns3:cad>
          </ns3:TrackPointExtension>
        </extensions>
      </trkpt>
      <trkpt lat="44.682066030800342559814453125" lon="6.826670207083225250244140625">
        <ele>2567.800048828125</ele>
        <time>2026-08-31T07:04:57.000Z</time>
        <extensions>
          <ns3:TrackPointExtension>
            <ns3:hr>163</ns3:hr>
            <ns3:cad>0</ns3:cad>
          </ns3:TrackPointExtension>
        </extensions>
      </trkpt>
      <trkpt lat="44.68207181431353092193603515625" lon="6.82665570639073848724365234375">
        <ele>2567.800048828125</ele>
        <time>2026-08-31T07:04:58.000Z</time>
        <extensions>
          <ns3:TrackPointExtension>
            <ns3:hr>163</ns3:hr>
            <ns3:cad>0</ns3:cad>
          </ns3:TrackPointExtension>
        </extensions>
      </trkpt>
      <trkpt lat="44.682077430188655853271484375" lon="6.82664983905851840972900390625">
        <ele>2568.199951171875</ele>
        <time>2026-08-31T07:04:59.000Z</time>
        <extensions>
          <ns3:TrackPointExtension>
            <ns3:hr>163</ns3:hr>
            <ns3:cad>0</ns3:cad>
          </ns3:TrackPointExtension>
        </extensions>
      </trkpt>
      <trkpt lat="44.68207734636962413787841796875" lon="6.8266492523252964019775390625">
        <ele>2568.39990234375</ele>
        <time>2026-08-31T07:05:00.000Z</time>
        <extensions>
          <ns3:TrackPointExtension>
            <ns3:hr>163</ns3:hr>
            <ns3:cad>0</ns3:cad>
          </ns3:TrackPointExtension>
        </extensions>
      </trkpt>
      <trkpt lat="44.68208136968314647674560546875" lon="6.82663994841277599334716796875">
        <ele>2568.800048828125</ele>
        <time>2026-08-31T07:05:01.000Z</time>
        <extensions>
          <ns3:TrackPointExtension>
            <ns3:hr>163</ns3:hr>
            <ns3:cad>0</ns3:cad>
          </ns3:TrackPointExtension>
        </extensions>
      </trkpt>
      <trkpt lat="44.68208556063473224639892578125" lon="6.826634667813777923583984375">
        <ele>2569.199951171875</ele>
        <time>2026-08-31T07:05:02.000Z</time>
        <extensions>
          <ns3:TrackPointExtension>
            <ns3:hr>163</ns3:hr>
            <ns3:cad>0</ns3:cad>
          </ns3:TrackPointExtension>
        </extensions>
      </trkpt>
      <trkpt lat="44.68208941631019115447998046875" lon="6.82662553153932094573974609375">
        <ele>2569.39990234375</ele>
        <time>2026-08-31T07:05:03.000Z</time>
        <extensions>
          <ns3:TrackPointExtension>
            <ns3:hr>163</ns3:hr>
            <ns3:cad>0</ns3:cad>
          </ns3:TrackPointExtension>
        </extensions>
      </trkpt>
      <trkpt lat="44.68209109269082546234130859375" lon="6.8266227655112743377685546875">
        <ele>2569.60009765625</ele>
        <time>2026-08-31T07:05:04.000Z</time>
        <extensions>
          <ns3:TrackPointExtension>
            <ns3:hr>164</ns3:hr>
            <ns3:cad>0</ns3:cad>
          </ns3:TrackPointExtension>
        </extensions>
      </trkpt>
      <trkpt lat="44.68209746293723583221435546875" lon="6.826624609529972076416015625">
        <ele>2569.800048828125</ele>
        <time>2026-08-31T07:05:05.000Z</time>
        <extensions>
          <ns3:TrackPointExtension>
            <ns3:hr>164</ns3:hr>
            <ns3:cad>0</ns3:cad>
          </ns3:TrackPointExtension>
        </extensions>
      </trkpt>
      <trkpt lat="44.682102240622043609619140625" lon="6.82662569917738437652587890625">
        <ele>2570.199951171875</ele>
        <time>2026-08-31T07:05:06.000Z</time>
        <extensions>
          <ns3:TrackPointExtension>
            <ns3:hr>164</ns3:hr>
            <ns3:cad>0</ns3:cad>
          </ns3:TrackPointExtension>
        </extensions>
      </trkpt>
      <trkpt lat="44.682103581726551055908203125" lon="6.82662762701511383056640625">
        <ele>2570.39990234375</ele>
        <time>2026-08-31T07:05:07.000Z</time>
        <extensions>
          <ns3:TrackPointExtension>
            <ns3:hr>164</ns3:hr>
            <ns3:cad>0</ns3:cad>
          </ns3:TrackPointExtension>
        </extensions>
      </trkpt>
      <trkpt lat="44.682103581726551055908203125" lon="6.82662762701511383056640625">
        <ele>2570.39990234375</ele>
        <time>2026-08-31T07:05:08.000Z</time>
        <extensions>
          <ns3:TrackPointExtension>
            <ns3:hr>165</ns3:hr>
            <ns3:cad>0</ns3:cad>
          </ns3:TrackPointExtension>
        </extensions>
      </trkpt>
      <trkpt lat="44.682103581726551055908203125" lon="6.82662762701511383056640625">
        <ele>2570.60009765625</ele>
        <time>2026-08-31T07:05:09.000Z</time>
        <extensions>
          <ns3:TrackPointExtension>
            <ns3:hr>165</ns3:hr>
            <ns3:cad>0</ns3:cad>
          </ns3:TrackPointExtension>
        </extensions>
      </trkpt>
      <trkpt lat="44.682103581726551055908203125" lon="6.82662762701511383056640625">
        <ele>2570.60009765625</ele>
        <time>2026-08-31T07:05:10.000Z</time>
        <extensions>
          <ns3:TrackPointExtension>
            <ns3:hr>165</ns3:hr>
            <ns3:cad>0</ns3:cad>
          </ns3:TrackPointExtension>
        </extensions>
      </trkpt>
      <trkpt lat="44.68210349790751934051513671875" lon="6.8266267888247966766357421875">
        <ele>2570.39990234375</ele>
        <time>2026-08-31T07:05:11.000Z</time>
        <extensions>
          <ns3:TrackPointExtension>
            <ns3:hr>165</ns3:hr>
            <ns3:cad>0</ns3:cad>
          </ns3:TrackPointExtension>
        </extensions>
      </trkpt>
      <trkpt lat="44.682106934487819671630859375" lon="6.82662268169224262237548828125">
        <ele>2570.39990234375</ele>
        <time>2026-08-31T07:05:12.000Z</time>
        <extensions>
          <ns3:TrackPointExtension>
            <ns3:hr>166</ns3:hr>
            <ns3:cad>0</ns3:cad>
          </ns3:TrackPointExtension>
        </extensions>
      </trkpt>
      <trkpt lat="44.682108275592327117919921875" lon="6.8266202509403228759765625">
        <ele>2570.39990234375</ele>
        <time>2026-08-31T07:05:13.000Z</time>
        <extensions>
          <ns3:TrackPointExtension>
            <ns3:hr>166</ns3:hr>
            <ns3:cad>0</ns3:cad>
          </ns3:TrackPointExtension>
        </extensions>
      </trkpt>
      <trkpt lat="44.68211020343005657196044921875" lon="6.8266189098358154296875">
        <ele>2570.60009765625</ele>
        <time>2026-08-31T07:05:14.000Z</time>
        <extensions>
          <ns3:TrackPointExtension>
            <ns3:hr>166</ns3:hr>
            <ns3:cad>0</ns3:cad>
          </ns3:TrackPointExtension>
        </extensions>
      </trkpt>
      <trkpt lat="44.68211137689650058746337890625" lon="6.82661413215100765228271484375">
        <ele>2570.60009765625</ele>
        <time>2026-08-31T07:05:15.000Z</time>
        <extensions>
          <ns3:TrackPointExtension>
            <ns3:hr>166</ns3:hr>
            <ns3:cad>0</ns3:cad>
          </ns3:TrackPointExtension>
        </extensions>
      </trkpt>
      <trkpt lat="44.682117663323879241943359375" lon="6.8266041576862335205078125">
        <ele>2570.800048828125</ele>
        <time>2026-08-31T07:05:16.000Z</time>
        <extensions>
          <ns3:TrackPointExtension>
            <ns3:hr>166</ns3:hr>
            <ns3:cad>0</ns3:cad>
          </ns3:TrackPointExtension>
        </extensions>
      </trkpt>
      <trkpt lat="44.68212009407579898834228515625" lon="6.82660407386720180511474609375">
        <ele>2571</ele>
        <time>2026-08-31T07:05:17.000Z</time>
        <extensions>
          <ns3:TrackPointExtension>
            <ns3:hr>166</ns3:hr>
            <ns3:cad>0</ns3:cad>
          </ns3:TrackPointExtension>
        </extensions>
      </trkpt>
      <trkpt lat="44.6821252070367336273193359375" lon="6.82660239748656749725341796875">
        <ele>2571.199951171875</ele>
        <time>2026-08-31T07:05:18.000Z</time>
        <extensions>
          <ns3:TrackPointExtension>
            <ns3:hr>166</ns3:hr>
            <ns3:cad>0</ns3:cad>
          </ns3:TrackPointExtension>
        </extensions>
      </trkpt>
      <trkpt lat="44.6821268834173679351806640625" lon="6.826601810753345489501953125">
        <ele>2571.199951171875</ele>
        <time>2026-08-31T07:05:19.000Z</time>
        <extensions>
          <ns3:TrackPointExtension>
            <ns3:hr>165</ns3:hr>
            <ns3:cad>0</ns3:cad>
          </ns3:TrackPointExtension>
        </extensions>
      </trkpt>
      <trkpt lat="44.68213140964508056640625" lon="6.826595105230808258056640625">
        <ele>2571.39990234375</ele>
        <time>2026-08-31T07:05:20.000Z</time>
        <extensions>
          <ns3:TrackPointExtension>
            <ns3:hr>165</ns3:hr>
            <ns3:cad>0</ns3:cad>
          </ns3:TrackPointExtension>
        </extensions>
      </trkpt>
      <trkpt lat="44.6821366064250469207763671875" lon="6.82659275829792022705078125">
        <ele>2571.60009765625</ele>
        <time>2026-08-31T07:05:21.000Z</time>
        <extensions>
          <ns3:TrackPointExtension>
            <ns3:hr>164</ns3:hr>
            <ns3:cad>0</ns3:cad>
          </ns3:TrackPointExtension>
        </extensions>
      </trkpt>
      <trkpt lat="44.6821466647088527679443359375" lon="6.82659250684082508087158203125">
        <ele>2571.60009765625</ele>
        <time>2026-08-31T07:05:22.000Z</time>
        <extensions>
          <ns3:TrackPointExtension>
            <ns3:hr>164</ns3:hr>
            <ns3:cad>0</ns3:cad>
          </ns3:TrackPointExtension>
        </extensions>
      </trkpt>
      <trkpt lat="44.68215412460267543792724609375" lon="6.82659938000142574310302734375">
        <ele>2571.800048828125</ele>
        <time>2026-08-31T07:05:23.000Z</time>
        <extensions>
          <ns3:TrackPointExtension>
            <ns3:hr>163</ns3:hr>
            <ns3:cad>0</ns3:cad>
          </ns3:TrackPointExtension>
        </extensions>
      </trkpt>
      <trkpt lat="44.6821614168584346771240234375" lon="6.82660642080008983612060546875">
        <ele>2572</ele>
        <time>2026-08-31T07:05:24.000Z</time>
        <extensions>
          <ns3:TrackPointExtension>
            <ns3:hr>163</ns3:hr>
            <ns3:cad>0</ns3:cad>
          </ns3:TrackPointExtension>
        </extensions>
      </trkpt>
      <trkpt lat="44.682167284190654754638671875" lon="6.82661346159875392913818359375">
        <ele>2572.199951171875</ele>
        <time>2026-08-31T07:05:25.000Z</time>
        <extensions>
          <ns3:TrackPointExtension>
            <ns3:hr>163</ns3:hr>
            <ns3:cad>0</ns3:cad>
          </ns3:TrackPointExtension>
        </extensions>
      </trkpt>
      <trkpt lat="44.6821741573512554168701171875" lon="6.8266148865222930908203125">
        <ele>2572.60009765625</ele>
        <time>2026-08-31T07:05:26.000Z</time>
        <extensions>
          <ns3:TrackPointExtension>
            <ns3:hr>163</ns3:hr>
            <ns3:cad>0</ns3:cad>
          </ns3:TrackPointExtension>
        </extensions>
      </trkpt>
      <trkpt lat="44.6821728162467479705810546875" lon="6.8266234360635280609130859375">
        <ele>2573</ele>
        <time>2026-08-31T07:05:27.000Z</time>
        <extensions>
          <ns3:TrackPointExtension>
            <ns3:hr>163</ns3:hr>
            <ns3:cad>0</ns3:cad>
          </ns3:TrackPointExtension>
        </extensions>
      </trkpt>
      <trkpt lat="44.68217273242771625518798828125" lon="6.8266298063099384307861328125">
        <ele>2573.39990234375</ele>
        <time>2026-08-31T07:05:28.000Z</time>
        <extensions>
          <ns3:TrackPointExtension>
            <ns3:hr>163</ns3:hr>
            <ns3:cad>0</ns3:cad>
          </ns3:TrackPointExtension>
        </extensions>
      </trkpt>
      <trkpt lat="44.68217021785676479339599609375" lon="6.8266363441944122314453125">
        <ele>2573.60009765625</ele>
        <time>2026-08-31T07:05:29.000Z</time>
        <extensions>
          <ns3:TrackPointExtension>
            <ns3:hr>163</ns3:hr>
            <ns3:cad>0</ns3:cad>
          </ns3:TrackPointExtension>
        </extensions>
      </trkpt>
      <trkpt lat="44.68217239715158939361572265625" lon="6.8266443908214569091796875">
        <ele>2573.800048828125</ele>
        <time>2026-08-31T07:05:30.000Z</time>
        <extensions>
          <ns3:TrackPointExtension>
            <ns3:hr>164</ns3:hr>
            <ns3:cad>0</ns3:cad>
          </ns3:TrackPointExtension>
        </extensions>
      </trkpt>
      <trkpt lat="44.68217239715158939361572265625" lon="6.82664564810693264007568359375">
        <ele>2573.800048828125</ele>
        <time>2026-08-31T07:05:31.000Z</time>
        <extensions>
          <ns3:TrackPointExtension>
            <ns3:hr>164</ns3:hr>
            <ns3:cad>0</ns3:cad>
          </ns3:TrackPointExtension>
        </extensions>
      </trkpt>
      <trkpt lat="44.68217231333255767822265625" lon="6.8266452290117740631103515625">
        <ele>2574</ele>
        <time>2026-08-31T07:05:32.000Z</time>
        <extensions>
          <ns3:TrackPointExtension>
            <ns3:hr>164</ns3:hr>
            <ns3:cad>0</ns3:cad>
          </ns3:TrackPointExtension>
        </extensions>
      </trkpt>
      <trkpt lat="44.68217231333255767822265625" lon="6.8266452290117740631103515625">
        <ele>2574.199951171875</ele>
        <time>2026-08-31T07:05:33.000Z</time>
        <extensions>
          <ns3:TrackPointExtension>
            <ns3:hr>164</ns3:hr>
            <ns3:cad>0</ns3:cad>
          </ns3:TrackPointExtension>
        </extensions>
      </trkpt>
      <trkpt lat="44.68217231333255767822265625" lon="6.8266452290117740631103515625">
        <ele>2574.39990234375</ele>
        <time>2026-08-31T07:05:34.000Z</time>
        <extensions>
          <ns3:TrackPointExtension>
            <ns3:hr>165</ns3:hr>
            <ns3:cad>0</ns3:cad>
          </ns3:TrackPointExtension>
        </extensions>
      </trkpt>
      <trkpt lat="44.68217231333255767822265625" lon="6.8266452290117740631103515625">
        <ele>2574.39990234375</ele>
        <time>2026-08-31T07:05:35.000Z</time>
        <extensions>
          <ns3:TrackPointExtension>
            <ns3:hr>164</ns3:hr>
            <ns3:cad>0</ns3:cad>
          </ns3:TrackPointExtension>
        </extensions>
      </trkpt>
      <trkpt lat="44.68217231333255767822265625" lon="6.8266452290117740631103515625">
        <ele>2574.60009765625</ele>
        <time>2026-08-31T07:05:36.000Z</time>
        <extensions>
          <ns3:TrackPointExtension>
            <ns3:hr>164</ns3:hr>
            <ns3:cad>0</ns3:cad>
          </ns3:TrackPointExtension>
        </extensions>
      </trkpt>
      <trkpt lat="44.68217231333255767822265625" lon="6.8266452290117740631103515625">
        <ele>2574.60009765625</ele>
        <time>2026-08-31T07:05:37.000Z</time>
        <extensions>
          <ns3:TrackPointExtension>
            <ns3:hr>165</ns3:hr>
            <ns3:cad>0</ns3:cad>
          </ns3:TrackPointExtension>
        </extensions>
      </trkpt>
      <trkpt lat="44.68217290006577968597412109375" lon="6.82664506137371063232421875">
        <ele>2574.39990234375</ele>
        <time>2026-08-31T07:05:38.000Z</time>
        <extensions>
          <ns3:TrackPointExtension>
            <ns3:hr>164</ns3:hr>
            <ns3:cad>0</ns3:cad>
          </ns3:TrackPointExtension>
        </extensions>
      </trkpt>
      <trkpt lat="44.6821728162467479705810546875" lon="6.82664506137371063232421875">
        <ele>2574.39990234375</ele>
        <time>2026-08-31T07:05:39.000Z</time>
        <extensions>
          <ns3:TrackPointExtension>
            <ns3:hr>164</ns3:hr>
            <ns3:cad>0</ns3:cad>
          </ns3:TrackPointExtension>
        </extensions>
      </trkpt>
      <trkpt lat="44.6821756660938262939453125" lon="6.826652102172374725341796875">
        <ele>2574.39990234375</ele>
        <time>2026-08-31T07:05:40.000Z</time>
        <extensions>
          <ns3:TrackPointExtension>
            <ns3:hr>163</ns3:hr>
            <ns3:cad>0</ns3:cad>
          </ns3:TrackPointExtension>
        </extensions>
      </trkpt>
      <trkpt lat="44.682177342474460601806640625" lon="6.8266629986464977264404296875">
        <ele>2574.39990234375</ele>
        <time>2026-08-31T07:05:41.000Z</time>
        <extensions>
          <ns3:TrackPointExtension>
            <ns3:hr>162</ns3:hr>
            <ns3:cad>0</ns3:cad>
          </ns3:TrackPointExtension>
        </extensions>
      </trkpt>
      <trkpt lat="44.68217859975993633270263671875" lon="6.826660819351673126220703125">
        <ele>2574.39990234375</ele>
        <time>2026-08-31T07:05:42.000Z</time>
        <extensions>
          <ns3:TrackPointExtension>
            <ns3:hr>161</ns3:hr>
            <ns3:cad>0</ns3:cad>
          </ns3:TrackPointExtension>
        </extensions>
      </trkpt>
      <trkpt lat="44.68218212015926837921142578125" lon="6.82667615823447704315185546875">
        <ele>2574.60009765625</ele>
        <time>2026-08-31T07:05:43.000Z</time>
        <extensions>
          <ns3:TrackPointExtension>
            <ns3:hr>160</ns3:hr>
            <ns3:cad>0</ns3:cad>
          </ns3:TrackPointExtension>
        </extensions>
      </trkpt>
      <trkpt lat="44.68218295834958553314208984375" lon="6.82667850516736507415771484375">
        <ele>2574.800048828125</ele>
        <time>2026-08-31T07:05:44.000Z</time>
        <extensions>
          <ns3:TrackPointExtension>
            <ns3:hr>160</ns3:hr>
            <ns3:cad>0</ns3:cad>
          </ns3:TrackPointExtension>
        </extensions>
      </trkpt>
      <trkpt lat="44.68219066970050334930419921875" lon="6.8266958557069301605224609375">
        <ele>2575</ele>
        <time>2026-08-31T07:05:45.000Z</time>
        <extensions>
          <ns3:TrackPointExtension>
            <ns3:hr>159</ns3:hr>
            <ns3:cad>0</ns3:cad>
          </ns3:TrackPointExtension>
        </extensions>
      </trkpt>
      <trkpt lat="44.68219536356627941131591796875" lon="6.82670935057103633880615234375">
        <ele>2575.199951171875</ele>
        <time>2026-08-31T07:05:46.000Z</time>
        <extensions>
          <ns3:TrackPointExtension>
            <ns3:hr>159</ns3:hr>
            <ns3:cad>0</ns3:cad>
          </ns3:TrackPointExtension>
        </extensions>
      </trkpt>
      <trkpt lat="44.68219502829015254974365234375" lon="6.8267154693603515625">
        <ele>2575.39990234375</ele>
        <time>2026-08-31T07:05:47.000Z</time>
        <extensions>
          <ns3:TrackPointExtension>
            <ns3:hr>160</ns3:hr>
            <ns3:cad>0</ns3:cad>
          </ns3:TrackPointExtension>
        </extensions>
      </trkpt>
      <trkpt lat="44.6821971237659454345703125" lon="6.8267280422151088714599609375">
        <ele>2575.60009765625</ele>
        <time>2026-08-31T07:05:48.000Z</time>
        <extensions>
          <ns3:TrackPointExtension>
            <ns3:hr>160</ns3:hr>
            <ns3:cad>0</ns3:cad>
          </ns3:TrackPointExtension>
        </extensions>
      </trkpt>
      <trkpt lat="44.682198800146579742431640625" lon="6.8267364241182804107666015625">
        <ele>2575.800048828125</ele>
        <time>2026-08-31T07:05:49.000Z</time>
        <extensions>
          <ns3:TrackPointExtension>
            <ns3:hr>161</ns3:hr>
            <ns3:cad>0</ns3:cad>
          </ns3:TrackPointExtension>
        </extensions>
      </trkpt>
      <trkpt lat="44.68220374546945095062255859375" lon="6.826753355562686920166015625">
        <ele>2576</ele>
        <time>2026-08-31T07:05:50.000Z</time>
        <extensions>
          <ns3:TrackPointExtension>
            <ns3:hr>161</ns3:hr>
            <ns3:cad>0</ns3:cad>
          </ns3:TrackPointExtension>
        </extensions>
      </trkpt>
      <trkpt lat="44.68220408074557781219482421875" lon="6.8267672695219516754150390625">
        <ele>2576.199951171875</ele>
        <time>2026-08-31T07:05:51.000Z</time>
        <extensions>
          <ns3:TrackPointExtension>
            <ns3:hr>161</ns3:hr>
            <ns3:cad>0</ns3:cad>
          </ns3:TrackPointExtension>
        </extensions>
      </trkpt>
      <trkpt lat="44.68220584094524383544921875" lon="6.8267892301082611083984375">
        <ele>2576.39990234375</ele>
        <time>2026-08-31T07:05:52.000Z</time>
        <extensions>
          <ns3:TrackPointExtension>
            <ns3:hr>162</ns3:hr>
            <ns3:cad>0</ns3:cad>
          </ns3:TrackPointExtension>
        </extensions>
      </trkpt>
      <trkpt lat="44.6822066791355609893798828125" lon="6.82680641300976276397705078125">
        <ele>2576.60009765625</ele>
        <time>2026-08-31T07:05:53.000Z</time>
        <extensions>
          <ns3:TrackPointExtension>
            <ns3:hr>162</ns3:hr>
            <ns3:cad>0</ns3:cad>
          </ns3:TrackPointExtension>
        </extensions>
      </trkpt>
      <trkpt lat="44.68220860697329044342041015625" lon="6.8268080055713653564453125">
        <ele>2576.800048828125</ele>
        <time>2026-08-31T07:05:54.000Z</time>
        <extensions>
          <ns3:TrackPointExtension>
            <ns3:hr>162</ns3:hr>
            <ns3:cad>0</ns3:cad>
          </ns3:TrackPointExtension>
        </extensions>
      </trkpt>
      <trkpt lat="44.68220860697329044342041015625" lon="6.8268080055713653564453125">
        <ele>2577</ele>
        <time>2026-08-31T07:05:55.000Z</time>
        <extensions>
          <ns3:TrackPointExtension>
            <ns3:hr>162</ns3:hr>
            <ns3:cad>0</ns3:cad>
          </ns3:TrackPointExtension>
        </extensions>
      </trkpt>
      <trkpt lat="44.682210870087146759033203125" lon="6.82681144215166568756103515625">
        <ele>2577.199951171875</ele>
        <time>2026-08-31T07:05:56.000Z</time>
        <extensions>
          <ns3:TrackPointExtension>
            <ns3:hr>162</ns3:hr>
            <ns3:cad>0</ns3:cad>
          </ns3:TrackPointExtension>
        </extensions>
      </trkpt>
      <trkpt lat="44.682214893400669097900390625" lon="6.82681915350258350372314453125">
        <ele>2577.199951171875</ele>
        <time>2026-08-31T07:05:57.000Z</time>
        <extensions>
          <ns3:TrackPointExtension>
            <ns3:hr>162</ns3:hr>
            <ns3:cad>0</ns3:cad>
          </ns3:TrackPointExtension>
        </extensions>
      </trkpt>
      <trkpt lat="44.68222017399966716766357421875" lon="6.82682342827320098876953125">
        <ele>2577.39990234375</ele>
        <time>2026-08-31T07:05:58.000Z</time>
        <extensions>
          <ns3:TrackPointExtension>
            <ns3:hr>162</ns3:hr>
            <ns3:cad>0</ns3:cad>
          </ns3:TrackPointExtension>
        </extensions>
      </trkpt>
      <trkpt lat="44.682224951684474945068359375" lon="6.8268249370157718658447265625">
        <ele>2577.60009765625</ele>
        <time>2026-08-31T07:05:59.000Z</time>
        <extensions>
          <ns3:TrackPointExtension>
            <ns3:hr>162</ns3:hr>
            <ns3:cad>0</ns3:cad>
          </ns3:TrackPointExtension>
        </extensions>
      </trkpt>
      <trkpt lat="44.68223006464540958404541015625" lon="6.82681982405483722686767578125">
        <ele>2577.60009765625</ele>
        <time>2026-08-31T07:06:00.000Z</time>
        <extensions>
          <ns3:TrackPointExtension>
            <ns3:hr>163</ns3:hr>
            <ns3:cad>0</ns3:cad>
          </ns3:TrackPointExtension>
        </extensions>
      </trkpt>
      <trkpt lat="44.6822319924831390380859375" lon="6.826815046370029449462890625">
        <ele>2577.800048828125</ele>
        <time>2026-08-31T07:06:01.000Z</time>
        <extensions>
          <ns3:TrackPointExtension>
            <ns3:hr>163</ns3:hr>
            <ns3:cad>0</ns3:cad>
          </ns3:TrackPointExtension>
        </extensions>
      </trkpt>
      <trkpt lat="44.68223408795893192291259765625" lon="6.826801635324954986572265625">
        <ele>2578</ele>
        <time>2026-08-31T07:06:02.000Z</time>
        <extensions>
          <ns3:TrackPointExtension>
            <ns3:hr>163</ns3:hr>
            <ns3:cad>0</ns3:cad>
          </ns3:TrackPointExtension>
        </extensions>
      </trkpt>
      <trkpt lat="44.68223408795893192291259765625" lon="6.82679367251694202423095703125">
        <ele>2578.199951171875</ele>
        <time>2026-08-31T07:06:03.000Z</time>
        <extensions>
          <ns3:TrackPointExtension>
            <ns3:hr>163</ns3:hr>
            <ns3:cad>0</ns3:cad>
          </ns3:TrackPointExtension>
        </extensions>
      </trkpt>
      <trkpt lat="44.682239033281803131103515625" lon="6.8267865478992462158203125">
        <ele>2578.199951171875</ele>
        <time>2026-08-31T07:06:04.000Z</time>
        <extensions>
          <ns3:TrackPointExtension>
            <ns3:hr>164</ns3:hr>
            <ns3:cad>0</ns3:cad>
          </ns3:TrackPointExtension>
        </extensions>
      </trkpt>
      <trkpt lat="44.6822427213191986083984375" lon="6.82677841745316982269287109375">
        <ele>2578.39990234375</ele>
        <time>2026-08-31T07:06:05.000Z</time>
        <extensions>
          <ns3:TrackPointExtension>
            <ns3:hr>164</ns3:hr>
            <ns3:cad>0</ns3:cad>
          </ns3:TrackPointExtension>
        </extensions>
      </trkpt>
      <trkpt lat="44.68224381096661090850830078125" lon="6.8267696164548397064208984375">
        <ele>2578.39990234375</ele>
        <time>2026-08-31T07:06:06.000Z</time>
        <extensions>
          <ns3:TrackPointExtension>
            <ns3:hr>165</ns3:hr>
            <ns3:cad>0</ns3:cad>
          </ns3:TrackPointExtension>
        </extensions>
      </trkpt>
      <trkpt lat="44.6822462417185306549072265625" lon="6.82675997726619243621826171875">
        <ele>2578.60009765625</ele>
        <time>2026-08-31T07:06:07.000Z</time>
        <extensions>
          <ns3:TrackPointExtension>
            <ns3:hr>166</ns3:hr>
            <ns3:cad>0</ns3:cad>
          </ns3:TrackPointExtension>
        </extensions>
      </trkpt>
      <trkpt lat="44.6822526119649410247802734375" lon="6.82674430310726165771484375">
        <ele>2578.800048828125</ele>
        <time>2026-08-31T07:06:08.000Z</time>
        <extensions>
          <ns3:TrackPointExtension>
            <ns3:hr>167</ns3:hr>
            <ns3:cad>0</ns3:cad>
          </ns3:TrackPointExtension>
        </extensions>
      </trkpt>
      <trkpt lat="44.68225722201168537139892578125" lon="6.82673223316669464111328125">
        <ele>2579</ele>
        <time>2026-08-31T07:06:09.000Z</time>
        <extensions>
          <ns3:TrackPointExtension>
            <ns3:hr>168</ns3:hr>
            <ns3:cad>0</ns3:cad>
          </ns3:TrackPointExtension>
        </extensions>
      </trkpt>
      <trkpt lat="44.68225814402103424072265625" lon="6.82673667557537555694580078125">
        <ele>2579.199951171875</ele>
        <time>2026-08-31T07:06:10.000Z</time>
        <extensions>
          <ns3:TrackPointExtension>
            <ns3:hr>169</ns3:hr>
            <ns3:cad>0</ns3:cad>
          </ns3:TrackPointExtension>
        </extensions>
      </trkpt>
      <trkpt lat="44.68225839547812938690185546875" lon="6.8267364241182804107666015625">
        <ele>2579.39990234375</ele>
        <time>2026-08-31T07:06:11.000Z</time>
        <extensions>
          <ns3:TrackPointExtension>
            <ns3:hr>169</ns3:hr>
            <ns3:cad>0</ns3:cad>
          </ns3:TrackPointExtension>
        </extensions>
      </trkpt>
      <trkpt lat="44.682263173162937164306640625" lon="6.82672343216836452484130859375">
        <ele>2579.60009765625</ele>
        <time>2026-08-31T07:06:12.000Z</time>
        <extensions>
          <ns3:TrackPointExtension>
            <ns3:hr>170</ns3:hr>
            <ns3:cad>0</ns3:cad>
          </ns3:TrackPointExtension>
        </extensions>
      </trkpt>
      <trkpt lat="44.68227147124707698822021484375" lon="6.82671102695167064666748046875">
        <ele>2579.60009765625</ele>
        <time>2026-08-31T07:06:13.000Z</time>
        <extensions>
          <ns3:TrackPointExtension>
            <ns3:hr>170</ns3:hr>
            <ns3:cad>0</ns3:cad>
          </ns3:TrackPointExtension>
        </extensions>
      </trkpt>
      <trkpt lat="44.68227582983672618865966796875" lon="6.8266971968114376068115234375">
        <ele>2579.800048828125</ele>
        <time>2026-08-31T07:06:14.000Z</time>
        <extensions>
          <ns3:TrackPointExtension>
            <ns3:hr>170</ns3:hr>
            <ns3:cad>0</ns3:cad>
          </ns3:TrackPointExtension>
        </extensions>
      </trkpt>
      <trkpt lat="44.68227960169315338134765625" lon="6.82668621651828289031982421875">
        <ele>2579.800048828125</ele>
        <time>2026-08-31T07:06:15.000Z</time>
        <extensions>
          <ns3:TrackPointExtension>
            <ns3:hr>170</ns3:hr>
            <ns3:cad>0</ns3:cad>
          </ns3:TrackPointExtension>
        </extensions>
      </trkpt>
      <trkpt lat="44.68228521756827831268310546875" lon="6.8266673572361469268798828125">
        <ele>2579.800048828125</ele>
        <time>2026-08-31T07:06:16.000Z</time>
        <extensions>
          <ns3:TrackPointExtension>
            <ns3:hr>170</ns3:hr>
            <ns3:cad>0</ns3:cad>
          </ns3:TrackPointExtension>
        </extensions>
      </trkpt>
      <trkpt lat="44.682289659976959228515625" lon="6.82665788568556308746337890625">
        <ele>2580</ele>
        <time>2026-08-31T07:06:17.000Z</time>
        <extensions>
          <ns3:TrackPointExtension>
            <ns3:hr>170</ns3:hr>
            <ns3:cad>0</ns3:cad>
          </ns3:TrackPointExtension>
        </extensions>
      </trkpt>
      <trkpt lat="44.68229779042303562164306640625" lon="6.82664715684950351715087890625">
        <ele>2580.199951171875</ele>
        <time>2026-08-31T07:06:18.000Z</time>
        <extensions>
          <ns3:TrackPointExtension>
            <ns3:hr>170</ns3:hr>
            <ns3:cad>0</ns3:cad>
          </ns3:TrackPointExtension>
        </extensions>
      </trkpt>
      <trkpt lat="44.68230105936527252197265625" lon="6.8266363441944122314453125">
        <ele>2580.39990234375</ele>
        <time>2026-08-31T07:06:19.000Z</time>
        <extensions>
          <ns3:TrackPointExtension>
            <ns3:hr>168</ns3:hr>
            <ns3:cad>0</ns3:cad>
          </ns3:TrackPointExtension>
        </extensions>
      </trkpt>
      <trkpt lat="44.68230818398296833038330078125" lon="6.82661782018840312957763671875">
        <ele>2580.60009765625</ele>
        <time>2026-08-31T07:06:20.000Z</time>
        <extensions>
          <ns3:TrackPointExtension>
            <ns3:hr>168</ns3:hr>
            <ns3:cad>0</ns3:cad>
          </ns3:TrackPointExtension>
        </extensions>
      </trkpt>
      <trkpt lat="44.68231321312487125396728515625" lon="6.82660541497170925140380859375">
        <ele>2580.800048828125</ele>
        <time>2026-08-31T07:06:21.000Z</time>
        <extensions>
          <ns3:TrackPointExtension>
            <ns3:hr>167</ns3:hr>
            <ns3:cad>0</ns3:cad>
          </ns3:TrackPointExtension>
        </extensions>
      </trkpt>
      <trkpt lat="44.6823132969439029693603515625" lon="6.8265986256301403045654296875">
        <ele>2581</ele>
        <time>2026-08-31T07:06:22.000Z</time>
        <extensions>
          <ns3:TrackPointExtension>
            <ns3:hr>167</ns3:hr>
            <ns3:cad>0</ns3:cad>
          </ns3:TrackPointExtension>
        </extensions>
      </trkpt>
      <trkpt lat="44.682316146790981292724609375" lon="6.82658948935568332672119140625">
        <ele>2581.199951171875</ele>
        <time>2026-08-31T07:06:23.000Z</time>
        <extensions>
          <ns3:TrackPointExtension>
            <ns3:hr>167</ns3:hr>
            <ns3:cad>0</ns3:cad>
          </ns3:TrackPointExtension>
        </extensions>
      </trkpt>
      <trkpt lat="44.6823183260858058929443359375" lon="6.82657909579575061798095703125">
        <ele>2581.60009765625</ele>
        <time>2026-08-31T07:06:24.000Z</time>
        <extensions>
          <ns3:TrackPointExtension>
            <ns3:hr>167</ns3:hr>
            <ns3:cad>0</ns3:cad>
          </ns3:TrackPointExtension>
        </extensions>
      </trkpt>
      <trkpt lat="44.68232410959899425506591796875" lon="6.8265627510845661163330078125">
        <ele>2581.800048828125</ele>
        <time>2026-08-31T07:06:25.000Z</time>
        <extensions>
          <ns3:TrackPointExtension>
            <ns3:hr>167</ns3:hr>
            <ns3:cad>0</ns3:cad>
          </ns3:TrackPointExtension>
        </extensions>
      </trkpt>
      <trkpt lat="44.6823287196457386016845703125" lon="6.82655252516269683837890625">
        <ele>2582</ele>
        <time>2026-08-31T07:06:26.000Z</time>
        <extensions>
          <ns3:TrackPointExtension>
            <ns3:hr>167</ns3:hr>
            <ns3:cad>0</ns3:cad>
          </ns3:TrackPointExtension>
        </extensions>
      </trkpt>
      <trkpt lat="44.6823381073772907257080078125" lon="6.82653618045151233673095703125">
        <ele>2582.199951171875</ele>
        <time>2026-08-31T07:06:27.000Z</time>
        <extensions>
          <ns3:TrackPointExtension>
            <ns3:hr>167</ns3:hr>
            <ns3:cad>0</ns3:cad>
          </ns3:TrackPointExtension>
        </extensions>
      </trkpt>
      <trkpt lat="44.6823438070714473724365234375" lon="6.82652343995869159698486328125">
        <ele>2582.39990234375</ele>
        <time>2026-08-31T07:06:28.000Z</time>
        <extensions>
          <ns3:TrackPointExtension>
            <ns3:hr>166</ns3:hr>
            <ns3:cad>0</ns3:cad>
          </ns3:TrackPointExtension>
        </extensions>
      </trkpt>
      <trkpt lat="44.68234908767044544219970703125" lon="6.8265075981616973876953125">
        <ele>2582.60009765625</ele>
        <time>2026-08-31T07:06:29.000Z</time>
        <extensions>
          <ns3:TrackPointExtension>
            <ns3:hr>166</ns3:hr>
            <ns3:cad>0</ns3:cad>
          </ns3:TrackPointExtension>
        </extensions>
      </trkpt>
      <trkpt lat="44.682357050478458404541015625" lon="6.826492510735988616943359375">
        <ele>2582.800048828125</ele>
        <time>2026-08-31T07:06:30.000Z</time>
        <extensions>
          <ns3:TrackPointExtension>
            <ns3:hr>166</ns3:hr>
            <ns3:cad>0</ns3:cad>
          </ns3:TrackPointExtension>
        </extensions>
      </trkpt>
      <trkpt lat="44.68236300162971019744873046875" lon="6.82648681104183197021484375">
        <ele>2582.800048828125</ele>
        <time>2026-08-31T07:06:31.000Z</time>
        <extensions>
          <ns3:TrackPointExtension>
            <ns3:hr>166</ns3:hr>
            <ns3:cad>0</ns3:cad>
          </ns3:TrackPointExtension>
        </extensions>
      </trkpt>
      <trkpt lat="44.6823632530868053436279296875" lon="6.82648639194667339324951171875">
        <ele>2582.800048828125</ele>
        <time>2026-08-31T07:06:32.000Z</time>
        <extensions>
          <ns3:TrackPointExtension>
            <ns3:hr>166</ns3:hr>
            <ns3:cad>52</ns3:cad>
          </ns3:TrackPointExtension>
        </extensions>
      </trkpt>
      <trkpt lat="44.682370461523532867431640625" lon="6.82646895758807659149169921875">
        <ele>2582.800048828125</ele>
        <time>2026-08-31T07:06:33.000Z</time>
        <extensions>
          <ns3:TrackPointExtension>
            <ns3:hr>165</ns3:hr>
            <ns3:cad>52</ns3:cad>
          </ns3:TrackPointExtension>
        </extensions>
      </trkpt>
      <trkpt lat="44.6823769994080066680908203125" lon="6.82645504362881183624267578125">
        <ele>2583</ele>
        <time>2026-08-31T07:06:34.000Z</time>
        <extensions>
          <ns3:TrackPointExtension>
            <ns3:hr>165</ns3:hr>
            <ns3:cad>0</ns3:cad>
          </ns3:TrackPointExtension>
        </extensions>
      </trkpt>
      <trkpt lat="44.68238244764506816864013671875" lon="6.826443560421466827392578125">
        <ele>2583</ele>
        <time>2026-08-31T07:06:35.000Z</time>
        <extensions>
          <ns3:TrackPointExtension>
            <ns3:hr>164</ns3:hr>
            <ns3:cad>0</ns3:cad>
          </ns3:TrackPointExtension>
        </extensions>
      </trkpt>
      <trkpt lat="44.68238680623471736907958984375" lon="6.8264323286712169647216796875">
        <ele>2583.39990234375</ele>
        <time>2026-08-31T07:06:36.000Z</time>
        <extensions>
          <ns3:TrackPointExtension>
            <ns3:hr>163</ns3:hr>
            <ns3:cad>0</ns3:cad>
          </ns3:TrackPointExtension>
        </extensions>
      </trkpt>
      <trkpt lat="44.6823914162814617156982421875" lon="6.82641715742647647857666015625">
        <ele>2583.800048828125</ele>
        <time>2026-08-31T07:06:37.000Z</time>
        <extensions>
          <ns3:TrackPointExtension>
            <ns3:hr>163</ns3:hr>
            <ns3:cad>0</ns3:cad>
          </ns3:TrackPointExtension>
        </extensions>
      </trkpt>
      <trkpt lat="44.6823942661285400390625" lon="6.82640626095235347747802734375">
        <ele>2584.199951171875</ele>
        <time>2026-08-31T07:06:38.000Z</time>
        <extensions>
          <ns3:TrackPointExtension>
            <ns3:hr>163</ns3:hr>
            <ns3:cad>0</ns3:cad>
          </ns3:TrackPointExtension>
        </extensions>
      </trkpt>
      <trkpt lat="44.682398624718189239501953125" lon="6.82639268226921558380126953125">
        <ele>2584.39990234375</ele>
        <time>2026-08-31T07:06:39.000Z</time>
        <extensions>
          <ns3:TrackPointExtension>
            <ns3:hr>163</ns3:hr>
            <ns3:cad>0</ns3:cad>
          </ns3:TrackPointExtension>
        </extensions>
      </trkpt>
      <trkpt lat="44.68240189366042613983154296875" lon="6.826383210718631744384765625">
        <ele>2584.60009765625</ele>
        <time>2026-08-31T07:06:40.000Z</time>
        <extensions>
          <ns3:TrackPointExtension>
            <ns3:hr>163</ns3:hr>
            <ns3:cad>0</ns3:cad>
          </ns3:TrackPointExtension>
        </extensions>
      </trkpt>
      <trkpt lat="44.682406671345233917236328125" lon="6.82637558318674564361572265625">
        <ele>2584.800048828125</ele>
        <time>2026-08-31T07:06:41.000Z</time>
        <extensions>
          <ns3:TrackPointExtension>
            <ns3:hr>162</ns3:hr>
            <ns3:cad>0</ns3:cad>
          </ns3:TrackPointExtension>
        </extensions>
      </trkpt>
      <trkpt lat="44.682410694658756256103515625" lon="6.82636971585452556610107421875">
        <ele>2585</ele>
        <time>2026-08-31T07:06:42.000Z</time>
        <extensions>
          <ns3:TrackPointExtension>
            <ns3:hr>162</ns3:hr>
            <ns3:cad>0</ns3:cad>
          </ns3:TrackPointExtension>
        </extensions>
      </trkpt>
      <trkpt lat="44.6824148856103420257568359375" lon="6.8263682909309864044189453125">
        <ele>2585.199951171875</ele>
        <time>2026-08-31T07:06:43.000Z</time>
        <extensions>
          <ns3:TrackPointExtension>
            <ns3:hr>162</ns3:hr>
            <ns3:cad>0</ns3:cad>
          </ns3:TrackPointExtension>
        </extensions>
      </trkpt>
      <trkpt lat="44.68242234550416469573974609375" lon="6.82636552490293979644775390625">
        <ele>2585.39990234375</ele>
        <time>2026-08-31T07:06:44.000Z</time>
        <extensions>
          <ns3:TrackPointExtension>
            <ns3:hr>162</ns3:hr>
            <ns3:cad>0</ns3:cad>
          </ns3:TrackPointExtension>
        </extensions>
      </trkpt>
      <trkpt lat="44.6824293024837970733642578125" lon="6.82635647244751453399658203125">
        <ele>2585.60009765625</ele>
        <time>2026-08-31T07:06:45.000Z</time>
        <extensions>
          <ns3:TrackPointExtension>
            <ns3:hr>161</ns3:hr>
            <ns3:cad>0</ns3:cad>
          </ns3:TrackPointExtension>
        </extensions>
      </trkpt>
      <trkpt lat="44.682432822883129119873046875" lon="6.82634859345853328704833984375">
        <ele>2585.800048828125</ele>
        <time>2026-08-31T07:06:46.000Z</time>
        <extensions>
          <ns3:TrackPointExtension>
            <ns3:hr>160</ns3:hr>
            <ns3:cad>0</ns3:cad>
          </ns3:TrackPointExtension>
        </extensions>
      </trkpt>
      <trkpt lat="44.6824385225772857666015625" lon="6.82633954100310802459716796875">
        <ele>2585.800048828125</ele>
        <time>2026-08-31T07:06:47.000Z</time>
        <extensions>
          <ns3:TrackPointExtension>
            <ns3:hr>160</ns3:hr>
            <ns3:cad>0</ns3:cad>
          </ns3:TrackPointExtension>
        </extensions>
      </trkpt>
      <trkpt lat="44.6824447251856327056884765625" lon="6.8263293989002704620361328125">
        <ele>2586</ele>
        <time>2026-08-31T07:06:48.000Z</time>
        <extensions>
          <ns3:TrackPointExtension>
            <ns3:hr>159</ns3:hr>
            <ns3:cad>0</ns3:cad>
          </ns3:TrackPointExtension>
        </extensions>
      </trkpt>
      <trkpt lat="44.68245436437427997589111328125" lon="6.82631925679743289947509765625">
        <ele>2586.199951171875</ele>
        <time>2026-08-31T07:06:49.000Z</time>
        <extensions>
          <ns3:TrackPointExtension>
            <ns3:hr>159</ns3:hr>
            <ns3:cad>0</ns3:cad>
          </ns3:TrackPointExtension>
        </extensions>
      </trkpt>
      <trkpt lat="44.6824614889919757843017578125" lon="6.82631154544651508331298828125">
        <ele>2586.39990234375</ele>
        <time>2026-08-31T07:06:50.000Z</time>
        <extensions>
          <ns3:TrackPointExtension>
            <ns3:hr>159</ns3:hr>
            <ns3:cad>0</ns3:cad>
          </ns3:TrackPointExtension>
        </extensions>
      </trkpt>
      <trkpt lat="44.68246400356292724609375" lon="6.82631774805486202239990234375">
        <ele>2586.60009765625</ele>
        <time>2026-08-31T07:06:51.000Z</time>
        <extensions>
          <ns3:TrackPointExtension>
            <ns3:hr>159</ns3:hr>
            <ns3:cad>0</ns3:cad>
          </ns3:TrackPointExtension>
        </extensions>
      </trkpt>
      <trkpt lat="44.68246844597160816192626953125" lon="6.82630844414234161376953125">
        <ele>2586.800048828125</ele>
        <time>2026-08-31T07:06:52.000Z</time>
        <extensions>
          <ns3:TrackPointExtension>
            <ns3:hr>159</ns3:hr>
            <ns3:cad>0</ns3:cad>
          </ns3:TrackPointExtension>
        </extensions>
      </trkpt>
      <trkpt lat="44.68247263692319393157958984375" lon="6.82630576193332672119140625">
        <ele>2587</ele>
        <time>2026-08-31T07:06:53.000Z</time>
        <extensions>
          <ns3:TrackPointExtension>
            <ns3:hr>159</ns3:hr>
            <ns3:cad>0</ns3:cad>
          </ns3:TrackPointExtension>
        </extensions>
      </trkpt>
      <trkpt lat="44.6824769116938114166259765625" lon="6.82630718685686588287353515625">
        <ele>2587.199951171875</ele>
        <time>2026-08-31T07:06:54.000Z</time>
        <extensions>
          <ns3:TrackPointExtension>
            <ns3:hr>159</ns3:hr>
            <ns3:cad>0</ns3:cad>
          </ns3:TrackPointExtension>
        </extensions>
      </trkpt>
      <trkpt lat="44.682490490376949310302734375" lon="6.8262982182204723358154296875">
        <ele>2587.60009765625</ele>
        <time>2026-08-31T07:06:55.000Z</time>
        <extensions>
          <ns3:TrackPointExtension>
            <ns3:hr>159</ns3:hr>
            <ns3:cad>0</ns3:cad>
          </ns3:TrackPointExtension>
        </extensions>
      </trkpt>
      <trkpt lat="44.6824975311756134033203125" lon="6.8262898363173007965087890625">
        <ele>2588</ele>
        <time>2026-08-31T07:06:56.000Z</time>
        <extensions>
          <ns3:TrackPointExtension>
            <ns3:hr>159</ns3:hr>
            <ns3:cad>0</ns3:cad>
          </ns3:TrackPointExtension>
        </extensions>
      </trkpt>
      <trkpt lat="44.68250683508813381195068359375" lon="6.82628220878541469573974609375">
        <ele>2588.39990234375</ele>
        <time>2026-08-31T07:06:57.000Z</time>
        <extensions>
          <ns3:TrackPointExtension>
            <ns3:hr>160</ns3:hr>
            <ns3:cad>0</ns3:cad>
          </ns3:TrackPointExtension>
        </extensions>
      </trkpt>
      <trkpt lat="44.68251337297260761260986328125" lon="6.826277934014797210693359375">
        <ele>2588.60009765625</ele>
        <time>2026-08-31T07:06:58.000Z</time>
        <extensions>
          <ns3:TrackPointExtension>
            <ns3:hr>160</ns3:hr>
            <ns3:cad>0</ns3:cad>
          </ns3:TrackPointExtension>
        </extensions>
      </trkpt>
      <trkpt lat="44.68252100050449371337890625" lon="6.8262670375406742095947265625">
        <ele>2588.800048828125</ele>
        <time>2026-08-31T07:06:59.000Z</time>
        <extensions>
          <ns3:TrackPointExtension>
            <ns3:hr>161</ns3:hr>
            <ns3:cad>0</ns3:cad>
          </ns3:TrackPointExtension>
        </extensions>
      </trkpt>
      <trkpt lat="44.6825230121612548828125" lon="6.82625773362815380096435546875">
        <ele>2588.800048828125</ele>
        <time>2026-08-31T07:07:00.000Z</time>
        <extensions>
          <ns3:TrackPointExtension>
            <ns3:hr>162</ns3:hr>
            <ns3:cad>0</ns3:cad>
          </ns3:TrackPointExtension>
        </extensions>
      </trkpt>
      <trkpt lat="44.68252980150282382965087890625" lon="6.82624767534434795379638671875">
        <ele>2588.800048828125</ele>
        <time>2026-08-31T07:07:01.000Z</time>
        <extensions>
          <ns3:TrackPointExtension>
            <ns3:hr>162</ns3:hr>
            <ns3:cad>0</ns3:cad>
          </ns3:TrackPointExtension>
        </extensions>
      </trkpt>
      <trkpt lat="44.682538099586963653564453125" lon="6.82623870670795440673828125">
        <ele>2588.800048828125</ele>
        <time>2026-08-31T07:07:02.000Z</time>
        <extensions>
          <ns3:TrackPointExtension>
            <ns3:hr>163</ns3:hr>
            <ns3:cad>0</ns3:cad>
          </ns3:TrackPointExtension>
        </extensions>
      </trkpt>
      <trkpt lat="44.682544134557247161865234375" lon="6.82623057626187801361083984375">
        <ele>2589</ele>
        <time>2026-08-31T07:07:03.000Z</time>
        <extensions>
          <ns3:TrackPointExtension>
            <ns3:hr>163</ns3:hr>
            <ns3:cad>0</ns3:cad>
          </ns3:TrackPointExtension>
        </extensions>
      </trkpt>
      <trkpt lat="44.6825530193746089935302734375" lon="6.82621682994067668914794921875">
        <ele>2589.199951171875</ele>
        <time>2026-08-31T07:07:04.000Z</time>
        <extensions>
          <ns3:TrackPointExtension>
            <ns3:hr>164</ns3:hr>
            <ns3:cad>0</ns3:cad>
          </ns3:TrackPointExtension>
        </extensions>
      </trkpt>
      <trkpt lat="44.6825592219829559326171875" lon="6.82620928622782230377197265625">
        <ele>2589.39990234375</ele>
        <time>2026-08-31T07:07:05.000Z</time>
        <extensions>
          <ns3:TrackPointExtension>
            <ns3:hr>164</ns3:hr>
            <ns3:cad>0</ns3:cad>
          </ns3:TrackPointExtension>
        </extensions>
      </trkpt>
      <trkpt lat="44.6825659275054931640625" lon="6.8262023292481899261474609375">
        <ele>2589.60009765625</ele>
        <time>2026-08-31T07:07:06.000Z</time>
        <extensions>
          <ns3:TrackPointExtension>
            <ns3:hr>164</ns3:hr>
            <ns3:cad>0</ns3:cad>
          </ns3:TrackPointExtension>
        </extensions>
      </trkpt>
      <trkpt lat="44.68256869353353977203369140625" lon="6.8261986412107944488525390625">
        <ele>2589.800048828125</ele>
        <time>2026-08-31T07:07:07.000Z</time>
        <extensions>
          <ns3:TrackPointExtension>
            <ns3:hr>164</ns3:hr>
            <ns3:cad>56</ns3:cad>
          </ns3:TrackPointExtension>
        </extensions>
      </trkpt>
      <trkpt lat="44.6825744770467281341552734375" lon="6.82619436644017696380615234375">
        <ele>2590</ele>
        <time>2026-08-31T07:07:08.000Z</time>
        <extensions>
          <ns3:TrackPointExtension>
            <ns3:hr>164</ns3:hr>
            <ns3:cad>56</ns3:cad>
          </ns3:TrackPointExtension>
        </extensions>
      </trkpt>
      <trkpt lat="44.68258093111217021942138671875" lon="6.82618908584117889404296875">
        <ele>2590.199951171875</ele>
        <time>2026-08-31T07:07:09.000Z</time>
        <extensions>
          <ns3:TrackPointExtension>
            <ns3:hr>165</ns3:hr>
            <ns3:cad>56</ns3:cad>
          </ns3:TrackPointExtension>
        </extensions>
      </trkpt>
      <trkpt lat="44.6825888939201831817626953125" lon="6.8261842243373394012451171875">
        <ele>2590.60009765625</ele>
        <time>2026-08-31T07:07:10.000Z</time>
        <extensions>
          <ns3:TrackPointExtension>
            <ns3:hr>166</ns3:hr>
            <ns3:cad>0</ns3:cad>
          </ns3:TrackPointExtension>
        </extensions>
      </trkpt>
      <trkpt lat="44.68259744346141815185546875" lon="6.82618078775703907012939453125">
        <ele>2591</ele>
        <time>2026-08-31T07:07:11.000Z</time>
        <extensions>
          <ns3:TrackPointExtension>
            <ns3:hr>167</ns3:hr>
            <ns3:cad>0</ns3:cad>
          </ns3:TrackPointExtension>
        </extensions>
      </trkpt>
      <trkpt lat="44.68260674737393856048583984375" lon="6.82617760263383388519287109375">
        <ele>2591.39990234375</ele>
        <time>2026-08-31T07:07:12.000Z</time>
        <extensions>
          <ns3:TrackPointExtension>
            <ns3:hr>167</ns3:hr>
            <ns3:cad>0</ns3:cad>
          </ns3:TrackPointExtension>
        </extensions>
      </trkpt>
      <trkpt lat="44.68261596746742725372314453125" lon="6.82617911137640476226806640625">
        <ele>2591.800048828125</ele>
        <time>2026-08-31T07:07:13.000Z</time>
        <extensions>
          <ns3:TrackPointExtension>
            <ns3:hr>167</ns3:hr>
            <ns3:cad>0</ns3:cad>
          </ns3:TrackPointExtension>
        </extensions>
      </trkpt>
      <trkpt lat="44.68262200243771076202392578125" lon="6.82618506252765655517578125">
        <ele>2592</ele>
        <time>2026-08-31T07:07:14.000Z</time>
        <extensions>
          <ns3:TrackPointExtension>
            <ns3:hr>168</ns3:hr>
            <ns3:cad>0</ns3:cad>
          </ns3:TrackPointExtension>
        </extensions>
      </trkpt>
      <trkpt lat="44.6826271153986454010009765625" lon="6.82619419880211353302001953125">
        <ele>2592.39990234375</ele>
        <time>2026-08-31T07:07:15.000Z</time>
        <extensions>
          <ns3:TrackPointExtension>
            <ns3:hr>167</ns3:hr>
            <ns3:cad>0</ns3:cad>
          </ns3:TrackPointExtension>
        </extensions>
      </trkpt>
      <trkpt lat="44.6826294623315334320068359375" lon="6.82620258070528507232666015625">
        <ele>2592.60009765625</ele>
        <time>2026-08-31T07:07:16.000Z</time>
        <extensions>
          <ns3:TrackPointExtension>
            <ns3:hr>167</ns3:hr>
            <ns3:cad>0</ns3:cad>
          </ns3:TrackPointExtension>
        </extensions>
      </trkpt>
      <trkpt lat="44.68262887559831142425537109375" lon="6.82620911858975887298583984375">
        <ele>2593</ele>
        <time>2026-08-31T07:07:17.000Z</time>
        <extensions>
          <ns3:TrackPointExtension>
            <ns3:hr>168</ns3:hr>
            <ns3:cad>0</ns3:cad>
          </ns3:TrackPointExtension>
        </extensions>
      </trkpt>
      <trkpt lat="44.6826271153986454010009765625" lon="6.826222948729991912841796875">
        <ele>2593.39990234375</ele>
        <time>2026-08-31T07:07:18.000Z</time>
        <extensions>
          <ns3:TrackPointExtension>
            <ns3:hr>167</ns3:hr>
            <ns3:cad>0</ns3:cad>
          </ns3:TrackPointExtension>
        </extensions>
      </trkpt>
      <trkpt lat="44.68262426555156707763671875" lon="6.8262288160622119903564453125">
        <ele>2593.800048828125</ele>
        <time>2026-08-31T07:07:19.000Z</time>
        <extensions>
          <ns3:TrackPointExtension>
            <ns3:hr>167</ns3:hr>
            <ns3:cad>0</ns3:cad>
          </ns3:TrackPointExtension>
        </extensions>
      </trkpt>
      <trkpt lat="44.68261797912418842315673828125" lon="6.8262385390698909759521484375">
        <ele>2594.199951171875</ele>
        <time>2026-08-31T07:07:20.000Z</time>
        <extensions>
          <ns3:TrackPointExtension>
            <ns3:hr>167</ns3:hr>
            <ns3:cad>0</ns3:cad>
          </ns3:TrackPointExtension>
        </extensions>
      </trkpt>
      <trkpt lat="44.68261429108679294586181640625" lon="6.8262469209730625152587890625">
        <ele>2594.39990234375</ele>
        <time>2026-08-31T07:07:21.000Z</time>
        <extensions>
          <ns3:TrackPointExtension>
            <ns3:hr>167</ns3:hr>
            <ns3:cad>0</ns3:cad>
          </ns3:TrackPointExtension>
        </extensions>
      </trkpt>
      <trkpt lat="44.6826180629432201385498046875" lon="6.82626041583716869354248046875">
        <ele>2594.60009765625</ele>
        <time>2026-08-31T07:07:22.000Z</time>
        <extensions>
          <ns3:TrackPointExtension>
            <ns3:hr>167</ns3:hr>
            <ns3:cad>0</ns3:cad>
          </ns3:TrackPointExtension>
        </extensions>
      </trkpt>
      <trkpt lat="44.682619906961917877197265625" lon="6.826277263462543487548828125">
        <ele>2594.60009765625</ele>
        <time>2026-08-31T07:07:23.000Z</time>
        <extensions>
          <ns3:TrackPointExtension>
            <ns3:hr>167</ns3:hr>
            <ns3:cad>0</ns3:cad>
          </ns3:TrackPointExtension>
        </extensions>
      </trkpt>
      <trkpt lat="44.682616554200649261474609375" lon="6.8262888304889202117919921875">
        <ele>2594.60009765625</ele>
        <time>2026-08-31T07:07:24.000Z</time>
        <extensions>
          <ns3:TrackPointExtension>
            <ns3:hr>167</ns3:hr>
            <ns3:cad>0</ns3:cad>
          </ns3:TrackPointExtension>
        </extensions>
      </trkpt>
      <trkpt lat="44.6826137043535709381103515625" lon="6.82630634866654872894287109375">
        <ele>2594.60009765625</ele>
        <time>2026-08-31T07:07:25.000Z</time>
        <extensions>
          <ns3:TrackPointExtension>
            <ns3:hr>167</ns3:hr>
            <ns3:cad>0</ns3:cad>
          </ns3:TrackPointExtension>
        </extensions>
      </trkpt>
      <trkpt lat="44.68260976485908031463623046875" lon="6.82632110081613063812255859375">
        <ele>2594.60009765625</ele>
        <time>2026-08-31T07:07:26.000Z</time>
        <extensions>
          <ns3:TrackPointExtension>
            <ns3:hr>167</ns3:hr>
            <ns3:cad>0</ns3:cad>
          </ns3:TrackPointExtension>
        </extensions>
      </trkpt>
      <trkpt lat="44.68260473571717739105224609375" lon="6.8263386189937591552734375">
        <ele>2594.60009765625</ele>
        <time>2026-08-31T07:07:27.000Z</time>
        <extensions>
          <ns3:TrackPointExtension>
            <ns3:hr>167</ns3:hr>
            <ns3:cad>0</ns3:cad>
          </ns3:TrackPointExtension>
        </extensions>
      </trkpt>
      <trkpt lat="44.68260507099330425262451171875" lon="6.8263518624007701873779296875">
        <ele>2594.60009765625</ele>
        <time>2026-08-31T07:07:28.000Z</time>
        <extensions>
          <ns3:TrackPointExtension>
            <ns3:hr>167</ns3:hr>
            <ns3:cad>0</ns3:cad>
          </ns3:TrackPointExtension>
        </extensions>
      </trkpt>
      <trkpt lat="44.682603813707828521728515625" lon="6.82636745274066925048828125">
        <ele>2594.800048828125</ele>
        <time>2026-08-31T07:07:29.000Z</time>
        <extensions>
          <ns3:TrackPointExtension>
            <ns3:hr>167</ns3:hr>
            <ns3:cad>0</ns3:cad>
          </ns3:TrackPointExtension>
        </extensions>
      </trkpt>
      <trkpt lat="44.68260574154555797576904296875" lon="6.8263780139386653900146484375">
        <ele>2595</ele>
        <time>2026-08-31T07:07:30.000Z</time>
        <extensions>
          <ns3:TrackPointExtension>
            <ns3:hr>167</ns3:hr>
            <ns3:cad>0</ns3:cad>
          </ns3:TrackPointExtension>
        </extensions>
      </trkpt>
      <trkpt lat="44.6826073341071605682373046875" lon="6.82638715021312236785888671875">
        <ele>2595</ele>
        <time>2026-08-31T07:07:31.000Z</time>
        <extensions>
          <ns3:TrackPointExtension>
            <ns3:hr>168</ns3:hr>
            <ns3:cad>0</ns3:cad>
          </ns3:TrackPointExtension>
        </extensions>
      </trkpt>
      <trkpt lat="44.68261412344872951507568359375" lon="6.8263961188495159149169921875">
        <ele>2595.199951171875</ele>
        <time>2026-08-31T07:07:32.000Z</time>
        <extensions>
          <ns3:TrackPointExtension>
            <ns3:hr>167</ns3:hr>
            <ns3:cad>0</ns3:cad>
          </ns3:TrackPointExtension>
        </extensions>
      </trkpt>
      <trkpt lat="44.6826190687716007232666015625" lon="6.826401315629482269287109375">
        <ele>2595.199951171875</ele>
        <time>2026-08-31T07:07:33.000Z</time>
        <extensions>
          <ns3:TrackPointExtension>
            <ns3:hr>168</ns3:hr>
            <ns3:cad>0</ns3:cad>
          </ns3:TrackPointExtension>
        </extensions>
      </trkpt>
      <trkpt lat="44.68262703157961368560791015625" lon="6.82640232145786285400390625">
        <ele>2595.39990234375</ele>
        <time>2026-08-31T07:07:34.000Z</time>
        <extensions>
          <ns3:TrackPointExtension>
            <ns3:hr>168</ns3:hr>
            <ns3:cad>0</ns3:cad>
          </ns3:TrackPointExtension>
        </extensions>
      </trkpt>
      <trkpt lat="44.68263440765440464019775390625" lon="6.826399303972721099853515625">
        <ele>2595.39990234375</ele>
        <time>2026-08-31T07:07:35.000Z</time>
        <extensions>
          <ns3:TrackPointExtension>
            <ns3:hr>167</ns3:hr>
            <ns3:cad>0</ns3:cad>
          </ns3:TrackPointExtension>
        </extensions>
      </trkpt>
      <trkpt lat="44.68264262191951274871826171875" lon="6.826399303972721099853515625">
        <ele>2595.39990234375</ele>
        <time>2026-08-31T07:07:36.000Z</time>
        <extensions>
          <ns3:TrackPointExtension>
            <ns3:hr>167</ns3:hr>
            <ns3:cad>0</ns3:cad>
          </ns3:TrackPointExtension>
        </extensions>
      </trkpt>
      <trkpt lat="44.6826482377946376800537109375" lon="6.8263957835733890533447265625">
        <ele>2595.60009765625</ele>
        <time>2026-08-31T07:07:37.000Z</time>
        <extensions>
          <ns3:TrackPointExtension>
            <ns3:hr>164</ns3:hr>
            <ns3:cad>0</ns3:cad>
          </ns3:TrackPointExtension>
        </extensions>
      </trkpt>
      <trkpt lat="44.68266190029680728912353515625" lon="6.8263981305062770843505859375">
        <ele>2595.60009765625</ele>
        <time>2026-08-31T07:07:38.000Z</time>
        <extensions>
          <ns3:TrackPointExtension>
            <ns3:hr>164</ns3:hr>
            <ns3:cad>0</ns3:cad>
          </ns3:TrackPointExtension>
        </extensions>
      </trkpt>
      <trkpt lat="44.682670533657073974609375" lon="6.82639603503048419952392578125">
        <ele>2595.800048828125</ele>
        <time>2026-08-31T07:07:39.000Z</time>
        <extensions>
          <ns3:TrackPointExtension>
            <ns3:hr>163</ns3:hr>
            <ns3:cad>0</ns3:cad>
          </ns3:TrackPointExtension>
        </extensions>
      </trkpt>
      <trkpt lat="44.68267790973186492919921875" lon="6.82639452628791332244873046875">
        <ele>2595.800048828125</ele>
        <time>2026-08-31T07:07:40.000Z</time>
        <extensions>
          <ns3:TrackPointExtension>
            <ns3:hr>162</ns3:hr>
            <ns3:cad>0</ns3:cad>
          </ns3:TrackPointExtension>
        </extensions>
      </trkpt>
      <trkpt lat="44.68268872238695621490478515625" lon="6.826390922069549560546875">
        <ele>2595.800048828125</ele>
        <time>2026-08-31T07:07:41.000Z</time>
        <extensions>
          <ns3:TrackPointExtension>
            <ns3:hr>162</ns3:hr>
            <ns3:cad>0</ns3:cad>
          </ns3:TrackPointExtension>
        </extensions>
      </trkpt>
      <trkpt lat="44.68269794248044490814208984375" lon="6.826387234032154083251953125">
        <ele>2596</ele>
        <time>2026-08-31T07:07:42.000Z</time>
        <extensions>
          <ns3:TrackPointExtension>
            <ns3:hr>161</ns3:hr>
            <ns3:cad>0</ns3:cad>
          </ns3:TrackPointExtension>
        </extensions>
      </trkpt>
      <trkpt lat="44.68270833604037761688232421875" lon="6.82638622820377349853515625">
        <ele>2596</ele>
        <time>2026-08-31T07:07:43.000Z</time>
        <extensions>
          <ns3:TrackPointExtension>
            <ns3:hr>161</ns3:hr>
            <ns3:cad>0</ns3:cad>
          </ns3:TrackPointExtension>
        </extensions>
      </trkpt>
      <trkpt lat="44.68271453864872455596923828125" lon="6.82638547383248805999755859375">
        <ele>2596.199951171875</ele>
        <time>2026-08-31T07:07:44.000Z</time>
        <extensions>
          <ns3:TrackPointExtension>
            <ns3:hr>161</ns3:hr>
            <ns3:cad>0</ns3:cad>
          </ns3:TrackPointExtension>
        </extensions>
      </trkpt>
      <trkpt lat="44.6827233396470546722412109375" lon="6.82638480328023433685302734375">
        <ele>2596.39990234375</ele>
        <time>2026-08-31T07:07:45.000Z</time>
        <extensions>
          <ns3:TrackPointExtension>
            <ns3:hr>160</ns3:hr>
            <ns3:cad>0</ns3:cad>
          </ns3:TrackPointExtension>
        </extensions>
      </trkpt>
      <trkpt lat="44.68273180536925792694091796875" lon="6.82639301754534244537353515625">
        <ele>2596.39990234375</ele>
        <time>2026-08-31T07:07:46.000Z</time>
        <extensions>
          <ns3:TrackPointExtension>
            <ns3:hr>160</ns3:hr>
            <ns3:cad>0</ns3:cad>
          </ns3:TrackPointExtension>
        </extensions>
      </trkpt>
      <trkpt lat="44.68274203129112720489501953125" lon="6.82639787904918193817138671875">
        <ele>2596.60009765625</ele>
        <time>2026-08-31T07:07:47.000Z</time>
        <extensions>
          <ns3:TrackPointExtension>
            <ns3:hr>160</ns3:hr>
            <ns3:cad>0</ns3:cad>
          </ns3:TrackPointExtension>
        </extensions>
      </trkpt>
      <trkpt lat="44.6827498264610767364501953125" lon="6.82640575803816318511962890625">
        <ele>2596.800048828125</ele>
        <time>2026-08-31T07:07:48.000Z</time>
        <extensions>
          <ns3:TrackPointExtension>
            <ns3:hr>160</ns3:hr>
            <ns3:cad>0</ns3:cad>
          </ns3:TrackPointExtension>
        </extensions>
      </trkpt>
      <trkpt lat="44.68275594525039196014404296875" lon="6.82641313411295413970947265625">
        <ele>2596.800048828125</ele>
        <time>2026-08-31T07:07:49.000Z</time>
        <extensions>
          <ns3:TrackPointExtension>
            <ns3:hr>160</ns3:hr>
            <ns3:cad>51</ns3:cad>
          </ns3:TrackPointExtension>
        </extensions>
      </trkpt>
      <trkpt lat="44.68276910483837127685546875" lon="6.82642319239675998687744140625">
        <ele>2597</ele>
        <time>2026-08-31T07:07:50.000Z</time>
        <extensions>
          <ns3:TrackPointExtension>
            <ns3:hr>159</ns3:hr>
            <ns3:cad>51</ns3:cad>
          </ns3:TrackPointExtension>
        </extensions>
      </trkpt>
      <trkpt lat="44.68277740292251110076904296875" lon="6.826430819928646087646484375">
        <ele>2597.199951171875</ele>
        <time>2026-08-31T07:07:51.000Z</time>
        <extensions>
          <ns3:TrackPointExtension>
            <ns3:hr>159</ns3:hr>
            <ns3:cad>51</ns3:cad>
          </ns3:TrackPointExtension>
        </extensions>
      </trkpt>
      <trkpt lat="44.68278310261666774749755859375" lon="6.82643492706120014190673828125">
        <ele>2597.39990234375</ele>
        <time>2026-08-31T07:07:52.000Z</time>
        <extensions>
          <ns3:TrackPointExtension>
            <ns3:hr>159</ns3:hr>
            <ns3:cad>51</ns3:cad>
          </ns3:TrackPointExtension>
        </extensions>
      </trkpt>
      <trkpt lat="44.68278829939663410186767578125" lon="6.82643660344183444976806640625">
        <ele>2597.60009765625</ele>
        <time>2026-08-31T07:07:53.000Z</time>
        <extensions>
          <ns3:TrackPointExtension>
            <ns3:hr>159</ns3:hr>
            <ns3:cad>51</ns3:cad>
          </ns3:TrackPointExtension>
        </extensions>
      </trkpt>
      <trkpt lat="44.68279819004237651824951171875" lon="6.82643827982246875762939453125">
        <ele>2597.800048828125</ele>
        <time>2026-08-31T07:07:54.000Z</time>
        <extensions>
          <ns3:TrackPointExtension>
            <ns3:hr>159</ns3:hr>
            <ns3:cad>51</ns3:cad>
          </ns3:TrackPointExtension>
        </extensions>
      </trkpt>
      <trkpt lat="44.6828033030033111572265625" lon="6.8264413811266422271728515625">
        <ele>2598</ele>
        <time>2026-08-31T07:07:55.000Z</time>
        <extensions>
          <ns3:TrackPointExtension>
            <ns3:hr>159</ns3:hr>
            <ns3:cad>51</ns3:cad>
          </ns3:TrackPointExtension>
        </extensions>
      </trkpt>
      <trkpt lat="44.6828115172684192657470703125" lon="6.82644817046821117401123046875">
        <ele>2598.199951171875</ele>
        <time>2026-08-31T07:07:56.000Z</time>
        <extensions>
          <ns3:TrackPointExtension>
            <ns3:hr>158</ns3:hr>
            <ns3:cad>51</ns3:cad>
          </ns3:TrackPointExtension>
        </extensions>
      </trkpt>
      <trkpt lat="44.68281964771449565887451171875" lon="6.826457977294921875">
        <ele>2598.199951171875</ele>
        <time>2026-08-31T07:07:57.000Z</time>
        <extensions>
          <ns3:TrackPointExtension>
            <ns3:hr>157</ns3:hr>
            <ns3:cad>0</ns3:cad>
          </ns3:TrackPointExtension>
        </extensions>
      </trkpt>
      <trkpt lat="44.68282853253185749053955078125" lon="6.82646644301712512969970703125">
        <ele>2598.39990234375</ele>
        <time>2026-08-31T07:07:58.000Z</time>
        <extensions>
          <ns3:TrackPointExtension>
            <ns3:hr>156</ns3:hr>
            <ns3:cad>0</ns3:cad>
          </ns3:TrackPointExtension>
        </extensions>
      </trkpt>
      <trkpt lat="44.68283758498728275299072265625" lon="6.82647532783448696136474609375">
        <ele>2598.60009765625</ele>
        <time>2026-08-31T07:07:59.000Z</time>
        <extensions>
          <ns3:TrackPointExtension>
            <ns3:hr>155</ns3:hr>
            <ns3:cad>0</ns3:cad>
          </ns3:TrackPointExtension>
        </extensions>
      </trkpt>
      <trkpt lat="44.68284797854721546173095703125" lon="6.82648639194667339324951171875">
        <ele>2598.60009765625</ele>
        <time>2026-08-31T07:08:00.000Z</time>
        <extensions>
          <ns3:TrackPointExtension>
            <ns3:hr>154</ns3:hr>
            <ns3:cad>0</ns3:cad>
          </ns3:TrackPointExtension>
        </extensions>
      </trkpt>
      <trkpt lat="44.68285853974521160125732421875" lon="6.826497204601764678955078125">
        <ele>2598.60009765625</ele>
        <time>2026-08-31T07:08:01.000Z</time>
        <extensions>
          <ns3:TrackPointExtension>
            <ns3:hr>153</ns3:hr>
            <ns3:cad>0</ns3:cad>
          </ns3:TrackPointExtension>
        </extensions>
      </trkpt>
      <trkpt lat="44.68286893330514430999755859375" lon="6.8265121243894100189208984375">
        <ele>2598.60009765625</ele>
        <time>2026-08-31T07:08:02.000Z</time>
        <extensions>
          <ns3:TrackPointExtension>
            <ns3:hr>153</ns3:hr>
            <ns3:cad>0</ns3:cad>
          </ns3:TrackPointExtension>
        </extensions>
      </trkpt>
      <trkpt lat="44.68287915922701358795166015625" lon="6.8265272118151187896728515625">
        <ele>2598.39990234375</ele>
        <time>2026-08-31T07:08:03.000Z</time>
        <extensions>
          <ns3:TrackPointExtension>
            <ns3:hr>153</ns3:hr>
            <ns3:cad>0</ns3:cad>
          </ns3:TrackPointExtension>
        </extensions>
      </trkpt>
      <trkpt lat="44.68289122916758060455322265625" lon="6.82654053904116153717041015625">
        <ele>2598.39990234375</ele>
        <time>2026-08-31T07:08:04.000Z</time>
        <extensions>
          <ns3:TrackPointExtension>
            <ns3:hr>152</ns3:hr>
            <ns3:cad>0</ns3:cad>
          </ns3:TrackPointExtension>
        </extensions>
      </trkpt>
      <trkpt lat="44.6829040534794330596923828125" lon="6.82655252516269683837890625">
        <ele>2598.199951171875</ele>
        <time>2026-08-31T07:08:05.000Z</time>
        <extensions>
          <ns3:TrackPointExtension>
            <ns3:hr>152</ns3:hr>
            <ns3:cad>0</ns3:cad>
          </ns3:TrackPointExtension>
        </extensions>
      </trkpt>
      <trkpt lat="44.682921655476093292236328125" lon="6.8265449814498424530029296875">
        <ele>2598</ele>
        <time>2026-08-31T07:08:06.000Z</time>
        <extensions>
          <ns3:TrackPointExtension>
            <ns3:hr>152</ns3:hr>
            <ns3:cad>0</ns3:cad>
          </ns3:TrackPointExtension>
        </extensions>
      </trkpt>
      <trkpt lat="44.6829375810921192169189453125" lon="6.8265490047633647918701171875">
        <ele>2598</ele>
        <time>2026-08-31T07:08:07.000Z</time>
        <extensions>
          <ns3:TrackPointExtension>
            <ns3:hr>152</ns3:hr>
            <ns3:cad>0</ns3:cad>
          </ns3:TrackPointExtension>
        </extensions>
      </trkpt>
      <trkpt lat="44.68294722028076648712158203125" lon="6.8265516869723796844482421875">
        <ele>2598</ele>
        <time>2026-08-31T07:08:08.000Z</time>
        <extensions>
          <ns3:TrackPointExtension>
            <ns3:hr>152</ns3:hr>
            <ns3:cad>0</ns3:cad>
          </ns3:TrackPointExtension>
        </extensions>
      </trkpt>
      <trkpt lat="44.6829630620777606964111328125" lon="6.826555542647838592529296875">
        <ele>2598</ele>
        <time>2026-08-31T07:08:09.000Z</time>
        <extensions>
          <ns3:TrackPointExtension>
            <ns3:hr>152</ns3:hr>
            <ns3:cad>0</ns3:cad>
          </ns3:TrackPointExtension>
        </extensions>
      </trkpt>
      <trkpt lat="44.68297295272350311279296875" lon="6.82655277661979198455810546875">
        <ele>2598.199951171875</ele>
        <time>2026-08-31T07:08:10.000Z</time>
        <extensions>
          <ns3:TrackPointExtension>
            <ns3:hr>152</ns3:hr>
            <ns3:cad>0</ns3:cad>
          </ns3:TrackPointExtension>
        </extensions>
      </trkpt>
      <trkpt lat="44.68298527412116527557373046875" lon="6.8265486694872379302978515625">
        <ele>2598.199951171875</ele>
        <time>2026-08-31T07:08:11.000Z</time>
        <extensions>
          <ns3:TrackPointExtension>
            <ns3:hr>151</ns3:hr>
            <ns3:cad>0</ns3:cad>
          </ns3:TrackPointExtension>
        </extensions>
      </trkpt>
      <trkpt lat="44.68299600295722484588623046875" lon="6.8265456520020961761474609375">
        <ele>2598.39990234375</ele>
        <time>2026-08-31T07:08:12.000Z</time>
        <extensions>
          <ns3:TrackPointExtension>
            <ns3:hr>151</ns3:hr>
            <ns3:cad>0</ns3:cad>
          </ns3:TrackPointExtension>
        </extensions>
      </trkpt>
      <trkpt lat="44.68300379812717437744140625" lon="6.8265433050692081451416015625">
        <ele>2598.60009765625</ele>
        <time>2026-08-31T07:08:13.000Z</time>
        <extensions>
          <ns3:TrackPointExtension>
            <ns3:hr>151</ns3:hr>
            <ns3:cad>0</ns3:cad>
          </ns3:TrackPointExtension>
        </extensions>
      </trkpt>
      <trkpt lat="44.6830190531909465789794921875" lon="6.826541125774383544921875">
        <ele>2598.800048828125</ele>
        <time>2026-08-31T07:08:14.000Z</time>
        <extensions>
          <ns3:TrackPointExtension>
            <ns3:hr>151</ns3:hr>
            <ns3:cad>0</ns3:cad>
          </ns3:TrackPointExtension>
        </extensions>
      </trkpt>
      <trkpt lat="44.68302181921899318695068359375" lon="6.8265399523079395294189453125">
        <ele>2599</ele>
        <time>2026-08-31T07:08:15.000Z</time>
        <extensions>
          <ns3:TrackPointExtension>
            <ns3:hr>151</ns3:hr>
            <ns3:cad>0</ns3:cad>
          </ns3:TrackPointExtension>
        </extensions>
      </trkpt>
      <trkpt lat="44.68303187750279903411865234375" lon="6.82654087431728839874267578125">
        <ele>2599.199951171875</ele>
        <time>2026-08-31T07:08:16.000Z</time>
        <extensions>
          <ns3:TrackPointExtension>
            <ns3:hr>151</ns3:hr>
            <ns3:cad>0</ns3:cad>
          </ns3:TrackPointExtension>
        </extensions>
      </trkpt>
      <trkpt lat="44.6830358169972896575927734375" lon="6.82653584517538547515869140625">
        <ele>2599.199951171875</ele>
        <time>2026-08-31T07:08:17.000Z</time>
        <extensions>
          <ns3:TrackPointExtension>
            <ns3:hr>151</ns3:hr>
            <ns3:cad>0</ns3:cad>
          </ns3:TrackPointExtension>
        </extensions>
      </trkpt>
      <trkpt lat="44.683046378195285797119140625" lon="6.82653584517538547515869140625">
        <ele>2599.39990234375</ele>
        <time>2026-08-31T07:08:18.000Z</time>
        <extensions>
          <ns3:TrackPointExtension>
            <ns3:hr>151</ns3:hr>
            <ns3:cad>0</ns3:cad>
          </ns3:TrackPointExtension>
        </extensions>
      </trkpt>
      <trkpt lat="44.68305383808910846710205078125" lon="6.8265352584421634674072265625">
        <ele>2599.39990234375</ele>
        <time>2026-08-31T07:08:19.000Z</time>
        <extensions>
          <ns3:TrackPointExtension>
            <ns3:hr>151</ns3:hr>
            <ns3:cad>0</ns3:cad>
          </ns3:TrackPointExtension>
        </extensions>
      </trkpt>
      <trkpt lat="44.68306540511548519134521484375" lon="6.82653852738440036773681640625">
        <ele>2599.60009765625</ele>
        <time>2026-08-31T07:08:20.000Z</time>
        <extensions>
          <ns3:TrackPointExtension>
            <ns3:hr>150</ns3:hr>
            <ns3:cad>0</ns3:cad>
          </ns3:TrackPointExtension>
        </extensions>
      </trkpt>
      <trkpt lat="44.68307554721832275390625" lon="6.82653819210827350616455078125">
        <ele>2599.800048828125</ele>
        <time>2026-08-31T07:08:21.000Z</time>
        <extensions>
          <ns3:TrackPointExtension>
            <ns3:hr>150</ns3:hr>
            <ns3:cad>0</ns3:cad>
          </ns3:TrackPointExtension>
        </extensions>
      </trkpt>
      <trkpt lat="44.683091975748538970947265625" lon="6.8265317380428314208984375">
        <ele>2600.199951171875</ele>
        <time>2026-08-31T07:08:22.000Z</time>
        <extensions>
          <ns3:TrackPointExtension>
            <ns3:hr>151</ns3:hr>
            <ns3:cad>0</ns3:cad>
          </ns3:TrackPointExtension>
        </extensions>
      </trkpt>
      <trkpt lat="44.683105386793613433837890625" lon="6.82652796618640422821044921875">
        <ele>2600.39990234375</ele>
        <time>2026-08-31T07:08:23.000Z</time>
        <extensions>
          <ns3:TrackPointExtension>
            <ns3:hr>151</ns3:hr>
            <ns3:cad>0</ns3:cad>
          </ns3:TrackPointExtension>
        </extensions>
      </trkpt>
      <trkpt lat="44.68311737291514873504638671875" lon="6.82652595452964305877685546875">
        <ele>2600.800048828125</ele>
        <time>2026-08-31T07:08:24.000Z</time>
        <extensions>
          <ns3:TrackPointExtension>
            <ns3:hr>152</ns3:hr>
            <ns3:cad>0</ns3:cad>
          </ns3:TrackPointExtension>
        </extensions>
      </trkpt>
      <trkpt lat="44.68312986195087432861328125" lon="6.82652176357805728912353515625">
        <ele>2601</ele>
        <time>2026-08-31T07:08:25.000Z</time>
        <extensions>
          <ns3:TrackPointExtension>
            <ns3:hr>154</ns3:hr>
            <ns3:cad>0</ns3:cad>
          </ns3:TrackPointExtension>
        </extensions>
      </trkpt>
      <trkpt lat="44.68313120305538177490234375" lon="6.82651539333164691925048828125">
        <ele>2601.199951171875</ele>
        <time>2026-08-31T07:08:26.000Z</time>
        <extensions>
          <ns3:TrackPointExtension>
            <ns3:hr>156</ns3:hr>
            <ns3:cad>0</ns3:cad>
          </ns3:TrackPointExtension>
        </extensions>
      </trkpt>
      <trkpt lat="44.6831427700817584991455078125" lon="6.82651271112263202667236328125">
        <ele>2601.39990234375</ele>
        <time>2026-08-31T07:08:27.000Z</time>
        <extensions>
          <ns3:TrackPointExtension>
            <ns3:hr>156</ns3:hr>
            <ns3:cad>0</ns3:cad>
          </ns3:TrackPointExtension>
        </extensions>
      </trkpt>
      <trkpt lat="44.68315123580396175384521484375" lon="6.82650717906653881072998046875">
        <ele>2601.60009765625</ele>
        <time>2026-08-31T07:08:28.000Z</time>
        <extensions>
          <ns3:TrackPointExtension>
            <ns3:hr>157</ns3:hr>
            <ns3:cad>0</ns3:cad>
          </ns3:TrackPointExtension>
        </extensions>
      </trkpt>
      <trkpt lat="44.6831638924777507781982421875" lon="6.8265047483146190643310546875">
        <ele>2601.800048828125</ele>
        <time>2026-08-31T07:08:29.000Z</time>
        <extensions>
          <ns3:TrackPointExtension>
            <ns3:hr>158</ns3:hr>
            <ns3:cad>0</ns3:cad>
          </ns3:TrackPointExtension>
        </extensions>
      </trkpt>
      <trkpt lat="44.6831734478473663330078125" lon="6.82650416158139705657958984375">
        <ele>2602</ele>
        <time>2026-08-31T07:08:30.000Z</time>
        <extensions>
          <ns3:TrackPointExtension>
            <ns3:hr>158</ns3:hr>
            <ns3:cad>0</ns3:cad>
          </ns3:TrackPointExtension>
        </extensions>
      </trkpt>
      <trkpt lat="44.68318912200629711151123046875" lon="6.82650801725685596466064453125">
        <ele>2602.199951171875</ele>
        <time>2026-08-31T07:08:31.000Z</time>
        <extensions>
          <ns3:TrackPointExtension>
            <ns3:hr>158</ns3:hr>
            <ns3:cad>0</ns3:cad>
          </ns3:TrackPointExtension>
        </extensions>
      </trkpt>
      <trkpt lat="44.68320068903267383575439453125" lon="6.8265077657997608184814453125">
        <ele>2602.39990234375</ele>
        <time>2026-08-31T07:08:32.000Z</time>
        <extensions>
          <ns3:TrackPointExtension>
            <ns3:hr>158</ns3:hr>
            <ns3:cad>0</ns3:cad>
          </ns3:TrackPointExtension>
        </extensions>
      </trkpt>
      <trkpt lat="44.6832158602774143218994140625" lon="6.82649812661111354827880859375">
        <ele>2602.39990234375</ele>
        <time>2026-08-31T07:08:33.000Z</time>
        <extensions>
          <ns3:TrackPointExtension>
            <ns3:hr>158</ns3:hr>
            <ns3:cad>0</ns3:cad>
          </ns3:TrackPointExtension>
        </extensions>
      </trkpt>
      <trkpt lat="44.6832225657999515533447265625" lon="6.8264933489263057708740234375">
        <ele>2602.60009765625</ele>
        <time>2026-08-31T07:08:34.000Z</time>
        <extensions>
          <ns3:TrackPointExtension>
            <ns3:hr>158</ns3:hr>
            <ns3:cad>0</ns3:cad>
          </ns3:TrackPointExtension>
        </extensions>
      </trkpt>
      <trkpt lat="44.6832339651882648468017578125" lon="6.82648773305118083953857421875">
        <ele>2602.800048828125</ele>
        <time>2026-08-31T07:08:35.000Z</time>
        <extensions>
          <ns3:TrackPointExtension>
            <ns3:hr>158</ns3:hr>
            <ns3:cad>0</ns3:cad>
          </ns3:TrackPointExtension>
        </extensions>
      </trkpt>
      <trkpt lat="44.68324310146272182464599609375" lon="6.82648924179375171661376953125">
        <ele>2602.800048828125</ele>
        <time>2026-08-31T07:08:36.000Z</time>
        <extensions>
          <ns3:TrackPointExtension>
            <ns3:hr>158</ns3:hr>
            <ns3:cad>58</ns3:cad>
          </ns3:TrackPointExtension>
        </extensions>
      </trkpt>
      <trkpt lat="44.6832458674907684326171875" lon="6.826490499079227447509765625">
        <ele>2603.199951171875</ele>
        <time>2026-08-31T07:08:37.000Z</time>
        <extensions>
          <ns3:TrackPointExtension>
            <ns3:hr>158</ns3:hr>
            <ns3:cad>58</ns3:cad>
          </ns3:TrackPointExtension>
        </extensions>
      </trkpt>
      <trkpt lat="44.68325592577457427978515625" lon="6.82649108581244945526123046875">
        <ele>2603.199951171875</ele>
        <time>2026-08-31T07:08:38.000Z</time>
        <extensions>
          <ns3:TrackPointExtension>
            <ns3:hr>157</ns3:hr>
            <ns3:cad>58</ns3:cad>
          </ns3:TrackPointExtension>
        </extensions>
      </trkpt>
      <trkpt lat="44.6832641400396823883056640625" lon="6.8264901638031005859375">
        <ele>2603.39990234375</ele>
        <time>2026-08-31T07:08:39.000Z</time>
        <extensions>
          <ns3:TrackPointExtension>
            <ns3:hr>157</ns3:hr>
            <ns3:cad>58</ns3:cad>
          </ns3:TrackPointExtension>
        </extensions>
      </trkpt>
      <trkpt lat="44.68327294103801250457763671875" lon="6.82648940943181514739990234375">
        <ele>2603.60009765625</ele>
        <time>2026-08-31T07:08:40.000Z</time>
        <extensions>
          <ns3:TrackPointExtension>
            <ns3:hr>157</ns3:hr>
            <ns3:cad>53</ns3:cad>
          </ns3:TrackPointExtension>
        </extensions>
      </trkpt>
      <trkpt lat="44.6832822449505329132080078125" lon="6.8264869786798954010009765625">
        <ele>2603.800048828125</ele>
        <time>2026-08-31T07:08:41.000Z</time>
        <extensions>
          <ns3:TrackPointExtension>
            <ns3:hr>157</ns3:hr>
            <ns3:cad>0</ns3:cad>
          </ns3:TrackPointExtension>
        </extensions>
      </trkpt>
      <trkpt lat="44.68329221941530704498291015625" lon="6.82648387737572193145751953125">
        <ele>2603.800048828125</ele>
        <time>2026-08-31T07:08:42.000Z</time>
        <extensions>
          <ns3:TrackPointExtension>
            <ns3:hr>157</ns3:hr>
            <ns3:cad>0</ns3:cad>
          </ns3:TrackPointExtension>
        </extensions>
      </trkpt>
      <trkpt lat="44.68330043368041515350341796875" lon="6.8264802731573581695556640625">
        <ele>2604.199951171875</ele>
        <time>2026-08-31T07:08:43.000Z</time>
        <extensions>
          <ns3:TrackPointExtension>
            <ns3:hr>157</ns3:hr>
            <ns3:cad>0</ns3:cad>
          </ns3:TrackPointExtension>
        </extensions>
      </trkpt>
      <trkpt lat="44.68331049196422100067138671875" lon="6.826475746929645538330078125">
        <ele>2604.39990234375</ele>
        <time>2026-08-31T07:08:44.000Z</time>
        <extensions>
          <ns3:TrackPointExtension>
            <ns3:hr>157</ns3:hr>
            <ns3:cad>0</ns3:cad>
          </ns3:TrackPointExtension>
        </extensions>
      </trkpt>
      <trkpt lat="44.683319963514804840087890625" lon="6.82647063396871089935302734375">
        <ele>2604.800048828125</ele>
        <time>2026-08-31T07:08:45.000Z</time>
        <extensions>
          <ns3:TrackPointExtension>
            <ns3:hr>156</ns3:hr>
            <ns3:cad>0</ns3:cad>
          </ns3:TrackPointExtension>
        </extensions>
      </trkpt>
      <trkpt lat="44.68332658521831035614013671875" lon="6.82646795175969600677490234375">
        <ele>2605.199951171875</ele>
        <time>2026-08-31T07:08:46.000Z</time>
        <extensions>
          <ns3:TrackPointExtension>
            <ns3:hr>157</ns3:hr>
            <ns3:cad>0</ns3:cad>
          </ns3:TrackPointExtension>
        </extensions>
      </trkpt>
      <trkpt lat="44.68333639204502105712890625" lon="6.82646141387522220611572265625">
        <ele>2605.39990234375</ele>
        <time>2026-08-31T07:08:47.000Z</time>
        <extensions>
          <ns3:TrackPointExtension>
            <ns3:hr>157</ns3:hr>
            <ns3:cad>56</ns3:cad>
          </ns3:TrackPointExtension>
        </extensions>
      </trkpt>
      <trkpt lat="44.68334133736789226531982421875" lon="6.82645772583782672882080078125">
        <ele>2605.39990234375</ele>
        <time>2026-08-31T07:08:48.000Z</time>
        <extensions>
          <ns3:TrackPointExtension>
            <ns3:hr>157</ns3:hr>
            <ns3:cad>56</ns3:cad>
          </ns3:TrackPointExtension>
        </extensions>
      </trkpt>
      <trkpt lat="44.68334619887173175811767578125" lon="6.8264534510672092437744140625">
        <ele>2605.60009765625</ele>
        <time>2026-08-31T07:08:49.000Z</time>
        <extensions>
          <ns3:TrackPointExtension>
            <ns3:hr>157</ns3:hr>
            <ns3:cad>56</ns3:cad>
          </ns3:TrackPointExtension>
        </extensions>
      </trkpt>
      <trkpt lat="44.683350808918476104736328125" lon="6.82644615881145000457763671875">
        <ele>2605.800048828125</ele>
        <time>2026-08-31T07:08:50.000Z</time>
        <extensions>
          <ns3:TrackPointExtension>
            <ns3:hr>157</ns3:hr>
            <ns3:cad>0</ns3:cad>
          </ns3:TrackPointExtension>
        </extensions>
      </trkpt>
      <trkpt lat="44.6833610348403453826904296875" lon="6.82643987238407135009765625">
        <ele>2606</ele>
        <time>2026-08-31T07:08:51.000Z</time>
        <extensions>
          <ns3:TrackPointExtension>
            <ns3:hr>157</ns3:hr>
            <ns3:cad>0</ns3:cad>
          </ns3:TrackPointExtension>
        </extensions>
      </trkpt>
      <trkpt lat="44.6833690814673900604248046875" lon="6.82643341831862926483154296875">
        <ele>2606.199951171875</ele>
        <time>2026-08-31T07:08:52.000Z</time>
        <extensions>
          <ns3:TrackPointExtension>
            <ns3:hr>158</ns3:hr>
            <ns3:cad>0</ns3:cad>
          </ns3:TrackPointExtension>
        </extensions>
      </trkpt>
      <trkpt lat="44.68337955884635448455810546875" lon="6.82642520405352115631103515625">
        <ele>2606.60009765625</ele>
        <time>2026-08-31T07:08:53.000Z</time>
        <extensions>
          <ns3:TrackPointExtension>
            <ns3:hr>158</ns3:hr>
            <ns3:cad>0</ns3:cad>
          </ns3:TrackPointExtension>
        </extensions>
      </trkpt>
      <trkpt lat="44.68338928185403347015380859375" lon="6.826418749988079071044921875">
        <ele>2606.800048828125</ele>
        <time>2026-08-31T07:08:54.000Z</time>
        <extensions>
          <ns3:TrackPointExtension>
            <ns3:hr>159</ns3:hr>
            <ns3:cad>0</ns3:cad>
          </ns3:TrackPointExtension>
        </extensions>
      </trkpt>
      <trkpt lat="44.68339900486171245574951171875" lon="6.82641179300844669342041015625">
        <ele>2607</ele>
        <time>2026-08-31T07:08:55.000Z</time>
        <extensions>
          <ns3:TrackPointExtension>
            <ns3:hr>159</ns3:hr>
            <ns3:cad>0</ns3:cad>
          </ns3:TrackPointExtension>
        </extensions>
      </trkpt>
      <trkpt lat="44.68340856023132801055908203125" lon="6.82640408165752887725830078125">
        <ele>2607.199951171875</ele>
        <time>2026-08-31T07:08:56.000Z</time>
        <extensions>
          <ns3:TrackPointExtension>
            <ns3:hr>160</ns3:hr>
            <ns3:cad>0</ns3:cad>
          </ns3:TrackPointExtension>
        </extensions>
      </trkpt>
      <trkpt lat="44.68341476283967494964599609375" lon="6.8263991363346576690673828125">
        <ele>2607.60009765625</ele>
        <time>2026-08-31T07:08:57.000Z</time>
        <extensions>
          <ns3:TrackPointExtension>
            <ns3:hr>161</ns3:hr>
            <ns3:cad>0</ns3:cad>
          </ns3:TrackPointExtension>
        </extensions>
      </trkpt>
      <trkpt lat="44.683424569666385650634765625" lon="6.82639586739242076873779296875">
        <ele>2608</ele>
        <time>2026-08-31T07:08:58.000Z</time>
        <extensions>
          <ns3:TrackPointExtension>
            <ns3:hr>161</ns3:hr>
            <ns3:cad>0</ns3:cad>
          </ns3:TrackPointExtension>
        </extensions>
      </trkpt>
      <trkpt lat="44.68342951498925685882568359375" lon="6.8264175765216350555419921875">
        <ele>2608.60009765625</ele>
        <time>2026-08-31T07:08:59.000Z</time>
        <extensions>
          <ns3:TrackPointExtension>
            <ns3:hr>161</ns3:hr>
            <ns3:cad>77</ns3:cad>
          </ns3:TrackPointExtension>
        </extensions>
      </trkpt>
      <trkpt lat="44.6834341250360012054443359375" lon="6.82643157429993152618408203125">
        <ele>2609</ele>
        <time>2026-08-31T07:09:00.000Z</time>
        <extensions>
          <ns3:TrackPointExtension>
            <ns3:hr>160</ns3:hr>
            <ns3:cad>77</ns3:cad>
          </ns3:TrackPointExtension>
        </extensions>
      </trkpt>
      <trkpt lat="44.68343722634017467498779296875" lon="6.8264430575072765350341796875">
        <ele>2609.39990234375</ele>
        <time>2026-08-31T07:09:01.000Z</time>
        <extensions>
          <ns3:TrackPointExtension>
            <ns3:hr>160</ns3:hr>
            <ns3:cad>77</ns3:cad>
          </ns3:TrackPointExtension>
        </extensions>
      </trkpt>
      <trkpt lat="44.6834381483495235443115234375" lon="6.82645202614367008209228515625">
        <ele>2609.800048828125</ele>
        <time>2026-08-31T07:09:02.000Z</time>
        <extensions>
          <ns3:TrackPointExtension>
            <ns3:hr>161</ns3:hr>
            <ns3:cad>0</ns3:cad>
          </ns3:TrackPointExtension>
        </extensions>
      </trkpt>
      <trkpt lat="44.68343697488307952880859375" lon="6.82646241970360279083251953125">
        <ele>2610.199951171875</ele>
        <time>2026-08-31T07:09:03.000Z</time>
        <extensions>
          <ns3:TrackPointExtension>
            <ns3:hr>161</ns3:hr>
            <ns3:cad>0</ns3:cad>
          </ns3:TrackPointExtension>
        </extensions>
      </trkpt>
      <trkpt lat="44.6834317781031131744384765625" lon="6.82647339999675750732421875">
        <ele>2610.60009765625</ele>
        <time>2026-08-31T07:09:04.000Z</time>
        <extensions>
          <ns3:TrackPointExtension>
            <ns3:hr>161</ns3:hr>
            <ns3:cad>0</ns3:cad>
          </ns3:TrackPointExtension>
        </extensions>
      </trkpt>
      <trkpt lat="44.68342800624668598175048828125" lon="6.82648303918540477752685546875">
        <ele>2610.800048828125</ele>
        <time>2026-08-31T07:09:05.000Z</time>
        <extensions>
          <ns3:TrackPointExtension>
            <ns3:hr>161</ns3:hr>
            <ns3:cad>0</ns3:cad>
          </ns3:TrackPointExtension>
        </extensions>
      </trkpt>
      <trkpt lat="44.68342230655252933502197265625" lon="6.8264920078217983245849609375">
        <ele>2611</ele>
        <time>2026-08-31T07:09:06.000Z</time>
        <extensions>
          <ns3:TrackPointExtension>
            <ns3:hr>162</ns3:hr>
            <ns3:cad>0</ns3:cad>
          </ns3:TrackPointExtension>
        </extensions>
      </trkpt>
      <trkpt lat="44.68341643922030925750732421875" lon="6.82649619877338409423828125">
        <ele>2611.39990234375</ele>
        <time>2026-08-31T07:09:07.000Z</time>
        <extensions>
          <ns3:TrackPointExtension>
            <ns3:hr>163</ns3:hr>
            <ns3:cad>0</ns3:cad>
          </ns3:TrackPointExtension>
        </extensions>
      </trkpt>
      <trkpt lat="44.683410823345184326171875" lon="6.82650634087622165679931640625">
        <ele>2611.60009765625</ele>
        <time>2026-08-31T07:09:08.000Z</time>
        <extensions>
          <ns3:TrackPointExtension>
            <ns3:hr>163</ns3:hr>
            <ns3:cad>0</ns3:cad>
          </ns3:TrackPointExtension>
        </extensions>
      </trkpt>
      <trkpt lat="44.68340705148875713348388671875" lon="6.8265178240835666656494140625">
        <ele>2611.800048828125</ele>
        <time>2026-08-31T07:09:09.000Z</time>
        <extensions>
          <ns3:TrackPointExtension>
            <ns3:hr>163</ns3:hr>
            <ns3:cad>0</ns3:cad>
          </ns3:TrackPointExtension>
        </extensions>
      </trkpt>
      <trkpt lat="44.68340202234685420989990234375" lon="6.8265275470912456512451171875">
        <ele>2612</ele>
        <time>2026-08-31T07:09:10.000Z</time>
        <extensions>
          <ns3:TrackPointExtension>
            <ns3:hr>164</ns3:hr>
            <ns3:cad>0</ns3:cad>
          </ns3:TrackPointExtension>
        </extensions>
      </trkpt>
      <trkpt lat="44.68340084888041019439697265625" lon="6.82653240859508514404296875">
        <ele>2612</ele>
        <time>2026-08-31T07:09:11.000Z</time>
        <extensions>
          <ns3:TrackPointExtension>
            <ns3:hr>164</ns3:hr>
            <ns3:cad>0</ns3:cad>
          </ns3:TrackPointExtension>
        </extensions>
      </trkpt>
      <trkpt lat="44.68339716084301471710205078125" lon="6.82654623873531818389892578125">
        <ele>2612.199951171875</ele>
        <time>2026-08-31T07:09:12.000Z</time>
        <extensions>
          <ns3:TrackPointExtension>
            <ns3:hr>164</ns3:hr>
            <ns3:cad>0</ns3:cad>
          </ns3:TrackPointExtension>
        </extensions>
      </trkpt>
      <trkpt lat="44.68339313752949237823486328125" lon="6.82655386626720428466796875">
        <ele>2612.199951171875</ele>
        <time>2026-08-31T07:09:13.000Z</time>
        <extensions>
          <ns3:TrackPointExtension>
            <ns3:hr>165</ns3:hr>
            <ns3:cad>0</ns3:cad>
          </ns3:TrackPointExtension>
        </extensions>
      </trkpt>
      <trkpt lat="44.68338727019727230072021484375" lon="6.8265585601329803466796875">
        <ele>2612.39990234375</ele>
        <time>2026-08-31T07:09:14.000Z</time>
        <extensions>
          <ns3:TrackPointExtension>
            <ns3:hr>165</ns3:hr>
            <ns3:cad>0</ns3:cad>
          </ns3:TrackPointExtension>
        </extensions>
      </trkpt>
      <trkpt lat="44.68338408507406711578369140625" lon="6.8265704624354839324951171875">
        <ele>2612.60009765625</ele>
        <time>2026-08-31T07:09:15.000Z</time>
        <extensions>
          <ns3:TrackPointExtension>
            <ns3:hr>165</ns3:hr>
            <ns3:cad>53</ns3:cad>
          </ns3:TrackPointExtension>
        </extensions>
      </trkpt>
      <trkpt lat="44.68338291160762310028076171875" lon="6.82658202946186065673828125">
        <ele>2612.800048828125</ele>
        <time>2026-08-31T07:09:16.000Z</time>
        <extensions>
          <ns3:TrackPointExtension>
            <ns3:hr>166</ns3:hr>
            <ns3:cad>53</ns3:cad>
          </ns3:TrackPointExtension>
        </extensions>
      </trkpt>
      <trkpt lat="44.68338056467473506927490234375" lon="6.82659451849758625030517578125">
        <ele>2612.800048828125</ele>
        <time>2026-08-31T07:09:17.000Z</time>
        <extensions>
          <ns3:TrackPointExtension>
            <ns3:hr>166</ns3:hr>
            <ns3:cad>53</ns3:cad>
          </ns3:TrackPointExtension>
        </extensions>
      </trkpt>
      <trkpt lat="44.68338064849376678466796875" lon="6.82660616934299468994140625">
        <ele>2613</ele>
        <time>2026-08-31T07:09:18.000Z</time>
        <extensions>
          <ns3:TrackPointExtension>
            <ns3:hr>166</ns3:hr>
            <ns3:cad>53</ns3:cad>
          </ns3:TrackPointExtension>
        </extensions>
      </trkpt>
      <trkpt lat="44.68338089995086193084716796875" lon="6.8266194127500057220458984375">
        <ele>2613</ele>
        <time>2026-08-31T07:09:19.000Z</time>
        <extensions>
          <ns3:TrackPointExtension>
            <ns3:hr>167</ns3:hr>
            <ns3:cad>52</ns3:cad>
          </ns3:TrackPointExtension>
        </extensions>
      </trkpt>
      <trkpt lat="44.683382324874401092529296875" lon="6.8266338296234607696533203125">
        <ele>2613.199951171875</ele>
        <time>2026-08-31T07:09:20.000Z</time>
        <extensions>
          <ns3:TrackPointExtension>
            <ns3:hr>167</ns3:hr>
            <ns3:cad>52</ns3:cad>
          </ns3:TrackPointExtension>
        </extensions>
      </trkpt>
      <trkpt lat="44.68338240869343280792236328125" lon="6.82664640247821807861328125">
        <ele>2613.199951171875</ele>
        <time>2026-08-31T07:09:21.000Z</time>
        <extensions>
          <ns3:TrackPointExtension>
            <ns3:hr>167</ns3:hr>
            <ns3:cad>52</ns3:cad>
          </ns3:TrackPointExtension>
        </extensions>
      </trkpt>
      <trkpt lat="44.68338190577924251556396484375" lon="6.82665847241878509521484375">
        <ele>2613.39990234375</ele>
        <time>2026-08-31T07:09:22.000Z</time>
        <extensions>
          <ns3:TrackPointExtension>
            <ns3:hr>168</ns3:hr>
            <ns3:cad>52</ns3:cad>
          </ns3:TrackPointExtension>
        </extensions>
      </trkpt>
      <trkpt lat="44.6833801455795764923095703125" lon="6.826667524874210357666015625">
        <ele>2613.60009765625</ele>
        <time>2026-08-31T07:09:23.000Z</time>
        <extensions>
          <ns3:TrackPointExtension>
            <ns3:hr>168</ns3:hr>
            <ns3:cad>0</ns3:cad>
          </ns3:TrackPointExtension>
        </extensions>
      </trkpt>
      <trkpt lat="44.68337905593216419219970703125" lon="6.82667917571961879730224609375">
        <ele>2613.800048828125</ele>
        <time>2026-08-31T07:09:24.000Z</time>
        <extensions>
          <ns3:TrackPointExtension>
            <ns3:hr>168</ns3:hr>
            <ns3:cad>0</ns3:cad>
          </ns3:TrackPointExtension>
        </extensions>
      </trkpt>
      <trkpt lat="44.68337955884635448455810546875" lon="6.82669258676469326019287109375">
        <ele>2614</ele>
        <time>2026-08-31T07:09:25.000Z</time>
        <extensions>
          <ns3:TrackPointExtension>
            <ns3:hr>168</ns3:hr>
            <ns3:cad>0</ns3:cad>
          </ns3:TrackPointExtension>
        </extensions>
      </trkpt>
      <trkpt lat="44.683381654322147369384765625" lon="6.82670482434332370758056640625">
        <ele>2614.199951171875</ele>
        <time>2026-08-31T07:09:26.000Z</time>
        <extensions>
          <ns3:TrackPointExtension>
            <ns3:hr>168</ns3:hr>
            <ns3:cad>0</ns3:cad>
          </ns3:TrackPointExtension>
        </extensions>
      </trkpt>
      <trkpt lat="44.68338291160762310028076171875" lon="6.8267186544835567474365234375">
        <ele>2614.39990234375</ele>
        <time>2026-08-31T07:09:27.000Z</time>
        <extensions>
          <ns3:TrackPointExtension>
            <ns3:hr>168</ns3:hr>
            <ns3:cad>52</ns3:cad>
          </ns3:TrackPointExtension>
        </extensions>
      </trkpt>
      <trkpt lat="44.6833826601505279541015625" lon="6.82672913186252117156982421875">
        <ele>2614.60009765625</ele>
        <time>2026-08-31T07:09:28.000Z</time>
        <extensions>
          <ns3:TrackPointExtension>
            <ns3:hr>168</ns3:hr>
            <ns3:cad>52</ns3:cad>
          </ns3:TrackPointExtension>
        </extensions>
      </trkpt>
      <trkpt lat="44.68338777311146259307861328125" lon="6.82673684321343898773193359375">
        <ele>2614.800048828125</ele>
        <time>2026-08-31T07:09:29.000Z</time>
        <extensions>
          <ns3:TrackPointExtension>
            <ns3:hr>168</ns3:hr>
            <ns3:cad>52</ns3:cad>
          </ns3:TrackPointExtension>
        </extensions>
      </trkpt>
      <trkpt lat="44.68339313752949237823486328125" lon="6.82674539275467395782470703125">
        <ele>2615</ele>
        <time>2026-08-31T07:09:30.000Z</time>
        <extensions>
          <ns3:TrackPointExtension>
            <ns3:hr>168</ns3:hr>
            <ns3:cad>0</ns3:cad>
          </ns3:TrackPointExtension>
        </extensions>
      </trkpt>
      <trkpt lat="44.68339967541396617889404296875" lon="6.8267551995813846588134765625">
        <ele>2615.199951171875</ele>
        <time>2026-08-31T07:09:31.000Z</time>
        <extensions>
          <ns3:TrackPointExtension>
            <ns3:hr>167</ns3:hr>
            <ns3:cad>0</ns3:cad>
          </ns3:TrackPointExtension>
        </extensions>
      </trkpt>
      <trkpt lat="44.6834066323935985565185546875" lon="6.8267622403800487518310546875">
        <ele>2615.39990234375</ele>
        <time>2026-08-31T07:09:32.000Z</time>
        <extensions>
          <ns3:TrackPointExtension>
            <ns3:hr>168</ns3:hr>
            <ns3:cad>0</ns3:cad>
          </ns3:TrackPointExtension>
        </extensions>
      </trkpt>
      <trkpt lat="44.68341576866805553436279296875" lon="6.82676835916936397552490234375">
        <ele>2615.39990234375</ele>
        <time>2026-08-31T07:09:33.000Z</time>
        <extensions>
          <ns3:TrackPointExtension>
            <ns3:hr>168</ns3:hr>
            <ns3:cad>0</ns3:cad>
          </ns3:TrackPointExtension>
        </extensions>
      </trkpt>
      <trkpt lat="44.68342431820929050445556640625" lon="6.8267706222832202911376953125">
        <ele>2615.60009765625</ele>
        <time>2026-08-31T07:09:34.000Z</time>
        <extensions>
          <ns3:TrackPointExtension>
            <ns3:hr>167</ns3:hr>
            <ns3:cad>0</ns3:cad>
          </ns3:TrackPointExtension>
        </extensions>
      </trkpt>
      <trkpt lat="44.68343018554151058197021484375" lon="6.82676919735968112945556640625">
        <ele>2615.800048828125</ele>
        <time>2026-08-31T07:09:35.000Z</time>
        <extensions>
          <ns3:TrackPointExtension>
            <ns3:hr>167</ns3:hr>
            <ns3:cad>0</ns3:cad>
          </ns3:TrackPointExtension>
        </extensions>
      </trkpt>
      <trkpt lat="44.68343605287373065948486328125" lon="6.82676500640809535980224609375">
        <ele>2615.800048828125</ele>
        <time>2026-08-31T07:09:36.000Z</time>
        <extensions>
          <ns3:TrackPointExtension>
            <ns3:hr>167</ns3:hr>
            <ns3:cad>0</ns3:cad>
          </ns3:TrackPointExtension>
        </extensions>
      </trkpt>
      <trkpt lat="44.683443345129489898681640625" lon="6.8267592228949069976806640625">
        <ele>2616</ele>
        <time>2026-08-31T07:09:37.000Z</time>
        <extensions>
          <ns3:TrackPointExtension>
            <ns3:hr>167</ns3:hr>
            <ns3:cad>0</ns3:cad>
          </ns3:TrackPointExtension>
        </extensions>
      </trkpt>
      <trkpt lat="44.68345231376588344573974609375" lon="6.826753355562686920166015625">
        <ele>2616.199951171875</ele>
        <time>2026-08-31T07:09:38.000Z</time>
        <extensions>
          <ns3:TrackPointExtension>
            <ns3:hr>168</ns3:hr>
            <ns3:cad>0</ns3:cad>
          </ns3:TrackPointExtension>
        </extensions>
      </trkpt>
      <trkpt lat="44.6834589354693889617919921875" lon="6.82674673385918140411376953125">
        <ele>2616.199951171875</ele>
        <time>2026-08-31T07:09:39.000Z</time>
        <extensions>
          <ns3:TrackPointExtension>
            <ns3:hr>168</ns3:hr>
            <ns3:cad>0</ns3:cad>
          </ns3:TrackPointExtension>
        </extensions>
      </trkpt>
      <trkpt lat="44.6834658086299896240234375" lon="6.8267441354691982269287109375">
        <ele>2616.60009765625</ele>
        <time>2026-08-31T07:09:40.000Z</time>
        <extensions>
          <ns3:TrackPointExtension>
            <ns3:hr>168</ns3:hr>
            <ns3:cad>0</ns3:cad>
          </ns3:TrackPointExtension>
        </extensions>
      </trkpt>
      <trkpt lat="44.68346958048641681671142578125" lon="6.82673902250826358795166015625">
        <ele>2616.800048828125</ele>
        <time>2026-08-31T07:09:41.000Z</time>
        <extensions>
          <ns3:TrackPointExtension>
            <ns3:hr>168</ns3:hr>
            <ns3:cad>0</ns3:cad>
          </ns3:TrackPointExtension>
        </extensions>
      </trkpt>
      <trkpt lat="44.683478213846683502197265625" lon="6.82673114351928234100341796875">
        <ele>2617</ele>
        <time>2026-08-31T07:09:42.000Z</time>
        <extensions>
          <ns3:TrackPointExtension>
            <ns3:hr>167</ns3:hr>
            <ns3:cad>0</ns3:cad>
          </ns3:TrackPointExtension>
        </extensions>
      </trkpt>
      <trkpt lat="44.68348366208374500274658203125" lon="6.8267277069389820098876953125">
        <ele>2617.199951171875</ele>
        <time>2026-08-31T07:09:43.000Z</time>
        <extensions>
          <ns3:TrackPointExtension>
            <ns3:hr>167</ns3:hr>
            <ns3:cad>0</ns3:cad>
          </ns3:TrackPointExtension>
        </extensions>
      </trkpt>
      <trkpt lat="44.68349673785269260406494140625" lon="6.82672510854899883270263671875">
        <ele>2617.60009765625</ele>
        <time>2026-08-31T07:09:44.000Z</time>
        <extensions>
          <ns3:TrackPointExtension>
            <ns3:hr>167</ns3:hr>
            <ns3:cad>0</ns3:cad>
          </ns3:TrackPointExtension>
        </extensions>
      </trkpt>
      <trkpt lat="44.6835112385451793670654296875" lon="6.826719827950000762939453125">
        <ele>2617.800048828125</ele>
        <time>2026-08-31T07:09:45.000Z</time>
        <extensions>
          <ns3:TrackPointExtension>
            <ns3:hr>167</ns3:hr>
            <ns3:cad>0</ns3:cad>
          </ns3:TrackPointExtension>
        </extensions>
      </trkpt>
      <trkpt lat="44.6835209615528583526611328125" lon="6.826718486845493316650390625">
        <ele>2618</ele>
        <time>2026-08-31T07:09:46.000Z</time>
        <extensions>
          <ns3:TrackPointExtension>
            <ns3:hr>167</ns3:hr>
            <ns3:cad>0</ns3:cad>
          </ns3:TrackPointExtension>
        </extensions>
      </trkpt>
      <trkpt lat="44.6835315227508544921875" lon="6.8267139606177806854248046875">
        <ele>2618</ele>
        <time>2026-08-31T07:09:47.000Z</time>
        <extensions>
          <ns3:TrackPointExtension>
            <ns3:hr>168</ns3:hr>
            <ns3:cad>0</ns3:cad>
          </ns3:TrackPointExtension>
        </extensions>
      </trkpt>
      <trkpt lat="44.68354015611112117767333984375" lon="6.82670767419040203094482421875">
        <ele>2618.199951171875</ele>
        <time>2026-08-31T07:09:48.000Z</time>
        <extensions>
          <ns3:TrackPointExtension>
            <ns3:hr>167</ns3:hr>
            <ns3:cad>0</ns3:cad>
          </ns3:TrackPointExtension>
        </extensions>
      </trkpt>
      <trkpt lat="44.6835451014339923858642578125" lon="6.82670432142913341522216796875">
        <ele>2618.39990234375</ele>
        <time>2026-08-31T07:09:49.000Z</time>
        <extensions>
          <ns3:TrackPointExtension>
            <ns3:hr>167</ns3:hr>
            <ns3:cad>0</ns3:cad>
          </ns3:TrackPointExtension>
        </extensions>
      </trkpt>
      <trkpt lat="44.6835489571094512939453125" lon="6.82669736444950103759765625">
        <ele>2618.60009765625</ele>
        <time>2026-08-31T07:09:50.000Z</time>
        <extensions>
          <ns3:TrackPointExtension>
            <ns3:hr>167</ns3:hr>
            <ns3:cad>0</ns3:cad>
          </ns3:TrackPointExtension>
        </extensions>
      </trkpt>
      <trkpt lat="44.683558680117130279541015625" lon="6.8266834504902362823486328125">
        <ele>2618.800048828125</ele>
        <time>2026-08-31T07:09:51.000Z</time>
        <extensions>
          <ns3:TrackPointExtension>
            <ns3:hr>167</ns3:hr>
            <ns3:cad>0</ns3:cad>
          </ns3:TrackPointExtension>
        </extensions>
      </trkpt>
      <trkpt lat="44.68356748111546039581298828125" lon="6.82667347602546215057373046875">
        <ele>2619</ele>
        <time>2026-08-31T07:09:52.000Z</time>
        <extensions>
          <ns3:TrackPointExtension>
            <ns3:hr>166</ns3:hr>
            <ns3:cad>0</ns3:cad>
          </ns3:TrackPointExtension>
        </extensions>
      </trkpt>
      <trkpt lat="44.6835749410092830657958984375" lon="6.826658807694911956787109375">
        <ele>2619.199951171875</ele>
        <time>2026-08-31T07:09:53.000Z</time>
        <extensions>
          <ns3:TrackPointExtension>
            <ns3:hr>165</ns3:hr>
            <ns3:cad>0</ns3:cad>
          </ns3:TrackPointExtension>
        </extensions>
      </trkpt>
      <trkpt lat="44.68358156271278858184814453125" lon="6.8266509287059307098388671875">
        <ele>2619.39990234375</ele>
        <time>2026-08-31T07:09:54.000Z</time>
        <extensions>
          <ns3:TrackPointExtension>
            <ns3:hr>164</ns3:hr>
            <ns3:cad>0</ns3:cad>
          </ns3:TrackPointExtension>
        </extensions>
      </trkpt>
      <trkpt lat="44.6835943870246410369873046875" lon="6.82664028368890285491943359375">
        <ele>2619.800048828125</ele>
        <time>2026-08-31T07:09:55.000Z</time>
        <extensions>
          <ns3:TrackPointExtension>
            <ns3:hr>163</ns3:hr>
            <ns3:cad>0</ns3:cad>
          </ns3:TrackPointExtension>
        </extensions>
      </trkpt>
      <trkpt lat="44.683600924909114837646484375" lon="6.8266351707279682159423828125">
        <ele>2620.199951171875</ele>
        <time>2026-08-31T07:09:56.000Z</time>
        <extensions>
          <ns3:TrackPointExtension>
            <ns3:hr>163</ns3:hr>
            <ns3:cad>0</ns3:cad>
          </ns3:TrackPointExtension>
        </extensions>
      </trkpt>
      <trkpt lat="44.68360989354550838470458984375" lon="6.8266309797763824462890625">
        <ele>2620.39990234375</ele>
        <time>2026-08-31T07:09:57.000Z</time>
        <extensions>
          <ns3:TrackPointExtension>
            <ns3:hr>163</ns3:hr>
            <ns3:cad>0</ns3:cad>
          </ns3:TrackPointExtension>
        </extensions>
      </trkpt>
      <trkpt lat="44.6836128272116184234619140625" lon="6.8266309797763824462890625">
        <ele>2620.60009765625</ele>
        <time>2026-08-31T07:09:58.000Z</time>
        <extensions>
          <ns3:TrackPointExtension>
            <ns3:hr>162</ns3:hr>
            <ns3:cad>54</ns3:cad>
          </ns3:TrackPointExtension>
        </extensions>
      </trkpt>
      <trkpt lat="44.68362095765769481658935546875" lon="6.82661832310259342193603515625">
        <ele>2620.800048828125</ele>
        <time>2026-08-31T07:09:59.000Z</time>
        <extensions>
          <ns3:TrackPointExtension>
            <ns3:hr>162</ns3:hr>
            <ns3:cad>54</ns3:cad>
          </ns3:TrackPointExtension>
        </extensions>
      </trkpt>
      <trkpt lat="44.68362716026604175567626953125" lon="6.8266103602945804595947265625">
        <ele>2621</ele>
        <time>2026-08-31T07:10:00.000Z</time>
        <extensions>
          <ns3:TrackPointExtension>
            <ns3:hr>162</ns3:hr>
            <ns3:cad>52</ns3:cad>
          </ns3:TrackPointExtension>
        </extensions>
      </trkpt>
      <trkpt lat="44.6836342848837375640869140625" lon="6.826603822410106658935546875">
        <ele>2621.199951171875</ele>
        <time>2026-08-31T07:10:01.000Z</time>
        <extensions>
          <ns3:TrackPointExtension>
            <ns3:hr>162</ns3:hr>
            <ns3:cad>52</ns3:cad>
          </ns3:TrackPointExtension>
        </extensions>
      </trkpt>
      <trkpt lat="44.68364375643432140350341796875" lon="6.82659653015434741973876953125">
        <ele>2621.39990234375</ele>
        <time>2026-08-31T07:10:02.000Z</time>
        <extensions>
          <ns3:TrackPointExtension>
            <ns3:hr>162</ns3:hr>
            <ns3:cad>52</ns3:cad>
          </ns3:TrackPointExtension>
        </extensions>
      </trkpt>
      <trkpt lat="44.68365331180393695831298828125" lon="6.82658982463181018829345703125">
        <ele>2621.60009765625</ele>
        <time>2026-08-31T07:10:03.000Z</time>
        <extensions>
          <ns3:TrackPointExtension>
            <ns3:hr>161</ns3:hr>
            <ns3:cad>52</ns3:cad>
          </ns3:TrackPointExtension>
        </extensions>
      </trkpt>
      <trkpt lat="44.68366119079291820526123046875" lon="6.8265848793089389801025390625">
        <ele>2622</ele>
        <time>2026-08-31T07:10:04.000Z</time>
        <extensions>
          <ns3:TrackPointExtension>
            <ns3:hr>161</ns3:hr>
            <ns3:cad>52</ns3:cad>
          </ns3:TrackPointExtension>
        </extensions>
      </trkpt>
      <trkpt lat="44.68366689048707485198974609375" lon="6.8265818618237972259521484375">
        <ele>2622.199951171875</ele>
        <time>2026-08-31T07:10:05.000Z</time>
        <extensions>
          <ns3:TrackPointExtension>
            <ns3:hr>161</ns3:hr>
            <ns3:cad>0</ns3:cad>
          </ns3:TrackPointExtension>
        </extensions>
      </trkpt>
      <trkpt lat="44.6836777031421661376953125" lon="6.826583705842494964599609375">
        <ele>2622.39990234375</ele>
        <time>2026-08-31T07:10:06.000Z</time>
        <extensions>
          <ns3:TrackPointExtension>
            <ns3:hr>161</ns3:hr>
            <ns3:cad>0</ns3:cad>
          </ns3:TrackPointExtension>
        </extensions>
      </trkpt>
      <trkpt lat="44.68368197791278362274169921875" lon="6.82658378966152667999267578125">
        <ele>2622.800048828125</ele>
        <time>2026-08-31T07:10:07.000Z</time>
        <extensions>
          <ns3:TrackPointExtension>
            <ns3:hr>162</ns3:hr>
            <ns3:cad>52</ns3:cad>
          </ns3:TrackPointExtension>
        </extensions>
      </trkpt>
      <trkpt lat="44.6836906112730503082275390625" lon="6.82658135890960693359375">
        <ele>2623</ele>
        <time>2026-08-31T07:10:08.000Z</time>
        <extensions>
          <ns3:TrackPointExtension>
            <ns3:hr>161</ns3:hr>
            <ns3:cad>52</ns3:cad>
          </ns3:TrackPointExtension>
        </extensions>
      </trkpt>
      <trkpt lat="44.68369983136653900146484375" lon="6.826577000319957733154296875">
        <ele>2623</ele>
        <time>2026-08-31T07:10:09.000Z</time>
        <extensions>
          <ns3:TrackPointExtension>
            <ns3:hr>161</ns3:hr>
            <ns3:cad>52</ns3:cad>
          </ns3:TrackPointExtension>
        </extensions>
      </trkpt>
      <trkpt lat="44.68370762653648853302001953125" lon="6.826570294797420501708984375">
        <ele>2623</ele>
        <time>2026-08-31T07:10:10.000Z</time>
        <extensions>
          <ns3:TrackPointExtension>
            <ns3:hr>161</ns3:hr>
            <ns3:cad>52</ns3:cad>
          </ns3:TrackPointExtension>
        </extensions>
      </trkpt>
      <trkpt lat="44.6837137453258037567138671875" lon="6.8265630863606929779052734375">
        <ele>2623</ele>
        <time>2026-08-31T07:10:11.000Z</time>
        <extensions>
          <ns3:TrackPointExtension>
            <ns3:hr>162</ns3:hr>
            <ns3:cad>0</ns3:cad>
          </ns3:TrackPointExtension>
        </extensions>
      </trkpt>
      <trkpt lat="44.68372154049575328826904296875" lon="6.82655478827655315399169921875">
        <ele>2623</ele>
        <time>2026-08-31T07:10:12.000Z</time>
        <extensions>
          <ns3:TrackPointExtension>
            <ns3:hr>161</ns3:hr>
            <ns3:cad>0</ns3:cad>
          </ns3:TrackPointExtension>
        </extensions>
      </trkpt>
      <trkpt lat="44.68372992239892482757568359375" lon="6.82654506526887416839599609375">
        <ele>2622.800048828125</ele>
        <time>2026-08-31T07:10:13.000Z</time>
        <extensions>
          <ns3:TrackPointExtension>
            <ns3:hr>161</ns3:hr>
            <ns3:cad>0</ns3:cad>
          </ns3:TrackPointExtension>
        </extensions>
      </trkpt>
      <trkpt lat="44.68373897485435009002685546875" lon="6.826535761356353759765625">
        <ele>2623</ele>
        <time>2026-08-31T07:10:14.000Z</time>
        <extensions>
          <ns3:TrackPointExtension>
            <ns3:hr>161</ns3:hr>
            <ns3:cad>0</ns3:cad>
          </ns3:TrackPointExtension>
        </extensions>
      </trkpt>
      <trkpt lat="44.6837476082146167755126953125" lon="6.82652846910059452056884765625">
        <ele>2623</ele>
        <time>2026-08-31T07:10:15.000Z</time>
        <extensions>
          <ns3:TrackPointExtension>
            <ns3:hr>161</ns3:hr>
            <ns3:cad>0</ns3:cad>
          </ns3:TrackPointExtension>
        </extensions>
      </trkpt>
      <trkpt lat="44.6837533079087734222412109375" lon="6.826522685587406158447265625">
        <ele>2623.39990234375</ele>
        <time>2026-08-31T07:10:16.000Z</time>
        <extensions>
          <ns3:TrackPointExtension>
            <ns3:hr>160</ns3:hr>
            <ns3:cad>0</ns3:cad>
          </ns3:TrackPointExtension>
        </extensions>
      </trkpt>
      <trkpt lat="44.68376018106937408447265625" lon="6.826516650617122650146484375">
        <ele>2623.60009765625</ele>
        <time>2026-08-31T07:10:17.000Z</time>
        <extensions>
          <ns3:TrackPointExtension>
            <ns3:hr>160</ns3:hr>
            <ns3:cad>0</ns3:cad>
          </ns3:TrackPointExtension>
        </extensions>
      </trkpt>
      <trkpt lat="44.68376898206770420074462890625" lon="6.82651036418974399566650390625">
        <ele>2624</ele>
        <time>2026-08-31T07:10:18.000Z</time>
        <extensions>
          <ns3:TrackPointExtension>
            <ns3:hr>159</ns3:hr>
            <ns3:cad>0</ns3:cad>
          </ns3:TrackPointExtension>
        </extensions>
      </trkpt>
      <trkpt lat="44.68377551995217800140380859375" lon="6.82650449685752391815185546875">
        <ele>2624.199951171875</ele>
        <time>2026-08-31T07:10:19.000Z</time>
        <extensions>
          <ns3:TrackPointExtension>
            <ns3:hr>159</ns3:hr>
            <ns3:cad>0</ns3:cad>
          </ns3:TrackPointExtension>
        </extensions>
      </trkpt>
      <trkpt lat="44.683785997331142425537109375" lon="6.82649460621178150177001953125">
        <ele>2624.39990234375</ele>
        <time>2026-08-31T07:10:20.000Z</time>
        <extensions>
          <ns3:TrackPointExtension>
            <ns3:hr>158</ns3:hr>
            <ns3:cad>0</ns3:cad>
          </ns3:TrackPointExtension>
        </extensions>
      </trkpt>
      <trkpt lat="44.68379060737788677215576171875" lon="6.82649276219308376312255859375">
        <ele>2624.60009765625</ele>
        <time>2026-08-31T07:10:21.000Z</time>
        <extensions>
          <ns3:TrackPointExtension>
            <ns3:hr>158</ns3:hr>
            <ns3:cad>0</ns3:cad>
          </ns3:TrackPointExtension>
        </extensions>
      </trkpt>
      <trkpt lat="44.68380318023264408111572265625" lon="6.8264856375753879547119140625">
        <ele>2624.800048828125</ele>
        <time>2026-08-31T07:10:22.000Z</time>
        <extensions>
          <ns3:TrackPointExtension>
            <ns3:hr>158</ns3:hr>
            <ns3:cad>0</ns3:cad>
          </ns3:TrackPointExtension>
        </extensions>
      </trkpt>
      <trkpt lat="44.68381139449775218963623046875" lon="6.82647717185318470001220703125">
        <ele>2625</ele>
        <time>2026-08-31T07:10:23.000Z</time>
        <extensions>
          <ns3:TrackPointExtension>
            <ns3:hr>157</ns3:hr>
            <ns3:cad>0</ns3:cad>
          </ns3:TrackPointExtension>
        </extensions>
      </trkpt>
      <trkpt lat="44.6838180162012577056884765625" lon="6.82646376080811023712158203125">
        <ele>2625.199951171875</ele>
        <time>2026-08-31T07:10:24.000Z</time>
        <extensions>
          <ns3:TrackPointExtension>
            <ns3:hr>157</ns3:hr>
            <ns3:cad>0</ns3:cad>
          </ns3:TrackPointExtension>
        </extensions>
      </trkpt>
      <trkpt lat="44.6838247217237949371337890625" lon="6.8264517746865749359130859375">
        <ele>2625.199951171875</ele>
        <time>2026-08-31T07:10:25.000Z</time>
        <extensions>
          <ns3:TrackPointExtension>
            <ns3:hr>157</ns3:hr>
            <ns3:cad>0</ns3:cad>
          </ns3:TrackPointExtension>
        </extensions>
      </trkpt>
      <trkpt lat="44.68383335508406162261962890625" lon="6.8264437280595302581787109375">
        <ele>2625.39990234375</ele>
        <time>2026-08-31T07:10:26.000Z</time>
        <extensions>
          <ns3:TrackPointExtension>
            <ns3:hr>157</ns3:hr>
            <ns3:cad>0</ns3:cad>
          </ns3:TrackPointExtension>
        </extensions>
      </trkpt>
      <trkpt lat="44.6838418208062648773193359375" lon="6.82643450796604156494140625">
        <ele>2625.60009765625</ele>
        <time>2026-08-31T07:10:27.000Z</time>
        <extensions>
          <ns3:TrackPointExtension>
            <ns3:hr>156</ns3:hr>
            <ns3:cad>0</ns3:cad>
          </ns3:TrackPointExtension>
        </extensions>
      </trkpt>
      <trkpt lat="44.6838404797017574310302734375" lon="6.82643056847155094146728515625">
        <ele>2626</ele>
        <time>2026-08-31T07:10:28.000Z</time>
        <extensions>
          <ns3:TrackPointExtension>
            <ns3:hr>157</ns3:hr>
            <ns3:cad>0</ns3:cad>
          </ns3:TrackPointExtension>
        </extensions>
      </trkpt>
      <trkpt lat="44.68385137617588043212890625" lon="6.82642369531095027923583984375">
        <ele>2626.39990234375</ele>
        <time>2026-08-31T07:10:29.000Z</time>
        <extensions>
          <ns3:TrackPointExtension>
            <ns3:hr>156</ns3:hr>
            <ns3:cad>0</ns3:cad>
          </ns3:TrackPointExtension>
        </extensions>
      </trkpt>
      <trkpt lat="44.68385531567037105560302734375" lon="6.8264249525964260101318359375">
        <ele>2627</ele>
        <time>2026-08-31T07:10:30.000Z</time>
        <extensions>
          <ns3:TrackPointExtension>
            <ns3:hr>156</ns3:hr>
            <ns3:cad>0</ns3:cad>
          </ns3:TrackPointExtension>
        </extensions>
      </trkpt>
      <trkpt lat="44.6838654577732086181640625" lon="6.82642872445285320281982421875">
        <ele>2627.60009765625</ele>
        <time>2026-08-31T07:10:31.000Z</time>
        <extensions>
          <ns3:TrackPointExtension>
            <ns3:hr>156</ns3:hr>
            <ns3:cad>0</ns3:cad>
          </ns3:TrackPointExtension>
        </extensions>
      </trkpt>
      <trkpt lat="44.68387224711477756500244140625" lon="6.82642503641545772552490234375">
        <ele>2628</ele>
        <time>2026-08-31T07:10:32.000Z</time>
        <extensions>
          <ns3:TrackPointExtension>
            <ns3:hr>157</ns3:hr>
            <ns3:cad>0</ns3:cad>
          </ns3:TrackPointExtension>
        </extensions>
      </trkpt>
      <trkpt lat="44.68388163484632968902587890625" lon="6.82641849853098392486572265625">
        <ele>2628.60009765625</ele>
        <time>2026-08-31T07:10:33.000Z</time>
        <extensions>
          <ns3:TrackPointExtension>
            <ns3:hr>156</ns3:hr>
            <ns3:cad>0</ns3:cad>
          </ns3:TrackPointExtension>
        </extensions>
      </trkpt>
      <trkpt lat="44.68388834036886692047119140625" lon="6.8264142237603664398193359375">
        <ele>2628.800048828125</ele>
        <time>2026-08-31T07:10:34.000Z</time>
        <extensions>
          <ns3:TrackPointExtension>
            <ns3:hr>156</ns3:hr>
            <ns3:cad>0</ns3:cad>
          </ns3:TrackPointExtension>
        </extensions>
      </trkpt>
      <trkpt lat="44.68389336951076984405517578125" lon="6.82641900144517421722412109375">
        <ele>2629</ele>
        <time>2026-08-31T07:10:35.000Z</time>
        <extensions>
          <ns3:TrackPointExtension>
            <ns3:hr>157</ns3:hr>
            <ns3:cad>0</ns3:cad>
          </ns3:TrackPointExtension>
        </extensions>
      </trkpt>
      <trkpt lat="44.68390527181327342987060546875" lon="6.82641548104584217071533203125">
        <ele>2629.199951171875</ele>
        <time>2026-08-31T07:10:36.000Z</time>
        <extensions>
          <ns3:TrackPointExtension>
            <ns3:hr>157</ns3:hr>
            <ns3:cad>80</ns3:cad>
          </ns3:TrackPointExtension>
        </extensions>
      </trkpt>
      <trkpt lat="44.683909714221954345703125" lon="6.8264155648648738861083984375">
        <ele>2629.60009765625</ele>
        <time>2026-08-31T07:10:37.000Z</time>
        <extensions>
          <ns3:TrackPointExtension>
            <ns3:hr>157</ns3:hr>
            <ns3:cad>80</ns3:cad>
          </ns3:TrackPointExtension>
        </extensions>
      </trkpt>
      <trkpt lat="44.68391817994415760040283203125" lon="6.82641497813165187835693359375">
        <ele>2630</ele>
        <time>2026-08-31T07:10:38.000Z</time>
        <extensions>
          <ns3:TrackPointExtension>
            <ns3:hr>157</ns3:hr>
            <ns3:cad>80</ns3:cad>
          </ns3:TrackPointExtension>
        </extensions>
      </trkpt>
      <trkpt lat="44.6839242987334728240966796875" lon="6.8264138884842395782470703125">
        <ele>2630.199951171875</ele>
        <time>2026-08-31T07:10:39.000Z</time>
        <extensions>
          <ns3:TrackPointExtension>
            <ns3:hr>157</ns3:hr>
            <ns3:cad>0</ns3:cad>
          </ns3:TrackPointExtension>
        </extensions>
      </trkpt>
      <trkpt lat="44.683930166065692901611328125" lon="6.826411373913288116455078125">
        <ele>2630.60009765625</ele>
        <time>2026-08-31T07:10:40.000Z</time>
        <extensions>
          <ns3:TrackPointExtension>
            <ns3:hr>157</ns3:hr>
            <ns3:cad>0</ns3:cad>
          </ns3:TrackPointExtension>
        </extensions>
      </trkpt>
      <trkpt lat="44.6839392185211181640625" lon="6.826408691704273223876953125">
        <ele>2630.60009765625</ele>
        <time>2026-08-31T07:10:41.000Z</time>
        <extensions>
          <ns3:TrackPointExtension>
            <ns3:hr>158</ns3:hr>
            <ns3:cad>0</ns3:cad>
          </ns3:TrackPointExtension>
        </extensions>
      </trkpt>
      <trkpt lat="44.68394852243363857269287109375" lon="6.82640642859041690826416015625">
        <ele>2630.800048828125</ele>
        <time>2026-08-31T07:10:42.000Z</time>
        <extensions>
          <ns3:TrackPointExtension>
            <ns3:hr>158</ns3:hr>
            <ns3:cad>0</ns3:cad>
          </ns3:TrackPointExtension>
        </extensions>
      </trkpt>
      <trkpt lat="44.683957993984222412109375" lon="6.826405338943004608154296875">
        <ele>2630.800048828125</ele>
        <time>2026-08-31T07:10:43.000Z</time>
        <extensions>
          <ns3:TrackPointExtension>
            <ns3:hr>158</ns3:hr>
            <ns3:cad>0</ns3:cad>
          </ns3:TrackPointExtension>
        </extensions>
      </trkpt>
      <trkpt lat="44.68396511860191822052001953125" lon="6.8264024890959262847900390625">
        <ele>2631</ele>
        <time>2026-08-31T07:10:44.000Z</time>
        <extensions>
          <ns3:TrackPointExtension>
            <ns3:hr>159</ns3:hr>
            <ns3:cad>0</ns3:cad>
          </ns3:TrackPointExtension>
        </extensions>
      </trkpt>
      <trkpt lat="44.6839735843241214752197265625" lon="6.8263951130211353302001953125">
        <ele>2631</ele>
        <time>2026-08-31T07:10:45.000Z</time>
        <extensions>
          <ns3:TrackPointExtension>
            <ns3:hr>159</ns3:hr>
            <ns3:cad>0</ns3:cad>
          </ns3:TrackPointExtension>
        </extensions>
      </trkpt>
      <trkpt lat="44.6839833073318004608154296875" lon="6.82639025151729583740234375">
        <ele>2631.39990234375</ele>
        <time>2026-08-31T07:10:46.000Z</time>
        <extensions>
          <ns3:TrackPointExtension>
            <ns3:hr>159</ns3:hr>
            <ns3:cad>0</ns3:cad>
          </ns3:TrackPointExtension>
        </extensions>
      </trkpt>
      <trkpt lat="44.68399110250174999237060546875" lon="6.82638823986053466796875">
        <ele>2632</ele>
        <time>2026-08-31T07:10:47.000Z</time>
        <extensions>
          <ns3:TrackPointExtension>
            <ns3:hr>160</ns3:hr>
            <ns3:cad>0</ns3:cad>
          </ns3:TrackPointExtension>
        </extensions>
      </trkpt>
      <trkpt lat="44.683995880186557769775390625" lon="6.82638430036604404449462890625">
        <ele>2632.39990234375</ele>
        <time>2026-08-31T07:10:48.000Z</time>
        <extensions>
          <ns3:TrackPointExtension>
            <ns3:hr>160</ns3:hr>
            <ns3:cad>0</ns3:cad>
          </ns3:TrackPointExtension>
        </extensions>
      </trkpt>
      <trkpt lat="44.6839983947575092315673828125" lon="6.826378516852855682373046875">
        <ele>2632.800048828125</ele>
        <time>2026-08-31T07:10:49.000Z</time>
        <extensions>
          <ns3:TrackPointExtension>
            <ns3:hr>160</ns3:hr>
            <ns3:cad>0</ns3:cad>
          </ns3:TrackPointExtension>
        </extensions>
      </trkpt>
      <trkpt lat="44.68400702811777591705322265625" lon="6.826376505196094512939453125">
        <ele>2633</ele>
        <time>2026-08-31T07:10:50.000Z</time>
        <extensions>
          <ns3:TrackPointExtension>
            <ns3:hr>160</ns3:hr>
            <ns3:cad>0</ns3:cad>
          </ns3:TrackPointExtension>
        </extensions>
      </trkpt>
      <trkpt lat="44.684010632336139678955078125" lon="6.826385557651519775390625">
        <ele>2633.199951171875</ele>
        <time>2026-08-31T07:10:51.000Z</time>
        <extensions>
          <ns3:TrackPointExtension>
            <ns3:hr>160</ns3:hr>
            <ns3:cad>0</ns3:cad>
          </ns3:TrackPointExtension>
        </extensions>
      </trkpt>
      <trkpt lat="44.6840164996683597564697265625" lon="6.82639268226921558380126953125">
        <ele>2633.60009765625</ele>
        <time>2026-08-31T07:10:52.000Z</time>
        <extensions>
          <ns3:TrackPointExtension>
            <ns3:hr>160</ns3:hr>
            <ns3:cad>0</ns3:cad>
          </ns3:TrackPointExtension>
        </extensions>
      </trkpt>
      <trkpt lat="44.684020690619945526123046875" lon="6.82639737613499164581298828125">
        <ele>2634</ele>
        <time>2026-08-31T07:10:53.000Z</time>
        <extensions>
          <ns3:TrackPointExtension>
            <ns3:hr>160</ns3:hr>
            <ns3:cad>0</ns3:cad>
          </ns3:TrackPointExtension>
        </extensions>
      </trkpt>
      <trkpt lat="44.68403150327503681182861328125" lon="6.826403997838497161865234375">
        <ele>2634.39990234375</ele>
        <time>2026-08-31T07:10:54.000Z</time>
        <extensions>
          <ns3:TrackPointExtension>
            <ns3:hr>161</ns3:hr>
            <ns3:cad>0</ns3:cad>
          </ns3:TrackPointExtension>
        </extensions>
      </trkpt>
      <trkpt lat="44.68403904698789119720458984375" lon="6.82640559040009975433349609375">
        <ele>2634.60009765625</ele>
        <time>2026-08-31T07:10:55.000Z</time>
        <extensions>
          <ns3:TrackPointExtension>
            <ns3:hr>161</ns3:hr>
            <ns3:cad>0</ns3:cad>
          </ns3:TrackPointExtension>
        </extensions>
      </trkpt>
      <trkpt lat="44.68404307030141353607177734375" lon="6.82640408165752887725830078125">
        <ele>2635</ele>
        <time>2026-08-31T07:10:56.000Z</time>
        <extensions>
          <ns3:TrackPointExtension>
            <ns3:hr>163</ns3:hr>
            <ns3:cad>0</ns3:cad>
          </ns3:TrackPointExtension>
        </extensions>
      </trkpt>
      <trkpt lat="44.6840433217585086822509765625" lon="6.82640374638140201568603515625">
        <ele>2635.199951171875</ele>
        <time>2026-08-31T07:10:57.000Z</time>
        <extensions>
          <ns3:TrackPointExtension>
            <ns3:hr>163</ns3:hr>
            <ns3:cad>0</ns3:cad>
          </ns3:TrackPointExtension>
        </extensions>
      </trkpt>
      <trkpt lat="44.68404851853847503662109375" lon="6.82640626095235347747802734375">
        <ele>2635.60009765625</ele>
        <time>2026-08-31T07:10:58.000Z</time>
        <extensions>
          <ns3:TrackPointExtension>
            <ns3:hr>164</ns3:hr>
            <ns3:cad>0</ns3:cad>
          </ns3:TrackPointExtension>
        </extensions>
      </trkpt>
      <trkpt lat="44.6840631030499935150146484375" lon="6.82641305029392242431640625">
        <ele>2635.800048828125</ele>
        <time>2026-08-31T07:10:59.000Z</time>
        <extensions>
          <ns3:TrackPointExtension>
            <ns3:hr>164</ns3:hr>
            <ns3:cad>0</ns3:cad>
          </ns3:TrackPointExtension>
        </extensions>
      </trkpt>
      <trkpt lat="44.684071652591228485107421875" lon="6.8264138884842395782470703125">
        <ele>2636</ele>
        <time>2026-08-31T07:11:00.000Z</time>
        <extensions>
          <ns3:TrackPointExtension>
            <ns3:hr>164</ns3:hr>
            <ns3:cad>0</ns3:cad>
          </ns3:TrackPointExtension>
        </extensions>
      </trkpt>
      <trkpt lat="44.68407936394214630126953125" lon="6.8264128826558589935302734375">
        <ele>2636.199951171875</ele>
        <time>2026-08-31T07:11:01.000Z</time>
        <extensions>
          <ns3:TrackPointExtension>
            <ns3:hr>164</ns3:hr>
            <ns3:cad>0</ns3:cad>
          </ns3:TrackPointExtension>
        </extensions>
      </trkpt>
      <trkpt lat="44.68409034423530101776123046875" lon="6.8264065124094486236572265625">
        <ele>2636.39990234375</ele>
        <time>2026-08-31T07:11:02.000Z</time>
        <extensions>
          <ns3:TrackPointExtension>
            <ns3:hr>165</ns3:hr>
            <ns3:cad>0</ns3:cad>
          </ns3:TrackPointExtension>
        </extensions>
      </trkpt>
      <trkpt lat="44.6840989775955677032470703125" lon="6.82640693150460720062255859375">
        <ele>2636.39990234375</ele>
        <time>2026-08-31T07:11:03.000Z</time>
        <extensions>
          <ns3:TrackPointExtension>
            <ns3:hr>166</ns3:hr>
            <ns3:cad>0</ns3:cad>
          </ns3:TrackPointExtension>
        </extensions>
      </trkpt>
      <trkpt lat="44.68410995788872241973876953125" lon="6.8264024890959262847900390625">
        <ele>2636.39990234375</ele>
        <time>2026-08-31T07:11:04.000Z</time>
        <extensions>
          <ns3:TrackPointExtension>
            <ns3:hr>167</ns3:hr>
            <ns3:cad>0</ns3:cad>
          </ns3:TrackPointExtension>
        </extensions>
      </trkpt>
      <trkpt lat="44.68411951325833797454833984375" lon="6.82640207000076770782470703125">
        <ele>2636.60009765625</ele>
        <time>2026-08-31T07:11:05.000Z</time>
        <extensions>
          <ns3:TrackPointExtension>
            <ns3:hr>168</ns3:hr>
            <ns3:cad>0</ns3:cad>
          </ns3:TrackPointExtension>
        </extensions>
      </trkpt>
      <trkpt lat="44.68412135727703571319580078125" lon="6.826404668390750885009765625">
        <ele>2636.60009765625</ele>
        <time>2026-08-31T07:11:06.000Z</time>
        <extensions>
          <ns3:TrackPointExtension>
            <ns3:hr>168</ns3:hr>
            <ns3:cad>0</ns3:cad>
          </ns3:TrackPointExtension>
        </extensions>
      </trkpt>
      <trkpt lat="44.68412152491509914398193359375" lon="6.8264051713049411773681640625">
        <ele>2636.60009765625</ele>
        <time>2026-08-31T07:11:07.000Z</time>
        <extensions>
          <ns3:TrackPointExtension>
            <ns3:hr>168</ns3:hr>
            <ns3:cad>0</ns3:cad>
          </ns3:TrackPointExtension>
        </extensions>
      </trkpt>
      <trkpt lat="44.684131331741809844970703125" lon="6.826404668390750885009765625">
        <ele>2636.800048828125</ele>
        <time>2026-08-31T07:11:08.000Z</time>
        <extensions>
          <ns3:TrackPointExtension>
            <ns3:hr>168</ns3:hr>
            <ns3:cad>0</ns3:cad>
          </ns3:TrackPointExtension>
        </extensions>
      </trkpt>
      <trkpt lat="44.68413837254047393798828125" lon="6.82640902698040008544921875">
        <ele>2636.800048828125</ele>
        <time>2026-08-31T07:11:09.000Z</time>
        <extensions>
          <ns3:TrackPointExtension>
            <ns3:hr>169</ns3:hr>
            <ns3:cad>0</ns3:cad>
          </ns3:TrackPointExtension>
        </extensions>
      </trkpt>
      <trkpt lat="44.68414465896785259246826171875" lon="6.82641707360744476318359375">
        <ele>2637.199951171875</ele>
        <time>2026-08-31T07:11:10.000Z</time>
        <extensions>
          <ns3:TrackPointExtension>
            <ns3:hr>169</ns3:hr>
            <ns3:cad>0</ns3:cad>
          </ns3:TrackPointExtension>
        </extensions>
      </trkpt>
      <trkpt lat="44.684145748615264892578125" lon="6.826430819928646087646484375">
        <ele>2637.39990234375</ele>
        <time>2026-08-31T07:11:11.000Z</time>
        <extensions>
          <ns3:TrackPointExtension>
            <ns3:hr>169</ns3:hr>
            <ns3:cad>0</ns3:cad>
          </ns3:TrackPointExtension>
        </extensions>
      </trkpt>
      <trkpt lat="44.6841499395668506622314453125" lon="6.8264403752982616424560546875">
        <ele>2637.800048828125</ele>
        <time>2026-08-31T07:11:12.000Z</time>
        <extensions>
          <ns3:TrackPointExtension>
            <ns3:hr>169</ns3:hr>
            <ns3:cad>0</ns3:cad>
          </ns3:TrackPointExtension>
        </extensions>
      </trkpt>
      <trkpt lat="44.6841506101191043853759765625" lon="6.82645152322947978973388671875">
        <ele>2638.39990234375</ele>
        <time>2026-08-31T07:11:13.000Z</time>
        <extensions>
          <ns3:TrackPointExtension>
            <ns3:hr>169</ns3:hr>
            <ns3:cad>0</ns3:cad>
          </ns3:TrackPointExtension>
        </extensions>
      </trkpt>
      <trkpt lat="44.68415404669940471649169921875" lon="6.8264621682465076446533203125">
        <ele>2638.800048828125</ele>
        <time>2026-08-31T07:11:14.000Z</time>
        <extensions>
          <ns3:TrackPointExtension>
            <ns3:hr>169</ns3:hr>
            <ns3:cad>0</ns3:cad>
          </ns3:TrackPointExtension>
        </extensions>
      </trkpt>
      <trkpt lat="44.6841578185558319091796875" lon="6.82646946050226688385009765625">
        <ele>2639.199951171875</ele>
        <time>2026-08-31T07:11:15.000Z</time>
        <extensions>
          <ns3:TrackPointExtension>
            <ns3:hr>169</ns3:hr>
            <ns3:cad>0</ns3:cad>
          </ns3:TrackPointExtension>
        </extensions>
      </trkpt>
      <trkpt lat="44.68416360206902027130126953125" lon="6.8264687061309814453125">
        <ele>2639.39990234375</ele>
        <time>2026-08-31T07:11:16.000Z</time>
        <extensions>
          <ns3:TrackPointExtension>
            <ns3:hr>170</ns3:hr>
            <ns3:cad>0</ns3:cad>
          </ns3:TrackPointExtension>
        </extensions>
      </trkpt>
      <trkpt lat="44.68416913412511348724365234375" lon="6.8264745734632015228271484375">
        <ele>2639.60009765625</ele>
        <time>2026-08-31T07:11:17.000Z</time>
        <extensions>
          <ns3:TrackPointExtension>
            <ns3:hr>170</ns3:hr>
            <ns3:cad>0</ns3:cad>
          </ns3:TrackPointExtension>
        </extensions>
      </trkpt>
      <trkpt lat="44.68417114578187465667724609375" lon="6.82648278772830963134765625">
        <ele>2639.800048828125</ele>
        <time>2026-08-31T07:11:18.000Z</time>
        <extensions>
          <ns3:TrackPointExtension>
            <ns3:hr>170</ns3:hr>
            <ns3:cad>0</ns3:cad>
          </ns3:TrackPointExtension>
        </extensions>
      </trkpt>
      <trkpt lat="44.68417600728571414947509765625" lon="6.82649309746921062469482421875">
        <ele>2639.800048828125</ele>
        <time>2026-08-31T07:11:19.000Z</time>
        <extensions>
          <ns3:TrackPointExtension>
            <ns3:hr>170</ns3:hr>
            <ns3:cad>0</ns3:cad>
          </ns3:TrackPointExtension>
        </extensions>
      </trkpt>
      <trkpt lat="44.68417751602828502655029296875" lon="6.82649846188724040985107421875">
        <ele>2640</ele>
        <time>2026-08-31T07:11:20.000Z</time>
        <extensions>
          <ns3:TrackPointExtension>
            <ns3:hr>171</ns3:hr>
            <ns3:cad>0</ns3:cad>
          </ns3:TrackPointExtension>
        </extensions>
      </trkpt>
      <trkpt lat="44.6841884963214397430419921875" lon="6.82650533504784107208251953125">
        <ele>2640</ele>
        <time>2026-08-31T07:11:21.000Z</time>
        <extensions>
          <ns3:TrackPointExtension>
            <ns3:hr>171</ns3:hr>
            <ns3:cad>0</ns3:cad>
          </ns3:TrackPointExtension>
        </extensions>
      </trkpt>
      <trkpt lat="44.6841968782246112823486328125" lon="6.82651271112263202667236328125">
        <ele>2640.199951171875</ele>
        <time>2026-08-31T07:11:22.000Z</time>
        <extensions>
          <ns3:TrackPointExtension>
            <ns3:hr>172</ns3:hr>
            <ns3:cad>0</ns3:cad>
          </ns3:TrackPointExtension>
        </extensions>
      </trkpt>
      <trkpt lat="44.6841953694820404052734375" lon="6.8265183269977569580078125">
        <ele>2640.60009765625</ele>
        <time>2026-08-31T07:11:23.000Z</time>
        <extensions>
          <ns3:TrackPointExtension>
            <ns3:hr>172</ns3:hr>
            <ns3:cad>0</ns3:cad>
          </ns3:TrackPointExtension>
        </extensions>
      </trkpt>
      <trkpt lat="44.68420232646167278289794921875" lon="6.8265319056808948516845703125">
        <ele>2640.800048828125</ele>
        <time>2026-08-31T07:11:24.000Z</time>
        <extensions>
          <ns3:TrackPointExtension>
            <ns3:hr>173</ns3:hr>
            <ns3:cad>0</ns3:cad>
          </ns3:TrackPointExtension>
        </extensions>
      </trkpt>
      <trkpt lat="44.68420601449906826019287109375" lon="6.826536767184734344482421875">
        <ele>2641.199951171875</ele>
        <time>2026-08-31T07:11:25.000Z</time>
        <extensions>
          <ns3:TrackPointExtension>
            <ns3:hr>173</ns3:hr>
            <ns3:cad>0</ns3:cad>
          </ns3:TrackPointExtension>
        </extensions>
      </trkpt>
      <trkpt lat="44.6842109598219394683837890625" lon="6.82654808275401592254638671875">
        <ele>2641.39990234375</ele>
        <time>2026-08-31T07:11:26.000Z</time>
        <extensions>
          <ns3:TrackPointExtension>
            <ns3:hr>174</ns3:hr>
            <ns3:cad>0</ns3:cad>
          </ns3:TrackPointExtension>
        </extensions>
      </trkpt>
      <trkpt lat="44.6842123009264469146728515625" lon="6.82655864395201206207275390625">
        <ele>2641.60009765625</ele>
        <time>2026-08-31T07:11:27.000Z</time>
        <extensions>
          <ns3:TrackPointExtension>
            <ns3:hr>174</ns3:hr>
            <ns3:cad>0</ns3:cad>
          </ns3:TrackPointExtension>
        </extensions>
      </trkpt>
      <trkpt lat="44.684219844639301300048828125" lon="6.8265667743980884552001953125">
        <ele>2642</ele>
        <time>2026-08-31T07:11:28.000Z</time>
        <extensions>
          <ns3:TrackPointExtension>
            <ns3:hr>174</ns3:hr>
            <ns3:cad>0</ns3:cad>
          </ns3:TrackPointExtension>
        </extensions>
      </trkpt>
      <trkpt lat="44.68422596342861652374267578125" lon="6.82657859288156032562255859375">
        <ele>2642.39990234375</ele>
        <time>2026-08-31T07:11:29.000Z</time>
        <extensions>
          <ns3:TrackPointExtension>
            <ns3:hr>174</ns3:hr>
            <ns3:cad>0</ns3:cad>
          </ns3:TrackPointExtension>
        </extensions>
      </trkpt>
      <trkpt lat="44.68423082493245601654052734375" lon="6.826585046947002410888671875">
        <ele>2642.60009765625</ele>
        <time>2026-08-31T07:11:30.000Z</time>
        <extensions>
          <ns3:TrackPointExtension>
            <ns3:hr>173</ns3:hr>
            <ns3:cad>0</ns3:cad>
          </ns3:TrackPointExtension>
        </extensions>
      </trkpt>
      <trkpt lat="44.68423870392143726348876953125" lon="6.82659217156469821929931640625">
        <ele>2643</ele>
        <time>2026-08-31T07:11:31.000Z</time>
        <extensions>
          <ns3:TrackPointExtension>
            <ns3:hr>174</ns3:hr>
            <ns3:cad>0</ns3:cad>
          </ns3:TrackPointExtension>
        </extensions>
      </trkpt>
      <trkpt lat="44.68423669226467609405517578125" lon="6.8265929259359836578369140625">
        <ele>2643.199951171875</ele>
        <time>2026-08-31T07:11:32.000Z</time>
        <extensions>
          <ns3:TrackPointExtension>
            <ns3:hr>174</ns3:hr>
            <ns3:cad>0</ns3:cad>
          </ns3:TrackPointExtension>
        </extensions>
      </trkpt>
      <trkpt lat="44.6842367760837078094482421875" lon="6.82659300975501537322998046875">
        <ele>2643.39990234375</ele>
        <time>2026-08-31T07:11:33.000Z</time>
        <extensions>
          <ns3:TrackPointExtension>
            <ns3:hr>174</ns3:hr>
            <ns3:cad>0</ns3:cad>
          </ns3:TrackPointExtension>
        </extensions>
      </trkpt>
      <trkpt lat="44.6842411346733570098876953125" lon="6.82659636251628398895263671875">
        <ele>2643.60009765625</ele>
        <time>2026-08-31T07:11:34.000Z</time>
        <extensions>
          <ns3:TrackPointExtension>
            <ns3:hr>174</ns3:hr>
            <ns3:cad>0</ns3:cad>
          </ns3:TrackPointExtension>
        </extensions>
      </trkpt>
      <trkpt lat="44.68424297869205474853515625" lon="6.826608516275882720947265625">
        <ele>2643.800048828125</ele>
        <time>2026-08-31T07:11:35.000Z</time>
        <extensions>
          <ns3:TrackPointExtension>
            <ns3:hr>174</ns3:hr>
            <ns3:cad>0</ns3:cad>
          </ns3:TrackPointExtension>
        </extensions>
      </trkpt>
      <trkpt lat="44.68424691818654537200927734375" lon="6.82661379687488079071044921875">
        <ele>2643.800048828125</ele>
        <time>2026-08-31T07:11:36.000Z</time>
        <extensions>
          <ns3:TrackPointExtension>
            <ns3:hr>174</ns3:hr>
            <ns3:cad>0</ns3:cad>
          </ns3:TrackPointExtension>
        </extensions>
      </trkpt>
      <trkpt lat="44.6842491813004016876220703125" lon="6.8266220949590206146240234375">
        <ele>2644</ele>
        <time>2026-08-31T07:11:37.000Z</time>
        <extensions>
          <ns3:TrackPointExtension>
            <ns3:hr>173</ns3:hr>
            <ns3:cad>0</ns3:cad>
          </ns3:TrackPointExtension>
        </extensions>
      </trkpt>
      <trkpt lat="44.6842585690319538116455078125" lon="6.8266301415860652923583984375">
        <ele>2644.199951171875</ele>
        <time>2026-08-31T07:11:38.000Z</time>
        <extensions>
          <ns3:TrackPointExtension>
            <ns3:hr>174</ns3:hr>
            <ns3:cad>0</ns3:cad>
          </ns3:TrackPointExtension>
        </extensions>
      </trkpt>
      <trkpt lat="44.684268794953823089599609375" lon="6.82663299143314361572265625">
        <ele>2644.199951171875</ele>
        <time>2026-08-31T07:11:39.000Z</time>
        <extensions>
          <ns3:TrackPointExtension>
            <ns3:hr>174</ns3:hr>
            <ns3:cad>0</ns3:cad>
          </ns3:TrackPointExtension>
        </extensions>
      </trkpt>
      <trkpt lat="44.684279523789882659912109375" lon="6.8266365118324756622314453125">
        <ele>2644.39990234375</ele>
        <time>2026-08-31T07:11:40.000Z</time>
        <extensions>
          <ns3:TrackPointExtension>
            <ns3:hr>173</ns3:hr>
            <ns3:cad>0</ns3:cad>
          </ns3:TrackPointExtension>
        </extensions>
      </trkpt>
      <trkpt lat="44.68428723514080047607421875" lon="6.82663701474666595458984375">
        <ele>2644.39990234375</ele>
        <time>2026-08-31T07:11:41.000Z</time>
        <extensions>
          <ns3:TrackPointExtension>
            <ns3:hr>173</ns3:hr>
            <ns3:cad>0</ns3:cad>
          </ns3:TrackPointExtension>
        </extensions>
      </trkpt>
      <trkpt lat="44.684292934834957122802734375" lon="6.82663760147988796234130859375">
        <ele>2644.39990234375</ele>
        <time>2026-08-31T07:11:42.000Z</time>
        <extensions>
          <ns3:TrackPointExtension>
            <ns3:hr>172</ns3:hr>
            <ns3:cad>0</ns3:cad>
          </ns3:TrackPointExtension>
        </extensions>
      </trkpt>
      <trkpt lat="44.68429788015782833099365234375" lon="6.8266435526311397552490234375">
        <ele>2644.39990234375</ele>
        <time>2026-08-31T07:11:43.000Z</time>
        <extensions>
          <ns3:TrackPointExtension>
            <ns3:hr>172</ns3:hr>
            <ns3:cad>0</ns3:cad>
          </ns3:TrackPointExtension>
        </extensions>
      </trkpt>
      <trkpt lat="44.68430290929973125457763671875" lon="6.82664816267788410186767578125">
        <ele>2644.199951171875</ele>
        <time>2026-08-31T07:11:44.000Z</time>
        <extensions>
          <ns3:TrackPointExtension>
            <ns3:hr>172</ns3:hr>
            <ns3:cad>0</ns3:cad>
          </ns3:TrackPointExtension>
        </extensions>
      </trkpt>
      <trkpt lat="44.6843160688877105712890625" lon="6.82664849795401096343994140625">
        <ele>2644.199951171875</ele>
        <time>2026-08-31T07:11:45.000Z</time>
        <extensions>
          <ns3:TrackPointExtension>
            <ns3:hr>172</ns3:hr>
            <ns3:cad>0</ns3:cad>
          </ns3:TrackPointExtension>
        </extensions>
      </trkpt>
      <trkpt lat="44.68432587571442127227783203125" lon="6.82664983905851840972900390625">
        <ele>2644</ele>
        <time>2026-08-31T07:11:46.000Z</time>
        <extensions>
          <ns3:TrackPointExtension>
            <ns3:hr>173</ns3:hr>
            <ns3:cad>0</ns3:cad>
          </ns3:TrackPointExtension>
        </extensions>
      </trkpt>
      <trkpt lat="44.68433341942727565765380859375" lon="6.82665067724883556365966796875">
        <ele>2644</ele>
        <time>2026-08-31T07:11:47.000Z</time>
        <extensions>
          <ns3:TrackPointExtension>
            <ns3:hr>172</ns3:hr>
            <ns3:cad>0</ns3:cad>
          </ns3:TrackPointExtension>
        </extensions>
      </trkpt>
      <trkpt lat="44.68434222042560577392578125" lon="6.82665218599140644073486328125">
        <ele>2644.39990234375</ele>
        <time>2026-08-31T07:11:48.000Z</time>
        <extensions>
          <ns3:TrackPointExtension>
            <ns3:hr>172</ns3:hr>
            <ns3:cad>0</ns3:cad>
          </ns3:TrackPointExtension>
        </extensions>
      </trkpt>
      <trkpt lat="44.68434297479689121246337890625" lon="6.82665042579174041748046875">
        <ele>2644.60009765625</ele>
        <time>2026-08-31T07:11:49.000Z</time>
        <extensions>
          <ns3:TrackPointExtension>
            <ns3:hr>172</ns3:hr>
            <ns3:cad>0</ns3:cad>
          </ns3:TrackPointExtension>
        </extensions>
      </trkpt>
      <trkpt lat="44.68434850685298442840576171875" lon="6.82665218599140644073486328125">
        <ele>2645</ele>
        <time>2026-08-31T07:11:50.000Z</time>
        <extensions>
          <ns3:TrackPointExtension>
            <ns3:hr>172</ns3:hr>
            <ns3:cad>0</ns3:cad>
          </ns3:TrackPointExtension>
        </extensions>
      </trkpt>
      <trkpt lat="44.6843544580042362213134765625" lon="6.82665352709591388702392578125">
        <ele>2647</ele>
        <time>2026-08-31T07:11:51.000Z</time>
        <extensions>
          <ns3:TrackPointExtension>
            <ns3:hr>172</ns3:hr>
            <ns3:cad>0</ns3:cad>
          </ns3:TrackPointExtension>
        </extensions>
      </trkpt>
      <trkpt lat="44.68435655348002910614013671875" lon="6.82666408829391002655029296875">
        <ele>2647.800048828125</ele>
        <time>2026-08-31T07:11:52.000Z</time>
        <extensions>
          <ns3:TrackPointExtension>
            <ns3:hr>171</ns3:hr>
            <ns3:cad>0</ns3:cad>
          </ns3:TrackPointExtension>
        </extensions>
      </trkpt>
      <trkpt lat="44.6843611635267734527587890625" lon="6.8266690336167812347412109375">
        <ele>2648.199951171875</ele>
        <time>2026-08-31T07:11:53.000Z</time>
        <extensions>
          <ns3:TrackPointExtension>
            <ns3:hr>171</ns3:hr>
            <ns3:cad>0</ns3:cad>
          </ns3:TrackPointExtension>
        </extensions>
      </trkpt>
      <trkpt lat="44.68436778523027896881103515625" lon="6.8266740627586841583251953125">
        <ele>2649</ele>
        <time>2026-08-31T07:11:54.000Z</time>
        <extensions>
          <ns3:TrackPointExtension>
            <ns3:hr>171</ns3:hr>
            <ns3:cad>0</ns3:cad>
          </ns3:TrackPointExtension>
        </extensions>
      </trkpt>
      <trkpt lat="44.684376083314418792724609375" lon="6.82667749933898448944091796875">
        <ele>2649.39990234375</ele>
        <time>2026-08-31T07:11:55.000Z</time>
        <extensions>
          <ns3:TrackPointExtension>
            <ns3:hr>171</ns3:hr>
            <ns3:cad>0</ns3:cad>
          </ns3:TrackPointExtension>
        </extensions>
      </trkpt>
      <trkpt lat="44.68437784351408481597900390625" lon="6.8266747333109378814697265625">
        <ele>2650.199951171875</ele>
        <time>2026-08-31T07:11:56.000Z</time>
        <extensions>
          <ns3:TrackPointExtension>
            <ns3:hr>172</ns3:hr>
            <ns3:cad>0</ns3:cad>
          </ns3:TrackPointExtension>
        </extensions>
      </trkpt>
      <trkpt lat="44.6843858063220977783203125" lon="6.8266784213483333587646484375">
        <ele>2650.800048828125</ele>
        <time>2026-08-31T07:11:57.000Z</time>
        <extensions>
          <ns3:TrackPointExtension>
            <ns3:hr>172</ns3:hr>
            <ns3:cad>0</ns3:cad>
          </ns3:TrackPointExtension>
        </extensions>
      </trkpt>
      <trkpt lat="44.6843946911394596099853515625" lon="6.82668236084282398223876953125">
        <ele>2651.39990234375</ele>
        <time>2026-08-31T07:11:58.000Z</time>
        <extensions>
          <ns3:TrackPointExtension>
            <ns3:hr>172</ns3:hr>
            <ns3:cad>0</ns3:cad>
          </ns3:TrackPointExtension>
        </extensions>
      </trkpt>
      <trkpt lat="44.68440282158553600311279296875" lon="6.82668621651828289031982421875">
        <ele>2651.800048828125</ele>
        <time>2026-08-31T07:11:59.000Z</time>
        <extensions>
          <ns3:TrackPointExtension>
            <ns3:hr>174</ns3:hr>
            <ns3:cad>0</ns3:cad>
          </ns3:TrackPointExtension>
        </extensions>
      </trkpt>
      <trkpt lat="44.68440927565097808837890625" lon="6.82668839581310749053955078125">
        <ele>2652.39990234375</ele>
        <time>2026-08-31T07:12:00.000Z</time>
        <extensions>
          <ns3:TrackPointExtension>
            <ns3:hr>174</ns3:hr>
            <ns3:cad>0</ns3:cad>
          </ns3:TrackPointExtension>
        </extensions>
      </trkpt>
      <trkpt lat="44.68441556207835674285888671875" lon="6.82668956927955150604248046875">
        <ele>2652.800048828125</ele>
        <time>2026-08-31T07:12:01.000Z</time>
        <extensions>
          <ns3:TrackPointExtension>
            <ns3:hr>174</ns3:hr>
            <ns3:cad>0</ns3:cad>
          </ns3:TrackPointExtension>
        </extensions>
      </trkpt>
      <trkpt lat="44.6844184957444667816162109375" lon="6.8266864679753780364990234375">
        <ele>2653</ele>
        <time>2026-08-31T07:12:02.000Z</time>
        <extensions>
          <ns3:TrackPointExtension>
            <ns3:hr>174</ns3:hr>
            <ns3:cad>0</ns3:cad>
          </ns3:TrackPointExtension>
        </extensions>
      </trkpt>
      <trkpt lat="44.68442411161959171295166015625" lon="6.82668638415634632110595703125">
        <ele>2653.39990234375</ele>
        <time>2026-08-31T07:12:03.000Z</time>
        <extensions>
          <ns3:TrackPointExtension>
            <ns3:hr>175</ns3:hr>
            <ns3:cad>0</ns3:cad>
          </ns3:TrackPointExtension>
        </extensions>
      </trkpt>
      <trkpt lat="44.6844287216663360595703125" lon="6.8266821093857288360595703125">
        <ele>2653.800048828125</ele>
        <time>2026-08-31T07:12:04.000Z</time>
        <extensions>
          <ns3:TrackPointExtension>
            <ns3:hr>175</ns3:hr>
            <ns3:cad>0</ns3:cad>
          </ns3:TrackPointExtension>
        </extensions>
      </trkpt>
      <trkpt lat="44.68443073332309722900390625" lon="6.82668085210025310516357421875">
        <ele>2654.199951171875</ele>
        <time>2026-08-31T07:12:05.000Z</time>
        <extensions>
          <ns3:TrackPointExtension>
            <ns3:hr>175</ns3:hr>
            <ns3:cad>0</ns3:cad>
          </ns3:TrackPointExtension>
        </extensions>
      </trkpt>
      <trkpt lat="44.68442897312343120574951171875" lon="6.826682277023792266845703125">
        <ele>2654.60009765625</ele>
        <time>2026-08-31T07:12:06.000Z</time>
        <extensions>
          <ns3:TrackPointExtension>
            <ns3:hr>175</ns3:hr>
            <ns3:cad>0</ns3:cad>
          </ns3:TrackPointExtension>
        </extensions>
      </trkpt>
      <trkpt lat="44.68442897312343120574951171875" lon="6.82668236084282398223876953125">
        <ele>2654.800048828125</ele>
        <time>2026-08-31T07:12:07.000Z</time>
        <extensions>
          <ns3:TrackPointExtension>
            <ns3:hr>176</ns3:hr>
            <ns3:cad>0</ns3:cad>
          </ns3:TrackPointExtension>
        </extensions>
      </trkpt>
      <trkpt lat="44.68442897312343120574951171875" lon="6.82668236084282398223876953125">
        <ele>2655.199951171875</ele>
        <time>2026-08-31T07:12:08.000Z</time>
        <extensions>
          <ns3:TrackPointExtension>
            <ns3:hr>176</ns3:hr>
            <ns3:cad>0</ns3:cad>
          </ns3:TrackPointExtension>
        </extensions>
      </trkpt>
      <trkpt lat="44.68442897312343120574951171875" lon="6.82668236084282398223876953125">
        <ele>2655.39990234375</ele>
        <time>2026-08-31T07:12:09.000Z</time>
        <extensions>
          <ns3:TrackPointExtension>
            <ns3:hr>176</ns3:hr>
            <ns3:cad>0</ns3:cad>
          </ns3:TrackPointExtension>
        </extensions>
      </trkpt>
      <trkpt lat="44.6844292245805263519287109375" lon="6.82668202556669712066650390625">
        <ele>2655</ele>
        <time>2026-08-31T07:12:10.000Z</time>
        <extensions>
          <ns3:TrackPointExtension>
            <ns3:hr>176</ns3:hr>
            <ns3:cad>0</ns3:cad>
          </ns3:TrackPointExtension>
        </extensions>
      </trkpt>
      <trkpt lat="44.68443165533244609832763671875" lon="6.826682277023792266845703125">
        <ele>2654.800048828125</ele>
        <time>2026-08-31T07:12:11.000Z</time>
        <extensions>
          <ns3:TrackPointExtension>
            <ns3:hr>176</ns3:hr>
            <ns3:cad>0</ns3:cad>
          </ns3:TrackPointExtension>
        </extensions>
      </trkpt>
      <trkpt lat="44.6844366006553173065185546875" lon="6.8266918323934078216552734375">
        <ele>2654.39990234375</ele>
        <time>2026-08-31T07:12:12.000Z</time>
        <extensions>
          <ns3:TrackPointExtension>
            <ns3:hr>176</ns3:hr>
            <ns3:cad>0</ns3:cad>
          </ns3:TrackPointExtension>
        </extensions>
      </trkpt>
      <trkpt lat="44.684441126883029937744140625" lon="6.8267012201249599456787109375">
        <ele>2654</ele>
        <time>2026-08-31T07:12:13.000Z</time>
        <extensions>
          <ns3:TrackPointExtension>
            <ns3:hr>175</ns3:hr>
            <ns3:cad>0</ns3:cad>
          </ns3:TrackPointExtension>
        </extensions>
      </trkpt>
      <trkpt lat="44.68444808386266231536865234375" lon="6.82671102695167064666748046875">
        <ele>2653.800048828125</ele>
        <time>2026-08-31T07:12:14.000Z</time>
        <extensions>
          <ns3:TrackPointExtension>
            <ns3:hr>175</ns3:hr>
            <ns3:cad>0</ns3:cad>
          </ns3:TrackPointExtension>
        </extensions>
      </trkpt>
      <trkpt lat="44.6844419650733470916748046875" lon="6.82670968584716320037841796875">
        <ele>2653.60009765625</ele>
        <time>2026-08-31T07:12:15.000Z</time>
        <extensions>
          <ns3:TrackPointExtension>
            <ns3:hr>174</ns3:hr>
            <ns3:cad>0</ns3:cad>
          </ns3:TrackPointExtension>
        </extensions>
      </trkpt>
      <trkpt lat="44.68444003723561763763427734375" lon="6.82669929228723049163818359375">
        <ele>2653.800048828125</ele>
        <time>2026-08-31T07:12:16.000Z</time>
        <extensions>
          <ns3:TrackPointExtension>
            <ns3:hr>174</ns3:hr>
            <ns3:cad>0</ns3:cad>
          </ns3:TrackPointExtension>
        </extensions>
      </trkpt>
      <trkpt lat="44.6844329126179218292236328125" lon="6.8266868032515048980712890625">
        <ele>2654</ele>
        <time>2026-08-31T07:12:17.000Z</time>
        <extensions>
          <ns3:TrackPointExtension>
            <ns3:hr>172</ns3:hr>
            <ns3:cad>0</ns3:cad>
          </ns3:TrackPointExtension>
        </extensions>
      </trkpt>
      <trkpt lat="44.68444012105464935302734375" lon="6.82668722234666347503662109375">
        <ele>2654.199951171875</ele>
        <time>2026-08-31T07:12:18.000Z</time>
        <extensions>
          <ns3:TrackPointExtension>
            <ns3:hr>171</ns3:hr>
            <ns3:cad>0</ns3:cad>
          </ns3:TrackPointExtension>
        </extensions>
      </trkpt>
      <trkpt lat="44.6844476647675037384033203125" lon="6.8266955204308032989501953125">
        <ele>2654.60009765625</ele>
        <time>2026-08-31T07:12:19.000Z</time>
        <extensions>
          <ns3:TrackPointExtension>
            <ns3:hr>170</ns3:hr>
            <ns3:cad>0</ns3:cad>
          </ns3:TrackPointExtension>
        </extensions>
      </trkpt>
      <trkpt lat="44.68445043079555034637451171875" lon="6.826706416904926300048828125">
        <ele>2654.800048828125</ele>
        <time>2026-08-31T07:12:20.000Z</time>
        <extensions>
          <ns3:TrackPointExtension>
            <ns3:hr>170</ns3:hr>
            <ns3:cad>0</ns3:cad>
          </ns3:TrackPointExtension>
        </extensions>
      </trkpt>
      <trkpt lat="44.68445462174713611602783203125" lon="6.82671840302646160125732421875">
        <ele>2654.60009765625</ele>
        <time>2026-08-31T07:12:21.000Z</time>
        <extensions>
          <ns3:TrackPointExtension>
            <ns3:hr>169</ns3:hr>
            <ns3:cad>0</ns3:cad>
          </ns3:TrackPointExtension>
        </extensions>
      </trkpt>
      <trkpt lat="44.68445864506065845489501953125" lon="6.82673013769090175628662109375">
        <ele>2654.60009765625</ele>
        <time>2026-08-31T07:12:22.000Z</time>
        <extensions>
          <ns3:TrackPointExtension>
            <ns3:hr>169</ns3:hr>
            <ns3:cad>0</ns3:cad>
          </ns3:TrackPointExtension>
        </extensions>
      </trkpt>
      <trkpt lat="44.68446434475481510162353515625" lon="6.826746650040149688720703125">
        <ele>2654.39990234375</ele>
        <time>2026-08-31T07:12:23.000Z</time>
        <extensions>
          <ns3:TrackPointExtension>
            <ns3:hr>168</ns3:hr>
            <ns3:cad>0</ns3:cad>
          </ns3:TrackPointExtension>
        </extensions>
      </trkpt>
      <trkpt lat="44.68446602113544940948486328125" lon="6.826761402189731597900390625">
        <ele>2654.199951171875</ele>
        <time>2026-08-31T07:12:24.000Z</time>
        <extensions>
          <ns3:TrackPointExtension>
            <ns3:hr>168</ns3:hr>
            <ns3:cad>0</ns3:cad>
          </ns3:TrackPointExtension>
        </extensions>
      </trkpt>
      <trkpt lat="44.6844728104770183563232421875" lon="6.82678026147186756134033203125">
        <ele>2653.60009765625</ele>
        <time>2026-08-31T07:12:25.000Z</time>
        <extensions>
          <ns3:TrackPointExtension>
            <ns3:hr>168</ns3:hr>
            <ns3:cad>0</ns3:cad>
          </ns3:TrackPointExtension>
        </extensions>
      </trkpt>
      <trkpt lat="44.68448027037084102630615234375" lon="6.8267974443733692169189453125">
        <ele>2653.199951171875</ele>
        <time>2026-08-31T07:12:26.000Z</time>
        <extensions>
          <ns3:TrackPointExtension>
            <ns3:hr>167</ns3:hr>
            <ns3:cad>59</ns3:cad>
          </ns3:TrackPointExtension>
        </extensions>
      </trkpt>
      <trkpt lat="44.684483706951141357421875" lon="6.8268106877803802490234375">
        <ele>2652.60009765625</ele>
        <time>2026-08-31T07:12:27.000Z</time>
        <extensions>
          <ns3:TrackPointExtension>
            <ns3:hr>167</ns3:hr>
            <ns3:cad>59</ns3:cad>
          </ns3:TrackPointExtension>
        </extensions>
      </trkpt>
      <trkpt lat="44.68448965810239315032958984375" lon="6.8268267810344696044921875">
        <ele>2652.199951171875</ele>
        <time>2026-08-31T07:12:28.000Z</time>
        <extensions>
          <ns3:TrackPointExtension>
            <ns3:hr>167</ns3:hr>
            <ns3:cad>61</ns3:cad>
          </ns3:TrackPointExtension>
        </extensions>
      </trkpt>
      <trkpt lat="44.68449644744396209716796875" lon="6.82683952152729034423828125">
        <ele>2651.800048828125</ele>
        <time>2026-08-31T07:12:29.000Z</time>
        <extensions>
          <ns3:TrackPointExtension>
            <ns3:hr>167</ns3:hr>
            <ns3:cad>64</ns3:cad>
          </ns3:TrackPointExtension>
        </extensions>
      </trkpt>
      <trkpt lat="44.68450273387134075164794921875" lon="6.82685402221977710723876953125">
        <ele>2651.39990234375</ele>
        <time>2026-08-31T07:12:30.000Z</time>
        <extensions>
          <ns3:TrackPointExtension>
            <ns3:hr>166</ns3:hr>
            <ns3:cad>64</ns3:cad>
          </ns3:TrackPointExtension>
        </extensions>
      </trkpt>
      <trkpt lat="44.6845091879367828369140625" lon="6.8268675170838832855224609375">
        <ele>2651</ele>
        <time>2026-08-31T07:12:31.000Z</time>
        <extensions>
          <ns3:TrackPointExtension>
            <ns3:hr>166</ns3:hr>
            <ns3:cad>64</ns3:cad>
          </ns3:TrackPointExtension>
        </extensions>
      </trkpt>
      <trkpt lat="44.68451648019254207611083984375" lon="6.82688168250024318695068359375">
        <ele>2650.39990234375</ele>
        <time>2026-08-31T07:12:32.000Z</time>
        <extensions>
          <ns3:TrackPointExtension>
            <ns3:hr>166</ns3:hr>
            <ns3:cad>64</ns3:cad>
          </ns3:TrackPointExtension>
        </extensions>
      </trkpt>
      <trkpt lat="44.6845244430005550384521484375" lon="6.82689609937369823455810546875">
        <ele>2649.800048828125</ele>
        <time>2026-08-31T07:12:33.000Z</time>
        <extensions>
          <ns3:TrackPointExtension>
            <ns3:hr>165</ns3:hr>
            <ns3:cad>63</ns3:cad>
          </ns3:TrackPointExtension>
        </extensions>
      </trkpt>
      <trkpt lat="44.68453408218920230865478515625" lon="6.82691185735166072845458984375">
        <ele>2649.39990234375</ele>
        <time>2026-08-31T07:12:34.000Z</time>
        <extensions>
          <ns3:TrackPointExtension>
            <ns3:hr>165</ns3:hr>
            <ns3:cad>64</ns3:cad>
          </ns3:TrackPointExtension>
        </extensions>
      </trkpt>
      <trkpt lat="44.684541709721088409423828125" lon="6.82692669332027435302734375">
        <ele>2649.199951171875</ele>
        <time>2026-08-31T07:12:35.000Z</time>
        <extensions>
          <ns3:TrackPointExtension>
            <ns3:hr>164</ns3:hr>
            <ns3:cad>64</ns3:cad>
          </ns3:TrackPointExtension>
        </extensions>
      </trkpt>
      <trkpt lat="44.6845519356429576873779296875" lon="6.82693742215633392333984375">
        <ele>2649</ele>
        <time>2026-08-31T07:12:36.000Z</time>
        <extensions>
          <ns3:TrackPointExtension>
            <ns3:hr>164</ns3:hr>
            <ns3:cad>64</ns3:cad>
          </ns3:TrackPointExtension>
        </extensions>
      </trkpt>
      <trkpt lat="44.6845629997551441192626953125" lon="6.82694949209690093994140625">
        <ele>2648.800048828125</ele>
        <time>2026-08-31T07:12:37.000Z</time>
        <extensions>
          <ns3:TrackPointExtension>
            <ns3:hr>163</ns3:hr>
            <ns3:cad>64</ns3:cad>
          </ns3:TrackPointExtension>
        </extensions>
      </trkpt>
      <trkpt lat="44.6845750696957111358642578125" lon="6.8269610591232776641845703125">
        <ele>2648.60009765625</ele>
        <time>2026-08-31T07:12:38.000Z</time>
        <extensions>
          <ns3:TrackPointExtension>
            <ns3:hr>162</ns3:hr>
            <ns3:cad>64</ns3:cad>
          </ns3:TrackPointExtension>
        </extensions>
      </trkpt>
      <trkpt lat="44.68458755873143672943115234375" lon="6.82697103358805179595947265625">
        <ele>2648.60009765625</ele>
        <time>2026-08-31T07:12:39.000Z</time>
        <extensions>
          <ns3:TrackPointExtension>
            <ns3:hr>158</ns3:hr>
            <ns3:cad>63</ns3:cad>
          </ns3:TrackPointExtension>
        </extensions>
      </trkpt>
      <trkpt lat="44.6845977008342742919921875" lon="6.8269796669483184814453125">
        <ele>2648.60009765625</ele>
        <time>2026-08-31T07:12:40.000Z</time>
        <extensions>
          <ns3:TrackPointExtension>
            <ns3:hr>154</ns3:hr>
            <ns3:cad>63</ns3:cad>
          </ns3:TrackPointExtension>
        </extensions>
      </trkpt>
      <trkpt lat="44.68460851348936557769775390625" lon="6.82698846794664859771728515625">
        <ele>2648.60009765625</ele>
        <time>2026-08-31T07:12:41.000Z</time>
        <extensions>
          <ns3:TrackPointExtension>
            <ns3:hr>153</ns3:hr>
            <ns3:cad>63</ns3:cad>
          </ns3:TrackPointExtension>
        </extensions>
      </trkpt>
      <trkpt lat="44.68461873941123485565185546875" lon="6.8269992806017398834228515625">
        <ele>2648.60009765625</ele>
        <time>2026-08-31T07:12:42.000Z</time>
        <extensions>
          <ns3:TrackPointExtension>
            <ns3:hr>152</ns3:hr>
            <ns3:cad>64</ns3:cad>
          </ns3:TrackPointExtension>
        </extensions>
      </trkpt>
      <trkpt lat="44.684630222618579864501953125" lon="6.827013529837131500244140625">
        <ele>2648.800048828125</ele>
        <time>2026-08-31T07:12:43.000Z</time>
        <extensions>
          <ns3:TrackPointExtension>
            <ns3:hr>151</ns3:hr>
            <ns3:cad>64</ns3:cad>
          </ns3:TrackPointExtension>
        </extensions>
      </trkpt>
      <trkpt lat="44.68463952653110027313232421875" lon="6.8270257674157619476318359375">
        <ele>2648.800048828125</ele>
        <time>2026-08-31T07:12:44.000Z</time>
        <extensions>
          <ns3:TrackPointExtension>
            <ns3:hr>150</ns3:hr>
            <ns3:cad>64</ns3:cad>
          </ns3:TrackPointExtension>
        </extensions>
      </trkpt>
      <trkpt lat="44.684648998081684112548828125" lon="6.82703976519405841827392578125">
        <ele>2649</ele>
        <time>2026-08-31T07:12:45.000Z</time>
        <extensions>
          <ns3:TrackPointExtension>
            <ns3:hr>149</ns3:hr>
            <ns3:cad>62</ns3:cad>
          </ns3:TrackPointExtension>
        </extensions>
      </trkpt>
      <trkpt lat="44.68466182239353656768798828125" lon="6.8270489014685153961181640625">
        <ele>2649</ele>
        <time>2026-08-31T07:12:46.000Z</time>
        <extensions>
          <ns3:TrackPointExtension>
            <ns3:hr>147</ns3:hr>
            <ns3:cad>62</ns3:cad>
          </ns3:TrackPointExtension>
        </extensions>
      </trkpt>
      <trkpt lat="44.68467414379119873046875" lon="6.8270582892000675201416015625">
        <ele>2649.199951171875</ele>
        <time>2026-08-31T07:12:47.000Z</time>
        <extensions>
          <ns3:TrackPointExtension>
            <ns3:hr>146</ns3:hr>
            <ns3:cad>62</ns3:cad>
          </ns3:TrackPointExtension>
        </extensions>
      </trkpt>
      <trkpt lat="44.68468395061790943145751953125" lon="6.82705921120941638946533203125">
        <ele>2649.199951171875</ele>
        <time>2026-08-31T07:12:48.000Z</time>
        <extensions>
          <ns3:TrackPointExtension>
            <ns3:hr>145</ns3:hr>
            <ns3:cad>62</ns3:cad>
          </ns3:TrackPointExtension>
        </extensions>
      </trkpt>
      <trkpt lat="44.68470037914812564849853515625" lon="6.8270505778491497039794921875">
        <ele>2649.199951171875</ele>
        <time>2026-08-31T07:12:49.000Z</time>
        <extensions>
          <ns3:TrackPointExtension>
            <ns3:hr>145</ns3:hr>
            <ns3:cad>62</ns3:cad>
          </ns3:TrackPointExtension>
        </extensions>
      </trkpt>
      <trkpt lat="44.68470641411840915679931640625" lon="6.827048398554325103759765625">
        <ele>2649.39990234375</ele>
        <time>2026-08-31T07:12:50.000Z</time>
        <extensions>
          <ns3:TrackPointExtension>
            <ns3:hr>145</ns3:hr>
            <ns3:cad>62</ns3:cad>
          </ns3:TrackPointExtension>
        </extensions>
      </trkpt>
      <trkpt lat="44.68470239080488681793212890625" lon="6.827044375240802764892578125">
        <ele>2649</ele>
        <time>2026-08-31T07:12:51.000Z</time>
        <extensions>
          <ns3:TrackPointExtension>
            <ns3:hr>146</ns3:hr>
            <ns3:cad>62</ns3:cad>
          </ns3:TrackPointExtension>
        </extensions>
      </trkpt>
      <trkpt lat="44.68469333834946155548095703125" lon="6.827032305300235748291015625">
        <ele>2648.800048828125</ele>
        <time>2026-08-31T07:12:52.000Z</time>
        <extensions>
          <ns3:TrackPointExtension>
            <ns3:hr>146</ns3:hr>
            <ns3:cad>55</ns3:cad>
          </ns3:TrackPointExtension>
        </extensions>
      </trkpt>
      <trkpt lat="44.68469618819653987884521484375" lon="6.8270126916468143463134765625">
        <ele>2648.39990234375</ele>
        <time>2026-08-31T07:12:53.000Z</time>
        <extensions>
          <ns3:TrackPointExtension>
            <ns3:hr>145</ns3:hr>
            <ns3:cad>55</ns3:cad>
          </ns3:TrackPointExtension>
        </extensions>
      </trkpt>
      <trkpt lat="44.68470121733844280242919921875" lon="6.82700154371559619903564453125">
        <ele>2648.199951171875</ele>
        <time>2026-08-31T07:12:54.000Z</time>
        <extensions>
          <ns3:TrackPointExtension>
            <ns3:hr>145</ns3:hr>
            <ns3:cad>55</ns3:cad>
          </ns3:TrackPointExtension>
        </extensions>
      </trkpt>
      <trkpt lat="44.68470691703259944915771484375" lon="6.82699064724147319793701171875">
        <ele>2647.60009765625</ele>
        <time>2026-08-31T07:12:55.000Z</time>
        <extensions>
          <ns3:TrackPointExtension>
            <ns3:hr>145</ns3:hr>
            <ns3:cad>55</ns3:cad>
          </ns3:TrackPointExtension>
        </extensions>
      </trkpt>
      <trkpt lat="44.68471504747867584228515625" lon="6.82698436081409454345703125">
        <ele>2647</ele>
        <time>2026-08-31T07:12:56.000Z</time>
        <extensions>
          <ns3:TrackPointExtension>
            <ns3:hr>144</ns3:hr>
            <ns3:cad>51</ns3:cad>
          </ns3:TrackPointExtension>
        </extensions>
      </trkpt>
      <trkpt lat="44.68472577631473541259765625" lon="6.8269811756908893585205078125">
        <ele>2646.800048828125</ele>
        <time>2026-08-31T07:12:57.000Z</time>
        <extensions>
          <ns3:TrackPointExtension>
            <ns3:hr>144</ns3:hr>
            <ns3:cad>51</ns3:cad>
          </ns3:TrackPointExtension>
        </extensions>
      </trkpt>
      <trkpt lat="44.68473851680755615234375" lon="6.82698075659573078155517578125">
        <ele>2646.800048828125</ele>
        <time>2026-08-31T07:12:58.000Z</time>
        <extensions>
          <ns3:TrackPointExtension>
            <ns3:hr>144</ns3:hr>
            <ns3:cad>57</ns3:cad>
          </ns3:TrackPointExtension>
        </extensions>
      </trkpt>
      <trkpt lat="44.68475301750004291534423828125" lon="6.82698301970958709716796875">
        <ele>2647</ele>
        <time>2026-08-31T07:12:59.000Z</time>
        <extensions>
          <ns3:TrackPointExtension>
            <ns3:hr>143</ns3:hr>
            <ns3:cad>57</ns3:cad>
          </ns3:TrackPointExtension>
        </extensions>
      </trkpt>
      <trkpt lat="44.68475938774645328521728515625" lon="6.826993413269519805908203125">
        <ele>2647</ele>
        <time>2026-08-31T07:13:00.000Z</time>
        <extensions>
          <ns3:TrackPointExtension>
            <ns3:hr>142</ns3:hr>
            <ns3:cad>57</ns3:cad>
          </ns3:TrackPointExtension>
        </extensions>
      </trkpt>
      <trkpt lat="44.6847601421177387237548828125" lon="6.8270036391913890838623046875">
        <ele>2648.39990234375</ele>
        <time>2026-08-31T07:13:01.000Z</time>
        <extensions>
          <ns3:TrackPointExtension>
            <ns3:hr>142</ns3:hr>
            <ns3:cad>57</ns3:cad>
          </ns3:TrackPointExtension>
        </extensions>
      </trkpt>
      <trkpt lat="44.68475687317550182342529296875" lon="6.82701545767486095428466796875">
        <ele>2650</ele>
        <time>2026-08-31T07:13:02.000Z</time>
        <extensions>
          <ns3:TrackPointExtension>
            <ns3:hr>141</ns3:hr>
            <ns3:cad>56</ns3:cad>
          </ns3:TrackPointExtension>
        </extensions>
      </trkpt>
      <trkpt lat="44.6847541071474552154541015625" lon="6.82702182792127132415771484375">
        <ele>2650.800048828125</ele>
        <time>2026-08-31T07:13:03.000Z</time>
        <extensions>
          <ns3:TrackPointExtension>
            <ns3:hr>141</ns3:hr>
            <ns3:cad>56</ns3:cad>
          </ns3:TrackPointExtension>
        </extensions>
      </trkpt>
      <trkpt lat="44.68475100584328174591064453125" lon="6.827030293643474578857421875">
        <ele>2651</ele>
        <time>2026-08-31T07:13:04.000Z</time>
        <extensions>
          <ns3:TrackPointExtension>
            <ns3:hr>141</ns3:hr>
            <ns3:cad>56</ns3:cad>
          </ns3:TrackPointExtension>
        </extensions>
      </trkpt>
      <trkpt lat="44.68475083820521831512451171875" lon="6.82703641243278980255126953125">
        <ele>2651.60009765625</ele>
        <time>2026-08-31T07:13:05.000Z</time>
        <extensions>
          <ns3:TrackPointExtension>
            <ns3:hr>140</ns3:hr>
            <ns3:cad>56</ns3:cad>
          </ns3:TrackPointExtension>
        </extensions>
      </trkpt>
      <trkpt lat="44.6847494132816791534423828125" lon="6.8270455487072467803955078125">
        <ele>2651.800048828125</ele>
        <time>2026-08-31T07:13:06.000Z</time>
        <extensions>
          <ns3:TrackPointExtension>
            <ns3:hr>140</ns3:hr>
            <ns3:cad>56</ns3:cad>
          </ns3:TrackPointExtension>
        </extensions>
      </trkpt>
      <trkpt lat="44.68474924564361572265625" lon="6.8270552717149257659912109375">
        <ele>2652.39990234375</ele>
        <time>2026-08-31T07:13:07.000Z</time>
        <extensions>
          <ns3:TrackPointExtension>
            <ns3:hr>141</ns3:hr>
            <ns3:cad>56</ns3:cad>
          </ns3:TrackPointExtension>
        </extensions>
      </trkpt>
      <trkpt lat="44.68475100584328174591064453125" lon="6.82706055231392383575439453125">
        <ele>2652.60009765625</ele>
        <time>2026-08-31T07:13:08.000Z</time>
        <extensions>
          <ns3:TrackPointExtension>
            <ns3:hr>141</ns3:hr>
            <ns3:cad>0</ns3:cad>
          </ns3:TrackPointExtension>
        </extensions>
      </trkpt>
      <trkpt lat="44.68475259840488433837890625" lon="6.827067844569683074951171875">
        <ele>2652.800048828125</ele>
        <time>2026-08-31T07:13:09.000Z</time>
        <extensions>
          <ns3:TrackPointExtension>
            <ns3:hr>141</ns3:hr>
            <ns3:cad>0</ns3:cad>
          </ns3:TrackPointExtension>
        </extensions>
      </trkpt>
      <trkpt lat="44.68475385569036006927490234375" lon="6.82707865722477436065673828125">
        <ele>2652.199951171875</ele>
        <time>2026-08-31T07:13:10.000Z</time>
        <extensions>
          <ns3:TrackPointExtension>
            <ns3:hr>142</ns3:hr>
            <ns3:cad>0</ns3:cad>
          </ns3:TrackPointExtension>
        </extensions>
      </trkpt>
      <trkpt lat="44.68475234694778919219970703125" lon="6.827089972794055938720703125">
        <ele>2651.800048828125</ele>
        <time>2026-08-31T07:13:11.000Z</time>
        <extensions>
          <ns3:TrackPointExtension>
            <ns3:hr>142</ns3:hr>
            <ns3:cad>0</ns3:cad>
          </ns3:TrackPointExtension>
        </extensions>
      </trkpt>
      <trkpt lat="44.684750251471996307373046875" lon="6.8270978517830371856689453125">
        <ele>2651.39990234375</ele>
        <time>2026-08-31T07:13:12.000Z</time>
        <extensions>
          <ns3:TrackPointExtension>
            <ns3:hr>142</ns3:hr>
            <ns3:cad>56</ns3:cad>
          </ns3:TrackPointExtension>
        </extensions>
      </trkpt>
      <trkpt lat="44.6847447194159030914306640625" lon="6.827100031077861785888671875">
        <ele>2651.39990234375</ele>
        <time>2026-08-31T07:13:13.000Z</time>
        <extensions>
          <ns3:TrackPointExtension>
            <ns3:hr>142</ns3:hr>
            <ns3:cad>56</ns3:cad>
          </ns3:TrackPointExtension>
        </extensions>
      </trkpt>
      <trkpt lat="44.6847371757030487060546875" lon="6.8270991928875446319580078125">
        <ele>2651.39990234375</ele>
        <time>2026-08-31T07:13:14.000Z</time>
        <extensions>
          <ns3:TrackPointExtension>
            <ns3:hr>142</ns3:hr>
            <ns3:cad>56</ns3:cad>
          </ns3:TrackPointExtension>
        </extensions>
      </trkpt>
      <trkpt lat="44.6847289614379405975341796875" lon="6.827099360525608062744140625">
        <ele>2651.39990234375</ele>
        <time>2026-08-31T07:13:15.000Z</time>
        <extensions>
          <ns3:TrackPointExtension>
            <ns3:hr>142</ns3:hr>
            <ns3:cad>62</ns3:cad>
          </ns3:TrackPointExtension>
        </extensions>
      </trkpt>
      <trkpt lat="44.68471898697316646575927734375" lon="6.82710212655365467071533203125">
        <ele>2651.39990234375</ele>
        <time>2026-08-31T07:13:16.000Z</time>
        <extensions>
          <ns3:TrackPointExtension>
            <ns3:hr>142</ns3:hr>
            <ns3:cad>66</ns3:cad>
          </ns3:TrackPointExtension>
        </extensions>
      </trkpt>
      <trkpt lat="44.6847064979374408721923828125" lon="6.82710346765816211700439453125">
        <ele>2651.60009765625</ele>
        <time>2026-08-31T07:13:17.000Z</time>
        <extensions>
          <ns3:TrackPointExtension>
            <ns3:hr>142</ns3:hr>
            <ns3:cad>71</ns3:cad>
          </ns3:TrackPointExtension>
        </extensions>
      </trkpt>
      <trkpt lat="44.68469451181590557098388671875" lon="6.8271109275519847869873046875">
        <ele>2651.60009765625</ele>
        <time>2026-08-31T07:13:18.000Z</time>
        <extensions>
          <ns3:TrackPointExtension>
            <ns3:hr>142</ns3:hr>
            <ns3:cad>71</ns3:cad>
          </ns3:TrackPointExtension>
        </extensions>
      </trkpt>
      <trkpt lat="44.68468948267400264739990234375" lon="6.82712358422577381134033203125">
        <ele>2651.39990234375</ele>
        <time>2026-08-31T07:13:19.000Z</time>
        <extensions>
          <ns3:TrackPointExtension>
            <ns3:hr>142</ns3:hr>
            <ns3:cad>71</ns3:cad>
          </ns3:TrackPointExtension>
        </extensions>
      </trkpt>
      <trkpt lat="44.68468713574111461639404296875" lon="6.8271380849182605743408203125">
        <ele>2650.39990234375</ele>
        <time>2026-08-31T07:13:20.000Z</time>
        <extensions>
          <ns3:TrackPointExtension>
            <ns3:hr>143</ns3:hr>
            <ns3:cad>71</ns3:cad>
          </ns3:TrackPointExtension>
        </extensions>
      </trkpt>
      <trkpt lat="44.6846883930265903472900390625" lon="6.8271521665155887603759765625">
        <ele>2649.39990234375</ele>
        <time>2026-08-31T07:13:21.000Z</time>
        <extensions>
          <ns3:TrackPointExtension>
            <ns3:hr>142</ns3:hr>
            <ns3:cad>70</ns3:cad>
          </ns3:TrackPointExtension>
        </extensions>
      </trkpt>
      <trkpt lat="44.6846947632730007171630859375" lon="6.827166415750980377197265625">
        <ele>2648.60009765625</ele>
        <time>2026-08-31T07:13:22.000Z</time>
        <extensions>
          <ns3:TrackPointExtension>
            <ns3:hr>142</ns3:hr>
            <ns3:cad>69</ns3:cad>
          </ns3:TrackPointExtension>
        </extensions>
      </trkpt>
      <trkpt lat="44.6847038157284259796142578125" lon="6.82717957533895969390869140625">
        <ele>2648.199951171875</ele>
        <time>2026-08-31T07:13:23.000Z</time>
        <extensions>
          <ns3:TrackPointExtension>
            <ns3:hr>142</ns3:hr>
            <ns3:cad>69</ns3:cad>
          </ns3:TrackPointExtension>
        </extensions>
      </trkpt>
      <trkpt lat="44.684715382754802703857421875" lon="6.82718963362276554107666015625">
        <ele>2647.800048828125</ele>
        <time>2026-08-31T07:13:24.000Z</time>
        <extensions>
          <ns3:TrackPointExtension>
            <ns3:hr>142</ns3:hr>
            <ns3:cad>69</ns3:cad>
          </ns3:TrackPointExtension>
        </extensions>
      </trkpt>
      <trkpt lat="44.6847264468669891357421875" lon="6.82717856951057910919189453125">
        <ele>2647.60009765625</ele>
        <time>2026-08-31T07:13:25.000Z</time>
        <extensions>
          <ns3:TrackPointExtension>
            <ns3:hr>142</ns3:hr>
            <ns3:cad>69</ns3:cad>
          </ns3:TrackPointExtension>
        </extensions>
      </trkpt>
      <trkpt lat="44.68473306857049465179443359375" lon="6.82717018760740756988525390625">
        <ele>2647.199951171875</ele>
        <time>2026-08-31T07:13:26.000Z</time>
        <extensions>
          <ns3:TrackPointExtension>
            <ns3:hr>141</ns3:hr>
            <ns3:cad>69</ns3:cad>
          </ns3:TrackPointExtension>
        </extensions>
      </trkpt>
      <trkpt lat="44.68473927117884159088134765625" lon="6.8271615542471408843994140625">
        <ele>2646.800048828125</ele>
        <time>2026-08-31T07:13:27.000Z</time>
        <extensions>
          <ns3:TrackPointExtension>
            <ns3:hr>141</ns3:hr>
            <ns3:cad>68</ns3:cad>
          </ns3:TrackPointExtension>
        </extensions>
      </trkpt>
      <trkpt lat="44.6847398579120635986328125" lon="6.8271521665155887603759765625">
        <ele>2646.39990234375</ele>
        <time>2026-08-31T07:13:28.000Z</time>
        <extensions>
          <ns3:TrackPointExtension>
            <ns3:hr>140</ns3:hr>
            <ns3:cad>68</ns3:cad>
          </ns3:TrackPointExtension>
        </extensions>
      </trkpt>
      <trkpt lat="44.68473943881690502166748046875" lon="6.82715409435331821441650390625">
        <ele>2646.39990234375</ele>
        <time>2026-08-31T07:13:29.000Z</time>
        <extensions>
          <ns3:TrackPointExtension>
            <ns3:hr>140</ns3:hr>
            <ns3:cad>68</ns3:cad>
          </ns3:TrackPointExtension>
        </extensions>
      </trkpt>
      <trkpt lat="44.68474052846431732177734375" lon="6.82715744711458683013916015625">
        <ele>2646</ele>
        <time>2026-08-31T07:13:30.000Z</time>
        <extensions>
          <ns3:TrackPointExtension>
            <ns3:hr>139</ns3:hr>
            <ns3:cad>55</ns3:cad>
          </ns3:TrackPointExtension>
        </extensions>
      </trkpt>
      <trkpt lat="44.6847406961023807525634765625" lon="6.8271558545529842376708984375">
        <ele>2646.199951171875</ele>
        <time>2026-08-31T07:13:31.000Z</time>
        <extensions>
          <ns3:TrackPointExtension>
            <ns3:hr>139</ns3:hr>
            <ns3:cad>55</ns3:cad>
          </ns3:TrackPointExtension>
        </extensions>
      </trkpt>
      <trkpt lat="44.68474128283560276031494140625" lon="6.82715644128620624542236328125">
        <ele>2646.60009765625</ele>
        <time>2026-08-31T07:13:32.000Z</time>
        <extensions>
          <ns3:TrackPointExtension>
            <ns3:hr>138</ns3:hr>
            <ns3:cad>55</ns3:cad>
          </ns3:TrackPointExtension>
        </extensions>
      </trkpt>
      <trkpt lat="44.68474321067333221435546875" lon="6.82715174742043018341064453125">
        <ele>2646.800048828125</ele>
        <time>2026-08-31T07:13:33.000Z</time>
        <extensions>
          <ns3:TrackPointExtension>
            <ns3:hr>138</ns3:hr>
            <ns3:cad>55</ns3:cad>
          </ns3:TrackPointExtension>
        </extensions>
      </trkpt>
      <trkpt lat="44.6847453899681568145751953125" lon="6.82715208269655704498291015625">
        <ele>2647</ele>
        <time>2026-08-31T07:13:34.000Z</time>
        <extensions>
          <ns3:TrackPointExtension>
            <ns3:hr>138</ns3:hr>
            <ns3:cad>55</ns3:cad>
          </ns3:TrackPointExtension>
        </extensions>
      </trkpt>
      <trkpt lat="44.68474580906331539154052734375" lon="6.82715359143912792205810546875">
        <ele>2647.199951171875</ele>
        <time>2026-08-31T07:13:35.000Z</time>
        <extensions>
          <ns3:TrackPointExtension>
            <ns3:hr>137</ns3:hr>
            <ns3:cad>55</ns3:cad>
          </ns3:TrackPointExtension>
        </extensions>
      </trkpt>
      <trkpt lat="44.6847460605204105377197265625" lon="6.82715359143912792205810546875">
        <ele>2647.199951171875</ele>
        <time>2026-08-31T07:13:36.000Z</time>
        <extensions>
          <ns3:TrackPointExtension>
            <ns3:hr>137</ns3:hr>
            <ns3:cad>0</ns3:cad>
          </ns3:TrackPointExtension>
        </extensions>
      </trkpt>
      <trkpt lat="44.6847470663487911224365234375" lon="6.82715258561074733734130859375">
        <ele>2647.199951171875</ele>
        <time>2026-08-31T07:13:37.000Z</time>
        <extensions>
          <ns3:TrackPointExtension>
            <ns3:hr>136</ns3:hr>
            <ns3:cad>0</ns3:cad>
          </ns3:TrackPointExtension>
        </extensions>
      </trkpt>
      <trkpt lat="44.68474782072007656097412109375" lon="6.8271525017917156219482421875">
        <ele>2647.199951171875</ele>
        <time>2026-08-31T07:13:38.000Z</time>
        <extensions>
          <ns3:TrackPointExtension>
            <ns3:hr>136</ns3:hr>
            <ns3:cad>0</ns3:cad>
          </ns3:TrackPointExtension>
        </extensions>
      </trkpt>
      <trkpt lat="44.6847484074532985687255859375" lon="6.827150993049144744873046875">
        <ele>2647.199951171875</ele>
        <time>2026-08-31T07:13:39.000Z</time>
        <extensions>
          <ns3:TrackPointExtension>
            <ns3:hr>135</ns3:hr>
            <ns3:cad>0</ns3:cad>
          </ns3:TrackPointExtension>
        </extensions>
      </trkpt>
      <trkpt lat="44.684746898710727691650390625" lon="6.8271501548588275909423828125">
        <ele>2647</ele>
        <time>2026-08-31T07:13:40.000Z</time>
        <extensions>
          <ns3:TrackPointExtension>
            <ns3:hr>135</ns3:hr>
            <ns3:cad>0</ns3:cad>
          </ns3:TrackPointExtension>
        </extensions>
      </trkpt>
      <trkpt lat="44.68474580906331539154052734375" lon="6.8271486461162567138671875">
        <ele>2647</ele>
        <time>2026-08-31T07:13:41.000Z</time>
        <extensions>
          <ns3:TrackPointExtension>
            <ns3:hr>135</ns3:hr>
            <ns3:cad>0</ns3:cad>
          </ns3:TrackPointExtension>
        </extensions>
      </trkpt>
      <trkpt lat="44.6847450546920299530029296875" lon="6.82714722119271755218505859375">
        <ele>2646.800048828125</ele>
        <time>2026-08-31T07:13:42.000Z</time>
        <extensions>
          <ns3:TrackPointExtension>
            <ns3:hr>135</ns3:hr>
            <ns3:cad>0</ns3:cad>
          </ns3:TrackPointExtension>
        </extensions>
      </trkpt>
      <trkpt lat="44.68474346213042736053466796875" lon="6.827147305011749267578125">
        <ele>2646.800048828125</ele>
        <time>2026-08-31T07:13:43.000Z</time>
        <extensions>
          <ns3:TrackPointExtension>
            <ns3:hr>135</ns3:hr>
            <ns3:cad>0</ns3:cad>
          </ns3:TrackPointExtension>
        </extensions>
      </trkpt>
      <trkpt lat="44.68474295921623706817626953125" lon="6.82714797556400299072265625">
        <ele>2646.800048828125</ele>
        <time>2026-08-31T07:13:44.000Z</time>
        <extensions>
          <ns3:TrackPointExtension>
            <ns3:hr>136</ns3:hr>
            <ns3:cad>0</ns3:cad>
          </ns3:TrackPointExtension>
        </extensions>
      </trkpt>
      <trkpt lat="44.68474362976849079132080078125" lon="6.82715007103979587554931640625">
        <ele>2646.800048828125</ele>
        <time>2026-08-31T07:13:45.000Z</time>
        <extensions>
          <ns3:TrackPointExtension>
            <ns3:hr>136</ns3:hr>
            <ns3:cad>0</ns3:cad>
          </ns3:TrackPointExtension>
        </extensions>
      </trkpt>
      <trkpt lat="44.68474128283560276031494140625" lon="6.827148310840129852294921875">
        <ele>2646.800048828125</ele>
        <time>2026-08-31T07:13:46.000Z</time>
        <extensions>
          <ns3:TrackPointExtension>
            <ns3:hr>136</ns3:hr>
            <ns3:cad>0</ns3:cad>
          </ns3:TrackPointExtension>
        </extensions>
      </trkpt>
      <trkpt lat="44.68474077992141246795654296875" lon="6.827148981392383575439453125">
        <ele>2646.800048828125</ele>
        <time>2026-08-31T07:13:47.000Z</time>
        <extensions>
          <ns3:TrackPointExtension>
            <ns3:hr>137</ns3:hr>
            <ns3:cad>0</ns3:cad>
          </ns3:TrackPointExtension>
        </extensions>
      </trkpt>
      <trkpt lat="44.68474161811172962188720703125" lon="6.82714772410690784454345703125">
        <ele>2646.800048828125</ele>
        <time>2026-08-31T07:13:48.000Z</time>
        <extensions>
          <ns3:TrackPointExtension>
            <ns3:hr>136</ns3:hr>
            <ns3:cad>0</ns3:cad>
          </ns3:TrackPointExtension>
        </extensions>
      </trkpt>
      <trkpt lat="44.68474094755947589874267578125" lon="6.827148310840129852294921875">
        <ele>2646.800048828125</ele>
        <time>2026-08-31T07:13:49.000Z</time>
        <extensions>
          <ns3:TrackPointExtension>
            <ns3:hr>134</ns3:hr>
            <ns3:cad>0</ns3:cad>
          </ns3:TrackPointExtension>
        </extensions>
      </trkpt>
      <trkpt lat="44.68474044464528560638427734375" lon="6.827148310840129852294921875">
        <ele>2646.800048828125</ele>
        <time>2026-08-31T07:13:50.000Z</time>
        <extensions>
          <ns3:TrackPointExtension>
            <ns3:hr>129</ns3:hr>
            <ns3:cad>0</ns3:cad>
          </ns3:TrackPointExtension>
        </extensions>
      </trkpt>
      <trkpt lat="44.684739522635936737060546875" lon="6.8271484784781932830810546875">
        <ele>2646.800048828125</ele>
        <time>2026-08-31T07:13:51.000Z</time>
        <extensions>
          <ns3:TrackPointExtension>
            <ns3:hr>124</ns3:hr>
            <ns3:cad>0</ns3:cad>
          </ns3:TrackPointExtension>
        </extensions>
      </trkpt>
      <trkpt lat="44.68473977409303188323974609375" lon="6.82714588008821010589599609375">
        <ele>2646.800048828125</ele>
        <time>2026-08-31T07:13:52.000Z</time>
        <extensions>
          <ns3:TrackPointExtension>
            <ns3:hr>123</ns3:hr>
            <ns3:cad>0</ns3:cad>
          </ns3:TrackPointExtension>
        </extensions>
      </trkpt>
      <trkpt lat="44.68474161811172962188720703125" lon="6.82714621536433696746826171875">
        <ele>2646.800048828125</ele>
        <time>2026-08-31T07:13:53.000Z</time>
        <extensions>
          <ns3:TrackPointExtension>
            <ns3:hr>122</ns3:hr>
            <ns3:cad>0</ns3:cad>
          </ns3:TrackPointExtension>
        </extensions>
      </trkpt>
      <trkpt lat="44.684741199016571044921875" lon="6.8271417729556560516357421875">
        <ele>2646.800048828125</ele>
        <time>2026-08-31T07:13:54.000Z</time>
        <extensions>
          <ns3:TrackPointExtension>
            <ns3:hr>121</ns3:hr>
            <ns3:cad>0</ns3:cad>
          </ns3:TrackPointExtension>
        </extensions>
      </trkpt>
      <trkpt lat="44.68474161811172962188720703125" lon="6.82713992893695831298828125">
        <ele>2646.800048828125</ele>
        <time>2026-08-31T07:13:55.000Z</time>
        <extensions>
          <ns3:TrackPointExtension>
            <ns3:hr>120</ns3:hr>
            <ns3:cad>0</ns3:cad>
          </ns3:TrackPointExtension>
        </extensions>
      </trkpt>
      <trkpt lat="44.68474212102591991424560546875" lon="6.8271405994892120361328125">
        <ele>2646.800048828125</ele>
        <time>2026-08-31T07:13:56.000Z</time>
        <extensions>
          <ns3:TrackPointExtension>
            <ns3:hr>118</ns3:hr>
            <ns3:cad>0</ns3:cad>
          </ns3:TrackPointExtension>
        </extensions>
      </trkpt>
      <trkpt lat="44.68474195338785648345947265625" lon="6.82714152149856090545654296875">
        <ele>2646.800048828125</ele>
        <time>2026-08-31T07:13:57.000Z</time>
        <extensions>
          <ns3:TrackPointExtension>
            <ns3:hr>117</ns3:hr>
            <ns3:cad>0</ns3:cad>
          </ns3:TrackPointExtension>
        </extensions>
      </trkpt>
      <trkpt lat="44.68474111519753932952880859375" lon="6.82714018039405345916748046875">
        <ele>2646.800048828125</ele>
        <time>2026-08-31T07:13:58.000Z</time>
        <extensions>
          <ns3:TrackPointExtension>
            <ns3:hr>116</ns3:hr>
            <ns3:cad>0</ns3:cad>
          </ns3:TrackPointExtension>
        </extensions>
      </trkpt>
      <trkpt lat="44.68474044464528560638427734375" lon="6.827143616974353790283203125">
        <ele>2646.800048828125</ele>
        <time>2026-08-31T07:13:59.000Z</time>
        <extensions>
          <ns3:TrackPointExtension>
            <ns3:hr>115</ns3:hr>
            <ns3:cad>0</ns3:cad>
          </ns3:TrackPointExtension>
        </extensions>
      </trkpt>
      <trkpt lat="44.684742875397205352783203125" lon="6.8271481432020664215087890625">
        <ele>2647</ele>
        <time>2026-08-31T07:14:00.000Z</time>
        <extensions>
          <ns3:TrackPointExtension>
            <ns3:hr>114</ns3:hr>
            <ns3:cad>0</ns3:cad>
          </ns3:TrackPointExtension>
        </extensions>
      </trkpt>
      <trkpt lat="44.68474295921623706817626953125" lon="6.82715560309588909149169921875">
        <ele>2647</ele>
        <time>2026-08-31T07:14:01.000Z</time>
        <extensions>
          <ns3:TrackPointExtension>
            <ns3:hr>114</ns3:hr>
            <ns3:cad>0</ns3:cad>
          </ns3:TrackPointExtension>
        </extensions>
      </trkpt>
      <trkpt lat="44.68474161811172962188720703125" lon="6.82715862058103084564208984375">
        <ele>2647</ele>
        <time>2026-08-31T07:14:02.000Z</time>
        <extensions>
          <ns3:TrackPointExtension>
            <ns3:hr>113</ns3:hr>
            <ns3:cad>0</ns3:cad>
          </ns3:TrackPointExtension>
        </extensions>
      </trkpt>
      <trkpt lat="44.68474161811172962188720703125" lon="6.82715878821909427642822265625">
        <ele>2647</ele>
        <time>2026-08-31T07:14:03.000Z</time>
        <extensions>
          <ns3:TrackPointExtension>
            <ns3:hr>113</ns3:hr>
            <ns3:cad>0</ns3:cad>
          </ns3:TrackPointExtension>
        </extensions>
      </trkpt>
      <trkpt lat="44.68474161811172962188720703125" lon="6.82715878821909427642822265625">
        <ele>2646.800048828125</ele>
        <time>2026-08-31T07:14:04.000Z</time>
        <extensions>
          <ns3:TrackPointExtension>
            <ns3:hr>113</ns3:hr>
            <ns3:cad>0</ns3:cad>
          </ns3:TrackPointExtension>
        </extensions>
      </trkpt>
      <trkpt lat="44.68474161811172962188720703125" lon="6.82715878821909427642822265625">
        <ele>2646.800048828125</ele>
        <time>2026-08-31T07:14:05.000Z</time>
        <extensions>
          <ns3:TrackPointExtension>
            <ns3:hr>113</ns3:hr>
            <ns3:cad>0</ns3:cad>
          </ns3:TrackPointExtension>
        </extensions>
      </trkpt>
      <trkpt lat="44.68474161811172962188720703125" lon="6.82715912349522113800048828125">
        <ele>2646.800048828125</ele>
        <time>2026-08-31T07:14:06.000Z</time>
        <extensions>
          <ns3:TrackPointExtension>
            <ns3:hr>112</ns3:hr>
            <ns3:cad>0</ns3:cad>
          </ns3:TrackPointExtension>
        </extensions>
      </trkpt>
      <trkpt lat="44.68474228866398334503173828125" lon="6.82716197334229946136474609375">
        <ele>2646.800048828125</ele>
        <time>2026-08-31T07:14:07.000Z</time>
        <extensions>
          <ns3:TrackPointExtension>
            <ns3:hr>112</ns3:hr>
            <ns3:cad>0</ns3:cad>
          </ns3:TrackPointExtension>
        </extensions>
      </trkpt>
      <trkpt lat="44.68474052846431732177734375" lon="6.82716029696166515350341796875">
        <ele>2646.800048828125</ele>
        <time>2026-08-31T07:14:08.000Z</time>
        <extensions>
          <ns3:TrackPointExtension>
            <ns3:hr>112</ns3:hr>
            <ns3:cad>0</ns3:cad>
          </ns3:TrackPointExtension>
        </extensions>
      </trkpt>
      <trkpt lat="44.6847383491694927215576171875" lon="6.82715962640941143035888671875">
        <ele>2646.800048828125</ele>
        <time>2026-08-31T07:14:09.000Z</time>
        <extensions>
          <ns3:TrackPointExtension>
            <ns3:hr>112</ns3:hr>
            <ns3:cad>0</ns3:cad>
          </ns3:TrackPointExtension>
        </extensions>
      </trkpt>
      <trkpt lat="44.68473742716014385223388671875" lon="6.827159710228443145751953125">
        <ele>2647</ele>
        <time>2026-08-31T07:14:10.000Z</time>
        <extensions>
          <ns3:TrackPointExtension>
            <ns3:hr>112</ns3:hr>
            <ns3:cad>0</ns3:cad>
          </ns3:TrackPointExtension>
        </extensions>
      </trkpt>
      <trkpt lat="44.6847371757030487060546875" lon="6.8271655775606632232666015625">
        <ele>2647.199951171875</ele>
        <time>2026-08-31T07:14:11.000Z</time>
        <extensions>
          <ns3:TrackPointExtension>
            <ns3:hr>111</ns3:hr>
            <ns3:cad>0</ns3:cad>
          </ns3:TrackPointExtension>
        </extensions>
      </trkpt>
      <trkpt lat="44.68473608605563640594482421875" lon="6.827167756855487823486328125">
        <ele>2647.39990234375</ele>
        <time>2026-08-31T07:14:12.000Z</time>
        <extensions>
          <ns3:TrackPointExtension>
            <ns3:hr>111</ns3:hr>
            <ns3:cad>0</ns3:cad>
          </ns3:TrackPointExtension>
        </extensions>
      </trkpt>
      <trkpt lat="44.68473541550338268280029296875" lon="6.8271672539412975311279296875">
        <ele>2647.60009765625</ele>
        <time>2026-08-31T07:14:13.000Z</time>
        <extensions>
          <ns3:TrackPointExtension>
            <ns3:hr>111</ns3:hr>
            <ns3:cad>0</ns3:cad>
          </ns3:TrackPointExtension>
        </extensions>
      </trkpt>
      <trkpt lat="44.68474161811172962188720703125" lon="6.82715878821909427642822265625">
        <ele>2647.800048828125</ele>
        <time>2026-08-31T07:14:14.000Z</time>
        <extensions>
          <ns3:TrackPointExtension>
            <ns3:hr>111</ns3:hr>
            <ns3:cad>0</ns3:cad>
          </ns3:TrackPointExtension>
        </extensions>
      </trkpt>
      <trkpt lat="44.68474161811172962188720703125" lon="6.82715878821909427642822265625">
        <ele>2648</ele>
        <time>2026-08-31T07:14:15.000Z</time>
        <extensions>
          <ns3:TrackPointExtension>
            <ns3:hr>111</ns3:hr>
            <ns3:cad>0</ns3:cad>
          </ns3:TrackPointExtension>
        </extensions>
      </trkpt>
      <trkpt lat="44.68474161811172962188720703125" lon="6.82715878821909427642822265625">
        <ele>2648.199951171875</ele>
        <time>2026-08-31T07:14:16.000Z</time>
        <extensions>
          <ns3:TrackPointExtension>
            <ns3:hr>111</ns3:hr>
            <ns3:cad>0</ns3:cad>
          </ns3:TrackPointExtension>
        </extensions>
      </trkpt>
      <trkpt lat="44.68474161811172962188720703125" lon="6.82715878821909427642822265625">
        <ele>2648.199951171875</ele>
        <time>2026-08-31T07:14:17.000Z</time>
        <extensions>
          <ns3:TrackPointExtension>
            <ns3:hr>112</ns3:hr>
            <ns3:cad>0</ns3:cad>
          </ns3:TrackPointExtension>
        </extensions>
      </trkpt>
      <trkpt lat="44.68474161811172962188720703125" lon="6.82715878821909427642822265625">
        <ele>2648.199951171875</ele>
        <time>2026-08-31T07:14:18.000Z</time>
        <extensions>
          <ns3:TrackPointExtension>
            <ns3:hr>113</ns3:hr>
            <ns3:cad>0</ns3:cad>
          </ns3:TrackPointExtension>
        </extensions>
      </trkpt>
      <trkpt lat="44.68474161811172962188720703125" lon="6.82715878821909427642822265625">
        <ele>2648.199951171875</ele>
        <time>2026-08-31T07:14:19.000Z</time>
        <extensions>
          <ns3:TrackPointExtension>
            <ns3:hr>117</ns3:hr>
            <ns3:cad>0</ns3:cad>
          </ns3:TrackPointExtension>
        </extensions>
      </trkpt>
      <trkpt lat="44.68473776243627071380615234375" lon="6.82715945877134799957275390625">
        <ele>2648.199951171875</ele>
        <time>2026-08-31T07:14:20.000Z</time>
        <extensions>
          <ns3:TrackPointExtension>
            <ns3:hr>120</ns3:hr>
            <ns3:cad>0</ns3:cad>
          </ns3:TrackPointExtension>
        </extensions>
      </trkpt>
      <trkpt lat="44.68473650515079498291015625" lon="6.8271535076200962066650390625">
        <ele>2648.199951171875</ele>
        <time>2026-08-31T07:14:21.000Z</time>
        <extensions>
          <ns3:TrackPointExtension>
            <ns3:hr>120</ns3:hr>
            <ns3:cad>0</ns3:cad>
          </ns3:TrackPointExtension>
        </extensions>
      </trkpt>
      <trkpt lat="44.68473793007433414459228515625" lon="6.827153675258159637451171875">
        <ele>2648.199951171875</ele>
        <time>2026-08-31T07:14:22.000Z</time>
        <extensions>
          <ns3:TrackPointExtension>
            <ns3:hr>120</ns3:hr>
            <ns3:cad>0</ns3:cad>
          </ns3:TrackPointExtension>
        </extensions>
      </trkpt>
      <trkpt lat="44.68473776243627071380615234375" lon="6.82715174742043018341064453125">
        <ele>2648.199951171875</ele>
        <time>2026-08-31T07:14:23.000Z</time>
        <extensions>
          <ns3:TrackPointExtension>
            <ns3:hr>120</ns3:hr>
            <ns3:cad>0</ns3:cad>
          </ns3:TrackPointExtension>
        </extensions>
      </trkpt>
      <trkpt lat="44.68473851680755615234375" lon="6.827152334153652191162109375">
        <ele>2648</ele>
        <time>2026-08-31T07:14:24.000Z</time>
        <extensions>
          <ns3:TrackPointExtension>
            <ns3:hr>120</ns3:hr>
            <ns3:cad>0</ns3:cad>
          </ns3:TrackPointExtension>
        </extensions>
      </trkpt>
      <trkpt lat="44.6847371757030487060546875" lon="6.82715057395398616790771484375">
        <ele>2648</ele>
        <time>2026-08-31T07:14:25.000Z</time>
        <extensions>
          <ns3:TrackPointExtension>
            <ns3:hr>119</ns3:hr>
            <ns3:cad>0</ns3:cad>
          </ns3:TrackPointExtension>
        </extensions>
      </trkpt>
      <trkpt lat="44.68474161811172962188720703125" lon="6.82715878821909427642822265625">
        <ele>2648</ele>
        <time>2026-08-31T07:14:26.000Z</time>
        <extensions>
          <ns3:TrackPointExtension>
            <ns3:hr>119</ns3:hr>
            <ns3:cad>0</ns3:cad>
          </ns3:TrackPointExtension>
        </extensions>
      </trkpt>
      <trkpt lat="44.68474161811172962188720703125" lon="6.82715878821909427642822265625">
        <ele>2648</ele>
        <time>2026-08-31T07:14:27.000Z</time>
        <extensions>
          <ns3:TrackPointExtension>
            <ns3:hr>119</ns3:hr>
            <ns3:cad>0</ns3:cad>
          </ns3:TrackPointExtension>
        </extensions>
      </trkpt>
      <trkpt lat="44.68474161811172962188720703125" lon="6.82715878821909427642822265625">
        <ele>2648</ele>
        <time>2026-08-31T07:14:28.000Z</time>
        <extensions>
          <ns3:TrackPointExtension>
            <ns3:hr>119</ns3:hr>
            <ns3:cad>0</ns3:cad>
          </ns3:TrackPointExtension>
        </extensions>
      </trkpt>
      <trkpt lat="44.68474161811172962188720703125" lon="6.82715878821909427642822265625">
        <ele>2648.199951171875</ele>
        <time>2026-08-31T07:14:29.000Z</time>
        <extensions>
          <ns3:TrackPointExtension>
            <ns3:hr>119</ns3:hr>
            <ns3:cad>0</ns3:cad>
          </ns3:TrackPointExtension>
        </extensions>
      </trkpt>
      <trkpt lat="44.68474161811172962188720703125" lon="6.82715878821909427642822265625">
        <ele>2648.39990234375</ele>
        <time>2026-08-31T07:14:30.000Z</time>
        <extensions>
          <ns3:TrackPointExtension>
            <ns3:hr>118</ns3:hr>
            <ns3:cad>0</ns3:cad>
          </ns3:TrackPointExtension>
        </extensions>
      </trkpt>
      <trkpt lat="44.68474161811172962188720703125" lon="6.82715878821909427642822265625">
        <ele>2648.60009765625</ele>
        <time>2026-08-31T07:14:31.000Z</time>
        <extensions>
          <ns3:TrackPointExtension>
            <ns3:hr>118</ns3:hr>
            <ns3:cad>0</ns3:cad>
          </ns3:TrackPointExtension>
        </extensions>
      </trkpt>
      <trkpt lat="44.68474161811172962188720703125" lon="6.82715878821909427642822265625">
        <ele>2648.60009765625</ele>
        <time>2026-08-31T07:14:32.000Z</time>
        <extensions>
          <ns3:TrackPointExtension>
            <ns3:hr>118</ns3:hr>
            <ns3:cad>0</ns3:cad>
          </ns3:TrackPointExtension>
        </extensions>
      </trkpt>
      <trkpt lat="44.6847413666546344757080078125" lon="6.82715199887752532958984375">
        <ele>2648.60009765625</ele>
        <time>2026-08-31T07:14:33.000Z</time>
        <extensions>
          <ns3:TrackPointExtension>
            <ns3:hr>118</ns3:hr>
            <ns3:cad>0</ns3:cad>
          </ns3:TrackPointExtension>
        </extensions>
      </trkpt>
      <trkpt lat="44.684740863740444183349609375" lon="6.82715610601007938385009765625">
        <ele>2648.60009765625</ele>
        <time>2026-08-31T07:14:34.000Z</time>
        <extensions>
          <ns3:TrackPointExtension>
            <ns3:hr>117</ns3:hr>
            <ns3:cad>0</ns3:cad>
          </ns3:TrackPointExtension>
        </extensions>
      </trkpt>
      <trkpt lat="44.68474161811172962188720703125" lon="6.82715878821909427642822265625">
        <ele>2648.39990234375</ele>
        <time>2026-08-31T07:14:35.000Z</time>
        <extensions>
          <ns3:TrackPointExtension>
            <ns3:hr>117</ns3:hr>
            <ns3:cad>0</ns3:cad>
          </ns3:TrackPointExtension>
        </extensions>
      </trkpt>
      <trkpt lat="44.68474161811172962188720703125" lon="6.82715878821909427642822265625">
        <ele>2648.39990234375</ele>
        <time>2026-08-31T07:14:36.000Z</time>
        <extensions>
          <ns3:TrackPointExtension>
            <ns3:hr>116</ns3:hr>
            <ns3:cad>0</ns3:cad>
          </ns3:TrackPointExtension>
        </extensions>
      </trkpt>
      <trkpt lat="44.68473860062658786773681640625" lon="6.8271553516387939453125">
        <ele>2648.39990234375</ele>
        <time>2026-08-31T07:14:37.000Z</time>
        <extensions>
          <ns3:TrackPointExtension>
            <ns3:hr>115</ns3:hr>
            <ns3:cad>0</ns3:cad>
          </ns3:TrackPointExtension>
        </extensions>
      </trkpt>
      <trkpt lat="44.6847413666546344757080078125" lon="6.82715560309588909149169921875">
        <ele>2648.39990234375</ele>
        <time>2026-08-31T07:14:38.000Z</time>
        <extensions>
          <ns3:TrackPointExtension>
            <ns3:hr>115</ns3:hr>
            <ns3:cad>0</ns3:cad>
          </ns3:TrackPointExtension>
        </extensions>
      </trkpt>
      <trkpt lat="44.6847383491694927215576171875" lon="6.827156357467174530029296875">
        <ele>2648.39990234375</ele>
        <time>2026-08-31T07:14:39.000Z</time>
        <extensions>
          <ns3:TrackPointExtension>
            <ns3:hr>114</ns3:hr>
            <ns3:cad>0</ns3:cad>
          </ns3:TrackPointExtension>
        </extensions>
      </trkpt>
      <trkpt lat="44.68473943881690502166748046875" lon="6.82714571245014667510986328125">
        <ele>2648.39990234375</ele>
        <time>2026-08-31T07:14:40.000Z</time>
        <extensions>
          <ns3:TrackPointExtension>
            <ns3:hr>114</ns3:hr>
            <ns3:cad>0</ns3:cad>
          </ns3:TrackPointExtension>
        </extensions>
      </trkpt>
      <trkpt lat="44.68473910354077816009521484375" lon="6.827155016362667083740234375">
        <ele>2648.39990234375</ele>
        <time>2026-08-31T07:14:41.000Z</time>
        <extensions>
          <ns3:TrackPointExtension>
            <ns3:hr>113</ns3:hr>
            <ns3:cad>0</ns3:cad>
          </ns3:TrackPointExtension>
        </extensions>
      </trkpt>
      <trkpt lat="44.68474161811172962188720703125" lon="6.82715878821909427642822265625">
        <ele>2648.39990234375</ele>
        <time>2026-08-31T07:14:42.000Z</time>
        <extensions>
          <ns3:TrackPointExtension>
            <ns3:hr>113</ns3:hr>
            <ns3:cad>0</ns3:cad>
          </ns3:TrackPointExtension>
        </extensions>
      </trkpt>
      <trkpt lat="44.68473658896982669830322265625" lon="6.8271535076200962066650390625">
        <ele>2648.39990234375</ele>
        <time>2026-08-31T07:14:43.000Z</time>
        <extensions>
          <ns3:TrackPointExtension>
            <ns3:hr>113</ns3:hr>
            <ns3:cad>0</ns3:cad>
          </ns3:TrackPointExtension>
        </extensions>
      </trkpt>
      <trkpt lat="44.68474161811172962188720703125" lon="6.82715878821909427642822265625">
        <ele>2648.39990234375</ele>
        <time>2026-08-31T07:14:44.000Z</time>
        <extensions>
          <ns3:TrackPointExtension>
            <ns3:hr>113</ns3:hr>
            <ns3:cad>0</ns3:cad>
          </ns3:TrackPointExtension>
        </extensions>
      </trkpt>
      <trkpt lat="44.68474161811172962188720703125" lon="6.82715878821909427642822265625">
        <ele>2648.199951171875</ele>
        <time>2026-08-31T07:14:45.000Z</time>
        <extensions>
          <ns3:TrackPointExtension>
            <ns3:hr>112</ns3:hr>
            <ns3:cad>0</ns3:cad>
          </ns3:TrackPointExtension>
        </extensions>
      </trkpt>
      <trkpt lat="44.68474161811172962188720703125" lon="6.82715878821909427642822265625">
        <ele>2648.199951171875</ele>
        <time>2026-08-31T07:14:46.000Z</time>
        <extensions>
          <ns3:TrackPointExtension>
            <ns3:hr>111</ns3:hr>
            <ns3:cad>68</ns3:cad>
          </ns3:TrackPointExtension>
        </extensions>
      </trkpt>
      <trkpt lat="44.68473759479820728302001953125" lon="6.82715199887752532958984375">
        <ele>2648</ele>
        <time>2026-08-31T07:14:47.000Z</time>
        <extensions>
          <ns3:TrackPointExtension>
            <ns3:hr>110</ns3:hr>
            <ns3:cad>68</ns3:cad>
          </ns3:TrackPointExtension>
        </extensions>
      </trkpt>
      <trkpt lat="44.68473558314144611358642578125" lon="6.827143616974353790283203125">
        <ele>2647.800048828125</ele>
        <time>2026-08-31T07:14:48.000Z</time>
        <extensions>
          <ns3:TrackPointExtension>
            <ns3:hr>109</ns3:hr>
            <ns3:cad>68</ns3:cad>
          </ns3:TrackPointExtension>
        </extensions>
      </trkpt>
      <trkpt lat="44.684735499322414398193359375" lon="6.82714437134563922882080078125">
        <ele>2647.60009765625</ele>
        <time>2026-08-31T07:14:49.000Z</time>
        <extensions>
          <ns3:TrackPointExtension>
            <ns3:hr>108</ns3:hr>
            <ns3:cad>0</ns3:cad>
          </ns3:TrackPointExtension>
        </extensions>
      </trkpt>
      <trkpt lat="44.6847371757030487060546875" lon="6.827148310840129852294921875">
        <ele>2647.800048828125</ele>
        <time>2026-08-31T07:14:50.000Z</time>
        <extensions>
          <ns3:TrackPointExtension>
            <ns3:hr>108</ns3:hr>
            <ns3:cad>0</ns3:cad>
          </ns3:TrackPointExtension>
        </extensions>
      </trkpt>
      <trkpt lat="44.684739522635936737060546875" lon="6.82714789174497127532958984375">
        <ele>2648.199951171875</ele>
        <time>2026-08-31T07:14:51.000Z</time>
        <extensions>
          <ns3:TrackPointExtension>
            <ns3:hr>108</ns3:hr>
            <ns3:cad>0</ns3:cad>
          </ns3:TrackPointExtension>
        </extensions>
      </trkpt>
      <trkpt lat="44.684740193188190460205078125" lon="6.82714998722076416015625">
        <ele>2648.39990234375</ele>
        <time>2026-08-31T07:14:52.000Z</time>
        <extensions>
          <ns3:TrackPointExtension>
            <ns3:hr>108</ns3:hr>
            <ns3:cad>0</ns3:cad>
          </ns3:TrackPointExtension>
        </extensions>
      </trkpt>
      <trkpt lat="44.6847398579120635986328125" lon="6.8271525017917156219482421875">
        <ele>2648.39990234375</ele>
        <time>2026-08-31T07:14:53.000Z</time>
        <extensions>
          <ns3:TrackPointExtension>
            <ns3:hr>107</ns3:hr>
            <ns3:cad>0</ns3:cad>
          </ns3:TrackPointExtension>
        </extensions>
      </trkpt>
      <trkpt lat="44.6847398579120635986328125" lon="6.82715543545782566070556640625">
        <ele>2648.800048828125</ele>
        <time>2026-08-31T07:14:54.000Z</time>
        <extensions>
          <ns3:TrackPointExtension>
            <ns3:hr>106</ns3:hr>
            <ns3:cad>0</ns3:cad>
          </ns3:TrackPointExtension>
        </extensions>
      </trkpt>
      <trkpt lat="44.6847410313785076141357421875" lon="6.8271565251052379608154296875">
        <ele>2648.800048828125</ele>
        <time>2026-08-31T07:14:55.000Z</time>
        <extensions>
          <ns3:TrackPointExtension>
            <ns3:hr>105</ns3:hr>
            <ns3:cad>0</ns3:cad>
          </ns3:TrackPointExtension>
        </extensions>
      </trkpt>
      <trkpt lat="44.68474052846431732177734375" lon="6.8271553516387939453125">
        <ele>2648.800048828125</ele>
        <time>2026-08-31T07:14:56.000Z</time>
        <extensions>
          <ns3:TrackPointExtension>
            <ns3:hr>105</ns3:hr>
            <ns3:cad>0</ns3:cad>
          </ns3:TrackPointExtension>
        </extensions>
      </trkpt>
      <trkpt lat="44.68474027700722217559814453125" lon="6.82715468108654022216796875">
        <ele>2648.60009765625</ele>
        <time>2026-08-31T07:14:57.000Z</time>
        <extensions>
          <ns3:TrackPointExtension>
            <ns3:hr>105</ns3:hr>
            <ns3:cad>0</ns3:cad>
          </ns3:TrackPointExtension>
        </extensions>
      </trkpt>
      <trkpt lat="44.68474161811172962188720703125" lon="6.82715878821909427642822265625">
        <ele>2648.39990234375</ele>
        <time>2026-08-31T07:14:58.000Z</time>
        <extensions>
          <ns3:TrackPointExtension>
            <ns3:hr>105</ns3:hr>
            <ns3:cad>0</ns3:cad>
          </ns3:TrackPointExtension>
        </extensions>
      </trkpt>
      <trkpt lat="44.68474161811172962188720703125" lon="6.82715878821909427642822265625">
        <ele>2648</ele>
        <time>2026-08-31T07:14:59.000Z</time>
        <extensions>
          <ns3:TrackPointExtension>
            <ns3:hr>105</ns3:hr>
            <ns3:cad>0</ns3:cad>
          </ns3:TrackPointExtension>
        </extensions>
      </trkpt>
      <trkpt lat="44.68474161811172962188720703125" lon="6.82715878821909427642822265625">
        <ele>2647.800048828125</ele>
        <time>2026-08-31T07:15:00.000Z</time>
        <extensions>
          <ns3:TrackPointExtension>
            <ns3:hr>105</ns3:hr>
            <ns3:cad>0</ns3:cad>
          </ns3:TrackPointExtension>
        </extensions>
      </trkpt>
      <trkpt lat="44.68474161811172962188720703125" lon="6.82715878821909427642822265625">
        <ele>2647.60009765625</ele>
        <time>2026-08-31T07:15:01.000Z</time>
        <extensions>
          <ns3:TrackPointExtension>
            <ns3:hr>104</ns3:hr>
            <ns3:cad>0</ns3:cad>
          </ns3:TrackPointExtension>
        </extensions>
      </trkpt>
      <trkpt lat="44.68474161811172962188720703125" lon="6.82715878821909427642822265625">
        <ele>2647.39990234375</ele>
        <time>2026-08-31T07:15:02.000Z</time>
        <extensions>
          <ns3:TrackPointExtension>
            <ns3:hr>104</ns3:hr>
            <ns3:cad>0</ns3:cad>
          </ns3:TrackPointExtension>
        </extensions>
      </trkpt>
      <trkpt lat="44.68474161811172962188720703125" lon="6.82715878821909427642822265625">
        <ele>2647.39990234375</ele>
        <time>2026-08-31T07:15:03.000Z</time>
        <extensions>
          <ns3:TrackPointExtension>
            <ns3:hr>104</ns3:hr>
            <ns3:cad>0</ns3:cad>
          </ns3:TrackPointExtension>
        </extensions>
      </trkpt>
      <trkpt lat="44.68474161811172962188720703125" lon="6.82715878821909427642822265625">
        <ele>2647.39990234375</ele>
        <time>2026-08-31T07:15:04.000Z</time>
        <extensions>
          <ns3:TrackPointExtension>
            <ns3:hr>104</ns3:hr>
            <ns3:cad>0</ns3:cad>
          </ns3:TrackPointExtension>
        </extensions>
      </trkpt>
      <trkpt lat="44.68474161811172962188720703125" lon="6.82715878821909427642822265625">
        <ele>2647.39990234375</ele>
        <time>2026-08-31T07:15:05.000Z</time>
        <extensions>
          <ns3:TrackPointExtension>
            <ns3:hr>104</ns3:hr>
            <ns3:cad>0</ns3:cad>
          </ns3:TrackPointExtension>
        </extensions>
      </trkpt>
      <trkpt lat="44.68474161811172962188720703125" lon="6.82715878821909427642822265625">
        <ele>2647.39990234375</ele>
        <time>2026-08-31T07:15:06.000Z</time>
        <extensions>
          <ns3:TrackPointExtension>
            <ns3:hr>103</ns3:hr>
            <ns3:cad>0</ns3:cad>
          </ns3:TrackPointExtension>
        </extensions>
      </trkpt>
      <trkpt lat="44.68474161811172962188720703125" lon="6.82715878821909427642822265625">
        <ele>2647.60009765625</ele>
        <time>2026-08-31T07:15:07.000Z</time>
        <extensions>
          <ns3:TrackPointExtension>
            <ns3:hr>104</ns3:hr>
            <ns3:cad>0</ns3:cad>
          </ns3:TrackPointExtension>
        </extensions>
      </trkpt>
      <trkpt lat="44.68474161811172962188720703125" lon="6.82715878821909427642822265625">
        <ele>2647.60009765625</ele>
        <time>2026-08-31T07:15:08.000Z</time>
        <extensions>
          <ns3:TrackPointExtension>
            <ns3:hr>104</ns3:hr>
            <ns3:cad>0</ns3:cad>
          </ns3:TrackPointExtension>
        </extensions>
      </trkpt>
      <trkpt lat="44.68474161811172962188720703125" lon="6.82715878821909427642822265625">
        <ele>2647.800048828125</ele>
        <time>2026-08-31T07:15:09.000Z</time>
        <extensions>
          <ns3:TrackPointExtension>
            <ns3:hr>104</ns3:hr>
            <ns3:cad>0</ns3:cad>
          </ns3:TrackPointExtension>
        </extensions>
      </trkpt>
      <trkpt lat="44.68474161811172962188720703125" lon="6.82715878821909427642822265625">
        <ele>2647.800048828125</ele>
        <time>2026-08-31T07:15:10.000Z</time>
        <extensions>
          <ns3:TrackPointExtension>
            <ns3:hr>104</ns3:hr>
            <ns3:cad>0</ns3:cad>
          </ns3:TrackPointExtension>
        </extensions>
      </trkpt>
      <trkpt lat="44.68474161811172962188720703125" lon="6.82715878821909427642822265625">
        <ele>2647.800048828125</ele>
        <time>2026-08-31T07:15:11.000Z</time>
        <extensions>
          <ns3:TrackPointExtension>
            <ns3:hr>104</ns3:hr>
            <ns3:cad>0</ns3:cad>
          </ns3:TrackPointExtension>
        </extensions>
      </trkpt>
      <trkpt lat="44.68474161811172962188720703125" lon="6.82715878821909427642822265625">
        <ele>2647.800048828125</ele>
        <time>2026-08-31T07:15:12.000Z</time>
        <extensions>
          <ns3:TrackPointExtension>
            <ns3:hr>104</ns3:hr>
            <ns3:cad>0</ns3:cad>
          </ns3:TrackPointExtension>
        </extensions>
      </trkpt>
      <trkpt lat="44.68474161811172962188720703125" lon="6.82715878821909427642822265625">
        <ele>2647.800048828125</ele>
        <time>2026-08-31T07:15:13.000Z</time>
        <extensions>
          <ns3:TrackPointExtension>
            <ns3:hr>104</ns3:hr>
            <ns3:cad>0</ns3:cad>
          </ns3:TrackPointExtension>
        </extensions>
      </trkpt>
      <trkpt lat="44.68474161811172962188720703125" lon="6.82715878821909427642822265625">
        <ele>2647.800048828125</ele>
        <time>2026-08-31T07:15:14.000Z</time>
        <extensions>
          <ns3:TrackPointExtension>
            <ns3:hr>105</ns3:hr>
            <ns3:cad>0</ns3:cad>
          </ns3:TrackPointExtension>
        </extensions>
      </trkpt>
      <trkpt lat="44.68474161811172962188720703125" lon="6.82715878821909427642822265625">
        <ele>2648</ele>
        <time>2026-08-31T07:15:15.000Z</time>
        <extensions>
          <ns3:TrackPointExtension>
            <ns3:hr>104</ns3:hr>
            <ns3:cad>0</ns3:cad>
          </ns3:TrackPointExtension>
        </extensions>
      </trkpt>
      <trkpt lat="44.68474161811172962188720703125" lon="6.82715878821909427642822265625">
        <ele>2648</ele>
        <time>2026-08-31T07:15:16.000Z</time>
        <extensions>
          <ns3:TrackPointExtension>
            <ns3:hr>104</ns3:hr>
            <ns3:cad>0</ns3:cad>
          </ns3:TrackPointExtension>
        </extensions>
      </trkpt>
      <trkpt lat="44.68474161811172962188720703125" lon="6.82715878821909427642822265625">
        <ele>2648.199951171875</ele>
        <time>2026-08-31T07:15:17.000Z</time>
        <extensions>
          <ns3:TrackPointExtension>
            <ns3:hr>105</ns3:hr>
            <ns3:cad>0</ns3:cad>
          </ns3:TrackPointExtension>
        </extensions>
      </trkpt>
      <trkpt lat="44.68474161811172962188720703125" lon="6.82715878821909427642822265625">
        <ele>2648.199951171875</ele>
        <time>2026-08-31T07:15:18.000Z</time>
        <extensions>
          <ns3:TrackPointExtension>
            <ns3:hr>104</ns3:hr>
            <ns3:cad>0</ns3:cad>
          </ns3:TrackPointExtension>
        </extensions>
      </trkpt>
      <trkpt lat="44.68474161811172962188720703125" lon="6.82715878821909427642822265625">
        <ele>2648.39990234375</ele>
        <time>2026-08-31T07:15:19.000Z</time>
        <extensions>
          <ns3:TrackPointExtension>
            <ns3:hr>104</ns3:hr>
            <ns3:cad>0</ns3:cad>
          </ns3:TrackPointExtension>
        </extensions>
      </trkpt>
      <trkpt lat="44.68474161811172962188720703125" lon="6.82715878821909427642822265625">
        <ele>2648.60009765625</ele>
        <time>2026-08-31T07:15:20.000Z</time>
        <extensions>
          <ns3:TrackPointExtension>
            <ns3:hr>105</ns3:hr>
            <ns3:cad>0</ns3:cad>
          </ns3:TrackPointExtension>
        </extensions>
      </trkpt>
      <trkpt lat="44.68474161811172962188720703125" lon="6.82715878821909427642822265625">
        <ele>2648.800048828125</ele>
        <time>2026-08-31T07:15:21.000Z</time>
        <extensions>
          <ns3:TrackPointExtension>
            <ns3:hr>104</ns3:hr>
            <ns3:cad>0</ns3:cad>
          </ns3:TrackPointExtension>
        </extensions>
      </trkpt>
      <trkpt lat="44.68474161811172962188720703125" lon="6.82715878821909427642822265625">
        <ele>2649.39990234375</ele>
        <time>2026-08-31T07:15:22.000Z</time>
        <extensions>
          <ns3:TrackPointExtension>
            <ns3:hr>104</ns3:hr>
            <ns3:cad>0</ns3:cad>
          </ns3:TrackPointExtension>
        </extensions>
      </trkpt>
      <trkpt lat="44.68474161811172962188720703125" lon="6.82715878821909427642822265625">
        <ele>2649.60009765625</ele>
        <time>2026-08-31T07:15:23.000Z</time>
        <extensions>
          <ns3:TrackPointExtension>
            <ns3:hr>105</ns3:hr>
            <ns3:cad>0</ns3:cad>
          </ns3:TrackPointExtension>
        </extensions>
      </trkpt>
      <trkpt lat="44.68474161811172962188720703125" lon="6.82715878821909427642822265625">
        <ele>2649.800048828125</ele>
        <time>2026-08-31T07:15:24.000Z</time>
        <extensions>
          <ns3:TrackPointExtension>
            <ns3:hr>105</ns3:hr>
            <ns3:cad>0</ns3:cad>
          </ns3:TrackPointExtension>
        </extensions>
      </trkpt>
      <trkpt lat="44.68474161811172962188720703125" lon="6.82715878821909427642822265625">
        <ele>2649.800048828125</ele>
        <time>2026-08-31T07:15:25.000Z</time>
        <extensions>
          <ns3:TrackPointExtension>
            <ns3:hr>105</ns3:hr>
            <ns3:cad>0</ns3:cad>
          </ns3:TrackPointExtension>
        </extensions>
      </trkpt>
      <trkpt lat="44.68474161811172962188720703125" lon="6.82715878821909427642822265625">
        <ele>2649.60009765625</ele>
        <time>2026-08-31T07:15:26.000Z</time>
        <extensions>
          <ns3:TrackPointExtension>
            <ns3:hr>105</ns3:hr>
            <ns3:cad>0</ns3:cad>
          </ns3:TrackPointExtension>
        </extensions>
      </trkpt>
      <trkpt lat="44.68474161811172962188720703125" lon="6.82715878821909427642822265625">
        <ele>2649</ele>
        <time>2026-08-31T07:15:27.000Z</time>
        <extensions>
          <ns3:TrackPointExtension>
            <ns3:hr>105</ns3:hr>
            <ns3:cad>0</ns3:cad>
          </ns3:TrackPointExtension>
        </extensions>
      </trkpt>
      <trkpt lat="44.68474161811172962188720703125" lon="6.82715878821909427642822265625">
        <ele>2648.800048828125</ele>
        <time>2026-08-31T07:15:28.000Z</time>
        <extensions>
          <ns3:TrackPointExtension>
            <ns3:hr>104</ns3:hr>
            <ns3:cad>0</ns3:cad>
          </ns3:TrackPointExtension>
        </extensions>
      </trkpt>
      <trkpt lat="44.68474161811172962188720703125" lon="6.82715878821909427642822265625">
        <ele>2648.60009765625</ele>
        <time>2026-08-31T07:15:29.000Z</time>
        <extensions>
          <ns3:TrackPointExtension>
            <ns3:hr>105</ns3:hr>
            <ns3:cad>0</ns3:cad>
          </ns3:TrackPointExtension>
        </extensions>
      </trkpt>
      <trkpt lat="44.68474161811172962188720703125" lon="6.82715878821909427642822265625">
        <ele>2648.39990234375</ele>
        <time>2026-08-31T07:15:30.000Z</time>
        <extensions>
          <ns3:TrackPointExtension>
            <ns3:hr>105</ns3:hr>
            <ns3:cad>0</ns3:cad>
          </ns3:TrackPointExtension>
        </extensions>
      </trkpt>
      <trkpt lat="44.68474161811172962188720703125" lon="6.82715878821909427642822265625">
        <ele>2648.39990234375</ele>
        <time>2026-08-31T07:15:31.000Z</time>
        <extensions>
          <ns3:TrackPointExtension>
            <ns3:hr>105</ns3:hr>
            <ns3:cad>0</ns3:cad>
          </ns3:TrackPointExtension>
        </extensions>
      </trkpt>
      <trkpt lat="44.68474161811172962188720703125" lon="6.82715878821909427642822265625">
        <ele>2648.39990234375</ele>
        <time>2026-08-31T07:15:32.000Z</time>
        <extensions>
          <ns3:TrackPointExtension>
            <ns3:hr>105</ns3:hr>
            <ns3:cad>0</ns3:cad>
          </ns3:TrackPointExtension>
        </extensions>
      </trkpt>
      <trkpt lat="44.68474161811172962188720703125" lon="6.82715878821909427642822265625">
        <ele>2648.60009765625</ele>
        <time>2026-08-31T07:15:33.000Z</time>
        <extensions>
          <ns3:TrackPointExtension>
            <ns3:hr>105</ns3:hr>
            <ns3:cad>0</ns3:cad>
          </ns3:TrackPointExtension>
        </extensions>
      </trkpt>
      <trkpt lat="44.68474161811172962188720703125" lon="6.82715878821909427642822265625">
        <ele>2648.800048828125</ele>
        <time>2026-08-31T07:15:34.000Z</time>
        <extensions>
          <ns3:TrackPointExtension>
            <ns3:hr>105</ns3:hr>
            <ns3:cad>0</ns3:cad>
          </ns3:TrackPointExtension>
        </extensions>
      </trkpt>
      <trkpt lat="44.684739522635936737060546875" lon="6.82715493254363536834716796875">
        <ele>2649</ele>
        <time>2026-08-31T07:15:35.000Z</time>
        <extensions>
          <ns3:TrackPointExtension>
            <ns3:hr>105</ns3:hr>
            <ns3:cad>0</ns3:cad>
          </ns3:TrackPointExtension>
        </extensions>
      </trkpt>
      <trkpt lat="44.6847400255501270294189453125" lon="6.82715610601007938385009765625">
        <ele>2649.199951171875</ele>
        <time>2026-08-31T07:15:36.000Z</time>
        <extensions>
          <ns3:TrackPointExtension>
            <ns3:hr>105</ns3:hr>
            <ns3:cad>0</ns3:cad>
          </ns3:TrackPointExtension>
        </extensions>
      </trkpt>
      <trkpt lat="44.68474212102591991424560546875" lon="6.82715225033462047576904296875">
        <ele>2649.199951171875</ele>
        <time>2026-08-31T07:15:37.000Z</time>
        <extensions>
          <ns3:TrackPointExtension>
            <ns3:hr>105</ns3:hr>
            <ns3:cad>0</ns3:cad>
          </ns3:TrackPointExtension>
        </extensions>
      </trkpt>
      <trkpt lat="44.6847398579120635986328125" lon="6.82715476490557193756103515625">
        <ele>2649</ele>
        <time>2026-08-31T07:15:38.000Z</time>
        <extensions>
          <ns3:TrackPointExtension>
            <ns3:hr>105</ns3:hr>
            <ns3:cad>0</ns3:cad>
          </ns3:TrackPointExtension>
        </extensions>
      </trkpt>
      <trkpt lat="44.68474161811172962188720703125" lon="6.82715878821909427642822265625">
        <ele>2648.800048828125</ele>
        <time>2026-08-31T07:15:39.000Z</time>
        <extensions>
          <ns3:TrackPointExtension>
            <ns3:hr>105</ns3:hr>
            <ns3:cad>0</ns3:cad>
          </ns3:TrackPointExtension>
        </extensions>
      </trkpt>
      <trkpt lat="44.68474094755947589874267578125" lon="6.82714856229722499847412109375">
        <ele>2648.60009765625</ele>
        <time>2026-08-31T07:15:40.000Z</time>
        <extensions>
          <ns3:TrackPointExtension>
            <ns3:hr>105</ns3:hr>
            <ns3:cad>0</ns3:cad>
          </ns3:TrackPointExtension>
        </extensions>
      </trkpt>
      <trkpt lat="44.684742875397205352783203125" lon="6.827150993049144744873046875">
        <ele>2648.39990234375</ele>
        <time>2026-08-31T07:15:41.000Z</time>
        <extensions>
          <ns3:TrackPointExtension>
            <ns3:hr>105</ns3:hr>
            <ns3:cad>0</ns3:cad>
          </ns3:TrackPointExtension>
        </extensions>
      </trkpt>
      <trkpt lat="44.68474396504461765289306640625" lon="6.82715124450623989105224609375">
        <ele>2648</ele>
        <time>2026-08-31T07:15:42.000Z</time>
        <extensions>
          <ns3:TrackPointExtension>
            <ns3:hr>105</ns3:hr>
            <ns3:cad>0</ns3:cad>
          </ns3:TrackPointExtension>
        </extensions>
      </trkpt>
      <trkpt lat="44.68474161811172962188720703125" lon="6.82715878821909427642822265625">
        <ele>2648</ele>
        <time>2026-08-31T07:15:43.000Z</time>
        <extensions>
          <ns3:TrackPointExtension>
            <ns3:hr>105</ns3:hr>
            <ns3:cad>0</ns3:cad>
          </ns3:TrackPointExtension>
        </extensions>
      </trkpt>
      <trkpt lat="44.68474161811172962188720703125" lon="6.82715878821909427642822265625">
        <ele>2648</ele>
        <time>2026-08-31T07:15:44.000Z</time>
        <extensions>
          <ns3:TrackPointExtension>
            <ns3:hr>106</ns3:hr>
            <ns3:cad>0</ns3:cad>
          </ns3:TrackPointExtension>
        </extensions>
      </trkpt>
      <trkpt lat="44.68474161811172962188720703125" lon="6.82715878821909427642822265625">
        <ele>2648</ele>
        <time>2026-08-31T07:15:45.000Z</time>
        <extensions>
          <ns3:TrackPointExtension>
            <ns3:hr>105</ns3:hr>
            <ns3:cad>0</ns3:cad>
          </ns3:TrackPointExtension>
        </extensions>
      </trkpt>
      <trkpt lat="44.68474161811172962188720703125" lon="6.82715878821909427642822265625">
        <ele>2648</ele>
        <time>2026-08-31T07:15:46.000Z</time>
        <extensions>
          <ns3:TrackPointExtension>
            <ns3:hr>105</ns3:hr>
            <ns3:cad>0</ns3:cad>
          </ns3:TrackPointExtension>
        </extensions>
      </trkpt>
      <trkpt lat="44.68474161811172962188720703125" lon="6.82715878821909427642822265625">
        <ele>2648.39990234375</ele>
        <time>2026-08-31T07:15:47.000Z</time>
        <extensions>
          <ns3:TrackPointExtension>
            <ns3:hr>105</ns3:hr>
            <ns3:cad>0</ns3:cad>
          </ns3:TrackPointExtension>
        </extensions>
      </trkpt>
      <trkpt lat="44.68474161811172962188720703125" lon="6.82715878821909427642822265625">
        <ele>2648.60009765625</ele>
        <time>2026-08-31T07:15:48.000Z</time>
        <extensions>
          <ns3:TrackPointExtension>
            <ns3:hr>105</ns3:hr>
            <ns3:cad>0</ns3:cad>
          </ns3:TrackPointExtension>
        </extensions>
      </trkpt>
      <trkpt lat="44.68474161811172962188720703125" lon="6.82715878821909427642822265625">
        <ele>2648.800048828125</ele>
        <time>2026-08-31T07:15:49.000Z</time>
        <extensions>
          <ns3:TrackPointExtension>
            <ns3:hr>105</ns3:hr>
            <ns3:cad>0</ns3:cad>
          </ns3:TrackPointExtension>
        </extensions>
      </trkpt>
      <trkpt lat="44.68474161811172962188720703125" lon="6.82715878821909427642822265625">
        <ele>2648.800048828125</ele>
        <time>2026-08-31T07:15:50.000Z</time>
        <extensions>
          <ns3:TrackPointExtension>
            <ns3:hr>106</ns3:hr>
            <ns3:cad>0</ns3:cad>
          </ns3:TrackPointExtension>
        </extensions>
      </trkpt>
      <trkpt lat="44.68474161811172962188720703125" lon="6.82715878821909427642822265625">
        <ele>2649</ele>
        <time>2026-08-31T07:15:51.000Z</time>
        <extensions>
          <ns3:TrackPointExtension>
            <ns3:hr>105</ns3:hr>
            <ns3:cad>0</ns3:cad>
          </ns3:TrackPointExtension>
        </extensions>
      </trkpt>
      <trkpt lat="44.68474161811172962188720703125" lon="6.82715878821909427642822265625">
        <ele>2649</ele>
        <time>2026-08-31T07:15:52.000Z</time>
        <extensions>
          <ns3:TrackPointExtension>
            <ns3:hr>105</ns3:hr>
            <ns3:cad>0</ns3:cad>
          </ns3:TrackPointExtension>
        </extensions>
      </trkpt>
      <trkpt lat="44.68474161811172962188720703125" lon="6.82715878821909427642822265625">
        <ele>2649.199951171875</ele>
        <time>2026-08-31T07:15:53.000Z</time>
        <extensions>
          <ns3:TrackPointExtension>
            <ns3:hr>105</ns3:hr>
            <ns3:cad>0</ns3:cad>
          </ns3:TrackPointExtension>
        </extensions>
      </trkpt>
      <trkpt lat="44.68474161811172962188720703125" lon="6.82715878821909427642822265625">
        <ele>2649</ele>
        <time>2026-08-31T07:15:54.000Z</time>
        <extensions>
          <ns3:TrackPointExtension>
            <ns3:hr>106</ns3:hr>
            <ns3:cad>0</ns3:cad>
          </ns3:TrackPointExtension>
        </extensions>
      </trkpt>
      <trkpt lat="44.68474161811172962188720703125" lon="6.82715878821909427642822265625">
        <ele>2648.800048828125</ele>
        <time>2026-08-31T07:15:55.000Z</time>
        <extensions>
          <ns3:TrackPointExtension>
            <ns3:hr>107</ns3:hr>
            <ns3:cad>0</ns3:cad>
          </ns3:TrackPointExtension>
        </extensions>
      </trkpt>
      <trkpt lat="44.68474262394011020660400390625" lon="6.82715074159204959869384765625">
        <ele>2648.60009765625</ele>
        <time>2026-08-31T07:15:56.000Z</time>
        <extensions>
          <ns3:TrackPointExtension>
            <ns3:hr>107</ns3:hr>
            <ns3:cad>0</ns3:cad>
          </ns3:TrackPointExtension>
        </extensions>
      </trkpt>
      <trkpt lat="44.68473910354077816009521484375" lon="6.82715577073395252227783203125">
        <ele>2648.39990234375</ele>
        <time>2026-08-31T07:15:57.000Z</time>
        <extensions>
          <ns3:TrackPointExtension>
            <ns3:hr>108</ns3:hr>
            <ns3:cad>0</ns3:cad>
          </ns3:TrackPointExtension>
        </extensions>
      </trkpt>
      <trkpt lat="44.68474161811172962188720703125" lon="6.82715878821909427642822265625">
        <ele>2648.199951171875</ele>
        <time>2026-08-31T07:15:58.000Z</time>
        <extensions>
          <ns3:TrackPointExtension>
            <ns3:hr>108</ns3:hr>
            <ns3:cad>0</ns3:cad>
          </ns3:TrackPointExtension>
        </extensions>
      </trkpt>
      <trkpt lat="44.68474161811172962188720703125" lon="6.82715878821909427642822265625">
        <ele>2648</ele>
        <time>2026-08-31T07:15:59.000Z</time>
        <extensions>
          <ns3:TrackPointExtension>
            <ns3:hr>108</ns3:hr>
            <ns3:cad>0</ns3:cad>
          </ns3:TrackPointExtension>
        </extensions>
      </trkpt>
      <trkpt lat="44.68474161811172962188720703125" lon="6.82715878821909427642822265625">
        <ele>2648</ele>
        <time>2026-08-31T07:16:00.000Z</time>
        <extensions>
          <ns3:TrackPointExtension>
            <ns3:hr>108</ns3:hr>
            <ns3:cad>0</ns3:cad>
          </ns3:TrackPointExtension>
        </extensions>
      </trkpt>
      <trkpt lat="44.68474161811172962188720703125" lon="6.82715878821909427642822265625">
        <ele>2648.199951171875</ele>
        <time>2026-08-31T07:16:01.000Z</time>
        <extensions>
          <ns3:TrackPointExtension>
            <ns3:hr>108</ns3:hr>
            <ns3:cad>0</ns3:cad>
          </ns3:TrackPointExtension>
        </extensions>
      </trkpt>
      <trkpt lat="44.68474161811172962188720703125" lon="6.82715878821909427642822265625">
        <ele>2648.39990234375</ele>
        <time>2026-08-31T07:16:02.000Z</time>
        <extensions>
          <ns3:TrackPointExtension>
            <ns3:hr>110</ns3:hr>
            <ns3:cad>0</ns3:cad>
          </ns3:TrackPointExtension>
        </extensions>
      </trkpt>
      <trkpt lat="44.68474161811172962188720703125" lon="6.82715878821909427642822265625">
        <ele>2648.60009765625</ele>
        <time>2026-08-31T07:16:03.000Z</time>
        <extensions>
          <ns3:TrackPointExtension>
            <ns3:hr>110</ns3:hr>
            <ns3:cad>0</ns3:cad>
          </ns3:TrackPointExtension>
        </extensions>
      </trkpt>
      <trkpt lat="44.68474161811172962188720703125" lon="6.82715878821909427642822265625">
        <ele>2648.800048828125</ele>
        <time>2026-08-31T07:16:04.000Z</time>
        <extensions>
          <ns3:TrackPointExtension>
            <ns3:hr>110</ns3:hr>
            <ns3:cad>0</ns3:cad>
          </ns3:TrackPointExtension>
        </extensions>
      </trkpt>
      <trkpt lat="44.68474161811172962188720703125" lon="6.82715878821909427642822265625">
        <ele>2648.800048828125</ele>
        <time>2026-08-31T07:16:05.000Z</time>
        <extensions>
          <ns3:TrackPointExtension>
            <ns3:hr>110</ns3:hr>
            <ns3:cad>0</ns3:cad>
          </ns3:TrackPointExtension>
        </extensions>
      </trkpt>
      <trkpt lat="44.68474161811172962188720703125" lon="6.82715878821909427642822265625">
        <ele>2648.800048828125</ele>
        <time>2026-08-31T07:16:06.000Z</time>
        <extensions>
          <ns3:TrackPointExtension>
            <ns3:hr>110</ns3:hr>
            <ns3:cad>0</ns3:cad>
          </ns3:TrackPointExtension>
        </extensions>
      </trkpt>
      <trkpt lat="44.68474161811172962188720703125" lon="6.82715878821909427642822265625">
        <ele>2648.60009765625</ele>
        <time>2026-08-31T07:16:07.000Z</time>
        <extensions>
          <ns3:TrackPointExtension>
            <ns3:hr>110</ns3:hr>
            <ns3:cad>0</ns3:cad>
          </ns3:TrackPointExtension>
        </extensions>
      </trkpt>
      <trkpt lat="44.68474161811172962188720703125" lon="6.82715878821909427642822265625">
        <ele>2648.39990234375</ele>
        <time>2026-08-31T07:16:08.000Z</time>
        <extensions>
          <ns3:TrackPointExtension>
            <ns3:hr>110</ns3:hr>
            <ns3:cad>0</ns3:cad>
          </ns3:TrackPointExtension>
        </extensions>
      </trkpt>
      <trkpt lat="44.68474161811172962188720703125" lon="6.82715878821909427642822265625">
        <ele>2648</ele>
        <time>2026-08-31T07:16:09.000Z</time>
        <extensions>
          <ns3:TrackPointExtension>
            <ns3:hr>109</ns3:hr>
            <ns3:cad>0</ns3:cad>
          </ns3:TrackPointExtension>
        </extensions>
      </trkpt>
      <trkpt lat="44.68474161811172962188720703125" lon="6.82715878821909427642822265625">
        <ele>2647.60009765625</ele>
        <time>2026-08-31T07:16:10.000Z</time>
        <extensions>
          <ns3:TrackPointExtension>
            <ns3:hr>109</ns3:hr>
            <ns3:cad>0</ns3:cad>
          </ns3:TrackPointExtension>
        </extensions>
      </trkpt>
      <trkpt lat="44.68474161811172962188720703125" lon="6.82715878821909427642822265625">
        <ele>2647.39990234375</ele>
        <time>2026-08-31T07:16:11.000Z</time>
        <extensions>
          <ns3:TrackPointExtension>
            <ns3:hr>108</ns3:hr>
            <ns3:cad>0</ns3:cad>
          </ns3:TrackPointExtension>
        </extensions>
      </trkpt>
      <trkpt lat="44.68474161811172962188720703125" lon="6.82715878821909427642822265625">
        <ele>2647.199951171875</ele>
        <time>2026-08-31T07:16:12.000Z</time>
        <extensions>
          <ns3:TrackPointExtension>
            <ns3:hr>108</ns3:hr>
            <ns3:cad>0</ns3:cad>
          </ns3:TrackPointExtension>
        </extensions>
      </trkpt>
      <trkpt lat="44.68474161811172962188720703125" lon="6.82715878821909427642822265625">
        <ele>2647</ele>
        <time>2026-08-31T07:16:13.000Z</time>
        <extensions>
          <ns3:TrackPointExtension>
            <ns3:hr>108</ns3:hr>
            <ns3:cad>0</ns3:cad>
          </ns3:TrackPointExtension>
        </extensions>
      </trkpt>
      <trkpt lat="44.68474161811172962188720703125" lon="6.82715878821909427642822265625">
        <ele>2647</ele>
        <time>2026-08-31T07:16:14.000Z</time>
        <extensions>
          <ns3:TrackPointExtension>
            <ns3:hr>107</ns3:hr>
            <ns3:cad>0</ns3:cad>
          </ns3:TrackPointExtension>
        </extensions>
      </trkpt>
      <trkpt lat="44.68474161811172962188720703125" lon="6.82715878821909427642822265625">
        <ele>2647</ele>
        <time>2026-08-31T07:16:15.000Z</time>
        <extensions>
          <ns3:TrackPointExtension>
            <ns3:hr>107</ns3:hr>
            <ns3:cad>0</ns3:cad>
          </ns3:TrackPointExtension>
        </extensions>
      </trkpt>
      <trkpt lat="44.68474161811172962188720703125" lon="6.82715878821909427642822265625">
        <ele>2647</ele>
        <time>2026-08-31T07:16:16.000Z</time>
        <extensions>
          <ns3:TrackPointExtension>
            <ns3:hr>107</ns3:hr>
            <ns3:cad>0</ns3:cad>
          </ns3:TrackPointExtension>
        </extensions>
      </trkpt>
      <trkpt lat="44.68474161811172962188720703125" lon="6.82715878821909427642822265625">
        <ele>2647.199951171875</ele>
        <time>2026-08-31T07:16:17.000Z</time>
        <extensions>
          <ns3:TrackPointExtension>
            <ns3:hr>107</ns3:hr>
            <ns3:cad>0</ns3:cad>
          </ns3:TrackPointExtension>
        </extensions>
      </trkpt>
      <trkpt lat="44.68474161811172962188720703125" lon="6.82715878821909427642822265625">
        <ele>2647.199951171875</ele>
        <time>2026-08-31T07:16:18.000Z</time>
        <extensions>
          <ns3:TrackPointExtension>
            <ns3:hr>107</ns3:hr>
            <ns3:cad>0</ns3:cad>
          </ns3:TrackPointExtension>
        </extensions>
      </trkpt>
      <trkpt lat="44.68474161811172962188720703125" lon="6.82715878821909427642822265625">
        <ele>2647.199951171875</ele>
        <time>2026-08-31T07:16:19.000Z</time>
        <extensions>
          <ns3:TrackPointExtension>
            <ns3:hr>106</ns3:hr>
            <ns3:cad>0</ns3:cad>
          </ns3:TrackPointExtension>
        </extensions>
      </trkpt>
      <trkpt lat="44.68474161811172962188720703125" lon="6.82715878821909427642822265625">
        <ele>2647.199951171875</ele>
        <time>2026-08-31T07:16:20.000Z</time>
        <extensions>
          <ns3:TrackPointExtension>
            <ns3:hr>106</ns3:hr>
            <ns3:cad>0</ns3:cad>
          </ns3:TrackPointExtension>
        </extensions>
      </trkpt>
      <trkpt lat="44.68474161811172962188720703125" lon="6.82715878821909427642822265625">
        <ele>2647.39990234375</ele>
        <time>2026-08-31T07:16:21.000Z</time>
        <extensions>
          <ns3:TrackPointExtension>
            <ns3:hr>106</ns3:hr>
            <ns3:cad>0</ns3:cad>
          </ns3:TrackPointExtension>
        </extensions>
      </trkpt>
      <trkpt lat="44.68474161811172962188720703125" lon="6.82715878821909427642822265625">
        <ele>2647.39990234375</ele>
        <time>2026-08-31T07:16:22.000Z</time>
        <extensions>
          <ns3:TrackPointExtension>
            <ns3:hr>105</ns3:hr>
            <ns3:cad>0</ns3:cad>
          </ns3:TrackPointExtension>
        </extensions>
      </trkpt>
      <trkpt lat="44.68474161811172962188720703125" lon="6.82715878821909427642822265625">
        <ele>2647.39990234375</ele>
        <time>2026-08-31T07:16:23.000Z</time>
        <extensions>
          <ns3:TrackPointExtension>
            <ns3:hr>104</ns3:hr>
            <ns3:cad>0</ns3:cad>
          </ns3:TrackPointExtension>
        </extensions>
      </trkpt>
      <trkpt lat="44.68474161811172962188720703125" lon="6.82715878821909427642822265625">
        <ele>2647.60009765625</ele>
        <time>2026-08-31T07:16:24.000Z</time>
        <extensions>
          <ns3:TrackPointExtension>
            <ns3:hr>103</ns3:hr>
            <ns3:cad>0</ns3:cad>
          </ns3:TrackPointExtension>
        </extensions>
      </trkpt>
      <trkpt lat="44.68474161811172962188720703125" lon="6.82715878821909427642822265625">
        <ele>2647.60009765625</ele>
        <time>2026-08-31T07:16:25.000Z</time>
        <extensions>
          <ns3:TrackPointExtension>
            <ns3:hr>103</ns3:hr>
            <ns3:cad>0</ns3:cad>
          </ns3:TrackPointExtension>
        </extensions>
      </trkpt>
      <trkpt lat="44.68474161811172962188720703125" lon="6.82715878821909427642822265625">
        <ele>2647.60009765625</ele>
        <time>2026-08-31T07:16:26.000Z</time>
        <extensions>
          <ns3:TrackPointExtension>
            <ns3:hr>103</ns3:hr>
            <ns3:cad>0</ns3:cad>
          </ns3:TrackPointExtension>
        </extensions>
      </trkpt>
      <trkpt lat="44.68474161811172962188720703125" lon="6.82715878821909427642822265625">
        <ele>2647.60009765625</ele>
        <time>2026-08-31T07:16:27.000Z</time>
        <extensions>
          <ns3:TrackPointExtension>
            <ns3:hr>103</ns3:hr>
            <ns3:cad>0</ns3:cad>
          </ns3:TrackPointExtension>
        </extensions>
      </trkpt>
      <trkpt lat="44.68474161811172962188720703125" lon="6.82715878821909427642822265625">
        <ele>2647.39990234375</ele>
        <time>2026-08-31T07:16:28.000Z</time>
        <extensions>
          <ns3:TrackPointExtension>
            <ns3:hr>103</ns3:hr>
            <ns3:cad>0</ns3:cad>
          </ns3:TrackPointExtension>
        </extensions>
      </trkpt>
      <trkpt lat="44.68474161811172962188720703125" lon="6.82715878821909427642822265625">
        <ele>2647.39990234375</ele>
        <time>2026-08-31T07:16:29.000Z</time>
        <extensions>
          <ns3:TrackPointExtension>
            <ns3:hr>103</ns3:hr>
            <ns3:cad>0</ns3:cad>
          </ns3:TrackPointExtension>
        </extensions>
      </trkpt>
      <trkpt lat="44.68474161811172962188720703125" lon="6.82715878821909427642822265625">
        <ele>2647.39990234375</ele>
        <time>2026-08-31T07:16:30.000Z</time>
        <extensions>
          <ns3:TrackPointExtension>
            <ns3:hr>102</ns3:hr>
            <ns3:cad>0</ns3:cad>
          </ns3:TrackPointExtension>
        </extensions>
      </trkpt>
      <trkpt lat="44.68474161811172962188720703125" lon="6.82715878821909427642822265625">
        <ele>2647.199951171875</ele>
        <time>2026-08-31T07:16:31.000Z</time>
        <extensions>
          <ns3:TrackPointExtension>
            <ns3:hr>102</ns3:hr>
            <ns3:cad>0</ns3:cad>
          </ns3:TrackPointExtension>
        </extensions>
      </trkpt>
      <trkpt lat="44.68474161811172962188720703125" lon="6.82715878821909427642822265625">
        <ele>2647.199951171875</ele>
        <time>2026-08-31T07:16:32.000Z</time>
        <extensions>
          <ns3:TrackPointExtension>
            <ns3:hr>102</ns3:hr>
            <ns3:cad>0</ns3:cad>
          </ns3:TrackPointExtension>
        </extensions>
      </trkpt>
      <trkpt lat="44.68474161811172962188720703125" lon="6.82715878821909427642822265625">
        <ele>2647.199951171875</ele>
        <time>2026-08-31T07:16:33.000Z</time>
        <extensions>
          <ns3:TrackPointExtension>
            <ns3:hr>102</ns3:hr>
            <ns3:cad>0</ns3:cad>
          </ns3:TrackPointExtension>
        </extensions>
      </trkpt>
      <trkpt lat="44.68474161811172962188720703125" lon="6.82715878821909427642822265625">
        <ele>2647.199951171875</ele>
        <time>2026-08-31T07:16:34.000Z</time>
        <extensions>
          <ns3:TrackPointExtension>
            <ns3:hr>102</ns3:hr>
            <ns3:cad>0</ns3:cad>
          </ns3:TrackPointExtension>
        </extensions>
      </trkpt>
      <trkpt lat="44.68474161811172962188720703125" lon="6.82715878821909427642822265625">
        <ele>2647.199951171875</ele>
        <time>2026-08-31T07:16:35.000Z</time>
        <extensions>
          <ns3:TrackPointExtension>
            <ns3:hr>102</ns3:hr>
            <ns3:cad>0</ns3:cad>
          </ns3:TrackPointExtension>
        </extensions>
      </trkpt>
      <trkpt lat="44.68474161811172962188720703125" lon="6.82715878821909427642822265625">
        <ele>2647</ele>
        <time>2026-08-31T07:16:36.000Z</time>
        <extensions>
          <ns3:TrackPointExtension>
            <ns3:hr>102</ns3:hr>
            <ns3:cad>0</ns3:cad>
          </ns3:TrackPointExtension>
        </extensions>
      </trkpt>
      <trkpt lat="44.68474161811172962188720703125" lon="6.82715878821909427642822265625">
        <ele>2647</ele>
        <time>2026-08-31T07:16:37.000Z</time>
        <extensions>
          <ns3:TrackPointExtension>
            <ns3:hr>102</ns3:hr>
            <ns3:cad>0</ns3:cad>
          </ns3:TrackPointExtension>
        </extensions>
      </trkpt>
      <trkpt lat="44.68474161811172962188720703125" lon="6.82715878821909427642822265625">
        <ele>2647</ele>
        <time>2026-08-31T07:16:38.000Z</time>
        <extensions>
          <ns3:TrackPointExtension>
            <ns3:hr>101</ns3:hr>
            <ns3:cad>0</ns3:cad>
          </ns3:TrackPointExtension>
        </extensions>
      </trkpt>
      <trkpt lat="44.68474161811172962188720703125" lon="6.82715878821909427642822265625">
        <ele>2647.199951171875</ele>
        <time>2026-08-31T07:16:39.000Z</time>
        <extensions>
          <ns3:TrackPointExtension>
            <ns3:hr>101</ns3:hr>
            <ns3:cad>0</ns3:cad>
          </ns3:TrackPointExtension>
        </extensions>
      </trkpt>
      <trkpt lat="44.68474161811172962188720703125" lon="6.82715878821909427642822265625">
        <ele>2647.199951171875</ele>
        <time>2026-08-31T07:16:40.000Z</time>
        <extensions>
          <ns3:TrackPointExtension>
            <ns3:hr>101</ns3:hr>
            <ns3:cad>0</ns3:cad>
          </ns3:TrackPointExtension>
        </extensions>
      </trkpt>
      <trkpt lat="44.68474161811172962188720703125" lon="6.82715878821909427642822265625">
        <ele>2647.39990234375</ele>
        <time>2026-08-31T07:16:41.000Z</time>
        <extensions>
          <ns3:TrackPointExtension>
            <ns3:hr>101</ns3:hr>
            <ns3:cad>0</ns3:cad>
          </ns3:TrackPointExtension>
        </extensions>
      </trkpt>
      <trkpt lat="44.68474161811172962188720703125" lon="6.82715878821909427642822265625">
        <ele>2647.39990234375</ele>
        <time>2026-08-31T07:16:42.000Z</time>
        <extensions>
          <ns3:TrackPointExtension>
            <ns3:hr>101</ns3:hr>
            <ns3:cad>0</ns3:cad>
          </ns3:TrackPointExtension>
        </extensions>
      </trkpt>
      <trkpt lat="44.68474161811172962188720703125" lon="6.82715878821909427642822265625">
        <ele>2647.39990234375</ele>
        <time>2026-08-31T07:16:43.000Z</time>
        <extensions>
          <ns3:TrackPointExtension>
            <ns3:hr>101</ns3:hr>
            <ns3:cad>0</ns3:cad>
          </ns3:TrackPointExtension>
        </extensions>
      </trkpt>
      <trkpt lat="44.68474161811172962188720703125" lon="6.82715878821909427642822265625">
        <ele>2647.39990234375</ele>
        <time>2026-08-31T07:16:44.000Z</time>
        <extensions>
          <ns3:TrackPointExtension>
            <ns3:hr>100</ns3:hr>
            <ns3:cad>0</ns3:cad>
          </ns3:TrackPointExtension>
        </extensions>
      </trkpt>
      <trkpt lat="44.68474161811172962188720703125" lon="6.82715878821909427642822265625">
        <ele>2647.60009765625</ele>
        <time>2026-08-31T07:16:45.000Z</time>
        <extensions>
          <ns3:TrackPointExtension>
            <ns3:hr>100</ns3:hr>
            <ns3:cad>0</ns3:cad>
          </ns3:TrackPointExtension>
        </extensions>
      </trkpt>
      <trkpt lat="44.68474161811172962188720703125" lon="6.82715878821909427642822265625">
        <ele>2647.60009765625</ele>
        <time>2026-08-31T07:16:46.000Z</time>
        <extensions>
          <ns3:TrackPointExtension>
            <ns3:hr>100</ns3:hr>
            <ns3:cad>0</ns3:cad>
          </ns3:TrackPointExtension>
        </extensions>
      </trkpt>
      <trkpt lat="44.68474161811172962188720703125" lon="6.82715878821909427642822265625">
        <ele>2647.800048828125</ele>
        <time>2026-08-31T07:16:47.000Z</time>
        <extensions>
          <ns3:TrackPointExtension>
            <ns3:hr>101</ns3:hr>
            <ns3:cad>0</ns3:cad>
          </ns3:TrackPointExtension>
        </extensions>
      </trkpt>
      <trkpt lat="44.68474161811172962188720703125" lon="6.82715878821909427642822265625">
        <ele>2647.800048828125</ele>
        <time>2026-08-31T07:16:48.000Z</time>
        <extensions>
          <ns3:TrackPointExtension>
            <ns3:hr>101</ns3:hr>
            <ns3:cad>0</ns3:cad>
          </ns3:TrackPointExtension>
        </extensions>
      </trkpt>
      <trkpt lat="44.68474161811172962188720703125" lon="6.82715878821909427642822265625">
        <ele>2648</ele>
        <time>2026-08-31T07:16:49.000Z</time>
        <extensions>
          <ns3:TrackPointExtension>
            <ns3:hr>102</ns3:hr>
            <ns3:cad>0</ns3:cad>
          </ns3:TrackPointExtension>
        </extensions>
      </trkpt>
      <trkpt lat="44.68474161811172962188720703125" lon="6.82715878821909427642822265625">
        <ele>2648.199951171875</ele>
        <time>2026-08-31T07:16:50.000Z</time>
        <extensions>
          <ns3:TrackPointExtension>
            <ns3:hr>104</ns3:hr>
            <ns3:cad>0</ns3:cad>
          </ns3:TrackPointExtension>
        </extensions>
      </trkpt>
      <trkpt lat="44.68474161811172962188720703125" lon="6.82715878821909427642822265625">
        <ele>2648.199951171875</ele>
        <time>2026-08-31T07:16:51.000Z</time>
        <extensions>
          <ns3:TrackPointExtension>
            <ns3:hr>104</ns3:hr>
            <ns3:cad>0</ns3:cad>
          </ns3:TrackPointExtension>
        </extensions>
      </trkpt>
      <trkpt lat="44.68474161811172962188720703125" lon="6.82715878821909427642822265625">
        <ele>2648</ele>
        <time>2026-08-31T07:16:52.000Z</time>
        <extensions>
          <ns3:TrackPointExtension>
            <ns3:hr>104</ns3:hr>
            <ns3:cad>0</ns3:cad>
          </ns3:TrackPointExtension>
        </extensions>
      </trkpt>
      <trkpt lat="44.68474161811172962188720703125" lon="6.82715878821909427642822265625">
        <ele>2647.800048828125</ele>
        <time>2026-08-31T07:16:53.000Z</time>
        <extensions>
          <ns3:TrackPointExtension>
            <ns3:hr>104</ns3:hr>
            <ns3:cad>0</ns3:cad>
          </ns3:TrackPointExtension>
        </extensions>
      </trkpt>
      <trkpt lat="44.68474161811172962188720703125" lon="6.82715878821909427642822265625">
        <ele>2647.60009765625</ele>
        <time>2026-08-31T07:16:54.000Z</time>
        <extensions>
          <ns3:TrackPointExtension>
            <ns3:hr>104</ns3:hr>
            <ns3:cad>0</ns3:cad>
          </ns3:TrackPointExtension>
        </extensions>
      </trkpt>
      <trkpt lat="44.68474161811172962188720703125" lon="6.82715878821909427642822265625">
        <ele>2647.39990234375</ele>
        <time>2026-08-31T07:16:55.000Z</time>
        <extensions>
          <ns3:TrackPointExtension>
            <ns3:hr>105</ns3:hr>
            <ns3:cad>0</ns3:cad>
          </ns3:TrackPointExtension>
        </extensions>
      </trkpt>
      <trkpt lat="44.68474161811172962188720703125" lon="6.82715878821909427642822265625">
        <ele>2647.199951171875</ele>
        <time>2026-08-31T07:16:56.000Z</time>
        <extensions>
          <ns3:TrackPointExtension>
            <ns3:hr>104</ns3:hr>
            <ns3:cad>0</ns3:cad>
          </ns3:TrackPointExtension>
        </extensions>
      </trkpt>
      <trkpt lat="44.68474161811172962188720703125" lon="6.82715878821909427642822265625">
        <ele>2647.199951171875</ele>
        <time>2026-08-31T07:16:57.000Z</time>
        <extensions>
          <ns3:TrackPointExtension>
            <ns3:hr>104</ns3:hr>
            <ns3:cad>0</ns3:cad>
          </ns3:TrackPointExtension>
        </extensions>
      </trkpt>
      <trkpt lat="44.68474161811172962188720703125" lon="6.82715878821909427642822265625">
        <ele>2647</ele>
        <time>2026-08-31T07:16:58.000Z</time>
        <extensions>
          <ns3:TrackPointExtension>
            <ns3:hr>104</ns3:hr>
            <ns3:cad>0</ns3:cad>
          </ns3:TrackPointExtension>
        </extensions>
      </trkpt>
      <trkpt lat="44.68474161811172962188720703125" lon="6.82715878821909427642822265625">
        <ele>2647</ele>
        <time>2026-08-31T07:16:59.000Z</time>
        <extensions>
          <ns3:TrackPointExtension>
            <ns3:hr>104</ns3:hr>
            <ns3:cad>0</ns3:cad>
          </ns3:TrackPointExtension>
        </extensions>
      </trkpt>
      <trkpt lat="44.68474161811172962188720703125" lon="6.82715878821909427642822265625">
        <ele>2647</ele>
        <time>2026-08-31T07:17:00.000Z</time>
        <extensions>
          <ns3:TrackPointExtension>
            <ns3:hr>103</ns3:hr>
            <ns3:cad>0</ns3:cad>
          </ns3:TrackPointExtension>
        </extensions>
      </trkpt>
      <trkpt lat="44.68474161811172962188720703125" lon="6.82715878821909427642822265625">
        <ele>2647</ele>
        <time>2026-08-31T07:17:01.000Z</time>
        <extensions>
          <ns3:TrackPointExtension>
            <ns3:hr>103</ns3:hr>
            <ns3:cad>0</ns3:cad>
          </ns3:TrackPointExtension>
        </extensions>
      </trkpt>
      <trkpt lat="44.68474161811172962188720703125" lon="6.82715878821909427642822265625">
        <ele>2647</ele>
        <time>2026-08-31T07:17:02.000Z</time>
        <extensions>
          <ns3:TrackPointExtension>
            <ns3:hr>103</ns3:hr>
            <ns3:cad>0</ns3:cad>
          </ns3:TrackPointExtension>
        </extensions>
      </trkpt>
      <trkpt lat="44.68474161811172962188720703125" lon="6.82715878821909427642822265625">
        <ele>2647</ele>
        <time>2026-08-31T07:17:03.000Z</time>
        <extensions>
          <ns3:TrackPointExtension>
            <ns3:hr>104</ns3:hr>
            <ns3:cad>0</ns3:cad>
          </ns3:TrackPointExtension>
        </extensions>
      </trkpt>
      <trkpt lat="44.68474161811172962188720703125" lon="6.82715878821909427642822265625">
        <ele>2647</ele>
        <time>2026-08-31T07:17:04.000Z</time>
        <extensions>
          <ns3:TrackPointExtension>
            <ns3:hr>104</ns3:hr>
            <ns3:cad>0</ns3:cad>
          </ns3:TrackPointExtension>
        </extensions>
      </trkpt>
      <trkpt lat="44.68474161811172962188720703125" lon="6.82715878821909427642822265625">
        <ele>2646.800048828125</ele>
        <time>2026-08-31T07:17:05.000Z</time>
        <extensions>
          <ns3:TrackPointExtension>
            <ns3:hr>104</ns3:hr>
            <ns3:cad>0</ns3:cad>
          </ns3:TrackPointExtension>
        </extensions>
      </trkpt>
      <trkpt lat="44.68474161811172962188720703125" lon="6.82715878821909427642822265625">
        <ele>2646.800048828125</ele>
        <time>2026-08-31T07:17:06.000Z</time>
        <extensions>
          <ns3:TrackPointExtension>
            <ns3:hr>104</ns3:hr>
            <ns3:cad>0</ns3:cad>
          </ns3:TrackPointExtension>
        </extensions>
      </trkpt>
      <trkpt lat="44.68474161811172962188720703125" lon="6.82715878821909427642822265625">
        <ele>2646.60009765625</ele>
        <time>2026-08-31T07:17:07.000Z</time>
        <extensions>
          <ns3:TrackPointExtension>
            <ns3:hr>104</ns3:hr>
            <ns3:cad>0</ns3:cad>
          </ns3:TrackPointExtension>
        </extensions>
      </trkpt>
      <trkpt lat="44.68474161811172962188720703125" lon="6.82715878821909427642822265625">
        <ele>2646.800048828125</ele>
        <time>2026-08-31T07:17:08.000Z</time>
        <extensions>
          <ns3:TrackPointExtension>
            <ns3:hr>104</ns3:hr>
            <ns3:cad>0</ns3:cad>
          </ns3:TrackPointExtension>
        </extensions>
      </trkpt>
      <trkpt lat="44.68474161811172962188720703125" lon="6.82715878821909427642822265625">
        <ele>2646.800048828125</ele>
        <time>2026-08-31T07:17:09.000Z</time>
        <extensions>
          <ns3:TrackPointExtension>
            <ns3:hr>103</ns3:hr>
            <ns3:cad>0</ns3:cad>
          </ns3:TrackPointExtension>
        </extensions>
      </trkpt>
      <trkpt lat="44.68474161811172962188720703125" lon="6.82715878821909427642822265625">
        <ele>2646.800048828125</ele>
        <time>2026-08-31T07:17:10.000Z</time>
        <extensions>
          <ns3:TrackPointExtension>
            <ns3:hr>104</ns3:hr>
            <ns3:cad>0</ns3:cad>
          </ns3:TrackPointExtension>
        </extensions>
      </trkpt>
      <trkpt lat="44.68474161811172962188720703125" lon="6.82715878821909427642822265625">
        <ele>2646.800048828125</ele>
        <time>2026-08-31T07:17:11.000Z</time>
        <extensions>
          <ns3:TrackPointExtension>
            <ns3:hr>104</ns3:hr>
            <ns3:cad>0</ns3:cad>
          </ns3:TrackPointExtension>
        </extensions>
      </trkpt>
      <trkpt lat="44.68474161811172962188720703125" lon="6.82715878821909427642822265625">
        <ele>2646.800048828125</ele>
        <time>2026-08-31T07:17:12.000Z</time>
        <extensions>
          <ns3:TrackPointExtension>
            <ns3:hr>104</ns3:hr>
            <ns3:cad>0</ns3:cad>
          </ns3:TrackPointExtension>
        </extensions>
      </trkpt>
      <trkpt lat="44.68474161811172962188720703125" lon="6.82715878821909427642822265625">
        <ele>2646.60009765625</ele>
        <time>2026-08-31T07:17:13.000Z</time>
        <extensions>
          <ns3:TrackPointExtension>
            <ns3:hr>104</ns3:hr>
            <ns3:cad>0</ns3:cad>
          </ns3:TrackPointExtension>
        </extensions>
      </trkpt>
      <trkpt lat="44.68474161811172962188720703125" lon="6.82715878821909427642822265625">
        <ele>2646.60009765625</ele>
        <time>2026-08-31T07:17:14.000Z</time>
        <extensions>
          <ns3:TrackPointExtension>
            <ns3:hr>104</ns3:hr>
            <ns3:cad>0</ns3:cad>
          </ns3:TrackPointExtension>
        </extensions>
      </trkpt>
      <trkpt lat="44.68474161811172962188720703125" lon="6.82715878821909427642822265625">
        <ele>2646.60009765625</ele>
        <time>2026-08-31T07:17:15.000Z</time>
        <extensions>
          <ns3:TrackPointExtension>
            <ns3:hr>104</ns3:hr>
            <ns3:cad>0</ns3:cad>
          </ns3:TrackPointExtension>
        </extensions>
      </trkpt>
      <trkpt lat="44.68474161811172962188720703125" lon="6.82715878821909427642822265625">
        <ele>2646.60009765625</ele>
        <time>2026-08-31T07:17:16.000Z</time>
        <extensions>
          <ns3:TrackPointExtension>
            <ns3:hr>104</ns3:hr>
            <ns3:cad>0</ns3:cad>
          </ns3:TrackPointExtension>
        </extensions>
      </trkpt>
      <trkpt lat="44.68474161811172962188720703125" lon="6.82715878821909427642822265625">
        <ele>2646.60009765625</ele>
        <time>2026-08-31T07:17:17.000Z</time>
        <extensions>
          <ns3:TrackPointExtension>
            <ns3:hr>104</ns3:hr>
            <ns3:cad>0</ns3:cad>
          </ns3:TrackPointExtension>
        </extensions>
      </trkpt>
      <trkpt lat="44.68474161811172962188720703125" lon="6.82715878821909427642822265625">
        <ele>2646.800048828125</ele>
        <time>2026-08-31T07:17:18.000Z</time>
        <extensions>
          <ns3:TrackPointExtension>
            <ns3:hr>104</ns3:hr>
            <ns3:cad>0</ns3:cad>
          </ns3:TrackPointExtension>
        </extensions>
      </trkpt>
      <trkpt lat="44.68474161811172962188720703125" lon="6.82715878821909427642822265625">
        <ele>2646.800048828125</ele>
        <time>2026-08-31T07:17:19.000Z</time>
        <extensions>
          <ns3:TrackPointExtension>
            <ns3:hr>103</ns3:hr>
            <ns3:cad>0</ns3:cad>
          </ns3:TrackPointExtension>
        </extensions>
      </trkpt>
      <trkpt lat="44.68474161811172962188720703125" lon="6.82715878821909427642822265625">
        <ele>2646.800048828125</ele>
        <time>2026-08-31T07:17:20.000Z</time>
        <extensions>
          <ns3:TrackPointExtension>
            <ns3:hr>103</ns3:hr>
            <ns3:cad>0</ns3:cad>
          </ns3:TrackPointExtension>
        </extensions>
      </trkpt>
      <trkpt lat="44.68474161811172962188720703125" lon="6.82715878821909427642822265625">
        <ele>2646.60009765625</ele>
        <time>2026-08-31T07:17:21.000Z</time>
        <extensions>
          <ns3:TrackPointExtension>
            <ns3:hr>103</ns3:hr>
            <ns3:cad>0</ns3:cad>
          </ns3:TrackPointExtension>
        </extensions>
      </trkpt>
      <trkpt lat="44.68474161811172962188720703125" lon="6.82715878821909427642822265625">
        <ele>2646.60009765625</ele>
        <time>2026-08-31T07:17:22.000Z</time>
        <extensions>
          <ns3:TrackPointExtension>
            <ns3:hr>104</ns3:hr>
            <ns3:cad>0</ns3:cad>
          </ns3:TrackPointExtension>
        </extensions>
      </trkpt>
      <trkpt lat="44.68474161811172962188720703125" lon="6.82715878821909427642822265625">
        <ele>2646.39990234375</ele>
        <time>2026-08-31T07:17:23.000Z</time>
        <extensions>
          <ns3:TrackPointExtension>
            <ns3:hr>104</ns3:hr>
            <ns3:cad>0</ns3:cad>
          </ns3:TrackPointExtension>
        </extensions>
      </trkpt>
      <trkpt lat="44.68474161811172962188720703125" lon="6.82715878821909427642822265625">
        <ele>2646.39990234375</ele>
        <time>2026-08-31T07:17:24.000Z</time>
        <extensions>
          <ns3:TrackPointExtension>
            <ns3:hr>103</ns3:hr>
            <ns3:cad>0</ns3:cad>
          </ns3:TrackPointExtension>
        </extensions>
      </trkpt>
      <trkpt lat="44.68474161811172962188720703125" lon="6.82715878821909427642822265625">
        <ele>2646.199951171875</ele>
        <time>2026-08-31T07:17:25.000Z</time>
        <extensions>
          <ns3:TrackPointExtension>
            <ns3:hr>103</ns3:hr>
            <ns3:cad>0</ns3:cad>
          </ns3:TrackPointExtension>
        </extensions>
      </trkpt>
      <trkpt lat="44.68474161811172962188720703125" lon="6.82715878821909427642822265625">
        <ele>2646.39990234375</ele>
        <time>2026-08-31T07:17:26.000Z</time>
        <extensions>
          <ns3:TrackPointExtension>
            <ns3:hr>103</ns3:hr>
            <ns3:cad>0</ns3:cad>
          </ns3:TrackPointExtension>
        </extensions>
      </trkpt>
      <trkpt lat="44.68474161811172962188720703125" lon="6.82715878821909427642822265625">
        <ele>2646.39990234375</ele>
        <time>2026-08-31T07:17:27.000Z</time>
        <extensions>
          <ns3:TrackPointExtension>
            <ns3:hr>103</ns3:hr>
            <ns3:cad>0</ns3:cad>
          </ns3:TrackPointExtension>
        </extensions>
      </trkpt>
      <trkpt lat="44.68474161811172962188720703125" lon="6.82715878821909427642822265625">
        <ele>2646.39990234375</ele>
        <time>2026-08-31T07:17:28.000Z</time>
        <extensions>
          <ns3:TrackPointExtension>
            <ns3:hr>104</ns3:hr>
            <ns3:cad>0</ns3:cad>
          </ns3:TrackPointExtension>
        </extensions>
      </trkpt>
      <trkpt lat="44.68474161811172962188720703125" lon="6.82715878821909427642822265625">
        <ele>2646.60009765625</ele>
        <time>2026-08-31T07:17:29.000Z</time>
        <extensions>
          <ns3:TrackPointExtension>
            <ns3:hr>104</ns3:hr>
            <ns3:cad>0</ns3:cad>
          </ns3:TrackPointExtension>
        </extensions>
      </trkpt>
      <trkpt lat="44.68474161811172962188720703125" lon="6.82715878821909427642822265625">
        <ele>2646.800048828125</ele>
        <time>2026-08-31T07:17:30.000Z</time>
        <extensions>
          <ns3:TrackPointExtension>
            <ns3:hr>105</ns3:hr>
            <ns3:cad>0</ns3:cad>
          </ns3:TrackPointExtension>
        </extensions>
      </trkpt>
      <trkpt lat="44.68474161811172962188720703125" lon="6.82715878821909427642822265625">
        <ele>2647</ele>
        <time>2026-08-31T07:17:31.000Z</time>
        <extensions>
          <ns3:TrackPointExtension>
            <ns3:hr>105</ns3:hr>
            <ns3:cad>0</ns3:cad>
          </ns3:TrackPointExtension>
        </extensions>
      </trkpt>
      <trkpt lat="44.68474161811172962188720703125" lon="6.82715878821909427642822265625">
        <ele>2647</ele>
        <time>2026-08-31T07:17:32.000Z</time>
        <extensions>
          <ns3:TrackPointExtension>
            <ns3:hr>104</ns3:hr>
            <ns3:cad>0</ns3:cad>
          </ns3:TrackPointExtension>
        </extensions>
      </trkpt>
      <trkpt lat="44.68474161811172962188720703125" lon="6.82715878821909427642822265625">
        <ele>2647</ele>
        <time>2026-08-31T07:17:33.000Z</time>
        <extensions>
          <ns3:TrackPointExtension>
            <ns3:hr>104</ns3:hr>
            <ns3:cad>0</ns3:cad>
          </ns3:TrackPointExtension>
        </extensions>
      </trkpt>
      <trkpt lat="44.68474161811172962188720703125" lon="6.82715878821909427642822265625">
        <ele>2647</ele>
        <time>2026-08-31T07:17:34.000Z</time>
        <extensions>
          <ns3:TrackPointExtension>
            <ns3:hr>104</ns3:hr>
            <ns3:cad>0</ns3:cad>
          </ns3:TrackPointExtension>
        </extensions>
      </trkpt>
      <trkpt lat="44.68474161811172962188720703125" lon="6.82715878821909427642822265625">
        <ele>2646.800048828125</ele>
        <time>2026-08-31T07:17:35.000Z</time>
        <extensions>
          <ns3:TrackPointExtension>
            <ns3:hr>105</ns3:hr>
            <ns3:cad>0</ns3:cad>
          </ns3:TrackPointExtension>
        </extensions>
      </trkpt>
      <trkpt lat="44.68474161811172962188720703125" lon="6.82715878821909427642822265625">
        <ele>2646.800048828125</ele>
        <time>2026-08-31T07:17:36.000Z</time>
        <extensions>
          <ns3:TrackPointExtension>
            <ns3:hr>104</ns3:hr>
            <ns3:cad>0</ns3:cad>
          </ns3:TrackPointExtension>
        </extensions>
      </trkpt>
      <trkpt lat="44.68474161811172962188720703125" lon="6.82715878821909427642822265625">
        <ele>2646.60009765625</ele>
        <time>2026-08-31T07:17:37.000Z</time>
        <extensions>
          <ns3:TrackPointExtension>
            <ns3:hr>104</ns3:hr>
            <ns3:cad>0</ns3:cad>
          </ns3:TrackPointExtension>
        </extensions>
      </trkpt>
      <trkpt lat="44.68474161811172962188720703125" lon="6.82715878821909427642822265625">
        <ele>2646.60009765625</ele>
        <time>2026-08-31T07:17:38.000Z</time>
        <extensions>
          <ns3:TrackPointExtension>
            <ns3:hr>104</ns3:hr>
            <ns3:cad>0</ns3:cad>
          </ns3:TrackPointExtension>
        </extensions>
      </trkpt>
      <trkpt lat="44.68474161811172962188720703125" lon="6.82715878821909427642822265625">
        <ele>2646.60009765625</ele>
        <time>2026-08-31T07:17:39.000Z</time>
        <extensions>
          <ns3:TrackPointExtension>
            <ns3:hr>104</ns3:hr>
            <ns3:cad>0</ns3:cad>
          </ns3:TrackPointExtension>
        </extensions>
      </trkpt>
      <trkpt lat="44.68474161811172962188720703125" lon="6.82715878821909427642822265625">
        <ele>2646.60009765625</ele>
        <time>2026-08-31T07:17:40.000Z</time>
        <extensions>
          <ns3:TrackPointExtension>
            <ns3:hr>105</ns3:hr>
            <ns3:cad>0</ns3:cad>
          </ns3:TrackPointExtension>
        </extensions>
      </trkpt>
      <trkpt lat="44.68474161811172962188720703125" lon="6.82715878821909427642822265625">
        <ele>2646.800048828125</ele>
        <time>2026-08-31T07:17:41.000Z</time>
        <extensions>
          <ns3:TrackPointExtension>
            <ns3:hr>104</ns3:hr>
            <ns3:cad>0</ns3:cad>
          </ns3:TrackPointExtension>
        </extensions>
      </trkpt>
      <trkpt lat="44.68474161811172962188720703125" lon="6.82715878821909427642822265625">
        <ele>2646.800048828125</ele>
        <time>2026-08-31T07:17:42.000Z</time>
        <extensions>
          <ns3:TrackPointExtension>
            <ns3:hr>104</ns3:hr>
            <ns3:cad>0</ns3:cad>
          </ns3:TrackPointExtension>
        </extensions>
      </trkpt>
      <trkpt lat="44.68474161811172962188720703125" lon="6.82715878821909427642822265625">
        <ele>2647</ele>
        <time>2026-08-31T07:17:43.000Z</time>
        <extensions>
          <ns3:TrackPointExtension>
            <ns3:hr>104</ns3:hr>
            <ns3:cad>0</ns3:cad>
          </ns3:TrackPointExtension>
        </extensions>
      </trkpt>
      <trkpt lat="44.68474161811172962188720703125" lon="6.82715878821909427642822265625">
        <ele>2647</ele>
        <time>2026-08-31T07:17:44.000Z</time>
        <extensions>
          <ns3:TrackPointExtension>
            <ns3:hr>104</ns3:hr>
            <ns3:cad>0</ns3:cad>
          </ns3:TrackPointExtension>
        </extensions>
      </trkpt>
      <trkpt lat="44.68474161811172962188720703125" lon="6.82715878821909427642822265625">
        <ele>2647.199951171875</ele>
        <time>2026-08-31T07:17:45.000Z</time>
        <extensions>
          <ns3:TrackPointExtension>
            <ns3:hr>104</ns3:hr>
            <ns3:cad>0</ns3:cad>
          </ns3:TrackPointExtension>
        </extensions>
      </trkpt>
      <trkpt lat="44.68474161811172962188720703125" lon="6.82715878821909427642822265625">
        <ele>2647.199951171875</ele>
        <time>2026-08-31T07:17:46.000Z</time>
        <extensions>
          <ns3:TrackPointExtension>
            <ns3:hr>103</ns3:hr>
            <ns3:cad>0</ns3:cad>
          </ns3:TrackPointExtension>
        </extensions>
      </trkpt>
      <trkpt lat="44.68474161811172962188720703125" lon="6.82715878821909427642822265625">
        <ele>2647</ele>
        <time>2026-08-31T07:17:47.000Z</time>
        <extensions>
          <ns3:TrackPointExtension>
            <ns3:hr>103</ns3:hr>
            <ns3:cad>0</ns3:cad>
          </ns3:TrackPointExtension>
        </extensions>
      </trkpt>
      <trkpt lat="44.68474161811172962188720703125" lon="6.82715878821909427642822265625">
        <ele>2647</ele>
        <time>2026-08-31T07:17:48.000Z</time>
        <extensions>
          <ns3:TrackPointExtension>
            <ns3:hr>103</ns3:hr>
            <ns3:cad>0</ns3:cad>
          </ns3:TrackPointExtension>
        </extensions>
      </trkpt>
      <trkpt lat="44.68474161811172962188720703125" lon="6.82715878821909427642822265625">
        <ele>2647</ele>
        <time>2026-08-31T07:17:49.000Z</time>
        <extensions>
          <ns3:TrackPointExtension>
            <ns3:hr>103</ns3:hr>
            <ns3:cad>0</ns3:cad>
          </ns3:TrackPointExtension>
        </extensions>
      </trkpt>
      <trkpt lat="44.68474161811172962188720703125" lon="6.82715878821909427642822265625">
        <ele>2646.800048828125</ele>
        <time>2026-08-31T07:17:50.000Z</time>
        <extensions>
          <ns3:TrackPointExtension>
            <ns3:hr>103</ns3:hr>
            <ns3:cad>0</ns3:cad>
          </ns3:TrackPointExtension>
        </extensions>
      </trkpt>
      <trkpt lat="44.68474161811172962188720703125" lon="6.82715878821909427642822265625">
        <ele>2646.800048828125</ele>
        <time>2026-08-31T07:17:51.000Z</time>
        <extensions>
          <ns3:TrackPointExtension>
            <ns3:hr>104</ns3:hr>
            <ns3:cad>0</ns3:cad>
          </ns3:TrackPointExtension>
        </extensions>
      </trkpt>
      <trkpt lat="44.68474161811172962188720703125" lon="6.82715878821909427642822265625">
        <ele>2646.800048828125</ele>
        <time>2026-08-31T07:17:52.000Z</time>
        <extensions>
          <ns3:TrackPointExtension>
            <ns3:hr>104</ns3:hr>
            <ns3:cad>0</ns3:cad>
          </ns3:TrackPointExtension>
        </extensions>
      </trkpt>
      <trkpt lat="44.68474161811172962188720703125" lon="6.82715878821909427642822265625">
        <ele>2646.800048828125</ele>
        <time>2026-08-31T07:17:53.000Z</time>
        <extensions>
          <ns3:TrackPointExtension>
            <ns3:hr>104</ns3:hr>
            <ns3:cad>0</ns3:cad>
          </ns3:TrackPointExtension>
        </extensions>
      </trkpt>
      <trkpt lat="44.68474161811172962188720703125" lon="6.82715878821909427642822265625">
        <ele>2646.800048828125</ele>
        <time>2026-08-31T07:17:54.000Z</time>
        <extensions>
          <ns3:TrackPointExtension>
            <ns3:hr>105</ns3:hr>
            <ns3:cad>0</ns3:cad>
          </ns3:TrackPointExtension>
        </extensions>
      </trkpt>
      <trkpt lat="44.68474161811172962188720703125" lon="6.82715878821909427642822265625">
        <ele>2646.800048828125</ele>
        <time>2026-08-31T07:17:55.000Z</time>
        <extensions>
          <ns3:TrackPointExtension>
            <ns3:hr>105</ns3:hr>
            <ns3:cad>0</ns3:cad>
          </ns3:TrackPointExtension>
        </extensions>
      </trkpt>
      <trkpt lat="44.68474161811172962188720703125" lon="6.82715878821909427642822265625">
        <ele>2646.60009765625</ele>
        <time>2026-08-31T07:17:56.000Z</time>
        <extensions>
          <ns3:TrackPointExtension>
            <ns3:hr>105</ns3:hr>
            <ns3:cad>0</ns3:cad>
          </ns3:TrackPointExtension>
        </extensions>
      </trkpt>
      <trkpt lat="44.68474161811172962188720703125" lon="6.82715878821909427642822265625">
        <ele>2646.60009765625</ele>
        <time>2026-08-31T07:17:57.000Z</time>
        <extensions>
          <ns3:TrackPointExtension>
            <ns3:hr>105</ns3:hr>
            <ns3:cad>0</ns3:cad>
          </ns3:TrackPointExtension>
        </extensions>
      </trkpt>
      <trkpt lat="44.68474161811172962188720703125" lon="6.82715878821909427642822265625">
        <ele>2646.60009765625</ele>
        <time>2026-08-31T07:17:58.000Z</time>
        <extensions>
          <ns3:TrackPointExtension>
            <ns3:hr>105</ns3:hr>
            <ns3:cad>0</ns3:cad>
          </ns3:TrackPointExtension>
        </extensions>
      </trkpt>
      <trkpt lat="44.68474161811172962188720703125" lon="6.82715878821909427642822265625">
        <ele>2646.60009765625</ele>
        <time>2026-08-31T07:17:59.000Z</time>
        <extensions>
          <ns3:TrackPointExtension>
            <ns3:hr>104</ns3:hr>
            <ns3:cad>0</ns3:cad>
          </ns3:TrackPointExtension>
        </extensions>
      </trkpt>
      <trkpt lat="44.68474161811172962188720703125" lon="6.82715878821909427642822265625">
        <ele>2646.39990234375</ele>
        <time>2026-08-31T07:18:00.000Z</time>
        <extensions>
          <ns3:TrackPointExtension>
            <ns3:hr>104</ns3:hr>
            <ns3:cad>0</ns3:cad>
          </ns3:TrackPointExtension>
        </extensions>
      </trkpt>
      <trkpt lat="44.68474161811172962188720703125" lon="6.82715878821909427642822265625">
        <ele>2646.60009765625</ele>
        <time>2026-08-31T07:18:01.000Z</time>
        <extensions>
          <ns3:TrackPointExtension>
            <ns3:hr>104</ns3:hr>
            <ns3:cad>0</ns3:cad>
          </ns3:TrackPointExtension>
        </extensions>
      </trkpt>
      <trkpt lat="44.68474161811172962188720703125" lon="6.82715878821909427642822265625">
        <ele>2646.800048828125</ele>
        <time>2026-08-31T07:18:02.000Z</time>
        <extensions>
          <ns3:TrackPointExtension>
            <ns3:hr>105</ns3:hr>
            <ns3:cad>0</ns3:cad>
          </ns3:TrackPointExtension>
        </extensions>
      </trkpt>
      <trkpt lat="44.68474161811172962188720703125" lon="6.82715878821909427642822265625">
        <ele>2647</ele>
        <time>2026-08-31T07:18:03.000Z</time>
        <extensions>
          <ns3:TrackPointExtension>
            <ns3:hr>105</ns3:hr>
            <ns3:cad>0</ns3:cad>
          </ns3:TrackPointExtension>
        </extensions>
      </trkpt>
      <trkpt lat="44.68474161811172962188720703125" lon="6.82715878821909427642822265625">
        <ele>2647.199951171875</ele>
        <time>2026-08-31T07:18:04.000Z</time>
        <extensions>
          <ns3:TrackPointExtension>
            <ns3:hr>105</ns3:hr>
            <ns3:cad>0</ns3:cad>
          </ns3:TrackPointExtension>
        </extensions>
      </trkpt>
      <trkpt lat="44.68474161811172962188720703125" lon="6.82715878821909427642822265625">
        <ele>2647.199951171875</ele>
        <time>2026-08-31T07:18:05.000Z</time>
        <extensions>
          <ns3:TrackPointExtension>
            <ns3:hr>105</ns3:hr>
            <ns3:cad>0</ns3:cad>
          </ns3:TrackPointExtension>
        </extensions>
      </trkpt>
      <trkpt lat="44.68474161811172962188720703125" lon="6.82715878821909427642822265625">
        <ele>2647.199951171875</ele>
        <time>2026-08-31T07:18:06.000Z</time>
        <extensions>
          <ns3:TrackPointExtension>
            <ns3:hr>105</ns3:hr>
            <ns3:cad>0</ns3:cad>
          </ns3:TrackPointExtension>
        </extensions>
      </trkpt>
      <trkpt lat="44.68474161811172962188720703125" lon="6.82715878821909427642822265625">
        <ele>2647.199951171875</ele>
        <time>2026-08-31T07:18:07.000Z</time>
        <extensions>
          <ns3:TrackPointExtension>
            <ns3:hr>105</ns3:hr>
            <ns3:cad>0</ns3:cad>
          </ns3:TrackPointExtension>
        </extensions>
      </trkpt>
      <trkpt lat="44.68474161811172962188720703125" lon="6.82715878821909427642822265625">
        <ele>2647.199951171875</ele>
        <time>2026-08-31T07:18:08.000Z</time>
        <extensions>
          <ns3:TrackPointExtension>
            <ns3:hr>105</ns3:hr>
            <ns3:cad>0</ns3:cad>
          </ns3:TrackPointExtension>
        </extensions>
      </trkpt>
      <trkpt lat="44.68474161811172962188720703125" lon="6.82715878821909427642822265625">
        <ele>2647.199951171875</ele>
        <time>2026-08-31T07:18:09.000Z</time>
        <extensions>
          <ns3:TrackPointExtension>
            <ns3:hr>105</ns3:hr>
            <ns3:cad>0</ns3:cad>
          </ns3:TrackPointExtension>
        </extensions>
      </trkpt>
      <trkpt lat="44.68474161811172962188720703125" lon="6.82715878821909427642822265625">
        <ele>2647.39990234375</ele>
        <time>2026-08-31T07:18:10.000Z</time>
        <extensions>
          <ns3:TrackPointExtension>
            <ns3:hr>105</ns3:hr>
            <ns3:cad>0</ns3:cad>
          </ns3:TrackPointExtension>
        </extensions>
      </trkpt>
      <trkpt lat="44.68474161811172962188720703125" lon="6.82715878821909427642822265625">
        <ele>2647.60009765625</ele>
        <time>2026-08-31T07:18:11.000Z</time>
        <extensions>
          <ns3:TrackPointExtension>
            <ns3:hr>106</ns3:hr>
            <ns3:cad>0</ns3:cad>
          </ns3:TrackPointExtension>
        </extensions>
      </trkpt>
      <trkpt lat="44.68474161811172962188720703125" lon="6.82715878821909427642822265625">
        <ele>2647.800048828125</ele>
        <time>2026-08-31T07:18:12.000Z</time>
        <extensions>
          <ns3:TrackPointExtension>
            <ns3:hr>107</ns3:hr>
            <ns3:cad>0</ns3:cad>
          </ns3:TrackPointExtension>
        </extensions>
      </trkpt>
      <trkpt lat="44.68474161811172962188720703125" lon="6.82715878821909427642822265625">
        <ele>2648</ele>
        <time>2026-08-31T07:18:13.000Z</time>
        <extensions>
          <ns3:TrackPointExtension>
            <ns3:hr>108</ns3:hr>
            <ns3:cad>0</ns3:cad>
          </ns3:TrackPointExtension>
        </extensions>
      </trkpt>
      <trkpt lat="44.68474161811172962188720703125" lon="6.82715878821909427642822265625">
        <ele>2648.199951171875</ele>
        <time>2026-08-31T07:18:14.000Z</time>
        <extensions>
          <ns3:TrackPointExtension>
            <ns3:hr>109</ns3:hr>
            <ns3:cad>0</ns3:cad>
          </ns3:TrackPointExtension>
        </extensions>
      </trkpt>
      <trkpt lat="44.68474161811172962188720703125" lon="6.82715878821909427642822265625">
        <ele>2648.199951171875</ele>
        <time>2026-08-31T07:18:15.000Z</time>
        <extensions>
          <ns3:TrackPointExtension>
            <ns3:hr>110</ns3:hr>
            <ns3:cad>0</ns3:cad>
          </ns3:TrackPointExtension>
        </extensions>
      </trkpt>
      <trkpt lat="44.68474161811172962188720703125" lon="6.82715878821909427642822265625">
        <ele>2648.39990234375</ele>
        <time>2026-08-31T07:18:16.000Z</time>
        <extensions>
          <ns3:TrackPointExtension>
            <ns3:hr>111</ns3:hr>
            <ns3:cad>0</ns3:cad>
          </ns3:TrackPointExtension>
        </extensions>
      </trkpt>
      <trkpt lat="44.68474161811172962188720703125" lon="6.82715878821909427642822265625">
        <ele>2648.60009765625</ele>
        <time>2026-08-31T07:18:17.000Z</time>
        <extensions>
          <ns3:TrackPointExtension>
            <ns3:hr>111</ns3:hr>
            <ns3:cad>0</ns3:cad>
          </ns3:TrackPointExtension>
        </extensions>
      </trkpt>
      <trkpt lat="44.68474161811172962188720703125" lon="6.82715878821909427642822265625">
        <ele>2648.60009765625</ele>
        <time>2026-08-31T07:18:18.000Z</time>
        <extensions>
          <ns3:TrackPointExtension>
            <ns3:hr>112</ns3:hr>
            <ns3:cad>0</ns3:cad>
          </ns3:TrackPointExtension>
        </extensions>
      </trkpt>
    </trkseg>
  </trk>
</gpx>
